<?xml version="1.0" encoding="UTF-8" standalone="no" ?>
<gpx xmlns="http://www.topografix.com/GPX/1/1" xmlns:xsi="http://www.w3.org/2001/XMLSchema-instance" xsi:schemaLocation="http://www.topografix.com/GPX/1/1 http://www.topografix.com/GPX/1/1/gpx.xsd" version="1.1" creator="VisuGPX - https://www.visugpx.com">
  <metadata>
    <name>Dame Blanche Bregille</name>
  </metadata>
  <trk>
    <name><![CDATA[Dame Blanche Bregille_1]]></name>
    <trkseg>
      <trkpt lat="47.24675" lon="6.02531">
        <ele>274.2</ele>
        <time>2021-09-05T07:44:36Z</time>
      </trkpt>
      <trkpt lat="47.24676" lon="6.0253">
        <ele>269.4</ele>
        <time>2021-09-05T07:44:41Z</time>
      </trkpt>
      <trkpt lat="47.24678" lon="6.02527">
        <ele>269.4</ele>
        <time>2021-09-05T07:44:50Z</time>
      </trkpt>
      <trkpt lat="47.24678" lon="6.02527">
        <ele>269.6</ele>
        <time>2021-09-05T07:44:51Z</time>
      </trkpt>
      <trkpt lat="47.24682" lon="6.02522">
        <ele>269.6</ele>
        <time>2021-09-05T07:45:09Z</time>
      </trkpt>
      <trkpt lat="47.24688" lon="6.02519">
        <ele>269.4</ele>
        <time>2021-09-05T07:45:43Z</time>
      </trkpt>
      <trkpt lat="47.24685" lon="6.02519">
        <ele>269.4</ele>
        <time>2021-09-05T07:45:58Z</time>
      </trkpt>
      <trkpt lat="47.24683" lon="6.02517">
        <ele>269.2</ele>
        <time>2021-09-05T07:46:06Z</time>
      </trkpt>
      <trkpt lat="47.24684" lon="6.02516">
        <ele>269.2</ele>
        <time>2021-09-05T07:46:07Z</time>
      </trkpt>
      <trkpt lat="47.24689" lon="6.02508">
        <ele>269.4</ele>
        <time>2021-09-05T07:46:11Z</time>
      </trkpt>
      <trkpt lat="47.24692" lon="6.02503">
        <ele>269.6</ele>
        <time>2021-09-05T07:46:14Z</time>
      </trkpt>
      <trkpt lat="47.24694" lon="6.02502">
        <ele>270</ele>
        <time>2021-09-05T07:46:15Z</time>
      </trkpt>
      <trkpt lat="47.24697" lon="6.02499">
        <ele>270.4</ele>
        <time>2021-09-05T07:46:17Z</time>
      </trkpt>
      <trkpt lat="47.24699" lon="6.02495">
        <ele>270.6</ele>
        <time>2021-09-05T07:46:19Z</time>
      </trkpt>
      <trkpt lat="47.247" lon="6.02494">
        <ele>270.8</ele>
        <time>2021-09-05T07:46:20Z</time>
      </trkpt>
      <trkpt lat="47.24702" lon="6.02493">
        <ele>271</ele>
        <time>2021-09-05T07:46:21Z</time>
      </trkpt>
      <trkpt lat="47.24704" lon="6.02492">
        <ele>271</ele>
        <time>2021-09-05T07:46:22Z</time>
      </trkpt>
      <trkpt lat="47.24706" lon="6.02492">
        <ele>271.2</ele>
        <time>2021-09-05T07:46:23Z</time>
      </trkpt>
      <trkpt lat="47.24711" lon="6.02495">
        <ele>271.4</ele>
        <time>2021-09-05T07:46:25Z</time>
      </trkpt>
      <trkpt lat="47.24711" lon="6.02498">
        <ele>271.4</ele>
        <time>2021-09-05T07:46:26Z</time>
      </trkpt>
      <trkpt lat="47.2471" lon="6.025">
        <ele>271.6</ele>
        <time>2021-09-05T07:46:27Z</time>
      </trkpt>
      <trkpt lat="47.24711" lon="6.02501">
        <ele>271.6</ele>
        <time>2021-09-05T07:46:28Z</time>
      </trkpt>
      <trkpt lat="47.24713" lon="6.02503">
        <ele>271.6</ele>
        <time>2021-09-05T07:46:29Z</time>
      </trkpt>
      <trkpt lat="47.24723" lon="6.02514">
        <ele>271.8</ele>
        <time>2021-09-05T07:46:33Z</time>
      </trkpt>
      <trkpt lat="47.2474" lon="6.02534">
        <ele>272</ele>
        <time>2021-09-05T07:46:38Z</time>
      </trkpt>
      <trkpt lat="47.24742" lon="6.02535">
        <ele>272</ele>
        <time>2021-09-05T07:46:39Z</time>
      </trkpt>
      <trkpt lat="47.24744" lon="6.02536">
        <ele>272</ele>
        <time>2021-09-05T07:46:40Z</time>
      </trkpt>
      <trkpt lat="47.24747" lon="6.02536">
        <ele>272</ele>
        <time>2021-09-05T07:46:41Z</time>
      </trkpt>
      <trkpt lat="47.2475" lon="6.02535">
        <ele>272</ele>
        <time>2021-09-05T07:46:42Z</time>
      </trkpt>
      <trkpt lat="47.24753" lon="6.02533">
        <ele>272</ele>
        <time>2021-09-05T07:46:43Z</time>
      </trkpt>
      <trkpt lat="47.24756" lon="6.0253">
        <ele>271.8</ele>
        <time>2021-09-05T07:46:44Z</time>
      </trkpt>
      <trkpt lat="47.24759" lon="6.02528">
        <ele>271.8</ele>
        <time>2021-09-05T07:46:45Z</time>
      </trkpt>
      <trkpt lat="47.24777" lon="6.02513">
        <ele>272</ele>
        <time>2021-09-05T07:46:51Z</time>
      </trkpt>
      <trkpt lat="47.24785" lon="6.02507">
        <ele>272.2</ele>
        <time>2021-09-05T07:46:54Z</time>
      </trkpt>
      <trkpt lat="47.24787" lon="6.02506">
        <ele>272.2</ele>
        <time>2021-09-05T07:46:55Z</time>
      </trkpt>
      <trkpt lat="47.24789" lon="6.02506">
        <ele>272.4</ele>
        <time>2021-09-05T07:46:56Z</time>
      </trkpt>
      <trkpt lat="47.24791" lon="6.02507">
        <ele>272.4</ele>
        <time>2021-09-05T07:46:57Z</time>
      </trkpt>
      <trkpt lat="47.24793" lon="6.02509">
        <ele>272.4</ele>
        <time>2021-09-05T07:46:58Z</time>
      </trkpt>
      <trkpt lat="47.24796" lon="6.02517">
        <ele>272.4</ele>
        <time>2021-09-05T07:47:00Z</time>
      </trkpt>
      <trkpt lat="47.24798" lon="6.02522">
        <ele>272.4</ele>
        <time>2021-09-05T07:47:01Z</time>
      </trkpt>
      <trkpt lat="47.248" lon="6.02527">
        <ele>272.4</ele>
        <time>2021-09-05T07:47:02Z</time>
      </trkpt>
      <trkpt lat="47.24806" lon="6.02546">
        <ele>272.2</ele>
        <time>2021-09-05T07:47:05Z</time>
      </trkpt>
      <trkpt lat="47.24818" lon="6.02584">
        <ele>271.4</ele>
        <time>2021-09-05T07:47:10Z</time>
      </trkpt>
      <trkpt lat="47.2482" lon="6.02591">
        <ele>271.2</ele>
        <time>2021-09-05T07:47:11Z</time>
      </trkpt>
      <trkpt lat="47.24823" lon="6.02598">
        <ele>271</ele>
        <time>2021-09-05T07:47:12Z</time>
      </trkpt>
      <trkpt lat="47.24831" lon="6.02634">
        <ele>270.6</ele>
        <time>2021-09-05T07:47:17Z</time>
      </trkpt>
      <trkpt lat="47.24833" lon="6.02641">
        <ele>270.6</ele>
        <time>2021-09-05T07:47:18Z</time>
      </trkpt>
      <trkpt lat="47.24834" lon="6.02647">
        <ele>270.6</ele>
        <time>2021-09-05T07:47:19Z</time>
      </trkpt>
      <trkpt lat="47.24835" lon="6.02654">
        <ele>270.6</ele>
        <time>2021-09-05T07:47:20Z</time>
      </trkpt>
      <trkpt lat="47.24837" lon="6.02659">
        <ele>270.6</ele>
        <time>2021-09-05T07:47:21Z</time>
      </trkpt>
      <trkpt lat="47.24838" lon="6.02666">
        <ele>270.6</ele>
        <time>2021-09-05T07:47:22Z</time>
      </trkpt>
      <trkpt lat="47.24839" lon="6.02671">
        <ele>270.6</ele>
        <time>2021-09-05T07:47:23Z</time>
      </trkpt>
      <trkpt lat="47.2484" lon="6.02677">
        <ele>270.6</ele>
        <time>2021-09-05T07:47:24Z</time>
      </trkpt>
      <trkpt lat="47.24843" lon="6.02693">
        <ele>271</ele>
        <time>2021-09-05T07:47:27Z</time>
      </trkpt>
      <trkpt lat="47.24844" lon="6.02698">
        <ele>271</ele>
        <time>2021-09-05T07:47:28Z</time>
      </trkpt>
      <trkpt lat="47.24846" lon="6.02704">
        <ele>271</ele>
        <time>2021-09-05T07:47:29Z</time>
      </trkpt>
      <trkpt lat="47.24848" lon="6.02709">
        <ele>271</ele>
        <time>2021-09-05T07:47:30Z</time>
      </trkpt>
      <trkpt lat="47.24849" lon="6.02714">
        <ele>271.2</ele>
        <time>2021-09-05T07:47:31Z</time>
      </trkpt>
      <trkpt lat="47.24851" lon="6.02719">
        <ele>271.2</ele>
        <time>2021-09-05T07:47:32Z</time>
      </trkpt>
      <trkpt lat="47.24853" lon="6.02722">
        <ele>271.2</ele>
        <time>2021-09-05T07:47:33Z</time>
      </trkpt>
      <trkpt lat="47.24855" lon="6.02725">
        <ele>271.4</ele>
        <time>2021-09-05T07:47:34Z</time>
      </trkpt>
      <trkpt lat="47.24857" lon="6.02729">
        <ele>271.4</ele>
        <time>2021-09-05T07:47:35Z</time>
      </trkpt>
      <trkpt lat="47.24859" lon="6.02734">
        <ele>271.6</ele>
        <time>2021-09-05T07:47:36Z</time>
      </trkpt>
      <trkpt lat="47.24864" lon="6.02746">
        <ele>272</ele>
        <time>2021-09-05T07:47:39Z</time>
      </trkpt>
      <trkpt lat="47.24868" lon="6.02757">
        <ele>272.4</ele>
        <time>2021-09-05T07:47:41Z</time>
      </trkpt>
      <trkpt lat="47.2487" lon="6.02762">
        <ele>272.4</ele>
        <time>2021-09-05T07:47:42Z</time>
      </trkpt>
      <trkpt lat="47.24871" lon="6.02765">
        <ele>272.6</ele>
        <time>2021-09-05T07:47:43Z</time>
      </trkpt>
      <trkpt lat="47.24874" lon="6.02769">
        <ele>272.6</ele>
        <time>2021-09-05T07:47:44Z</time>
      </trkpt>
      <trkpt lat="47.24876" lon="6.02774">
        <ele>272.8</ele>
        <time>2021-09-05T07:47:45Z</time>
      </trkpt>
      <trkpt lat="47.24877" lon="6.02776">
        <ele>272.8</ele>
        <time>2021-09-05T07:47:46Z</time>
      </trkpt>
      <trkpt lat="47.24877" lon="6.02779">
        <ele>272.8</ele>
        <time>2021-09-05T07:47:47Z</time>
      </trkpt>
      <trkpt lat="47.24876" lon="6.02782">
        <ele>272.8</ele>
        <time>2021-09-05T07:47:48Z</time>
      </trkpt>
      <trkpt lat="47.24875" lon="6.02785">
        <ele>272.8</ele>
        <time>2021-09-05T07:47:49Z</time>
      </trkpt>
      <trkpt lat="47.2487" lon="6.02792">
        <ele>272.6</ele>
        <time>2021-09-05T07:47:51Z</time>
      </trkpt>
      <trkpt lat="47.24869" lon="6.02795">
        <ele>272.4</ele>
        <time>2021-09-05T07:47:52Z</time>
      </trkpt>
      <trkpt lat="47.24869" lon="6.02798">
        <ele>272.4</ele>
        <time>2021-09-05T07:47:53Z</time>
      </trkpt>
      <trkpt lat="47.2487" lon="6.02801">
        <ele>272.2</ele>
        <time>2021-09-05T07:47:54Z</time>
      </trkpt>
      <trkpt lat="47.24871" lon="6.02804">
        <ele>272</ele>
        <time>2021-09-05T07:47:55Z</time>
      </trkpt>
      <trkpt lat="47.24874" lon="6.02809">
        <ele>271.4</ele>
        <time>2021-09-05T07:47:57Z</time>
      </trkpt>
      <trkpt lat="47.24876" lon="6.02811">
        <ele>271.4</ele>
        <time>2021-09-05T07:47:58Z</time>
      </trkpt>
      <trkpt lat="47.24878" lon="6.02813">
        <ele>271.2</ele>
        <time>2021-09-05T07:47:59Z</time>
      </trkpt>
      <trkpt lat="47.2488" lon="6.02814">
        <ele>271</ele>
        <time>2021-09-05T07:48:00Z</time>
      </trkpt>
      <trkpt lat="47.24883" lon="6.02816">
        <ele>271</ele>
        <time>2021-09-05T07:48:01Z</time>
      </trkpt>
      <trkpt lat="47.24891" lon="6.02822">
        <ele>270.8</ele>
        <time>2021-09-05T07:48:03Z</time>
      </trkpt>
      <trkpt lat="47.24895" lon="6.02826">
        <ele>270.6</ele>
        <time>2021-09-05T07:48:04Z</time>
      </trkpt>
      <trkpt lat="47.24902" lon="6.0283">
        <ele>270.6</ele>
        <time>2021-09-05T07:48:06Z</time>
      </trkpt>
      <trkpt lat="47.24905" lon="6.02832">
        <ele>270.6</ele>
        <time>2021-09-05T07:48:07Z</time>
      </trkpt>
      <trkpt lat="47.24908" lon="6.02833">
        <ele>270.6</ele>
        <time>2021-09-05T07:48:08Z</time>
      </trkpt>
      <trkpt lat="47.24909" lon="6.02834">
        <ele>270.6</ele>
        <time>2021-09-05T07:48:09Z</time>
      </trkpt>
      <trkpt lat="47.24912" lon="6.02836">
        <ele>270.6</ele>
        <time>2021-09-05T07:48:10Z</time>
      </trkpt>
      <trkpt lat="47.24919" lon="6.02841">
        <ele>271</ele>
        <time>2021-09-05T07:48:13Z</time>
      </trkpt>
      <trkpt lat="47.24921" lon="6.02843">
        <ele>271.2</ele>
        <time>2021-09-05T07:48:14Z</time>
      </trkpt>
      <trkpt lat="47.24924" lon="6.02846">
        <ele>271.2</ele>
        <time>2021-09-05T07:48:15Z</time>
      </trkpt>
      <trkpt lat="47.24927" lon="6.02848">
        <ele>271.4</ele>
        <time>2021-09-05T07:48:16Z</time>
      </trkpt>
      <trkpt lat="47.2493" lon="6.0285">
        <ele>271.4</ele>
        <time>2021-09-05T07:48:17Z</time>
      </trkpt>
      <trkpt lat="47.24932" lon="6.02852">
        <ele>271.6</ele>
        <time>2021-09-05T07:48:18Z</time>
      </trkpt>
      <trkpt lat="47.24938" lon="6.02856">
        <ele>271.8</ele>
        <time>2021-09-05T07:48:20Z</time>
      </trkpt>
      <trkpt lat="47.24948" lon="6.02863">
        <ele>272.2</ele>
        <time>2021-09-05T07:48:23Z</time>
      </trkpt>
      <trkpt lat="47.24951" lon="6.02865">
        <ele>272.2</ele>
        <time>2021-09-05T07:48:24Z</time>
      </trkpt>
      <trkpt lat="47.24973" lon="6.02879">
        <ele>272.8</ele>
        <time>2021-09-05T07:48:30Z</time>
      </trkpt>
      <trkpt lat="47.24976" lon="6.02881">
        <ele>272.8</ele>
        <time>2021-09-05T07:48:31Z</time>
      </trkpt>
      <trkpt lat="47.24979" lon="6.02883">
        <ele>273</ele>
        <time>2021-09-05T07:48:32Z</time>
      </trkpt>
      <trkpt lat="47.24994" lon="6.02892">
        <ele>273.6</ele>
        <time>2021-09-05T07:48:36Z</time>
      </trkpt>
      <trkpt lat="47.24997" lon="6.02894">
        <ele>273.6</ele>
        <time>2021-09-05T07:48:37Z</time>
      </trkpt>
      <trkpt lat="47.24999" lon="6.02896">
        <ele>273.8</ele>
        <time>2021-09-05T07:48:38Z</time>
      </trkpt>
      <trkpt lat="47.25001" lon="6.02898">
        <ele>273.8</ele>
        <time>2021-09-05T07:48:39Z</time>
      </trkpt>
      <trkpt lat="47.25006" lon="6.02901">
        <ele>274</ele>
        <time>2021-09-05T07:48:40Z</time>
      </trkpt>
      <trkpt lat="47.2501" lon="6.02905">
        <ele>274.4</ele>
        <time>2021-09-05T07:48:42Z</time>
      </trkpt>
      <trkpt lat="47.25015" lon="6.0291">
        <ele>274.6</ele>
        <time>2021-09-05T07:48:44Z</time>
      </trkpt>
      <trkpt lat="47.25017" lon="6.02912">
        <ele>274.8</ele>
        <time>2021-09-05T07:48:45Z</time>
      </trkpt>
      <trkpt lat="47.25019" lon="6.02914">
        <ele>275</ele>
        <time>2021-09-05T07:48:46Z</time>
      </trkpt>
      <trkpt lat="47.25022" lon="6.02916">
        <ele>275.2</ele>
        <time>2021-09-05T07:48:47Z</time>
      </trkpt>
      <trkpt lat="47.25025" lon="6.02918">
        <ele>275.4</ele>
        <time>2021-09-05T07:48:48Z</time>
      </trkpt>
      <trkpt lat="47.25028" lon="6.02921">
        <ele>275.6</ele>
        <time>2021-09-05T07:48:49Z</time>
      </trkpt>
      <trkpt lat="47.25031" lon="6.02923">
        <ele>275.6</ele>
        <time>2021-09-05T07:48:50Z</time>
      </trkpt>
      <trkpt lat="47.25034" lon="6.02925">
        <ele>275.6</ele>
        <time>2021-09-05T07:48:51Z</time>
      </trkpt>
      <trkpt lat="47.25036" lon="6.02927">
        <ele>275.8</ele>
        <time>2021-09-05T07:48:52Z</time>
      </trkpt>
      <trkpt lat="47.25038" lon="6.0293">
        <ele>275.8</ele>
        <time>2021-09-05T07:48:53Z</time>
      </trkpt>
      <trkpt lat="47.2504" lon="6.02933">
        <ele>276</ele>
        <time>2021-09-05T07:48:54Z</time>
      </trkpt>
      <trkpt lat="47.25042" lon="6.02937">
        <ele>276</ele>
        <time>2021-09-05T07:48:55Z</time>
      </trkpt>
      <trkpt lat="47.25044" lon="6.02941">
        <ele>276.4</ele>
        <time>2021-09-05T07:48:56Z</time>
      </trkpt>
      <trkpt lat="47.25046" lon="6.02945">
        <ele>276.4</ele>
        <time>2021-09-05T07:48:57Z</time>
      </trkpt>
      <trkpt lat="47.25047" lon="6.02948">
        <ele>276.8</ele>
        <time>2021-09-05T07:48:58Z</time>
      </trkpt>
      <trkpt lat="47.25047" lon="6.02951">
        <ele>277</ele>
        <time>2021-09-05T07:48:59Z</time>
      </trkpt>
      <trkpt lat="47.25049" lon="6.02955">
        <ele>277</ele>
        <time>2021-09-05T07:49:00Z</time>
      </trkpt>
      <trkpt lat="47.2505" lon="6.02959">
        <ele>277.2</ele>
        <time>2021-09-05T07:49:01Z</time>
      </trkpt>
      <trkpt lat="47.25053" lon="6.02963">
        <ele>277.2</ele>
        <time>2021-09-05T07:49:02Z</time>
      </trkpt>
      <trkpt lat="47.25054" lon="6.02967">
        <ele>277.4</ele>
        <time>2021-09-05T07:49:03Z</time>
      </trkpt>
      <trkpt lat="47.25056" lon="6.02971">
        <ele>277.4</ele>
        <time>2021-09-05T07:49:04Z</time>
      </trkpt>
      <trkpt lat="47.25057" lon="6.02976">
        <ele>277.6</ele>
        <time>2021-09-05T07:49:05Z</time>
      </trkpt>
      <trkpt lat="47.25059" lon="6.02979">
        <ele>277.8</ele>
        <time>2021-09-05T07:49:06Z</time>
      </trkpt>
      <trkpt lat="47.25061" lon="6.02984">
        <ele>277.8</ele>
        <time>2021-09-05T07:49:07Z</time>
      </trkpt>
      <trkpt lat="47.25063" lon="6.02988">
        <ele>278</ele>
        <time>2021-09-05T07:49:08Z</time>
      </trkpt>
      <trkpt lat="47.25065" lon="6.02992">
        <ele>278</ele>
        <time>2021-09-05T07:49:09Z</time>
      </trkpt>
      <trkpt lat="47.25068" lon="6.02996">
        <ele>278.2</ele>
        <time>2021-09-05T07:49:10Z</time>
      </trkpt>
      <trkpt lat="47.25069" lon="6.03">
        <ele>278.2</ele>
        <time>2021-09-05T07:49:11Z</time>
      </trkpt>
      <trkpt lat="47.25072" lon="6.03003">
        <ele>278.4</ele>
        <time>2021-09-05T07:49:12Z</time>
      </trkpt>
      <trkpt lat="47.25074" lon="6.03008">
        <ele>278.4</ele>
        <time>2021-09-05T07:49:13Z</time>
      </trkpt>
      <trkpt lat="47.25076" lon="6.03012">
        <ele>278.6</ele>
        <time>2021-09-05T07:49:14Z</time>
      </trkpt>
      <trkpt lat="47.25077" lon="6.03016">
        <ele>278.6</ele>
        <time>2021-09-05T07:49:15Z</time>
      </trkpt>
      <trkpt lat="47.25079" lon="6.0302">
        <ele>278.8</ele>
        <time>2021-09-05T07:49:16Z</time>
      </trkpt>
      <trkpt lat="47.2508" lon="6.03023">
        <ele>279.2</ele>
        <time>2021-09-05T07:49:17Z</time>
      </trkpt>
      <trkpt lat="47.25081" lon="6.03026">
        <ele>279.2</ele>
        <time>2021-09-05T07:49:18Z</time>
      </trkpt>
      <trkpt lat="47.25083" lon="6.03029">
        <ele>279.4</ele>
        <time>2021-09-05T07:49:19Z</time>
      </trkpt>
      <trkpt lat="47.25085" lon="6.03032">
        <ele>279.6</ele>
        <time>2021-09-05T07:49:20Z</time>
      </trkpt>
      <trkpt lat="47.25087" lon="6.03034">
        <ele>279.6</ele>
        <time>2021-09-05T07:49:21Z</time>
      </trkpt>
      <trkpt lat="47.2509" lon="6.03036">
        <ele>279.8</ele>
        <time>2021-09-05T07:49:22Z</time>
      </trkpt>
      <trkpt lat="47.25093" lon="6.03039">
        <ele>280</ele>
        <time>2021-09-05T07:49:23Z</time>
      </trkpt>
      <trkpt lat="47.25096" lon="6.03041">
        <ele>280.2</ele>
        <time>2021-09-05T07:49:24Z</time>
      </trkpt>
      <trkpt lat="47.25098" lon="6.03042">
        <ele>280.2</ele>
        <time>2021-09-05T07:49:25Z</time>
      </trkpt>
      <trkpt lat="47.25101" lon="6.03043">
        <ele>280.4</ele>
        <time>2021-09-05T07:49:26Z</time>
      </trkpt>
      <trkpt lat="47.25103" lon="6.03044">
        <ele>280.6</ele>
        <time>2021-09-05T07:49:27Z</time>
      </trkpt>
      <trkpt lat="47.25106" lon="6.03045">
        <ele>280.6</ele>
        <time>2021-09-05T07:49:28Z</time>
      </trkpt>
      <trkpt lat="47.25109" lon="6.03045">
        <ele>280.8</ele>
        <time>2021-09-05T07:49:29Z</time>
      </trkpt>
      <trkpt lat="47.25112" lon="6.03046">
        <ele>280.8</ele>
        <time>2021-09-05T07:49:30Z</time>
      </trkpt>
      <trkpt lat="47.25115" lon="6.03046">
        <ele>281</ele>
        <time>2021-09-05T07:49:31Z</time>
      </trkpt>
      <trkpt lat="47.25118" lon="6.03046">
        <ele>281.2</ele>
        <time>2021-09-05T07:49:32Z</time>
      </trkpt>
      <trkpt lat="47.25121" lon="6.03046">
        <ele>281.2</ele>
        <time>2021-09-05T07:49:33Z</time>
      </trkpt>
      <trkpt lat="47.25123" lon="6.03045">
        <ele>281.4</ele>
        <time>2021-09-05T07:49:34Z</time>
      </trkpt>
      <trkpt lat="47.25127" lon="6.03044">
        <ele>281.4</ele>
        <time>2021-09-05T07:49:35Z</time>
      </trkpt>
      <trkpt lat="47.25129" lon="6.03043">
        <ele>281.4</ele>
        <time>2021-09-05T07:49:36Z</time>
      </trkpt>
      <trkpt lat="47.25131" lon="6.03042">
        <ele>281.4</ele>
        <time>2021-09-05T07:49:37Z</time>
      </trkpt>
      <trkpt lat="47.25134" lon="6.03041">
        <ele>281.6</ele>
        <time>2021-09-05T07:49:38Z</time>
      </trkpt>
      <trkpt lat="47.25136" lon="6.0304">
        <ele>281.8</ele>
        <time>2021-09-05T07:49:39Z</time>
      </trkpt>
      <trkpt lat="47.25139" lon="6.03038">
        <ele>282</ele>
        <time>2021-09-05T07:49:40Z</time>
      </trkpt>
      <trkpt lat="47.25141" lon="6.03037">
        <ele>282.2</ele>
        <time>2021-09-05T07:49:41Z</time>
      </trkpt>
      <trkpt lat="47.25143" lon="6.03036">
        <ele>282.2</ele>
        <time>2021-09-05T07:49:42Z</time>
      </trkpt>
      <trkpt lat="47.25146" lon="6.03034">
        <ele>282.4</ele>
        <time>2021-09-05T07:49:43Z</time>
      </trkpt>
      <trkpt lat="47.25149" lon="6.03033">
        <ele>282.6</ele>
        <time>2021-09-05T07:49:44Z</time>
      </trkpt>
      <trkpt lat="47.25151" lon="6.03032">
        <ele>282.6</ele>
        <time>2021-09-05T07:49:45Z</time>
      </trkpt>
      <trkpt lat="47.25154" lon="6.0303">
        <ele>282.8</ele>
        <time>2021-09-05T07:49:46Z</time>
      </trkpt>
      <trkpt lat="47.25157" lon="6.03029">
        <ele>283</ele>
        <time>2021-09-05T07:49:47Z</time>
      </trkpt>
      <trkpt lat="47.25159" lon="6.03027">
        <ele>283.4</ele>
        <time>2021-09-05T07:49:48Z</time>
      </trkpt>
      <trkpt lat="47.25162" lon="6.03026">
        <ele>283.4</ele>
        <time>2021-09-05T07:49:49Z</time>
      </trkpt>
      <trkpt lat="47.25166" lon="6.03023">
        <ele>283.8</ele>
        <time>2021-09-05T07:49:50Z</time>
      </trkpt>
      <trkpt lat="47.25168" lon="6.03022">
        <ele>283.8</ele>
        <time>2021-09-05T07:49:51Z</time>
      </trkpt>
      <trkpt lat="47.25171" lon="6.03021">
        <ele>284.2</ele>
        <time>2021-09-05T07:49:52Z</time>
      </trkpt>
      <trkpt lat="47.25175" lon="6.0302">
        <ele>284.2</ele>
        <time>2021-09-05T07:49:53Z</time>
      </trkpt>
      <trkpt lat="47.25178" lon="6.03019">
        <ele>284.4</ele>
        <time>2021-09-05T07:49:54Z</time>
      </trkpt>
      <trkpt lat="47.25182" lon="6.03018">
        <ele>284.6</ele>
        <time>2021-09-05T07:49:55Z</time>
      </trkpt>
      <trkpt lat="47.25185" lon="6.03018">
        <ele>284.6</ele>
        <time>2021-09-05T07:49:56Z</time>
      </trkpt>
      <trkpt lat="47.25188" lon="6.03018">
        <ele>284.8</ele>
        <time>2021-09-05T07:49:57Z</time>
      </trkpt>
      <trkpt lat="47.25192" lon="6.03019">
        <ele>285</ele>
        <time>2021-09-05T07:49:58Z</time>
      </trkpt>
      <trkpt lat="47.25195" lon="6.0302">
        <ele>285.2</ele>
        <time>2021-09-05T07:49:59Z</time>
      </trkpt>
      <trkpt lat="47.25199" lon="6.03021">
        <ele>285.2</ele>
        <time>2021-09-05T07:50:00Z</time>
      </trkpt>
      <trkpt lat="47.25201" lon="6.03022">
        <ele>285.4</ele>
        <time>2021-09-05T07:50:01Z</time>
      </trkpt>
      <trkpt lat="47.25205" lon="6.03024">
        <ele>285.4</ele>
        <time>2021-09-05T07:50:02Z</time>
      </trkpt>
      <trkpt lat="47.25208" lon="6.03026">
        <ele>285.4</ele>
        <time>2021-09-05T07:50:03Z</time>
      </trkpt>
      <trkpt lat="47.25212" lon="6.03028">
        <ele>285.6</ele>
        <time>2021-09-05T07:50:04Z</time>
      </trkpt>
      <trkpt lat="47.25215" lon="6.0303">
        <ele>285.6</ele>
        <time>2021-09-05T07:50:05Z</time>
      </trkpt>
      <trkpt lat="47.25218" lon="6.03032">
        <ele>285.8</ele>
        <time>2021-09-05T07:50:06Z</time>
      </trkpt>
      <trkpt lat="47.25221" lon="6.03035">
        <ele>285.8</ele>
        <time>2021-09-05T07:50:07Z</time>
      </trkpt>
      <trkpt lat="47.25224" lon="6.03037">
        <ele>286</ele>
        <time>2021-09-05T07:50:08Z</time>
      </trkpt>
      <trkpt lat="47.25227" lon="6.0304">
        <ele>286</ele>
        <time>2021-09-05T07:50:09Z</time>
      </trkpt>
      <trkpt lat="47.2523" lon="6.03041">
        <ele>286.2</ele>
        <time>2021-09-05T07:50:10Z</time>
      </trkpt>
      <trkpt lat="47.25232" lon="6.03043">
        <ele>286.4</ele>
        <time>2021-09-05T07:50:11Z</time>
      </trkpt>
      <trkpt lat="47.25235" lon="6.03044">
        <ele>286.4</ele>
        <time>2021-09-05T07:50:12Z</time>
      </trkpt>
      <trkpt lat="47.25238" lon="6.03046">
        <ele>286.6</ele>
        <time>2021-09-05T07:50:13Z</time>
      </trkpt>
      <trkpt lat="47.25241" lon="6.03047">
        <ele>286.6</ele>
        <time>2021-09-05T07:50:14Z</time>
      </trkpt>
      <trkpt lat="47.25244" lon="6.03048">
        <ele>286.8</ele>
        <time>2021-09-05T07:50:15Z</time>
      </trkpt>
      <trkpt lat="47.25246" lon="6.03049">
        <ele>286.8</ele>
        <time>2021-09-05T07:50:16Z</time>
      </trkpt>
      <trkpt lat="47.25249" lon="6.03051">
        <ele>286.8</ele>
        <time>2021-09-05T07:50:17Z</time>
      </trkpt>
      <trkpt lat="47.25253" lon="6.03053">
        <ele>287</ele>
        <time>2021-09-05T07:50:18Z</time>
      </trkpt>
      <trkpt lat="47.25256" lon="6.03054">
        <ele>287</ele>
        <time>2021-09-05T07:50:19Z</time>
      </trkpt>
      <trkpt lat="47.25258" lon="6.03056">
        <ele>287.4</ele>
        <time>2021-09-05T07:50:20Z</time>
      </trkpt>
      <trkpt lat="47.25261" lon="6.03057">
        <ele>287.4</ele>
        <time>2021-09-05T07:50:21Z</time>
      </trkpt>
      <trkpt lat="47.25264" lon="6.03058">
        <ele>287.8</ele>
        <time>2021-09-05T07:50:22Z</time>
      </trkpt>
      <trkpt lat="47.25266" lon="6.03059">
        <ele>288</ele>
        <time>2021-09-05T07:50:23Z</time>
      </trkpt>
      <trkpt lat="47.25269" lon="6.03061">
        <ele>288</ele>
        <time>2021-09-05T07:50:24Z</time>
      </trkpt>
      <trkpt lat="47.25271" lon="6.03061">
        <ele>288.2</ele>
        <time>2021-09-05T07:50:25Z</time>
      </trkpt>
      <trkpt lat="47.25274" lon="6.03062">
        <ele>288.4</ele>
        <time>2021-09-05T07:50:26Z</time>
      </trkpt>
      <trkpt lat="47.25277" lon="6.03064">
        <ele>288.4</ele>
        <time>2021-09-05T07:50:27Z</time>
      </trkpt>
      <trkpt lat="47.2528" lon="6.03065">
        <ele>288.6</ele>
        <time>2021-09-05T07:50:28Z</time>
      </trkpt>
      <trkpt lat="47.25283" lon="6.03067">
        <ele>288.6</ele>
        <time>2021-09-05T07:50:29Z</time>
      </trkpt>
      <trkpt lat="47.25286" lon="6.03069">
        <ele>288.8</ele>
        <time>2021-09-05T07:50:30Z</time>
      </trkpt>
      <trkpt lat="47.25288" lon="6.0307">
        <ele>289</ele>
        <time>2021-09-05T07:50:31Z</time>
      </trkpt>
      <trkpt lat="47.2529" lon="6.03071">
        <ele>289.2</ele>
        <time>2021-09-05T07:50:32Z</time>
      </trkpt>
      <trkpt lat="47.25293" lon="6.03073">
        <ele>289.4</ele>
        <time>2021-09-05T07:50:33Z</time>
      </trkpt>
      <trkpt lat="47.25296" lon="6.03075">
        <ele>289.6</ele>
        <time>2021-09-05T07:50:34Z</time>
      </trkpt>
      <trkpt lat="47.25298" lon="6.03076">
        <ele>289.8</ele>
        <time>2021-09-05T07:50:35Z</time>
      </trkpt>
      <trkpt lat="47.25301" lon="6.03077">
        <ele>290</ele>
        <time>2021-09-05T07:50:36Z</time>
      </trkpt>
      <trkpt lat="47.25303" lon="6.03078">
        <ele>290.2</ele>
        <time>2021-09-05T07:50:37Z</time>
      </trkpt>
      <trkpt lat="47.25306" lon="6.03079">
        <ele>290.2</ele>
        <time>2021-09-05T07:50:38Z</time>
      </trkpt>
      <trkpt lat="47.25308" lon="6.03081">
        <ele>290.4</ele>
        <time>2021-09-05T07:50:39Z</time>
      </trkpt>
      <trkpt lat="47.2531" lon="6.03082">
        <ele>290.4</ele>
        <time>2021-09-05T07:50:40Z</time>
      </trkpt>
      <trkpt lat="47.25313" lon="6.03084">
        <ele>290.6</ele>
        <time>2021-09-05T07:50:41Z</time>
      </trkpt>
      <trkpt lat="47.25315" lon="6.03085">
        <ele>290.6</ele>
        <time>2021-09-05T07:50:42Z</time>
      </trkpt>
      <trkpt lat="47.2532" lon="6.03087">
        <ele>290.8</ele>
        <time>2021-09-05T07:50:43Z</time>
      </trkpt>
      <trkpt lat="47.25323" lon="6.03088">
        <ele>291</ele>
        <time>2021-09-05T07:50:44Z</time>
      </trkpt>
      <trkpt lat="47.25325" lon="6.03089">
        <ele>291</ele>
        <time>2021-09-05T07:50:45Z</time>
      </trkpt>
      <trkpt lat="47.25327" lon="6.0309">
        <ele>291.2</ele>
        <time>2021-09-05T07:50:46Z</time>
      </trkpt>
      <trkpt lat="47.25329" lon="6.03092">
        <ele>291.4</ele>
        <time>2021-09-05T07:50:47Z</time>
      </trkpt>
      <trkpt lat="47.25331" lon="6.03093">
        <ele>291.6</ele>
        <time>2021-09-05T07:50:48Z</time>
      </trkpt>
      <trkpt lat="47.25334" lon="6.03095">
        <ele>291.6</ele>
        <time>2021-09-05T07:50:49Z</time>
      </trkpt>
      <trkpt lat="47.25336" lon="6.03097">
        <ele>291.8</ele>
        <time>2021-09-05T07:50:50Z</time>
      </trkpt>
      <trkpt lat="47.25339" lon="6.03098">
        <ele>292</ele>
        <time>2021-09-05T07:50:51Z</time>
      </trkpt>
      <trkpt lat="47.25342" lon="6.031">
        <ele>292.2</ele>
        <time>2021-09-05T07:50:52Z</time>
      </trkpt>
      <trkpt lat="47.25345" lon="6.03102">
        <ele>292.4</ele>
        <time>2021-09-05T07:50:53Z</time>
      </trkpt>
      <trkpt lat="47.25348" lon="6.03104">
        <ele>292.4</ele>
        <time>2021-09-05T07:50:54Z</time>
      </trkpt>
      <trkpt lat="47.2535" lon="6.03106">
        <ele>292.6</ele>
        <time>2021-09-05T07:50:55Z</time>
      </trkpt>
      <trkpt lat="47.25353" lon="6.03108">
        <ele>292.6</ele>
        <time>2021-09-05T07:50:56Z</time>
      </trkpt>
      <trkpt lat="47.25355" lon="6.0311">
        <ele>293</ele>
        <time>2021-09-05T07:50:57Z</time>
      </trkpt>
      <trkpt lat="47.25357" lon="6.03112">
        <ele>293.2</ele>
        <time>2021-09-05T07:50:58Z</time>
      </trkpt>
      <trkpt lat="47.25359" lon="6.03114">
        <ele>293.4</ele>
        <time>2021-09-05T07:50:59Z</time>
      </trkpt>
      <trkpt lat="47.25362" lon="6.03116">
        <ele>293.6</ele>
        <time>2021-09-05T07:51:00Z</time>
      </trkpt>
      <trkpt lat="47.25364" lon="6.03118">
        <ele>293.6</ele>
        <time>2021-09-05T07:51:01Z</time>
      </trkpt>
      <trkpt lat="47.25366" lon="6.0312">
        <ele>293.8</ele>
        <time>2021-09-05T07:51:02Z</time>
      </trkpt>
      <trkpt lat="47.25368" lon="6.03122">
        <ele>293.6</ele>
        <time>2021-09-05T07:51:03Z</time>
      </trkpt>
      <trkpt lat="47.25371" lon="6.03123">
        <ele>294</ele>
        <time>2021-09-05T07:51:04Z</time>
      </trkpt>
      <trkpt lat="47.25373" lon="6.03125">
        <ele>294</ele>
        <time>2021-09-05T07:51:05Z</time>
      </trkpt>
      <trkpt lat="47.25376" lon="6.03127">
        <ele>294</ele>
        <time>2021-09-05T07:51:06Z</time>
      </trkpt>
      <trkpt lat="47.25378" lon="6.03129">
        <ele>294.2</ele>
        <time>2021-09-05T07:51:07Z</time>
      </trkpt>
      <trkpt lat="47.2538" lon="6.03132">
        <ele>294.4</ele>
        <time>2021-09-05T07:51:08Z</time>
      </trkpt>
      <trkpt lat="47.25382" lon="6.03134">
        <ele>294.6</ele>
        <time>2021-09-05T07:51:09Z</time>
      </trkpt>
      <trkpt lat="47.25384" lon="6.03136">
        <ele>294.8</ele>
        <time>2021-09-05T07:51:10Z</time>
      </trkpt>
      <trkpt lat="47.25385" lon="6.03138">
        <ele>295</ele>
        <time>2021-09-05T07:51:11Z</time>
      </trkpt>
      <trkpt lat="47.25387" lon="6.03139">
        <ele>295</ele>
        <time>2021-09-05T07:51:12Z</time>
      </trkpt>
      <trkpt lat="47.25389" lon="6.03141">
        <ele>295.2</ele>
        <time>2021-09-05T07:51:13Z</time>
      </trkpt>
      <trkpt lat="47.25392" lon="6.03142">
        <ele>295.4</ele>
        <time>2021-09-05T07:51:14Z</time>
      </trkpt>
      <trkpt lat="47.25394" lon="6.03142">
        <ele>295.4</ele>
        <time>2021-09-05T07:51:15Z</time>
      </trkpt>
      <trkpt lat="47.25397" lon="6.03142">
        <ele>295.6</ele>
        <time>2021-09-05T07:51:16Z</time>
      </trkpt>
      <trkpt lat="47.25399" lon="6.03142">
        <ele>295.8</ele>
        <time>2021-09-05T07:51:17Z</time>
      </trkpt>
      <trkpt lat="47.25401" lon="6.03143">
        <ele>295.8</ele>
        <time>2021-09-05T07:51:18Z</time>
      </trkpt>
      <trkpt lat="47.25402" lon="6.03144">
        <ele>296</ele>
        <time>2021-09-05T07:51:19Z</time>
      </trkpt>
      <trkpt lat="47.25402" lon="6.03144">
        <ele>296.2</ele>
        <time>2021-09-05T07:51:20Z</time>
      </trkpt>
      <trkpt lat="47.25402" lon="6.03144">
        <ele>296.2</ele>
        <time>2021-09-05T07:51:36Z</time>
      </trkpt>
      <trkpt lat="47.25409" lon="6.0315">
        <ele>296.2</ele>
        <time>2021-09-05T07:51:39Z</time>
      </trkpt>
      <trkpt lat="47.25411" lon="6.03153">
        <ele>296.2</ele>
        <time>2021-09-05T07:51:40Z</time>
      </trkpt>
      <trkpt lat="47.25414" lon="6.03157">
        <ele>296.2</ele>
        <time>2021-09-05T07:51:41Z</time>
      </trkpt>
      <trkpt lat="47.25423" lon="6.03168">
        <ele>296.2</ele>
        <time>2021-09-05T07:51:44Z</time>
      </trkpt>
      <trkpt lat="47.25431" lon="6.03174">
        <ele>296.4</ele>
        <time>2021-09-05T07:51:46Z</time>
      </trkpt>
      <trkpt lat="47.25434" lon="6.03176">
        <ele>296.4</ele>
        <time>2021-09-05T07:51:47Z</time>
      </trkpt>
      <trkpt lat="47.25438" lon="6.03178">
        <ele>296.6</ele>
        <time>2021-09-05T07:51:48Z</time>
      </trkpt>
      <trkpt lat="47.25441" lon="6.03181">
        <ele>296.8</ele>
        <time>2021-09-05T07:51:49Z</time>
      </trkpt>
      <trkpt lat="47.25446" lon="6.03183">
        <ele>296.8</ele>
        <time>2021-09-05T07:51:50Z</time>
      </trkpt>
      <trkpt lat="47.25459" lon="6.0319">
        <ele>296.8</ele>
        <time>2021-09-05T07:51:53Z</time>
      </trkpt>
      <trkpt lat="47.25468" lon="6.03196">
        <ele>296.8</ele>
        <time>2021-09-05T07:51:55Z</time>
      </trkpt>
      <trkpt lat="47.25495" lon="6.03216">
        <ele>296.2</ele>
        <time>2021-09-05T07:52:00Z</time>
      </trkpt>
      <trkpt lat="47.25511" lon="6.0323">
        <ele>295.8</ele>
        <time>2021-09-05T07:52:03Z</time>
      </trkpt>
      <trkpt lat="47.25516" lon="6.03236">
        <ele>295.8</ele>
        <time>2021-09-05T07:52:04Z</time>
      </trkpt>
      <trkpt lat="47.25521" lon="6.03243">
        <ele>295.6</ele>
        <time>2021-09-05T07:52:05Z</time>
      </trkpt>
      <trkpt lat="47.25526" lon="6.0325">
        <ele>295.6</ele>
        <time>2021-09-05T07:52:06Z</time>
      </trkpt>
      <trkpt lat="47.25529" lon="6.03255">
        <ele>295.4</ele>
        <time>2021-09-05T07:52:07Z</time>
      </trkpt>
      <trkpt lat="47.25532" lon="6.0326">
        <ele>295.4</ele>
        <time>2021-09-05T07:52:08Z</time>
      </trkpt>
      <trkpt lat="47.25534" lon="6.03265">
        <ele>295.2</ele>
        <time>2021-09-05T07:52:09Z</time>
      </trkpt>
      <trkpt lat="47.25535" lon="6.03268">
        <ele>295.2</ele>
        <time>2021-09-05T07:52:10Z</time>
      </trkpt>
      <trkpt lat="47.25537" lon="6.03272">
        <ele>295.2</ele>
        <time>2021-09-05T07:52:11Z</time>
      </trkpt>
      <trkpt lat="47.25539" lon="6.03276">
        <ele>295.2</ele>
        <time>2021-09-05T07:52:12Z</time>
      </trkpt>
      <trkpt lat="47.25544" lon="6.03295">
        <ele>295.2</ele>
        <time>2021-09-05T07:52:16Z</time>
      </trkpt>
      <trkpt lat="47.25554" lon="6.03309">
        <ele>295.2</ele>
        <time>2021-09-05T07:52:19Z</time>
      </trkpt>
      <trkpt lat="47.25556" lon="6.03312">
        <ele>295.2</ele>
        <time>2021-09-05T07:52:20Z</time>
      </trkpt>
      <trkpt lat="47.2556" lon="6.03316">
        <ele>295.2</ele>
        <time>2021-09-05T07:52:21Z</time>
      </trkpt>
      <trkpt lat="47.2557" lon="6.03329">
        <ele>295.8</ele>
        <time>2021-09-05T07:52:25Z</time>
      </trkpt>
      <trkpt lat="47.25572" lon="6.03331">
        <ele>296</ele>
        <time>2021-09-05T07:52:26Z</time>
      </trkpt>
      <trkpt lat="47.25573" lon="6.03334">
        <ele>296.2</ele>
        <time>2021-09-05T07:52:27Z</time>
      </trkpt>
      <trkpt lat="47.25575" lon="6.03336">
        <ele>296.6</ele>
        <time>2021-09-05T07:52:28Z</time>
      </trkpt>
      <trkpt lat="47.25577" lon="6.03337">
        <ele>296.8</ele>
        <time>2021-09-05T07:52:29Z</time>
      </trkpt>
      <trkpt lat="47.25579" lon="6.03338">
        <ele>297.2</ele>
        <time>2021-09-05T07:52:30Z</time>
      </trkpt>
      <trkpt lat="47.25582" lon="6.03339">
        <ele>297.6</ele>
        <time>2021-09-05T07:52:31Z</time>
      </trkpt>
      <trkpt lat="47.25584" lon="6.03339">
        <ele>297.8</ele>
        <time>2021-09-05T07:52:32Z</time>
      </trkpt>
      <trkpt lat="47.25588" lon="6.03339">
        <ele>298</ele>
        <time>2021-09-05T07:52:33Z</time>
      </trkpt>
      <trkpt lat="47.25591" lon="6.03338">
        <ele>298</ele>
        <time>2021-09-05T07:52:34Z</time>
      </trkpt>
      <trkpt lat="47.25602" lon="6.03336">
        <ele>298.2</ele>
        <time>2021-09-05T07:52:37Z</time>
      </trkpt>
      <trkpt lat="47.25606" lon="6.03336">
        <ele>298.4</ele>
        <time>2021-09-05T07:52:38Z</time>
      </trkpt>
      <trkpt lat="47.2561" lon="6.03335">
        <ele>298.4</ele>
        <time>2021-09-05T07:52:39Z</time>
      </trkpt>
      <trkpt lat="47.25614" lon="6.03334">
        <ele>298.6</ele>
        <time>2021-09-05T07:52:40Z</time>
      </trkpt>
      <trkpt lat="47.25619" lon="6.03333">
        <ele>298.6</ele>
        <time>2021-09-05T07:52:41Z</time>
      </trkpt>
      <trkpt lat="47.25623" lon="6.03333">
        <ele>298.6</ele>
        <time>2021-09-05T07:52:42Z</time>
      </trkpt>
      <trkpt lat="47.25628" lon="6.03332">
        <ele>298.6</ele>
        <time>2021-09-05T07:52:43Z</time>
      </trkpt>
      <trkpt lat="47.25633" lon="6.03331">
        <ele>298.6</ele>
        <time>2021-09-05T07:52:44Z</time>
      </trkpt>
      <trkpt lat="47.25639" lon="6.0333">
        <ele>298.6</ele>
        <time>2021-09-05T07:52:45Z</time>
      </trkpt>
      <trkpt lat="47.25644" lon="6.03329">
        <ele>298.6</ele>
        <time>2021-09-05T07:52:46Z</time>
      </trkpt>
      <trkpt lat="47.25648" lon="6.03329">
        <ele>298.6</ele>
        <time>2021-09-05T07:52:47Z</time>
      </trkpt>
      <trkpt lat="47.25653" lon="6.03328">
        <ele>298.6</ele>
        <time>2021-09-05T07:52:48Z</time>
      </trkpt>
      <trkpt lat="47.25658" lon="6.03328">
        <ele>298.6</ele>
        <time>2021-09-05T07:52:49Z</time>
      </trkpt>
      <trkpt lat="47.25662" lon="6.03327">
        <ele>298.6</ele>
        <time>2021-09-05T07:52:50Z</time>
      </trkpt>
      <trkpt lat="47.25667" lon="6.03326">
        <ele>298.6</ele>
        <time>2021-09-05T07:52:51Z</time>
      </trkpt>
      <trkpt lat="47.25671" lon="6.03324">
        <ele>298.6</ele>
        <time>2021-09-05T07:52:52Z</time>
      </trkpt>
      <trkpt lat="47.25675" lon="6.03323">
        <ele>298.8</ele>
        <time>2021-09-05T07:52:53Z</time>
      </trkpt>
      <trkpt lat="47.25684" lon="6.03317">
        <ele>299</ele>
        <time>2021-09-05T07:52:55Z</time>
      </trkpt>
      <trkpt lat="47.25687" lon="6.03315">
        <ele>299.2</ele>
        <time>2021-09-05T07:52:56Z</time>
      </trkpt>
      <trkpt lat="47.25691" lon="6.03312">
        <ele>299.6</ele>
        <time>2021-09-05T07:52:57Z</time>
      </trkpt>
      <trkpt lat="47.25694" lon="6.03309">
        <ele>299.8</ele>
        <time>2021-09-05T07:52:58Z</time>
      </trkpt>
      <trkpt lat="47.25697" lon="6.03307">
        <ele>300</ele>
        <time>2021-09-05T07:52:59Z</time>
      </trkpt>
      <trkpt lat="47.257" lon="6.03303">
        <ele>300.2</ele>
        <time>2021-09-05T07:53:00Z</time>
      </trkpt>
      <trkpt lat="47.25701" lon="6.03301">
        <ele>300.6</ele>
        <time>2021-09-05T07:53:01Z</time>
      </trkpt>
      <trkpt lat="47.25704" lon="6.03298">
        <ele>300.8</ele>
        <time>2021-09-05T07:53:02Z</time>
      </trkpt>
      <trkpt lat="47.25706" lon="6.03294">
        <ele>301</ele>
        <time>2021-09-05T07:53:03Z</time>
      </trkpt>
      <trkpt lat="47.25707" lon="6.0329">
        <ele>301.2</ele>
        <time>2021-09-05T07:53:04Z</time>
      </trkpt>
      <trkpt lat="47.25709" lon="6.03288">
        <ele>301.6</ele>
        <time>2021-09-05T07:53:05Z</time>
      </trkpt>
      <trkpt lat="47.25711" lon="6.03285">
        <ele>301.8</ele>
        <time>2021-09-05T07:53:06Z</time>
      </trkpt>
      <trkpt lat="47.25714" lon="6.03282">
        <ele>302.2</ele>
        <time>2021-09-05T07:53:07Z</time>
      </trkpt>
      <trkpt lat="47.25716" lon="6.0328">
        <ele>302.6</ele>
        <time>2021-09-05T07:53:08Z</time>
      </trkpt>
      <trkpt lat="47.25718" lon="6.03277">
        <ele>302.8</ele>
        <time>2021-09-05T07:53:09Z</time>
      </trkpt>
      <trkpt lat="47.2572" lon="6.03275">
        <ele>303</ele>
        <time>2021-09-05T07:53:10Z</time>
      </trkpt>
      <trkpt lat="47.25723" lon="6.03272">
        <ele>303.2</ele>
        <time>2021-09-05T07:53:11Z</time>
      </trkpt>
      <trkpt lat="47.25725" lon="6.0327">
        <ele>303.6</ele>
        <time>2021-09-05T07:53:12Z</time>
      </trkpt>
      <trkpt lat="47.25727" lon="6.03268">
        <ele>304</ele>
        <time>2021-09-05T07:53:13Z</time>
      </trkpt>
      <trkpt lat="47.25729" lon="6.03266">
        <ele>304.2</ele>
        <time>2021-09-05T07:53:14Z</time>
      </trkpt>
      <trkpt lat="47.25731" lon="6.03264">
        <ele>304.6</ele>
        <time>2021-09-05T07:53:15Z</time>
      </trkpt>
      <trkpt lat="47.25733" lon="6.03262">
        <ele>305</ele>
        <time>2021-09-05T07:53:16Z</time>
      </trkpt>
      <trkpt lat="47.25735" lon="6.0326">
        <ele>305.4</ele>
        <time>2021-09-05T07:53:17Z</time>
      </trkpt>
      <trkpt lat="47.25737" lon="6.03258">
        <ele>305.6</ele>
        <time>2021-09-05T07:53:18Z</time>
      </trkpt>
      <trkpt lat="47.25739" lon="6.03256">
        <ele>306</ele>
        <time>2021-09-05T07:53:19Z</time>
      </trkpt>
      <trkpt lat="47.25741" lon="6.03254">
        <ele>306.4</ele>
        <time>2021-09-05T07:53:20Z</time>
      </trkpt>
      <trkpt lat="47.25744" lon="6.03253">
        <ele>306.6</ele>
        <time>2021-09-05T07:53:21Z</time>
      </trkpt>
      <trkpt lat="47.25746" lon="6.03251">
        <ele>306.8</ele>
        <time>2021-09-05T07:53:22Z</time>
      </trkpt>
      <trkpt lat="47.25749" lon="6.03251">
        <ele>306.8</ele>
        <time>2021-09-05T07:53:23Z</time>
      </trkpt>
      <trkpt lat="47.25751" lon="6.0325">
        <ele>307.4</ele>
        <time>2021-09-05T07:53:24Z</time>
      </trkpt>
      <trkpt lat="47.25754" lon="6.03249">
        <ele>307.6</ele>
        <time>2021-09-05T07:53:25Z</time>
      </trkpt>
      <trkpt lat="47.25757" lon="6.03248">
        <ele>308</ele>
        <time>2021-09-05T07:53:26Z</time>
      </trkpt>
      <trkpt lat="47.2576" lon="6.03248">
        <ele>308</ele>
        <time>2021-09-05T07:53:27Z</time>
      </trkpt>
      <trkpt lat="47.25762" lon="6.03248">
        <ele>308.2</ele>
        <time>2021-09-05T07:53:28Z</time>
      </trkpt>
      <trkpt lat="47.25764" lon="6.03248">
        <ele>308.4</ele>
        <time>2021-09-05T07:53:29Z</time>
      </trkpt>
      <trkpt lat="47.25768" lon="6.03248">
        <ele>308.4</ele>
        <time>2021-09-05T07:53:30Z</time>
      </trkpt>
      <trkpt lat="47.2577" lon="6.03248">
        <ele>308.8</ele>
        <time>2021-09-05T07:53:31Z</time>
      </trkpt>
      <trkpt lat="47.25772" lon="6.03249">
        <ele>308.8</ele>
        <time>2021-09-05T07:53:32Z</time>
      </trkpt>
      <trkpt lat="47.25774" lon="6.03249">
        <ele>309.2</ele>
        <time>2021-09-05T07:53:33Z</time>
      </trkpt>
      <trkpt lat="47.25777" lon="6.03249">
        <ele>309.4</ele>
        <time>2021-09-05T07:53:34Z</time>
      </trkpt>
      <trkpt lat="47.25779" lon="6.03249">
        <ele>309.8</ele>
        <time>2021-09-05T07:53:35Z</time>
      </trkpt>
      <trkpt lat="47.25781" lon="6.03249">
        <ele>309.8</ele>
        <time>2021-09-05T07:53:36Z</time>
      </trkpt>
      <trkpt lat="47.25783" lon="6.0325">
        <ele>310</ele>
        <time>2021-09-05T07:53:37Z</time>
      </trkpt>
      <trkpt lat="47.25785" lon="6.0325">
        <ele>310.2</ele>
        <time>2021-09-05T07:53:38Z</time>
      </trkpt>
      <trkpt lat="47.25787" lon="6.03251">
        <ele>310.4</ele>
        <time>2021-09-05T07:53:39Z</time>
      </trkpt>
      <trkpt lat="47.25789" lon="6.03252">
        <ele>310.6</ele>
        <time>2021-09-05T07:53:40Z</time>
      </trkpt>
      <trkpt lat="47.2579" lon="6.03253">
        <ele>310.6</ele>
        <time>2021-09-05T07:53:41Z</time>
      </trkpt>
      <trkpt lat="47.25792" lon="6.03254">
        <ele>310.8</ele>
        <time>2021-09-05T07:53:42Z</time>
      </trkpt>
      <trkpt lat="47.25794" lon="6.03256">
        <ele>311</ele>
        <time>2021-09-05T07:53:43Z</time>
      </trkpt>
      <trkpt lat="47.25796" lon="6.03258">
        <ele>311.2</ele>
        <time>2021-09-05T07:53:44Z</time>
      </trkpt>
      <trkpt lat="47.25798" lon="6.03261">
        <ele>311.4</ele>
        <time>2021-09-05T07:53:45Z</time>
      </trkpt>
      <trkpt lat="47.25798" lon="6.03262">
        <ele>311.4</ele>
        <time>2021-09-05T07:53:46Z</time>
      </trkpt>
      <trkpt lat="47.25798" lon="6.03263">
        <ele>311.6</ele>
        <time>2021-09-05T07:53:47Z</time>
      </trkpt>
      <trkpt lat="47.25798" lon="6.03263">
        <ele>311.6</ele>
        <time>2021-09-05T07:53:48Z</time>
      </trkpt>
      <trkpt lat="47.25798" lon="6.03263">
        <ele>312</ele>
        <time>2021-09-05T07:53:51Z</time>
      </trkpt>
      <trkpt lat="47.25799" lon="6.03264">
        <ele>312.2</ele>
        <time>2021-09-05T07:53:56Z</time>
      </trkpt>
      <trkpt lat="47.25799" lon="6.03264">
        <ele>312</ele>
        <time>2021-09-05T07:54:16Z</time>
      </trkpt>
      <trkpt lat="47.25799" lon="6.03264">
        <ele>312.2</ele>
        <time>2021-09-05T07:55:37Z</time>
      </trkpt>
      <trkpt lat="47.25799" lon="6.03264">
        <ele>312.2</ele>
        <time>2021-09-05T07:56:20Z</time>
      </trkpt>
      <trkpt lat="47.25804" lon="6.03268">
        <ele>312.2</ele>
        <time>2021-09-05T07:56:22Z</time>
      </trkpt>
      <trkpt lat="47.25807" lon="6.03269">
        <ele>312.2</ele>
        <time>2021-09-05T07:56:23Z</time>
      </trkpt>
      <trkpt lat="47.25818" lon="6.03281">
        <ele>312.2</ele>
        <time>2021-09-05T07:56:27Z</time>
      </trkpt>
      <trkpt lat="47.25828" lon="6.03292">
        <ele>312.2</ele>
        <time>2021-09-05T07:56:31Z</time>
      </trkpt>
      <trkpt lat="47.25829" lon="6.03294">
        <ele>312.4</ele>
        <time>2021-09-05T07:56:32Z</time>
      </trkpt>
      <trkpt lat="47.25831" lon="6.03295">
        <ele>312.4</ele>
        <time>2021-09-05T07:56:33Z</time>
      </trkpt>
      <trkpt lat="47.25834" lon="6.03298">
        <ele>312.4</ele>
        <time>2021-09-05T07:56:34Z</time>
      </trkpt>
      <trkpt lat="47.25835" lon="6.03299">
        <ele>312.6</ele>
        <time>2021-09-05T07:56:35Z</time>
      </trkpt>
      <trkpt lat="47.25841" lon="6.03307">
        <ele>312.8</ele>
        <time>2021-09-05T07:56:38Z</time>
      </trkpt>
      <trkpt lat="47.25843" lon="6.03309">
        <ele>312.8</ele>
        <time>2021-09-05T07:56:39Z</time>
      </trkpt>
      <trkpt lat="47.25845" lon="6.03311">
        <ele>313</ele>
        <time>2021-09-05T07:56:40Z</time>
      </trkpt>
      <trkpt lat="47.25846" lon="6.03313">
        <ele>313</ele>
        <time>2021-09-05T07:56:41Z</time>
      </trkpt>
      <trkpt lat="47.25847" lon="6.03316">
        <ele>313</ele>
        <time>2021-09-05T07:56:42Z</time>
      </trkpt>
      <trkpt lat="47.25849" lon="6.03317">
        <ele>313.2</ele>
        <time>2021-09-05T07:56:43Z</time>
      </trkpt>
      <trkpt lat="47.25861" lon="6.03337">
        <ele>313.4</ele>
        <time>2021-09-05T07:56:50Z</time>
      </trkpt>
      <trkpt lat="47.25865" lon="6.03367">
        <ele>313.4</ele>
        <time>2021-09-05T07:56:57Z</time>
      </trkpt>
      <trkpt lat="47.2587" lon="6.03404">
        <ele>313</ele>
        <time>2021-09-05T07:57:03Z</time>
      </trkpt>
      <trkpt lat="47.2587" lon="6.03409">
        <ele>313</ele>
        <time>2021-09-05T07:57:04Z</time>
      </trkpt>
      <trkpt lat="47.25874" lon="6.03422">
        <ele>312.8</ele>
        <time>2021-09-05T07:57:06Z</time>
      </trkpt>
      <trkpt lat="47.25879" lon="6.03434">
        <ele>312.4</ele>
        <time>2021-09-05T07:57:08Z</time>
      </trkpt>
      <trkpt lat="47.259" lon="6.03472">
        <ele>312.8</ele>
        <time>2021-09-05T07:57:15Z</time>
      </trkpt>
      <trkpt lat="47.25907" lon="6.03488">
        <ele>313.2</ele>
        <time>2021-09-05T07:57:18Z</time>
      </trkpt>
      <trkpt lat="47.2591" lon="6.03493">
        <ele>313.2</ele>
        <time>2021-09-05T07:57:19Z</time>
      </trkpt>
      <trkpt lat="47.25912" lon="6.03498">
        <ele>313.4</ele>
        <time>2021-09-05T07:57:20Z</time>
      </trkpt>
      <trkpt lat="47.25915" lon="6.03503">
        <ele>313.4</ele>
        <time>2021-09-05T07:57:21Z</time>
      </trkpt>
      <trkpt lat="47.25917" lon="6.03508">
        <ele>313.6</ele>
        <time>2021-09-05T07:57:22Z</time>
      </trkpt>
      <trkpt lat="47.25919" lon="6.03513">
        <ele>313.6</ele>
        <time>2021-09-05T07:57:23Z</time>
      </trkpt>
      <trkpt lat="47.25922" lon="6.03518">
        <ele>313.8</ele>
        <time>2021-09-05T07:57:24Z</time>
      </trkpt>
      <trkpt lat="47.25925" lon="6.03522">
        <ele>313.8</ele>
        <time>2021-09-05T07:57:25Z</time>
      </trkpt>
      <trkpt lat="47.25927" lon="6.03526">
        <ele>313.8</ele>
        <time>2021-09-05T07:57:26Z</time>
      </trkpt>
      <trkpt lat="47.25929" lon="6.03531">
        <ele>314</ele>
        <time>2021-09-05T07:57:27Z</time>
      </trkpt>
      <trkpt lat="47.25931" lon="6.03536">
        <ele>314.2</ele>
        <time>2021-09-05T07:57:28Z</time>
      </trkpt>
      <trkpt lat="47.25934" lon="6.0354">
        <ele>314.2</ele>
        <time>2021-09-05T07:57:29Z</time>
      </trkpt>
      <trkpt lat="47.25936" lon="6.03545">
        <ele>314.4</ele>
        <time>2021-09-05T07:57:30Z</time>
      </trkpt>
      <trkpt lat="47.25938" lon="6.0355">
        <ele>314.6</ele>
        <time>2021-09-05T07:57:31Z</time>
      </trkpt>
      <trkpt lat="47.25946" lon="6.03563">
        <ele>315</ele>
        <time>2021-09-05T07:57:34Z</time>
      </trkpt>
      <trkpt lat="47.25955" lon="6.03582">
        <ele>315.8</ele>
        <time>2021-09-05T07:57:38Z</time>
      </trkpt>
      <trkpt lat="47.2596" lon="6.0359">
        <ele>316.2</ele>
        <time>2021-09-05T07:57:40Z</time>
      </trkpt>
      <trkpt lat="47.25963" lon="6.03595">
        <ele>316.2</ele>
        <time>2021-09-05T07:57:41Z</time>
      </trkpt>
      <trkpt lat="47.25965" lon="6.036">
        <ele>316.4</ele>
        <time>2021-09-05T07:57:42Z</time>
      </trkpt>
      <trkpt lat="47.25967" lon="6.03604">
        <ele>316.4</ele>
        <time>2021-09-05T07:57:43Z</time>
      </trkpt>
      <trkpt lat="47.25969" lon="6.03608">
        <ele>316.6</ele>
        <time>2021-09-05T07:57:44Z</time>
      </trkpt>
      <trkpt lat="47.25971" lon="6.03612">
        <ele>316.8</ele>
        <time>2021-09-05T07:57:45Z</time>
      </trkpt>
      <trkpt lat="47.25972" lon="6.03616">
        <ele>316.8</ele>
        <time>2021-09-05T07:57:46Z</time>
      </trkpt>
      <trkpt lat="47.25974" lon="6.03619">
        <ele>316.8</ele>
        <time>2021-09-05T07:57:47Z</time>
      </trkpt>
      <trkpt lat="47.25976" lon="6.03624">
        <ele>317</ele>
        <time>2021-09-05T07:57:48Z</time>
      </trkpt>
      <trkpt lat="47.25977" lon="6.03628">
        <ele>317</ele>
        <time>2021-09-05T07:57:49Z</time>
      </trkpt>
      <trkpt lat="47.25978" lon="6.03632">
        <ele>317</ele>
        <time>2021-09-05T07:57:50Z</time>
      </trkpt>
      <trkpt lat="47.2598" lon="6.03637">
        <ele>317.2</ele>
        <time>2021-09-05T07:57:51Z</time>
      </trkpt>
      <trkpt lat="47.25982" lon="6.03643">
        <ele>317.2</ele>
        <time>2021-09-05T07:57:52Z</time>
      </trkpt>
      <trkpt lat="47.25983" lon="6.03648">
        <ele>317.4</ele>
        <time>2021-09-05T07:57:53Z</time>
      </trkpt>
      <trkpt lat="47.25985" lon="6.03653">
        <ele>317.4</ele>
        <time>2021-09-05T07:57:54Z</time>
      </trkpt>
      <trkpt lat="47.25987" lon="6.03659">
        <ele>317.4</ele>
        <time>2021-09-05T07:57:55Z</time>
      </trkpt>
      <trkpt lat="47.25988" lon="6.03664">
        <ele>317.6</ele>
        <time>2021-09-05T07:57:56Z</time>
      </trkpt>
      <trkpt lat="47.25989" lon="6.03669">
        <ele>317.6</ele>
        <time>2021-09-05T07:57:57Z</time>
      </trkpt>
      <trkpt lat="47.2599" lon="6.03674">
        <ele>317.8</ele>
        <time>2021-09-05T07:57:58Z</time>
      </trkpt>
      <trkpt lat="47.25992" lon="6.03679">
        <ele>317.8</ele>
        <time>2021-09-05T07:57:59Z</time>
      </trkpt>
      <trkpt lat="47.25993" lon="6.03684">
        <ele>317.8</ele>
        <time>2021-09-05T07:58:00Z</time>
      </trkpt>
      <trkpt lat="47.25995" lon="6.0369">
        <ele>318</ele>
        <time>2021-09-05T07:58:01Z</time>
      </trkpt>
      <trkpt lat="47.25995" lon="6.03696">
        <ele>318</ele>
        <time>2021-09-05T07:58:02Z</time>
      </trkpt>
      <trkpt lat="47.25996" lon="6.03702">
        <ele>318</ele>
        <time>2021-09-05T07:58:03Z</time>
      </trkpt>
      <trkpt lat="47.25997" lon="6.03708">
        <ele>318</ele>
        <time>2021-09-05T07:58:04Z</time>
      </trkpt>
      <trkpt lat="47.26002" lon="6.03718">
        <ele>318</ele>
        <time>2021-09-05T07:58:06Z</time>
      </trkpt>
      <trkpt lat="47.26014" lon="6.03755">
        <ele>317.8</ele>
        <time>2021-09-05T07:58:12Z</time>
      </trkpt>
      <trkpt lat="47.2603" lon="6.03817">
        <ele>317.8</ele>
        <time>2021-09-05T07:58:21Z</time>
      </trkpt>
      <trkpt lat="47.26038" lon="6.03845">
        <ele>318</ele>
        <time>2021-09-05T07:58:25Z</time>
      </trkpt>
      <trkpt lat="47.26052" lon="6.03892">
        <ele>318.4</ele>
        <time>2021-09-05T07:58:32Z</time>
      </trkpt>
      <trkpt lat="47.26058" lon="6.0391">
        <ele>318.8</ele>
        <time>2021-09-05T07:58:35Z</time>
      </trkpt>
      <trkpt lat="47.26061" lon="6.03917">
        <ele>319</ele>
        <time>2021-09-05T07:58:36Z</time>
      </trkpt>
      <trkpt lat="47.26063" lon="6.03923">
        <ele>319.2</ele>
        <time>2021-09-05T07:58:37Z</time>
      </trkpt>
      <trkpt lat="47.26064" lon="6.03929">
        <ele>319.2</ele>
        <time>2021-09-05T07:58:38Z</time>
      </trkpt>
      <trkpt lat="47.26066" lon="6.03935">
        <ele>319.4</ele>
        <time>2021-09-05T07:58:39Z</time>
      </trkpt>
      <trkpt lat="47.26068" lon="6.03941">
        <ele>319.4</ele>
        <time>2021-09-05T07:58:40Z</time>
      </trkpt>
      <trkpt lat="47.26073" lon="6.0396">
        <ele>319.8</ele>
        <time>2021-09-05T07:58:43Z</time>
      </trkpt>
      <trkpt lat="47.26074" lon="6.03966">
        <ele>320</ele>
        <time>2021-09-05T07:58:44Z</time>
      </trkpt>
      <trkpt lat="47.26078" lon="6.03979">
        <ele>320.2</ele>
        <time>2021-09-05T07:58:46Z</time>
      </trkpt>
      <trkpt lat="47.26085" lon="6.04004">
        <ele>320.4</ele>
        <time>2021-09-05T07:58:50Z</time>
      </trkpt>
      <trkpt lat="47.26086" lon="6.0401">
        <ele>320.6</ele>
        <time>2021-09-05T07:58:51Z</time>
      </trkpt>
      <trkpt lat="47.26088" lon="6.04016">
        <ele>320.6</ele>
        <time>2021-09-05T07:58:52Z</time>
      </trkpt>
      <trkpt lat="47.2609" lon="6.04022">
        <ele>320.8</ele>
        <time>2021-09-05T07:58:53Z</time>
      </trkpt>
      <trkpt lat="47.26093" lon="6.04035">
        <ele>321.2</ele>
        <time>2021-09-05T07:58:55Z</time>
      </trkpt>
      <trkpt lat="47.26095" lon="6.0404">
        <ele>321.2</ele>
        <time>2021-09-05T07:58:56Z</time>
      </trkpt>
      <trkpt lat="47.26096" lon="6.04046">
        <ele>321.4</ele>
        <time>2021-09-05T07:58:57Z</time>
      </trkpt>
      <trkpt lat="47.26097" lon="6.04052">
        <ele>321.4</ele>
        <time>2021-09-05T07:58:58Z</time>
      </trkpt>
      <trkpt lat="47.26099" lon="6.04057">
        <ele>321.6</ele>
        <time>2021-09-05T07:58:59Z</time>
      </trkpt>
      <trkpt lat="47.26101" lon="6.04064">
        <ele>321.8</ele>
        <time>2021-09-05T07:59:00Z</time>
      </trkpt>
      <trkpt lat="47.26102" lon="6.04069">
        <ele>321.8</ele>
        <time>2021-09-05T07:59:01Z</time>
      </trkpt>
      <trkpt lat="47.26103" lon="6.04075">
        <ele>322</ele>
        <time>2021-09-05T07:59:02Z</time>
      </trkpt>
      <trkpt lat="47.26104" lon="6.0408">
        <ele>322.2</ele>
        <time>2021-09-05T07:59:03Z</time>
      </trkpt>
      <trkpt lat="47.26105" lon="6.04085">
        <ele>322.4</ele>
        <time>2021-09-05T07:59:04Z</time>
      </trkpt>
      <trkpt lat="47.26107" lon="6.04091">
        <ele>322.6</ele>
        <time>2021-09-05T07:59:05Z</time>
      </trkpt>
      <trkpt lat="47.26108" lon="6.04096">
        <ele>322.6</ele>
        <time>2021-09-05T07:59:06Z</time>
      </trkpt>
      <trkpt lat="47.2611" lon="6.04101">
        <ele>322.8</ele>
        <time>2021-09-05T07:59:07Z</time>
      </trkpt>
      <trkpt lat="47.26112" lon="6.04106">
        <ele>322.8</ele>
        <time>2021-09-05T07:59:08Z</time>
      </trkpt>
      <trkpt lat="47.26113" lon="6.0411">
        <ele>323</ele>
        <time>2021-09-05T07:59:09Z</time>
      </trkpt>
      <trkpt lat="47.26114" lon="6.04114">
        <ele>323</ele>
        <time>2021-09-05T07:59:10Z</time>
      </trkpt>
      <trkpt lat="47.26115" lon="6.04116">
        <ele>323.2</ele>
        <time>2021-09-05T07:59:11Z</time>
      </trkpt>
      <trkpt lat="47.26117" lon="6.04119">
        <ele>323.2</ele>
        <time>2021-09-05T07:59:12Z</time>
      </trkpt>
      <trkpt lat="47.26119" lon="6.04121">
        <ele>323.2</ele>
        <time>2021-09-05T07:59:13Z</time>
      </trkpt>
      <trkpt lat="47.26121" lon="6.04123">
        <ele>323.2</ele>
        <time>2021-09-05T07:59:14Z</time>
      </trkpt>
      <trkpt lat="47.26124" lon="6.04124">
        <ele>323.2</ele>
        <time>2021-09-05T07:59:15Z</time>
      </trkpt>
      <trkpt lat="47.26126" lon="6.04123">
        <ele>323.4</ele>
        <time>2021-09-05T07:59:16Z</time>
      </trkpt>
      <trkpt lat="47.26128" lon="6.04122">
        <ele>323.4</ele>
        <time>2021-09-05T07:59:17Z</time>
      </trkpt>
      <trkpt lat="47.26131" lon="6.0412">
        <ele>323.4</ele>
        <time>2021-09-05T07:59:18Z</time>
      </trkpt>
      <trkpt lat="47.26134" lon="6.04119">
        <ele>323.4</ele>
        <time>2021-09-05T07:59:19Z</time>
      </trkpt>
      <trkpt lat="47.26137" lon="6.04117">
        <ele>323.6</ele>
        <time>2021-09-05T07:59:20Z</time>
      </trkpt>
      <trkpt lat="47.2614" lon="6.04115">
        <ele>323.8</ele>
        <time>2021-09-05T07:59:21Z</time>
      </trkpt>
      <trkpt lat="47.26143" lon="6.04113">
        <ele>323.8</ele>
        <time>2021-09-05T07:59:22Z</time>
      </trkpt>
      <trkpt lat="47.26151" lon="6.04105">
        <ele>324.2</ele>
        <time>2021-09-05T07:59:25Z</time>
      </trkpt>
      <trkpt lat="47.26154" lon="6.04103">
        <ele>324.4</ele>
        <time>2021-09-05T07:59:26Z</time>
      </trkpt>
      <trkpt lat="47.26173" lon="6.04088">
        <ele>325.2</ele>
        <time>2021-09-05T07:59:32Z</time>
      </trkpt>
      <trkpt lat="47.26177" lon="6.04086">
        <ele>325.4</ele>
        <time>2021-09-05T07:59:33Z</time>
      </trkpt>
      <trkpt lat="47.2618" lon="6.04083">
        <ele>325.4</ele>
        <time>2021-09-05T07:59:34Z</time>
      </trkpt>
      <trkpt lat="47.26183" lon="6.0408">
        <ele>325.6</ele>
        <time>2021-09-05T07:59:35Z</time>
      </trkpt>
      <trkpt lat="47.26186" lon="6.04078">
        <ele>325.6</ele>
        <time>2021-09-05T07:59:36Z</time>
      </trkpt>
      <trkpt lat="47.26189" lon="6.04075">
        <ele>325.8</ele>
        <time>2021-09-05T07:59:37Z</time>
      </trkpt>
      <trkpt lat="47.26192" lon="6.04072">
        <ele>325.8</ele>
        <time>2021-09-05T07:59:38Z</time>
      </trkpt>
      <trkpt lat="47.26195" lon="6.04069">
        <ele>326</ele>
        <time>2021-09-05T07:59:39Z</time>
      </trkpt>
      <trkpt lat="47.26199" lon="6.04066">
        <ele>326</ele>
        <time>2021-09-05T07:59:40Z</time>
      </trkpt>
      <trkpt lat="47.26202" lon="6.04063">
        <ele>326</ele>
        <time>2021-09-05T07:59:41Z</time>
      </trkpt>
      <trkpt lat="47.26205" lon="6.04061">
        <ele>326.2</ele>
        <time>2021-09-05T07:59:42Z</time>
      </trkpt>
      <trkpt lat="47.26209" lon="6.04058">
        <ele>326.2</ele>
        <time>2021-09-05T07:59:43Z</time>
      </trkpt>
      <trkpt lat="47.26212" lon="6.04055">
        <ele>326.6</ele>
        <time>2021-09-05T07:59:44Z</time>
      </trkpt>
      <trkpt lat="47.26215" lon="6.04053">
        <ele>326.6</ele>
        <time>2021-09-05T07:59:45Z</time>
      </trkpt>
      <trkpt lat="47.26218" lon="6.0405">
        <ele>326.8</ele>
        <time>2021-09-05T07:59:46Z</time>
      </trkpt>
      <trkpt lat="47.26221" lon="6.04048">
        <ele>326.8</ele>
        <time>2021-09-05T07:59:47Z</time>
      </trkpt>
      <trkpt lat="47.26223" lon="6.04046">
        <ele>327</ele>
        <time>2021-09-05T07:59:48Z</time>
      </trkpt>
      <trkpt lat="47.26226" lon="6.04044">
        <ele>327</ele>
        <time>2021-09-05T07:59:49Z</time>
      </trkpt>
      <trkpt lat="47.26228" lon="6.04042">
        <ele>327.2</ele>
        <time>2021-09-05T07:59:50Z</time>
      </trkpt>
      <trkpt lat="47.2623" lon="6.0404">
        <ele>327.4</ele>
        <time>2021-09-05T07:59:51Z</time>
      </trkpt>
      <trkpt lat="47.26232" lon="6.04039">
        <ele>327.6</ele>
        <time>2021-09-05T07:59:52Z</time>
      </trkpt>
      <trkpt lat="47.26234" lon="6.04037">
        <ele>327.6</ele>
        <time>2021-09-05T07:59:53Z</time>
      </trkpt>
      <trkpt lat="47.26235" lon="6.04036">
        <ele>327.8</ele>
        <time>2021-09-05T07:59:54Z</time>
      </trkpt>
      <trkpt lat="47.26235" lon="6.04036">
        <ele>328</ele>
        <time>2021-09-05T07:59:55Z</time>
      </trkpt>
      <trkpt lat="47.26237" lon="6.04034">
        <ele>328</ele>
        <time>2021-09-05T07:59:56Z</time>
      </trkpt>
      <trkpt lat="47.26238" lon="6.04033">
        <ele>328.2</ele>
        <time>2021-09-05T07:59:57Z</time>
      </trkpt>
      <trkpt lat="47.26239" lon="6.04032">
        <ele>328.2</ele>
        <time>2021-09-05T07:59:58Z</time>
      </trkpt>
      <trkpt lat="47.26241" lon="6.04031">
        <ele>328.2</ele>
        <time>2021-09-05T07:59:59Z</time>
      </trkpt>
      <trkpt lat="47.26243" lon="6.0403">
        <ele>328.4</ele>
        <time>2021-09-05T08:00:00Z</time>
      </trkpt>
      <trkpt lat="47.26245" lon="6.04028">
        <ele>328.4</ele>
        <time>2021-09-05T08:00:01Z</time>
      </trkpt>
      <trkpt lat="47.26248" lon="6.04025">
        <ele>328.4</ele>
        <time>2021-09-05T08:00:02Z</time>
      </trkpt>
      <trkpt lat="47.26251" lon="6.04023">
        <ele>328.4</ele>
        <time>2021-09-05T08:00:03Z</time>
      </trkpt>
      <trkpt lat="47.26253" lon="6.04021">
        <ele>328.4</ele>
        <time>2021-09-05T08:00:04Z</time>
      </trkpt>
      <trkpt lat="47.26256" lon="6.04019">
        <ele>328.4</ele>
        <time>2021-09-05T08:00:05Z</time>
      </trkpt>
      <trkpt lat="47.26259" lon="6.04017">
        <ele>328.4</ele>
        <time>2021-09-05T08:00:06Z</time>
      </trkpt>
      <trkpt lat="47.26262" lon="6.04013">
        <ele>328.6</ele>
        <time>2021-09-05T08:00:07Z</time>
      </trkpt>
      <trkpt lat="47.26264" lon="6.0401">
        <ele>328.6</ele>
        <time>2021-09-05T08:00:08Z</time>
      </trkpt>
      <trkpt lat="47.26269" lon="6.04006">
        <ele>328.8</ele>
        <time>2021-09-05T08:00:10Z</time>
      </trkpt>
      <trkpt lat="47.26279" lon="6.03998">
        <ele>329.6</ele>
        <time>2021-09-05T08:00:14Z</time>
      </trkpt>
      <trkpt lat="47.26282" lon="6.03996">
        <ele>329.6</ele>
        <time>2021-09-05T08:00:15Z</time>
      </trkpt>
      <trkpt lat="47.26285" lon="6.03994">
        <ele>330</ele>
        <time>2021-09-05T08:00:16Z</time>
      </trkpt>
      <trkpt lat="47.26287" lon="6.03991">
        <ele>330</ele>
        <time>2021-09-05T08:00:17Z</time>
      </trkpt>
      <trkpt lat="47.26297" lon="6.03983">
        <ele>331</ele>
        <time>2021-09-05T08:00:21Z</time>
      </trkpt>
      <trkpt lat="47.263" lon="6.0398">
        <ele>331</ele>
        <time>2021-09-05T08:00:22Z</time>
      </trkpt>
      <trkpt lat="47.26303" lon="6.03978">
        <ele>331.4</ele>
        <time>2021-09-05T08:00:23Z</time>
      </trkpt>
      <trkpt lat="47.26305" lon="6.03976">
        <ele>331.6</ele>
        <time>2021-09-05T08:00:24Z</time>
      </trkpt>
      <trkpt lat="47.26308" lon="6.03974">
        <ele>331.8</ele>
        <time>2021-09-05T08:00:25Z</time>
      </trkpt>
      <trkpt lat="47.2631" lon="6.03972">
        <ele>331.8</ele>
        <time>2021-09-05T08:00:26Z</time>
      </trkpt>
      <trkpt lat="47.26313" lon="6.03969">
        <ele>332.2</ele>
        <time>2021-09-05T08:00:27Z</time>
      </trkpt>
      <trkpt lat="47.26316" lon="6.03967">
        <ele>332.4</ele>
        <time>2021-09-05T08:00:28Z</time>
      </trkpt>
      <trkpt lat="47.26318" lon="6.03965">
        <ele>332.6</ele>
        <time>2021-09-05T08:00:29Z</time>
      </trkpt>
      <trkpt lat="47.26321" lon="6.03962">
        <ele>333</ele>
        <time>2021-09-05T08:00:30Z</time>
      </trkpt>
      <trkpt lat="47.26324" lon="6.0396">
        <ele>333.2</ele>
        <time>2021-09-05T08:00:31Z</time>
      </trkpt>
      <trkpt lat="47.26327" lon="6.03958">
        <ele>333.4</ele>
        <time>2021-09-05T08:00:32Z</time>
      </trkpt>
      <trkpt lat="47.2633" lon="6.03955">
        <ele>333.6</ele>
        <time>2021-09-05T08:00:33Z</time>
      </trkpt>
      <trkpt lat="47.26332" lon="6.03953">
        <ele>334</ele>
        <time>2021-09-05T08:00:34Z</time>
      </trkpt>
      <trkpt lat="47.26334" lon="6.03951">
        <ele>334.2</ele>
        <time>2021-09-05T08:00:35Z</time>
      </trkpt>
      <trkpt lat="47.26337" lon="6.03948">
        <ele>334.4</ele>
        <time>2021-09-05T08:00:36Z</time>
      </trkpt>
      <trkpt lat="47.2634" lon="6.03946">
        <ele>334.6</ele>
        <time>2021-09-05T08:00:37Z</time>
      </trkpt>
      <trkpt lat="47.26343" lon="6.03943">
        <ele>334.8</ele>
        <time>2021-09-05T08:00:38Z</time>
      </trkpt>
      <trkpt lat="47.26345" lon="6.03941">
        <ele>335.2</ele>
        <time>2021-09-05T08:00:39Z</time>
      </trkpt>
      <trkpt lat="47.26348" lon="6.03939">
        <ele>335.2</ele>
        <time>2021-09-05T08:00:40Z</time>
      </trkpt>
      <trkpt lat="47.26351" lon="6.03936">
        <ele>335.4</ele>
        <time>2021-09-05T08:00:41Z</time>
      </trkpt>
      <trkpt lat="47.26354" lon="6.03934">
        <ele>335.8</ele>
        <time>2021-09-05T08:00:42Z</time>
      </trkpt>
      <trkpt lat="47.26356" lon="6.03932">
        <ele>336</ele>
        <time>2021-09-05T08:00:43Z</time>
      </trkpt>
      <trkpt lat="47.26359" lon="6.03929">
        <ele>336.4</ele>
        <time>2021-09-05T08:00:44Z</time>
      </trkpt>
      <trkpt lat="47.26361" lon="6.03927">
        <ele>336.6</ele>
        <time>2021-09-05T08:00:45Z</time>
      </trkpt>
      <trkpt lat="47.26363" lon="6.03925">
        <ele>336.8</ele>
        <time>2021-09-05T08:00:46Z</time>
      </trkpt>
      <trkpt lat="47.26366" lon="6.03923">
        <ele>336.8</ele>
        <time>2021-09-05T08:00:47Z</time>
      </trkpt>
      <trkpt lat="47.26368" lon="6.03922">
        <ele>337.4</ele>
        <time>2021-09-05T08:00:48Z</time>
      </trkpt>
      <trkpt lat="47.26371" lon="6.03922">
        <ele>337.4</ele>
        <time>2021-09-05T08:00:49Z</time>
      </trkpt>
      <trkpt lat="47.26373" lon="6.03922">
        <ele>337.8</ele>
        <time>2021-09-05T08:00:50Z</time>
      </trkpt>
      <trkpt lat="47.26376" lon="6.03925">
        <ele>337.8</ele>
        <time>2021-09-05T08:00:51Z</time>
      </trkpt>
      <trkpt lat="47.26378" lon="6.03927">
        <ele>338</ele>
        <time>2021-09-05T08:00:52Z</time>
      </trkpt>
      <trkpt lat="47.2638" lon="6.03928">
        <ele>338.2</ele>
        <time>2021-09-05T08:00:53Z</time>
      </trkpt>
      <trkpt lat="47.26382" lon="6.0393">
        <ele>338.2</ele>
        <time>2021-09-05T08:00:54Z</time>
      </trkpt>
      <trkpt lat="47.26383" lon="6.03933">
        <ele>338.2</ele>
        <time>2021-09-05T08:00:55Z</time>
      </trkpt>
      <trkpt lat="47.26385" lon="6.03935">
        <ele>338.4</ele>
        <time>2021-09-05T08:00:56Z</time>
      </trkpt>
      <trkpt lat="47.26387" lon="6.03938">
        <ele>338.4</ele>
        <time>2021-09-05T08:00:57Z</time>
      </trkpt>
      <trkpt lat="47.26388" lon="6.03941">
        <ele>338.4</ele>
        <time>2021-09-05T08:00:58Z</time>
      </trkpt>
      <trkpt lat="47.2639" lon="6.03946">
        <ele>338.4</ele>
        <time>2021-09-05T08:00:59Z</time>
      </trkpt>
      <trkpt lat="47.26391" lon="6.03949">
        <ele>338.4</ele>
        <time>2021-09-05T08:01:00Z</time>
      </trkpt>
      <trkpt lat="47.26393" lon="6.03952">
        <ele>338.6</ele>
        <time>2021-09-05T08:01:01Z</time>
      </trkpt>
      <trkpt lat="47.26395" lon="6.03955">
        <ele>338.6</ele>
        <time>2021-09-05T08:01:02Z</time>
      </trkpt>
      <trkpt lat="47.26396" lon="6.03958">
        <ele>338.6</ele>
        <time>2021-09-05T08:01:03Z</time>
      </trkpt>
      <trkpt lat="47.26398" lon="6.0396">
        <ele>338.6</ele>
        <time>2021-09-05T08:01:04Z</time>
      </trkpt>
      <trkpt lat="47.264" lon="6.03964">
        <ele>338.6</ele>
        <time>2021-09-05T08:01:05Z</time>
      </trkpt>
      <trkpt lat="47.26401" lon="6.03966">
        <ele>338.6</ele>
        <time>2021-09-05T08:01:06Z</time>
      </trkpt>
      <trkpt lat="47.26402" lon="6.03969">
        <ele>338.6</ele>
        <time>2021-09-05T08:01:07Z</time>
      </trkpt>
      <trkpt lat="47.26403" lon="6.03971">
        <ele>338.6</ele>
        <time>2021-09-05T08:01:08Z</time>
      </trkpt>
      <trkpt lat="47.26404" lon="6.03974">
        <ele>338.6</ele>
        <time>2021-09-05T08:01:09Z</time>
      </trkpt>
      <trkpt lat="47.26405" lon="6.03977">
        <ele>338.6</ele>
        <time>2021-09-05T08:01:10Z</time>
      </trkpt>
      <trkpt lat="47.26407" lon="6.0398">
        <ele>338.8</ele>
        <time>2021-09-05T08:01:11Z</time>
      </trkpt>
      <trkpt lat="47.26408" lon="6.03984">
        <ele>338.8</ele>
        <time>2021-09-05T08:01:12Z</time>
      </trkpt>
      <trkpt lat="47.2641" lon="6.03988">
        <ele>338.8</ele>
        <time>2021-09-05T08:01:13Z</time>
      </trkpt>
      <trkpt lat="47.26418" lon="6.04009">
        <ele>338.8</ele>
        <time>2021-09-05T08:01:18Z</time>
      </trkpt>
      <trkpt lat="47.26433" lon="6.04048">
        <ele>338.8</ele>
        <time>2021-09-05T08:01:26Z</time>
      </trkpt>
      <trkpt lat="47.26441" lon="6.04079">
        <ele>339.2</ele>
        <time>2021-09-05T08:01:32Z</time>
      </trkpt>
      <trkpt lat="47.26447" lon="6.04093">
        <ele>339.2</ele>
        <time>2021-09-05T08:01:35Z</time>
      </trkpt>
      <trkpt lat="47.26449" lon="6.04097">
        <ele>339.2</ele>
        <time>2021-09-05T08:01:36Z</time>
      </trkpt>
      <trkpt lat="47.26452" lon="6.04101">
        <ele>339</ele>
        <time>2021-09-05T08:01:37Z</time>
      </trkpt>
      <trkpt lat="47.26454" lon="6.04105">
        <ele>339</ele>
        <time>2021-09-05T08:01:38Z</time>
      </trkpt>
      <trkpt lat="47.26456" lon="6.04108">
        <ele>338.8</ele>
        <time>2021-09-05T08:01:39Z</time>
      </trkpt>
      <trkpt lat="47.26458" lon="6.04111">
        <ele>338.8</ele>
        <time>2021-09-05T08:01:40Z</time>
      </trkpt>
      <trkpt lat="47.2646" lon="6.04114">
        <ele>338.8</ele>
        <time>2021-09-05T08:01:41Z</time>
      </trkpt>
      <trkpt lat="47.26461" lon="6.04117">
        <ele>338.8</ele>
        <time>2021-09-05T08:01:42Z</time>
      </trkpt>
      <trkpt lat="47.26463" lon="6.0412">
        <ele>338.8</ele>
        <time>2021-09-05T08:01:43Z</time>
      </trkpt>
      <trkpt lat="47.26465" lon="6.04125">
        <ele>338.8</ele>
        <time>2021-09-05T08:01:44Z</time>
      </trkpt>
      <trkpt lat="47.26467" lon="6.04128">
        <ele>338.8</ele>
        <time>2021-09-05T08:01:45Z</time>
      </trkpt>
      <trkpt lat="47.2647" lon="6.04132">
        <ele>339</ele>
        <time>2021-09-05T08:01:46Z</time>
      </trkpt>
      <trkpt lat="47.26471" lon="6.04135">
        <ele>339</ele>
        <time>2021-09-05T08:01:47Z</time>
      </trkpt>
      <trkpt lat="47.26474" lon="6.04139">
        <ele>339</ele>
        <time>2021-09-05T08:01:48Z</time>
      </trkpt>
      <trkpt lat="47.26491" lon="6.04166">
        <ele>339</ele>
        <time>2021-09-05T08:01:55Z</time>
      </trkpt>
      <trkpt lat="47.26503" lon="6.04189">
        <ele>339</ele>
        <time>2021-09-05T08:02:01Z</time>
      </trkpt>
      <trkpt lat="47.26515" lon="6.04209">
        <ele>339</ele>
        <time>2021-09-05T08:02:06Z</time>
      </trkpt>
      <trkpt lat="47.26518" lon="6.04212">
        <ele>339</ele>
        <time>2021-09-05T08:02:07Z</time>
      </trkpt>
      <trkpt lat="47.26541" lon="6.04233">
        <ele>339</ele>
        <time>2021-09-05T08:02:14Z</time>
      </trkpt>
      <trkpt lat="47.26544" lon="6.04236">
        <ele>339</ele>
        <time>2021-09-05T08:02:15Z</time>
      </trkpt>
      <trkpt lat="47.26553" lon="6.04252">
        <ele>339</ele>
        <time>2021-09-05T08:02:19Z</time>
      </trkpt>
      <trkpt lat="47.26555" lon="6.04256">
        <ele>339</ele>
        <time>2021-09-05T08:02:20Z</time>
      </trkpt>
      <trkpt lat="47.26557" lon="6.0426">
        <ele>339.2</ele>
        <time>2021-09-05T08:02:21Z</time>
      </trkpt>
      <trkpt lat="47.26559" lon="6.04263">
        <ele>339.2</ele>
        <time>2021-09-05T08:02:22Z</time>
      </trkpt>
      <trkpt lat="47.26561" lon="6.04268">
        <ele>339.4</ele>
        <time>2021-09-05T08:02:23Z</time>
      </trkpt>
      <trkpt lat="47.26581" lon="6.04297">
        <ele>339.4</ele>
        <time>2021-09-05T08:02:30Z</time>
      </trkpt>
      <trkpt lat="47.266" lon="6.04329">
        <ele>339.4</ele>
        <time>2021-09-05T08:02:37Z</time>
      </trkpt>
      <trkpt lat="47.26613" lon="6.04353">
        <ele>339</ele>
        <time>2021-09-05T08:02:42Z</time>
      </trkpt>
      <trkpt lat="47.26616" lon="6.04358">
        <ele>338.8</ele>
        <time>2021-09-05T08:02:43Z</time>
      </trkpt>
      <trkpt lat="47.26619" lon="6.04362">
        <ele>338.8</ele>
        <time>2021-09-05T08:02:44Z</time>
      </trkpt>
      <trkpt lat="47.26641" lon="6.04397">
        <ele>338.2</ele>
        <time>2021-09-05T08:02:51Z</time>
      </trkpt>
      <trkpt lat="47.26644" lon="6.04404">
        <ele>338.2</ele>
        <time>2021-09-05T08:02:52Z</time>
      </trkpt>
      <trkpt lat="47.26662" lon="6.04439">
        <ele>338</ele>
        <time>2021-09-05T08:02:58Z</time>
      </trkpt>
      <trkpt lat="47.26665" lon="6.04445">
        <ele>337.8</ele>
        <time>2021-09-05T08:02:59Z</time>
      </trkpt>
      <trkpt lat="47.26674" lon="6.04464">
        <ele>337.8</ele>
        <time>2021-09-05T08:03:02Z</time>
      </trkpt>
      <trkpt lat="47.26685" lon="6.04487">
        <ele>337.2</ele>
        <time>2021-09-05T08:03:06Z</time>
      </trkpt>
      <trkpt lat="47.26688" lon="6.04493">
        <ele>337.2</ele>
        <time>2021-09-05T08:03:07Z</time>
      </trkpt>
      <trkpt lat="47.26694" lon="6.04505">
        <ele>337</ele>
        <time>2021-09-05T08:03:09Z</time>
      </trkpt>
      <trkpt lat="47.26696" lon="6.04509">
        <ele>336.6</ele>
        <time>2021-09-05T08:03:10Z</time>
      </trkpt>
      <trkpt lat="47.26699" lon="6.04515">
        <ele>336.6</ele>
        <time>2021-09-05T08:03:11Z</time>
      </trkpt>
      <trkpt lat="47.26701" lon="6.04519">
        <ele>336.6</ele>
        <time>2021-09-05T08:03:12Z</time>
      </trkpt>
      <trkpt lat="47.26703" lon="6.04521">
        <ele>336.6</ele>
        <time>2021-09-05T08:03:13Z</time>
      </trkpt>
      <trkpt lat="47.26705" lon="6.04523">
        <ele>336.6</ele>
        <time>2021-09-05T08:03:14Z</time>
      </trkpt>
      <trkpt lat="47.26707" lon="6.04525">
        <ele>336.6</ele>
        <time>2021-09-05T08:03:15Z</time>
      </trkpt>
      <trkpt lat="47.26709" lon="6.04527">
        <ele>336.4</ele>
        <time>2021-09-05T08:03:16Z</time>
      </trkpt>
      <trkpt lat="47.26711" lon="6.04528">
        <ele>336.4</ele>
        <time>2021-09-05T08:03:17Z</time>
      </trkpt>
      <trkpt lat="47.26713" lon="6.04531">
        <ele>336.4</ele>
        <time>2021-09-05T08:03:18Z</time>
      </trkpt>
      <trkpt lat="47.26734" lon="6.04549">
        <ele>336</ele>
        <time>2021-09-05T08:03:24Z</time>
      </trkpt>
      <trkpt lat="47.26742" lon="6.04557">
        <ele>335.8</ele>
        <time>2021-09-05T08:03:26Z</time>
      </trkpt>
      <trkpt lat="47.2675" lon="6.04573">
        <ele>335.6</ele>
        <time>2021-09-05T08:03:29Z</time>
      </trkpt>
      <trkpt lat="47.26753" lon="6.0458">
        <ele>335.6</ele>
        <time>2021-09-05T08:03:30Z</time>
      </trkpt>
      <trkpt lat="47.2676" lon="6.04597">
        <ele>335.6</ele>
        <time>2021-09-05T08:03:33Z</time>
      </trkpt>
      <trkpt lat="47.26763" lon="6.04611">
        <ele>335.6</ele>
        <time>2021-09-05T08:03:35Z</time>
      </trkpt>
      <trkpt lat="47.26762" lon="6.04617">
        <ele>335.6</ele>
        <time>2021-09-05T08:03:36Z</time>
      </trkpt>
      <trkpt lat="47.26761" lon="6.04622">
        <ele>335.8</ele>
        <time>2021-09-05T08:03:37Z</time>
      </trkpt>
      <trkpt lat="47.26758" lon="6.04629">
        <ele>335.8</ele>
        <time>2021-09-05T08:03:38Z</time>
      </trkpt>
      <trkpt lat="47.26754" lon="6.04633">
        <ele>336</ele>
        <time>2021-09-05T08:03:39Z</time>
      </trkpt>
      <trkpt lat="47.26745" lon="6.0464">
        <ele>336</ele>
        <time>2021-09-05T08:03:41Z</time>
      </trkpt>
      <trkpt lat="47.26741" lon="6.04643">
        <ele>336.2</ele>
        <time>2021-09-05T08:03:42Z</time>
      </trkpt>
      <trkpt lat="47.26727" lon="6.04652">
        <ele>336.4</ele>
        <time>2021-09-05T08:03:45Z</time>
      </trkpt>
      <trkpt lat="47.26719" lon="6.04659">
        <ele>336.6</ele>
        <time>2021-09-05T08:03:47Z</time>
      </trkpt>
      <trkpt lat="47.26707" lon="6.04668">
        <ele>336.8</ele>
        <time>2021-09-05T08:03:51Z</time>
      </trkpt>
      <trkpt lat="47.26704" lon="6.04671">
        <ele>337</ele>
        <time>2021-09-05T08:03:52Z</time>
      </trkpt>
      <trkpt lat="47.267" lon="6.04673">
        <ele>337</ele>
        <time>2021-09-05T08:03:53Z</time>
      </trkpt>
      <trkpt lat="47.26697" lon="6.04676">
        <ele>337</ele>
        <time>2021-09-05T08:03:54Z</time>
      </trkpt>
      <trkpt lat="47.26694" lon="6.04679">
        <ele>337</ele>
        <time>2021-09-05T08:03:55Z</time>
      </trkpt>
      <trkpt lat="47.26692" lon="6.04683">
        <ele>337.2</ele>
        <time>2021-09-05T08:03:56Z</time>
      </trkpt>
      <trkpt lat="47.2669" lon="6.04687">
        <ele>337.2</ele>
        <time>2021-09-05T08:03:57Z</time>
      </trkpt>
      <trkpt lat="47.26691" lon="6.04692">
        <ele>337.2</ele>
        <time>2021-09-05T08:03:58Z</time>
      </trkpt>
      <trkpt lat="47.26696" lon="6.04699">
        <ele>337</ele>
        <time>2021-09-05T08:04:00Z</time>
      </trkpt>
      <trkpt lat="47.26702" lon="6.04704">
        <ele>336.8</ele>
        <time>2021-09-05T08:04:02Z</time>
      </trkpt>
      <trkpt lat="47.26706" lon="6.04708">
        <ele>336.8</ele>
        <time>2021-09-05T08:04:03Z</time>
      </trkpt>
      <trkpt lat="47.26726" lon="6.04725">
        <ele>336.6</ele>
        <time>2021-09-05T08:04:09Z</time>
      </trkpt>
      <trkpt lat="47.26748" lon="6.04745">
        <ele>336.6</ele>
        <time>2021-09-05T08:04:15Z</time>
      </trkpt>
      <trkpt lat="47.26756" lon="6.04752">
        <ele>336.4</ele>
        <time>2021-09-05T08:04:17Z</time>
      </trkpt>
      <trkpt lat="47.26769" lon="6.04769">
        <ele>336.2</ele>
        <time>2021-09-05T08:04:20Z</time>
      </trkpt>
      <trkpt lat="47.26786" lon="6.04796">
        <ele>335.8</ele>
        <time>2021-09-05T08:04:24Z</time>
      </trkpt>
      <trkpt lat="47.26793" lon="6.04809">
        <ele>335.4</ele>
        <time>2021-09-05T08:04:26Z</time>
      </trkpt>
      <trkpt lat="47.26796" lon="6.04814">
        <ele>335.2</ele>
        <time>2021-09-05T08:04:27Z</time>
      </trkpt>
      <trkpt lat="47.26799" lon="6.04819">
        <ele>335</ele>
        <time>2021-09-05T08:04:28Z</time>
      </trkpt>
      <trkpt lat="47.268" lon="6.04822">
        <ele>335</ele>
        <time>2021-09-05T08:04:29Z</time>
      </trkpt>
      <trkpt lat="47.26802" lon="6.04825">
        <ele>335</ele>
        <time>2021-09-05T08:04:30Z</time>
      </trkpt>
      <trkpt lat="47.26804" lon="6.04827">
        <ele>334.8</ele>
        <time>2021-09-05T08:04:31Z</time>
      </trkpt>
      <trkpt lat="47.26804" lon="6.04828">
        <ele>334.8</ele>
        <time>2021-09-05T08:04:32Z</time>
      </trkpt>
      <trkpt lat="47.26805" lon="6.0483">
        <ele>334.8</ele>
        <time>2021-09-05T08:04:33Z</time>
      </trkpt>
      <trkpt lat="47.26808" lon="6.04832">
        <ele>334.8</ele>
        <time>2021-09-05T08:04:34Z</time>
      </trkpt>
      <trkpt lat="47.26811" lon="6.04832">
        <ele>335</ele>
        <time>2021-09-05T08:04:35Z</time>
      </trkpt>
      <trkpt lat="47.26814" lon="6.0483">
        <ele>335</ele>
        <time>2021-09-05T08:04:36Z</time>
      </trkpt>
      <trkpt lat="47.26817" lon="6.04826">
        <ele>335</ele>
        <time>2021-09-05T08:04:37Z</time>
      </trkpt>
      <trkpt lat="47.26823" lon="6.04817">
        <ele>335</ele>
        <time>2021-09-05T08:04:39Z</time>
      </trkpt>
      <trkpt lat="47.26827" lon="6.04812">
        <ele>335</ele>
        <time>2021-09-05T08:04:40Z</time>
      </trkpt>
      <trkpt lat="47.26839" lon="6.04796">
        <ele>334.6</ele>
        <time>2021-09-05T08:04:43Z</time>
      </trkpt>
      <trkpt lat="47.26847" lon="6.04784">
        <ele>334</ele>
        <time>2021-09-05T08:04:45Z</time>
      </trkpt>
      <trkpt lat="47.26861" lon="6.04766">
        <ele>333.6</ele>
        <time>2021-09-05T08:04:48Z</time>
      </trkpt>
      <trkpt lat="47.26872" lon="6.04756">
        <ele>333</ele>
        <time>2021-09-05T08:04:50Z</time>
      </trkpt>
      <trkpt lat="47.26902" lon="6.04735">
        <ele>332.6</ele>
        <time>2021-09-05T08:04:56Z</time>
      </trkpt>
      <trkpt lat="47.26908" lon="6.04731">
        <ele>332.6</ele>
        <time>2021-09-05T08:04:57Z</time>
      </trkpt>
      <trkpt lat="47.26913" lon="6.04728">
        <ele>332.6</ele>
        <time>2021-09-05T08:04:58Z</time>
      </trkpt>
      <trkpt lat="47.26917" lon="6.04724">
        <ele>332.4</ele>
        <time>2021-09-05T08:04:59Z</time>
      </trkpt>
      <trkpt lat="47.26922" lon="6.04721">
        <ele>332.4</ele>
        <time>2021-09-05T08:05:00Z</time>
      </trkpt>
      <trkpt lat="47.26927" lon="6.04718">
        <ele>332.4</ele>
        <time>2021-09-05T08:05:01Z</time>
      </trkpt>
      <trkpt lat="47.26931" lon="6.04715">
        <ele>332.4</ele>
        <time>2021-09-05T08:05:02Z</time>
      </trkpt>
      <trkpt lat="47.26936" lon="6.04713">
        <ele>332.4</ele>
        <time>2021-09-05T08:05:03Z</time>
      </trkpt>
      <trkpt lat="47.26941" lon="6.04711">
        <ele>332.2</ele>
        <time>2021-09-05T08:05:04Z</time>
      </trkpt>
      <trkpt lat="47.26945" lon="6.04709">
        <ele>332.2</ele>
        <time>2021-09-05T08:05:05Z</time>
      </trkpt>
      <trkpt lat="47.26951" lon="6.04706">
        <ele>332.2</ele>
        <time>2021-09-05T08:05:06Z</time>
      </trkpt>
      <trkpt lat="47.26966" lon="6.04699">
        <ele>332</ele>
        <time>2021-09-05T08:05:09Z</time>
      </trkpt>
      <trkpt lat="47.26972" lon="6.04697">
        <ele>331.8</ele>
        <time>2021-09-05T08:05:10Z</time>
      </trkpt>
      <trkpt lat="47.2699" lon="6.0469">
        <ele>331.6</ele>
        <time>2021-09-05T08:05:13Z</time>
      </trkpt>
      <trkpt lat="47.27" lon="6.04687">
        <ele>330.8</ele>
        <time>2021-09-05T08:05:15Z</time>
      </trkpt>
      <trkpt lat="47.27017" lon="6.04674">
        <ele>329.8</ele>
        <time>2021-09-05T08:05:18Z</time>
      </trkpt>
      <trkpt lat="47.27022" lon="6.04671">
        <ele>329.4</ele>
        <time>2021-09-05T08:05:19Z</time>
      </trkpt>
      <trkpt lat="47.27027" lon="6.04671">
        <ele>329.2</ele>
        <time>2021-09-05T08:05:20Z</time>
      </trkpt>
      <trkpt lat="47.27031" lon="6.04671">
        <ele>328.6</ele>
        <time>2021-09-05T08:05:21Z</time>
      </trkpt>
      <trkpt lat="47.27036" lon="6.04669">
        <ele>328</ele>
        <time>2021-09-05T08:05:22Z</time>
      </trkpt>
      <trkpt lat="47.27054" lon="6.04657">
        <ele>326.8</ele>
        <time>2021-09-05T08:05:25Z</time>
      </trkpt>
      <trkpt lat="47.27059" lon="6.04651">
        <ele>326.2</ele>
        <time>2021-09-05T08:05:26Z</time>
      </trkpt>
      <trkpt lat="47.27072" lon="6.04638">
        <ele>325.4</ele>
        <time>2021-09-05T08:05:28Z</time>
      </trkpt>
      <trkpt lat="47.27082" lon="6.04627">
        <ele>324.2</ele>
        <time>2021-09-05T08:05:30Z</time>
      </trkpt>
      <trkpt lat="47.27097" lon="6.04617">
        <ele>323.2</ele>
        <time>2021-09-05T08:05:32Z</time>
      </trkpt>
      <trkpt lat="47.27111" lon="6.04608">
        <ele>321.8</ele>
        <time>2021-09-05T08:05:34Z</time>
      </trkpt>
      <trkpt lat="47.27127" lon="6.04598">
        <ele>320.4</ele>
        <time>2021-09-05T08:05:36Z</time>
      </trkpt>
      <trkpt lat="47.27133" lon="6.04592">
        <ele>319.8</ele>
        <time>2021-09-05T08:05:37Z</time>
      </trkpt>
      <trkpt lat="47.27138" lon="6.04585">
        <ele>319.2</ele>
        <time>2021-09-05T08:05:38Z</time>
      </trkpt>
      <trkpt lat="47.27143" lon="6.0458">
        <ele>319</ele>
        <time>2021-09-05T08:05:39Z</time>
      </trkpt>
      <trkpt lat="47.27146" lon="6.04575">
        <ele>319</ele>
        <time>2021-09-05T08:05:40Z</time>
      </trkpt>
      <trkpt lat="47.2715" lon="6.04568">
        <ele>319</ele>
        <time>2021-09-05T08:05:41Z</time>
      </trkpt>
      <trkpt lat="47.27153" lon="6.04563">
        <ele>319</ele>
        <time>2021-09-05T08:05:42Z</time>
      </trkpt>
      <trkpt lat="47.27155" lon="6.04558">
        <ele>319</ele>
        <time>2021-09-05T08:05:43Z</time>
      </trkpt>
      <trkpt lat="47.27157" lon="6.04553">
        <ele>319.4</ele>
        <time>2021-09-05T08:05:44Z</time>
      </trkpt>
      <trkpt lat="47.27159" lon="6.04549">
        <ele>319.6</ele>
        <time>2021-09-05T08:05:45Z</time>
      </trkpt>
      <trkpt lat="47.27161" lon="6.04546">
        <ele>320.4</ele>
        <time>2021-09-05T08:05:46Z</time>
      </trkpt>
      <trkpt lat="47.27162" lon="6.04541">
        <ele>321</ele>
        <time>2021-09-05T08:05:47Z</time>
      </trkpt>
      <trkpt lat="47.27162" lon="6.04538">
        <ele>321.4</ele>
        <time>2021-09-05T08:05:48Z</time>
      </trkpt>
      <trkpt lat="47.27163" lon="6.04535">
        <ele>321.8</ele>
        <time>2021-09-05T08:05:49Z</time>
      </trkpt>
      <trkpt lat="47.27163" lon="6.04533">
        <ele>321.8</ele>
        <time>2021-09-05T08:05:50Z</time>
      </trkpt>
      <trkpt lat="47.27164" lon="6.04531">
        <ele>322.2</ele>
        <time>2021-09-05T08:05:51Z</time>
      </trkpt>
      <trkpt lat="47.27165" lon="6.0453">
        <ele>322.8</ele>
        <time>2021-09-05T08:05:52Z</time>
      </trkpt>
      <trkpt lat="47.27167" lon="6.04528">
        <ele>323.2</ele>
        <time>2021-09-05T08:05:53Z</time>
      </trkpt>
      <trkpt lat="47.27168" lon="6.04526">
        <ele>323.6</ele>
        <time>2021-09-05T08:05:54Z</time>
      </trkpt>
      <trkpt lat="47.27169" lon="6.04522">
        <ele>324</ele>
        <time>2021-09-05T08:05:55Z</time>
      </trkpt>
      <trkpt lat="47.27169" lon="6.0452">
        <ele>324.2</ele>
        <time>2021-09-05T08:05:56Z</time>
      </trkpt>
      <trkpt lat="47.27167" lon="6.04514">
        <ele>324.4</ele>
        <time>2021-09-05T08:05:58Z</time>
      </trkpt>
      <trkpt lat="47.27167" lon="6.04511">
        <ele>324.4</ele>
        <time>2021-09-05T08:05:59Z</time>
      </trkpt>
      <trkpt lat="47.27166" lon="6.04508">
        <ele>324.6</ele>
        <time>2021-09-05T08:06:00Z</time>
      </trkpt>
      <trkpt lat="47.27168" lon="6.04498">
        <ele>325</ele>
        <time>2021-09-05T08:06:03Z</time>
      </trkpt>
      <trkpt lat="47.27169" lon="6.04494">
        <ele>325.2</ele>
        <time>2021-09-05T08:06:04Z</time>
      </trkpt>
      <trkpt lat="47.27169" lon="6.0449">
        <ele>325.4</ele>
        <time>2021-09-05T08:06:05Z</time>
      </trkpt>
      <trkpt lat="47.2717" lon="6.04487">
        <ele>325.4</ele>
        <time>2021-09-05T08:06:06Z</time>
      </trkpt>
      <trkpt lat="47.2717" lon="6.04483">
        <ele>325.4</ele>
        <time>2021-09-05T08:06:07Z</time>
      </trkpt>
      <trkpt lat="47.2717" lon="6.0448">
        <ele>325.6</ele>
        <time>2021-09-05T08:06:08Z</time>
      </trkpt>
      <trkpt lat="47.27171" lon="6.04475">
        <ele>325.6</ele>
        <time>2021-09-05T08:06:09Z</time>
      </trkpt>
      <trkpt lat="47.27172" lon="6.04471">
        <ele>325.8</ele>
        <time>2021-09-05T08:06:10Z</time>
      </trkpt>
      <trkpt lat="47.27173" lon="6.04468">
        <ele>326</ele>
        <time>2021-09-05T08:06:11Z</time>
      </trkpt>
      <trkpt lat="47.27174" lon="6.04464">
        <ele>326</ele>
        <time>2021-09-05T08:06:12Z</time>
      </trkpt>
      <trkpt lat="47.27176" lon="6.04459">
        <ele>326.2</ele>
        <time>2021-09-05T08:06:13Z</time>
      </trkpt>
      <trkpt lat="47.27177" lon="6.04455">
        <ele>326.4</ele>
        <time>2021-09-05T08:06:14Z</time>
      </trkpt>
      <trkpt lat="47.27179" lon="6.04451">
        <ele>326.4</ele>
        <time>2021-09-05T08:06:15Z</time>
      </trkpt>
      <trkpt lat="47.2718" lon="6.04447">
        <ele>326.6</ele>
        <time>2021-09-05T08:06:16Z</time>
      </trkpt>
      <trkpt lat="47.27181" lon="6.04444">
        <ele>326.8</ele>
        <time>2021-09-05T08:06:17Z</time>
      </trkpt>
      <trkpt lat="47.27183" lon="6.0444">
        <ele>327</ele>
        <time>2021-09-05T08:06:18Z</time>
      </trkpt>
      <trkpt lat="47.27185" lon="6.04435">
        <ele>327.2</ele>
        <time>2021-09-05T08:06:19Z</time>
      </trkpt>
      <trkpt lat="47.27186" lon="6.04431">
        <ele>327.2</ele>
        <time>2021-09-05T08:06:20Z</time>
      </trkpt>
      <trkpt lat="47.27188" lon="6.04427">
        <ele>327.4</ele>
        <time>2021-09-05T08:06:21Z</time>
      </trkpt>
      <trkpt lat="47.27189" lon="6.04422">
        <ele>327.6</ele>
        <time>2021-09-05T08:06:22Z</time>
      </trkpt>
      <trkpt lat="47.2719" lon="6.04418">
        <ele>327.8</ele>
        <time>2021-09-05T08:06:23Z</time>
      </trkpt>
      <trkpt lat="47.2719" lon="6.04414">
        <ele>327.8</ele>
        <time>2021-09-05T08:06:24Z</time>
      </trkpt>
      <trkpt lat="47.27191" lon="6.0441">
        <ele>328</ele>
        <time>2021-09-05T08:06:25Z</time>
      </trkpt>
      <trkpt lat="47.27193" lon="6.04406">
        <ele>328</ele>
        <time>2021-09-05T08:06:26Z</time>
      </trkpt>
      <trkpt lat="47.27194" lon="6.04401">
        <ele>328.2</ele>
        <time>2021-09-05T08:06:27Z</time>
      </trkpt>
      <trkpt lat="47.27196" lon="6.04397">
        <ele>328.4</ele>
        <time>2021-09-05T08:06:28Z</time>
      </trkpt>
      <trkpt lat="47.27197" lon="6.04393">
        <ele>328.6</ele>
        <time>2021-09-05T08:06:29Z</time>
      </trkpt>
      <trkpt lat="47.27199" lon="6.04389">
        <ele>328.8</ele>
        <time>2021-09-05T08:06:30Z</time>
      </trkpt>
      <trkpt lat="47.272" lon="6.04386">
        <ele>328.8</ele>
        <time>2021-09-05T08:06:31Z</time>
      </trkpt>
      <trkpt lat="47.272" lon="6.04383">
        <ele>329.2</ele>
        <time>2021-09-05T08:06:32Z</time>
      </trkpt>
      <trkpt lat="47.27202" lon="6.0438">
        <ele>329.4</ele>
        <time>2021-09-05T08:06:33Z</time>
      </trkpt>
      <trkpt lat="47.27203" lon="6.04377">
        <ele>329.6</ele>
        <time>2021-09-05T08:06:34Z</time>
      </trkpt>
      <trkpt lat="47.27204" lon="6.04373">
        <ele>329.8</ele>
        <time>2021-09-05T08:06:35Z</time>
      </trkpt>
      <trkpt lat="47.27206" lon="6.0437">
        <ele>330</ele>
        <time>2021-09-05T08:06:36Z</time>
      </trkpt>
      <trkpt lat="47.27207" lon="6.04367">
        <ele>330</ele>
        <time>2021-09-05T08:06:37Z</time>
      </trkpt>
      <trkpt lat="47.27208" lon="6.04363">
        <ele>330.4</ele>
        <time>2021-09-05T08:06:38Z</time>
      </trkpt>
      <trkpt lat="47.27209" lon="6.04359">
        <ele>330.6</ele>
        <time>2021-09-05T08:06:39Z</time>
      </trkpt>
      <trkpt lat="47.2721" lon="6.04356">
        <ele>330.8</ele>
        <time>2021-09-05T08:06:40Z</time>
      </trkpt>
      <trkpt lat="47.27212" lon="6.04353">
        <ele>331.2</ele>
        <time>2021-09-05T08:06:41Z</time>
      </trkpt>
      <trkpt lat="47.27213" lon="6.04349">
        <ele>331.2</ele>
        <time>2021-09-05T08:06:42Z</time>
      </trkpt>
      <trkpt lat="47.27215" lon="6.04345">
        <ele>331.4</ele>
        <time>2021-09-05T08:06:43Z</time>
      </trkpt>
      <trkpt lat="47.27217" lon="6.04341">
        <ele>331.6</ele>
        <time>2021-09-05T08:06:44Z</time>
      </trkpt>
      <trkpt lat="47.27219" lon="6.04337">
        <ele>331.8</ele>
        <time>2021-09-05T08:06:45Z</time>
      </trkpt>
      <trkpt lat="47.27222" lon="6.04332">
        <ele>331.8</ele>
        <time>2021-09-05T08:06:46Z</time>
      </trkpt>
      <trkpt lat="47.27224" lon="6.04327">
        <ele>331.8</ele>
        <time>2021-09-05T08:06:47Z</time>
      </trkpt>
      <trkpt lat="47.27225" lon="6.04323">
        <ele>332</ele>
        <time>2021-09-05T08:06:48Z</time>
      </trkpt>
      <trkpt lat="47.27226" lon="6.04319">
        <ele>332</ele>
        <time>2021-09-05T08:06:49Z</time>
      </trkpt>
      <trkpt lat="47.27228" lon="6.04315">
        <ele>332.2</ele>
        <time>2021-09-05T08:06:50Z</time>
      </trkpt>
      <trkpt lat="47.27229" lon="6.04312">
        <ele>332.2</ele>
        <time>2021-09-05T08:06:51Z</time>
      </trkpt>
      <trkpt lat="47.27232" lon="6.04308">
        <ele>332.2</ele>
        <time>2021-09-05T08:06:52Z</time>
      </trkpt>
      <trkpt lat="47.27234" lon="6.04304">
        <ele>332.4</ele>
        <time>2021-09-05T08:06:53Z</time>
      </trkpt>
      <trkpt lat="47.27236" lon="6.04301">
        <ele>332.4</ele>
        <time>2021-09-05T08:06:54Z</time>
      </trkpt>
      <trkpt lat="47.27238" lon="6.04298">
        <ele>332.4</ele>
        <time>2021-09-05T08:06:55Z</time>
      </trkpt>
      <trkpt lat="47.2724" lon="6.04295">
        <ele>332.6</ele>
        <time>2021-09-05T08:06:56Z</time>
      </trkpt>
      <trkpt lat="47.27242" lon="6.04293">
        <ele>332.8</ele>
        <time>2021-09-05T08:06:57Z</time>
      </trkpt>
      <trkpt lat="47.27243" lon="6.0429">
        <ele>332.8</ele>
        <time>2021-09-05T08:06:58Z</time>
      </trkpt>
      <trkpt lat="47.27244" lon="6.04287">
        <ele>333</ele>
        <time>2021-09-05T08:06:59Z</time>
      </trkpt>
      <trkpt lat="47.27245" lon="6.04285">
        <ele>333.2</ele>
        <time>2021-09-05T08:07:00Z</time>
      </trkpt>
      <trkpt lat="47.27245" lon="6.04282">
        <ele>333.2</ele>
        <time>2021-09-05T08:07:01Z</time>
      </trkpt>
      <trkpt lat="47.27246" lon="6.04279">
        <ele>333.4</ele>
        <time>2021-09-05T08:07:02Z</time>
      </trkpt>
      <trkpt lat="47.27247" lon="6.04275">
        <ele>333.4</ele>
        <time>2021-09-05T08:07:03Z</time>
      </trkpt>
      <trkpt lat="47.27248" lon="6.04272">
        <ele>333.6</ele>
        <time>2021-09-05T08:07:04Z</time>
      </trkpt>
      <trkpt lat="47.27249" lon="6.04269">
        <ele>333.6</ele>
        <time>2021-09-05T08:07:05Z</time>
      </trkpt>
      <trkpt lat="47.2725" lon="6.04266">
        <ele>333.8</ele>
        <time>2021-09-05T08:07:06Z</time>
      </trkpt>
      <trkpt lat="47.27251" lon="6.04263">
        <ele>334.2</ele>
        <time>2021-09-05T08:07:07Z</time>
      </trkpt>
      <trkpt lat="47.27251" lon="6.04259">
        <ele>334.4</ele>
        <time>2021-09-05T08:07:08Z</time>
      </trkpt>
      <trkpt lat="47.27252" lon="6.04256">
        <ele>334.4</ele>
        <time>2021-09-05T08:07:09Z</time>
      </trkpt>
      <trkpt lat="47.27254" lon="6.04253">
        <ele>334.6</ele>
        <time>2021-09-05T08:07:10Z</time>
      </trkpt>
      <trkpt lat="47.27256" lon="6.04249">
        <ele>334.6</ele>
        <time>2021-09-05T08:07:11Z</time>
      </trkpt>
      <trkpt lat="47.27258" lon="6.04246">
        <ele>334.6</ele>
        <time>2021-09-05T08:07:12Z</time>
      </trkpt>
      <trkpt lat="47.27259" lon="6.04242">
        <ele>334.8</ele>
        <time>2021-09-05T08:07:13Z</time>
      </trkpt>
      <trkpt lat="47.27261" lon="6.04238">
        <ele>334.8</ele>
        <time>2021-09-05T08:07:14Z</time>
      </trkpt>
      <trkpt lat="47.27262" lon="6.04234">
        <ele>335</ele>
        <time>2021-09-05T08:07:15Z</time>
      </trkpt>
      <trkpt lat="47.27264" lon="6.04231">
        <ele>335.2</ele>
        <time>2021-09-05T08:07:16Z</time>
      </trkpt>
      <trkpt lat="47.27266" lon="6.04228">
        <ele>335.4</ele>
        <time>2021-09-05T08:07:17Z</time>
      </trkpt>
      <trkpt lat="47.27267" lon="6.04225">
        <ele>335.4</ele>
        <time>2021-09-05T08:07:18Z</time>
      </trkpt>
      <trkpt lat="47.2727" lon="6.04221">
        <ele>335.6</ele>
        <time>2021-09-05T08:07:19Z</time>
      </trkpt>
      <trkpt lat="47.27271" lon="6.04218">
        <ele>335.8</ele>
        <time>2021-09-05T08:07:20Z</time>
      </trkpt>
      <trkpt lat="47.27273" lon="6.04214">
        <ele>335.8</ele>
        <time>2021-09-05T08:07:21Z</time>
      </trkpt>
      <trkpt lat="47.27275" lon="6.0421">
        <ele>336</ele>
        <time>2021-09-05T08:07:22Z</time>
      </trkpt>
      <trkpt lat="47.27277" lon="6.04206">
        <ele>336.2</ele>
        <time>2021-09-05T08:07:23Z</time>
      </trkpt>
      <trkpt lat="47.27279" lon="6.04202">
        <ele>336.4</ele>
        <time>2021-09-05T08:07:24Z</time>
      </trkpt>
      <trkpt lat="47.2728" lon="6.04199">
        <ele>336.4</ele>
        <time>2021-09-05T08:07:25Z</time>
      </trkpt>
      <trkpt lat="47.27282" lon="6.04195">
        <ele>336.6</ele>
        <time>2021-09-05T08:07:26Z</time>
      </trkpt>
      <trkpt lat="47.27284" lon="6.04191">
        <ele>336.6</ele>
        <time>2021-09-05T08:07:27Z</time>
      </trkpt>
      <trkpt lat="47.27285" lon="6.04188">
        <ele>336.8</ele>
        <time>2021-09-05T08:07:28Z</time>
      </trkpt>
      <trkpt lat="47.27286" lon="6.04184">
        <ele>337</ele>
        <time>2021-09-05T08:07:29Z</time>
      </trkpt>
      <trkpt lat="47.27287" lon="6.0418">
        <ele>337</ele>
        <time>2021-09-05T08:07:30Z</time>
      </trkpt>
      <trkpt lat="47.27288" lon="6.04176">
        <ele>337.2</ele>
        <time>2021-09-05T08:07:31Z</time>
      </trkpt>
      <trkpt lat="47.2729" lon="6.04172">
        <ele>337.4</ele>
        <time>2021-09-05T08:07:32Z</time>
      </trkpt>
      <trkpt lat="47.27291" lon="6.04168">
        <ele>337.4</ele>
        <time>2021-09-05T08:07:33Z</time>
      </trkpt>
      <trkpt lat="47.27292" lon="6.04165">
        <ele>337.6</ele>
        <time>2021-09-05T08:07:34Z</time>
      </trkpt>
      <trkpt lat="47.27294" lon="6.04161">
        <ele>337.6</ele>
        <time>2021-09-05T08:07:35Z</time>
      </trkpt>
      <trkpt lat="47.27295" lon="6.04157">
        <ele>337.8</ele>
        <time>2021-09-05T08:07:36Z</time>
      </trkpt>
      <trkpt lat="47.27297" lon="6.04154">
        <ele>338</ele>
        <time>2021-09-05T08:07:37Z</time>
      </trkpt>
      <trkpt lat="47.273" lon="6.04151">
        <ele>338.2</ele>
        <time>2021-09-05T08:07:38Z</time>
      </trkpt>
      <trkpt lat="47.27302" lon="6.04148">
        <ele>338.4</ele>
        <time>2021-09-05T08:07:39Z</time>
      </trkpt>
      <trkpt lat="47.27304" lon="6.04145">
        <ele>338.6</ele>
        <time>2021-09-05T08:07:40Z</time>
      </trkpt>
      <trkpt lat="47.27306" lon="6.04142">
        <ele>338.6</ele>
        <time>2021-09-05T08:07:41Z</time>
      </trkpt>
      <trkpt lat="47.27308" lon="6.04139">
        <ele>338.8</ele>
        <time>2021-09-05T08:07:42Z</time>
      </trkpt>
      <trkpt lat="47.2731" lon="6.04136">
        <ele>339</ele>
        <time>2021-09-05T08:07:43Z</time>
      </trkpt>
      <trkpt lat="47.27311" lon="6.04133">
        <ele>339</ele>
        <time>2021-09-05T08:07:44Z</time>
      </trkpt>
      <trkpt lat="47.27313" lon="6.0413">
        <ele>339.2</ele>
        <time>2021-09-05T08:07:45Z</time>
      </trkpt>
      <trkpt lat="47.27315" lon="6.04126">
        <ele>339.2</ele>
        <time>2021-09-05T08:07:46Z</time>
      </trkpt>
      <trkpt lat="47.27317" lon="6.04123">
        <ele>339.4</ele>
        <time>2021-09-05T08:07:47Z</time>
      </trkpt>
      <trkpt lat="47.27319" lon="6.0412">
        <ele>339.6</ele>
        <time>2021-09-05T08:07:48Z</time>
      </trkpt>
      <trkpt lat="47.2732" lon="6.04116">
        <ele>339.8</ele>
        <time>2021-09-05T08:07:49Z</time>
      </trkpt>
      <trkpt lat="47.27321" lon="6.04112">
        <ele>339.8</ele>
        <time>2021-09-05T08:07:50Z</time>
      </trkpt>
      <trkpt lat="47.27322" lon="6.04109">
        <ele>339.8</ele>
        <time>2021-09-05T08:07:51Z</time>
      </trkpt>
      <trkpt lat="47.27324" lon="6.04106">
        <ele>340</ele>
        <time>2021-09-05T08:07:52Z</time>
      </trkpt>
      <trkpt lat="47.27326" lon="6.04103">
        <ele>340</ele>
        <time>2021-09-05T08:07:53Z</time>
      </trkpt>
      <trkpt lat="47.27328" lon="6.041">
        <ele>340.2</ele>
        <time>2021-09-05T08:07:54Z</time>
      </trkpt>
      <trkpt lat="47.2733" lon="6.04096">
        <ele>340.2</ele>
        <time>2021-09-05T08:07:55Z</time>
      </trkpt>
      <trkpt lat="47.27332" lon="6.04093">
        <ele>340.6</ele>
        <time>2021-09-05T08:07:56Z</time>
      </trkpt>
      <trkpt lat="47.27333" lon="6.0409">
        <ele>340.8</ele>
        <time>2021-09-05T08:07:57Z</time>
      </trkpt>
      <trkpt lat="47.27335" lon="6.04087">
        <ele>341</ele>
        <time>2021-09-05T08:07:58Z</time>
      </trkpt>
      <trkpt lat="47.27337" lon="6.04083">
        <ele>341.4</ele>
        <time>2021-09-05T08:07:59Z</time>
      </trkpt>
      <trkpt lat="47.27339" lon="6.0408">
        <ele>341.4</ele>
        <time>2021-09-05T08:08:00Z</time>
      </trkpt>
      <trkpt lat="47.27341" lon="6.04076">
        <ele>341.8</ele>
        <time>2021-09-05T08:08:01Z</time>
      </trkpt>
      <trkpt lat="47.27343" lon="6.04072">
        <ele>341.8</ele>
        <time>2021-09-05T08:08:02Z</time>
      </trkpt>
      <trkpt lat="47.27345" lon="6.04068">
        <ele>342</ele>
        <time>2021-09-05T08:08:03Z</time>
      </trkpt>
      <trkpt lat="47.27347" lon="6.04064">
        <ele>342</ele>
        <time>2021-09-05T08:08:04Z</time>
      </trkpt>
      <trkpt lat="47.27349" lon="6.0406">
        <ele>342.2</ele>
        <time>2021-09-05T08:08:05Z</time>
      </trkpt>
      <trkpt lat="47.27351" lon="6.04055">
        <ele>342.2</ele>
        <time>2021-09-05T08:08:06Z</time>
      </trkpt>
      <trkpt lat="47.27354" lon="6.04051">
        <ele>342.4</ele>
        <time>2021-09-05T08:08:07Z</time>
      </trkpt>
      <trkpt lat="47.27356" lon="6.04046">
        <ele>342.4</ele>
        <time>2021-09-05T08:08:08Z</time>
      </trkpt>
      <trkpt lat="47.27358" lon="6.04041">
        <ele>342.4</ele>
        <time>2021-09-05T08:08:09Z</time>
      </trkpt>
      <trkpt lat="47.27361" lon="6.04036">
        <ele>342.4</ele>
        <time>2021-09-05T08:08:10Z</time>
      </trkpt>
      <trkpt lat="47.27363" lon="6.04031">
        <ele>342.4</ele>
        <time>2021-09-05T08:08:11Z</time>
      </trkpt>
      <trkpt lat="47.27366" lon="6.04027">
        <ele>342.2</ele>
        <time>2021-09-05T08:08:12Z</time>
      </trkpt>
      <trkpt lat="47.27369" lon="6.04022">
        <ele>342.2</ele>
        <time>2021-09-05T08:08:13Z</time>
      </trkpt>
      <trkpt lat="47.27372" lon="6.04016">
        <ele>342.2</ele>
        <time>2021-09-05T08:08:14Z</time>
      </trkpt>
      <trkpt lat="47.27374" lon="6.0401">
        <ele>342</ele>
        <time>2021-09-05T08:08:15Z</time>
      </trkpt>
      <trkpt lat="47.27376" lon="6.04004">
        <ele>341.8</ele>
        <time>2021-09-05T08:08:16Z</time>
      </trkpt>
      <trkpt lat="47.27378" lon="6.03999">
        <ele>341.8</ele>
        <time>2021-09-05T08:08:17Z</time>
      </trkpt>
      <trkpt lat="47.2738" lon="6.03994">
        <ele>341.6</ele>
        <time>2021-09-05T08:08:18Z</time>
      </trkpt>
      <trkpt lat="47.27387" lon="6.03975">
        <ele>341.6</ele>
        <time>2021-09-05T08:08:22Z</time>
      </trkpt>
      <trkpt lat="47.27389" lon="6.03972">
        <ele>341.6</ele>
        <time>2021-09-05T08:08:23Z</time>
      </trkpt>
      <trkpt lat="47.27391" lon="6.0397">
        <ele>341.8</ele>
        <time>2021-09-05T08:08:24Z</time>
      </trkpt>
      <trkpt lat="47.27392" lon="6.03967">
        <ele>341.8</ele>
        <time>2021-09-05T08:08:25Z</time>
      </trkpt>
      <trkpt lat="47.27393" lon="6.03964">
        <ele>342</ele>
        <time>2021-09-05T08:08:26Z</time>
      </trkpt>
      <trkpt lat="47.27397" lon="6.03954">
        <ele>343</ele>
        <time>2021-09-05T08:08:29Z</time>
      </trkpt>
      <trkpt lat="47.27398" lon="6.03951">
        <ele>343</ele>
        <time>2021-09-05T08:08:30Z</time>
      </trkpt>
      <trkpt lat="47.274" lon="6.03949">
        <ele>343.4</ele>
        <time>2021-09-05T08:08:31Z</time>
      </trkpt>
      <trkpt lat="47.27402" lon="6.03947">
        <ele>343.8</ele>
        <time>2021-09-05T08:08:32Z</time>
      </trkpt>
      <trkpt lat="47.27404" lon="6.03945">
        <ele>344.2</ele>
        <time>2021-09-05T08:08:33Z</time>
      </trkpt>
      <trkpt lat="47.27411" lon="6.03939">
        <ele>344.8</ele>
        <time>2021-09-05T08:08:36Z</time>
      </trkpt>
      <trkpt lat="47.27412" lon="6.03936">
        <ele>345.2</ele>
        <time>2021-09-05T08:08:37Z</time>
      </trkpt>
      <trkpt lat="47.27413" lon="6.03932">
        <ele>345.4</ele>
        <time>2021-09-05T08:08:38Z</time>
      </trkpt>
      <trkpt lat="47.27414" lon="6.03929">
        <ele>345.6</ele>
        <time>2021-09-05T08:08:39Z</time>
      </trkpt>
      <trkpt lat="47.27415" lon="6.03925">
        <ele>345.8</ele>
        <time>2021-09-05T08:08:40Z</time>
      </trkpt>
      <trkpt lat="47.27415" lon="6.03921">
        <ele>346.2</ele>
        <time>2021-09-05T08:08:41Z</time>
      </trkpt>
      <trkpt lat="47.27416" lon="6.03917">
        <ele>346.4</ele>
        <time>2021-09-05T08:08:42Z</time>
      </trkpt>
      <trkpt lat="47.27417" lon="6.03914">
        <ele>346.4</ele>
        <time>2021-09-05T08:08:43Z</time>
      </trkpt>
      <trkpt lat="47.27418" lon="6.03912">
        <ele>346.8</ele>
        <time>2021-09-05T08:08:44Z</time>
      </trkpt>
      <trkpt lat="47.2742" lon="6.03909">
        <ele>347</ele>
        <time>2021-09-05T08:08:45Z</time>
      </trkpt>
      <trkpt lat="47.27421" lon="6.03906">
        <ele>347</ele>
        <time>2021-09-05T08:08:46Z</time>
      </trkpt>
      <trkpt lat="47.27422" lon="6.03904">
        <ele>347.4</ele>
        <time>2021-09-05T08:08:47Z</time>
      </trkpt>
      <trkpt lat="47.27424" lon="6.03901">
        <ele>347.8</ele>
        <time>2021-09-05T08:08:48Z</time>
      </trkpt>
      <trkpt lat="47.27426" lon="6.03899">
        <ele>348.2</ele>
        <time>2021-09-05T08:08:49Z</time>
      </trkpt>
      <trkpt lat="47.27427" lon="6.03897">
        <ele>348.4</ele>
        <time>2021-09-05T08:08:50Z</time>
      </trkpt>
      <trkpt lat="47.27429" lon="6.03895">
        <ele>348.6</ele>
        <time>2021-09-05T08:08:51Z</time>
      </trkpt>
      <trkpt lat="47.27431" lon="6.03893">
        <ele>348.8</ele>
        <time>2021-09-05T08:08:52Z</time>
      </trkpt>
      <trkpt lat="47.27432" lon="6.03892">
        <ele>349</ele>
        <time>2021-09-05T08:08:53Z</time>
      </trkpt>
      <trkpt lat="47.27434" lon="6.03889">
        <ele>349.2</ele>
        <time>2021-09-05T08:08:54Z</time>
      </trkpt>
      <trkpt lat="47.27435" lon="6.03887">
        <ele>349.4</ele>
        <time>2021-09-05T08:08:55Z</time>
      </trkpt>
      <trkpt lat="47.27436" lon="6.03885">
        <ele>349.6</ele>
        <time>2021-09-05T08:08:56Z</time>
      </trkpt>
      <trkpt lat="47.27437" lon="6.03882">
        <ele>349.6</ele>
        <time>2021-09-05T08:08:57Z</time>
      </trkpt>
      <trkpt lat="47.27438" lon="6.03879">
        <ele>350</ele>
        <time>2021-09-05T08:08:58Z</time>
      </trkpt>
      <trkpt lat="47.27439" lon="6.03877">
        <ele>350</ele>
        <time>2021-09-05T08:08:59Z</time>
      </trkpt>
      <trkpt lat="47.27441" lon="6.03874">
        <ele>350.6</ele>
        <time>2021-09-05T08:09:00Z</time>
      </trkpt>
      <trkpt lat="47.27442" lon="6.03872">
        <ele>350.8</ele>
        <time>2021-09-05T08:09:01Z</time>
      </trkpt>
      <trkpt lat="47.27444" lon="6.03871">
        <ele>351.2</ele>
        <time>2021-09-05T08:09:02Z</time>
      </trkpt>
      <trkpt lat="47.27445" lon="6.0387">
        <ele>351.6</ele>
        <time>2021-09-05T08:09:03Z</time>
      </trkpt>
      <trkpt lat="47.27446" lon="6.03869">
        <ele>351.6</ele>
        <time>2021-09-05T08:09:04Z</time>
      </trkpt>
      <trkpt lat="47.27446" lon="6.03869">
        <ele>352</ele>
        <time>2021-09-05T08:09:05Z</time>
      </trkpt>
      <trkpt lat="47.27446" lon="6.03869">
        <ele>352.4</ele>
        <time>2021-09-05T08:09:09Z</time>
      </trkpt>
      <trkpt lat="47.27446" lon="6.03863">
        <ele>352.2</ele>
        <time>2021-09-05T08:10:12Z</time>
      </trkpt>
      <trkpt lat="47.27452" lon="6.03853">
        <ele>352.4</ele>
        <time>2021-09-05T08:10:16Z</time>
      </trkpt>
      <trkpt lat="47.27454" lon="6.03848">
        <ele>352.4</ele>
        <time>2021-09-05T08:10:18Z</time>
      </trkpt>
      <trkpt lat="47.27463" lon="6.03831">
        <ele>352.6</ele>
        <time>2021-09-05T08:10:24Z</time>
      </trkpt>
      <trkpt lat="47.27468" lon="6.03824">
        <ele>352.8</ele>
        <time>2021-09-05T08:10:27Z</time>
      </trkpt>
      <trkpt lat="47.27473" lon="6.03818">
        <ele>353</ele>
        <time>2021-09-05T08:10:29Z</time>
      </trkpt>
      <trkpt lat="47.27485" lon="6.03795">
        <ele>354</ele>
        <time>2021-09-05T08:10:36Z</time>
      </trkpt>
      <trkpt lat="47.27486" lon="6.03792">
        <ele>354</ele>
        <time>2021-09-05T08:10:37Z</time>
      </trkpt>
      <trkpt lat="47.27488" lon="6.03787">
        <ele>354.2</ele>
        <time>2021-09-05T08:10:39Z</time>
      </trkpt>
      <trkpt lat="47.27489" lon="6.03783">
        <ele>354.6</ele>
        <time>2021-09-05T08:10:40Z</time>
      </trkpt>
      <trkpt lat="47.2749" lon="6.03781">
        <ele>354.8</ele>
        <time>2021-09-05T08:10:41Z</time>
      </trkpt>
      <trkpt lat="47.27492" lon="6.03778">
        <ele>354.8</ele>
        <time>2021-09-05T08:10:42Z</time>
      </trkpt>
      <trkpt lat="47.27493" lon="6.03775">
        <ele>355</ele>
        <time>2021-09-05T08:10:43Z</time>
      </trkpt>
      <trkpt lat="47.27499" lon="6.03766">
        <ele>355.2</ele>
        <time>2021-09-05T08:10:46Z</time>
      </trkpt>
      <trkpt lat="47.27501" lon="6.03763">
        <ele>355.4</ele>
        <time>2021-09-05T08:10:47Z</time>
      </trkpt>
      <trkpt lat="47.27502" lon="6.03759">
        <ele>355.4</ele>
        <time>2021-09-05T08:10:48Z</time>
      </trkpt>
      <trkpt lat="47.27504" lon="6.03757">
        <ele>355.6</ele>
        <time>2021-09-05T08:10:49Z</time>
      </trkpt>
      <trkpt lat="47.27505" lon="6.03755">
        <ele>356</ele>
        <time>2021-09-05T08:10:50Z</time>
      </trkpt>
      <trkpt lat="47.27507" lon="6.03753">
        <ele>356</ele>
        <time>2021-09-05T08:10:51Z</time>
      </trkpt>
      <trkpt lat="47.27509" lon="6.0375">
        <ele>356.2</ele>
        <time>2021-09-05T08:10:52Z</time>
      </trkpt>
      <trkpt lat="47.27511" lon="6.03746">
        <ele>356.2</ele>
        <time>2021-09-05T08:10:53Z</time>
      </trkpt>
      <trkpt lat="47.27512" lon="6.03743">
        <ele>356.4</ele>
        <time>2021-09-05T08:10:54Z</time>
      </trkpt>
      <trkpt lat="47.27514" lon="6.0374">
        <ele>356.6</ele>
        <time>2021-09-05T08:10:55Z</time>
      </trkpt>
      <trkpt lat="47.27516" lon="6.03737">
        <ele>357</ele>
        <time>2021-09-05T08:10:56Z</time>
      </trkpt>
      <trkpt lat="47.27517" lon="6.03734">
        <ele>357.4</ele>
        <time>2021-09-05T08:10:57Z</time>
      </trkpt>
      <trkpt lat="47.27519" lon="6.03731">
        <ele>357.6</ele>
        <time>2021-09-05T08:10:58Z</time>
      </trkpt>
      <trkpt lat="47.27521" lon="6.03729">
        <ele>357.8</ele>
        <time>2021-09-05T08:10:59Z</time>
      </trkpt>
      <trkpt lat="47.27523" lon="6.03726">
        <ele>358</ele>
        <time>2021-09-05T08:11:00Z</time>
      </trkpt>
      <trkpt lat="47.27525" lon="6.03723">
        <ele>358</ele>
        <time>2021-09-05T08:11:01Z</time>
      </trkpt>
      <trkpt lat="47.27527" lon="6.0372">
        <ele>358.2</ele>
        <time>2021-09-05T08:11:02Z</time>
      </trkpt>
      <trkpt lat="47.27529" lon="6.03717">
        <ele>358.2</ele>
        <time>2021-09-05T08:11:03Z</time>
      </trkpt>
      <trkpt lat="47.27532" lon="6.03715">
        <ele>358.2</ele>
        <time>2021-09-05T08:11:04Z</time>
      </trkpt>
      <trkpt lat="47.27533" lon="6.03712">
        <ele>358.2</ele>
        <time>2021-09-05T08:11:05Z</time>
      </trkpt>
      <trkpt lat="47.27535" lon="6.0371">
        <ele>358.4</ele>
        <time>2021-09-05T08:11:06Z</time>
      </trkpt>
      <trkpt lat="47.27537" lon="6.03707">
        <ele>358.4</ele>
        <time>2021-09-05T08:11:07Z</time>
      </trkpt>
      <trkpt lat="47.2754" lon="6.03704">
        <ele>358.8</ele>
        <time>2021-09-05T08:11:08Z</time>
      </trkpt>
      <trkpt lat="47.27541" lon="6.03702">
        <ele>358.8</ele>
        <time>2021-09-05T08:11:09Z</time>
      </trkpt>
      <trkpt lat="47.27543" lon="6.03699">
        <ele>358.8</ele>
        <time>2021-09-05T08:11:10Z</time>
      </trkpt>
      <trkpt lat="47.27545" lon="6.03696">
        <ele>359</ele>
        <time>2021-09-05T08:11:11Z</time>
      </trkpt>
      <trkpt lat="47.27547" lon="6.03694">
        <ele>359.2</ele>
        <time>2021-09-05T08:11:12Z</time>
      </trkpt>
      <trkpt lat="47.27549" lon="6.03692">
        <ele>359.4</ele>
        <time>2021-09-05T08:11:13Z</time>
      </trkpt>
      <trkpt lat="47.27551" lon="6.0369">
        <ele>359.6</ele>
        <time>2021-09-05T08:11:14Z</time>
      </trkpt>
      <trkpt lat="47.27553" lon="6.03687">
        <ele>360</ele>
        <time>2021-09-05T08:11:15Z</time>
      </trkpt>
      <trkpt lat="47.27555" lon="6.03684">
        <ele>360</ele>
        <time>2021-09-05T08:11:16Z</time>
      </trkpt>
      <trkpt lat="47.27556" lon="6.03682">
        <ele>360.2</ele>
        <time>2021-09-05T08:11:17Z</time>
      </trkpt>
      <trkpt lat="47.27557" lon="6.03678">
        <ele>360.2</ele>
        <time>2021-09-05T08:11:18Z</time>
      </trkpt>
      <trkpt lat="47.27558" lon="6.03674">
        <ele>360.4</ele>
        <time>2021-09-05T08:11:19Z</time>
      </trkpt>
      <trkpt lat="47.27558" lon="6.03672">
        <ele>360.4</ele>
        <time>2021-09-05T08:11:20Z</time>
      </trkpt>
      <trkpt lat="47.27559" lon="6.03668">
        <ele>360.4</ele>
        <time>2021-09-05T08:11:21Z</time>
      </trkpt>
      <trkpt lat="47.27559" lon="6.03666">
        <ele>360.6</ele>
        <time>2021-09-05T08:11:22Z</time>
      </trkpt>
      <trkpt lat="47.2756" lon="6.03663">
        <ele>360.6</ele>
        <time>2021-09-05T08:11:23Z</time>
      </trkpt>
      <trkpt lat="47.27562" lon="6.0366">
        <ele>360.8</ele>
        <time>2021-09-05T08:11:24Z</time>
      </trkpt>
      <trkpt lat="47.27563" lon="6.03657">
        <ele>360.8</ele>
        <time>2021-09-05T08:11:25Z</time>
      </trkpt>
      <trkpt lat="47.27565" lon="6.03655">
        <ele>360.8</ele>
        <time>2021-09-05T08:11:26Z</time>
      </trkpt>
      <trkpt lat="47.27566" lon="6.03652">
        <ele>361</ele>
        <time>2021-09-05T08:11:27Z</time>
      </trkpt>
      <trkpt lat="47.27568" lon="6.0365">
        <ele>361</ele>
        <time>2021-09-05T08:11:28Z</time>
      </trkpt>
      <trkpt lat="47.2757" lon="6.03647">
        <ele>361</ele>
        <time>2021-09-05T08:11:29Z</time>
      </trkpt>
      <trkpt lat="47.27573" lon="6.03644">
        <ele>361.2</ele>
        <time>2021-09-05T08:11:30Z</time>
      </trkpt>
      <trkpt lat="47.27574" lon="6.03643">
        <ele>361.2</ele>
        <time>2021-09-05T08:11:31Z</time>
      </trkpt>
      <trkpt lat="47.27576" lon="6.03641">
        <ele>361.2</ele>
        <time>2021-09-05T08:11:32Z</time>
      </trkpt>
      <trkpt lat="47.27579" lon="6.03639">
        <ele>361.2</ele>
        <time>2021-09-05T08:11:33Z</time>
      </trkpt>
      <trkpt lat="47.27581" lon="6.03638">
        <ele>361.2</ele>
        <time>2021-09-05T08:11:34Z</time>
      </trkpt>
      <trkpt lat="47.27584" lon="6.03638">
        <ele>361.4</ele>
        <time>2021-09-05T08:11:35Z</time>
      </trkpt>
      <trkpt lat="47.27586" lon="6.03637">
        <ele>361.4</ele>
        <time>2021-09-05T08:11:36Z</time>
      </trkpt>
      <trkpt lat="47.27587" lon="6.03635">
        <ele>361.4</ele>
        <time>2021-09-05T08:11:37Z</time>
      </trkpt>
      <trkpt lat="47.27587" lon="6.03633">
        <ele>361.4</ele>
        <time>2021-09-05T08:11:38Z</time>
      </trkpt>
      <trkpt lat="47.27586" lon="6.03632">
        <ele>361.6</ele>
        <time>2021-09-05T08:11:39Z</time>
      </trkpt>
      <trkpt lat="47.27577" lon="6.03636">
        <ele>361.8</ele>
        <time>2021-09-05T08:11:43Z</time>
      </trkpt>
      <trkpt lat="47.27576" lon="6.03648">
        <ele>362</ele>
        <time>2021-09-05T08:11:46Z</time>
      </trkpt>
      <trkpt lat="47.27576" lon="6.03652">
        <ele>362</ele>
        <time>2021-09-05T08:11:47Z</time>
      </trkpt>
      <trkpt lat="47.27577" lon="6.03657">
        <ele>362</ele>
        <time>2021-09-05T08:11:48Z</time>
      </trkpt>
      <trkpt lat="47.27577" lon="6.03661">
        <ele>361.8</ele>
        <time>2021-09-05T08:11:49Z</time>
      </trkpt>
      <trkpt lat="47.27575" lon="6.03676">
        <ele>361.6</ele>
        <time>2021-09-05T08:11:52Z</time>
      </trkpt>
      <trkpt lat="47.27575" lon="6.03683">
        <ele>361.6</ele>
        <time>2021-09-05T08:11:54Z</time>
      </trkpt>
      <trkpt lat="47.27576" lon="6.03686">
        <ele>361.6</ele>
        <time>2021-09-05T08:11:55Z</time>
      </trkpt>
      <trkpt lat="47.27577" lon="6.03689">
        <ele>361.6</ele>
        <time>2021-09-05T08:11:56Z</time>
      </trkpt>
      <trkpt lat="47.27577" lon="6.03693">
        <ele>361.6</ele>
        <time>2021-09-05T08:11:57Z</time>
      </trkpt>
      <trkpt lat="47.27577" lon="6.03697">
        <ele>361.6</ele>
        <time>2021-09-05T08:11:58Z</time>
      </trkpt>
      <trkpt lat="47.27579" lon="6.037">
        <ele>361.6</ele>
        <time>2021-09-05T08:11:59Z</time>
      </trkpt>
      <trkpt lat="47.27581" lon="6.03702">
        <ele>361.8</ele>
        <time>2021-09-05T08:12:00Z</time>
      </trkpt>
      <trkpt lat="47.27583" lon="6.03702">
        <ele>361.8</ele>
        <time>2021-09-05T08:12:01Z</time>
      </trkpt>
      <trkpt lat="47.27586" lon="6.03701">
        <ele>361.8</ele>
        <time>2021-09-05T08:12:02Z</time>
      </trkpt>
      <trkpt lat="47.27589" lon="6.03699">
        <ele>361.8</ele>
        <time>2021-09-05T08:12:03Z</time>
      </trkpt>
      <trkpt lat="47.27591" lon="6.03698">
        <ele>362</ele>
        <time>2021-09-05T08:12:04Z</time>
      </trkpt>
      <trkpt lat="47.27594" lon="6.03697">
        <ele>362</ele>
        <time>2021-09-05T08:12:05Z</time>
      </trkpt>
      <trkpt lat="47.27609" lon="6.0369">
        <ele>362.2</ele>
        <time>2021-09-05T08:12:11Z</time>
      </trkpt>
      <trkpt lat="47.27626" lon="6.03681">
        <ele>362.2</ele>
        <time>2021-09-05T08:12:16Z</time>
      </trkpt>
      <trkpt lat="47.27633" lon="6.03672">
        <ele>362</ele>
        <time>2021-09-05T08:12:18Z</time>
      </trkpt>
      <trkpt lat="47.27643" lon="6.0366">
        <ele>361.8</ele>
        <time>2021-09-05T08:12:20Z</time>
      </trkpt>
      <trkpt lat="47.27656" lon="6.03655">
        <ele>361.2</ele>
        <time>2021-09-05T08:12:22Z</time>
      </trkpt>
      <trkpt lat="47.27663" lon="6.03653">
        <ele>360.6</ele>
        <time>2021-09-05T08:12:23Z</time>
      </trkpt>
      <trkpt lat="47.27672" lon="6.03651">
        <ele>360.4</ele>
        <time>2021-09-05T08:12:24Z</time>
      </trkpt>
      <trkpt lat="47.27678" lon="6.03649">
        <ele>359.8</ele>
        <time>2021-09-05T08:12:25Z</time>
      </trkpt>
      <trkpt lat="47.27683" lon="6.03647">
        <ele>359.4</ele>
        <time>2021-09-05T08:12:26Z</time>
      </trkpt>
      <trkpt lat="47.27689" lon="6.03645">
        <ele>358.6</ele>
        <time>2021-09-05T08:12:27Z</time>
      </trkpt>
      <trkpt lat="47.27695" lon="6.03643">
        <ele>358</ele>
        <time>2021-09-05T08:12:28Z</time>
      </trkpt>
      <trkpt lat="47.277" lon="6.03641">
        <ele>358</ele>
        <time>2021-09-05T08:12:29Z</time>
      </trkpt>
      <trkpt lat="47.27706" lon="6.03639">
        <ele>357.8</ele>
        <time>2021-09-05T08:12:30Z</time>
      </trkpt>
      <trkpt lat="47.27709" lon="6.03638">
        <ele>357.8</ele>
        <time>2021-09-05T08:12:31Z</time>
      </trkpt>
      <trkpt lat="47.27714" lon="6.03636">
        <ele>357.8</ele>
        <time>2021-09-05T08:12:32Z</time>
      </trkpt>
      <trkpt lat="47.27719" lon="6.03635">
        <ele>357.8</ele>
        <time>2021-09-05T08:12:33Z</time>
      </trkpt>
      <trkpt lat="47.27724" lon="6.03635">
        <ele>357.8</ele>
        <time>2021-09-05T08:12:34Z</time>
      </trkpt>
      <trkpt lat="47.27727" lon="6.03636">
        <ele>357.8</ele>
        <time>2021-09-05T08:12:35Z</time>
      </trkpt>
      <trkpt lat="47.2773" lon="6.03637">
        <ele>358.4</ele>
        <time>2021-09-05T08:12:36Z</time>
      </trkpt>
      <trkpt lat="47.27734" lon="6.03636">
        <ele>358.6</ele>
        <time>2021-09-05T08:12:37Z</time>
      </trkpt>
      <trkpt lat="47.27737" lon="6.03635">
        <ele>358.8</ele>
        <time>2021-09-05T08:12:38Z</time>
      </trkpt>
      <trkpt lat="47.2774" lon="6.03632">
        <ele>359.2</ele>
        <time>2021-09-05T08:12:39Z</time>
      </trkpt>
      <trkpt lat="47.27743" lon="6.03628">
        <ele>359.6</ele>
        <time>2021-09-05T08:12:40Z</time>
      </trkpt>
      <trkpt lat="47.27746" lon="6.03624">
        <ele>360</ele>
        <time>2021-09-05T08:12:41Z</time>
      </trkpt>
      <trkpt lat="47.27749" lon="6.03619">
        <ele>360</ele>
        <time>2021-09-05T08:12:42Z</time>
      </trkpt>
      <trkpt lat="47.27751" lon="6.03614">
        <ele>360.4</ele>
        <time>2021-09-05T08:12:43Z</time>
      </trkpt>
      <trkpt lat="47.2776" lon="6.03599">
        <ele>360.6</ele>
        <time>2021-09-05T08:12:46Z</time>
      </trkpt>
      <trkpt lat="47.27763" lon="6.03594">
        <ele>360.6</ele>
        <time>2021-09-05T08:12:47Z</time>
      </trkpt>
      <trkpt lat="47.27779" lon="6.03558">
        <ele>360.6</ele>
        <time>2021-09-05T08:12:51Z</time>
      </trkpt>
      <trkpt lat="47.27795" lon="6.03524">
        <ele>359.8</ele>
        <time>2021-09-05T08:12:54Z</time>
      </trkpt>
      <trkpt lat="47.27802" lon="6.03507">
        <ele>358.8</ele>
        <time>2021-09-05T08:12:55Z</time>
      </trkpt>
      <trkpt lat="47.27815" lon="6.03476">
        <ele>356.2</ele>
        <time>2021-09-05T08:12:57Z</time>
      </trkpt>
      <trkpt lat="47.2782" lon="6.03465">
        <ele>355.2</ele>
        <time>2021-09-05T08:12:58Z</time>
      </trkpt>
      <trkpt lat="47.27826" lon="6.03451">
        <ele>353.4</ele>
        <time>2021-09-05T08:12:59Z</time>
      </trkpt>
      <trkpt lat="47.27832" lon="6.03438">
        <ele>352</ele>
        <time>2021-09-05T08:13:00Z</time>
      </trkpt>
      <trkpt lat="47.27837" lon="6.03428">
        <ele>350.6</ele>
        <time>2021-09-05T08:13:01Z</time>
      </trkpt>
      <trkpt lat="47.27841" lon="6.03419">
        <ele>349.2</ele>
        <time>2021-09-05T08:13:02Z</time>
      </trkpt>
      <trkpt lat="47.27846" lon="6.0341">
        <ele>348.8</ele>
        <time>2021-09-05T08:13:03Z</time>
      </trkpt>
      <trkpt lat="47.2785" lon="6.03401">
        <ele>348.4</ele>
        <time>2021-09-05T08:13:04Z</time>
      </trkpt>
      <trkpt lat="47.27854" lon="6.03393">
        <ele>348.4</ele>
        <time>2021-09-05T08:13:05Z</time>
      </trkpt>
      <trkpt lat="47.27858" lon="6.03386">
        <ele>348.6</ele>
        <time>2021-09-05T08:13:06Z</time>
      </trkpt>
      <trkpt lat="47.27861" lon="6.03379">
        <ele>348.8</ele>
        <time>2021-09-05T08:13:07Z</time>
      </trkpt>
      <trkpt lat="47.27865" lon="6.03372">
        <ele>349</ele>
        <time>2021-09-05T08:13:08Z</time>
      </trkpt>
      <trkpt lat="47.27868" lon="6.03365">
        <ele>349</ele>
        <time>2021-09-05T08:13:09Z</time>
      </trkpt>
      <trkpt lat="47.27872" lon="6.03358">
        <ele>349</ele>
        <time>2021-09-05T08:13:10Z</time>
      </trkpt>
      <trkpt lat="47.27879" lon="6.03344">
        <ele>349</ele>
        <time>2021-09-05T08:13:12Z</time>
      </trkpt>
      <trkpt lat="47.27882" lon="6.03338">
        <ele>349</ele>
        <time>2021-09-05T08:13:13Z</time>
      </trkpt>
      <trkpt lat="47.27885" lon="6.03331">
        <ele>349</ele>
        <time>2021-09-05T08:13:14Z</time>
      </trkpt>
      <trkpt lat="47.27889" lon="6.03324">
        <ele>349.2</ele>
        <time>2021-09-05T08:13:15Z</time>
      </trkpt>
      <trkpt lat="47.27892" lon="6.03316">
        <ele>349</ele>
        <time>2021-09-05T08:13:16Z</time>
      </trkpt>
      <trkpt lat="47.27899" lon="6.03303">
        <ele>348.8</ele>
        <time>2021-09-05T08:13:18Z</time>
      </trkpt>
      <trkpt lat="47.27913" lon="6.03275">
        <ele>348</ele>
        <time>2021-09-05T08:13:22Z</time>
      </trkpt>
      <trkpt lat="47.27925" lon="6.03252">
        <ele>347.6</ele>
        <time>2021-09-05T08:13:25Z</time>
      </trkpt>
      <trkpt lat="47.27933" lon="6.03235">
        <ele>346.8</ele>
        <time>2021-09-05T08:13:27Z</time>
      </trkpt>
      <trkpt lat="47.27936" lon="6.03227">
        <ele>346.8</ele>
        <time>2021-09-05T08:13:28Z</time>
      </trkpt>
      <trkpt lat="47.27939" lon="6.0322">
        <ele>346</ele>
        <time>2021-09-05T08:13:29Z</time>
      </trkpt>
      <trkpt lat="47.27943" lon="6.03213">
        <ele>345.8</ele>
        <time>2021-09-05T08:13:30Z</time>
      </trkpt>
      <trkpt lat="47.27946" lon="6.03208">
        <ele>345.4</ele>
        <time>2021-09-05T08:13:31Z</time>
      </trkpt>
      <trkpt lat="47.27949" lon="6.03202">
        <ele>345.2</ele>
        <time>2021-09-05T08:13:32Z</time>
      </trkpt>
      <trkpt lat="47.27951" lon="6.03198">
        <ele>345</ele>
        <time>2021-09-05T08:13:33Z</time>
      </trkpt>
      <trkpt lat="47.27952" lon="6.03194">
        <ele>344.6</ele>
        <time>2021-09-05T08:13:34Z</time>
      </trkpt>
      <trkpt lat="47.27953" lon="6.03191">
        <ele>344.6</ele>
        <time>2021-09-05T08:13:35Z</time>
      </trkpt>
      <trkpt lat="47.27954" lon="6.03188">
        <ele>344.4</ele>
        <time>2021-09-05T08:13:36Z</time>
      </trkpt>
      <trkpt lat="47.27955" lon="6.03185">
        <ele>344.4</ele>
        <time>2021-09-05T08:13:37Z</time>
      </trkpt>
      <trkpt lat="47.27956" lon="6.03183">
        <ele>344.2</ele>
        <time>2021-09-05T08:13:38Z</time>
      </trkpt>
      <trkpt lat="47.27958" lon="6.03181">
        <ele>344.2</ele>
        <time>2021-09-05T08:13:39Z</time>
      </trkpt>
      <trkpt lat="47.27959" lon="6.0318">
        <ele>344</ele>
        <time>2021-09-05T08:13:40Z</time>
      </trkpt>
      <trkpt lat="47.2796" lon="6.0318">
        <ele>344</ele>
        <time>2021-09-05T08:13:41Z</time>
      </trkpt>
      <trkpt lat="47.27961" lon="6.0318">
        <ele>344</ele>
        <time>2021-09-05T08:13:42Z</time>
      </trkpt>
      <trkpt lat="47.27962" lon="6.0318">
        <ele>343.8</ele>
        <time>2021-09-05T08:13:43Z</time>
      </trkpt>
      <trkpt lat="47.27963" lon="6.0318">
        <ele>343.8</ele>
        <time>2021-09-05T08:13:44Z</time>
      </trkpt>
      <trkpt lat="47.27965" lon="6.0318">
        <ele>343.8</ele>
        <time>2021-09-05T08:13:45Z</time>
      </trkpt>
      <trkpt lat="47.27968" lon="6.03178">
        <ele>343.8</ele>
        <time>2021-09-05T08:13:47Z</time>
      </trkpt>
      <trkpt lat="47.27971" lon="6.03177">
        <ele>343.8</ele>
        <time>2021-09-05T08:13:48Z</time>
      </trkpt>
      <trkpt lat="47.27985" lon="6.03175">
        <ele>343.6</ele>
        <time>2021-09-05T08:13:53Z</time>
      </trkpt>
      <trkpt lat="47.27997" lon="6.03175">
        <ele>343.4</ele>
        <time>2021-09-05T08:13:56Z</time>
      </trkpt>
      <trkpt lat="47.28012" lon="6.03173">
        <ele>343.2</ele>
        <time>2021-09-05T08:13:59Z</time>
      </trkpt>
      <trkpt lat="47.28023" lon="6.03172">
        <ele>342.8</ele>
        <time>2021-09-05T08:14:01Z</time>
      </trkpt>
      <trkpt lat="47.28034" lon="6.03171">
        <ele>342.4</ele>
        <time>2021-09-05T08:14:03Z</time>
      </trkpt>
      <trkpt lat="47.28041" lon="6.0317">
        <ele>342.4</ele>
        <time>2021-09-05T08:14:04Z</time>
      </trkpt>
      <trkpt lat="47.28062" lon="6.03165">
        <ele>341.8</ele>
        <time>2021-09-05T08:14:08Z</time>
      </trkpt>
      <trkpt lat="47.28078" lon="6.03161">
        <ele>341.8</ele>
        <time>2021-09-05T08:14:11Z</time>
      </trkpt>
      <trkpt lat="47.28084" lon="6.03159">
        <ele>341.8</ele>
        <time>2021-09-05T08:14:12Z</time>
      </trkpt>
      <trkpt lat="47.28094" lon="6.03155">
        <ele>341.4</ele>
        <time>2021-09-05T08:14:14Z</time>
      </trkpt>
      <trkpt lat="47.28098" lon="6.03153">
        <ele>341.2</ele>
        <time>2021-09-05T08:14:15Z</time>
      </trkpt>
      <trkpt lat="47.28101" lon="6.03152">
        <ele>341</ele>
        <time>2021-09-05T08:14:16Z</time>
      </trkpt>
      <trkpt lat="47.28104" lon="6.0315">
        <ele>340.8</ele>
        <time>2021-09-05T08:14:17Z</time>
      </trkpt>
      <trkpt lat="47.28107" lon="6.03149">
        <ele>340.6</ele>
        <time>2021-09-05T08:14:18Z</time>
      </trkpt>
      <trkpt lat="47.28109" lon="6.03147">
        <ele>340.6</ele>
        <time>2021-09-05T08:14:19Z</time>
      </trkpt>
      <trkpt lat="47.28112" lon="6.03145">
        <ele>340.6</ele>
        <time>2021-09-05T08:14:20Z</time>
      </trkpt>
      <trkpt lat="47.28125" lon="6.0314">
        <ele>340.2</ele>
        <time>2021-09-05T08:14:24Z</time>
      </trkpt>
      <trkpt lat="47.28128" lon="6.03138">
        <ele>340.2</ele>
        <time>2021-09-05T08:14:25Z</time>
      </trkpt>
      <trkpt lat="47.28135" lon="6.03135">
        <ele>340.2</ele>
        <time>2021-09-05T08:14:27Z</time>
      </trkpt>
      <trkpt lat="47.28138" lon="6.03133">
        <ele>340.2</ele>
        <time>2021-09-05T08:14:28Z</time>
      </trkpt>
      <trkpt lat="47.28141" lon="6.03131">
        <ele>340.2</ele>
        <time>2021-09-05T08:14:29Z</time>
      </trkpt>
      <trkpt lat="47.28149" lon="6.03129">
        <ele>340.2</ele>
        <time>2021-09-05T08:14:31Z</time>
      </trkpt>
      <trkpt lat="47.28171" lon="6.03123">
        <ele>343.4</ele>
        <time>2021-09-05T08:14:37Z</time>
      </trkpt>
      <trkpt lat="47.28175" lon="6.03121">
        <ele>340.6</ele>
        <time>2021-09-05T08:14:38Z</time>
      </trkpt>
      <trkpt lat="47.28178" lon="6.0312">
        <ele>340.6</ele>
        <time>2021-09-05T08:14:39Z</time>
      </trkpt>
      <trkpt lat="47.28189" lon="6.03118">
        <ele>341.2</ele>
        <time>2021-09-05T08:14:42Z</time>
      </trkpt>
      <trkpt lat="47.28193" lon="6.03117">
        <ele>341.4</ele>
        <time>2021-09-05T08:14:43Z</time>
      </trkpt>
      <trkpt lat="47.282" lon="6.03116">
        <ele>342</ele>
        <time>2021-09-05T08:14:45Z</time>
      </trkpt>
      <trkpt lat="47.28204" lon="6.03115">
        <ele>342.2</ele>
        <time>2021-09-05T08:14:46Z</time>
      </trkpt>
      <trkpt lat="47.28207" lon="6.03115">
        <ele>342.4</ele>
        <time>2021-09-05T08:14:47Z</time>
      </trkpt>
      <trkpt lat="47.28235" lon="6.0311">
        <ele>343.2</ele>
        <time>2021-09-05T08:14:54Z</time>
      </trkpt>
      <trkpt lat="47.28239" lon="6.0311">
        <ele>343.2</ele>
        <time>2021-09-05T08:14:55Z</time>
      </trkpt>
      <trkpt lat="47.28243" lon="6.03109">
        <ele>343.4</ele>
        <time>2021-09-05T08:14:56Z</time>
      </trkpt>
      <trkpt lat="47.28248" lon="6.03108">
        <ele>343.4</ele>
        <time>2021-09-05T08:14:57Z</time>
      </trkpt>
      <trkpt lat="47.28253" lon="6.03107">
        <ele>343.2</ele>
        <time>2021-09-05T08:14:58Z</time>
      </trkpt>
      <trkpt lat="47.28258" lon="6.03106">
        <ele>343.2</ele>
        <time>2021-09-05T08:14:59Z</time>
      </trkpt>
      <trkpt lat="47.28263" lon="6.03105">
        <ele>343</ele>
        <time>2021-09-05T08:15:00Z</time>
      </trkpt>
      <trkpt lat="47.28267" lon="6.03104">
        <ele>343</ele>
        <time>2021-09-05T08:15:01Z</time>
      </trkpt>
      <trkpt lat="47.28272" lon="6.03103">
        <ele>342.8</ele>
        <time>2021-09-05T08:15:02Z</time>
      </trkpt>
      <trkpt lat="47.28307" lon="6.03101">
        <ele>342.4</ele>
        <time>2021-09-05T08:15:09Z</time>
      </trkpt>
      <trkpt lat="47.28311" lon="6.031">
        <ele>342.4</ele>
        <time>2021-09-05T08:15:10Z</time>
      </trkpt>
      <trkpt lat="47.28321" lon="6.03098">
        <ele>342.4</ele>
        <time>2021-09-05T08:15:12Z</time>
      </trkpt>
      <trkpt lat="47.28329" lon="6.03097">
        <ele>342.4</ele>
        <time>2021-09-05T08:15:14Z</time>
      </trkpt>
      <trkpt lat="47.28334" lon="6.03096">
        <ele>342.4</ele>
        <time>2021-09-05T08:15:15Z</time>
      </trkpt>
      <trkpt lat="47.28338" lon="6.03096">
        <ele>342.6</ele>
        <time>2021-09-05T08:15:16Z</time>
      </trkpt>
      <trkpt lat="47.28342" lon="6.03095">
        <ele>342.6</ele>
        <time>2021-09-05T08:15:17Z</time>
      </trkpt>
      <trkpt lat="47.28346" lon="6.03095">
        <ele>342.8</ele>
        <time>2021-09-05T08:15:18Z</time>
      </trkpt>
      <trkpt lat="47.2835" lon="6.03094">
        <ele>342.8</ele>
        <time>2021-09-05T08:15:19Z</time>
      </trkpt>
      <trkpt lat="47.28353" lon="6.03094">
        <ele>343</ele>
        <time>2021-09-05T08:15:20Z</time>
      </trkpt>
      <trkpt lat="47.28357" lon="6.03093">
        <ele>343.2</ele>
        <time>2021-09-05T08:15:21Z</time>
      </trkpt>
      <trkpt lat="47.28361" lon="6.03092">
        <ele>343.2</ele>
        <time>2021-09-05T08:15:22Z</time>
      </trkpt>
      <trkpt lat="47.28365" lon="6.03091">
        <ele>343.4</ele>
        <time>2021-09-05T08:15:23Z</time>
      </trkpt>
      <trkpt lat="47.28368" lon="6.03091">
        <ele>343.4</ele>
        <time>2021-09-05T08:15:24Z</time>
      </trkpt>
      <trkpt lat="47.28372" lon="6.0309">
        <ele>343.6</ele>
        <time>2021-09-05T08:15:25Z</time>
      </trkpt>
      <trkpt lat="47.28377" lon="6.03089">
        <ele>343.8</ele>
        <time>2021-09-05T08:15:26Z</time>
      </trkpt>
      <trkpt lat="47.28388" lon="6.03088">
        <ele>344</ele>
        <time>2021-09-05T08:15:28Z</time>
      </trkpt>
      <trkpt lat="47.28397" lon="6.03086">
        <ele>344.2</ele>
        <time>2021-09-05T08:15:30Z</time>
      </trkpt>
      <trkpt lat="47.28407" lon="6.03084">
        <ele>344.2</ele>
        <time>2021-09-05T08:15:32Z</time>
      </trkpt>
      <trkpt lat="47.28412" lon="6.03083">
        <ele>344.2</ele>
        <time>2021-09-05T08:15:33Z</time>
      </trkpt>
      <trkpt lat="47.2843" lon="6.03079">
        <ele>344.6</ele>
        <time>2021-09-05T08:15:37Z</time>
      </trkpt>
      <trkpt lat="47.28435" lon="6.03077">
        <ele>344.6</ele>
        <time>2021-09-05T08:15:38Z</time>
      </trkpt>
      <trkpt lat="47.28439" lon="6.03076">
        <ele>344.8</ele>
        <time>2021-09-05T08:15:39Z</time>
      </trkpt>
      <trkpt lat="47.28442" lon="6.03075">
        <ele>344.8</ele>
        <time>2021-09-05T08:15:40Z</time>
      </trkpt>
      <trkpt lat="47.28446" lon="6.03074">
        <ele>345</ele>
        <time>2021-09-05T08:15:41Z</time>
      </trkpt>
      <trkpt lat="47.28449" lon="6.03073">
        <ele>345</ele>
        <time>2021-09-05T08:15:42Z</time>
      </trkpt>
      <trkpt lat="47.28452" lon="6.03072">
        <ele>345.2</ele>
        <time>2021-09-05T08:15:43Z</time>
      </trkpt>
      <trkpt lat="47.28456" lon="6.03071">
        <ele>345.4</ele>
        <time>2021-09-05T08:15:44Z</time>
      </trkpt>
      <trkpt lat="47.28467" lon="6.03067">
        <ele>346.2</ele>
        <time>2021-09-05T08:15:47Z</time>
      </trkpt>
      <trkpt lat="47.28471" lon="6.03065">
        <ele>346.6</ele>
        <time>2021-09-05T08:15:48Z</time>
      </trkpt>
      <trkpt lat="47.28474" lon="6.03063">
        <ele>346.6</ele>
        <time>2021-09-05T08:15:49Z</time>
      </trkpt>
      <trkpt lat="47.28478" lon="6.03061">
        <ele>346.8</ele>
        <time>2021-09-05T08:15:50Z</time>
      </trkpt>
      <trkpt lat="47.28482" lon="6.0306">
        <ele>347</ele>
        <time>2021-09-05T08:15:51Z</time>
      </trkpt>
      <trkpt lat="47.28486" lon="6.03058">
        <ele>347.2</ele>
        <time>2021-09-05T08:15:52Z</time>
      </trkpt>
      <trkpt lat="47.28489" lon="6.03055">
        <ele>347.2</ele>
        <time>2021-09-05T08:15:53Z</time>
      </trkpt>
      <trkpt lat="47.28493" lon="6.03052">
        <ele>347.4</ele>
        <time>2021-09-05T08:15:54Z</time>
      </trkpt>
      <trkpt lat="47.28496" lon="6.0305">
        <ele>347.8</ele>
        <time>2021-09-05T08:15:55Z</time>
      </trkpt>
      <trkpt lat="47.28499" lon="6.03048">
        <ele>347.8</ele>
        <time>2021-09-05T08:15:56Z</time>
      </trkpt>
      <trkpt lat="47.28502" lon="6.03046">
        <ele>348.2</ele>
        <time>2021-09-05T08:15:57Z</time>
      </trkpt>
      <trkpt lat="47.28506" lon="6.03044">
        <ele>348.2</ele>
        <time>2021-09-05T08:15:58Z</time>
      </trkpt>
      <trkpt lat="47.28509" lon="6.03043">
        <ele>348.4</ele>
        <time>2021-09-05T08:15:59Z</time>
      </trkpt>
      <trkpt lat="47.28512" lon="6.03041">
        <ele>348.4</ele>
        <time>2021-09-05T08:16:00Z</time>
      </trkpt>
      <trkpt lat="47.28515" lon="6.03039">
        <ele>348.6</ele>
        <time>2021-09-05T08:16:01Z</time>
      </trkpt>
      <trkpt lat="47.28519" lon="6.03036">
        <ele>348.6</ele>
        <time>2021-09-05T08:16:02Z</time>
      </trkpt>
      <trkpt lat="47.28523" lon="6.03034">
        <ele>348.8</ele>
        <time>2021-09-05T08:16:03Z</time>
      </trkpt>
      <trkpt lat="47.28527" lon="6.03032">
        <ele>348.8</ele>
        <time>2021-09-05T08:16:04Z</time>
      </trkpt>
      <trkpt lat="47.2853" lon="6.03031">
        <ele>348.8</ele>
        <time>2021-09-05T08:16:05Z</time>
      </trkpt>
      <trkpt lat="47.28534" lon="6.03029">
        <ele>348.8</ele>
        <time>2021-09-05T08:16:06Z</time>
      </trkpt>
      <trkpt lat="47.28537" lon="6.03027">
        <ele>348.8</ele>
        <time>2021-09-05T08:16:07Z</time>
      </trkpt>
      <trkpt lat="47.28541" lon="6.03025">
        <ele>348.8</ele>
        <time>2021-09-05T08:16:08Z</time>
      </trkpt>
      <trkpt lat="47.28544" lon="6.03025">
        <ele>348.8</ele>
        <time>2021-09-05T08:16:09Z</time>
      </trkpt>
      <trkpt lat="47.28547" lon="6.03025">
        <ele>348.8</ele>
        <time>2021-09-05T08:16:10Z</time>
      </trkpt>
      <trkpt lat="47.2855" lon="6.03025">
        <ele>348.8</ele>
        <time>2021-09-05T08:16:11Z</time>
      </trkpt>
      <trkpt lat="47.28552" lon="6.03025">
        <ele>348.8</ele>
        <time>2021-09-05T08:16:12Z</time>
      </trkpt>
      <trkpt lat="47.28556" lon="6.03025">
        <ele>348.8</ele>
        <time>2021-09-05T08:16:13Z</time>
      </trkpt>
      <trkpt lat="47.28559" lon="6.03026">
        <ele>348.8</ele>
        <time>2021-09-05T08:16:14Z</time>
      </trkpt>
      <trkpt lat="47.28562" lon="6.03026">
        <ele>348.8</ele>
        <time>2021-09-05T08:16:15Z</time>
      </trkpt>
      <trkpt lat="47.28565" lon="6.03026">
        <ele>348.8</ele>
        <time>2021-09-05T08:16:16Z</time>
      </trkpt>
      <trkpt lat="47.28577" lon="6.03028">
        <ele>348.6</ele>
        <time>2021-09-05T08:16:19Z</time>
      </trkpt>
      <trkpt lat="47.28593" lon="6.03029">
        <ele>348.6</ele>
        <time>2021-09-05T08:16:23Z</time>
      </trkpt>
      <trkpt lat="47.28597" lon="6.03029">
        <ele>348.6</ele>
        <time>2021-09-05T08:16:24Z</time>
      </trkpt>
      <trkpt lat="47.28601" lon="6.03029">
        <ele>348.6</ele>
        <time>2021-09-05T08:16:25Z</time>
      </trkpt>
      <trkpt lat="47.28635" lon="6.03031">
        <ele>349.2</ele>
        <time>2021-09-05T08:16:33Z</time>
      </trkpt>
      <trkpt lat="47.28645" lon="6.0303">
        <ele>349.4</ele>
        <time>2021-09-05T08:16:35Z</time>
      </trkpt>
      <trkpt lat="47.28675" lon="6.03025">
        <ele>349.6</ele>
        <time>2021-09-05T08:16:41Z</time>
      </trkpt>
      <trkpt lat="47.2868" lon="6.03023">
        <ele>349.6</ele>
        <time>2021-09-05T08:16:42Z</time>
      </trkpt>
      <trkpt lat="47.28713" lon="6.03015">
        <ele>349.4</ele>
        <time>2021-09-05T08:16:48Z</time>
      </trkpt>
      <trkpt lat="47.2872" lon="6.03013">
        <ele>349.2</ele>
        <time>2021-09-05T08:16:49Z</time>
      </trkpt>
      <trkpt lat="47.28725" lon="6.03013">
        <ele>349.2</ele>
        <time>2021-09-05T08:16:50Z</time>
      </trkpt>
      <trkpt lat="47.28741" lon="6.0301">
        <ele>349</ele>
        <time>2021-09-05T08:16:53Z</time>
      </trkpt>
      <trkpt lat="47.28746" lon="6.0301">
        <ele>348.8</ele>
        <time>2021-09-05T08:16:54Z</time>
      </trkpt>
      <trkpt lat="47.28756" lon="6.03009">
        <ele>348.6</ele>
        <time>2021-09-05T08:16:56Z</time>
      </trkpt>
      <trkpt lat="47.28767" lon="6.03008">
        <ele>348.6</ele>
        <time>2021-09-05T08:16:58Z</time>
      </trkpt>
      <trkpt lat="47.28771" lon="6.03007">
        <ele>348.6</ele>
        <time>2021-09-05T08:16:59Z</time>
      </trkpt>
      <trkpt lat="47.28775" lon="6.03007">
        <ele>348.6</ele>
        <time>2021-09-05T08:17:00Z</time>
      </trkpt>
      <trkpt lat="47.28779" lon="6.03006">
        <ele>348.6</ele>
        <time>2021-09-05T08:17:01Z</time>
      </trkpt>
      <trkpt lat="47.28784" lon="6.03005">
        <ele>348.8</ele>
        <time>2021-09-05T08:17:02Z</time>
      </trkpt>
      <trkpt lat="47.28788" lon="6.03004">
        <ele>348.8</ele>
        <time>2021-09-05T08:17:03Z</time>
      </trkpt>
      <trkpt lat="47.28794" lon="6.03002">
        <ele>348.8</ele>
        <time>2021-09-05T08:17:04Z</time>
      </trkpt>
      <trkpt lat="47.28797" lon="6.03001">
        <ele>349</ele>
        <time>2021-09-05T08:17:05Z</time>
      </trkpt>
      <trkpt lat="47.288" lon="6.03001">
        <ele>349.2</ele>
        <time>2021-09-05T08:17:06Z</time>
      </trkpt>
      <trkpt lat="47.28804" lon="6.03001">
        <ele>349.2</ele>
        <time>2021-09-05T08:17:07Z</time>
      </trkpt>
      <trkpt lat="47.28808" lon="6.03">
        <ele>349.4</ele>
        <time>2021-09-05T08:17:08Z</time>
      </trkpt>
      <trkpt lat="47.28812" lon="6.03">
        <ele>349.6</ele>
        <time>2021-09-05T08:17:09Z</time>
      </trkpt>
      <trkpt lat="47.28816" lon="6.03">
        <ele>350</ele>
        <time>2021-09-05T08:17:10Z</time>
      </trkpt>
      <trkpt lat="47.28819" lon="6.03">
        <ele>350.2</ele>
        <time>2021-09-05T08:17:11Z</time>
      </trkpt>
      <trkpt lat="47.28823" lon="6.02999">
        <ele>350.4</ele>
        <time>2021-09-05T08:17:12Z</time>
      </trkpt>
      <trkpt lat="47.2883" lon="6.02999">
        <ele>350.8</ele>
        <time>2021-09-05T08:17:14Z</time>
      </trkpt>
      <trkpt lat="47.28834" lon="6.02999">
        <ele>351</ele>
        <time>2021-09-05T08:17:15Z</time>
      </trkpt>
      <trkpt lat="47.28838" lon="6.02998">
        <ele>351.4</ele>
        <time>2021-09-05T08:17:16Z</time>
      </trkpt>
      <trkpt lat="47.28841" lon="6.02997">
        <ele>351.8</ele>
        <time>2021-09-05T08:17:17Z</time>
      </trkpt>
      <trkpt lat="47.28845" lon="6.02996">
        <ele>352</ele>
        <time>2021-09-05T08:17:18Z</time>
      </trkpt>
      <trkpt lat="47.28848" lon="6.02996">
        <ele>352</ele>
        <time>2021-09-05T08:17:19Z</time>
      </trkpt>
      <trkpt lat="47.28851" lon="6.02995">
        <ele>352.2</ele>
        <time>2021-09-05T08:17:20Z</time>
      </trkpt>
      <trkpt lat="47.28856" lon="6.02995">
        <ele>352.2</ele>
        <time>2021-09-05T08:17:21Z</time>
      </trkpt>
      <trkpt lat="47.28861" lon="6.02995">
        <ele>352.2</ele>
        <time>2021-09-05T08:17:22Z</time>
      </trkpt>
      <trkpt lat="47.28866" lon="6.02996">
        <ele>352.2</ele>
        <time>2021-09-05T08:17:23Z</time>
      </trkpt>
      <trkpt lat="47.28872" lon="6.02996">
        <ele>352.2</ele>
        <time>2021-09-05T08:17:24Z</time>
      </trkpt>
      <trkpt lat="47.28878" lon="6.02997">
        <ele>352.2</ele>
        <time>2021-09-05T08:17:25Z</time>
      </trkpt>
      <trkpt lat="47.28883" lon="6.02996">
        <ele>352.2</ele>
        <time>2021-09-05T08:17:26Z</time>
      </trkpt>
      <trkpt lat="47.28888" lon="6.02996">
        <ele>352.2</ele>
        <time>2021-09-05T08:17:27Z</time>
      </trkpt>
      <trkpt lat="47.28893" lon="6.02994">
        <ele>352.2</ele>
        <time>2021-09-05T08:17:28Z</time>
      </trkpt>
      <trkpt lat="47.28898" lon="6.02992">
        <ele>352</ele>
        <time>2021-09-05T08:17:29Z</time>
      </trkpt>
      <trkpt lat="47.28903" lon="6.0299">
        <ele>352</ele>
        <time>2021-09-05T08:17:30Z</time>
      </trkpt>
      <trkpt lat="47.28908" lon="6.02988">
        <ele>352</ele>
        <time>2021-09-05T08:17:31Z</time>
      </trkpt>
      <trkpt lat="47.28912" lon="6.02986">
        <ele>352</ele>
        <time>2021-09-05T08:17:32Z</time>
      </trkpt>
      <trkpt lat="47.28916" lon="6.02982">
        <ele>352</ele>
        <time>2021-09-05T08:17:33Z</time>
      </trkpt>
      <trkpt lat="47.28921" lon="6.0298">
        <ele>352.2</ele>
        <time>2021-09-05T08:17:34Z</time>
      </trkpt>
      <trkpt lat="47.28925" lon="6.02977">
        <ele>352.2</ele>
        <time>2021-09-05T08:17:35Z</time>
      </trkpt>
      <trkpt lat="47.28929" lon="6.02975">
        <ele>352.2</ele>
        <time>2021-09-05T08:17:36Z</time>
      </trkpt>
      <trkpt lat="47.28934" lon="6.02973">
        <ele>352.2</ele>
        <time>2021-09-05T08:17:37Z</time>
      </trkpt>
      <trkpt lat="47.28937" lon="6.02972">
        <ele>352.2</ele>
        <time>2021-09-05T08:17:38Z</time>
      </trkpt>
      <trkpt lat="47.28941" lon="6.0297">
        <ele>352.4</ele>
        <time>2021-09-05T08:17:39Z</time>
      </trkpt>
      <trkpt lat="47.28945" lon="6.02968">
        <ele>352.6</ele>
        <time>2021-09-05T08:17:40Z</time>
      </trkpt>
      <trkpt lat="47.28955" lon="6.02967">
        <ele>352.8</ele>
        <time>2021-09-05T08:17:42Z</time>
      </trkpt>
      <trkpt lat="47.28976" lon="6.02965">
        <ele>353.6</ele>
        <time>2021-09-05T08:17:46Z</time>
      </trkpt>
      <trkpt lat="47.28984" lon="6.02965">
        <ele>354</ele>
        <time>2021-09-05T08:17:48Z</time>
      </trkpt>
      <trkpt lat="47.28987" lon="6.02964">
        <ele>354.2</ele>
        <time>2021-09-05T08:17:49Z</time>
      </trkpt>
      <trkpt lat="47.29002" lon="6.02961">
        <ele>355</ele>
        <time>2021-09-05T08:17:53Z</time>
      </trkpt>
      <trkpt lat="47.29006" lon="6.0296">
        <ele>355</ele>
        <time>2021-09-05T08:17:54Z</time>
      </trkpt>
      <trkpt lat="47.29009" lon="6.02959">
        <ele>355.4</ele>
        <time>2021-09-05T08:17:55Z</time>
      </trkpt>
      <trkpt lat="47.29012" lon="6.02958">
        <ele>355.4</ele>
        <time>2021-09-05T08:17:56Z</time>
      </trkpt>
      <trkpt lat="47.29015" lon="6.02957">
        <ele>355.6</ele>
        <time>2021-09-05T08:17:57Z</time>
      </trkpt>
      <trkpt lat="47.29018" lon="6.02956">
        <ele>356</ele>
        <time>2021-09-05T08:17:58Z</time>
      </trkpt>
      <trkpt lat="47.29021" lon="6.02954">
        <ele>356.2</ele>
        <time>2021-09-05T08:17:59Z</time>
      </trkpt>
      <trkpt lat="47.29023" lon="6.02953">
        <ele>356.8</ele>
        <time>2021-09-05T08:18:00Z</time>
      </trkpt>
      <trkpt lat="47.29026" lon="6.02953">
        <ele>356.6</ele>
        <time>2021-09-05T08:18:01Z</time>
      </trkpt>
      <trkpt lat="47.29028" lon="6.02952">
        <ele>357</ele>
        <time>2021-09-05T08:18:02Z</time>
      </trkpt>
      <trkpt lat="47.29031" lon="6.02952">
        <ele>357.2</ele>
        <time>2021-09-05T08:18:03Z</time>
      </trkpt>
      <trkpt lat="47.29034" lon="6.02952">
        <ele>357.6</ele>
        <time>2021-09-05T08:18:04Z</time>
      </trkpt>
      <trkpt lat="47.29037" lon="6.02952">
        <ele>357.8</ele>
        <time>2021-09-05T08:18:05Z</time>
      </trkpt>
      <trkpt lat="47.29041" lon="6.02952">
        <ele>357.8</ele>
        <time>2021-09-05T08:18:06Z</time>
      </trkpt>
      <trkpt lat="47.29044" lon="6.02951">
        <ele>358</ele>
        <time>2021-09-05T08:18:07Z</time>
      </trkpt>
      <trkpt lat="47.29047" lon="6.02951">
        <ele>358.2</ele>
        <time>2021-09-05T08:18:08Z</time>
      </trkpt>
      <trkpt lat="47.2905" lon="6.02952">
        <ele>358.4</ele>
        <time>2021-09-05T08:18:09Z</time>
      </trkpt>
      <trkpt lat="47.29053" lon="6.02952">
        <ele>358.6</ele>
        <time>2021-09-05T08:18:10Z</time>
      </trkpt>
      <trkpt lat="47.29056" lon="6.02952">
        <ele>359</ele>
        <time>2021-09-05T08:18:11Z</time>
      </trkpt>
      <trkpt lat="47.29059" lon="6.02951">
        <ele>359.2</ele>
        <time>2021-09-05T08:18:12Z</time>
      </trkpt>
      <trkpt lat="47.29062" lon="6.02952">
        <ele>359.4</ele>
        <time>2021-09-05T08:18:13Z</time>
      </trkpt>
      <trkpt lat="47.29065" lon="6.02953">
        <ele>359.6</ele>
        <time>2021-09-05T08:18:14Z</time>
      </trkpt>
      <trkpt lat="47.29068" lon="6.02954">
        <ele>359.8</ele>
        <time>2021-09-05T08:18:15Z</time>
      </trkpt>
      <trkpt lat="47.2907" lon="6.02955">
        <ele>360</ele>
        <time>2021-09-05T08:18:16Z</time>
      </trkpt>
      <trkpt lat="47.29074" lon="6.02956">
        <ele>360.2</ele>
        <time>2021-09-05T08:18:17Z</time>
      </trkpt>
      <trkpt lat="47.29077" lon="6.02956">
        <ele>360.4</ele>
        <time>2021-09-05T08:18:18Z</time>
      </trkpt>
      <trkpt lat="47.29079" lon="6.02957">
        <ele>360.6</ele>
        <time>2021-09-05T08:18:19Z</time>
      </trkpt>
      <trkpt lat="47.29081" lon="6.02957">
        <ele>360.8</ele>
        <time>2021-09-05T08:18:20Z</time>
      </trkpt>
      <trkpt lat="47.29085" lon="6.02958">
        <ele>360.8</ele>
        <time>2021-09-05T08:18:21Z</time>
      </trkpt>
      <trkpt lat="47.2909" lon="6.02959">
        <ele>361</ele>
        <time>2021-09-05T08:18:22Z</time>
      </trkpt>
      <trkpt lat="47.29094" lon="6.02959">
        <ele>361.2</ele>
        <time>2021-09-05T08:18:23Z</time>
      </trkpt>
      <trkpt lat="47.29097" lon="6.0296">
        <ele>361.4</ele>
        <time>2021-09-05T08:18:24Z</time>
      </trkpt>
      <trkpt lat="47.291" lon="6.02961">
        <ele>361.6</ele>
        <time>2021-09-05T08:18:25Z</time>
      </trkpt>
      <trkpt lat="47.29102" lon="6.02962">
        <ele>361.8</ele>
        <time>2021-09-05T08:18:26Z</time>
      </trkpt>
      <trkpt lat="47.29105" lon="6.02965">
        <ele>362</ele>
        <time>2021-09-05T08:18:27Z</time>
      </trkpt>
      <trkpt lat="47.29108" lon="6.02966">
        <ele>362</ele>
        <time>2021-09-05T08:18:28Z</time>
      </trkpt>
      <trkpt lat="47.2911" lon="6.02967">
        <ele>362.4</ele>
        <time>2021-09-05T08:18:29Z</time>
      </trkpt>
      <trkpt lat="47.29113" lon="6.02967">
        <ele>362.4</ele>
        <time>2021-09-05T08:18:30Z</time>
      </trkpt>
      <trkpt lat="47.29115" lon="6.02969">
        <ele>362.6</ele>
        <time>2021-09-05T08:18:31Z</time>
      </trkpt>
      <trkpt lat="47.29118" lon="6.0297">
        <ele>362.6</ele>
        <time>2021-09-05T08:18:32Z</time>
      </trkpt>
      <trkpt lat="47.29121" lon="6.02971">
        <ele>363.2</ele>
        <time>2021-09-05T08:18:33Z</time>
      </trkpt>
      <trkpt lat="47.29123" lon="6.02972">
        <ele>363.6</ele>
        <time>2021-09-05T08:18:34Z</time>
      </trkpt>
      <trkpt lat="47.29128" lon="6.02972">
        <ele>363.8</ele>
        <time>2021-09-05T08:18:35Z</time>
      </trkpt>
      <trkpt lat="47.29131" lon="6.02972">
        <ele>364</ele>
        <time>2021-09-05T08:18:36Z</time>
      </trkpt>
      <trkpt lat="47.29134" lon="6.02973">
        <ele>364.2</ele>
        <time>2021-09-05T08:18:37Z</time>
      </trkpt>
      <trkpt lat="47.29137" lon="6.02973">
        <ele>364.2</ele>
        <time>2021-09-05T08:18:38Z</time>
      </trkpt>
      <trkpt lat="47.29141" lon="6.02973">
        <ele>364.4</ele>
        <time>2021-09-05T08:18:39Z</time>
      </trkpt>
      <trkpt lat="47.29143" lon="6.02973">
        <ele>364.4</ele>
        <time>2021-09-05T08:18:40Z</time>
      </trkpt>
      <trkpt lat="47.29146" lon="6.02973">
        <ele>364.6</ele>
        <time>2021-09-05T08:18:41Z</time>
      </trkpt>
      <trkpt lat="47.29149" lon="6.02972">
        <ele>365</ele>
        <time>2021-09-05T08:18:42Z</time>
      </trkpt>
      <trkpt lat="47.29152" lon="6.02971">
        <ele>365</ele>
        <time>2021-09-05T08:18:43Z</time>
      </trkpt>
      <trkpt lat="47.29154" lon="6.0297">
        <ele>365.2</ele>
        <time>2021-09-05T08:18:44Z</time>
      </trkpt>
      <trkpt lat="47.29157" lon="6.02969">
        <ele>365.2</ele>
        <time>2021-09-05T08:18:45Z</time>
      </trkpt>
      <trkpt lat="47.29159" lon="6.02968">
        <ele>365.4</ele>
        <time>2021-09-05T08:18:46Z</time>
      </trkpt>
      <trkpt lat="47.29161" lon="6.02968">
        <ele>365.4</ele>
        <time>2021-09-05T08:18:47Z</time>
      </trkpt>
      <trkpt lat="47.29164" lon="6.02967">
        <ele>365.4</ele>
        <time>2021-09-05T08:18:48Z</time>
      </trkpt>
      <trkpt lat="47.29166" lon="6.02966">
        <ele>365.6</ele>
        <time>2021-09-05T08:18:49Z</time>
      </trkpt>
      <trkpt lat="47.29168" lon="6.02964">
        <ele>365.8</ele>
        <time>2021-09-05T08:18:50Z</time>
      </trkpt>
      <trkpt lat="47.2917" lon="6.02963">
        <ele>366</ele>
        <time>2021-09-05T08:18:51Z</time>
      </trkpt>
      <trkpt lat="47.29172" lon="6.0296">
        <ele>366.2</ele>
        <time>2021-09-05T08:18:52Z</time>
      </trkpt>
      <trkpt lat="47.29175" lon="6.02958">
        <ele>366.2</ele>
        <time>2021-09-05T08:18:53Z</time>
      </trkpt>
      <trkpt lat="47.29178" lon="6.02956">
        <ele>366.4</ele>
        <time>2021-09-05T08:18:54Z</time>
      </trkpt>
      <trkpt lat="47.2918" lon="6.02955">
        <ele>366.6</ele>
        <time>2021-09-05T08:18:55Z</time>
      </trkpt>
      <trkpt lat="47.29183" lon="6.02953">
        <ele>366.6</ele>
        <time>2021-09-05T08:18:56Z</time>
      </trkpt>
      <trkpt lat="47.29186" lon="6.02951">
        <ele>366.6</ele>
        <time>2021-09-05T08:18:57Z</time>
      </trkpt>
      <trkpt lat="47.29189" lon="6.02949">
        <ele>366.8</ele>
        <time>2021-09-05T08:18:58Z</time>
      </trkpt>
      <trkpt lat="47.29191" lon="6.02947">
        <ele>367</ele>
        <time>2021-09-05T08:18:59Z</time>
      </trkpt>
      <trkpt lat="47.29195" lon="6.02946">
        <ele>367</ele>
        <time>2021-09-05T08:19:00Z</time>
      </trkpt>
      <trkpt lat="47.29198" lon="6.02945">
        <ele>367</ele>
        <time>2021-09-05T08:19:01Z</time>
      </trkpt>
      <trkpt lat="47.29201" lon="6.02941">
        <ele>367.2</ele>
        <time>2021-09-05T08:19:02Z</time>
      </trkpt>
      <trkpt lat="47.29205" lon="6.02939">
        <ele>367.2</ele>
        <time>2021-09-05T08:19:03Z</time>
      </trkpt>
      <trkpt lat="47.29208" lon="6.02936">
        <ele>367.4</ele>
        <time>2021-09-05T08:19:04Z</time>
      </trkpt>
      <trkpt lat="47.29211" lon="6.02934">
        <ele>367.4</ele>
        <time>2021-09-05T08:19:05Z</time>
      </trkpt>
      <trkpt lat="47.29215" lon="6.02932">
        <ele>367.6</ele>
        <time>2021-09-05T08:19:06Z</time>
      </trkpt>
      <trkpt lat="47.29218" lon="6.0293">
        <ele>367.8</ele>
        <time>2021-09-05T08:19:07Z</time>
      </trkpt>
      <trkpt lat="47.2922" lon="6.02927">
        <ele>367.8</ele>
        <time>2021-09-05T08:19:08Z</time>
      </trkpt>
      <trkpt lat="47.29224" lon="6.02924">
        <ele>367.8</ele>
        <time>2021-09-05T08:19:09Z</time>
      </trkpt>
      <trkpt lat="47.29227" lon="6.02922">
        <ele>368</ele>
        <time>2021-09-05T08:19:10Z</time>
      </trkpt>
      <trkpt lat="47.2923" lon="6.02921">
        <ele>368</ele>
        <time>2021-09-05T08:19:11Z</time>
      </trkpt>
      <trkpt lat="47.29235" lon="6.02919">
        <ele>368.2</ele>
        <time>2021-09-05T08:19:12Z</time>
      </trkpt>
      <trkpt lat="47.29239" lon="6.02918">
        <ele>368.2</ele>
        <time>2021-09-05T08:19:13Z</time>
      </trkpt>
      <trkpt lat="47.29243" lon="6.02915">
        <ele>368.4</ele>
        <time>2021-09-05T08:19:14Z</time>
      </trkpt>
      <trkpt lat="47.29246" lon="6.02912">
        <ele>368.4</ele>
        <time>2021-09-05T08:19:15Z</time>
      </trkpt>
      <trkpt lat="47.29249" lon="6.02911">
        <ele>368.6</ele>
        <time>2021-09-05T08:19:16Z</time>
      </trkpt>
      <trkpt lat="47.29254" lon="6.02909">
        <ele>368.8</ele>
        <time>2021-09-05T08:19:17Z</time>
      </trkpt>
      <trkpt lat="47.29257" lon="6.02908">
        <ele>368.6</ele>
        <time>2021-09-05T08:19:18Z</time>
      </trkpt>
      <trkpt lat="47.29261" lon="6.02906">
        <ele>368.6</ele>
        <time>2021-09-05T08:19:19Z</time>
      </trkpt>
      <trkpt lat="47.29265" lon="6.02904">
        <ele>368.6</ele>
        <time>2021-09-05T08:19:20Z</time>
      </trkpt>
      <trkpt lat="47.29269" lon="6.02902">
        <ele>368.8</ele>
        <time>2021-09-05T08:19:21Z</time>
      </trkpt>
      <trkpt lat="47.29273" lon="6.02899">
        <ele>368.8</ele>
        <time>2021-09-05T08:19:22Z</time>
      </trkpt>
      <trkpt lat="47.29278" lon="6.02896">
        <ele>368.8</ele>
        <time>2021-09-05T08:19:23Z</time>
      </trkpt>
      <trkpt lat="47.29282" lon="6.02896">
        <ele>368.8</ele>
        <time>2021-09-05T08:19:24Z</time>
      </trkpt>
      <trkpt lat="47.29286" lon="6.02896">
        <ele>368.8</ele>
        <time>2021-09-05T08:19:25Z</time>
      </trkpt>
      <trkpt lat="47.29292" lon="6.02895">
        <ele>368.8</ele>
        <time>2021-09-05T08:19:27Z</time>
      </trkpt>
      <trkpt lat="47.29294" lon="6.02895">
        <ele>368.8</ele>
        <time>2021-09-05T08:19:28Z</time>
      </trkpt>
      <trkpt lat="47.29296" lon="6.02896">
        <ele>369</ele>
        <time>2021-09-05T08:19:29Z</time>
      </trkpt>
      <trkpt lat="47.29298" lon="6.02896">
        <ele>369</ele>
        <time>2021-09-05T08:19:30Z</time>
      </trkpt>
      <trkpt lat="47.29301" lon="6.02896">
        <ele>369</ele>
        <time>2021-09-05T08:19:31Z</time>
      </trkpt>
      <trkpt lat="47.29307" lon="6.02897">
        <ele>369.2</ele>
        <time>2021-09-05T08:19:33Z</time>
      </trkpt>
      <trkpt lat="47.29335" lon="6.02901">
        <ele>370</ele>
        <time>2021-09-05T08:19:42Z</time>
      </trkpt>
      <trkpt lat="47.29337" lon="6.02901">
        <ele>370</ele>
        <time>2021-09-05T08:19:43Z</time>
      </trkpt>
      <trkpt lat="47.2934" lon="6.02901">
        <ele>370.4</ele>
        <time>2021-09-05T08:19:44Z</time>
      </trkpt>
      <trkpt lat="47.29342" lon="6.02902">
        <ele>370.4</ele>
        <time>2021-09-05T08:19:45Z</time>
      </trkpt>
      <trkpt lat="47.29345" lon="6.02902">
        <ele>370.8</ele>
        <time>2021-09-05T08:19:46Z</time>
      </trkpt>
      <trkpt lat="47.29349" lon="6.02902">
        <ele>370.8</ele>
        <time>2021-09-05T08:19:47Z</time>
      </trkpt>
      <trkpt lat="47.29352" lon="6.02903">
        <ele>371.2</ele>
        <time>2021-09-05T08:19:48Z</time>
      </trkpt>
      <trkpt lat="47.29365" lon="6.02904">
        <ele>372</ele>
        <time>2021-09-05T08:19:52Z</time>
      </trkpt>
      <trkpt lat="47.2937" lon="6.02905">
        <ele>372.4</ele>
        <time>2021-09-05T08:19:53Z</time>
      </trkpt>
      <trkpt lat="47.29375" lon="6.02906">
        <ele>372.6</ele>
        <time>2021-09-05T08:19:54Z</time>
      </trkpt>
      <trkpt lat="47.29378" lon="6.02908">
        <ele>372.8</ele>
        <time>2021-09-05T08:19:55Z</time>
      </trkpt>
      <trkpt lat="47.29382" lon="6.02909">
        <ele>372.8</ele>
        <time>2021-09-05T08:19:56Z</time>
      </trkpt>
      <trkpt lat="47.29386" lon="6.02911">
        <ele>373.2</ele>
        <time>2021-09-05T08:19:57Z</time>
      </trkpt>
      <trkpt lat="47.2939" lon="6.02913">
        <ele>373.2</ele>
        <time>2021-09-05T08:19:58Z</time>
      </trkpt>
      <trkpt lat="47.29392" lon="6.02915">
        <ele>373.6</ele>
        <time>2021-09-05T08:19:59Z</time>
      </trkpt>
      <trkpt lat="47.29396" lon="6.02917">
        <ele>373.8</ele>
        <time>2021-09-05T08:20:00Z</time>
      </trkpt>
      <trkpt lat="47.29401" lon="6.02918">
        <ele>374</ele>
        <time>2021-09-05T08:20:01Z</time>
      </trkpt>
      <trkpt lat="47.29405" lon="6.0292">
        <ele>374.2</ele>
        <time>2021-09-05T08:20:02Z</time>
      </trkpt>
      <trkpt lat="47.29408" lon="6.02922">
        <ele>374.2</ele>
        <time>2021-09-05T08:20:03Z</time>
      </trkpt>
      <trkpt lat="47.29412" lon="6.02924">
        <ele>374.6</ele>
        <time>2021-09-05T08:20:04Z</time>
      </trkpt>
      <trkpt lat="47.29416" lon="6.02926">
        <ele>374.6</ele>
        <time>2021-09-05T08:20:05Z</time>
      </trkpt>
      <trkpt lat="47.29419" lon="6.02927">
        <ele>374.8</ele>
        <time>2021-09-05T08:20:06Z</time>
      </trkpt>
      <trkpt lat="47.29423" lon="6.02927">
        <ele>374.8</ele>
        <time>2021-09-05T08:20:07Z</time>
      </trkpt>
      <trkpt lat="47.29425" lon="6.02926">
        <ele>375.2</ele>
        <time>2021-09-05T08:20:08Z</time>
      </trkpt>
      <trkpt lat="47.29429" lon="6.02927">
        <ele>375.4</ele>
        <time>2021-09-05T08:20:09Z</time>
      </trkpt>
      <trkpt lat="47.29433" lon="6.02928">
        <ele>375.4</ele>
        <time>2021-09-05T08:20:10Z</time>
      </trkpt>
      <trkpt lat="47.29436" lon="6.02929">
        <ele>375.4</ele>
        <time>2021-09-05T08:20:11Z</time>
      </trkpt>
      <trkpt lat="47.29439" lon="6.02929">
        <ele>375.6</ele>
        <time>2021-09-05T08:20:12Z</time>
      </trkpt>
      <trkpt lat="47.29443" lon="6.0293">
        <ele>376</ele>
        <time>2021-09-05T08:20:13Z</time>
      </trkpt>
      <trkpt lat="47.29447" lon="6.02931">
        <ele>376.2</ele>
        <time>2021-09-05T08:20:14Z</time>
      </trkpt>
      <trkpt lat="47.29451" lon="6.02932">
        <ele>376.4</ele>
        <time>2021-09-05T08:20:15Z</time>
      </trkpt>
      <trkpt lat="47.29454" lon="6.02933">
        <ele>376.6</ele>
        <time>2021-09-05T08:20:16Z</time>
      </trkpt>
      <trkpt lat="47.29457" lon="6.02933">
        <ele>376.6</ele>
        <time>2021-09-05T08:20:17Z</time>
      </trkpt>
      <trkpt lat="47.2946" lon="6.02933">
        <ele>376.6</ele>
        <time>2021-09-05T08:20:18Z</time>
      </trkpt>
      <trkpt lat="47.29463" lon="6.02933">
        <ele>376.8</ele>
        <time>2021-09-05T08:20:19Z</time>
      </trkpt>
      <trkpt lat="47.29467" lon="6.02934">
        <ele>377</ele>
        <time>2021-09-05T08:20:20Z</time>
      </trkpt>
      <trkpt lat="47.29471" lon="6.02935">
        <ele>377</ele>
        <time>2021-09-05T08:20:21Z</time>
      </trkpt>
      <trkpt lat="47.29475" lon="6.02937">
        <ele>377.2</ele>
        <time>2021-09-05T08:20:22Z</time>
      </trkpt>
      <trkpt lat="47.29479" lon="6.02939">
        <ele>377.2</ele>
        <time>2021-09-05T08:20:23Z</time>
      </trkpt>
      <trkpt lat="47.29483" lon="6.02941">
        <ele>377.2</ele>
        <time>2021-09-05T08:20:24Z</time>
      </trkpt>
      <trkpt lat="47.29487" lon="6.02943">
        <ele>377.2</ele>
        <time>2021-09-05T08:20:25Z</time>
      </trkpt>
      <trkpt lat="47.29491" lon="6.02946">
        <ele>377.2</ele>
        <time>2021-09-05T08:20:26Z</time>
      </trkpt>
      <trkpt lat="47.29494" lon="6.02949">
        <ele>377.2</ele>
        <time>2021-09-05T08:20:27Z</time>
      </trkpt>
      <trkpt lat="47.29497" lon="6.02951">
        <ele>377.2</ele>
        <time>2021-09-05T08:20:28Z</time>
      </trkpt>
      <trkpt lat="47.295" lon="6.02953">
        <ele>377.4</ele>
        <time>2021-09-05T08:20:29Z</time>
      </trkpt>
      <trkpt lat="47.29506" lon="6.02956">
        <ele>377.4</ele>
        <time>2021-09-05T08:20:30Z</time>
      </trkpt>
      <trkpt lat="47.2951" lon="6.02959">
        <ele>377.6</ele>
        <time>2021-09-05T08:20:31Z</time>
      </trkpt>
      <trkpt lat="47.29513" lon="6.02961">
        <ele>377.6</ele>
        <time>2021-09-05T08:20:32Z</time>
      </trkpt>
      <trkpt lat="47.29517" lon="6.02965">
        <ele>377.6</ele>
        <time>2021-09-05T08:20:33Z</time>
      </trkpt>
      <trkpt lat="47.29521" lon="6.02969">
        <ele>377.6</ele>
        <time>2021-09-05T08:20:34Z</time>
      </trkpt>
      <trkpt lat="47.29524" lon="6.02972">
        <ele>377.6</ele>
        <time>2021-09-05T08:20:35Z</time>
      </trkpt>
      <trkpt lat="47.29526" lon="6.02976">
        <ele>377.6</ele>
        <time>2021-09-05T08:20:36Z</time>
      </trkpt>
      <trkpt lat="47.29529" lon="6.02979">
        <ele>377.6</ele>
        <time>2021-09-05T08:20:37Z</time>
      </trkpt>
      <trkpt lat="47.29533" lon="6.02984">
        <ele>377.6</ele>
        <time>2021-09-05T08:20:38Z</time>
      </trkpt>
      <trkpt lat="47.29538" lon="6.02989">
        <ele>377.6</ele>
        <time>2021-09-05T08:20:39Z</time>
      </trkpt>
      <trkpt lat="47.29541" lon="6.02993">
        <ele>377.8</ele>
        <time>2021-09-05T08:20:40Z</time>
      </trkpt>
      <trkpt lat="47.29564" lon="6.03014">
        <ele>377.6</ele>
        <time>2021-09-05T08:20:46Z</time>
      </trkpt>
      <trkpt lat="47.29584" lon="6.03034">
        <ele>377.4</ele>
        <time>2021-09-05T08:20:51Z</time>
      </trkpt>
      <trkpt lat="47.29586" lon="6.03037">
        <ele>377.2</ele>
        <time>2021-09-05T08:20:52Z</time>
      </trkpt>
      <trkpt lat="47.29589" lon="6.0304">
        <ele>377.2</ele>
        <time>2021-09-05T08:20:53Z</time>
      </trkpt>
      <trkpt lat="47.29592" lon="6.03044">
        <ele>377</ele>
        <time>2021-09-05T08:20:54Z</time>
      </trkpt>
      <trkpt lat="47.29595" lon="6.03047">
        <ele>376.8</ele>
        <time>2021-09-05T08:20:55Z</time>
      </trkpt>
      <trkpt lat="47.29601" lon="6.03053">
        <ele>376.4</ele>
        <time>2021-09-05T08:20:57Z</time>
      </trkpt>
      <trkpt lat="47.29608" lon="6.03061">
        <ele>375.6</ele>
        <time>2021-09-05T08:21:00Z</time>
      </trkpt>
      <trkpt lat="47.29611" lon="6.03062">
        <ele>375.4</ele>
        <time>2021-09-05T08:21:01Z</time>
      </trkpt>
      <trkpt lat="47.29614" lon="6.03064">
        <ele>375.2</ele>
        <time>2021-09-05T08:21:02Z</time>
      </trkpt>
      <trkpt lat="47.29627" lon="6.03072">
        <ele>374.2</ele>
        <time>2021-09-05T08:21:06Z</time>
      </trkpt>
      <trkpt lat="47.29631" lon="6.03074">
        <ele>374</ele>
        <time>2021-09-05T08:21:07Z</time>
      </trkpt>
      <trkpt lat="47.29635" lon="6.03077">
        <ele>373.8</ele>
        <time>2021-09-05T08:21:08Z</time>
      </trkpt>
      <trkpt lat="47.29644" lon="6.03083">
        <ele>373.6</ele>
        <time>2021-09-05T08:21:10Z</time>
      </trkpt>
      <trkpt lat="47.2965" lon="6.03086">
        <ele>373.4</ele>
        <time>2021-09-05T08:21:11Z</time>
      </trkpt>
      <trkpt lat="47.29658" lon="6.03091">
        <ele>373</ele>
        <time>2021-09-05T08:21:13Z</time>
      </trkpt>
      <trkpt lat="47.29663" lon="6.03095">
        <ele>372.8</ele>
        <time>2021-09-05T08:21:14Z</time>
      </trkpt>
      <trkpt lat="47.29669" lon="6.03102">
        <ele>372.4</ele>
        <time>2021-09-05T08:21:16Z</time>
      </trkpt>
      <trkpt lat="47.29673" lon="6.03107">
        <ele>372.2</ele>
        <time>2021-09-05T08:21:17Z</time>
      </trkpt>
      <trkpt lat="47.29676" lon="6.0311">
        <ele>372.2</ele>
        <time>2021-09-05T08:21:18Z</time>
      </trkpt>
      <trkpt lat="47.29679" lon="6.03113">
        <ele>372.2</ele>
        <time>2021-09-05T08:21:19Z</time>
      </trkpt>
      <trkpt lat="47.29681" lon="6.03115">
        <ele>372.2</ele>
        <time>2021-09-05T08:21:20Z</time>
      </trkpt>
      <trkpt lat="47.29683" lon="6.03117">
        <ele>372.2</ele>
        <time>2021-09-05T08:21:21Z</time>
      </trkpt>
      <trkpt lat="47.29701" lon="6.03129">
        <ele>372.2</ele>
        <time>2021-09-05T08:21:26Z</time>
      </trkpt>
      <trkpt lat="47.29704" lon="6.03131">
        <ele>372.2</ele>
        <time>2021-09-05T08:21:27Z</time>
      </trkpt>
      <trkpt lat="47.29727" lon="6.03143">
        <ele>372</ele>
        <time>2021-09-05T08:21:33Z</time>
      </trkpt>
      <trkpt lat="47.29733" lon="6.03146">
        <ele>372</ele>
        <time>2021-09-05T08:21:35Z</time>
      </trkpt>
      <trkpt lat="47.29737" lon="6.03149">
        <ele>372</ele>
        <time>2021-09-05T08:21:36Z</time>
      </trkpt>
      <trkpt lat="47.2974" lon="6.0315">
        <ele>372</ele>
        <time>2021-09-05T08:21:37Z</time>
      </trkpt>
      <trkpt lat="47.29751" lon="6.03155">
        <ele>372.2</ele>
        <time>2021-09-05T08:21:40Z</time>
      </trkpt>
      <trkpt lat="47.29754" lon="6.03156">
        <ele>372.2</ele>
        <time>2021-09-05T08:21:41Z</time>
      </trkpt>
      <trkpt lat="47.29759" lon="6.03157">
        <ele>372.4</ele>
        <time>2021-09-05T08:21:42Z</time>
      </trkpt>
      <trkpt lat="47.29763" lon="6.03158">
        <ele>372.4</ele>
        <time>2021-09-05T08:21:43Z</time>
      </trkpt>
      <trkpt lat="47.29766" lon="6.03159">
        <ele>372.4</ele>
        <time>2021-09-05T08:21:44Z</time>
      </trkpt>
      <trkpt lat="47.29773" lon="6.03159">
        <ele>372.6</ele>
        <time>2021-09-05T08:21:46Z</time>
      </trkpt>
      <trkpt lat="47.29776" lon="6.03158">
        <ele>372.6</ele>
        <time>2021-09-05T08:21:47Z</time>
      </trkpt>
      <trkpt lat="47.29794" lon="6.03156">
        <ele>373.6</ele>
        <time>2021-09-05T08:21:52Z</time>
      </trkpt>
      <trkpt lat="47.29797" lon="6.03156">
        <ele>373.8</ele>
        <time>2021-09-05T08:21:53Z</time>
      </trkpt>
      <trkpt lat="47.29804" lon="6.03155">
        <ele>374.2</ele>
        <time>2021-09-05T08:21:55Z</time>
      </trkpt>
      <trkpt lat="47.29808" lon="6.03155">
        <ele>374.4</ele>
        <time>2021-09-05T08:21:56Z</time>
      </trkpt>
      <trkpt lat="47.29812" lon="6.03154">
        <ele>374.6</ele>
        <time>2021-09-05T08:21:57Z</time>
      </trkpt>
      <trkpt lat="47.29816" lon="6.03152">
        <ele>375</ele>
        <time>2021-09-05T08:21:59Z</time>
      </trkpt>
      <trkpt lat="47.29819" lon="6.03151">
        <ele>375.4</ele>
        <time>2021-09-05T08:22:00Z</time>
      </trkpt>
      <trkpt lat="47.29822" lon="6.0315">
        <ele>375.4</ele>
        <time>2021-09-05T08:22:01Z</time>
      </trkpt>
      <trkpt lat="47.29825" lon="6.03149">
        <ele>375.8</ele>
        <time>2021-09-05T08:22:02Z</time>
      </trkpt>
      <trkpt lat="47.29828" lon="6.03147">
        <ele>375.8</ele>
        <time>2021-09-05T08:22:03Z</time>
      </trkpt>
      <trkpt lat="47.29832" lon="6.03145">
        <ele>376</ele>
        <time>2021-09-05T08:22:04Z</time>
      </trkpt>
      <trkpt lat="47.29834" lon="6.03144">
        <ele>376.2</ele>
        <time>2021-09-05T08:22:05Z</time>
      </trkpt>
      <trkpt lat="47.29838" lon="6.03143">
        <ele>376.6</ele>
        <time>2021-09-05T08:22:06Z</time>
      </trkpt>
      <trkpt lat="47.29841" lon="6.03141">
        <ele>376.8</ele>
        <time>2021-09-05T08:22:07Z</time>
      </trkpt>
      <trkpt lat="47.29844" lon="6.03139">
        <ele>377</ele>
        <time>2021-09-05T08:22:08Z</time>
      </trkpt>
      <trkpt lat="47.29847" lon="6.03138">
        <ele>377.2</ele>
        <time>2021-09-05T08:22:09Z</time>
      </trkpt>
      <trkpt lat="47.2985" lon="6.03138">
        <ele>377.4</ele>
        <time>2021-09-05T08:22:10Z</time>
      </trkpt>
      <trkpt lat="47.29853" lon="6.03135">
        <ele>377.6</ele>
        <time>2021-09-05T08:22:11Z</time>
      </trkpt>
      <trkpt lat="47.29855" lon="6.03134">
        <ele>377.8</ele>
        <time>2021-09-05T08:22:12Z</time>
      </trkpt>
      <trkpt lat="47.29857" lon="6.03133">
        <ele>378.2</ele>
        <time>2021-09-05T08:22:13Z</time>
      </trkpt>
      <trkpt lat="47.2986" lon="6.03131">
        <ele>378.4</ele>
        <time>2021-09-05T08:22:14Z</time>
      </trkpt>
      <trkpt lat="47.29863" lon="6.0313">
        <ele>378.8</ele>
        <time>2021-09-05T08:22:15Z</time>
      </trkpt>
      <trkpt lat="47.29866" lon="6.03128">
        <ele>379</ele>
        <time>2021-09-05T08:22:16Z</time>
      </trkpt>
      <trkpt lat="47.29868" lon="6.03126">
        <ele>379.2</ele>
        <time>2021-09-05T08:22:17Z</time>
      </trkpt>
      <trkpt lat="47.2987" lon="6.03125">
        <ele>379.4</ele>
        <time>2021-09-05T08:22:18Z</time>
      </trkpt>
      <trkpt lat="47.29872" lon="6.03123">
        <ele>379.6</ele>
        <time>2021-09-05T08:22:19Z</time>
      </trkpt>
      <trkpt lat="47.29874" lon="6.03122">
        <ele>380</ele>
        <time>2021-09-05T08:22:20Z</time>
      </trkpt>
      <trkpt lat="47.29876" lon="6.03121">
        <ele>380</ele>
        <time>2021-09-05T08:22:21Z</time>
      </trkpt>
      <trkpt lat="47.29878" lon="6.0312">
        <ele>380.4</ele>
        <time>2021-09-05T08:22:22Z</time>
      </trkpt>
      <trkpt lat="47.2988" lon="6.03119">
        <ele>380.4</ele>
        <time>2021-09-05T08:22:23Z</time>
      </trkpt>
      <trkpt lat="47.29882" lon="6.03117">
        <ele>380.8</ele>
        <time>2021-09-05T08:22:24Z</time>
      </trkpt>
      <trkpt lat="47.29885" lon="6.03117">
        <ele>381.2</ele>
        <time>2021-09-05T08:22:25Z</time>
      </trkpt>
      <trkpt lat="47.29887" lon="6.03115">
        <ele>381.2</ele>
        <time>2021-09-05T08:22:26Z</time>
      </trkpt>
      <trkpt lat="47.2989" lon="6.03113">
        <ele>381.4</ele>
        <time>2021-09-05T08:22:27Z</time>
      </trkpt>
      <trkpt lat="47.29892" lon="6.03111">
        <ele>381.4</ele>
        <time>2021-09-05T08:22:28Z</time>
      </trkpt>
      <trkpt lat="47.29895" lon="6.03109">
        <ele>381.4</ele>
        <time>2021-09-05T08:22:29Z</time>
      </trkpt>
      <trkpt lat="47.29897" lon="6.03107">
        <ele>381.6</ele>
        <time>2021-09-05T08:22:30Z</time>
      </trkpt>
      <trkpt lat="47.299" lon="6.03105">
        <ele>381.8</ele>
        <time>2021-09-05T08:22:31Z</time>
      </trkpt>
      <trkpt lat="47.29902" lon="6.03104">
        <ele>382.2</ele>
        <time>2021-09-05T08:22:32Z</time>
      </trkpt>
      <trkpt lat="47.29904" lon="6.03102">
        <ele>382.2</ele>
        <time>2021-09-05T08:22:33Z</time>
      </trkpt>
      <trkpt lat="47.29906" lon="6.031">
        <ele>382.4</ele>
        <time>2021-09-05T08:22:34Z</time>
      </trkpt>
      <trkpt lat="47.29907" lon="6.03098">
        <ele>382.6</ele>
        <time>2021-09-05T08:22:35Z</time>
      </trkpt>
      <trkpt lat="47.2991" lon="6.03098">
        <ele>383</ele>
        <time>2021-09-05T08:22:36Z</time>
      </trkpt>
      <trkpt lat="47.29912" lon="6.03099">
        <ele>383.2</ele>
        <time>2021-09-05T08:22:37Z</time>
      </trkpt>
      <trkpt lat="47.29914" lon="6.03098">
        <ele>383.4</ele>
        <time>2021-09-05T08:22:38Z</time>
      </trkpt>
      <trkpt lat="47.29915" lon="6.03097">
        <ele>383.6</ele>
        <time>2021-09-05T08:22:39Z</time>
      </trkpt>
      <trkpt lat="47.29916" lon="6.03095">
        <ele>383.6</ele>
        <time>2021-09-05T08:22:40Z</time>
      </trkpt>
      <trkpt lat="47.29917" lon="6.03095">
        <ele>384</ele>
        <time>2021-09-05T08:22:41Z</time>
      </trkpt>
      <trkpt lat="47.29917" lon="6.03095">
        <ele>384</ele>
        <time>2021-09-05T08:22:42Z</time>
      </trkpt>
      <trkpt lat="47.29917" lon="6.03095">
        <ele>384.2</ele>
        <time>2021-09-05T08:22:44Z</time>
      </trkpt>
      <trkpt lat="47.29917" lon="6.03094">
        <ele>384.4</ele>
        <time>2021-09-05T08:22:45Z</time>
      </trkpt>
      <trkpt lat="47.29918" lon="6.03094">
        <ele>384.6</ele>
        <time>2021-09-05T08:22:46Z</time>
      </trkpt>
      <trkpt lat="47.29918" lon="6.03095">
        <ele>384.6</ele>
        <time>2021-09-05T08:22:47Z</time>
      </trkpt>
      <trkpt lat="47.29918" lon="6.03095">
        <ele>384.6</ele>
        <time>2021-09-05T08:22:48Z</time>
      </trkpt>
      <trkpt lat="47.29918" lon="6.03095">
        <ele>384.8</ele>
        <time>2021-09-05T08:22:49Z</time>
      </trkpt>
      <trkpt lat="47.29919" lon="6.03095">
        <ele>384.8</ele>
        <time>2021-09-05T08:22:50Z</time>
      </trkpt>
      <trkpt lat="47.29919" lon="6.03095">
        <ele>384.8</ele>
        <time>2021-09-05T08:22:51Z</time>
      </trkpt>
      <trkpt lat="47.29919" lon="6.03095">
        <ele>385</ele>
        <time>2021-09-05T08:22:52Z</time>
      </trkpt>
      <trkpt lat="47.29919" lon="6.03095">
        <ele>385</ele>
        <time>2021-09-05T08:23:03Z</time>
      </trkpt>
      <trkpt lat="47.29919" lon="6.03095">
        <ele>385.2</ele>
        <time>2021-09-05T08:24:31Z</time>
      </trkpt>
      <trkpt lat="47.29924" lon="6.03091">
        <ele>385</ele>
        <time>2021-09-05T08:25:04Z</time>
      </trkpt>
      <trkpt lat="47.29925" lon="6.03089">
        <ele>385.2</ele>
        <time>2021-09-05T08:25:05Z</time>
      </trkpt>
      <trkpt lat="47.29926" lon="6.03088">
        <ele>385.2</ele>
        <time>2021-09-05T08:25:06Z</time>
      </trkpt>
      <trkpt lat="47.29932" lon="6.03083">
        <ele>385.4</ele>
        <time>2021-09-05T08:25:10Z</time>
      </trkpt>
      <trkpt lat="47.29933" lon="6.03083">
        <ele>385.4</ele>
        <time>2021-09-05T08:25:11Z</time>
      </trkpt>
      <trkpt lat="47.29935" lon="6.03083">
        <ele>385.4</ele>
        <time>2021-09-05T08:25:12Z</time>
      </trkpt>
      <trkpt lat="47.29937" lon="6.03083">
        <ele>385.4</ele>
        <time>2021-09-05T08:25:13Z</time>
      </trkpt>
      <trkpt lat="47.29947" lon="6.03079">
        <ele>385.6</ele>
        <time>2021-09-05T08:25:18Z</time>
      </trkpt>
      <trkpt lat="47.29949" lon="6.03076">
        <ele>386</ele>
        <time>2021-09-05T08:25:20Z</time>
      </trkpt>
      <trkpt lat="47.2995" lon="6.03075">
        <ele>386</ele>
        <time>2021-09-05T08:25:21Z</time>
      </trkpt>
      <trkpt lat="47.29952" lon="6.03073">
        <ele>386.2</ele>
        <time>2021-09-05T08:25:23Z</time>
      </trkpt>
      <trkpt lat="47.29952" lon="6.03072">
        <ele>386.2</ele>
        <time>2021-09-05T08:25:24Z</time>
      </trkpt>
      <trkpt lat="47.29952" lon="6.03072">
        <ele>386.4</ele>
        <time>2021-09-05T08:25:28Z</time>
      </trkpt>
      <trkpt lat="47.29953" lon="6.03072">
        <ele>386.6</ele>
        <time>2021-09-05T08:25:34Z</time>
      </trkpt>
      <trkpt lat="47.29959" lon="6.03071">
        <ele>386.6</ele>
        <time>2021-09-05T08:25:38Z</time>
      </trkpt>
      <trkpt lat="47.29961" lon="6.0307">
        <ele>386.6</ele>
        <time>2021-09-05T08:25:39Z</time>
      </trkpt>
      <trkpt lat="47.29967" lon="6.03067">
        <ele>386.6</ele>
        <time>2021-09-05T08:25:42Z</time>
      </trkpt>
      <trkpt lat="47.29974" lon="6.03064">
        <ele>386.8</ele>
        <time>2021-09-05T08:25:45Z</time>
      </trkpt>
      <trkpt lat="47.29978" lon="6.03062">
        <ele>387</ele>
        <time>2021-09-05T08:25:47Z</time>
      </trkpt>
      <trkpt lat="47.29991" lon="6.03056">
        <ele>387.8</ele>
        <time>2021-09-05T08:25:52Z</time>
      </trkpt>
      <trkpt lat="47.29995" lon="6.03056">
        <ele>388</ele>
        <time>2021-09-05T08:25:54Z</time>
      </trkpt>
      <trkpt lat="47.30005" lon="6.03059">
        <ele>388.6</ele>
        <time>2021-09-05T08:25:58Z</time>
      </trkpt>
      <trkpt lat="47.30006" lon="6.0306">
        <ele>388.6</ele>
        <time>2021-09-05T08:25:59Z</time>
      </trkpt>
      <trkpt lat="47.30008" lon="6.03062">
        <ele>388.8</ele>
        <time>2021-09-05T08:26:00Z</time>
      </trkpt>
      <trkpt lat="47.3001" lon="6.03064">
        <ele>389</ele>
        <time>2021-09-05T08:26:01Z</time>
      </trkpt>
      <trkpt lat="47.30011" lon="6.03066">
        <ele>389.2</ele>
        <time>2021-09-05T08:26:02Z</time>
      </trkpt>
      <trkpt lat="47.30012" lon="6.03068">
        <ele>389.4</ele>
        <time>2021-09-05T08:26:03Z</time>
      </trkpt>
      <trkpt lat="47.30013" lon="6.0307">
        <ele>389.6</ele>
        <time>2021-09-05T08:26:04Z</time>
      </trkpt>
      <trkpt lat="47.30014" lon="6.03072">
        <ele>390</ele>
        <time>2021-09-05T08:26:05Z</time>
      </trkpt>
      <trkpt lat="47.30016" lon="6.03074">
        <ele>390</ele>
        <time>2021-09-05T08:26:06Z</time>
      </trkpt>
      <trkpt lat="47.30017" lon="6.03077">
        <ele>390.4</ele>
        <time>2021-09-05T08:26:07Z</time>
      </trkpt>
      <trkpt lat="47.30018" lon="6.03079">
        <ele>390.6</ele>
        <time>2021-09-05T08:26:08Z</time>
      </trkpt>
      <trkpt lat="47.30019" lon="6.03081">
        <ele>390.8</ele>
        <time>2021-09-05T08:26:09Z</time>
      </trkpt>
      <trkpt lat="47.3002" lon="6.03083">
        <ele>391</ele>
        <time>2021-09-05T08:26:10Z</time>
      </trkpt>
      <trkpt lat="47.30022" lon="6.03086">
        <ele>391.2</ele>
        <time>2021-09-05T08:26:11Z</time>
      </trkpt>
      <trkpt lat="47.30023" lon="6.03088">
        <ele>391.4</ele>
        <time>2021-09-05T08:26:12Z</time>
      </trkpt>
      <trkpt lat="47.30024" lon="6.0309">
        <ele>391.6</ele>
        <time>2021-09-05T08:26:13Z</time>
      </trkpt>
      <trkpt lat="47.30025" lon="6.03092">
        <ele>391.8</ele>
        <time>2021-09-05T08:26:14Z</time>
      </trkpt>
      <trkpt lat="47.30025" lon="6.03095">
        <ele>392</ele>
        <time>2021-09-05T08:26:15Z</time>
      </trkpt>
      <trkpt lat="47.30026" lon="6.03098">
        <ele>392.2</ele>
        <time>2021-09-05T08:26:16Z</time>
      </trkpt>
      <trkpt lat="47.30028" lon="6.031">
        <ele>392.8</ele>
        <time>2021-09-05T08:26:17Z</time>
      </trkpt>
      <trkpt lat="47.30029" lon="6.03103">
        <ele>393</ele>
        <time>2021-09-05T08:26:18Z</time>
      </trkpt>
      <trkpt lat="47.3003" lon="6.03105">
        <ele>393.4</ele>
        <time>2021-09-05T08:26:19Z</time>
      </trkpt>
      <trkpt lat="47.30031" lon="6.03107">
        <ele>393.4</ele>
        <time>2021-09-05T08:26:20Z</time>
      </trkpt>
      <trkpt lat="47.30033" lon="6.03109">
        <ele>393.6</ele>
        <time>2021-09-05T08:26:21Z</time>
      </trkpt>
      <trkpt lat="47.30034" lon="6.03112">
        <ele>393.8</ele>
        <time>2021-09-05T08:26:22Z</time>
      </trkpt>
      <trkpt lat="47.30035" lon="6.03114">
        <ele>394.2</ele>
        <time>2021-09-05T08:26:23Z</time>
      </trkpt>
      <trkpt lat="47.30037" lon="6.03116">
        <ele>394.4</ele>
        <time>2021-09-05T08:26:24Z</time>
      </trkpt>
      <trkpt lat="47.30038" lon="6.03118">
        <ele>394.6</ele>
        <time>2021-09-05T08:26:25Z</time>
      </trkpt>
      <trkpt lat="47.3004" lon="6.0312">
        <ele>395</ele>
        <time>2021-09-05T08:26:26Z</time>
      </trkpt>
      <trkpt lat="47.30041" lon="6.03122">
        <ele>395.2</ele>
        <time>2021-09-05T08:26:27Z</time>
      </trkpt>
      <trkpt lat="47.30043" lon="6.03124">
        <ele>395.6</ele>
        <time>2021-09-05T08:26:28Z</time>
      </trkpt>
      <trkpt lat="47.30044" lon="6.03126">
        <ele>395.6</ele>
        <time>2021-09-05T08:26:29Z</time>
      </trkpt>
      <trkpt lat="47.30045" lon="6.03128">
        <ele>396</ele>
        <time>2021-09-05T08:26:30Z</time>
      </trkpt>
      <trkpt lat="47.30047" lon="6.0313">
        <ele>396.2</ele>
        <time>2021-09-05T08:26:31Z</time>
      </trkpt>
      <trkpt lat="47.30048" lon="6.03132">
        <ele>396.6</ele>
        <time>2021-09-05T08:26:32Z</time>
      </trkpt>
      <trkpt lat="47.3005" lon="6.03134">
        <ele>397</ele>
        <time>2021-09-05T08:26:33Z</time>
      </trkpt>
      <trkpt lat="47.30051" lon="6.03136">
        <ele>397</ele>
        <time>2021-09-05T08:26:34Z</time>
      </trkpt>
      <trkpt lat="47.30053" lon="6.03137">
        <ele>397.4</ele>
        <time>2021-09-05T08:26:35Z</time>
      </trkpt>
      <trkpt lat="47.30055" lon="6.03139">
        <ele>397.4</ele>
        <time>2021-09-05T08:26:36Z</time>
      </trkpt>
      <trkpt lat="47.30056" lon="6.03141">
        <ele>397.6</ele>
        <time>2021-09-05T08:26:37Z</time>
      </trkpt>
      <trkpt lat="47.30058" lon="6.03142">
        <ele>397.8</ele>
        <time>2021-09-05T08:26:38Z</time>
      </trkpt>
      <trkpt lat="47.30059" lon="6.03143">
        <ele>398.2</ele>
        <time>2021-09-05T08:26:39Z</time>
      </trkpt>
      <trkpt lat="47.3006" lon="6.03144">
        <ele>398.4</ele>
        <time>2021-09-05T08:26:40Z</time>
      </trkpt>
      <trkpt lat="47.30061" lon="6.03145">
        <ele>398.4</ele>
        <time>2021-09-05T08:26:41Z</time>
      </trkpt>
      <trkpt lat="47.30062" lon="6.03146">
        <ele>398.6</ele>
        <time>2021-09-05T08:26:42Z</time>
      </trkpt>
      <trkpt lat="47.30064" lon="6.03147">
        <ele>398.6</ele>
        <time>2021-09-05T08:26:43Z</time>
      </trkpt>
      <trkpt lat="47.30065" lon="6.03147">
        <ele>398.8</ele>
        <time>2021-09-05T08:26:44Z</time>
      </trkpt>
      <trkpt lat="47.30067" lon="6.03148">
        <ele>398.8</ele>
        <time>2021-09-05T08:26:45Z</time>
      </trkpt>
      <trkpt lat="47.3007" lon="6.03149">
        <ele>399</ele>
        <time>2021-09-05T08:26:46Z</time>
      </trkpt>
      <trkpt lat="47.30072" lon="6.0315">
        <ele>399.2</ele>
        <time>2021-09-05T08:26:47Z</time>
      </trkpt>
      <trkpt lat="47.30075" lon="6.03151">
        <ele>399.2</ele>
        <time>2021-09-05T08:26:48Z</time>
      </trkpt>
      <trkpt lat="47.30077" lon="6.03151">
        <ele>399.4</ele>
        <time>2021-09-05T08:26:49Z</time>
      </trkpt>
      <trkpt lat="47.3008" lon="6.03151">
        <ele>399.4</ele>
        <time>2021-09-05T08:26:50Z</time>
      </trkpt>
      <trkpt lat="47.30082" lon="6.03152">
        <ele>399.8</ele>
        <time>2021-09-05T08:26:51Z</time>
      </trkpt>
      <trkpt lat="47.30084" lon="6.03152">
        <ele>399.8</ele>
        <time>2021-09-05T08:26:52Z</time>
      </trkpt>
      <trkpt lat="47.30087" lon="6.03152">
        <ele>400</ele>
        <time>2021-09-05T08:26:53Z</time>
      </trkpt>
      <trkpt lat="47.30089" lon="6.03152">
        <ele>400.2</ele>
        <time>2021-09-05T08:26:54Z</time>
      </trkpt>
      <trkpt lat="47.30091" lon="6.03152">
        <ele>400.2</ele>
        <time>2021-09-05T08:26:55Z</time>
      </trkpt>
      <trkpt lat="47.30093" lon="6.03153">
        <ele>400.6</ele>
        <time>2021-09-05T08:26:56Z</time>
      </trkpt>
      <trkpt lat="47.30096" lon="6.03153">
        <ele>400.6</ele>
        <time>2021-09-05T08:26:57Z</time>
      </trkpt>
      <trkpt lat="47.30098" lon="6.03153">
        <ele>400.8</ele>
        <time>2021-09-05T08:26:58Z</time>
      </trkpt>
      <trkpt lat="47.301" lon="6.03153">
        <ele>400.8</ele>
        <time>2021-09-05T08:26:59Z</time>
      </trkpt>
      <trkpt lat="47.30103" lon="6.03154">
        <ele>401</ele>
        <time>2021-09-05T08:27:00Z</time>
      </trkpt>
      <trkpt lat="47.30105" lon="6.03154">
        <ele>401</ele>
        <time>2021-09-05T08:27:01Z</time>
      </trkpt>
      <trkpt lat="47.30107" lon="6.03154">
        <ele>401</ele>
        <time>2021-09-05T08:27:02Z</time>
      </trkpt>
      <trkpt lat="47.30109" lon="6.03154">
        <ele>401.2</ele>
        <time>2021-09-05T08:27:03Z</time>
      </trkpt>
      <trkpt lat="47.30112" lon="6.03154">
        <ele>401.4</ele>
        <time>2021-09-05T08:27:04Z</time>
      </trkpt>
      <trkpt lat="47.30114" lon="6.03153">
        <ele>401.6</ele>
        <time>2021-09-05T08:27:05Z</time>
      </trkpt>
      <trkpt lat="47.30117" lon="6.03152">
        <ele>401.6</ele>
        <time>2021-09-05T08:27:06Z</time>
      </trkpt>
      <trkpt lat="47.30119" lon="6.03152">
        <ele>401.6</ele>
        <time>2021-09-05T08:27:07Z</time>
      </trkpt>
      <trkpt lat="47.30122" lon="6.03151">
        <ele>401.6</ele>
        <time>2021-09-05T08:27:08Z</time>
      </trkpt>
      <trkpt lat="47.30124" lon="6.03151">
        <ele>401.8</ele>
        <time>2021-09-05T08:27:09Z</time>
      </trkpt>
      <trkpt lat="47.30126" lon="6.0315">
        <ele>401.8</ele>
        <time>2021-09-05T08:27:10Z</time>
      </trkpt>
      <trkpt lat="47.30129" lon="6.0315">
        <ele>402</ele>
        <time>2021-09-05T08:27:11Z</time>
      </trkpt>
      <trkpt lat="47.30131" lon="6.03149">
        <ele>402.2</ele>
        <time>2021-09-05T08:27:12Z</time>
      </trkpt>
      <trkpt lat="47.30134" lon="6.03148">
        <ele>402.4</ele>
        <time>2021-09-05T08:27:13Z</time>
      </trkpt>
      <trkpt lat="47.30136" lon="6.03147">
        <ele>402.6</ele>
        <time>2021-09-05T08:27:14Z</time>
      </trkpt>
      <trkpt lat="47.30139" lon="6.03147">
        <ele>402.6</ele>
        <time>2021-09-05T08:27:15Z</time>
      </trkpt>
      <trkpt lat="47.30141" lon="6.03147">
        <ele>402.8</ele>
        <time>2021-09-05T08:27:16Z</time>
      </trkpt>
      <trkpt lat="47.30144" lon="6.03147">
        <ele>402.8</ele>
        <time>2021-09-05T08:27:17Z</time>
      </trkpt>
      <trkpt lat="47.30146" lon="6.03147">
        <ele>403.2</ele>
        <time>2021-09-05T08:27:18Z</time>
      </trkpt>
      <trkpt lat="47.30149" lon="6.03146">
        <ele>403.2</ele>
        <time>2021-09-05T08:27:19Z</time>
      </trkpt>
      <trkpt lat="47.30151" lon="6.03146">
        <ele>403.4</ele>
        <time>2021-09-05T08:27:20Z</time>
      </trkpt>
      <trkpt lat="47.30154" lon="6.03146">
        <ele>403.6</ele>
        <time>2021-09-05T08:27:21Z</time>
      </trkpt>
      <trkpt lat="47.30156" lon="6.03145">
        <ele>403.6</ele>
        <time>2021-09-05T08:27:22Z</time>
      </trkpt>
      <trkpt lat="47.30159" lon="6.03145">
        <ele>403.8</ele>
        <time>2021-09-05T08:27:23Z</time>
      </trkpt>
      <trkpt lat="47.30161" lon="6.03144">
        <ele>403.8</ele>
        <time>2021-09-05T08:27:24Z</time>
      </trkpt>
      <trkpt lat="47.30164" lon="6.03144">
        <ele>404</ele>
        <time>2021-09-05T08:27:25Z</time>
      </trkpt>
      <trkpt lat="47.30167" lon="6.03144">
        <ele>404.2</ele>
        <time>2021-09-05T08:27:26Z</time>
      </trkpt>
      <trkpt lat="47.30169" lon="6.03143">
        <ele>404.2</ele>
        <time>2021-09-05T08:27:27Z</time>
      </trkpt>
      <trkpt lat="47.30172" lon="6.03143">
        <ele>404.4</ele>
        <time>2021-09-05T08:27:28Z</time>
      </trkpt>
      <trkpt lat="47.30174" lon="6.03143">
        <ele>404.4</ele>
        <time>2021-09-05T08:27:29Z</time>
      </trkpt>
      <trkpt lat="47.30177" lon="6.03144">
        <ele>404.6</ele>
        <time>2021-09-05T08:27:30Z</time>
      </trkpt>
      <trkpt lat="47.30179" lon="6.03143">
        <ele>404.6</ele>
        <time>2021-09-05T08:27:31Z</time>
      </trkpt>
      <trkpt lat="47.30181" lon="6.03143">
        <ele>404.8</ele>
        <time>2021-09-05T08:27:32Z</time>
      </trkpt>
      <trkpt lat="47.30183" lon="6.03143">
        <ele>404.8</ele>
        <time>2021-09-05T08:27:33Z</time>
      </trkpt>
      <trkpt lat="47.30186" lon="6.03143">
        <ele>405</ele>
        <time>2021-09-05T08:27:34Z</time>
      </trkpt>
      <trkpt lat="47.30188" lon="6.03143">
        <ele>405.2</ele>
        <time>2021-09-05T08:27:35Z</time>
      </trkpt>
      <trkpt lat="47.30191" lon="6.03144">
        <ele>405.2</ele>
        <time>2021-09-05T08:27:36Z</time>
      </trkpt>
      <trkpt lat="47.30193" lon="6.03144">
        <ele>405.4</ele>
        <time>2021-09-05T08:27:37Z</time>
      </trkpt>
      <trkpt lat="47.30195" lon="6.03145">
        <ele>405.4</ele>
        <time>2021-09-05T08:27:38Z</time>
      </trkpt>
      <trkpt lat="47.30198" lon="6.03145">
        <ele>405.6</ele>
        <time>2021-09-05T08:27:39Z</time>
      </trkpt>
      <trkpt lat="47.302" lon="6.03146">
        <ele>405.6</ele>
        <time>2021-09-05T08:27:40Z</time>
      </trkpt>
      <trkpt lat="47.30202" lon="6.03147">
        <ele>406</ele>
        <time>2021-09-05T08:27:41Z</time>
      </trkpt>
      <trkpt lat="47.30205" lon="6.03148">
        <ele>406</ele>
        <time>2021-09-05T08:27:42Z</time>
      </trkpt>
      <trkpt lat="47.30207" lon="6.03149">
        <ele>406.2</ele>
        <time>2021-09-05T08:27:43Z</time>
      </trkpt>
      <trkpt lat="47.3021" lon="6.03151">
        <ele>406.4</ele>
        <time>2021-09-05T08:27:44Z</time>
      </trkpt>
      <trkpt lat="47.30212" lon="6.03152">
        <ele>406.6</ele>
        <time>2021-09-05T08:27:45Z</time>
      </trkpt>
      <trkpt lat="47.30214" lon="6.03154">
        <ele>406.8</ele>
        <time>2021-09-05T08:27:46Z</time>
      </trkpt>
      <trkpt lat="47.30216" lon="6.03156">
        <ele>407</ele>
        <time>2021-09-05T08:27:47Z</time>
      </trkpt>
      <trkpt lat="47.30218" lon="6.03158">
        <ele>407.2</ele>
        <time>2021-09-05T08:27:48Z</time>
      </trkpt>
      <trkpt lat="47.30221" lon="6.0316">
        <ele>407.2</ele>
        <time>2021-09-05T08:27:49Z</time>
      </trkpt>
      <trkpt lat="47.30223" lon="6.03162">
        <ele>407.4</ele>
        <time>2021-09-05T08:27:50Z</time>
      </trkpt>
      <trkpt lat="47.30225" lon="6.03164">
        <ele>407.4</ele>
        <time>2021-09-05T08:27:51Z</time>
      </trkpt>
      <trkpt lat="47.30227" lon="6.03165">
        <ele>407.6</ele>
        <time>2021-09-05T08:27:52Z</time>
      </trkpt>
      <trkpt lat="47.3023" lon="6.03167">
        <ele>407.6</ele>
        <time>2021-09-05T08:27:53Z</time>
      </trkpt>
      <trkpt lat="47.30232" lon="6.03169">
        <ele>407.6</ele>
        <time>2021-09-05T08:27:54Z</time>
      </trkpt>
      <trkpt lat="47.30234" lon="6.0317">
        <ele>407.6</ele>
        <time>2021-09-05T08:27:55Z</time>
      </trkpt>
      <trkpt lat="47.30235" lon="6.03172">
        <ele>407.8</ele>
        <time>2021-09-05T08:27:56Z</time>
      </trkpt>
      <trkpt lat="47.30238" lon="6.03174">
        <ele>407.6</ele>
        <time>2021-09-05T08:27:57Z</time>
      </trkpt>
      <trkpt lat="47.3024" lon="6.03176">
        <ele>407.6</ele>
        <time>2021-09-05T08:27:58Z</time>
      </trkpt>
      <trkpt lat="47.30242" lon="6.03177">
        <ele>407.8</ele>
        <time>2021-09-05T08:27:59Z</time>
      </trkpt>
      <trkpt lat="47.30244" lon="6.03179">
        <ele>407.8</ele>
        <time>2021-09-05T08:28:00Z</time>
      </trkpt>
      <trkpt lat="47.30245" lon="6.03181">
        <ele>407.8</ele>
        <time>2021-09-05T08:28:01Z</time>
      </trkpt>
      <trkpt lat="47.30247" lon="6.03182">
        <ele>408</ele>
        <time>2021-09-05T08:28:02Z</time>
      </trkpt>
      <trkpt lat="47.30248" lon="6.03183">
        <ele>408.2</ele>
        <time>2021-09-05T08:28:03Z</time>
      </trkpt>
      <trkpt lat="47.30251" lon="6.03185">
        <ele>408.4</ele>
        <time>2021-09-05T08:28:04Z</time>
      </trkpt>
      <trkpt lat="47.30252" lon="6.03186">
        <ele>408.6</ele>
        <time>2021-09-05T08:28:05Z</time>
      </trkpt>
      <trkpt lat="47.30254" lon="6.03187">
        <ele>408.8</ele>
        <time>2021-09-05T08:28:06Z</time>
      </trkpt>
      <trkpt lat="47.30256" lon="6.03188">
        <ele>409.2</ele>
        <time>2021-09-05T08:28:07Z</time>
      </trkpt>
      <trkpt lat="47.30257" lon="6.0319">
        <ele>409.2</ele>
        <time>2021-09-05T08:28:08Z</time>
      </trkpt>
      <trkpt lat="47.3026" lon="6.03192">
        <ele>409.6</ele>
        <time>2021-09-05T08:28:09Z</time>
      </trkpt>
      <trkpt lat="47.30262" lon="6.03193">
        <ele>409.8</ele>
        <time>2021-09-05T08:28:10Z</time>
      </trkpt>
      <trkpt lat="47.30263" lon="6.03194">
        <ele>410.2</ele>
        <time>2021-09-05T08:28:11Z</time>
      </trkpt>
      <trkpt lat="47.30264" lon="6.03195">
        <ele>410.2</ele>
        <time>2021-09-05T08:28:12Z</time>
      </trkpt>
      <trkpt lat="47.30266" lon="6.03197">
        <ele>410.6</ele>
        <time>2021-09-05T08:28:13Z</time>
      </trkpt>
      <trkpt lat="47.30268" lon="6.03199">
        <ele>410.8</ele>
        <time>2021-09-05T08:28:14Z</time>
      </trkpt>
      <trkpt lat="47.3027" lon="6.03201">
        <ele>411.4</ele>
        <time>2021-09-05T08:28:15Z</time>
      </trkpt>
      <trkpt lat="47.30272" lon="6.03203">
        <ele>411.8</ele>
        <time>2021-09-05T08:28:16Z</time>
      </trkpt>
      <trkpt lat="47.30274" lon="6.03204">
        <ele>411.8</ele>
        <time>2021-09-05T08:28:17Z</time>
      </trkpt>
      <trkpt lat="47.30276" lon="6.03207">
        <ele>412</ele>
        <time>2021-09-05T08:28:18Z</time>
      </trkpt>
      <trkpt lat="47.30278" lon="6.03209">
        <ele>412.4</ele>
        <time>2021-09-05T08:28:19Z</time>
      </trkpt>
      <trkpt lat="47.3028" lon="6.0321">
        <ele>412.6</ele>
        <time>2021-09-05T08:28:20Z</time>
      </trkpt>
      <trkpt lat="47.30282" lon="6.03212">
        <ele>412.8</ele>
        <time>2021-09-05T08:28:21Z</time>
      </trkpt>
      <trkpt lat="47.30283" lon="6.03214">
        <ele>413.2</ele>
        <time>2021-09-05T08:28:22Z</time>
      </trkpt>
      <trkpt lat="47.30285" lon="6.03215">
        <ele>413.4</ele>
        <time>2021-09-05T08:28:23Z</time>
      </trkpt>
      <trkpt lat="47.30286" lon="6.03217">
        <ele>413.4</ele>
        <time>2021-09-05T08:28:24Z</time>
      </trkpt>
      <trkpt lat="47.30287" lon="6.03219">
        <ele>413.6</ele>
        <time>2021-09-05T08:28:25Z</time>
      </trkpt>
      <trkpt lat="47.30288" lon="6.0322">
        <ele>413.6</ele>
        <time>2021-09-05T08:28:26Z</time>
      </trkpt>
      <trkpt lat="47.3029" lon="6.03222">
        <ele>413.8</ele>
        <time>2021-09-05T08:28:27Z</time>
      </trkpt>
      <trkpt lat="47.30292" lon="6.03224">
        <ele>413.8</ele>
        <time>2021-09-05T08:28:28Z</time>
      </trkpt>
      <trkpt lat="47.30293" lon="6.03226">
        <ele>414</ele>
        <time>2021-09-05T08:28:29Z</time>
      </trkpt>
      <trkpt lat="47.30294" lon="6.03227">
        <ele>414.2</ele>
        <time>2021-09-05T08:28:30Z</time>
      </trkpt>
      <trkpt lat="47.30296" lon="6.03229">
        <ele>414.4</ele>
        <time>2021-09-05T08:28:31Z</time>
      </trkpt>
      <trkpt lat="47.30297" lon="6.0323">
        <ele>414.6</ele>
        <time>2021-09-05T08:28:32Z</time>
      </trkpt>
      <trkpt lat="47.30298" lon="6.03232">
        <ele>414.6</ele>
        <time>2021-09-05T08:28:33Z</time>
      </trkpt>
      <trkpt lat="47.303" lon="6.03234">
        <ele>414.8</ele>
        <time>2021-09-05T08:28:34Z</time>
      </trkpt>
      <trkpt lat="47.30302" lon="6.03236">
        <ele>415</ele>
        <time>2021-09-05T08:28:35Z</time>
      </trkpt>
      <trkpt lat="47.30304" lon="6.03237">
        <ele>415</ele>
        <time>2021-09-05T08:28:36Z</time>
      </trkpt>
      <trkpt lat="47.30305" lon="6.03239">
        <ele>415.2</ele>
        <time>2021-09-05T08:28:37Z</time>
      </trkpt>
      <trkpt lat="47.30307" lon="6.03241">
        <ele>415.2</ele>
        <time>2021-09-05T08:28:38Z</time>
      </trkpt>
      <trkpt lat="47.30309" lon="6.03244">
        <ele>415.6</ele>
        <time>2021-09-05T08:28:39Z</time>
      </trkpt>
      <trkpt lat="47.3031" lon="6.03245">
        <ele>415.8</ele>
        <time>2021-09-05T08:28:40Z</time>
      </trkpt>
      <trkpt lat="47.30312" lon="6.03247">
        <ele>416.2</ele>
        <time>2021-09-05T08:28:41Z</time>
      </trkpt>
      <trkpt lat="47.30313" lon="6.03249">
        <ele>416.2</ele>
        <time>2021-09-05T08:28:42Z</time>
      </trkpt>
      <trkpt lat="47.30314" lon="6.03251">
        <ele>416.4</ele>
        <time>2021-09-05T08:28:43Z</time>
      </trkpt>
      <trkpt lat="47.30316" lon="6.03253">
        <ele>416.6</ele>
        <time>2021-09-05T08:28:44Z</time>
      </trkpt>
      <trkpt lat="47.30317" lon="6.03255">
        <ele>416.8</ele>
        <time>2021-09-05T08:28:45Z</time>
      </trkpt>
      <trkpt lat="47.30318" lon="6.03256">
        <ele>417</ele>
        <time>2021-09-05T08:28:46Z</time>
      </trkpt>
      <trkpt lat="47.3032" lon="6.03258">
        <ele>417</ele>
        <time>2021-09-05T08:28:47Z</time>
      </trkpt>
      <trkpt lat="47.30322" lon="6.0326">
        <ele>417.2</ele>
        <time>2021-09-05T08:28:48Z</time>
      </trkpt>
      <trkpt lat="47.30323" lon="6.03262">
        <ele>417.4</ele>
        <time>2021-09-05T08:28:49Z</time>
      </trkpt>
      <trkpt lat="47.30325" lon="6.03264">
        <ele>417.4</ele>
        <time>2021-09-05T08:28:50Z</time>
      </trkpt>
      <trkpt lat="47.30326" lon="6.03266">
        <ele>417.6</ele>
        <time>2021-09-05T08:28:51Z</time>
      </trkpt>
      <trkpt lat="47.30328" lon="6.03268">
        <ele>417.6</ele>
        <time>2021-09-05T08:28:52Z</time>
      </trkpt>
      <trkpt lat="47.3033" lon="6.0327">
        <ele>417.8</ele>
        <time>2021-09-05T08:28:53Z</time>
      </trkpt>
      <trkpt lat="47.30332" lon="6.03273">
        <ele>418</ele>
        <time>2021-09-05T08:28:54Z</time>
      </trkpt>
      <trkpt lat="47.30333" lon="6.03275">
        <ele>418.2</ele>
        <time>2021-09-05T08:28:55Z</time>
      </trkpt>
      <trkpt lat="47.30334" lon="6.03276">
        <ele>418.4</ele>
        <time>2021-09-05T08:28:56Z</time>
      </trkpt>
      <trkpt lat="47.30335" lon="6.03278">
        <ele>418.6</ele>
        <time>2021-09-05T08:28:57Z</time>
      </trkpt>
      <trkpt lat="47.30337" lon="6.0328">
        <ele>418.8</ele>
        <time>2021-09-05T08:28:58Z</time>
      </trkpt>
      <trkpt lat="47.30339" lon="6.03283">
        <ele>418.8</ele>
        <time>2021-09-05T08:28:59Z</time>
      </trkpt>
      <trkpt lat="47.30341" lon="6.03285">
        <ele>419</ele>
        <time>2021-09-05T08:29:00Z</time>
      </trkpt>
      <trkpt lat="47.30342" lon="6.03287">
        <ele>419.4</ele>
        <time>2021-09-05T08:29:01Z</time>
      </trkpt>
      <trkpt lat="47.30344" lon="6.03289">
        <ele>419.6</ele>
        <time>2021-09-05T08:29:02Z</time>
      </trkpt>
      <trkpt lat="47.30347" lon="6.03292">
        <ele>419.6</ele>
        <time>2021-09-05T08:29:03Z</time>
      </trkpt>
      <trkpt lat="47.30348" lon="6.03294">
        <ele>420</ele>
        <time>2021-09-05T08:29:04Z</time>
      </trkpt>
      <trkpt lat="47.3035" lon="6.03295">
        <ele>420</ele>
        <time>2021-09-05T08:29:05Z</time>
      </trkpt>
      <trkpt lat="47.30351" lon="6.03297">
        <ele>420.2</ele>
        <time>2021-09-05T08:29:06Z</time>
      </trkpt>
      <trkpt lat="47.30352" lon="6.03299">
        <ele>420.2</ele>
        <time>2021-09-05T08:29:07Z</time>
      </trkpt>
      <trkpt lat="47.30353" lon="6.033">
        <ele>420.4</ele>
        <time>2021-09-05T08:29:08Z</time>
      </trkpt>
      <trkpt lat="47.30355" lon="6.03303">
        <ele>420.8</ele>
        <time>2021-09-05T08:29:09Z</time>
      </trkpt>
      <trkpt lat="47.30356" lon="6.03305">
        <ele>420.8</ele>
        <time>2021-09-05T08:29:10Z</time>
      </trkpt>
      <trkpt lat="47.30358" lon="6.03307">
        <ele>421</ele>
        <time>2021-09-05T08:29:11Z</time>
      </trkpt>
      <trkpt lat="47.30361" lon="6.03309">
        <ele>421.2</ele>
        <time>2021-09-05T08:29:12Z</time>
      </trkpt>
      <trkpt lat="47.30363" lon="6.03312">
        <ele>421.4</ele>
        <time>2021-09-05T08:29:13Z</time>
      </trkpt>
      <trkpt lat="47.30366" lon="6.03314">
        <ele>421.6</ele>
        <time>2021-09-05T08:29:14Z</time>
      </trkpt>
      <trkpt lat="47.30368" lon="6.03316">
        <ele>421.8</ele>
        <time>2021-09-05T08:29:15Z</time>
      </trkpt>
      <trkpt lat="47.30369" lon="6.03318">
        <ele>421.8</ele>
        <time>2021-09-05T08:29:16Z</time>
      </trkpt>
      <trkpt lat="47.30371" lon="6.0332">
        <ele>422</ele>
        <time>2021-09-05T08:29:17Z</time>
      </trkpt>
      <trkpt lat="47.30374" lon="6.03322">
        <ele>422.2</ele>
        <time>2021-09-05T08:29:18Z</time>
      </trkpt>
      <trkpt lat="47.30376" lon="6.03325">
        <ele>422.2</ele>
        <time>2021-09-05T08:29:19Z</time>
      </trkpt>
      <trkpt lat="47.30378" lon="6.03327">
        <ele>422.6</ele>
        <time>2021-09-05T08:29:20Z</time>
      </trkpt>
      <trkpt lat="47.30378" lon="6.03328">
        <ele>422.8</ele>
        <time>2021-09-05T08:29:21Z</time>
      </trkpt>
      <trkpt lat="47.30379" lon="6.0333">
        <ele>423</ele>
        <time>2021-09-05T08:29:22Z</time>
      </trkpt>
      <trkpt lat="47.30382" lon="6.03333">
        <ele>423</ele>
        <time>2021-09-05T08:29:23Z</time>
      </trkpt>
      <trkpt lat="47.30385" lon="6.03336">
        <ele>423.2</ele>
        <time>2021-09-05T08:29:24Z</time>
      </trkpt>
      <trkpt lat="47.30386" lon="6.03338">
        <ele>423.6</ele>
        <time>2021-09-05T08:29:25Z</time>
      </trkpt>
      <trkpt lat="47.30387" lon="6.0334">
        <ele>423.6</ele>
        <time>2021-09-05T08:29:26Z</time>
      </trkpt>
      <trkpt lat="47.30389" lon="6.03342">
        <ele>424</ele>
        <time>2021-09-05T08:29:27Z</time>
      </trkpt>
      <trkpt lat="47.30392" lon="6.03342">
        <ele>424</ele>
        <time>2021-09-05T08:29:28Z</time>
      </trkpt>
      <trkpt lat="47.30392" lon="6.03343">
        <ele>424</ele>
        <time>2021-09-05T08:29:29Z</time>
      </trkpt>
      <trkpt lat="47.30392" lon="6.03345">
        <ele>424.2</ele>
        <time>2021-09-05T08:29:30Z</time>
      </trkpt>
      <trkpt lat="47.30393" lon="6.03347">
        <ele>424.4</ele>
        <time>2021-09-05T08:29:31Z</time>
      </trkpt>
      <trkpt lat="47.30394" lon="6.03349">
        <ele>424.6</ele>
        <time>2021-09-05T08:29:32Z</time>
      </trkpt>
      <trkpt lat="47.30396" lon="6.03351">
        <ele>424.6</ele>
        <time>2021-09-05T08:29:33Z</time>
      </trkpt>
      <trkpt lat="47.30397" lon="6.03353">
        <ele>424.8</ele>
        <time>2021-09-05T08:29:34Z</time>
      </trkpt>
      <trkpt lat="47.30398" lon="6.03354">
        <ele>425</ele>
        <time>2021-09-05T08:29:35Z</time>
      </trkpt>
      <trkpt lat="47.304" lon="6.03356">
        <ele>425</ele>
        <time>2021-09-05T08:29:36Z</time>
      </trkpt>
      <trkpt lat="47.30401" lon="6.03359">
        <ele>425</ele>
        <time>2021-09-05T08:29:37Z</time>
      </trkpt>
      <trkpt lat="47.30402" lon="6.03361">
        <ele>425.4</ele>
        <time>2021-09-05T08:29:38Z</time>
      </trkpt>
      <trkpt lat="47.30404" lon="6.03365">
        <ele>425.4</ele>
        <time>2021-09-05T08:29:39Z</time>
      </trkpt>
      <trkpt lat="47.30405" lon="6.03367">
        <ele>425.6</ele>
        <time>2021-09-05T08:29:40Z</time>
      </trkpt>
      <trkpt lat="47.30405" lon="6.0337">
        <ele>425.8</ele>
        <time>2021-09-05T08:29:41Z</time>
      </trkpt>
      <trkpt lat="47.30406" lon="6.03372">
        <ele>425.8</ele>
        <time>2021-09-05T08:29:42Z</time>
      </trkpt>
      <trkpt lat="47.30406" lon="6.03375">
        <ele>425.8</ele>
        <time>2021-09-05T08:29:43Z</time>
      </trkpt>
      <trkpt lat="47.30407" lon="6.03377">
        <ele>426</ele>
        <time>2021-09-05T08:29:44Z</time>
      </trkpt>
      <trkpt lat="47.30409" lon="6.0338">
        <ele>426</ele>
        <time>2021-09-05T08:29:45Z</time>
      </trkpt>
      <trkpt lat="47.30411" lon="6.03383">
        <ele>426.2</ele>
        <time>2021-09-05T08:29:46Z</time>
      </trkpt>
      <trkpt lat="47.30413" lon="6.03387">
        <ele>426.2</ele>
        <time>2021-09-05T08:29:47Z</time>
      </trkpt>
      <trkpt lat="47.30413" lon="6.0339">
        <ele>426.4</ele>
        <time>2021-09-05T08:29:48Z</time>
      </trkpt>
      <trkpt lat="47.30414" lon="6.03393">
        <ele>426.4</ele>
        <time>2021-09-05T08:29:49Z</time>
      </trkpt>
      <trkpt lat="47.30415" lon="6.03396">
        <ele>426.6</ele>
        <time>2021-09-05T08:29:50Z</time>
      </trkpt>
      <trkpt lat="47.30416" lon="6.03399">
        <ele>426.6</ele>
        <time>2021-09-05T08:29:51Z</time>
      </trkpt>
      <trkpt lat="47.30417" lon="6.03403">
        <ele>426.6</ele>
        <time>2021-09-05T08:29:52Z</time>
      </trkpt>
      <trkpt lat="47.30418" lon="6.03408">
        <ele>426.6</ele>
        <time>2021-09-05T08:29:53Z</time>
      </trkpt>
      <trkpt lat="47.3042" lon="6.03412">
        <ele>426.8</ele>
        <time>2021-09-05T08:29:54Z</time>
      </trkpt>
      <trkpt lat="47.30422" lon="6.03415">
        <ele>426.8</ele>
        <time>2021-09-05T08:29:55Z</time>
      </trkpt>
      <trkpt lat="47.30424" lon="6.03418">
        <ele>427</ele>
        <time>2021-09-05T08:29:56Z</time>
      </trkpt>
      <trkpt lat="47.30427" lon="6.03421">
        <ele>427</ele>
        <time>2021-09-05T08:29:57Z</time>
      </trkpt>
      <trkpt lat="47.30429" lon="6.03423">
        <ele>427</ele>
        <time>2021-09-05T08:29:58Z</time>
      </trkpt>
      <trkpt lat="47.30432" lon="6.03425">
        <ele>427.2</ele>
        <time>2021-09-05T08:29:59Z</time>
      </trkpt>
      <trkpt lat="47.30434" lon="6.03426">
        <ele>427.2</ele>
        <time>2021-09-05T08:30:00Z</time>
      </trkpt>
      <trkpt lat="47.30437" lon="6.03426">
        <ele>427.2</ele>
        <time>2021-09-05T08:30:01Z</time>
      </trkpt>
      <trkpt lat="47.30439" lon="6.03425">
        <ele>427.4</ele>
        <time>2021-09-05T08:30:02Z</time>
      </trkpt>
      <trkpt lat="47.3044" lon="6.03425">
        <ele>427.6</ele>
        <time>2021-09-05T08:30:03Z</time>
      </trkpt>
      <trkpt lat="47.30441" lon="6.03424">
        <ele>427.6</ele>
        <time>2021-09-05T08:30:04Z</time>
      </trkpt>
      <trkpt lat="47.30443" lon="6.03422">
        <ele>427.6</ele>
        <time>2021-09-05T08:30:05Z</time>
      </trkpt>
      <trkpt lat="47.30445" lon="6.0342">
        <ele>427.6</ele>
        <time>2021-09-05T08:30:06Z</time>
      </trkpt>
      <trkpt lat="47.30447" lon="6.03417">
        <ele>427.8</ele>
        <time>2021-09-05T08:30:07Z</time>
      </trkpt>
      <trkpt lat="47.30448" lon="6.03413">
        <ele>428</ele>
        <time>2021-09-05T08:30:08Z</time>
      </trkpt>
      <trkpt lat="47.30449" lon="6.0341">
        <ele>428</ele>
        <time>2021-09-05T08:30:09Z</time>
      </trkpt>
      <trkpt lat="47.30451" lon="6.03407">
        <ele>428.2</ele>
        <time>2021-09-05T08:30:10Z</time>
      </trkpt>
      <trkpt lat="47.30451" lon="6.03405">
        <ele>428.2</ele>
        <time>2021-09-05T08:30:11Z</time>
      </trkpt>
      <trkpt lat="47.3045" lon="6.03403">
        <ele>428.4</ele>
        <time>2021-09-05T08:30:12Z</time>
      </trkpt>
      <trkpt lat="47.3045" lon="6.03401">
        <ele>428.6</ele>
        <time>2021-09-05T08:30:13Z</time>
      </trkpt>
      <trkpt lat="47.3045" lon="6.03399">
        <ele>428.6</ele>
        <time>2021-09-05T08:30:14Z</time>
      </trkpt>
      <trkpt lat="47.3045" lon="6.03396">
        <ele>428.8</ele>
        <time>2021-09-05T08:30:15Z</time>
      </trkpt>
      <trkpt lat="47.30449" lon="6.03394">
        <ele>429</ele>
        <time>2021-09-05T08:30:16Z</time>
      </trkpt>
      <trkpt lat="47.30448" lon="6.03391">
        <ele>429.2</ele>
        <time>2021-09-05T08:30:17Z</time>
      </trkpt>
      <trkpt lat="47.30448" lon="6.03389">
        <ele>429.4</ele>
        <time>2021-09-05T08:30:18Z</time>
      </trkpt>
      <trkpt lat="47.30447" lon="6.03387">
        <ele>429.6</ele>
        <time>2021-09-05T08:30:19Z</time>
      </trkpt>
      <trkpt lat="47.30445" lon="6.03384">
        <ele>430</ele>
        <time>2021-09-05T08:30:20Z</time>
      </trkpt>
      <trkpt lat="47.30444" lon="6.03381">
        <ele>430</ele>
        <time>2021-09-05T08:30:21Z</time>
      </trkpt>
      <trkpt lat="47.30443" lon="6.03379">
        <ele>430.2</ele>
        <time>2021-09-05T08:30:22Z</time>
      </trkpt>
      <trkpt lat="47.30442" lon="6.03376">
        <ele>430.2</ele>
        <time>2021-09-05T08:30:23Z</time>
      </trkpt>
      <trkpt lat="47.30441" lon="6.03373">
        <ele>430.6</ele>
        <time>2021-09-05T08:30:24Z</time>
      </trkpt>
      <trkpt lat="47.30441" lon="6.03371">
        <ele>430.6</ele>
        <time>2021-09-05T08:30:25Z</time>
      </trkpt>
      <trkpt lat="47.3044" lon="6.03368">
        <ele>430.8</ele>
        <time>2021-09-05T08:30:26Z</time>
      </trkpt>
      <trkpt lat="47.30439" lon="6.03366">
        <ele>430.8</ele>
        <time>2021-09-05T08:30:27Z</time>
      </trkpt>
      <trkpt lat="47.30439" lon="6.03363">
        <ele>431</ele>
        <time>2021-09-05T08:30:28Z</time>
      </trkpt>
      <trkpt lat="47.30438" lon="6.03361">
        <ele>431</ele>
        <time>2021-09-05T08:30:29Z</time>
      </trkpt>
      <trkpt lat="47.30436" lon="6.03358">
        <ele>431</ele>
        <time>2021-09-05T08:30:30Z</time>
      </trkpt>
      <trkpt lat="47.30435" lon="6.03356">
        <ele>431.2</ele>
        <time>2021-09-05T08:30:31Z</time>
      </trkpt>
      <trkpt lat="47.30435" lon="6.03353">
        <ele>431.2</ele>
        <time>2021-09-05T08:30:32Z</time>
      </trkpt>
      <trkpt lat="47.30434" lon="6.0335">
        <ele>431.4</ele>
        <time>2021-09-05T08:30:33Z</time>
      </trkpt>
      <trkpt lat="47.30433" lon="6.03348">
        <ele>431.6</ele>
        <time>2021-09-05T08:30:34Z</time>
      </trkpt>
      <trkpt lat="47.30431" lon="6.03345">
        <ele>431.8</ele>
        <time>2021-09-05T08:30:35Z</time>
      </trkpt>
      <trkpt lat="47.3043" lon="6.03343">
        <ele>431.8</ele>
        <time>2021-09-05T08:30:36Z</time>
      </trkpt>
      <trkpt lat="47.30429" lon="6.0334">
        <ele>432</ele>
        <time>2021-09-05T08:30:37Z</time>
      </trkpt>
      <trkpt lat="47.30428" lon="6.03337">
        <ele>432</ele>
        <time>2021-09-05T08:30:38Z</time>
      </trkpt>
      <trkpt lat="47.30427" lon="6.03335">
        <ele>432</ele>
        <time>2021-09-05T08:30:39Z</time>
      </trkpt>
      <trkpt lat="47.30426" lon="6.03331">
        <ele>432.2</ele>
        <time>2021-09-05T08:30:40Z</time>
      </trkpt>
      <trkpt lat="47.30425" lon="6.03328">
        <ele>432.2</ele>
        <time>2021-09-05T08:30:41Z</time>
      </trkpt>
      <trkpt lat="47.30424" lon="6.03325">
        <ele>432.2</ele>
        <time>2021-09-05T08:30:42Z</time>
      </trkpt>
      <trkpt lat="47.30423" lon="6.03322">
        <ele>432.4</ele>
        <time>2021-09-05T08:30:43Z</time>
      </trkpt>
      <trkpt lat="47.30422" lon="6.03319">
        <ele>432.4</ele>
        <time>2021-09-05T08:30:44Z</time>
      </trkpt>
      <trkpt lat="47.30421" lon="6.03316">
        <ele>432.8</ele>
        <time>2021-09-05T08:30:45Z</time>
      </trkpt>
      <trkpt lat="47.3042" lon="6.03312">
        <ele>433</ele>
        <time>2021-09-05T08:30:46Z</time>
      </trkpt>
      <trkpt lat="47.30418" lon="6.03309">
        <ele>433.2</ele>
        <time>2021-09-05T08:30:47Z</time>
      </trkpt>
      <trkpt lat="47.30417" lon="6.03306">
        <ele>433.2</ele>
        <time>2021-09-05T08:30:48Z</time>
      </trkpt>
      <trkpt lat="47.30417" lon="6.03303">
        <ele>433.2</ele>
        <time>2021-09-05T08:30:49Z</time>
      </trkpt>
      <trkpt lat="47.30416" lon="6.033">
        <ele>433.4</ele>
        <time>2021-09-05T08:30:50Z</time>
      </trkpt>
      <trkpt lat="47.30416" lon="6.03297">
        <ele>433.4</ele>
        <time>2021-09-05T08:30:51Z</time>
      </trkpt>
      <trkpt lat="47.30415" lon="6.03295">
        <ele>433.4</ele>
        <time>2021-09-05T08:30:52Z</time>
      </trkpt>
      <trkpt lat="47.30415" lon="6.03292">
        <ele>433.4</ele>
        <time>2021-09-05T08:30:53Z</time>
      </trkpt>
      <trkpt lat="47.30415" lon="6.0329">
        <ele>433.6</ele>
        <time>2021-09-05T08:30:54Z</time>
      </trkpt>
      <trkpt lat="47.30415" lon="6.03287">
        <ele>433.8</ele>
        <time>2021-09-05T08:30:55Z</time>
      </trkpt>
      <trkpt lat="47.30414" lon="6.03284">
        <ele>433.8</ele>
        <time>2021-09-05T08:30:56Z</time>
      </trkpt>
      <trkpt lat="47.30414" lon="6.03282">
        <ele>434.2</ele>
        <time>2021-09-05T08:30:57Z</time>
      </trkpt>
      <trkpt lat="47.30414" lon="6.03279">
        <ele>434.2</ele>
        <time>2021-09-05T08:30:58Z</time>
      </trkpt>
      <trkpt lat="47.30414" lon="6.03277">
        <ele>434.2</ele>
        <time>2021-09-05T08:30:59Z</time>
      </trkpt>
      <trkpt lat="47.30414" lon="6.03274">
        <ele>434.2</ele>
        <time>2021-09-05T08:31:00Z</time>
      </trkpt>
      <trkpt lat="47.30413" lon="6.03272">
        <ele>434.4</ele>
        <time>2021-09-05T08:31:01Z</time>
      </trkpt>
      <trkpt lat="47.30413" lon="6.03269">
        <ele>434.4</ele>
        <time>2021-09-05T08:31:02Z</time>
      </trkpt>
      <trkpt lat="47.30413" lon="6.03267">
        <ele>434.6</ele>
        <time>2021-09-05T08:31:03Z</time>
      </trkpt>
      <trkpt lat="47.30412" lon="6.03264">
        <ele>434.8</ele>
        <time>2021-09-05T08:31:04Z</time>
      </trkpt>
      <trkpt lat="47.30412" lon="6.03262">
        <ele>435</ele>
        <time>2021-09-05T08:31:05Z</time>
      </trkpt>
      <trkpt lat="47.30412" lon="6.03259">
        <ele>435.4</ele>
        <time>2021-09-05T08:31:06Z</time>
      </trkpt>
      <trkpt lat="47.30412" lon="6.03257">
        <ele>435.6</ele>
        <time>2021-09-05T08:31:07Z</time>
      </trkpt>
      <trkpt lat="47.30413" lon="6.03255">
        <ele>435.8</ele>
        <time>2021-09-05T08:31:08Z</time>
      </trkpt>
      <trkpt lat="47.30412" lon="6.03253">
        <ele>435.8</ele>
        <time>2021-09-05T08:31:09Z</time>
      </trkpt>
      <trkpt lat="47.30412" lon="6.0325">
        <ele>436</ele>
        <time>2021-09-05T08:31:10Z</time>
      </trkpt>
      <trkpt lat="47.30411" lon="6.03246">
        <ele>436.2</ele>
        <time>2021-09-05T08:31:11Z</time>
      </trkpt>
      <trkpt lat="47.30411" lon="6.03244">
        <ele>436.6</ele>
        <time>2021-09-05T08:31:12Z</time>
      </trkpt>
      <trkpt lat="47.30411" lon="6.03241">
        <ele>436.6</ele>
        <time>2021-09-05T08:31:13Z</time>
      </trkpt>
      <trkpt lat="47.30411" lon="6.03239">
        <ele>436.8</ele>
        <time>2021-09-05T08:31:14Z</time>
      </trkpt>
      <trkpt lat="47.3041" lon="6.03236">
        <ele>437</ele>
        <time>2021-09-05T08:31:15Z</time>
      </trkpt>
      <trkpt lat="47.3041" lon="6.03234">
        <ele>437.2</ele>
        <time>2021-09-05T08:31:16Z</time>
      </trkpt>
      <trkpt lat="47.3041" lon="6.0323">
        <ele>437.4</ele>
        <time>2021-09-05T08:31:17Z</time>
      </trkpt>
      <trkpt lat="47.30409" lon="6.03226">
        <ele>437.4</ele>
        <time>2021-09-05T08:31:18Z</time>
      </trkpt>
      <trkpt lat="47.30408" lon="6.03222">
        <ele>437.6</ele>
        <time>2021-09-05T08:31:19Z</time>
      </trkpt>
      <trkpt lat="47.30407" lon="6.03218">
        <ele>437.6</ele>
        <time>2021-09-05T08:31:20Z</time>
      </trkpt>
      <trkpt lat="47.30406" lon="6.03215">
        <ele>437.6</ele>
        <time>2021-09-05T08:31:21Z</time>
      </trkpt>
      <trkpt lat="47.30406" lon="6.03212">
        <ele>438</ele>
        <time>2021-09-05T08:31:22Z</time>
      </trkpt>
      <trkpt lat="47.30405" lon="6.03209">
        <ele>438</ele>
        <time>2021-09-05T08:31:23Z</time>
      </trkpt>
      <trkpt lat="47.30404" lon="6.03206">
        <ele>438.2</ele>
        <time>2021-09-05T08:31:24Z</time>
      </trkpt>
      <trkpt lat="47.30403" lon="6.03202">
        <ele>438.2</ele>
        <time>2021-09-05T08:31:25Z</time>
      </trkpt>
      <trkpt lat="47.30401" lon="6.03197">
        <ele>438.4</ele>
        <time>2021-09-05T08:31:26Z</time>
      </trkpt>
      <trkpt lat="47.304" lon="6.03193">
        <ele>438.6</ele>
        <time>2021-09-05T08:31:27Z</time>
      </trkpt>
      <trkpt lat="47.30399" lon="6.0319">
        <ele>438.6</ele>
        <time>2021-09-05T08:31:28Z</time>
      </trkpt>
      <trkpt lat="47.30397" lon="6.03186">
        <ele>438.6</ele>
        <time>2021-09-05T08:31:29Z</time>
      </trkpt>
      <trkpt lat="47.30396" lon="6.03183">
        <ele>438.8</ele>
        <time>2021-09-05T08:31:30Z</time>
      </trkpt>
      <trkpt lat="47.30395" lon="6.03181">
        <ele>438.8</ele>
        <time>2021-09-05T08:31:31Z</time>
      </trkpt>
      <trkpt lat="47.30395" lon="6.03179">
        <ele>438.8</ele>
        <time>2021-09-05T08:31:32Z</time>
      </trkpt>
      <trkpt lat="47.30393" lon="6.03175">
        <ele>438.8</ele>
        <time>2021-09-05T08:31:33Z</time>
      </trkpt>
      <trkpt lat="47.30393" lon="6.0317">
        <ele>438.8</ele>
        <time>2021-09-05T08:31:34Z</time>
      </trkpt>
      <trkpt lat="47.30392" lon="6.03167">
        <ele>439</ele>
        <time>2021-09-05T08:31:35Z</time>
      </trkpt>
      <trkpt lat="47.30391" lon="6.03164">
        <ele>439</ele>
        <time>2021-09-05T08:31:36Z</time>
      </trkpt>
      <trkpt lat="47.3039" lon="6.03161">
        <ele>439</ele>
        <time>2021-09-05T08:31:37Z</time>
      </trkpt>
      <trkpt lat="47.3039" lon="6.03158">
        <ele>439</ele>
        <time>2021-09-05T08:31:38Z</time>
      </trkpt>
      <trkpt lat="47.30389" lon="6.03155">
        <ele>439</ele>
        <time>2021-09-05T08:31:39Z</time>
      </trkpt>
      <trkpt lat="47.30389" lon="6.03152">
        <ele>439.2</ele>
        <time>2021-09-05T08:31:40Z</time>
      </trkpt>
      <trkpt lat="47.30388" lon="6.03149">
        <ele>439.4</ele>
        <time>2021-09-05T08:31:41Z</time>
      </trkpt>
      <trkpt lat="47.30388" lon="6.03146">
        <ele>439.4</ele>
        <time>2021-09-05T08:31:42Z</time>
      </trkpt>
      <trkpt lat="47.30387" lon="6.03144">
        <ele>439.4</ele>
        <time>2021-09-05T08:31:43Z</time>
      </trkpt>
      <trkpt lat="47.30387" lon="6.03141">
        <ele>439.6</ele>
        <time>2021-09-05T08:31:44Z</time>
      </trkpt>
      <trkpt lat="47.30386" lon="6.03139">
        <ele>439.6</ele>
        <time>2021-09-05T08:31:45Z</time>
      </trkpt>
      <trkpt lat="47.30385" lon="6.03129">
        <ele>439.8</ele>
        <time>2021-09-05T08:31:48Z</time>
      </trkpt>
      <trkpt lat="47.30384" lon="6.03122">
        <ele>440</ele>
        <time>2021-09-05T08:31:50Z</time>
      </trkpt>
      <trkpt lat="47.3038" lon="6.03106">
        <ele>440.6</ele>
        <time>2021-09-05T08:31:55Z</time>
      </trkpt>
      <trkpt lat="47.30381" lon="6.03103">
        <ele>440.8</ele>
        <time>2021-09-05T08:31:56Z</time>
      </trkpt>
      <trkpt lat="47.30381" lon="6.03096">
        <ele>441</ele>
        <time>2021-09-05T08:31:58Z</time>
      </trkpt>
      <trkpt lat="47.30382" lon="6.03093">
        <ele>441.2</ele>
        <time>2021-09-05T08:31:59Z</time>
      </trkpt>
      <trkpt lat="47.30385" lon="6.03085">
        <ele>441.4</ele>
        <time>2021-09-05T08:32:01Z</time>
      </trkpt>
      <trkpt lat="47.30386" lon="6.03083">
        <ele>441.6</ele>
        <time>2021-09-05T08:32:02Z</time>
      </trkpt>
      <trkpt lat="47.30388" lon="6.03083">
        <ele>441.8</ele>
        <time>2021-09-05T08:32:03Z</time>
      </trkpt>
      <trkpt lat="47.30389" lon="6.03082">
        <ele>442</ele>
        <time>2021-09-05T08:32:04Z</time>
      </trkpt>
      <trkpt lat="47.30391" lon="6.03082">
        <ele>442.2</ele>
        <time>2021-09-05T08:32:05Z</time>
      </trkpt>
      <trkpt lat="47.30392" lon="6.03082">
        <ele>442.2</ele>
        <time>2021-09-05T08:32:06Z</time>
      </trkpt>
      <trkpt lat="47.30394" lon="6.03083">
        <ele>442.4</ele>
        <time>2021-09-05T08:32:07Z</time>
      </trkpt>
      <trkpt lat="47.30395" lon="6.03085">
        <ele>442.6</ele>
        <time>2021-09-05T08:32:08Z</time>
      </trkpt>
      <trkpt lat="47.30396" lon="6.03087">
        <ele>442.6</ele>
        <time>2021-09-05T08:32:09Z</time>
      </trkpt>
      <trkpt lat="47.30396" lon="6.03089">
        <ele>442.6</ele>
        <time>2021-09-05T08:32:10Z</time>
      </trkpt>
      <trkpt lat="47.30397" lon="6.03092">
        <ele>442.8</ele>
        <time>2021-09-05T08:32:11Z</time>
      </trkpt>
      <trkpt lat="47.30397" lon="6.03095">
        <ele>442.8</ele>
        <time>2021-09-05T08:32:12Z</time>
      </trkpt>
      <trkpt lat="47.30398" lon="6.03098">
        <ele>443</ele>
        <time>2021-09-05T08:32:13Z</time>
      </trkpt>
      <trkpt lat="47.30398" lon="6.03101">
        <ele>443</ele>
        <time>2021-09-05T08:32:14Z</time>
      </trkpt>
      <trkpt lat="47.30398" lon="6.03104">
        <ele>443.2</ele>
        <time>2021-09-05T08:32:15Z</time>
      </trkpt>
      <trkpt lat="47.30398" lon="6.03108">
        <ele>443.2</ele>
        <time>2021-09-05T08:32:16Z</time>
      </trkpt>
      <trkpt lat="47.30399" lon="6.03111">
        <ele>443.4</ele>
        <time>2021-09-05T08:32:17Z</time>
      </trkpt>
      <trkpt lat="47.304" lon="6.03115">
        <ele>443.4</ele>
        <time>2021-09-05T08:32:18Z</time>
      </trkpt>
      <trkpt lat="47.30401" lon="6.03118">
        <ele>443.6</ele>
        <time>2021-09-05T08:32:19Z</time>
      </trkpt>
      <trkpt lat="47.30402" lon="6.03121">
        <ele>443.8</ele>
        <time>2021-09-05T08:32:20Z</time>
      </trkpt>
      <trkpt lat="47.30403" lon="6.03125">
        <ele>443.8</ele>
        <time>2021-09-05T08:32:21Z</time>
      </trkpt>
      <trkpt lat="47.30404" lon="6.03128">
        <ele>444</ele>
        <time>2021-09-05T08:32:22Z</time>
      </trkpt>
      <trkpt lat="47.30405" lon="6.03131">
        <ele>444</ele>
        <time>2021-09-05T08:32:23Z</time>
      </trkpt>
      <trkpt lat="47.30406" lon="6.03134">
        <ele>444.2</ele>
        <time>2021-09-05T08:32:24Z</time>
      </trkpt>
      <trkpt lat="47.30407" lon="6.03137">
        <ele>444.2</ele>
        <time>2021-09-05T08:32:25Z</time>
      </trkpt>
      <trkpt lat="47.30407" lon="6.0314">
        <ele>444.4</ele>
        <time>2021-09-05T08:32:26Z</time>
      </trkpt>
      <trkpt lat="47.30409" lon="6.03142">
        <ele>444.4</ele>
        <time>2021-09-05T08:32:27Z</time>
      </trkpt>
      <trkpt lat="47.3041" lon="6.03145">
        <ele>444.6</ele>
        <time>2021-09-05T08:32:28Z</time>
      </trkpt>
      <trkpt lat="47.30412" lon="6.03147">
        <ele>444.6</ele>
        <time>2021-09-05T08:32:29Z</time>
      </trkpt>
      <trkpt lat="47.30413" lon="6.0315">
        <ele>444.8</ele>
        <time>2021-09-05T08:32:30Z</time>
      </trkpt>
      <trkpt lat="47.30415" lon="6.03153">
        <ele>444.8</ele>
        <time>2021-09-05T08:32:31Z</time>
      </trkpt>
      <trkpt lat="47.30416" lon="6.03156">
        <ele>445</ele>
        <time>2021-09-05T08:32:32Z</time>
      </trkpt>
      <trkpt lat="47.30417" lon="6.03159">
        <ele>445.2</ele>
        <time>2021-09-05T08:32:33Z</time>
      </trkpt>
      <trkpt lat="47.30419" lon="6.03163">
        <ele>445.4</ele>
        <time>2021-09-05T08:32:34Z</time>
      </trkpt>
      <trkpt lat="47.3042" lon="6.03166">
        <ele>445.6</ele>
        <time>2021-09-05T08:32:35Z</time>
      </trkpt>
      <trkpt lat="47.30421" lon="6.0317">
        <ele>445.6</ele>
        <time>2021-09-05T08:32:36Z</time>
      </trkpt>
      <trkpt lat="47.30422" lon="6.03173">
        <ele>445.8</ele>
        <time>2021-09-05T08:32:37Z</time>
      </trkpt>
      <trkpt lat="47.30423" lon="6.03177">
        <ele>445.8</ele>
        <time>2021-09-05T08:32:38Z</time>
      </trkpt>
      <trkpt lat="47.30424" lon="6.0318">
        <ele>445.8</ele>
        <time>2021-09-05T08:32:39Z</time>
      </trkpt>
      <trkpt lat="47.30425" lon="6.03183">
        <ele>446</ele>
        <time>2021-09-05T08:32:40Z</time>
      </trkpt>
      <trkpt lat="47.30424" lon="6.03186">
        <ele>446</ele>
        <time>2021-09-05T08:32:41Z</time>
      </trkpt>
      <trkpt lat="47.30425" lon="6.03189">
        <ele>446.2</ele>
        <time>2021-09-05T08:32:42Z</time>
      </trkpt>
      <trkpt lat="47.30426" lon="6.03193">
        <ele>446</ele>
        <time>2021-09-05T08:32:43Z</time>
      </trkpt>
      <trkpt lat="47.30427" lon="6.03196">
        <ele>446.2</ele>
        <time>2021-09-05T08:32:44Z</time>
      </trkpt>
      <trkpt lat="47.30429" lon="6.032">
        <ele>446.4</ele>
        <time>2021-09-05T08:32:45Z</time>
      </trkpt>
      <trkpt lat="47.3043" lon="6.03204">
        <ele>446.2</ele>
        <time>2021-09-05T08:32:46Z</time>
      </trkpt>
      <trkpt lat="47.30431" lon="6.03209">
        <ele>446.4</ele>
        <time>2021-09-05T08:32:47Z</time>
      </trkpt>
      <trkpt lat="47.30433" lon="6.03213">
        <ele>446.6</ele>
        <time>2021-09-05T08:32:48Z</time>
      </trkpt>
      <trkpt lat="47.30435" lon="6.03218">
        <ele>446.6</ele>
        <time>2021-09-05T08:32:49Z</time>
      </trkpt>
      <trkpt lat="47.30436" lon="6.03223">
        <ele>446.6</ele>
        <time>2021-09-05T08:32:50Z</time>
      </trkpt>
      <trkpt lat="47.30438" lon="6.03229">
        <ele>446.8</ele>
        <time>2021-09-05T08:32:51Z</time>
      </trkpt>
      <trkpt lat="47.3044" lon="6.03234">
        <ele>446.8</ele>
        <time>2021-09-05T08:32:52Z</time>
      </trkpt>
      <trkpt lat="47.30441" lon="6.03239">
        <ele>446.8</ele>
        <time>2021-09-05T08:32:53Z</time>
      </trkpt>
      <trkpt lat="47.30443" lon="6.03244">
        <ele>446.8</ele>
        <time>2021-09-05T08:32:54Z</time>
      </trkpt>
      <trkpt lat="47.30445" lon="6.03249">
        <ele>446.8</ele>
        <time>2021-09-05T08:32:55Z</time>
      </trkpt>
      <trkpt lat="47.30453" lon="6.03257">
        <ele>446.8</ele>
        <time>2021-09-05T08:32:58Z</time>
      </trkpt>
      <trkpt lat="47.30456" lon="6.03258">
        <ele>446.8</ele>
        <time>2021-09-05T08:32:59Z</time>
      </trkpt>
      <trkpt lat="47.30464" lon="6.03253">
        <ele>446.8</ele>
        <time>2021-09-05T08:33:02Z</time>
      </trkpt>
      <trkpt lat="47.30466" lon="6.0325">
        <ele>447</ele>
        <time>2021-09-05T08:33:03Z</time>
      </trkpt>
      <trkpt lat="47.30467" lon="6.03246">
        <ele>447</ele>
        <time>2021-09-05T08:33:04Z</time>
      </trkpt>
      <trkpt lat="47.30469" lon="6.03243">
        <ele>447.2</ele>
        <time>2021-09-05T08:33:05Z</time>
      </trkpt>
      <trkpt lat="47.3047" lon="6.03241">
        <ele>447.2</ele>
        <time>2021-09-05T08:33:06Z</time>
      </trkpt>
      <trkpt lat="47.3047" lon="6.03238">
        <ele>447.2</ele>
        <time>2021-09-05T08:33:07Z</time>
      </trkpt>
      <trkpt lat="47.3047" lon="6.03235">
        <ele>447.4</ele>
        <time>2021-09-05T08:33:08Z</time>
      </trkpt>
      <trkpt lat="47.3047" lon="6.03233">
        <ele>447.4</ele>
        <time>2021-09-05T08:33:09Z</time>
      </trkpt>
      <trkpt lat="47.30469" lon="6.0323">
        <ele>447.6</ele>
        <time>2021-09-05T08:33:10Z</time>
      </trkpt>
      <trkpt lat="47.30468" lon="6.03227">
        <ele>447.6</ele>
        <time>2021-09-05T08:33:11Z</time>
      </trkpt>
      <trkpt lat="47.30466" lon="6.03224">
        <ele>447.8</ele>
        <time>2021-09-05T08:33:12Z</time>
      </trkpt>
      <trkpt lat="47.30464" lon="6.03221">
        <ele>447.8</ele>
        <time>2021-09-05T08:33:13Z</time>
      </trkpt>
      <trkpt lat="47.3046" lon="6.03211">
        <ele>448.4</ele>
        <time>2021-09-05T08:33:16Z</time>
      </trkpt>
      <trkpt lat="47.30457" lon="6.03204">
        <ele>448.8</ele>
        <time>2021-09-05T08:33:18Z</time>
      </trkpt>
      <trkpt lat="47.30454" lon="6.03191">
        <ele>449.6</ele>
        <time>2021-09-05T08:33:22Z</time>
      </trkpt>
      <trkpt lat="47.30454" lon="6.03188">
        <ele>449.8</ele>
        <time>2021-09-05T08:33:23Z</time>
      </trkpt>
      <trkpt lat="47.30453" lon="6.03184">
        <ele>449.6</ele>
        <time>2021-09-05T08:33:24Z</time>
      </trkpt>
      <trkpt lat="47.30453" lon="6.03181">
        <ele>449.8</ele>
        <time>2021-09-05T08:33:25Z</time>
      </trkpt>
      <trkpt lat="47.30452" lon="6.03179">
        <ele>450.2</ele>
        <time>2021-09-05T08:33:26Z</time>
      </trkpt>
      <trkpt lat="47.30451" lon="6.03177">
        <ele>450.2</ele>
        <time>2021-09-05T08:33:27Z</time>
      </trkpt>
      <trkpt lat="47.30451" lon="6.03173">
        <ele>450.4</ele>
        <time>2021-09-05T08:33:28Z</time>
      </trkpt>
      <trkpt lat="47.3045" lon="6.03168">
        <ele>450.6</ele>
        <time>2021-09-05T08:33:29Z</time>
      </trkpt>
      <trkpt lat="47.30449" lon="6.03164">
        <ele>450.8</ele>
        <time>2021-09-05T08:33:30Z</time>
      </trkpt>
      <trkpt lat="47.30447" lon="6.0316">
        <ele>451</ele>
        <time>2021-09-05T08:33:31Z</time>
      </trkpt>
      <trkpt lat="47.30446" lon="6.03158">
        <ele>451.4</ele>
        <time>2021-09-05T08:33:32Z</time>
      </trkpt>
      <trkpt lat="47.30446" lon="6.03155">
        <ele>451.4</ele>
        <time>2021-09-05T08:33:33Z</time>
      </trkpt>
      <trkpt lat="47.30446" lon="6.03152">
        <ele>451.6</ele>
        <time>2021-09-05T08:33:34Z</time>
      </trkpt>
      <trkpt lat="47.30444" lon="6.03147">
        <ele>451.8</ele>
        <time>2021-09-05T08:33:35Z</time>
      </trkpt>
      <trkpt lat="47.30443" lon="6.03143">
        <ele>451.8</ele>
        <time>2021-09-05T08:33:36Z</time>
      </trkpt>
      <trkpt lat="47.30443" lon="6.03141">
        <ele>452</ele>
        <time>2021-09-05T08:33:37Z</time>
      </trkpt>
      <trkpt lat="47.30443" lon="6.03138">
        <ele>452</ele>
        <time>2021-09-05T08:33:38Z</time>
      </trkpt>
      <trkpt lat="47.30442" lon="6.03136">
        <ele>452.2</ele>
        <time>2021-09-05T08:33:39Z</time>
      </trkpt>
      <trkpt lat="47.30443" lon="6.03134">
        <ele>452.2</ele>
        <time>2021-09-05T08:33:40Z</time>
      </trkpt>
      <trkpt lat="47.30443" lon="6.03132">
        <ele>452.6</ele>
        <time>2021-09-05T08:33:41Z</time>
      </trkpt>
      <trkpt lat="47.30442" lon="6.03129">
        <ele>453</ele>
        <time>2021-09-05T08:33:42Z</time>
      </trkpt>
      <trkpt lat="47.30441" lon="6.03126">
        <ele>453</ele>
        <time>2021-09-05T08:33:43Z</time>
      </trkpt>
      <trkpt lat="47.3044" lon="6.03121">
        <ele>453.2</ele>
        <time>2021-09-05T08:33:44Z</time>
      </trkpt>
      <trkpt lat="47.30441" lon="6.03119">
        <ele>453.4</ele>
        <time>2021-09-05T08:33:45Z</time>
      </trkpt>
      <trkpt lat="47.30441" lon="6.03115">
        <ele>453.6</ele>
        <time>2021-09-05T08:33:46Z</time>
      </trkpt>
      <trkpt lat="47.30441" lon="6.0311">
        <ele>453.6</ele>
        <time>2021-09-05T08:33:47Z</time>
      </trkpt>
      <trkpt lat="47.3044" lon="6.03107">
        <ele>453.8</ele>
        <time>2021-09-05T08:33:48Z</time>
      </trkpt>
      <trkpt lat="47.30439" lon="6.03102">
        <ele>454</ele>
        <time>2021-09-05T08:33:49Z</time>
      </trkpt>
      <trkpt lat="47.30439" lon="6.03101">
        <ele>454</ele>
        <time>2021-09-05T08:33:50Z</time>
      </trkpt>
      <trkpt lat="47.30438" lon="6.03097">
        <ele>454.2</ele>
        <time>2021-09-05T08:33:51Z</time>
      </trkpt>
      <trkpt lat="47.30437" lon="6.03095">
        <ele>454.4</ele>
        <time>2021-09-05T08:33:52Z</time>
      </trkpt>
      <trkpt lat="47.30437" lon="6.03093">
        <ele>454.6</ele>
        <time>2021-09-05T08:33:53Z</time>
      </trkpt>
      <trkpt lat="47.30436" lon="6.03089">
        <ele>454.8</ele>
        <time>2021-09-05T08:33:54Z</time>
      </trkpt>
      <trkpt lat="47.30435" lon="6.03085">
        <ele>455</ele>
        <time>2021-09-05T08:33:55Z</time>
      </trkpt>
      <trkpt lat="47.30433" lon="6.03081">
        <ele>455.2</ele>
        <time>2021-09-05T08:33:56Z</time>
      </trkpt>
      <trkpt lat="47.30432" lon="6.03077">
        <ele>455.2</ele>
        <time>2021-09-05T08:33:57Z</time>
      </trkpt>
      <trkpt lat="47.30431" lon="6.03075">
        <ele>455.6</ele>
        <time>2021-09-05T08:33:58Z</time>
      </trkpt>
      <trkpt lat="47.30431" lon="6.03072">
        <ele>455.8</ele>
        <time>2021-09-05T08:33:59Z</time>
      </trkpt>
      <trkpt lat="47.30429" lon="6.0307">
        <ele>456</ele>
        <time>2021-09-05T08:34:00Z</time>
      </trkpt>
      <trkpt lat="47.30427" lon="6.03067">
        <ele>456.2</ele>
        <time>2021-09-05T08:34:01Z</time>
      </trkpt>
      <trkpt lat="47.30425" lon="6.03064">
        <ele>456.2</ele>
        <time>2021-09-05T08:34:02Z</time>
      </trkpt>
      <trkpt lat="47.30424" lon="6.03061">
        <ele>456.4</ele>
        <time>2021-09-05T08:34:03Z</time>
      </trkpt>
      <trkpt lat="47.30422" lon="6.03059">
        <ele>456.6</ele>
        <time>2021-09-05T08:34:04Z</time>
      </trkpt>
      <trkpt lat="47.3042" lon="6.03057">
        <ele>456.6</ele>
        <time>2021-09-05T08:34:05Z</time>
      </trkpt>
      <trkpt lat="47.30419" lon="6.03055">
        <ele>456.6</ele>
        <time>2021-09-05T08:34:06Z</time>
      </trkpt>
      <trkpt lat="47.30418" lon="6.03053">
        <ele>456.6</ele>
        <time>2021-09-05T08:34:07Z</time>
      </trkpt>
      <trkpt lat="47.30416" lon="6.03051">
        <ele>456.6</ele>
        <time>2021-09-05T08:34:08Z</time>
      </trkpt>
      <trkpt lat="47.30414" lon="6.03049">
        <ele>456.8</ele>
        <time>2021-09-05T08:34:09Z</time>
      </trkpt>
      <trkpt lat="47.30413" lon="6.03047">
        <ele>456.8</ele>
        <time>2021-09-05T08:34:10Z</time>
      </trkpt>
      <trkpt lat="47.30411" lon="6.03044">
        <ele>457</ele>
        <time>2021-09-05T08:34:11Z</time>
      </trkpt>
      <trkpt lat="47.30409" lon="6.03042">
        <ele>457</ele>
        <time>2021-09-05T08:34:12Z</time>
      </trkpt>
      <trkpt lat="47.30408" lon="6.03039">
        <ele>457.2</ele>
        <time>2021-09-05T08:34:13Z</time>
      </trkpt>
      <trkpt lat="47.30406" lon="6.03037">
        <ele>457.2</ele>
        <time>2021-09-05T08:34:14Z</time>
      </trkpt>
      <trkpt lat="47.30405" lon="6.03034">
        <ele>457.4</ele>
        <time>2021-09-05T08:34:15Z</time>
      </trkpt>
      <trkpt lat="47.30404" lon="6.03031">
        <ele>457.8</ele>
        <time>2021-09-05T08:34:16Z</time>
      </trkpt>
      <trkpt lat="47.30404" lon="6.03031">
        <ele>457.8</ele>
        <time>2021-09-05T08:34:17Z</time>
      </trkpt>
      <trkpt lat="47.30403" lon="6.03026">
        <ele>458</ele>
        <time>2021-09-05T08:34:18Z</time>
      </trkpt>
      <trkpt lat="47.30403" lon="6.03023">
        <ele>458</ele>
        <time>2021-09-05T08:34:19Z</time>
      </trkpt>
      <trkpt lat="47.30404" lon="6.0302">
        <ele>458</ele>
        <time>2021-09-05T08:34:20Z</time>
      </trkpt>
      <trkpt lat="47.30405" lon="6.03017">
        <ele>458.4</ele>
        <time>2021-09-05T08:34:21Z</time>
      </trkpt>
      <trkpt lat="47.30406" lon="6.03015">
        <ele>458.4</ele>
        <time>2021-09-05T08:34:22Z</time>
      </trkpt>
      <trkpt lat="47.30407" lon="6.03013">
        <ele>458.6</ele>
        <time>2021-09-05T08:34:23Z</time>
      </trkpt>
      <trkpt lat="47.30409" lon="6.03011">
        <ele>458.8</ele>
        <time>2021-09-05T08:34:24Z</time>
      </trkpt>
      <trkpt lat="47.3041" lon="6.03009">
        <ele>459.2</ele>
        <time>2021-09-05T08:34:25Z</time>
      </trkpt>
      <trkpt lat="47.30412" lon="6.03008">
        <ele>459.4</ele>
        <time>2021-09-05T08:34:26Z</time>
      </trkpt>
      <trkpt lat="47.30414" lon="6.03007">
        <ele>459.6</ele>
        <time>2021-09-05T08:34:27Z</time>
      </trkpt>
      <trkpt lat="47.30416" lon="6.03006">
        <ele>459.6</ele>
        <time>2021-09-05T08:34:28Z</time>
      </trkpt>
      <trkpt lat="47.30417" lon="6.03006">
        <ele>459.6</ele>
        <time>2021-09-05T08:34:29Z</time>
      </trkpt>
      <trkpt lat="47.30419" lon="6.03007">
        <ele>459.8</ele>
        <time>2021-09-05T08:34:30Z</time>
      </trkpt>
      <trkpt lat="47.30421" lon="6.03008">
        <ele>460</ele>
        <time>2021-09-05T08:34:31Z</time>
      </trkpt>
      <trkpt lat="47.30422" lon="6.03009">
        <ele>460</ele>
        <time>2021-09-05T08:34:32Z</time>
      </trkpt>
      <trkpt lat="47.30424" lon="6.0301">
        <ele>460.2</ele>
        <time>2021-09-05T08:34:33Z</time>
      </trkpt>
      <trkpt lat="47.30425" lon="6.03011">
        <ele>460.2</ele>
        <time>2021-09-05T08:34:34Z</time>
      </trkpt>
      <trkpt lat="47.30426" lon="6.03013">
        <ele>460.2</ele>
        <time>2021-09-05T08:34:35Z</time>
      </trkpt>
      <trkpt lat="47.30427" lon="6.03014">
        <ele>460.2</ele>
        <time>2021-09-05T08:34:36Z</time>
      </trkpt>
      <trkpt lat="47.30428" lon="6.03017">
        <ele>460.6</ele>
        <time>2021-09-05T08:34:37Z</time>
      </trkpt>
      <trkpt lat="47.30429" lon="6.03019">
        <ele>460.6</ele>
        <time>2021-09-05T08:34:38Z</time>
      </trkpt>
      <trkpt lat="47.30429" lon="6.0302">
        <ele>460.8</ele>
        <time>2021-09-05T08:34:39Z</time>
      </trkpt>
      <trkpt lat="47.3043" lon="6.03022">
        <ele>461</ele>
        <time>2021-09-05T08:34:40Z</time>
      </trkpt>
      <trkpt lat="47.30431" lon="6.03023">
        <ele>461</ele>
        <time>2021-09-05T08:34:41Z</time>
      </trkpt>
      <trkpt lat="47.30431" lon="6.03024">
        <ele>461</ele>
        <time>2021-09-05T08:34:42Z</time>
      </trkpt>
      <trkpt lat="47.30432" lon="6.03026">
        <ele>461</ele>
        <time>2021-09-05T08:34:43Z</time>
      </trkpt>
      <trkpt lat="47.30432" lon="6.03027">
        <ele>461.2</ele>
        <time>2021-09-05T08:34:44Z</time>
      </trkpt>
      <trkpt lat="47.30433" lon="6.03028">
        <ele>461.2</ele>
        <time>2021-09-05T08:34:45Z</time>
      </trkpt>
      <trkpt lat="47.30433" lon="6.0303">
        <ele>461.2</ele>
        <time>2021-09-05T08:34:46Z</time>
      </trkpt>
      <trkpt lat="47.30434" lon="6.03031">
        <ele>461.2</ele>
        <time>2021-09-05T08:34:47Z</time>
      </trkpt>
      <trkpt lat="47.30434" lon="6.03032">
        <ele>461.2</ele>
        <time>2021-09-05T08:34:48Z</time>
      </trkpt>
      <trkpt lat="47.30435" lon="6.03033">
        <ele>461.2</ele>
        <time>2021-09-05T08:34:49Z</time>
      </trkpt>
      <trkpt lat="47.30435" lon="6.03035">
        <ele>461.2</ele>
        <time>2021-09-05T08:34:50Z</time>
      </trkpt>
      <trkpt lat="47.30436" lon="6.03036">
        <ele>461.2</ele>
        <time>2021-09-05T08:34:51Z</time>
      </trkpt>
      <trkpt lat="47.30437" lon="6.03038">
        <ele>461.2</ele>
        <time>2021-09-05T08:34:52Z</time>
      </trkpt>
      <trkpt lat="47.30438" lon="6.0304">
        <ele>461.4</ele>
        <time>2021-09-05T08:34:53Z</time>
      </trkpt>
      <trkpt lat="47.30438" lon="6.03042">
        <ele>461.4</ele>
        <time>2021-09-05T08:34:54Z</time>
      </trkpt>
      <trkpt lat="47.30439" lon="6.03042">
        <ele>461.2</ele>
        <time>2021-09-05T08:34:55Z</time>
      </trkpt>
      <trkpt lat="47.30439" lon="6.03043">
        <ele>461.2</ele>
        <time>2021-09-05T08:34:56Z</time>
      </trkpt>
      <trkpt lat="47.3044" lon="6.03044">
        <ele>461.2</ele>
        <time>2021-09-05T08:34:57Z</time>
      </trkpt>
      <trkpt lat="47.3044" lon="6.03046">
        <ele>461.2</ele>
        <time>2021-09-05T08:34:58Z</time>
      </trkpt>
      <trkpt lat="47.30444" lon="6.03054">
        <ele>461.4</ele>
        <time>2021-09-05T08:35:02Z</time>
      </trkpt>
      <trkpt lat="47.30444" lon="6.03056">
        <ele>461.4</ele>
        <time>2021-09-05T08:35:03Z</time>
      </trkpt>
      <trkpt lat="47.30447" lon="6.03059">
        <ele>461.4</ele>
        <time>2021-09-05T08:35:05Z</time>
      </trkpt>
      <trkpt lat="47.30452" lon="6.03067">
        <ele>461.6</ele>
        <time>2021-09-05T08:35:10Z</time>
      </trkpt>
      <trkpt lat="47.30453" lon="6.03069">
        <ele>461.8</ele>
        <time>2021-09-05T08:35:11Z</time>
      </trkpt>
      <trkpt lat="47.30455" lon="6.0307">
        <ele>461.8</ele>
        <time>2021-09-05T08:35:12Z</time>
      </trkpt>
      <trkpt lat="47.30458" lon="6.03073">
        <ele>462</ele>
        <time>2021-09-05T08:35:14Z</time>
      </trkpt>
      <trkpt lat="47.30458" lon="6.03074">
        <ele>462</ele>
        <time>2021-09-05T08:35:15Z</time>
      </trkpt>
      <trkpt lat="47.3046" lon="6.03076">
        <ele>462.2</ele>
        <time>2021-09-05T08:35:16Z</time>
      </trkpt>
      <trkpt lat="47.30461" lon="6.03078">
        <ele>462.2</ele>
        <time>2021-09-05T08:35:17Z</time>
      </trkpt>
      <trkpt lat="47.30462" lon="6.03079">
        <ele>462.2</ele>
        <time>2021-09-05T08:35:18Z</time>
      </trkpt>
      <trkpt lat="47.30463" lon="6.03081">
        <ele>462.2</ele>
        <time>2021-09-05T08:35:19Z</time>
      </trkpt>
      <trkpt lat="47.30463" lon="6.03082">
        <ele>462.4</ele>
        <time>2021-09-05T08:35:20Z</time>
      </trkpt>
      <trkpt lat="47.30464" lon="6.03084">
        <ele>462.4</ele>
        <time>2021-09-05T08:35:21Z</time>
      </trkpt>
      <trkpt lat="47.30465" lon="6.03085">
        <ele>462.4</ele>
        <time>2021-09-05T08:35:22Z</time>
      </trkpt>
      <trkpt lat="47.30466" lon="6.03088">
        <ele>462.6</ele>
        <time>2021-09-05T08:35:23Z</time>
      </trkpt>
      <trkpt lat="47.30478" lon="6.031">
        <ele>463.2</ele>
        <time>2021-09-05T08:35:30Z</time>
      </trkpt>
      <trkpt lat="47.30479" lon="6.03102">
        <ele>463.4</ele>
        <time>2021-09-05T08:35:31Z</time>
      </trkpt>
      <trkpt lat="47.30486" lon="6.03108">
        <ele>464</ele>
        <time>2021-09-05T08:35:35Z</time>
      </trkpt>
      <trkpt lat="47.30487" lon="6.03109">
        <ele>464.2</ele>
        <time>2021-09-05T08:35:36Z</time>
      </trkpt>
      <trkpt lat="47.30488" lon="6.03111">
        <ele>464.2</ele>
        <time>2021-09-05T08:35:37Z</time>
      </trkpt>
      <trkpt lat="47.30489" lon="6.03113">
        <ele>464.2</ele>
        <time>2021-09-05T08:35:38Z</time>
      </trkpt>
      <trkpt lat="47.30491" lon="6.03115">
        <ele>464.4</ele>
        <time>2021-09-05T08:35:39Z</time>
      </trkpt>
      <trkpt lat="47.30497" lon="6.03122">
        <ele>464.6</ele>
        <time>2021-09-05T08:35:42Z</time>
      </trkpt>
      <trkpt lat="47.30498" lon="6.03125">
        <ele>464.8</ele>
        <time>2021-09-05T08:35:43Z</time>
      </trkpt>
      <trkpt lat="47.305" lon="6.03127">
        <ele>464.8</ele>
        <time>2021-09-05T08:35:44Z</time>
      </trkpt>
      <trkpt lat="47.30502" lon="6.03128">
        <ele>465</ele>
        <time>2021-09-05T08:35:45Z</time>
      </trkpt>
      <trkpt lat="47.30507" lon="6.03132">
        <ele>465.2</ele>
        <time>2021-09-05T08:35:47Z</time>
      </trkpt>
      <trkpt lat="47.30508" lon="6.03134">
        <ele>465.4</ele>
        <time>2021-09-05T08:35:48Z</time>
      </trkpt>
      <trkpt lat="47.30509" lon="6.03134">
        <ele>465.4</ele>
        <time>2021-09-05T08:35:49Z</time>
      </trkpt>
      <trkpt lat="47.3051" lon="6.03136">
        <ele>465.6</ele>
        <time>2021-09-05T08:35:50Z</time>
      </trkpt>
      <trkpt lat="47.30511" lon="6.03139">
        <ele>465.8</ele>
        <time>2021-09-05T08:35:51Z</time>
      </trkpt>
      <trkpt lat="47.30513" lon="6.03141">
        <ele>466</ele>
        <time>2021-09-05T08:35:52Z</time>
      </trkpt>
      <trkpt lat="47.30515" lon="6.03143">
        <ele>466</ele>
        <time>2021-09-05T08:35:53Z</time>
      </trkpt>
      <trkpt lat="47.30515" lon="6.03144">
        <ele>466.2</ele>
        <time>2021-09-05T08:35:54Z</time>
      </trkpt>
      <trkpt lat="47.30516" lon="6.03146">
        <ele>466.4</ele>
        <time>2021-09-05T08:35:55Z</time>
      </trkpt>
      <trkpt lat="47.30517" lon="6.03147">
        <ele>466.6</ele>
        <time>2021-09-05T08:35:56Z</time>
      </trkpt>
      <trkpt lat="47.30518" lon="6.03149">
        <ele>466.8</ele>
        <time>2021-09-05T08:35:57Z</time>
      </trkpt>
      <trkpt lat="47.3052" lon="6.03151">
        <ele>467</ele>
        <time>2021-09-05T08:35:58Z</time>
      </trkpt>
      <trkpt lat="47.30521" lon="6.03153">
        <ele>467.2</ele>
        <time>2021-09-05T08:35:59Z</time>
      </trkpt>
      <trkpt lat="47.30521" lon="6.03153">
        <ele>467.2</ele>
        <time>2021-09-05T08:36:00Z</time>
      </trkpt>
      <trkpt lat="47.30523" lon="6.03156">
        <ele>467.4</ele>
        <time>2021-09-05T08:36:01Z</time>
      </trkpt>
      <trkpt lat="47.30524" lon="6.03157">
        <ele>467.4</ele>
        <time>2021-09-05T08:36:02Z</time>
      </trkpt>
      <trkpt lat="47.30526" lon="6.03159">
        <ele>467.6</ele>
        <time>2021-09-05T08:36:03Z</time>
      </trkpt>
      <trkpt lat="47.30527" lon="6.0316">
        <ele>467.8</ele>
        <time>2021-09-05T08:36:04Z</time>
      </trkpt>
      <trkpt lat="47.30528" lon="6.03162">
        <ele>468</ele>
        <time>2021-09-05T08:36:05Z</time>
      </trkpt>
      <trkpt lat="47.3053" lon="6.03164">
        <ele>468</ele>
        <time>2021-09-05T08:36:06Z</time>
      </trkpt>
      <trkpt lat="47.30531" lon="6.03166">
        <ele>468.2</ele>
        <time>2021-09-05T08:36:07Z</time>
      </trkpt>
      <trkpt lat="47.30533" lon="6.03168">
        <ele>468.4</ele>
        <time>2021-09-05T08:36:08Z</time>
      </trkpt>
      <trkpt lat="47.30535" lon="6.0317">
        <ele>468.4</ele>
        <time>2021-09-05T08:36:09Z</time>
      </trkpt>
      <trkpt lat="47.30537" lon="6.03173">
        <ele>468.6</ele>
        <time>2021-09-05T08:36:10Z</time>
      </trkpt>
      <trkpt lat="47.30539" lon="6.03175">
        <ele>468.6</ele>
        <time>2021-09-05T08:36:11Z</time>
      </trkpt>
      <trkpt lat="47.3054" lon="6.03177">
        <ele>468.6</ele>
        <time>2021-09-05T08:36:12Z</time>
      </trkpt>
      <trkpt lat="47.30542" lon="6.03179">
        <ele>468.6</ele>
        <time>2021-09-05T08:36:13Z</time>
      </trkpt>
      <trkpt lat="47.30543" lon="6.03181">
        <ele>468.8</ele>
        <time>2021-09-05T08:36:14Z</time>
      </trkpt>
      <trkpt lat="47.30544" lon="6.03183">
        <ele>468.8</ele>
        <time>2021-09-05T08:36:15Z</time>
      </trkpt>
      <trkpt lat="47.30546" lon="6.03185">
        <ele>469</ele>
        <time>2021-09-05T08:36:16Z</time>
      </trkpt>
      <trkpt lat="47.30549" lon="6.03188">
        <ele>469.2</ele>
        <time>2021-09-05T08:36:17Z</time>
      </trkpt>
      <trkpt lat="47.30551" lon="6.03192">
        <ele>469.2</ele>
        <time>2021-09-05T08:36:18Z</time>
      </trkpt>
      <trkpt lat="47.30552" lon="6.03193">
        <ele>469.4</ele>
        <time>2021-09-05T08:36:19Z</time>
      </trkpt>
      <trkpt lat="47.30555" lon="6.03196">
        <ele>469.6</ele>
        <time>2021-09-05T08:36:20Z</time>
      </trkpt>
      <trkpt lat="47.30557" lon="6.03198">
        <ele>469.8</ele>
        <time>2021-09-05T08:36:21Z</time>
      </trkpt>
      <trkpt lat="47.30559" lon="6.03201">
        <ele>469.8</ele>
        <time>2021-09-05T08:36:22Z</time>
      </trkpt>
      <trkpt lat="47.30562" lon="6.03203">
        <ele>470</ele>
        <time>2021-09-05T08:36:23Z</time>
      </trkpt>
      <trkpt lat="47.30563" lon="6.03205">
        <ele>470.2</ele>
        <time>2021-09-05T08:36:24Z</time>
      </trkpt>
      <trkpt lat="47.30565" lon="6.03208">
        <ele>470.4</ele>
        <time>2021-09-05T08:36:25Z</time>
      </trkpt>
      <trkpt lat="47.30567" lon="6.03211">
        <ele>470.8</ele>
        <time>2021-09-05T08:36:26Z</time>
      </trkpt>
      <trkpt lat="47.30569" lon="6.03213">
        <ele>471</ele>
        <time>2021-09-05T08:36:27Z</time>
      </trkpt>
      <trkpt lat="47.30571" lon="6.03216">
        <ele>471</ele>
        <time>2021-09-05T08:36:28Z</time>
      </trkpt>
      <trkpt lat="47.30572" lon="6.03218">
        <ele>471.2</ele>
        <time>2021-09-05T08:36:29Z</time>
      </trkpt>
      <trkpt lat="47.30573" lon="6.03222">
        <ele>471.4</ele>
        <time>2021-09-05T08:36:30Z</time>
      </trkpt>
      <trkpt lat="47.30574" lon="6.03224">
        <ele>471.4</ele>
        <time>2021-09-05T08:36:31Z</time>
      </trkpt>
      <trkpt lat="47.30575" lon="6.03226">
        <ele>471.6</ele>
        <time>2021-09-05T08:36:32Z</time>
      </trkpt>
      <trkpt lat="47.30576" lon="6.03228">
        <ele>471.6</ele>
        <time>2021-09-05T08:36:33Z</time>
      </trkpt>
      <trkpt lat="47.30577" lon="6.0323">
        <ele>471.6</ele>
        <time>2021-09-05T08:36:34Z</time>
      </trkpt>
      <trkpt lat="47.30578" lon="6.03233">
        <ele>471.6</ele>
        <time>2021-09-05T08:36:35Z</time>
      </trkpt>
      <trkpt lat="47.30579" lon="6.03235">
        <ele>471.8</ele>
        <time>2021-09-05T08:36:36Z</time>
      </trkpt>
      <trkpt lat="47.3058" lon="6.03237">
        <ele>471.8</ele>
        <time>2021-09-05T08:36:37Z</time>
      </trkpt>
      <trkpt lat="47.30581" lon="6.03239">
        <ele>472</ele>
        <time>2021-09-05T08:36:38Z</time>
      </trkpt>
      <trkpt lat="47.30582" lon="6.0324">
        <ele>472.2</ele>
        <time>2021-09-05T08:36:39Z</time>
      </trkpt>
      <trkpt lat="47.30583" lon="6.03242">
        <ele>472.2</ele>
        <time>2021-09-05T08:36:40Z</time>
      </trkpt>
      <trkpt lat="47.30584" lon="6.03245">
        <ele>472.2</ele>
        <time>2021-09-05T08:36:41Z</time>
      </trkpt>
      <trkpt lat="47.30585" lon="6.03247">
        <ele>472.4</ele>
        <time>2021-09-05T08:36:42Z</time>
      </trkpt>
      <trkpt lat="47.30587" lon="6.0325">
        <ele>472.8</ele>
        <time>2021-09-05T08:36:43Z</time>
      </trkpt>
      <trkpt lat="47.30587" lon="6.03252">
        <ele>472.8</ele>
        <time>2021-09-05T08:36:44Z</time>
      </trkpt>
      <trkpt lat="47.30589" lon="6.03254">
        <ele>473</ele>
        <time>2021-09-05T08:36:45Z</time>
      </trkpt>
      <trkpt lat="47.30589" lon="6.03256">
        <ele>473</ele>
        <time>2021-09-05T08:36:46Z</time>
      </trkpt>
      <trkpt lat="47.3059" lon="6.03258">
        <ele>473</ele>
        <time>2021-09-05T08:36:47Z</time>
      </trkpt>
      <trkpt lat="47.30591" lon="6.03261">
        <ele>473</ele>
        <time>2021-09-05T08:36:48Z</time>
      </trkpt>
      <trkpt lat="47.30592" lon="6.03263">
        <ele>473</ele>
        <time>2021-09-05T08:36:49Z</time>
      </trkpt>
      <trkpt lat="47.30593" lon="6.03265">
        <ele>473.2</ele>
        <time>2021-09-05T08:36:50Z</time>
      </trkpt>
      <trkpt lat="47.30595" lon="6.03268">
        <ele>473.4</ele>
        <time>2021-09-05T08:36:51Z</time>
      </trkpt>
      <trkpt lat="47.30596" lon="6.03271">
        <ele>473.6</ele>
        <time>2021-09-05T08:36:52Z</time>
      </trkpt>
      <trkpt lat="47.30597" lon="6.03273">
        <ele>473.6</ele>
        <time>2021-09-05T08:36:53Z</time>
      </trkpt>
      <trkpt lat="47.30597" lon="6.03275">
        <ele>473.8</ele>
        <time>2021-09-05T08:36:54Z</time>
      </trkpt>
      <trkpt lat="47.30598" lon="6.03278">
        <ele>474</ele>
        <time>2021-09-05T08:36:55Z</time>
      </trkpt>
      <trkpt lat="47.306" lon="6.03281">
        <ele>474</ele>
        <time>2021-09-05T08:36:56Z</time>
      </trkpt>
      <trkpt lat="47.30602" lon="6.03284">
        <ele>474</ele>
        <time>2021-09-05T08:36:57Z</time>
      </trkpt>
      <trkpt lat="47.30604" lon="6.03286">
        <ele>474.2</ele>
        <time>2021-09-05T08:36:58Z</time>
      </trkpt>
      <trkpt lat="47.30604" lon="6.03289">
        <ele>474.4</ele>
        <time>2021-09-05T08:36:59Z</time>
      </trkpt>
      <trkpt lat="47.30605" lon="6.03292">
        <ele>474.4</ele>
        <time>2021-09-05T08:37:00Z</time>
      </trkpt>
      <trkpt lat="47.30606" lon="6.03295">
        <ele>474.6</ele>
        <time>2021-09-05T08:37:01Z</time>
      </trkpt>
      <trkpt lat="47.30607" lon="6.03298">
        <ele>474.8</ele>
        <time>2021-09-05T08:37:02Z</time>
      </trkpt>
      <trkpt lat="47.30608" lon="6.033">
        <ele>475</ele>
        <time>2021-09-05T08:37:03Z</time>
      </trkpt>
      <trkpt lat="47.30608" lon="6.03302">
        <ele>475</ele>
        <time>2021-09-05T08:37:04Z</time>
      </trkpt>
      <trkpt lat="47.30609" lon="6.03304">
        <ele>475.2</ele>
        <time>2021-09-05T08:37:05Z</time>
      </trkpt>
      <trkpt lat="47.3061" lon="6.03307">
        <ele>475.2</ele>
        <time>2021-09-05T08:37:06Z</time>
      </trkpt>
      <trkpt lat="47.30612" lon="6.03311">
        <ele>475.2</ele>
        <time>2021-09-05T08:37:07Z</time>
      </trkpt>
      <trkpt lat="47.30614" lon="6.03314">
        <ele>475.4</ele>
        <time>2021-09-05T08:37:08Z</time>
      </trkpt>
      <trkpt lat="47.30616" lon="6.03316">
        <ele>475.4</ele>
        <time>2021-09-05T08:37:09Z</time>
      </trkpt>
      <trkpt lat="47.30616" lon="6.03319">
        <ele>475.6</ele>
        <time>2021-09-05T08:37:10Z</time>
      </trkpt>
      <trkpt lat="47.30617" lon="6.03321">
        <ele>475.6</ele>
        <time>2021-09-05T08:37:11Z</time>
      </trkpt>
      <trkpt lat="47.30618" lon="6.03323">
        <ele>475.8</ele>
        <time>2021-09-05T08:37:12Z</time>
      </trkpt>
      <trkpt lat="47.30619" lon="6.03326">
        <ele>475.8</ele>
        <time>2021-09-05T08:37:13Z</time>
      </trkpt>
      <trkpt lat="47.3062" lon="6.03329">
        <ele>476</ele>
        <time>2021-09-05T08:37:14Z</time>
      </trkpt>
      <trkpt lat="47.3062" lon="6.03332">
        <ele>476.2</ele>
        <time>2021-09-05T08:37:15Z</time>
      </trkpt>
      <trkpt lat="47.30621" lon="6.03335">
        <ele>476.2</ele>
        <time>2021-09-05T08:37:16Z</time>
      </trkpt>
      <trkpt lat="47.30623" lon="6.03337">
        <ele>476.4</ele>
        <time>2021-09-05T08:37:17Z</time>
      </trkpt>
      <trkpt lat="47.30625" lon="6.03341">
        <ele>476.4</ele>
        <time>2021-09-05T08:37:18Z</time>
      </trkpt>
      <trkpt lat="47.30627" lon="6.03343">
        <ele>476.6</ele>
        <time>2021-09-05T08:37:19Z</time>
      </trkpt>
      <trkpt lat="47.3063" lon="6.03347">
        <ele>476.6</ele>
        <time>2021-09-05T08:37:20Z</time>
      </trkpt>
      <trkpt lat="47.3063" lon="6.03351">
        <ele>476.4</ele>
        <time>2021-09-05T08:37:21Z</time>
      </trkpt>
      <trkpt lat="47.30631" lon="6.03353">
        <ele>476.6</ele>
        <time>2021-09-05T08:37:22Z</time>
      </trkpt>
      <trkpt lat="47.30632" lon="6.03355">
        <ele>476.8</ele>
        <time>2021-09-05T08:37:23Z</time>
      </trkpt>
      <trkpt lat="47.30633" lon="6.03358">
        <ele>477</ele>
        <time>2021-09-05T08:37:24Z</time>
      </trkpt>
      <trkpt lat="47.30634" lon="6.03361">
        <ele>477</ele>
        <time>2021-09-05T08:37:25Z</time>
      </trkpt>
      <trkpt lat="47.30634" lon="6.03363">
        <ele>477.2</ele>
        <time>2021-09-05T08:37:26Z</time>
      </trkpt>
      <trkpt lat="47.30634" lon="6.03363">
        <ele>477.4</ele>
        <time>2021-09-05T08:37:27Z</time>
      </trkpt>
      <trkpt lat="47.30636" lon="6.03367">
        <ele>477.6</ele>
        <time>2021-09-05T08:37:28Z</time>
      </trkpt>
      <trkpt lat="47.30637" lon="6.0337">
        <ele>477.8</ele>
        <time>2021-09-05T08:37:29Z</time>
      </trkpt>
      <trkpt lat="47.30638" lon="6.03372">
        <ele>478</ele>
        <time>2021-09-05T08:37:30Z</time>
      </trkpt>
      <trkpt lat="47.30639" lon="6.03374">
        <ele>478</ele>
        <time>2021-09-05T08:37:31Z</time>
      </trkpt>
      <trkpt lat="47.3064" lon="6.03376">
        <ele>478</ele>
        <time>2021-09-05T08:37:32Z</time>
      </trkpt>
      <trkpt lat="47.30641" lon="6.0338">
        <ele>478.2</ele>
        <time>2021-09-05T08:37:33Z</time>
      </trkpt>
      <trkpt lat="47.30642" lon="6.03382">
        <ele>478.2</ele>
        <time>2021-09-05T08:37:34Z</time>
      </trkpt>
      <trkpt lat="47.30644" lon="6.03384">
        <ele>478.4</ele>
        <time>2021-09-05T08:37:35Z</time>
      </trkpt>
      <trkpt lat="47.30645" lon="6.03386">
        <ele>478.6</ele>
        <time>2021-09-05T08:37:36Z</time>
      </trkpt>
      <trkpt lat="47.30646" lon="6.03388">
        <ele>478.6</ele>
        <time>2021-09-05T08:37:37Z</time>
      </trkpt>
      <trkpt lat="47.30647" lon="6.0339">
        <ele>478.8</ele>
        <time>2021-09-05T08:37:38Z</time>
      </trkpt>
      <trkpt lat="47.30648" lon="6.03393">
        <ele>479</ele>
        <time>2021-09-05T08:37:39Z</time>
      </trkpt>
      <trkpt lat="47.30648" lon="6.03396">
        <ele>479</ele>
        <time>2021-09-05T08:37:40Z</time>
      </trkpt>
      <trkpt lat="47.30649" lon="6.03398">
        <ele>479</ele>
        <time>2021-09-05T08:37:41Z</time>
      </trkpt>
      <trkpt lat="47.30651" lon="6.03401">
        <ele>479.4</ele>
        <time>2021-09-05T08:37:42Z</time>
      </trkpt>
      <trkpt lat="47.30651" lon="6.03403">
        <ele>479.4</ele>
        <time>2021-09-05T08:37:43Z</time>
      </trkpt>
      <trkpt lat="47.30653" lon="6.03406">
        <ele>479.6</ele>
        <time>2021-09-05T08:37:44Z</time>
      </trkpt>
      <trkpt lat="47.30654" lon="6.03409">
        <ele>479.8</ele>
        <time>2021-09-05T08:37:45Z</time>
      </trkpt>
      <trkpt lat="47.30655" lon="6.03412">
        <ele>480</ele>
        <time>2021-09-05T08:37:46Z</time>
      </trkpt>
      <trkpt lat="47.30656" lon="6.03415">
        <ele>480</ele>
        <time>2021-09-05T08:37:47Z</time>
      </trkpt>
      <trkpt lat="47.30658" lon="6.03418">
        <ele>480.2</ele>
        <time>2021-09-05T08:37:48Z</time>
      </trkpt>
      <trkpt lat="47.30659" lon="6.03421">
        <ele>480.4</ele>
        <time>2021-09-05T08:37:49Z</time>
      </trkpt>
      <trkpt lat="47.3066" lon="6.03424">
        <ele>480.4</ele>
        <time>2021-09-05T08:37:50Z</time>
      </trkpt>
      <trkpt lat="47.30661" lon="6.03427">
        <ele>480.6</ele>
        <time>2021-09-05T08:37:51Z</time>
      </trkpt>
      <trkpt lat="47.30662" lon="6.03429">
        <ele>480.8</ele>
        <time>2021-09-05T08:37:52Z</time>
      </trkpt>
      <trkpt lat="47.30663" lon="6.03432">
        <ele>481</ele>
        <time>2021-09-05T08:37:53Z</time>
      </trkpt>
      <trkpt lat="47.30664" lon="6.03434">
        <ele>481</ele>
        <time>2021-09-05T08:37:54Z</time>
      </trkpt>
      <trkpt lat="47.30666" lon="6.03437">
        <ele>481.2</ele>
        <time>2021-09-05T08:37:55Z</time>
      </trkpt>
      <trkpt lat="47.30667" lon="6.03439">
        <ele>481.2</ele>
        <time>2021-09-05T08:37:56Z</time>
      </trkpt>
      <trkpt lat="47.30669" lon="6.03442">
        <ele>481.2</ele>
        <time>2021-09-05T08:37:57Z</time>
      </trkpt>
      <trkpt lat="47.3067" lon="6.03445">
        <ele>481.4</ele>
        <time>2021-09-05T08:37:58Z</time>
      </trkpt>
      <trkpt lat="47.30671" lon="6.03448">
        <ele>481.4</ele>
        <time>2021-09-05T08:37:59Z</time>
      </trkpt>
      <trkpt lat="47.30672" lon="6.03451">
        <ele>481.6</ele>
        <time>2021-09-05T08:38:00Z</time>
      </trkpt>
      <trkpt lat="47.30673" lon="6.03453">
        <ele>481.6</ele>
        <time>2021-09-05T08:38:01Z</time>
      </trkpt>
      <trkpt lat="47.30674" lon="6.03454">
        <ele>481.8</ele>
        <time>2021-09-05T08:38:02Z</time>
      </trkpt>
      <trkpt lat="47.30675" lon="6.03457">
        <ele>481.8</ele>
        <time>2021-09-05T08:38:03Z</time>
      </trkpt>
      <trkpt lat="47.30675" lon="6.03459">
        <ele>482</ele>
        <time>2021-09-05T08:38:04Z</time>
      </trkpt>
      <trkpt lat="47.30676" lon="6.03461">
        <ele>482</ele>
        <time>2021-09-05T08:38:05Z</time>
      </trkpt>
      <trkpt lat="47.30677" lon="6.03464">
        <ele>482.2</ele>
        <time>2021-09-05T08:38:06Z</time>
      </trkpt>
      <trkpt lat="47.30678" lon="6.03467">
        <ele>482.4</ele>
        <time>2021-09-05T08:38:07Z</time>
      </trkpt>
      <trkpt lat="47.30679" lon="6.03469">
        <ele>482.4</ele>
        <time>2021-09-05T08:38:08Z</time>
      </trkpt>
      <trkpt lat="47.30679" lon="6.03471">
        <ele>482.6</ele>
        <time>2021-09-05T08:38:09Z</time>
      </trkpt>
      <trkpt lat="47.3068" lon="6.03473">
        <ele>482.8</ele>
        <time>2021-09-05T08:38:10Z</time>
      </trkpt>
      <trkpt lat="47.30682" lon="6.03476">
        <ele>483</ele>
        <time>2021-09-05T08:38:11Z</time>
      </trkpt>
      <trkpt lat="47.30683" lon="6.03478">
        <ele>483</ele>
        <time>2021-09-05T08:38:12Z</time>
      </trkpt>
      <trkpt lat="47.30685" lon="6.03481">
        <ele>483.2</ele>
        <time>2021-09-05T08:38:13Z</time>
      </trkpt>
      <trkpt lat="47.30686" lon="6.03483">
        <ele>483.4</ele>
        <time>2021-09-05T08:38:14Z</time>
      </trkpt>
      <trkpt lat="47.30687" lon="6.03486">
        <ele>483.4</ele>
        <time>2021-09-05T08:38:15Z</time>
      </trkpt>
      <trkpt lat="47.30688" lon="6.03488">
        <ele>483.6</ele>
        <time>2021-09-05T08:38:16Z</time>
      </trkpt>
      <trkpt lat="47.30688" lon="6.0349">
        <ele>483.4</ele>
        <time>2021-09-05T08:38:17Z</time>
      </trkpt>
      <trkpt lat="47.3069" lon="6.03493">
        <ele>483.6</ele>
        <time>2021-09-05T08:38:18Z</time>
      </trkpt>
      <trkpt lat="47.30691" lon="6.03496">
        <ele>483.6</ele>
        <time>2021-09-05T08:38:19Z</time>
      </trkpt>
      <trkpt lat="47.30692" lon="6.03499">
        <ele>483.6</ele>
        <time>2021-09-05T08:38:20Z</time>
      </trkpt>
      <trkpt lat="47.30692" lon="6.03501">
        <ele>483.8</ele>
        <time>2021-09-05T08:38:21Z</time>
      </trkpt>
      <trkpt lat="47.30693" lon="6.03504">
        <ele>483.8</ele>
        <time>2021-09-05T08:38:22Z</time>
      </trkpt>
      <trkpt lat="47.30694" lon="6.03507">
        <ele>484</ele>
        <time>2021-09-05T08:38:23Z</time>
      </trkpt>
      <trkpt lat="47.30695" lon="6.03509">
        <ele>484</ele>
        <time>2021-09-05T08:38:24Z</time>
      </trkpt>
      <trkpt lat="47.30695" lon="6.03511">
        <ele>484.2</ele>
        <time>2021-09-05T08:38:25Z</time>
      </trkpt>
      <trkpt lat="47.30696" lon="6.03514">
        <ele>484.4</ele>
        <time>2021-09-05T08:38:26Z</time>
      </trkpt>
      <trkpt lat="47.30698" lon="6.03517">
        <ele>484.6</ele>
        <time>2021-09-05T08:38:27Z</time>
      </trkpt>
      <trkpt lat="47.30699" lon="6.03521">
        <ele>484.6</ele>
        <time>2021-09-05T08:38:28Z</time>
      </trkpt>
      <trkpt lat="47.30702" lon="6.03524">
        <ele>484.8</ele>
        <time>2021-09-05T08:38:29Z</time>
      </trkpt>
      <trkpt lat="47.30704" lon="6.03527">
        <ele>485</ele>
        <time>2021-09-05T08:38:30Z</time>
      </trkpt>
      <trkpt lat="47.30706" lon="6.0353">
        <ele>485.2</ele>
        <time>2021-09-05T08:38:31Z</time>
      </trkpt>
      <trkpt lat="47.30707" lon="6.03533">
        <ele>485.4</ele>
        <time>2021-09-05T08:38:32Z</time>
      </trkpt>
      <trkpt lat="47.30709" lon="6.03536">
        <ele>485.4</ele>
        <time>2021-09-05T08:38:33Z</time>
      </trkpt>
      <trkpt lat="47.3071" lon="6.03539">
        <ele>485.6</ele>
        <time>2021-09-05T08:38:34Z</time>
      </trkpt>
      <trkpt lat="47.30712" lon="6.03542">
        <ele>485.6</ele>
        <time>2021-09-05T08:38:35Z</time>
      </trkpt>
      <trkpt lat="47.30714" lon="6.03544">
        <ele>486</ele>
        <time>2021-09-05T08:38:36Z</time>
      </trkpt>
      <trkpt lat="47.30715" lon="6.03547">
        <ele>486.2</ele>
        <time>2021-09-05T08:38:37Z</time>
      </trkpt>
      <trkpt lat="47.30716" lon="6.03549">
        <ele>486.2</ele>
        <time>2021-09-05T08:38:38Z</time>
      </trkpt>
      <trkpt lat="47.30717" lon="6.03552">
        <ele>486.4</ele>
        <time>2021-09-05T08:38:39Z</time>
      </trkpt>
      <trkpt lat="47.30719" lon="6.03555">
        <ele>486.4</ele>
        <time>2021-09-05T08:38:40Z</time>
      </trkpt>
      <trkpt lat="47.3072" lon="6.03559">
        <ele>486.6</ele>
        <time>2021-09-05T08:38:41Z</time>
      </trkpt>
      <trkpt lat="47.30721" lon="6.03561">
        <ele>486.6</ele>
        <time>2021-09-05T08:38:42Z</time>
      </trkpt>
      <trkpt lat="47.30722" lon="6.03564">
        <ele>486.8</ele>
        <time>2021-09-05T08:38:43Z</time>
      </trkpt>
      <trkpt lat="47.30723" lon="6.03565">
        <ele>486.8</ele>
        <time>2021-09-05T08:38:44Z</time>
      </trkpt>
      <trkpt lat="47.30724" lon="6.03568">
        <ele>486.8</ele>
        <time>2021-09-05T08:38:45Z</time>
      </trkpt>
      <trkpt lat="47.30725" lon="6.0357">
        <ele>487</ele>
        <time>2021-09-05T08:38:46Z</time>
      </trkpt>
      <trkpt lat="47.30726" lon="6.03572">
        <ele>487.2</ele>
        <time>2021-09-05T08:38:47Z</time>
      </trkpt>
      <trkpt lat="47.30727" lon="6.03575">
        <ele>487.4</ele>
        <time>2021-09-05T08:38:48Z</time>
      </trkpt>
      <trkpt lat="47.30728" lon="6.03577">
        <ele>487.4</ele>
        <time>2021-09-05T08:38:49Z</time>
      </trkpt>
      <trkpt lat="47.30729" lon="6.03579">
        <ele>487.6</ele>
        <time>2021-09-05T08:38:50Z</time>
      </trkpt>
      <trkpt lat="47.3073" lon="6.03581">
        <ele>487.8</ele>
        <time>2021-09-05T08:38:51Z</time>
      </trkpt>
      <trkpt lat="47.30731" lon="6.03584">
        <ele>488.2</ele>
        <time>2021-09-05T08:38:52Z</time>
      </trkpt>
      <trkpt lat="47.30732" lon="6.03585">
        <ele>488.2</ele>
        <time>2021-09-05T08:38:53Z</time>
      </trkpt>
      <trkpt lat="47.30732" lon="6.03587">
        <ele>488.4</ele>
        <time>2021-09-05T08:38:54Z</time>
      </trkpt>
      <trkpt lat="47.30733" lon="6.03588">
        <ele>488.6</ele>
        <time>2021-09-05T08:38:55Z</time>
      </trkpt>
      <trkpt lat="47.30734" lon="6.03589">
        <ele>488.6</ele>
        <time>2021-09-05T08:38:56Z</time>
      </trkpt>
      <trkpt lat="47.30734" lon="6.03591">
        <ele>488.8</ele>
        <time>2021-09-05T08:38:57Z</time>
      </trkpt>
      <trkpt lat="47.30735" lon="6.03592">
        <ele>488.8</ele>
        <time>2021-09-05T08:38:58Z</time>
      </trkpt>
      <trkpt lat="47.30736" lon="6.03594">
        <ele>489</ele>
        <time>2021-09-05T08:38:59Z</time>
      </trkpt>
      <trkpt lat="47.30737" lon="6.03596">
        <ele>489.2</ele>
        <time>2021-09-05T08:39:00Z</time>
      </trkpt>
      <trkpt lat="47.30738" lon="6.03598">
        <ele>489.4</ele>
        <time>2021-09-05T08:39:01Z</time>
      </trkpt>
      <trkpt lat="47.30738" lon="6.036">
        <ele>489.6</ele>
        <time>2021-09-05T08:39:02Z</time>
      </trkpt>
      <trkpt lat="47.30739" lon="6.03603">
        <ele>489.8</ele>
        <time>2021-09-05T08:39:03Z</time>
      </trkpt>
      <trkpt lat="47.3074" lon="6.03606">
        <ele>489.8</ele>
        <time>2021-09-05T08:39:04Z</time>
      </trkpt>
      <trkpt lat="47.30741" lon="6.03608">
        <ele>489.8</ele>
        <time>2021-09-05T08:39:05Z</time>
      </trkpt>
      <trkpt lat="47.30742" lon="6.03611">
        <ele>490</ele>
        <time>2021-09-05T08:39:06Z</time>
      </trkpt>
      <trkpt lat="47.30743" lon="6.03613">
        <ele>490</ele>
        <time>2021-09-05T08:39:07Z</time>
      </trkpt>
      <trkpt lat="47.30745" lon="6.03616">
        <ele>490</ele>
        <time>2021-09-05T08:39:08Z</time>
      </trkpt>
      <trkpt lat="47.30746" lon="6.03619">
        <ele>490</ele>
        <time>2021-09-05T08:39:09Z</time>
      </trkpt>
      <trkpt lat="47.30747" lon="6.03621">
        <ele>490</ele>
        <time>2021-09-05T08:39:10Z</time>
      </trkpt>
      <trkpt lat="47.30748" lon="6.03623">
        <ele>490.2</ele>
        <time>2021-09-05T08:39:11Z</time>
      </trkpt>
      <trkpt lat="47.30748" lon="6.03626">
        <ele>490.2</ele>
        <time>2021-09-05T08:39:12Z</time>
      </trkpt>
      <trkpt lat="47.30749" lon="6.03628">
        <ele>490.4</ele>
        <time>2021-09-05T08:39:13Z</time>
      </trkpt>
      <trkpt lat="47.3075" lon="6.0363">
        <ele>490.4</ele>
        <time>2021-09-05T08:39:14Z</time>
      </trkpt>
      <trkpt lat="47.30751" lon="6.03633">
        <ele>490.8</ele>
        <time>2021-09-05T08:39:15Z</time>
      </trkpt>
      <trkpt lat="47.30752" lon="6.03636">
        <ele>491</ele>
        <time>2021-09-05T08:39:16Z</time>
      </trkpt>
      <trkpt lat="47.30753" lon="6.03638">
        <ele>491</ele>
        <time>2021-09-05T08:39:17Z</time>
      </trkpt>
      <trkpt lat="47.30753" lon="6.03641">
        <ele>491</ele>
        <time>2021-09-05T08:39:18Z</time>
      </trkpt>
      <trkpt lat="47.30754" lon="6.03644">
        <ele>491</ele>
        <time>2021-09-05T08:39:19Z</time>
      </trkpt>
      <trkpt lat="47.30755" lon="6.03646">
        <ele>491.2</ele>
        <time>2021-09-05T08:39:20Z</time>
      </trkpt>
      <trkpt lat="47.30755" lon="6.03649">
        <ele>491.2</ele>
        <time>2021-09-05T08:39:21Z</time>
      </trkpt>
      <trkpt lat="47.30755" lon="6.03651">
        <ele>491.4</ele>
        <time>2021-09-05T08:39:22Z</time>
      </trkpt>
      <trkpt lat="47.30755" lon="6.03653">
        <ele>491.6</ele>
        <time>2021-09-05T08:39:23Z</time>
      </trkpt>
      <trkpt lat="47.30756" lon="6.03656">
        <ele>491.6</ele>
        <time>2021-09-05T08:39:24Z</time>
      </trkpt>
      <trkpt lat="47.30758" lon="6.03658">
        <ele>491.6</ele>
        <time>2021-09-05T08:39:25Z</time>
      </trkpt>
      <trkpt lat="47.30759" lon="6.0366">
        <ele>491.6</ele>
        <time>2021-09-05T08:39:26Z</time>
      </trkpt>
      <trkpt lat="47.3076" lon="6.03662">
        <ele>491.6</ele>
        <time>2021-09-05T08:39:27Z</time>
      </trkpt>
      <trkpt lat="47.30761" lon="6.03664">
        <ele>491.8</ele>
        <time>2021-09-05T08:39:28Z</time>
      </trkpt>
      <trkpt lat="47.30763" lon="6.03666">
        <ele>492</ele>
        <time>2021-09-05T08:39:29Z</time>
      </trkpt>
      <trkpt lat="47.30764" lon="6.03669">
        <ele>492.2</ele>
        <time>2021-09-05T08:39:30Z</time>
      </trkpt>
      <trkpt lat="47.30765" lon="6.03671">
        <ele>492.4</ele>
        <time>2021-09-05T08:39:31Z</time>
      </trkpt>
      <trkpt lat="47.30766" lon="6.03673">
        <ele>492.4</ele>
        <time>2021-09-05T08:39:32Z</time>
      </trkpt>
      <trkpt lat="47.30767" lon="6.03676">
        <ele>492.6</ele>
        <time>2021-09-05T08:39:33Z</time>
      </trkpt>
      <trkpt lat="47.30769" lon="6.03679">
        <ele>492.8</ele>
        <time>2021-09-05T08:39:34Z</time>
      </trkpt>
      <trkpt lat="47.30771" lon="6.03681">
        <ele>492.8</ele>
        <time>2021-09-05T08:39:35Z</time>
      </trkpt>
      <trkpt lat="47.30772" lon="6.03685">
        <ele>493</ele>
        <time>2021-09-05T08:39:36Z</time>
      </trkpt>
      <trkpt lat="47.30774" lon="6.03688">
        <ele>493</ele>
        <time>2021-09-05T08:39:37Z</time>
      </trkpt>
      <trkpt lat="47.30775" lon="6.0369">
        <ele>493.2</ele>
        <time>2021-09-05T08:39:38Z</time>
      </trkpt>
      <trkpt lat="47.30775" lon="6.03694">
        <ele>493.4</ele>
        <time>2021-09-05T08:39:39Z</time>
      </trkpt>
      <trkpt lat="47.30775" lon="6.03696">
        <ele>493.6</ele>
        <time>2021-09-05T08:39:40Z</time>
      </trkpt>
      <trkpt lat="47.30775" lon="6.03698">
        <ele>493.8</ele>
        <time>2021-09-05T08:39:41Z</time>
      </trkpt>
      <trkpt lat="47.30775" lon="6.03701">
        <ele>493.8</ele>
        <time>2021-09-05T08:39:42Z</time>
      </trkpt>
      <trkpt lat="47.30777" lon="6.03705">
        <ele>493.8</ele>
        <time>2021-09-05T08:39:43Z</time>
      </trkpt>
      <trkpt lat="47.30778" lon="6.03708">
        <ele>494</ele>
        <time>2021-09-05T08:39:44Z</time>
      </trkpt>
      <trkpt lat="47.30779" lon="6.03711">
        <ele>494.2</ele>
        <time>2021-09-05T08:39:45Z</time>
      </trkpt>
      <trkpt lat="47.30779" lon="6.03713">
        <ele>494</ele>
        <time>2021-09-05T08:39:46Z</time>
      </trkpt>
      <trkpt lat="47.3078" lon="6.03715">
        <ele>494</ele>
        <time>2021-09-05T08:39:47Z</time>
      </trkpt>
      <trkpt lat="47.3078" lon="6.03718">
        <ele>494.2</ele>
        <time>2021-09-05T08:39:48Z</time>
      </trkpt>
      <trkpt lat="47.3078" lon="6.03722">
        <ele>494.4</ele>
        <time>2021-09-05T08:39:49Z</time>
      </trkpt>
      <trkpt lat="47.30783" lon="6.03726">
        <ele>494.6</ele>
        <time>2021-09-05T08:39:50Z</time>
      </trkpt>
      <trkpt lat="47.30783" lon="6.03729">
        <ele>494.6</ele>
        <time>2021-09-05T08:39:51Z</time>
      </trkpt>
      <trkpt lat="47.30785" lon="6.03732">
        <ele>494.8</ele>
        <time>2021-09-05T08:39:52Z</time>
      </trkpt>
      <trkpt lat="47.30787" lon="6.03737">
        <ele>494.8</ele>
        <time>2021-09-05T08:39:53Z</time>
      </trkpt>
      <trkpt lat="47.30788" lon="6.0374">
        <ele>495</ele>
        <time>2021-09-05T08:39:54Z</time>
      </trkpt>
      <trkpt lat="47.30788" lon="6.03744">
        <ele>495.2</ele>
        <time>2021-09-05T08:39:55Z</time>
      </trkpt>
      <trkpt lat="47.30788" lon="6.03748">
        <ele>495.4</ele>
        <time>2021-09-05T08:39:56Z</time>
      </trkpt>
      <trkpt lat="47.30788" lon="6.0375">
        <ele>495.4</ele>
        <time>2021-09-05T08:39:57Z</time>
      </trkpt>
      <trkpt lat="47.30789" lon="6.03753">
        <ele>495.6</ele>
        <time>2021-09-05T08:39:58Z</time>
      </trkpt>
      <trkpt lat="47.30789" lon="6.03757">
        <ele>495.8</ele>
        <time>2021-09-05T08:39:59Z</time>
      </trkpt>
      <trkpt lat="47.30791" lon="6.03761">
        <ele>495.8</ele>
        <time>2021-09-05T08:40:00Z</time>
      </trkpt>
      <trkpt lat="47.30792" lon="6.03763">
        <ele>496</ele>
        <time>2021-09-05T08:40:01Z</time>
      </trkpt>
      <trkpt lat="47.30791" lon="6.03766">
        <ele>496</ele>
        <time>2021-09-05T08:40:02Z</time>
      </trkpt>
      <trkpt lat="47.30791" lon="6.03767">
        <ele>496.2</ele>
        <time>2021-09-05T08:40:03Z</time>
      </trkpt>
      <trkpt lat="47.30791" lon="6.0377">
        <ele>496.4</ele>
        <time>2021-09-05T08:40:04Z</time>
      </trkpt>
      <trkpt lat="47.30793" lon="6.03773">
        <ele>496.4</ele>
        <time>2021-09-05T08:40:05Z</time>
      </trkpt>
      <trkpt lat="47.30795" lon="6.03777">
        <ele>496.4</ele>
        <time>2021-09-05T08:40:06Z</time>
      </trkpt>
      <trkpt lat="47.30795" lon="6.0378">
        <ele>496.4</ele>
        <time>2021-09-05T08:40:07Z</time>
      </trkpt>
      <trkpt lat="47.30796" lon="6.03783">
        <ele>496.6</ele>
        <time>2021-09-05T08:40:08Z</time>
      </trkpt>
      <trkpt lat="47.30795" lon="6.03786">
        <ele>496.6</ele>
        <time>2021-09-05T08:40:09Z</time>
      </trkpt>
      <trkpt lat="47.30796" lon="6.03789">
        <ele>496.8</ele>
        <time>2021-09-05T08:40:10Z</time>
      </trkpt>
      <trkpt lat="47.30797" lon="6.03792">
        <ele>497</ele>
        <time>2021-09-05T08:40:11Z</time>
      </trkpt>
      <trkpt lat="47.30797" lon="6.03794">
        <ele>497</ele>
        <time>2021-09-05T08:40:12Z</time>
      </trkpt>
      <trkpt lat="47.30797" lon="6.03796">
        <ele>497.2</ele>
        <time>2021-09-05T08:40:13Z</time>
      </trkpt>
      <trkpt lat="47.30797" lon="6.03798">
        <ele>497.4</ele>
        <time>2021-09-05T08:40:14Z</time>
      </trkpt>
      <trkpt lat="47.30798" lon="6.03801">
        <ele>497.8</ele>
        <time>2021-09-05T08:40:15Z</time>
      </trkpt>
      <trkpt lat="47.30798" lon="6.03804">
        <ele>497.8</ele>
        <time>2021-09-05T08:40:16Z</time>
      </trkpt>
      <trkpt lat="47.30799" lon="6.03806">
        <ele>498</ele>
        <time>2021-09-05T08:40:17Z</time>
      </trkpt>
      <trkpt lat="47.30799" lon="6.03808">
        <ele>498</ele>
        <time>2021-09-05T08:40:18Z</time>
      </trkpt>
      <trkpt lat="47.308" lon="6.03811">
        <ele>498</ele>
        <time>2021-09-05T08:40:19Z</time>
      </trkpt>
      <trkpt lat="47.308" lon="6.03813">
        <ele>498.2</ele>
        <time>2021-09-05T08:40:20Z</time>
      </trkpt>
      <trkpt lat="47.308" lon="6.03815">
        <ele>498.2</ele>
        <time>2021-09-05T08:40:21Z</time>
      </trkpt>
      <trkpt lat="47.308" lon="6.03817">
        <ele>498.4</ele>
        <time>2021-09-05T08:40:22Z</time>
      </trkpt>
      <trkpt lat="47.30801" lon="6.0382">
        <ele>498.4</ele>
        <time>2021-09-05T08:40:23Z</time>
      </trkpt>
      <trkpt lat="47.30801" lon="6.03822">
        <ele>498.8</ele>
        <time>2021-09-05T08:40:24Z</time>
      </trkpt>
      <trkpt lat="47.30802" lon="6.03824">
        <ele>498.8</ele>
        <time>2021-09-05T08:40:25Z</time>
      </trkpt>
      <trkpt lat="47.30803" lon="6.03828">
        <ele>499</ele>
        <time>2021-09-05T08:40:26Z</time>
      </trkpt>
      <trkpt lat="47.30803" lon="6.0383">
        <ele>499.2</ele>
        <time>2021-09-05T08:40:27Z</time>
      </trkpt>
      <trkpt lat="47.30803" lon="6.03833">
        <ele>499.4</ele>
        <time>2021-09-05T08:40:28Z</time>
      </trkpt>
      <trkpt lat="47.30803" lon="6.03836">
        <ele>499.4</ele>
        <time>2021-09-05T08:40:29Z</time>
      </trkpt>
      <trkpt lat="47.30803" lon="6.03839">
        <ele>499.4</ele>
        <time>2021-09-05T08:40:30Z</time>
      </trkpt>
      <trkpt lat="47.30804" lon="6.03843">
        <ele>499.6</ele>
        <time>2021-09-05T08:40:31Z</time>
      </trkpt>
      <trkpt lat="47.30805" lon="6.03847">
        <ele>499.6</ele>
        <time>2021-09-05T08:40:32Z</time>
      </trkpt>
      <trkpt lat="47.30805" lon="6.03851">
        <ele>499.8</ele>
        <time>2021-09-05T08:40:33Z</time>
      </trkpt>
      <trkpt lat="47.30805" lon="6.03854">
        <ele>500</ele>
        <time>2021-09-05T08:40:34Z</time>
      </trkpt>
      <trkpt lat="47.30805" lon="6.03857">
        <ele>500</ele>
        <time>2021-09-05T08:40:35Z</time>
      </trkpt>
      <trkpt lat="47.30805" lon="6.0386">
        <ele>500</ele>
        <time>2021-09-05T08:40:36Z</time>
      </trkpt>
      <trkpt lat="47.30806" lon="6.03863">
        <ele>500.4</ele>
        <time>2021-09-05T08:40:37Z</time>
      </trkpt>
      <trkpt lat="47.30806" lon="6.03867">
        <ele>500.4</ele>
        <time>2021-09-05T08:40:38Z</time>
      </trkpt>
      <trkpt lat="47.30807" lon="6.03871">
        <ele>500.4</ele>
        <time>2021-09-05T08:40:39Z</time>
      </trkpt>
      <trkpt lat="47.30808" lon="6.03875">
        <ele>500.6</ele>
        <time>2021-09-05T08:40:40Z</time>
      </trkpt>
      <trkpt lat="47.30808" lon="6.03879">
        <ele>500.6</ele>
        <time>2021-09-05T08:40:41Z</time>
      </trkpt>
      <trkpt lat="47.30808" lon="6.03881">
        <ele>501</ele>
        <time>2021-09-05T08:40:42Z</time>
      </trkpt>
      <trkpt lat="47.30808" lon="6.03884">
        <ele>501</ele>
        <time>2021-09-05T08:40:43Z</time>
      </trkpt>
      <trkpt lat="47.30809" lon="6.03887">
        <ele>501.2</ele>
        <time>2021-09-05T08:40:44Z</time>
      </trkpt>
      <trkpt lat="47.30809" lon="6.0389">
        <ele>501.4</ele>
        <time>2021-09-05T08:40:45Z</time>
      </trkpt>
      <trkpt lat="47.3081" lon="6.03893">
        <ele>501.4</ele>
        <time>2021-09-05T08:40:46Z</time>
      </trkpt>
      <trkpt lat="47.3081" lon="6.03895">
        <ele>501.6</ele>
        <time>2021-09-05T08:40:47Z</time>
      </trkpt>
      <trkpt lat="47.30811" lon="6.03899">
        <ele>501.6</ele>
        <time>2021-09-05T08:40:48Z</time>
      </trkpt>
      <trkpt lat="47.30811" lon="6.03901">
        <ele>501.6</ele>
        <time>2021-09-05T08:40:49Z</time>
      </trkpt>
      <trkpt lat="47.30812" lon="6.03904">
        <ele>501.6</ele>
        <time>2021-09-05T08:40:50Z</time>
      </trkpt>
      <trkpt lat="47.30812" lon="6.03907">
        <ele>501.8</ele>
        <time>2021-09-05T08:40:51Z</time>
      </trkpt>
      <trkpt lat="47.30812" lon="6.03909">
        <ele>501.8</ele>
        <time>2021-09-05T08:40:52Z</time>
      </trkpt>
      <trkpt lat="47.30812" lon="6.03912">
        <ele>502</ele>
        <time>2021-09-05T08:40:53Z</time>
      </trkpt>
      <trkpt lat="47.30812" lon="6.03915">
        <ele>502</ele>
        <time>2021-09-05T08:40:54Z</time>
      </trkpt>
      <trkpt lat="47.30812" lon="6.03918">
        <ele>502</ele>
        <time>2021-09-05T08:40:55Z</time>
      </trkpt>
      <trkpt lat="47.30812" lon="6.03921">
        <ele>502</ele>
        <time>2021-09-05T08:40:56Z</time>
      </trkpt>
      <trkpt lat="47.30812" lon="6.03924">
        <ele>502</ele>
        <time>2021-09-05T08:40:57Z</time>
      </trkpt>
      <trkpt lat="47.30812" lon="6.03927">
        <ele>502.2</ele>
        <time>2021-09-05T08:40:58Z</time>
      </trkpt>
      <trkpt lat="47.30813" lon="6.0393">
        <ele>502.2</ele>
        <time>2021-09-05T08:40:59Z</time>
      </trkpt>
      <trkpt lat="47.30813" lon="6.03933">
        <ele>502.2</ele>
        <time>2021-09-05T08:41:00Z</time>
      </trkpt>
      <trkpt lat="47.30813" lon="6.03937">
        <ele>502.4</ele>
        <time>2021-09-05T08:41:01Z</time>
      </trkpt>
      <trkpt lat="47.30813" lon="6.03939">
        <ele>502.8</ele>
        <time>2021-09-05T08:41:02Z</time>
      </trkpt>
      <trkpt lat="47.30813" lon="6.03942">
        <ele>503</ele>
        <time>2021-09-05T08:41:03Z</time>
      </trkpt>
      <trkpt lat="47.30813" lon="6.03952">
        <ele>503.4</ele>
        <time>2021-09-05T08:41:06Z</time>
      </trkpt>
      <trkpt lat="47.30813" lon="6.03955">
        <ele>503.6</ele>
        <time>2021-09-05T08:41:07Z</time>
      </trkpt>
      <trkpt lat="47.30814" lon="6.03959">
        <ele>503.8</ele>
        <time>2021-09-05T08:41:08Z</time>
      </trkpt>
      <trkpt lat="47.30815" lon="6.03962">
        <ele>503.8</ele>
        <time>2021-09-05T08:41:09Z</time>
      </trkpt>
      <trkpt lat="47.30815" lon="6.03965">
        <ele>504</ele>
        <time>2021-09-05T08:41:10Z</time>
      </trkpt>
      <trkpt lat="47.30815" lon="6.03968">
        <ele>504</ele>
        <time>2021-09-05T08:41:11Z</time>
      </trkpt>
      <trkpt lat="47.30815" lon="6.03971">
        <ele>504.4</ele>
        <time>2021-09-05T08:41:12Z</time>
      </trkpt>
      <trkpt lat="47.30816" lon="6.03975">
        <ele>504.4</ele>
        <time>2021-09-05T08:41:13Z</time>
      </trkpt>
      <trkpt lat="47.30815" lon="6.03979">
        <ele>504.6</ele>
        <time>2021-09-05T08:41:14Z</time>
      </trkpt>
      <trkpt lat="47.30815" lon="6.03983">
        <ele>504.6</ele>
        <time>2021-09-05T08:41:15Z</time>
      </trkpt>
      <trkpt lat="47.30815" lon="6.03987">
        <ele>504.6</ele>
        <time>2021-09-05T08:41:16Z</time>
      </trkpt>
      <trkpt lat="47.30814" lon="6.03991">
        <ele>504.8</ele>
        <time>2021-09-05T08:41:17Z</time>
      </trkpt>
      <trkpt lat="47.30815" lon="6.03995">
        <ele>504.8</ele>
        <time>2021-09-05T08:41:18Z</time>
      </trkpt>
      <trkpt lat="47.30814" lon="6.03999">
        <ele>504.8</ele>
        <time>2021-09-05T08:41:19Z</time>
      </trkpt>
      <trkpt lat="47.30815" lon="6.04002">
        <ele>504.8</ele>
        <time>2021-09-05T08:41:20Z</time>
      </trkpt>
      <trkpt lat="47.30815" lon="6.04006">
        <ele>505</ele>
        <time>2021-09-05T08:41:21Z</time>
      </trkpt>
      <trkpt lat="47.30816" lon="6.0401">
        <ele>505</ele>
        <time>2021-09-05T08:41:22Z</time>
      </trkpt>
      <trkpt lat="47.30816" lon="6.04015">
        <ele>505</ele>
        <time>2021-09-05T08:41:23Z</time>
      </trkpt>
      <trkpt lat="47.30815" lon="6.04019">
        <ele>505</ele>
        <time>2021-09-05T08:41:24Z</time>
      </trkpt>
      <trkpt lat="47.30815" lon="6.04022">
        <ele>505</ele>
        <time>2021-09-05T08:41:25Z</time>
      </trkpt>
      <trkpt lat="47.30814" lon="6.04025">
        <ele>505</ele>
        <time>2021-09-05T08:41:26Z</time>
      </trkpt>
      <trkpt lat="47.30815" lon="6.04029">
        <ele>505</ele>
        <time>2021-09-05T08:41:27Z</time>
      </trkpt>
      <trkpt lat="47.30814" lon="6.04033">
        <ele>505.2</ele>
        <time>2021-09-05T08:41:28Z</time>
      </trkpt>
      <trkpt lat="47.30814" lon="6.04037">
        <ele>505.2</ele>
        <time>2021-09-05T08:41:29Z</time>
      </trkpt>
      <trkpt lat="47.30813" lon="6.04053">
        <ele>506.2</ele>
        <time>2021-09-05T08:41:34Z</time>
      </trkpt>
      <trkpt lat="47.30813" lon="6.04057">
        <ele>506.2</ele>
        <time>2021-09-05T08:41:35Z</time>
      </trkpt>
      <trkpt lat="47.30814" lon="6.04073">
        <ele>506.8</ele>
        <time>2021-09-05T08:41:39Z</time>
      </trkpt>
      <trkpt lat="47.30814" lon="6.0408">
        <ele>507.2</ele>
        <time>2021-09-05T08:41:41Z</time>
      </trkpt>
      <trkpt lat="47.30815" lon="6.04083">
        <ele>507.2</ele>
        <time>2021-09-05T08:41:42Z</time>
      </trkpt>
      <trkpt lat="47.30816" lon="6.04086">
        <ele>507.4</ele>
        <time>2021-09-05T08:41:43Z</time>
      </trkpt>
      <trkpt lat="47.30817" lon="6.04089">
        <ele>507.6</ele>
        <time>2021-09-05T08:41:44Z</time>
      </trkpt>
      <trkpt lat="47.30818" lon="6.04092">
        <ele>507.6</ele>
        <time>2021-09-05T08:41:45Z</time>
      </trkpt>
      <trkpt lat="47.30819" lon="6.04095">
        <ele>507.8</ele>
        <time>2021-09-05T08:41:46Z</time>
      </trkpt>
      <trkpt lat="47.30821" lon="6.04097">
        <ele>507.8</ele>
        <time>2021-09-05T08:41:47Z</time>
      </trkpt>
      <trkpt lat="47.30822" lon="6.04098">
        <ele>508</ele>
        <time>2021-09-05T08:41:48Z</time>
      </trkpt>
      <trkpt lat="47.30824" lon="6.04099">
        <ele>508</ele>
        <time>2021-09-05T08:41:49Z</time>
      </trkpt>
      <trkpt lat="47.30826" lon="6.04099">
        <ele>508.2</ele>
        <time>2021-09-05T08:41:50Z</time>
      </trkpt>
      <trkpt lat="47.30828" lon="6.04098">
        <ele>508.2</ele>
        <time>2021-09-05T08:41:51Z</time>
      </trkpt>
      <trkpt lat="47.3083" lon="6.04098">
        <ele>508.4</ele>
        <time>2021-09-05T08:41:52Z</time>
      </trkpt>
      <trkpt lat="47.30832" lon="6.04097">
        <ele>508.4</ele>
        <time>2021-09-05T08:41:53Z</time>
      </trkpt>
      <trkpt lat="47.30834" lon="6.04095">
        <ele>508.4</ele>
        <time>2021-09-05T08:41:54Z</time>
      </trkpt>
      <trkpt lat="47.30835" lon="6.04093">
        <ele>508.6</ele>
        <time>2021-09-05T08:41:55Z</time>
      </trkpt>
      <trkpt lat="47.30837" lon="6.04092">
        <ele>508.6</ele>
        <time>2021-09-05T08:41:56Z</time>
      </trkpt>
      <trkpt lat="47.30838" lon="6.0409">
        <ele>508.6</ele>
        <time>2021-09-05T08:41:57Z</time>
      </trkpt>
      <trkpt lat="47.3084" lon="6.04087">
        <ele>508.6</ele>
        <time>2021-09-05T08:41:58Z</time>
      </trkpt>
      <trkpt lat="47.30841" lon="6.04085">
        <ele>509</ele>
        <time>2021-09-05T08:41:59Z</time>
      </trkpt>
      <trkpt lat="47.30842" lon="6.04083">
        <ele>509</ele>
        <time>2021-09-05T08:42:00Z</time>
      </trkpt>
      <trkpt lat="47.30843" lon="6.0408">
        <ele>509.2</ele>
        <time>2021-09-05T08:42:01Z</time>
      </trkpt>
      <trkpt lat="47.30844" lon="6.04078">
        <ele>509.2</ele>
        <time>2021-09-05T08:42:02Z</time>
      </trkpt>
      <trkpt lat="47.30844" lon="6.04076">
        <ele>509.4</ele>
        <time>2021-09-05T08:42:03Z</time>
      </trkpt>
      <trkpt lat="47.30844" lon="6.04073">
        <ele>509.4</ele>
        <time>2021-09-05T08:42:04Z</time>
      </trkpt>
      <trkpt lat="47.30845" lon="6.0407">
        <ele>509.4</ele>
        <time>2021-09-05T08:42:05Z</time>
      </trkpt>
      <trkpt lat="47.30845" lon="6.04067">
        <ele>509.8</ele>
        <time>2021-09-05T08:42:06Z</time>
      </trkpt>
      <trkpt lat="47.30845" lon="6.04064">
        <ele>510</ele>
        <time>2021-09-05T08:42:07Z</time>
      </trkpt>
      <trkpt lat="47.30845" lon="6.04062">
        <ele>510</ele>
        <time>2021-09-05T08:42:08Z</time>
      </trkpt>
      <trkpt lat="47.30846" lon="6.04058">
        <ele>510.2</ele>
        <time>2021-09-05T08:42:09Z</time>
      </trkpt>
      <trkpt lat="47.30846" lon="6.04055">
        <ele>510.2</ele>
        <time>2021-09-05T08:42:10Z</time>
      </trkpt>
      <trkpt lat="47.30847" lon="6.04052">
        <ele>510.4</ele>
        <time>2021-09-05T08:42:11Z</time>
      </trkpt>
      <trkpt lat="47.30847" lon="6.04049">
        <ele>510.4</ele>
        <time>2021-09-05T08:42:12Z</time>
      </trkpt>
      <trkpt lat="47.30848" lon="6.04046">
        <ele>510.4</ele>
        <time>2021-09-05T08:42:13Z</time>
      </trkpt>
      <trkpt lat="47.30849" lon="6.04043">
        <ele>510.4</ele>
        <time>2021-09-05T08:42:14Z</time>
      </trkpt>
      <trkpt lat="47.30849" lon="6.0404">
        <ele>510.4</ele>
        <time>2021-09-05T08:42:15Z</time>
      </trkpt>
      <trkpt lat="47.3085" lon="6.04038">
        <ele>510.6</ele>
        <time>2021-09-05T08:42:16Z</time>
      </trkpt>
      <trkpt lat="47.3085" lon="6.04035">
        <ele>510.6</ele>
        <time>2021-09-05T08:42:17Z</time>
      </trkpt>
      <trkpt lat="47.3085" lon="6.04033">
        <ele>510.6</ele>
        <time>2021-09-05T08:42:18Z</time>
      </trkpt>
      <trkpt lat="47.30851" lon="6.0403">
        <ele>510.6</ele>
        <time>2021-09-05T08:42:19Z</time>
      </trkpt>
      <trkpt lat="47.3085" lon="6.04026">
        <ele>510.6</ele>
        <time>2021-09-05T08:42:20Z</time>
      </trkpt>
      <trkpt lat="47.3085" lon="6.04023">
        <ele>510.6</ele>
        <time>2021-09-05T08:42:21Z</time>
      </trkpt>
      <trkpt lat="47.3085" lon="6.04019">
        <ele>510.6</ele>
        <time>2021-09-05T08:42:22Z</time>
      </trkpt>
      <trkpt lat="47.30851" lon="6.04016">
        <ele>510.8</ele>
        <time>2021-09-05T08:42:23Z</time>
      </trkpt>
      <trkpt lat="47.30851" lon="6.04012">
        <ele>511</ele>
        <time>2021-09-05T08:42:24Z</time>
      </trkpt>
      <trkpt lat="47.30852" lon="6.04004">
        <ele>511.2</ele>
        <time>2021-09-05T08:42:26Z</time>
      </trkpt>
      <trkpt lat="47.30853" lon="6.04">
        <ele>511.2</ele>
        <time>2021-09-05T08:42:27Z</time>
      </trkpt>
      <trkpt lat="47.30853" lon="6.03995">
        <ele>511.4</ele>
        <time>2021-09-05T08:42:28Z</time>
      </trkpt>
      <trkpt lat="47.30854" lon="6.03984">
        <ele>511.4</ele>
        <time>2021-09-05T08:42:31Z</time>
      </trkpt>
      <trkpt lat="47.30854" lon="6.0398">
        <ele>511.6</ele>
        <time>2021-09-05T08:42:32Z</time>
      </trkpt>
      <trkpt lat="47.30854" lon="6.03971">
        <ele>511.8</ele>
        <time>2021-09-05T08:42:34Z</time>
      </trkpt>
      <trkpt lat="47.30852" lon="6.03955">
        <ele>512</ele>
        <time>2021-09-05T08:42:38Z</time>
      </trkpt>
      <trkpt lat="47.30852" lon="6.03942">
        <ele>512.4</ele>
        <time>2021-09-05T08:42:41Z</time>
      </trkpt>
      <trkpt lat="47.30853" lon="6.03938">
        <ele>512.4</ele>
        <time>2021-09-05T08:42:42Z</time>
      </trkpt>
      <trkpt lat="47.30854" lon="6.03935">
        <ele>512.6</ele>
        <time>2021-09-05T08:42:43Z</time>
      </trkpt>
      <trkpt lat="47.30854" lon="6.03931">
        <ele>512.6</ele>
        <time>2021-09-05T08:42:44Z</time>
      </trkpt>
      <trkpt lat="47.30856" lon="6.03926">
        <ele>512.8</ele>
        <time>2021-09-05T08:42:45Z</time>
      </trkpt>
      <trkpt lat="47.30855" lon="6.03922">
        <ele>512.8</ele>
        <time>2021-09-05T08:42:46Z</time>
      </trkpt>
      <trkpt lat="47.30855" lon="6.03917">
        <ele>513</ele>
        <time>2021-09-05T08:42:47Z</time>
      </trkpt>
      <trkpt lat="47.30856" lon="6.03914">
        <ele>513.2</ele>
        <time>2021-09-05T08:42:48Z</time>
      </trkpt>
      <trkpt lat="47.30861" lon="6.03895">
        <ele>513.8</ele>
        <time>2021-09-05T08:42:54Z</time>
      </trkpt>
      <trkpt lat="47.30863" lon="6.03889">
        <ele>513.8</ele>
        <time>2021-09-05T08:42:56Z</time>
      </trkpt>
      <trkpt lat="47.30863" lon="6.03886">
        <ele>514</ele>
        <time>2021-09-05T08:42:57Z</time>
      </trkpt>
      <trkpt lat="47.30864" lon="6.03884">
        <ele>514</ele>
        <time>2021-09-05T08:42:58Z</time>
      </trkpt>
      <trkpt lat="47.30864" lon="6.03881">
        <ele>514.4</ele>
        <time>2021-09-05T08:42:59Z</time>
      </trkpt>
      <trkpt lat="47.30864" lon="6.03877">
        <ele>514.4</ele>
        <time>2021-09-05T08:43:00Z</time>
      </trkpt>
      <trkpt lat="47.30865" lon="6.03874">
        <ele>515</ele>
        <time>2021-09-05T08:43:01Z</time>
      </trkpt>
      <trkpt lat="47.30866" lon="6.03871">
        <ele>515</ele>
        <time>2021-09-05T08:43:02Z</time>
      </trkpt>
      <trkpt lat="47.30867" lon="6.03868">
        <ele>515.4</ele>
        <time>2021-09-05T08:43:03Z</time>
      </trkpt>
      <trkpt lat="47.30868" lon="6.03865">
        <ele>515.4</ele>
        <time>2021-09-05T08:43:04Z</time>
      </trkpt>
      <trkpt lat="47.30869" lon="6.03862">
        <ele>515.6</ele>
        <time>2021-09-05T08:43:05Z</time>
      </trkpt>
      <trkpt lat="47.30869" lon="6.03858">
        <ele>515.6</ele>
        <time>2021-09-05T08:43:06Z</time>
      </trkpt>
      <trkpt lat="47.3087" lon="6.03855">
        <ele>515.8</ele>
        <time>2021-09-05T08:43:07Z</time>
      </trkpt>
      <trkpt lat="47.30871" lon="6.03853">
        <ele>516</ele>
        <time>2021-09-05T08:43:08Z</time>
      </trkpt>
      <trkpt lat="47.30872" lon="6.0385">
        <ele>516</ele>
        <time>2021-09-05T08:43:09Z</time>
      </trkpt>
      <trkpt lat="47.30873" lon="6.03847">
        <ele>516.2</ele>
        <time>2021-09-05T08:43:10Z</time>
      </trkpt>
      <trkpt lat="47.30873" lon="6.03843">
        <ele>516.4</ele>
        <time>2021-09-05T08:43:11Z</time>
      </trkpt>
      <trkpt lat="47.30874" lon="6.0384">
        <ele>516.4</ele>
        <time>2021-09-05T08:43:12Z</time>
      </trkpt>
      <trkpt lat="47.30876" lon="6.03836">
        <ele>516.6</ele>
        <time>2021-09-05T08:43:13Z</time>
      </trkpt>
      <trkpt lat="47.30878" lon="6.03832">
        <ele>516.6</ele>
        <time>2021-09-05T08:43:14Z</time>
      </trkpt>
      <trkpt lat="47.30879" lon="6.03829">
        <ele>516.8</ele>
        <time>2021-09-05T08:43:15Z</time>
      </trkpt>
      <trkpt lat="47.30879" lon="6.03825">
        <ele>517</ele>
        <time>2021-09-05T08:43:16Z</time>
      </trkpt>
      <trkpt lat="47.3088" lon="6.03822">
        <ele>517</ele>
        <time>2021-09-05T08:43:17Z</time>
      </trkpt>
      <trkpt lat="47.3088" lon="6.03819">
        <ele>517.2</ele>
        <time>2021-09-05T08:43:18Z</time>
      </trkpt>
      <trkpt lat="47.30881" lon="6.03816">
        <ele>517.2</ele>
        <time>2021-09-05T08:43:19Z</time>
      </trkpt>
      <trkpt lat="47.30882" lon="6.03812">
        <ele>517.4</ele>
        <time>2021-09-05T08:43:20Z</time>
      </trkpt>
      <trkpt lat="47.30883" lon="6.03808">
        <ele>517.4</ele>
        <time>2021-09-05T08:43:21Z</time>
      </trkpt>
      <trkpt lat="47.30885" lon="6.03804">
        <ele>517.6</ele>
        <time>2021-09-05T08:43:22Z</time>
      </trkpt>
      <trkpt lat="47.30887" lon="6.03801">
        <ele>517.6</ele>
        <time>2021-09-05T08:43:23Z</time>
      </trkpt>
      <trkpt lat="47.30888" lon="6.03798">
        <ele>517.8</ele>
        <time>2021-09-05T08:43:24Z</time>
      </trkpt>
      <trkpt lat="47.30888" lon="6.03795">
        <ele>518</ele>
        <time>2021-09-05T08:43:25Z</time>
      </trkpt>
      <trkpt lat="47.30888" lon="6.03792">
        <ele>518.2</ele>
        <time>2021-09-05T08:43:26Z</time>
      </trkpt>
      <trkpt lat="47.30888" lon="6.03788">
        <ele>518.2</ele>
        <time>2021-09-05T08:43:27Z</time>
      </trkpt>
      <trkpt lat="47.30889" lon="6.03784">
        <ele>518.4</ele>
        <time>2021-09-05T08:43:28Z</time>
      </trkpt>
      <trkpt lat="47.3089" lon="6.03781">
        <ele>518.4</ele>
        <time>2021-09-05T08:43:29Z</time>
      </trkpt>
      <trkpt lat="47.30891" lon="6.03777">
        <ele>518.6</ele>
        <time>2021-09-05T08:43:30Z</time>
      </trkpt>
      <trkpt lat="47.30891" lon="6.03775">
        <ele>518.8</ele>
        <time>2021-09-05T08:43:31Z</time>
      </trkpt>
      <trkpt lat="47.30892" lon="6.03771">
        <ele>519</ele>
        <time>2021-09-05T08:43:32Z</time>
      </trkpt>
      <trkpt lat="47.30893" lon="6.03768">
        <ele>519</ele>
        <time>2021-09-05T08:43:33Z</time>
      </trkpt>
      <trkpt lat="47.30893" lon="6.03765">
        <ele>519.2</ele>
        <time>2021-09-05T08:43:34Z</time>
      </trkpt>
      <trkpt lat="47.30894" lon="6.03763">
        <ele>519.4</ele>
        <time>2021-09-05T08:43:35Z</time>
      </trkpt>
      <trkpt lat="47.30895" lon="6.0376">
        <ele>519.6</ele>
        <time>2021-09-05T08:43:36Z</time>
      </trkpt>
      <trkpt lat="47.30896" lon="6.03757">
        <ele>519.8</ele>
        <time>2021-09-05T08:43:37Z</time>
      </trkpt>
      <trkpt lat="47.30896" lon="6.03754">
        <ele>520</ele>
        <time>2021-09-05T08:43:38Z</time>
      </trkpt>
      <trkpt lat="47.30897" lon="6.03751">
        <ele>520.2</ele>
        <time>2021-09-05T08:43:39Z</time>
      </trkpt>
      <trkpt lat="47.30898" lon="6.03748">
        <ele>520.2</ele>
        <time>2021-09-05T08:43:40Z</time>
      </trkpt>
      <trkpt lat="47.30899" lon="6.03744">
        <ele>520.4</ele>
        <time>2021-09-05T08:43:41Z</time>
      </trkpt>
      <trkpt lat="47.30901" lon="6.03741">
        <ele>520.6</ele>
        <time>2021-09-05T08:43:42Z</time>
      </trkpt>
      <trkpt lat="47.30902" lon="6.03737">
        <ele>520.8</ele>
        <time>2021-09-05T08:43:43Z</time>
      </trkpt>
      <trkpt lat="47.30902" lon="6.03734">
        <ele>520.8</ele>
        <time>2021-09-05T08:43:44Z</time>
      </trkpt>
      <trkpt lat="47.30903" lon="6.0373">
        <ele>521</ele>
        <time>2021-09-05T08:43:45Z</time>
      </trkpt>
      <trkpt lat="47.30903" lon="6.03728">
        <ele>521</ele>
        <time>2021-09-05T08:43:46Z</time>
      </trkpt>
      <trkpt lat="47.30903" lon="6.03724">
        <ele>521</ele>
        <time>2021-09-05T08:43:47Z</time>
      </trkpt>
      <trkpt lat="47.30904" lon="6.0372">
        <ele>521.2</ele>
        <time>2021-09-05T08:43:48Z</time>
      </trkpt>
      <trkpt lat="47.30905" lon="6.03716">
        <ele>521.2</ele>
        <time>2021-09-05T08:43:49Z</time>
      </trkpt>
      <trkpt lat="47.30905" lon="6.03714">
        <ele>521.4</ele>
        <time>2021-09-05T08:43:50Z</time>
      </trkpt>
      <trkpt lat="47.30905" lon="6.0371">
        <ele>521.6</ele>
        <time>2021-09-05T08:43:51Z</time>
      </trkpt>
      <trkpt lat="47.30906" lon="6.03706">
        <ele>521.6</ele>
        <time>2021-09-05T08:43:52Z</time>
      </trkpt>
      <trkpt lat="47.30907" lon="6.03703">
        <ele>521.8</ele>
        <time>2021-09-05T08:43:53Z</time>
      </trkpt>
      <trkpt lat="47.30907" lon="6.037">
        <ele>522</ele>
        <time>2021-09-05T08:43:54Z</time>
      </trkpt>
      <trkpt lat="47.30908" lon="6.03697">
        <ele>522</ele>
        <time>2021-09-05T08:43:55Z</time>
      </trkpt>
      <trkpt lat="47.3091" lon="6.03693">
        <ele>522.2</ele>
        <time>2021-09-05T08:43:56Z</time>
      </trkpt>
      <trkpt lat="47.30911" lon="6.03689">
        <ele>522.2</ele>
        <time>2021-09-05T08:43:57Z</time>
      </trkpt>
      <trkpt lat="47.30911" lon="6.03685">
        <ele>522.4</ele>
        <time>2021-09-05T08:43:58Z</time>
      </trkpt>
      <trkpt lat="47.30911" lon="6.03681">
        <ele>522.6</ele>
        <time>2021-09-05T08:43:59Z</time>
      </trkpt>
      <trkpt lat="47.30913" lon="6.03677">
        <ele>522.8</ele>
        <time>2021-09-05T08:44:00Z</time>
      </trkpt>
      <trkpt lat="47.30914" lon="6.03674">
        <ele>522.8</ele>
        <time>2021-09-05T08:44:01Z</time>
      </trkpt>
      <trkpt lat="47.30915" lon="6.03671">
        <ele>523</ele>
        <time>2021-09-05T08:44:02Z</time>
      </trkpt>
      <trkpt lat="47.30915" lon="6.03668">
        <ele>523</ele>
        <time>2021-09-05T08:44:03Z</time>
      </trkpt>
      <trkpt lat="47.30914" lon="6.03664">
        <ele>523.2</ele>
        <time>2021-09-05T08:44:04Z</time>
      </trkpt>
      <trkpt lat="47.30915" lon="6.0366">
        <ele>523.4</ele>
        <time>2021-09-05T08:44:05Z</time>
      </trkpt>
      <trkpt lat="47.30916" lon="6.03656">
        <ele>523.6</ele>
        <time>2021-09-05T08:44:06Z</time>
      </trkpt>
      <trkpt lat="47.30917" lon="6.03653">
        <ele>524</ele>
        <time>2021-09-05T08:44:07Z</time>
      </trkpt>
      <trkpt lat="47.30918" lon="6.03651">
        <ele>523.8</ele>
        <time>2021-09-05T08:44:08Z</time>
      </trkpt>
      <trkpt lat="47.30918" lon="6.03649">
        <ele>524</ele>
        <time>2021-09-05T08:44:09Z</time>
      </trkpt>
      <trkpt lat="47.30919" lon="6.03645">
        <ele>524.4</ele>
        <time>2021-09-05T08:44:10Z</time>
      </trkpt>
      <trkpt lat="47.3092" lon="6.03642">
        <ele>524.4</ele>
        <time>2021-09-05T08:44:11Z</time>
      </trkpt>
      <trkpt lat="47.3092" lon="6.0364">
        <ele>524.6</ele>
        <time>2021-09-05T08:44:12Z</time>
      </trkpt>
      <trkpt lat="47.30921" lon="6.03639">
        <ele>524.6</ele>
        <time>2021-09-05T08:44:13Z</time>
      </trkpt>
      <trkpt lat="47.3092" lon="6.03637">
        <ele>524.6</ele>
        <time>2021-09-05T08:44:14Z</time>
      </trkpt>
      <trkpt lat="47.30921" lon="6.03636">
        <ele>524.6</ele>
        <time>2021-09-05T08:44:15Z</time>
      </trkpt>
      <trkpt lat="47.30921" lon="6.03635">
        <ele>525</ele>
        <time>2021-09-05T08:44:16Z</time>
      </trkpt>
      <trkpt lat="47.30921" lon="6.03634">
        <ele>525</ele>
        <time>2021-09-05T08:44:17Z</time>
      </trkpt>
      <trkpt lat="47.30921" lon="6.03634">
        <ele>525</ele>
        <time>2021-09-05T08:44:18Z</time>
      </trkpt>
      <trkpt lat="47.30921" lon="6.03634">
        <ele>525.2</ele>
        <time>2021-09-05T08:44:21Z</time>
      </trkpt>
      <trkpt lat="47.30921" lon="6.03634">
        <ele>525.2</ele>
        <time>2021-09-05T08:44:36Z</time>
      </trkpt>
      <trkpt lat="47.30921" lon="6.03635">
        <ele>525</ele>
        <time>2021-09-05T08:45:50Z</time>
      </trkpt>
      <trkpt lat="47.30923" lon="6.03628">
        <ele>524.8</ele>
        <time>2021-09-05T08:46:08Z</time>
      </trkpt>
      <trkpt lat="47.30924" lon="6.03626">
        <ele>525</ele>
        <time>2021-09-05T08:46:09Z</time>
      </trkpt>
      <trkpt lat="47.30924" lon="6.03624">
        <ele>525</ele>
        <time>2021-09-05T08:46:10Z</time>
      </trkpt>
      <trkpt lat="47.30925" lon="6.03623">
        <ele>525</ele>
        <time>2021-09-05T08:46:11Z</time>
      </trkpt>
      <trkpt lat="47.30927" lon="6.03619">
        <ele>525.2</ele>
        <time>2021-09-05T08:46:13Z</time>
      </trkpt>
      <trkpt lat="47.30933" lon="6.03612">
        <ele>525.4</ele>
        <time>2021-09-05T08:46:17Z</time>
      </trkpt>
      <trkpt lat="47.30935" lon="6.03611">
        <ele>525.4</ele>
        <time>2021-09-05T08:46:18Z</time>
      </trkpt>
      <trkpt lat="47.30937" lon="6.03611">
        <ele>525.6</ele>
        <time>2021-09-05T08:46:19Z</time>
      </trkpt>
      <trkpt lat="47.30939" lon="6.03611">
        <ele>525.8</ele>
        <time>2021-09-05T08:46:20Z</time>
      </trkpt>
      <trkpt lat="47.3094" lon="6.03611">
        <ele>526</ele>
        <time>2021-09-05T08:46:21Z</time>
      </trkpt>
      <trkpt lat="47.30942" lon="6.03611">
        <ele>526</ele>
        <time>2021-09-05T08:46:22Z</time>
      </trkpt>
      <trkpt lat="47.30952" lon="6.03615">
        <ele>526.6</ele>
        <time>2021-09-05T08:46:27Z</time>
      </trkpt>
      <trkpt lat="47.30953" lon="6.03617">
        <ele>526.6</ele>
        <time>2021-09-05T08:46:28Z</time>
      </trkpt>
      <trkpt lat="47.30955" lon="6.03618">
        <ele>526.6</ele>
        <time>2021-09-05T08:46:29Z</time>
      </trkpt>
      <trkpt lat="47.30955" lon="6.0362">
        <ele>526.8</ele>
        <time>2021-09-05T08:46:30Z</time>
      </trkpt>
      <trkpt lat="47.30956" lon="6.03622">
        <ele>526.8</ele>
        <time>2021-09-05T08:46:31Z</time>
      </trkpt>
      <trkpt lat="47.30957" lon="6.03624">
        <ele>526.8</ele>
        <time>2021-09-05T08:46:32Z</time>
      </trkpt>
      <trkpt lat="47.30957" lon="6.03627">
        <ele>527</ele>
        <time>2021-09-05T08:46:33Z</time>
      </trkpt>
      <trkpt lat="47.30957" lon="6.0363">
        <ele>527.2</ele>
        <time>2021-09-05T08:46:34Z</time>
      </trkpt>
      <trkpt lat="47.30957" lon="6.03634">
        <ele>527.4</ele>
        <time>2021-09-05T08:46:35Z</time>
      </trkpt>
      <trkpt lat="47.30959" lon="6.03641">
        <ele>527.8</ele>
        <time>2021-09-05T08:46:37Z</time>
      </trkpt>
      <trkpt lat="47.3096" lon="6.03644">
        <ele>527.8</ele>
        <time>2021-09-05T08:46:38Z</time>
      </trkpt>
      <trkpt lat="47.3096" lon="6.03651">
        <ele>528.2</ele>
        <time>2021-09-05T08:46:40Z</time>
      </trkpt>
      <trkpt lat="47.30961" lon="6.03659">
        <ele>528.6</ele>
        <time>2021-09-05T08:46:42Z</time>
      </trkpt>
      <trkpt lat="47.30962" lon="6.03662">
        <ele>528.8</ele>
        <time>2021-09-05T08:46:43Z</time>
      </trkpt>
      <trkpt lat="47.30963" lon="6.03665">
        <ele>529</ele>
        <time>2021-09-05T08:46:44Z</time>
      </trkpt>
      <trkpt lat="47.30963" lon="6.03669">
        <ele>529.2</ele>
        <time>2021-09-05T08:46:45Z</time>
      </trkpt>
      <trkpt lat="47.30964" lon="6.03673">
        <ele>529.4</ele>
        <time>2021-09-05T08:46:46Z</time>
      </trkpt>
      <trkpt lat="47.30964" lon="6.03677">
        <ele>529.6</ele>
        <time>2021-09-05T08:46:47Z</time>
      </trkpt>
      <trkpt lat="47.30964" lon="6.03679">
        <ele>529.8</ele>
        <time>2021-09-05T08:46:48Z</time>
      </trkpt>
      <trkpt lat="47.30964" lon="6.03683">
        <ele>529.8</ele>
        <time>2021-09-05T08:46:49Z</time>
      </trkpt>
      <trkpt lat="47.30964" lon="6.03685">
        <ele>530</ele>
        <time>2021-09-05T08:46:50Z</time>
      </trkpt>
      <trkpt lat="47.30964" lon="6.03688">
        <ele>530</ele>
        <time>2021-09-05T08:46:51Z</time>
      </trkpt>
      <trkpt lat="47.30964" lon="6.03691">
        <ele>530.2</ele>
        <time>2021-09-05T08:46:52Z</time>
      </trkpt>
      <trkpt lat="47.30965" lon="6.03695">
        <ele>530.4</ele>
        <time>2021-09-05T08:46:53Z</time>
      </trkpt>
      <trkpt lat="47.30964" lon="6.03698">
        <ele>530.4</ele>
        <time>2021-09-05T08:46:54Z</time>
      </trkpt>
      <trkpt lat="47.30962" lon="6.03702">
        <ele>530.4</ele>
        <time>2021-09-05T08:46:55Z</time>
      </trkpt>
      <trkpt lat="47.30962" lon="6.03705">
        <ele>530.4</ele>
        <time>2021-09-05T08:46:56Z</time>
      </trkpt>
      <trkpt lat="47.30962" lon="6.03712">
        <ele>530.6</ele>
        <time>2021-09-05T08:46:57Z</time>
      </trkpt>
      <trkpt lat="47.3096" lon="6.03717">
        <ele>530.6</ele>
        <time>2021-09-05T08:46:58Z</time>
      </trkpt>
      <trkpt lat="47.30959" lon="6.03722">
        <ele>530.6</ele>
        <time>2021-09-05T08:46:59Z</time>
      </trkpt>
      <trkpt lat="47.30958" lon="6.03726">
        <ele>530.8</ele>
        <time>2021-09-05T08:47:00Z</time>
      </trkpt>
      <trkpt lat="47.30957" lon="6.0373">
        <ele>530.8</ele>
        <time>2021-09-05T08:47:01Z</time>
      </trkpt>
      <trkpt lat="47.30956" lon="6.03734">
        <ele>531</ele>
        <time>2021-09-05T08:47:02Z</time>
      </trkpt>
      <trkpt lat="47.30955" lon="6.03738">
        <ele>531</ele>
        <time>2021-09-05T08:47:03Z</time>
      </trkpt>
      <trkpt lat="47.30954" lon="6.03742">
        <ele>531</ele>
        <time>2021-09-05T08:47:04Z</time>
      </trkpt>
      <trkpt lat="47.30953" lon="6.03746">
        <ele>531</ele>
        <time>2021-09-05T08:47:05Z</time>
      </trkpt>
      <trkpt lat="47.30953" lon="6.0375">
        <ele>531.2</ele>
        <time>2021-09-05T08:47:06Z</time>
      </trkpt>
      <trkpt lat="47.30954" lon="6.03754">
        <ele>531.2</ele>
        <time>2021-09-05T08:47:07Z</time>
      </trkpt>
      <trkpt lat="47.30953" lon="6.03757">
        <ele>531</ele>
        <time>2021-09-05T08:47:08Z</time>
      </trkpt>
      <trkpt lat="47.30951" lon="6.03761">
        <ele>531.2</ele>
        <time>2021-09-05T08:47:09Z</time>
      </trkpt>
      <trkpt lat="47.30951" lon="6.03763">
        <ele>531.2</ele>
        <time>2021-09-05T08:47:10Z</time>
      </trkpt>
      <trkpt lat="47.30951" lon="6.03766">
        <ele>531.2</ele>
        <time>2021-09-05T08:47:11Z</time>
      </trkpt>
      <trkpt lat="47.30951" lon="6.0377">
        <ele>531.4</ele>
        <time>2021-09-05T08:47:12Z</time>
      </trkpt>
      <trkpt lat="47.30949" lon="6.03796">
        <ele>532.2</ele>
        <time>2021-09-05T08:47:19Z</time>
      </trkpt>
      <trkpt lat="47.30948" lon="6.03809">
        <ele>532.4</ele>
        <time>2021-09-05T08:47:22Z</time>
      </trkpt>
      <trkpt lat="47.30946" lon="6.03827">
        <ele>533</ele>
        <time>2021-09-05T08:47:26Z</time>
      </trkpt>
      <trkpt lat="47.30946" lon="6.03839">
        <ele>533.4</ele>
        <time>2021-09-05T08:47:29Z</time>
      </trkpt>
      <trkpt lat="47.30945" lon="6.03844">
        <ele>533.4</ele>
        <time>2021-09-05T08:47:30Z</time>
      </trkpt>
      <trkpt lat="47.30945" lon="6.0385">
        <ele>533.6</ele>
        <time>2021-09-05T08:47:31Z</time>
      </trkpt>
      <trkpt lat="47.30944" lon="6.03854">
        <ele>533.6</ele>
        <time>2021-09-05T08:47:32Z</time>
      </trkpt>
      <trkpt lat="47.30944" lon="6.03859">
        <ele>533.8</ele>
        <time>2021-09-05T08:47:33Z</time>
      </trkpt>
      <trkpt lat="47.30944" lon="6.03862">
        <ele>533.8</ele>
        <time>2021-09-05T08:47:34Z</time>
      </trkpt>
      <trkpt lat="47.30945" lon="6.03865">
        <ele>533.8</ele>
        <time>2021-09-05T08:47:35Z</time>
      </trkpt>
      <trkpt lat="47.30944" lon="6.0387">
        <ele>534</ele>
        <time>2021-09-05T08:47:36Z</time>
      </trkpt>
      <trkpt lat="47.30944" lon="6.03875">
        <ele>534.2</ele>
        <time>2021-09-05T08:47:37Z</time>
      </trkpt>
      <trkpt lat="47.30944" lon="6.03879">
        <ele>534.4</ele>
        <time>2021-09-05T08:47:38Z</time>
      </trkpt>
      <trkpt lat="47.30944" lon="6.03884">
        <ele>534.4</ele>
        <time>2021-09-05T08:47:39Z</time>
      </trkpt>
      <trkpt lat="47.30943" lon="6.03889">
        <ele>534.6</ele>
        <time>2021-09-05T08:47:40Z</time>
      </trkpt>
      <trkpt lat="47.30942" lon="6.03892">
        <ele>534.8</ele>
        <time>2021-09-05T08:47:41Z</time>
      </trkpt>
      <trkpt lat="47.30941" lon="6.03896">
        <ele>534.8</ele>
        <time>2021-09-05T08:47:42Z</time>
      </trkpt>
      <trkpt lat="47.30942" lon="6.03901">
        <ele>535</ele>
        <time>2021-09-05T08:47:43Z</time>
      </trkpt>
      <trkpt lat="47.30942" lon="6.03905">
        <ele>535</ele>
        <time>2021-09-05T08:47:44Z</time>
      </trkpt>
      <trkpt lat="47.30941" lon="6.03911">
        <ele>535</ele>
        <time>2021-09-05T08:47:45Z</time>
      </trkpt>
      <trkpt lat="47.30939" lon="6.03917">
        <ele>535.2</ele>
        <time>2021-09-05T08:47:46Z</time>
      </trkpt>
      <trkpt lat="47.30939" lon="6.03922">
        <ele>535</ele>
        <time>2021-09-05T08:47:47Z</time>
      </trkpt>
      <trkpt lat="47.30938" lon="6.03926">
        <ele>535.2</ele>
        <time>2021-09-05T08:47:48Z</time>
      </trkpt>
      <trkpt lat="47.30938" lon="6.0393">
        <ele>535.4</ele>
        <time>2021-09-05T08:47:49Z</time>
      </trkpt>
      <trkpt lat="47.30939" lon="6.03935">
        <ele>535.4</ele>
        <time>2021-09-05T08:47:50Z</time>
      </trkpt>
      <trkpt lat="47.30938" lon="6.0394">
        <ele>535.4</ele>
        <time>2021-09-05T08:47:51Z</time>
      </trkpt>
      <trkpt lat="47.30936" lon="6.03944">
        <ele>535.4</ele>
        <time>2021-09-05T08:47:52Z</time>
      </trkpt>
      <trkpt lat="47.30935" lon="6.03947">
        <ele>535.4</ele>
        <time>2021-09-05T08:47:53Z</time>
      </trkpt>
      <trkpt lat="47.30936" lon="6.03953">
        <ele>535.6</ele>
        <time>2021-09-05T08:47:54Z</time>
      </trkpt>
      <trkpt lat="47.30938" lon="6.03958">
        <ele>535.6</ele>
        <time>2021-09-05T08:47:55Z</time>
      </trkpt>
      <trkpt lat="47.30937" lon="6.03962">
        <ele>535.6</ele>
        <time>2021-09-05T08:47:56Z</time>
      </trkpt>
      <trkpt lat="47.30937" lon="6.03967">
        <ele>535.8</ele>
        <time>2021-09-05T08:47:57Z</time>
      </trkpt>
      <trkpt lat="47.30937" lon="6.03971">
        <ele>535.8</ele>
        <time>2021-09-05T08:47:58Z</time>
      </trkpt>
      <trkpt lat="47.30936" lon="6.03975">
        <ele>535.8</ele>
        <time>2021-09-05T08:47:59Z</time>
      </trkpt>
      <trkpt lat="47.30936" lon="6.0398">
        <ele>535.8</ele>
        <time>2021-09-05T08:48:00Z</time>
      </trkpt>
      <trkpt lat="47.30934" lon="6.04002">
        <ele>536.2</ele>
        <time>2021-09-05T08:48:05Z</time>
      </trkpt>
      <trkpt lat="47.30934" lon="6.04007">
        <ele>536.4</ele>
        <time>2021-09-05T08:48:06Z</time>
      </trkpt>
      <trkpt lat="47.3093" lon="6.04048">
        <ele>537</ele>
        <time>2021-09-05T08:48:14Z</time>
      </trkpt>
      <trkpt lat="47.30927" lon="6.04068">
        <ele>537</ele>
        <time>2021-09-05T08:48:18Z</time>
      </trkpt>
      <trkpt lat="47.30926" lon="6.04092">
        <ele>537</ele>
        <time>2021-09-05T08:48:22Z</time>
      </trkpt>
      <trkpt lat="47.30926" lon="6.04097">
        <ele>537</ele>
        <time>2021-09-05T08:48:23Z</time>
      </trkpt>
      <trkpt lat="47.30927" lon="6.04105">
        <ele>537</ele>
        <time>2021-09-05T08:48:24Z</time>
      </trkpt>
      <trkpt lat="47.30927" lon="6.04128">
        <ele>537.4</ele>
        <time>2021-09-05T08:48:28Z</time>
      </trkpt>
      <trkpt lat="47.30927" lon="6.04139">
        <ele>537.6</ele>
        <time>2021-09-05T08:48:30Z</time>
      </trkpt>
      <trkpt lat="47.30927" lon="6.04145">
        <ele>537.8</ele>
        <time>2021-09-05T08:48:31Z</time>
      </trkpt>
      <trkpt lat="47.30929" lon="6.0415">
        <ele>538</ele>
        <time>2021-09-05T08:48:32Z</time>
      </trkpt>
      <trkpt lat="47.30929" lon="6.04164">
        <ele>538.2</ele>
        <time>2021-09-05T08:48:34Z</time>
      </trkpt>
      <trkpt lat="47.3093" lon="6.04169">
        <ele>538.4</ele>
        <time>2021-09-05T08:48:35Z</time>
      </trkpt>
      <trkpt lat="47.3093" lon="6.04176">
        <ele>538.4</ele>
        <time>2021-09-05T08:48:36Z</time>
      </trkpt>
      <trkpt lat="47.30929" lon="6.04182">
        <ele>538.4</ele>
        <time>2021-09-05T08:48:37Z</time>
      </trkpt>
      <trkpt lat="47.30934" lon="6.04203">
        <ele>538.8</ele>
        <time>2021-09-05T08:48:41Z</time>
      </trkpt>
      <trkpt lat="47.30935" lon="6.04208">
        <ele>538.8</ele>
        <time>2021-09-05T08:48:42Z</time>
      </trkpt>
      <trkpt lat="47.30936" lon="6.04215">
        <ele>539.2</ele>
        <time>2021-09-05T08:48:43Z</time>
      </trkpt>
      <trkpt lat="47.30936" lon="6.0422">
        <ele>539.4</ele>
        <time>2021-09-05T08:48:44Z</time>
      </trkpt>
      <trkpt lat="47.30936" lon="6.04225">
        <ele>539.4</ele>
        <time>2021-09-05T08:48:45Z</time>
      </trkpt>
      <trkpt lat="47.30936" lon="6.0423">
        <ele>539.6</ele>
        <time>2021-09-05T08:48:46Z</time>
      </trkpt>
      <trkpt lat="47.30937" lon="6.04241">
        <ele>539.6</ele>
        <time>2021-09-05T08:48:48Z</time>
      </trkpt>
      <trkpt lat="47.30938" lon="6.04245">
        <ele>539.8</ele>
        <time>2021-09-05T08:48:49Z</time>
      </trkpt>
      <trkpt lat="47.30939" lon="6.04249">
        <ele>540</ele>
        <time>2021-09-05T08:48:50Z</time>
      </trkpt>
      <trkpt lat="47.3094" lon="6.04254">
        <ele>540</ele>
        <time>2021-09-05T08:48:51Z</time>
      </trkpt>
      <trkpt lat="47.30941" lon="6.04263">
        <ele>540.4</ele>
        <time>2021-09-05T08:48:53Z</time>
      </trkpt>
      <trkpt lat="47.30941" lon="6.04267">
        <ele>540.4</ele>
        <time>2021-09-05T08:48:54Z</time>
      </trkpt>
      <trkpt lat="47.30941" lon="6.04271">
        <ele>540.4</ele>
        <time>2021-09-05T08:48:55Z</time>
      </trkpt>
      <trkpt lat="47.30942" lon="6.04276">
        <ele>540.4</ele>
        <time>2021-09-05T08:48:56Z</time>
      </trkpt>
      <trkpt lat="47.30943" lon="6.0428">
        <ele>540.4</ele>
        <time>2021-09-05T08:48:57Z</time>
      </trkpt>
      <trkpt lat="47.30944" lon="6.04285">
        <ele>540.4</ele>
        <time>2021-09-05T08:48:58Z</time>
      </trkpt>
      <trkpt lat="47.30945" lon="6.04289">
        <ele>540.4</ele>
        <time>2021-09-05T08:48:59Z</time>
      </trkpt>
      <trkpt lat="47.30946" lon="6.04294">
        <ele>540.6</ele>
        <time>2021-09-05T08:49:00Z</time>
      </trkpt>
      <trkpt lat="47.30947" lon="6.04298">
        <ele>540.6</ele>
        <time>2021-09-05T08:49:01Z</time>
      </trkpt>
      <trkpt lat="47.30948" lon="6.04303">
        <ele>540.8</ele>
        <time>2021-09-05T08:49:02Z</time>
      </trkpt>
      <trkpt lat="47.30949" lon="6.04306">
        <ele>541</ele>
        <time>2021-09-05T08:49:03Z</time>
      </trkpt>
      <trkpt lat="47.30951" lon="6.04315">
        <ele>541.4</ele>
        <time>2021-09-05T08:49:05Z</time>
      </trkpt>
      <trkpt lat="47.30955" lon="6.04324">
        <ele>541.6</ele>
        <time>2021-09-05T08:49:07Z</time>
      </trkpt>
      <trkpt lat="47.30956" lon="6.04327">
        <ele>541.8</ele>
        <time>2021-09-05T08:49:08Z</time>
      </trkpt>
      <trkpt lat="47.30958" lon="6.04331">
        <ele>542</ele>
        <time>2021-09-05T08:49:09Z</time>
      </trkpt>
      <trkpt lat="47.30959" lon="6.04334">
        <ele>542.2</ele>
        <time>2021-09-05T08:49:10Z</time>
      </trkpt>
      <trkpt lat="47.30959" lon="6.04338">
        <ele>542.4</ele>
        <time>2021-09-05T08:49:11Z</time>
      </trkpt>
      <trkpt lat="47.3096" lon="6.04342">
        <ele>542.6</ele>
        <time>2021-09-05T08:49:12Z</time>
      </trkpt>
      <trkpt lat="47.30962" lon="6.04346">
        <ele>542.6</ele>
        <time>2021-09-05T08:49:13Z</time>
      </trkpt>
      <trkpt lat="47.30964" lon="6.04352">
        <ele>542.8</ele>
        <time>2021-09-05T08:49:14Z</time>
      </trkpt>
      <trkpt lat="47.30965" lon="6.04357">
        <ele>543</ele>
        <time>2021-09-05T08:49:15Z</time>
      </trkpt>
      <trkpt lat="47.30968" lon="6.04361">
        <ele>543.2</ele>
        <time>2021-09-05T08:49:16Z</time>
      </trkpt>
      <trkpt lat="47.3097" lon="6.04365">
        <ele>543.4</ele>
        <time>2021-09-05T08:49:17Z</time>
      </trkpt>
      <trkpt lat="47.30972" lon="6.04371">
        <ele>543.6</ele>
        <time>2021-09-05T08:49:18Z</time>
      </trkpt>
      <trkpt lat="47.30973" lon="6.04375">
        <ele>543.8</ele>
        <time>2021-09-05T08:49:19Z</time>
      </trkpt>
      <trkpt lat="47.30973" lon="6.04379">
        <ele>544</ele>
        <time>2021-09-05T08:49:20Z</time>
      </trkpt>
      <trkpt lat="47.30975" lon="6.04382">
        <ele>544.2</ele>
        <time>2021-09-05T08:49:21Z</time>
      </trkpt>
      <trkpt lat="47.30977" lon="6.04386">
        <ele>544.2</ele>
        <time>2021-09-05T08:49:22Z</time>
      </trkpt>
      <trkpt lat="47.3098" lon="6.0439">
        <ele>544.4</ele>
        <time>2021-09-05T08:49:23Z</time>
      </trkpt>
      <trkpt lat="47.30981" lon="6.04393">
        <ele>544.6</ele>
        <time>2021-09-05T08:49:24Z</time>
      </trkpt>
      <trkpt lat="47.30981" lon="6.04399">
        <ele>544.6</ele>
        <time>2021-09-05T08:49:25Z</time>
      </trkpt>
      <trkpt lat="47.30982" lon="6.04402">
        <ele>544.8</ele>
        <time>2021-09-05T08:49:26Z</time>
      </trkpt>
      <trkpt lat="47.30983" lon="6.04405">
        <ele>544.8</ele>
        <time>2021-09-05T08:49:27Z</time>
      </trkpt>
      <trkpt lat="47.30984" lon="6.04408">
        <ele>544.8</ele>
        <time>2021-09-05T08:49:28Z</time>
      </trkpt>
      <trkpt lat="47.30987" lon="6.04412">
        <ele>544.8</ele>
        <time>2021-09-05T08:49:29Z</time>
      </trkpt>
      <trkpt lat="47.30988" lon="6.04414">
        <ele>544.8</ele>
        <time>2021-09-05T08:49:30Z</time>
      </trkpt>
      <trkpt lat="47.30989" lon="6.04416">
        <ele>544.6</ele>
        <time>2021-09-05T08:49:31Z</time>
      </trkpt>
      <trkpt lat="47.3099" lon="6.04419">
        <ele>544.8</ele>
        <time>2021-09-05T08:49:32Z</time>
      </trkpt>
      <trkpt lat="47.30991" lon="6.04422">
        <ele>544.8</ele>
        <time>2021-09-05T08:49:33Z</time>
      </trkpt>
      <trkpt lat="47.30993" lon="6.04425">
        <ele>544.8</ele>
        <time>2021-09-05T08:49:34Z</time>
      </trkpt>
      <trkpt lat="47.30994" lon="6.04427">
        <ele>544.8</ele>
        <time>2021-09-05T08:49:35Z</time>
      </trkpt>
      <trkpt lat="47.30995" lon="6.0443">
        <ele>544.8</ele>
        <time>2021-09-05T08:49:36Z</time>
      </trkpt>
      <trkpt lat="47.30997" lon="6.04432">
        <ele>545</ele>
        <time>2021-09-05T08:49:37Z</time>
      </trkpt>
      <trkpt lat="47.30999" lon="6.04435">
        <ele>545</ele>
        <time>2021-09-05T08:49:38Z</time>
      </trkpt>
      <trkpt lat="47.31" lon="6.04437">
        <ele>545.2</ele>
        <time>2021-09-05T08:49:39Z</time>
      </trkpt>
      <trkpt lat="47.31002" lon="6.04439">
        <ele>545.2</ele>
        <time>2021-09-05T08:49:40Z</time>
      </trkpt>
      <trkpt lat="47.31004" lon="6.04442">
        <ele>545.2</ele>
        <time>2021-09-05T08:49:41Z</time>
      </trkpt>
      <trkpt lat="47.31006" lon="6.04445">
        <ele>545.4</ele>
        <time>2021-09-05T08:49:42Z</time>
      </trkpt>
      <trkpt lat="47.31018" lon="6.04466">
        <ele>546</ele>
        <time>2021-09-05T08:49:48Z</time>
      </trkpt>
      <trkpt lat="47.31031" lon="6.04488">
        <ele>546</ele>
        <time>2021-09-05T08:49:56Z</time>
      </trkpt>
      <trkpt lat="47.31033" lon="6.04491">
        <ele>546</ele>
        <time>2021-09-05T08:49:57Z</time>
      </trkpt>
      <trkpt lat="47.31035" lon="6.04494">
        <ele>546</ele>
        <time>2021-09-05T08:49:58Z</time>
      </trkpt>
      <trkpt lat="47.31038" lon="6.04496">
        <ele>546</ele>
        <time>2021-09-05T08:49:59Z</time>
      </trkpt>
      <trkpt lat="47.3104" lon="6.04499">
        <ele>546</ele>
        <time>2021-09-05T08:50:00Z</time>
      </trkpt>
      <trkpt lat="47.31042" lon="6.04502">
        <ele>546</ele>
        <time>2021-09-05T08:50:01Z</time>
      </trkpt>
      <trkpt lat="47.31046" lon="6.04509">
        <ele>546</ele>
        <time>2021-09-05T08:50:03Z</time>
      </trkpt>
      <trkpt lat="47.31049" lon="6.04512">
        <ele>546.2</ele>
        <time>2021-09-05T08:50:04Z</time>
      </trkpt>
      <trkpt lat="47.31052" lon="6.04517">
        <ele>546.4</ele>
        <time>2021-09-05T08:50:05Z</time>
      </trkpt>
      <trkpt lat="47.31063" lon="6.04533">
        <ele>546.2</ele>
        <time>2021-09-05T08:50:09Z</time>
      </trkpt>
      <trkpt lat="47.31063" lon="6.04533">
        <ele>546.2</ele>
        <time>2021-09-05T08:50:10Z</time>
      </trkpt>
      <trkpt lat="47.31064" lon="6.04538">
        <ele>546</ele>
        <time>2021-09-05T08:50:11Z</time>
      </trkpt>
      <trkpt lat="47.31069" lon="6.04546">
        <ele>545.8</ele>
        <time>2021-09-05T08:50:12Z</time>
      </trkpt>
      <trkpt lat="47.31075" lon="6.04556">
        <ele>545.6</ele>
        <time>2021-09-05T08:50:15Z</time>
      </trkpt>
      <trkpt lat="47.31077" lon="6.04559">
        <ele>545.4</ele>
        <time>2021-09-05T08:50:16Z</time>
      </trkpt>
      <trkpt lat="47.3108" lon="6.04563">
        <ele>545.2</ele>
        <time>2021-09-05T08:50:17Z</time>
      </trkpt>
      <trkpt lat="47.31082" lon="6.04566">
        <ele>545.2</ele>
        <time>2021-09-05T08:50:18Z</time>
      </trkpt>
      <trkpt lat="47.31084" lon="6.04569">
        <ele>545.2</ele>
        <time>2021-09-05T08:50:19Z</time>
      </trkpt>
      <trkpt lat="47.31086" lon="6.04573">
        <ele>545.2</ele>
        <time>2021-09-05T08:50:20Z</time>
      </trkpt>
      <trkpt lat="47.31087" lon="6.04576">
        <ele>545</ele>
        <time>2021-09-05T08:50:21Z</time>
      </trkpt>
      <trkpt lat="47.31089" lon="6.04579">
        <ele>545</ele>
        <time>2021-09-05T08:50:22Z</time>
      </trkpt>
      <trkpt lat="47.31091" lon="6.04583">
        <ele>545</ele>
        <time>2021-09-05T08:50:23Z</time>
      </trkpt>
      <trkpt lat="47.31106" lon="6.04619">
        <ele>544.4</ele>
        <time>2021-09-05T08:50:31Z</time>
      </trkpt>
      <trkpt lat="47.31108" lon="6.04624">
        <ele>544</ele>
        <time>2021-09-05T08:50:32Z</time>
      </trkpt>
      <trkpt lat="47.31114" lon="6.04634">
        <ele>543.6</ele>
        <time>2021-09-05T08:50:34Z</time>
      </trkpt>
      <trkpt lat="47.31116" lon="6.04639">
        <ele>543.4</ele>
        <time>2021-09-05T08:50:35Z</time>
      </trkpt>
      <trkpt lat="47.31121" lon="6.04654">
        <ele>543</ele>
        <time>2021-09-05T08:50:38Z</time>
      </trkpt>
      <trkpt lat="47.31126" lon="6.04667">
        <ele>542.8</ele>
        <time>2021-09-05T08:50:39Z</time>
      </trkpt>
      <trkpt lat="47.31136" lon="6.04689">
        <ele>541.8</ele>
        <time>2021-09-05T08:50:43Z</time>
      </trkpt>
      <trkpt lat="47.31147" lon="6.04718">
        <ele>540.8</ele>
        <time>2021-09-05T08:50:46Z</time>
      </trkpt>
      <trkpt lat="47.3115" lon="6.04725">
        <ele>540.6</ele>
        <time>2021-09-05T08:50:47Z</time>
      </trkpt>
      <trkpt lat="47.31153" lon="6.04732">
        <ele>540</ele>
        <time>2021-09-05T08:50:48Z</time>
      </trkpt>
      <trkpt lat="47.31164" lon="6.04759">
        <ele>539.6</ele>
        <time>2021-09-05T08:50:52Z</time>
      </trkpt>
      <trkpt lat="47.31173" lon="6.04786">
        <ele>538.4</ele>
        <time>2021-09-05T08:50:56Z</time>
      </trkpt>
      <trkpt lat="47.31176" lon="6.04793">
        <ele>538.2</ele>
        <time>2021-09-05T08:50:57Z</time>
      </trkpt>
      <trkpt lat="47.31182" lon="6.04815">
        <ele>537.4</ele>
        <time>2021-09-05T08:51:00Z</time>
      </trkpt>
      <trkpt lat="47.31187" lon="6.04836">
        <ele>536.4</ele>
        <time>2021-09-05T08:51:03Z</time>
      </trkpt>
      <trkpt lat="47.31189" lon="6.04844">
        <ele>536</ele>
        <time>2021-09-05T08:51:04Z</time>
      </trkpt>
      <trkpt lat="47.31189" lon="6.04844">
        <ele>535.8</ele>
        <time>2021-09-05T08:51:05Z</time>
      </trkpt>
      <trkpt lat="47.31199" lon="6.04883">
        <ele>534.8</ele>
        <time>2021-09-05T08:51:09Z</time>
      </trkpt>
      <trkpt lat="47.31204" lon="6.04904">
        <ele>534.2</ele>
        <time>2021-09-05T08:51:12Z</time>
      </trkpt>
      <trkpt lat="47.31205" lon="6.0491">
        <ele>533.8</ele>
        <time>2021-09-05T08:51:13Z</time>
      </trkpt>
      <trkpt lat="47.31207" lon="6.04916">
        <ele>533.6</ele>
        <time>2021-09-05T08:51:14Z</time>
      </trkpt>
      <trkpt lat="47.31208" lon="6.04922">
        <ele>533.6</ele>
        <time>2021-09-05T08:51:15Z</time>
      </trkpt>
      <trkpt lat="47.31209" lon="6.04927">
        <ele>533.4</ele>
        <time>2021-09-05T08:51:16Z</time>
      </trkpt>
      <trkpt lat="47.3121" lon="6.04931">
        <ele>533.4</ele>
        <time>2021-09-05T08:51:17Z</time>
      </trkpt>
      <trkpt lat="47.31211" lon="6.04936">
        <ele>533.4</ele>
        <time>2021-09-05T08:51:18Z</time>
      </trkpt>
      <trkpt lat="47.31212" lon="6.0494">
        <ele>533.4</ele>
        <time>2021-09-05T08:51:19Z</time>
      </trkpt>
      <trkpt lat="47.31213" lon="6.04944">
        <ele>533.6</ele>
        <time>2021-09-05T08:51:20Z</time>
      </trkpt>
      <trkpt lat="47.31213" lon="6.04944">
        <ele>533.6</ele>
        <time>2021-09-05T08:51:21Z</time>
      </trkpt>
      <trkpt lat="47.31216" lon="6.04964">
        <ele>534</ele>
        <time>2021-09-05T08:51:25Z</time>
      </trkpt>
      <trkpt lat="47.31217" lon="6.04968">
        <ele>534</ele>
        <time>2021-09-05T08:51:26Z</time>
      </trkpt>
      <trkpt lat="47.31217" lon="6.04968">
        <ele>534.2</ele>
        <time>2021-09-05T08:51:27Z</time>
      </trkpt>
      <trkpt lat="47.31225" lon="6.04992">
        <ele>534.8</ele>
        <time>2021-09-05T08:51:32Z</time>
      </trkpt>
      <trkpt lat="47.31227" lon="6.04999">
        <ele>535.2</ele>
        <time>2021-09-05T08:51:34Z</time>
      </trkpt>
      <trkpt lat="47.31232" lon="6.05011">
        <ele>535.6</ele>
        <time>2021-09-05T08:51:37Z</time>
      </trkpt>
      <trkpt lat="47.31234" lon="6.05018">
        <ele>535.8</ele>
        <time>2021-09-05T08:51:39Z</time>
      </trkpt>
      <trkpt lat="47.31236" lon="6.05022">
        <ele>536</ele>
        <time>2021-09-05T08:51:40Z</time>
      </trkpt>
      <trkpt lat="47.31237" lon="6.05025">
        <ele>536</ele>
        <time>2021-09-05T08:51:41Z</time>
      </trkpt>
      <trkpt lat="47.31239" lon="6.05029">
        <ele>536</ele>
        <time>2021-09-05T08:51:42Z</time>
      </trkpt>
      <trkpt lat="47.31241" lon="6.05032">
        <ele>536.2</ele>
        <time>2021-09-05T08:51:43Z</time>
      </trkpt>
      <trkpt lat="47.31242" lon="6.05036">
        <ele>536.6</ele>
        <time>2021-09-05T08:51:44Z</time>
      </trkpt>
      <trkpt lat="47.31245" lon="6.05043">
        <ele>537</ele>
        <time>2021-09-05T08:51:46Z</time>
      </trkpt>
      <trkpt lat="47.31246" lon="6.05046">
        <ele>537.2</ele>
        <time>2021-09-05T08:51:47Z</time>
      </trkpt>
      <trkpt lat="47.31251" lon="6.05059">
        <ele>537.4</ele>
        <time>2021-09-05T08:51:50Z</time>
      </trkpt>
      <trkpt lat="47.31252" lon="6.05063">
        <ele>537.4</ele>
        <time>2021-09-05T08:51:51Z</time>
      </trkpt>
      <trkpt lat="47.31253" lon="6.05066">
        <ele>537.6</ele>
        <time>2021-09-05T08:51:52Z</time>
      </trkpt>
      <trkpt lat="47.31255" lon="6.0507">
        <ele>537.6</ele>
        <time>2021-09-05T08:51:53Z</time>
      </trkpt>
      <trkpt lat="47.31256" lon="6.05073">
        <ele>537.8</ele>
        <time>2021-09-05T08:51:54Z</time>
      </trkpt>
      <trkpt lat="47.31257" lon="6.05076">
        <ele>537.8</ele>
        <time>2021-09-05T08:51:55Z</time>
      </trkpt>
      <trkpt lat="47.31259" lon="6.0508">
        <ele>538</ele>
        <time>2021-09-05T08:51:56Z</time>
      </trkpt>
      <trkpt lat="47.3126" lon="6.05083">
        <ele>538.2</ele>
        <time>2021-09-05T08:51:57Z</time>
      </trkpt>
      <trkpt lat="47.31261" lon="6.05087">
        <ele>538.2</ele>
        <time>2021-09-05T08:51:58Z</time>
      </trkpt>
      <trkpt lat="47.31262" lon="6.05091">
        <ele>538.4</ele>
        <time>2021-09-05T08:51:59Z</time>
      </trkpt>
      <trkpt lat="47.31264" lon="6.05094">
        <ele>538.6</ele>
        <time>2021-09-05T08:52:00Z</time>
      </trkpt>
      <trkpt lat="47.31265" lon="6.05098">
        <ele>538.8</ele>
        <time>2021-09-05T08:52:01Z</time>
      </trkpt>
      <trkpt lat="47.31266" lon="6.05101">
        <ele>539</ele>
        <time>2021-09-05T08:52:02Z</time>
      </trkpt>
      <trkpt lat="47.31268" lon="6.05105">
        <ele>539.2</ele>
        <time>2021-09-05T08:52:03Z</time>
      </trkpt>
      <trkpt lat="47.31269" lon="6.05108">
        <ele>539.4</ele>
        <time>2021-09-05T08:52:04Z</time>
      </trkpt>
      <trkpt lat="47.3127" lon="6.05111">
        <ele>539.4</ele>
        <time>2021-09-05T08:52:05Z</time>
      </trkpt>
      <trkpt lat="47.31271" lon="6.05114">
        <ele>539.4</ele>
        <time>2021-09-05T08:52:06Z</time>
      </trkpt>
      <trkpt lat="47.31272" lon="6.05118">
        <ele>539.4</ele>
        <time>2021-09-05T08:52:07Z</time>
      </trkpt>
      <trkpt lat="47.31274" lon="6.05121">
        <ele>539.4</ele>
        <time>2021-09-05T08:52:08Z</time>
      </trkpt>
      <trkpt lat="47.31275" lon="6.05124">
        <ele>539.4</ele>
        <time>2021-09-05T08:52:09Z</time>
      </trkpt>
      <trkpt lat="47.31276" lon="6.05128">
        <ele>539.4</ele>
        <time>2021-09-05T08:52:10Z</time>
      </trkpt>
      <trkpt lat="47.31277" lon="6.05131">
        <ele>539.6</ele>
        <time>2021-09-05T08:52:11Z</time>
      </trkpt>
      <trkpt lat="47.31279" lon="6.05134">
        <ele>539.8</ele>
        <time>2021-09-05T08:52:12Z</time>
      </trkpt>
      <trkpt lat="47.3128" lon="6.05137">
        <ele>539.8</ele>
        <time>2021-09-05T08:52:13Z</time>
      </trkpt>
      <trkpt lat="47.31283" lon="6.05141">
        <ele>540</ele>
        <time>2021-09-05T08:52:14Z</time>
      </trkpt>
      <trkpt lat="47.31284" lon="6.05144">
        <ele>540.2</ele>
        <time>2021-09-05T08:52:15Z</time>
      </trkpt>
      <trkpt lat="47.31286" lon="6.05147">
        <ele>540.4</ele>
        <time>2021-09-05T08:52:16Z</time>
      </trkpt>
      <trkpt lat="47.31287" lon="6.05151">
        <ele>540.4</ele>
        <time>2021-09-05T08:52:17Z</time>
      </trkpt>
      <trkpt lat="47.31288" lon="6.05154">
        <ele>540.6</ele>
        <time>2021-09-05T08:52:18Z</time>
      </trkpt>
      <trkpt lat="47.3129" lon="6.05157">
        <ele>540.8</ele>
        <time>2021-09-05T08:52:19Z</time>
      </trkpt>
      <trkpt lat="47.31291" lon="6.0516">
        <ele>541</ele>
        <time>2021-09-05T08:52:20Z</time>
      </trkpt>
      <trkpt lat="47.31293" lon="6.05162">
        <ele>541</ele>
        <time>2021-09-05T08:52:21Z</time>
      </trkpt>
      <trkpt lat="47.31294" lon="6.05164">
        <ele>541.2</ele>
        <time>2021-09-05T08:52:22Z</time>
      </trkpt>
      <trkpt lat="47.31295" lon="6.05166">
        <ele>541.2</ele>
        <time>2021-09-05T08:52:23Z</time>
      </trkpt>
      <trkpt lat="47.31296" lon="6.05168">
        <ele>541.4</ele>
        <time>2021-09-05T08:52:24Z</time>
      </trkpt>
      <trkpt lat="47.31297" lon="6.0517">
        <ele>541.6</ele>
        <time>2021-09-05T08:52:25Z</time>
      </trkpt>
      <trkpt lat="47.31298" lon="6.05172">
        <ele>541.8</ele>
        <time>2021-09-05T08:52:26Z</time>
      </trkpt>
      <trkpt lat="47.31299" lon="6.05174">
        <ele>541.8</ele>
        <time>2021-09-05T08:52:27Z</time>
      </trkpt>
      <trkpt lat="47.313" lon="6.05175">
        <ele>542</ele>
        <time>2021-09-05T08:52:28Z</time>
      </trkpt>
      <trkpt lat="47.31301" lon="6.05177">
        <ele>542.2</ele>
        <time>2021-09-05T08:52:29Z</time>
      </trkpt>
      <trkpt lat="47.31301" lon="6.05179">
        <ele>542.2</ele>
        <time>2021-09-05T08:52:30Z</time>
      </trkpt>
      <trkpt lat="47.31302" lon="6.0518">
        <ele>542.4</ele>
        <time>2021-09-05T08:52:31Z</time>
      </trkpt>
      <trkpt lat="47.31303" lon="6.05182">
        <ele>542.4</ele>
        <time>2021-09-05T08:52:32Z</time>
      </trkpt>
      <trkpt lat="47.31304" lon="6.05183">
        <ele>542.4</ele>
        <time>2021-09-05T08:52:33Z</time>
      </trkpt>
      <trkpt lat="47.31305" lon="6.05185">
        <ele>542.4</ele>
        <time>2021-09-05T08:52:34Z</time>
      </trkpt>
      <trkpt lat="47.31307" lon="6.05187">
        <ele>542.6</ele>
        <time>2021-09-05T08:52:35Z</time>
      </trkpt>
      <trkpt lat="47.31307" lon="6.05189">
        <ele>542.8</ele>
        <time>2021-09-05T08:52:36Z</time>
      </trkpt>
      <trkpt lat="47.31309" lon="6.0519">
        <ele>542.8</ele>
        <time>2021-09-05T08:52:37Z</time>
      </trkpt>
      <trkpt lat="47.31309" lon="6.0519">
        <ele>543</ele>
        <time>2021-09-05T08:52:38Z</time>
      </trkpt>
      <trkpt lat="47.31311" lon="6.05194">
        <ele>543</ele>
        <time>2021-09-05T08:52:39Z</time>
      </trkpt>
      <trkpt lat="47.31312" lon="6.05196">
        <ele>543.2</ele>
        <time>2021-09-05T08:52:40Z</time>
      </trkpt>
      <trkpt lat="47.31313" lon="6.05198">
        <ele>543.2</ele>
        <time>2021-09-05T08:52:41Z</time>
      </trkpt>
      <trkpt lat="47.31314" lon="6.052">
        <ele>543.2</ele>
        <time>2021-09-05T08:52:42Z</time>
      </trkpt>
      <trkpt lat="47.31316" lon="6.05201">
        <ele>543.2</ele>
        <time>2021-09-05T08:52:43Z</time>
      </trkpt>
      <trkpt lat="47.31317" lon="6.05203">
        <ele>543.4</ele>
        <time>2021-09-05T08:52:44Z</time>
      </trkpt>
      <trkpt lat="47.31319" lon="6.05205">
        <ele>543.6</ele>
        <time>2021-09-05T08:52:45Z</time>
      </trkpt>
      <trkpt lat="47.31319" lon="6.05205">
        <ele>543.4</ele>
        <time>2021-09-05T08:52:46Z</time>
      </trkpt>
      <trkpt lat="47.31321" lon="6.05209">
        <ele>543.6</ele>
        <time>2021-09-05T08:52:47Z</time>
      </trkpt>
      <trkpt lat="47.31322" lon="6.05211">
        <ele>543.6</ele>
        <time>2021-09-05T08:52:48Z</time>
      </trkpt>
      <trkpt lat="47.31323" lon="6.05212">
        <ele>543.8</ele>
        <time>2021-09-05T08:52:49Z</time>
      </trkpt>
      <trkpt lat="47.31324" lon="6.05214">
        <ele>543.8</ele>
        <time>2021-09-05T08:52:50Z</time>
      </trkpt>
      <trkpt lat="47.31325" lon="6.05216">
        <ele>544</ele>
        <time>2021-09-05T08:52:51Z</time>
      </trkpt>
      <trkpt lat="47.31327" lon="6.05219">
        <ele>544</ele>
        <time>2021-09-05T08:52:52Z</time>
      </trkpt>
      <trkpt lat="47.31329" lon="6.05222">
        <ele>544</ele>
        <time>2021-09-05T08:52:53Z</time>
      </trkpt>
      <trkpt lat="47.3133" lon="6.05224">
        <ele>544.2</ele>
        <time>2021-09-05T08:52:54Z</time>
      </trkpt>
      <trkpt lat="47.31331" lon="6.05226">
        <ele>544.2</ele>
        <time>2021-09-05T08:52:55Z</time>
      </trkpt>
      <trkpt lat="47.31335" lon="6.05233">
        <ele>544.4</ele>
        <time>2021-09-05T08:52:58Z</time>
      </trkpt>
      <trkpt lat="47.31341" lon="6.05245">
        <ele>545</ele>
        <time>2021-09-05T08:53:03Z</time>
      </trkpt>
      <trkpt lat="47.31342" lon="6.05247">
        <ele>545</ele>
        <time>2021-09-05T08:53:04Z</time>
      </trkpt>
      <trkpt lat="47.31343" lon="6.05249">
        <ele>545.2</ele>
        <time>2021-09-05T08:53:05Z</time>
      </trkpt>
      <trkpt lat="47.31344" lon="6.05252">
        <ele>545.2</ele>
        <time>2021-09-05T08:53:06Z</time>
      </trkpt>
      <trkpt lat="47.31345" lon="6.05254">
        <ele>545.2</ele>
        <time>2021-09-05T08:53:07Z</time>
      </trkpt>
      <trkpt lat="47.31346" lon="6.05256">
        <ele>545.4</ele>
        <time>2021-09-05T08:53:08Z</time>
      </trkpt>
      <trkpt lat="47.31348" lon="6.05258">
        <ele>545.6</ele>
        <time>2021-09-05T08:53:09Z</time>
      </trkpt>
      <trkpt lat="47.31348" lon="6.05261">
        <ele>545.6</ele>
        <time>2021-09-05T08:53:10Z</time>
      </trkpt>
      <trkpt lat="47.31349" lon="6.05262">
        <ele>545.8</ele>
        <time>2021-09-05T08:53:11Z</time>
      </trkpt>
      <trkpt lat="47.31349" lon="6.05264">
        <ele>546</ele>
        <time>2021-09-05T08:53:12Z</time>
      </trkpt>
      <trkpt lat="47.31354" lon="6.05271">
        <ele>546.2</ele>
        <time>2021-09-05T08:53:15Z</time>
      </trkpt>
      <trkpt lat="47.31355" lon="6.05273">
        <ele>546.2</ele>
        <time>2021-09-05T08:53:16Z</time>
      </trkpt>
      <trkpt lat="47.31357" lon="6.05276">
        <ele>546.4</ele>
        <time>2021-09-05T08:53:17Z</time>
      </trkpt>
      <trkpt lat="47.31358" lon="6.05278">
        <ele>546.6</ele>
        <time>2021-09-05T08:53:18Z</time>
      </trkpt>
      <trkpt lat="47.3136" lon="6.05281">
        <ele>546.8</ele>
        <time>2021-09-05T08:53:19Z</time>
      </trkpt>
      <trkpt lat="47.31361" lon="6.05283">
        <ele>546.8</ele>
        <time>2021-09-05T08:53:20Z</time>
      </trkpt>
      <trkpt lat="47.31363" lon="6.05284">
        <ele>546.8</ele>
        <time>2021-09-05T08:53:21Z</time>
      </trkpt>
      <trkpt lat="47.31364" lon="6.05285">
        <ele>546.8</ele>
        <time>2021-09-05T08:53:22Z</time>
      </trkpt>
      <trkpt lat="47.31365" lon="6.05286">
        <ele>547</ele>
        <time>2021-09-05T08:53:23Z</time>
      </trkpt>
      <trkpt lat="47.31366" lon="6.05287">
        <ele>547.4</ele>
        <time>2021-09-05T08:53:24Z</time>
      </trkpt>
      <trkpt lat="47.31369" lon="6.05289">
        <ele>547.4</ele>
        <time>2021-09-05T08:53:25Z</time>
      </trkpt>
      <trkpt lat="47.31371" lon="6.05291">
        <ele>547.6</ele>
        <time>2021-09-05T08:53:26Z</time>
      </trkpt>
      <trkpt lat="47.31372" lon="6.05294">
        <ele>547.6</ele>
        <time>2021-09-05T08:53:27Z</time>
      </trkpt>
      <trkpt lat="47.31374" lon="6.05297">
        <ele>547.6</ele>
        <time>2021-09-05T08:53:28Z</time>
      </trkpt>
      <trkpt lat="47.31377" lon="6.05299">
        <ele>547.8</ele>
        <time>2021-09-05T08:53:29Z</time>
      </trkpt>
      <trkpt lat="47.31378" lon="6.05302">
        <ele>547.8</ele>
        <time>2021-09-05T08:53:30Z</time>
      </trkpt>
      <trkpt lat="47.31379" lon="6.05304">
        <ele>547.8</ele>
        <time>2021-09-05T08:53:31Z</time>
      </trkpt>
      <trkpt lat="47.3138" lon="6.05305">
        <ele>548</ele>
        <time>2021-09-05T08:53:32Z</time>
      </trkpt>
      <trkpt lat="47.31382" lon="6.05307">
        <ele>548</ele>
        <time>2021-09-05T08:53:33Z</time>
      </trkpt>
      <trkpt lat="47.31383" lon="6.05309">
        <ele>548</ele>
        <time>2021-09-05T08:53:34Z</time>
      </trkpt>
      <trkpt lat="47.31385" lon="6.05311">
        <ele>548.2</ele>
        <time>2021-09-05T08:53:35Z</time>
      </trkpt>
      <trkpt lat="47.31388" lon="6.05315">
        <ele>548.4</ele>
        <time>2021-09-05T08:53:36Z</time>
      </trkpt>
      <trkpt lat="47.31391" lon="6.05318">
        <ele>548.4</ele>
        <time>2021-09-05T08:53:37Z</time>
      </trkpt>
      <trkpt lat="47.31393" lon="6.05321">
        <ele>548.6</ele>
        <time>2021-09-05T08:53:38Z</time>
      </trkpt>
      <trkpt lat="47.31395" lon="6.05324">
        <ele>548.6</ele>
        <time>2021-09-05T08:53:39Z</time>
      </trkpt>
      <trkpt lat="47.31397" lon="6.05327">
        <ele>548.6</ele>
        <time>2021-09-05T08:53:40Z</time>
      </trkpt>
      <trkpt lat="47.31411" lon="6.0534">
        <ele>549.2</ele>
        <time>2021-09-05T08:53:47Z</time>
      </trkpt>
      <trkpt lat="47.31412" lon="6.05342">
        <ele>549.4</ele>
        <time>2021-09-05T08:53:48Z</time>
      </trkpt>
      <trkpt lat="47.31413" lon="6.05344">
        <ele>549.6</ele>
        <time>2021-09-05T08:53:49Z</time>
      </trkpt>
      <trkpt lat="47.31414" lon="6.05346">
        <ele>549.6</ele>
        <time>2021-09-05T08:53:50Z</time>
      </trkpt>
      <trkpt lat="47.31414" lon="6.05346">
        <ele>550</ele>
        <time>2021-09-05T08:53:51Z</time>
      </trkpt>
      <trkpt lat="47.31416" lon="6.05349">
        <ele>550</ele>
        <time>2021-09-05T08:53:52Z</time>
      </trkpt>
      <trkpt lat="47.31418" lon="6.05353">
        <ele>550.4</ele>
        <time>2021-09-05T08:53:54Z</time>
      </trkpt>
      <trkpt lat="47.31419" lon="6.05355">
        <ele>550.4</ele>
        <time>2021-09-05T08:53:55Z</time>
      </trkpt>
      <trkpt lat="47.3142" lon="6.05356">
        <ele>550.6</ele>
        <time>2021-09-05T08:53:56Z</time>
      </trkpt>
      <trkpt lat="47.31421" lon="6.05357">
        <ele>550.8</ele>
        <time>2021-09-05T08:53:57Z</time>
      </trkpt>
      <trkpt lat="47.31422" lon="6.05359">
        <ele>551</ele>
        <time>2021-09-05T08:53:58Z</time>
      </trkpt>
      <trkpt lat="47.31423" lon="6.0536">
        <ele>551.2</ele>
        <time>2021-09-05T08:53:59Z</time>
      </trkpt>
      <trkpt lat="47.31424" lon="6.05362">
        <ele>551.4</ele>
        <time>2021-09-05T08:54:00Z</time>
      </trkpt>
      <trkpt lat="47.31425" lon="6.05364">
        <ele>551.4</ele>
        <time>2021-09-05T08:54:01Z</time>
      </trkpt>
      <trkpt lat="47.31425" lon="6.05365">
        <ele>551.8</ele>
        <time>2021-09-05T08:54:02Z</time>
      </trkpt>
      <trkpt lat="47.31426" lon="6.05367">
        <ele>552</ele>
        <time>2021-09-05T08:54:03Z</time>
      </trkpt>
      <trkpt lat="47.31427" lon="6.05369">
        <ele>552.2</ele>
        <time>2021-09-05T08:54:04Z</time>
      </trkpt>
      <trkpt lat="47.31429" lon="6.05371">
        <ele>552.4</ele>
        <time>2021-09-05T08:54:05Z</time>
      </trkpt>
      <trkpt lat="47.31431" lon="6.05374">
        <ele>552.4</ele>
        <time>2021-09-05T08:54:06Z</time>
      </trkpt>
      <trkpt lat="47.31432" lon="6.05376">
        <ele>552.6</ele>
        <time>2021-09-05T08:54:07Z</time>
      </trkpt>
      <trkpt lat="47.31434" lon="6.05378">
        <ele>552.6</ele>
        <time>2021-09-05T08:54:08Z</time>
      </trkpt>
      <trkpt lat="47.31435" lon="6.05379">
        <ele>552.8</ele>
        <time>2021-09-05T08:54:09Z</time>
      </trkpt>
      <trkpt lat="47.31436" lon="6.05381">
        <ele>553</ele>
        <time>2021-09-05T08:54:10Z</time>
      </trkpt>
      <trkpt lat="47.31437" lon="6.05382">
        <ele>553.2</ele>
        <time>2021-09-05T08:54:11Z</time>
      </trkpt>
      <trkpt lat="47.31439" lon="6.05384">
        <ele>553.4</ele>
        <time>2021-09-05T08:54:12Z</time>
      </trkpt>
      <trkpt lat="47.31439" lon="6.05384">
        <ele>553.4</ele>
        <time>2021-09-05T08:54:13Z</time>
      </trkpt>
      <trkpt lat="47.3144" lon="6.05385">
        <ele>553.6</ele>
        <time>2021-09-05T08:54:14Z</time>
      </trkpt>
      <trkpt lat="47.31442" lon="6.05387">
        <ele>553.6</ele>
        <time>2021-09-05T08:54:15Z</time>
      </trkpt>
      <trkpt lat="47.31443" lon="6.05389">
        <ele>553.6</ele>
        <time>2021-09-05T08:54:16Z</time>
      </trkpt>
      <trkpt lat="47.31446" lon="6.05392">
        <ele>553.6</ele>
        <time>2021-09-05T08:54:17Z</time>
      </trkpt>
      <trkpt lat="47.31448" lon="6.05395">
        <ele>553.6</ele>
        <time>2021-09-05T08:54:18Z</time>
      </trkpt>
      <trkpt lat="47.3145" lon="6.05397">
        <ele>553.8</ele>
        <time>2021-09-05T08:54:19Z</time>
      </trkpt>
      <trkpt lat="47.3145" lon="6.05397">
        <ele>554</ele>
        <time>2021-09-05T08:54:20Z</time>
      </trkpt>
      <trkpt lat="47.31453" lon="6.054">
        <ele>554.2</ele>
        <time>2021-09-05T08:54:21Z</time>
      </trkpt>
      <trkpt lat="47.31454" lon="6.05402">
        <ele>554.4</ele>
        <time>2021-09-05T08:54:22Z</time>
      </trkpt>
      <trkpt lat="47.31455" lon="6.05404">
        <ele>554.4</ele>
        <time>2021-09-05T08:54:23Z</time>
      </trkpt>
      <trkpt lat="47.31456" lon="6.05405">
        <ele>554.6</ele>
        <time>2021-09-05T08:54:24Z</time>
      </trkpt>
      <trkpt lat="47.31459" lon="6.05407">
        <ele>554.8</ele>
        <time>2021-09-05T08:54:25Z</time>
      </trkpt>
      <trkpt lat="47.31461" lon="6.05409">
        <ele>554.8</ele>
        <time>2021-09-05T08:54:26Z</time>
      </trkpt>
      <trkpt lat="47.31463" lon="6.05411">
        <ele>555</ele>
        <time>2021-09-05T08:54:27Z</time>
      </trkpt>
      <trkpt lat="47.31464" lon="6.05412">
        <ele>555</ele>
        <time>2021-09-05T08:54:28Z</time>
      </trkpt>
      <trkpt lat="47.31465" lon="6.05413">
        <ele>555.2</ele>
        <time>2021-09-05T08:54:29Z</time>
      </trkpt>
      <trkpt lat="47.31466" lon="6.05414">
        <ele>555.2</ele>
        <time>2021-09-05T08:54:30Z</time>
      </trkpt>
      <trkpt lat="47.31468" lon="6.05415">
        <ele>555.2</ele>
        <time>2021-09-05T08:54:31Z</time>
      </trkpt>
      <trkpt lat="47.31469" lon="6.05418">
        <ele>555.4</ele>
        <time>2021-09-05T08:54:32Z</time>
      </trkpt>
      <trkpt lat="47.31471" lon="6.05419">
        <ele>555.6</ele>
        <time>2021-09-05T08:54:33Z</time>
      </trkpt>
      <trkpt lat="47.31472" lon="6.0542">
        <ele>555.8</ele>
        <time>2021-09-05T08:54:34Z</time>
      </trkpt>
      <trkpt lat="47.31473" lon="6.05421">
        <ele>556</ele>
        <time>2021-09-05T08:54:35Z</time>
      </trkpt>
      <trkpt lat="47.31474" lon="6.05423">
        <ele>556.2</ele>
        <time>2021-09-05T08:54:36Z</time>
      </trkpt>
      <trkpt lat="47.31475" lon="6.05425">
        <ele>556.4</ele>
        <time>2021-09-05T08:54:37Z</time>
      </trkpt>
      <trkpt lat="47.31476" lon="6.05426">
        <ele>556.6</ele>
        <time>2021-09-05T08:54:38Z</time>
      </trkpt>
      <trkpt lat="47.31477" lon="6.05428">
        <ele>556.8</ele>
        <time>2021-09-05T08:54:39Z</time>
      </trkpt>
      <trkpt lat="47.31478" lon="6.0543">
        <ele>556.8</ele>
        <time>2021-09-05T08:54:40Z</time>
      </trkpt>
      <trkpt lat="47.31479" lon="6.05433">
        <ele>556.8</ele>
        <time>2021-09-05T08:54:41Z</time>
      </trkpt>
      <trkpt lat="47.3148" lon="6.05436">
        <ele>557</ele>
        <time>2021-09-05T08:54:42Z</time>
      </trkpt>
      <trkpt lat="47.31481" lon="6.05437">
        <ele>557</ele>
        <time>2021-09-05T08:54:43Z</time>
      </trkpt>
      <trkpt lat="47.31482" lon="6.05439">
        <ele>557.2</ele>
        <time>2021-09-05T08:54:44Z</time>
      </trkpt>
      <trkpt lat="47.31484" lon="6.05441">
        <ele>557.4</ele>
        <time>2021-09-05T08:54:45Z</time>
      </trkpt>
      <trkpt lat="47.31485" lon="6.05443">
        <ele>557.6</ele>
        <time>2021-09-05T08:54:46Z</time>
      </trkpt>
      <trkpt lat="47.31487" lon="6.05445">
        <ele>557.6</ele>
        <time>2021-09-05T08:54:47Z</time>
      </trkpt>
      <trkpt lat="47.31489" lon="6.05447">
        <ele>557.6</ele>
        <time>2021-09-05T08:54:48Z</time>
      </trkpt>
      <trkpt lat="47.31491" lon="6.05449">
        <ele>557.8</ele>
        <time>2021-09-05T08:54:49Z</time>
      </trkpt>
      <trkpt lat="47.31493" lon="6.05451">
        <ele>558</ele>
        <time>2021-09-05T08:54:50Z</time>
      </trkpt>
      <trkpt lat="47.31494" lon="6.05453">
        <ele>558</ele>
        <time>2021-09-05T08:54:51Z</time>
      </trkpt>
      <trkpt lat="47.31496" lon="6.05455">
        <ele>558.2</ele>
        <time>2021-09-05T08:54:52Z</time>
      </trkpt>
      <trkpt lat="47.31499" lon="6.05458">
        <ele>558.4</ele>
        <time>2021-09-05T08:54:53Z</time>
      </trkpt>
      <trkpt lat="47.31501" lon="6.0546">
        <ele>558.6</ele>
        <time>2021-09-05T08:54:54Z</time>
      </trkpt>
      <trkpt lat="47.31503" lon="6.05462">
        <ele>558.8</ele>
        <time>2021-09-05T08:54:55Z</time>
      </trkpt>
      <trkpt lat="47.31504" lon="6.05465">
        <ele>559</ele>
        <time>2021-09-05T08:54:56Z</time>
      </trkpt>
      <trkpt lat="47.31506" lon="6.05468">
        <ele>559.2</ele>
        <time>2021-09-05T08:54:57Z</time>
      </trkpt>
      <trkpt lat="47.31507" lon="6.05469">
        <ele>559.4</ele>
        <time>2021-09-05T08:54:58Z</time>
      </trkpt>
      <trkpt lat="47.31509" lon="6.05471">
        <ele>559.4</ele>
        <time>2021-09-05T08:54:59Z</time>
      </trkpt>
      <trkpt lat="47.3151" lon="6.05472">
        <ele>559.6</ele>
        <time>2021-09-05T08:55:00Z</time>
      </trkpt>
      <trkpt lat="47.31511" lon="6.05473">
        <ele>559.8</ele>
        <time>2021-09-05T08:55:01Z</time>
      </trkpt>
      <trkpt lat="47.31512" lon="6.05475">
        <ele>559.8</ele>
        <time>2021-09-05T08:55:02Z</time>
      </trkpt>
      <trkpt lat="47.31513" lon="6.05476">
        <ele>560</ele>
        <time>2021-09-05T08:55:03Z</time>
      </trkpt>
      <trkpt lat="47.31514" lon="6.05478">
        <ele>560</ele>
        <time>2021-09-05T08:55:04Z</time>
      </trkpt>
      <trkpt lat="47.31515" lon="6.05479">
        <ele>560.2</ele>
        <time>2021-09-05T08:55:05Z</time>
      </trkpt>
      <trkpt lat="47.31516" lon="6.05481">
        <ele>560.4</ele>
        <time>2021-09-05T08:55:06Z</time>
      </trkpt>
      <trkpt lat="47.31518" lon="6.05483">
        <ele>560.6</ele>
        <time>2021-09-05T08:55:07Z</time>
      </trkpt>
      <trkpt lat="47.31519" lon="6.05485">
        <ele>560.6</ele>
        <time>2021-09-05T08:55:08Z</time>
      </trkpt>
      <trkpt lat="47.3152" lon="6.05487">
        <ele>560.8</ele>
        <time>2021-09-05T08:55:09Z</time>
      </trkpt>
      <trkpt lat="47.31521" lon="6.05489">
        <ele>561</ele>
        <time>2021-09-05T08:55:10Z</time>
      </trkpt>
      <trkpt lat="47.31522" lon="6.05491">
        <ele>561.2</ele>
        <time>2021-09-05T08:55:11Z</time>
      </trkpt>
      <trkpt lat="47.31522" lon="6.05492">
        <ele>561.4</ele>
        <time>2021-09-05T08:55:12Z</time>
      </trkpt>
      <trkpt lat="47.31523" lon="6.05493">
        <ele>561.4</ele>
        <time>2021-09-05T08:55:13Z</time>
      </trkpt>
      <trkpt lat="47.31524" lon="6.05495">
        <ele>561.6</ele>
        <time>2021-09-05T08:55:14Z</time>
      </trkpt>
      <trkpt lat="47.31525" lon="6.05497">
        <ele>561.6</ele>
        <time>2021-09-05T08:55:15Z</time>
      </trkpt>
      <trkpt lat="47.31527" lon="6.05499">
        <ele>561.6</ele>
        <time>2021-09-05T08:55:16Z</time>
      </trkpt>
      <trkpt lat="47.31528" lon="6.055">
        <ele>561.8</ele>
        <time>2021-09-05T08:55:17Z</time>
      </trkpt>
      <trkpt lat="47.3153" lon="6.05503">
        <ele>562</ele>
        <time>2021-09-05T08:55:18Z</time>
      </trkpt>
      <trkpt lat="47.31532" lon="6.05505">
        <ele>562</ele>
        <time>2021-09-05T08:55:19Z</time>
      </trkpt>
      <trkpt lat="47.31534" lon="6.05508">
        <ele>562.2</ele>
        <time>2021-09-05T08:55:20Z</time>
      </trkpt>
      <trkpt lat="47.31535" lon="6.0551">
        <ele>562.4</ele>
        <time>2021-09-05T08:55:21Z</time>
      </trkpt>
      <trkpt lat="47.31537" lon="6.05513">
        <ele>562.4</ele>
        <time>2021-09-05T08:55:22Z</time>
      </trkpt>
      <trkpt lat="47.31537" lon="6.05515">
        <ele>562.8</ele>
        <time>2021-09-05T08:55:23Z</time>
      </trkpt>
      <trkpt lat="47.31539" lon="6.05516">
        <ele>563</ele>
        <time>2021-09-05T08:55:24Z</time>
      </trkpt>
      <trkpt lat="47.3154" lon="6.05518">
        <ele>563.2</ele>
        <time>2021-09-05T08:55:25Z</time>
      </trkpt>
      <trkpt lat="47.31542" lon="6.0552">
        <ele>563.2</ele>
        <time>2021-09-05T08:55:26Z</time>
      </trkpt>
      <trkpt lat="47.31543" lon="6.05521">
        <ele>563.4</ele>
        <time>2021-09-05T08:55:27Z</time>
      </trkpt>
      <trkpt lat="47.31545" lon="6.05523">
        <ele>563.6</ele>
        <time>2021-09-05T08:55:28Z</time>
      </trkpt>
      <trkpt lat="47.31546" lon="6.05524">
        <ele>563.8</ele>
        <time>2021-09-05T08:55:29Z</time>
      </trkpt>
      <trkpt lat="47.31547" lon="6.05527">
        <ele>564</ele>
        <time>2021-09-05T08:55:30Z</time>
      </trkpt>
      <trkpt lat="47.31549" lon="6.05528">
        <ele>564</ele>
        <time>2021-09-05T08:55:31Z</time>
      </trkpt>
      <trkpt lat="47.3155" lon="6.0553">
        <ele>564.2</ele>
        <time>2021-09-05T08:55:32Z</time>
      </trkpt>
      <trkpt lat="47.31553" lon="6.05532">
        <ele>564.2</ele>
        <time>2021-09-05T08:55:33Z</time>
      </trkpt>
      <trkpt lat="47.31554" lon="6.05533">
        <ele>564.2</ele>
        <time>2021-09-05T08:55:34Z</time>
      </trkpt>
      <trkpt lat="47.31555" lon="6.05534">
        <ele>564.4</ele>
        <time>2021-09-05T08:55:35Z</time>
      </trkpt>
      <trkpt lat="47.31556" lon="6.05535">
        <ele>564.4</ele>
        <time>2021-09-05T08:55:36Z</time>
      </trkpt>
      <trkpt lat="47.31559" lon="6.05536">
        <ele>564.6</ele>
        <time>2021-09-05T08:55:37Z</time>
      </trkpt>
      <trkpt lat="47.31561" lon="6.05538">
        <ele>564.8</ele>
        <time>2021-09-05T08:55:38Z</time>
      </trkpt>
      <trkpt lat="47.31563" lon="6.05538">
        <ele>565</ele>
        <time>2021-09-05T08:55:39Z</time>
      </trkpt>
      <trkpt lat="47.31564" lon="6.05539">
        <ele>565</ele>
        <time>2021-09-05T08:55:40Z</time>
      </trkpt>
      <trkpt lat="47.31565" lon="6.0554">
        <ele>565.2</ele>
        <time>2021-09-05T08:55:41Z</time>
      </trkpt>
      <trkpt lat="47.31566" lon="6.05541">
        <ele>565.2</ele>
        <time>2021-09-05T08:55:42Z</time>
      </trkpt>
      <trkpt lat="47.31567" lon="6.05542">
        <ele>565.4</ele>
        <time>2021-09-05T08:55:43Z</time>
      </trkpt>
      <trkpt lat="47.31569" lon="6.05543">
        <ele>565.4</ele>
        <time>2021-09-05T08:55:44Z</time>
      </trkpt>
      <trkpt lat="47.3157" lon="6.05544">
        <ele>565.4</ele>
        <time>2021-09-05T08:55:45Z</time>
      </trkpt>
      <trkpt lat="47.31571" lon="6.05545">
        <ele>565.6</ele>
        <time>2021-09-05T08:55:46Z</time>
      </trkpt>
      <trkpt lat="47.31573" lon="6.05546">
        <ele>565.6</ele>
        <time>2021-09-05T08:55:47Z</time>
      </trkpt>
      <trkpt lat="47.31574" lon="6.05547">
        <ele>565.8</ele>
        <time>2021-09-05T08:55:48Z</time>
      </trkpt>
      <trkpt lat="47.31576" lon="6.05548">
        <ele>566</ele>
        <time>2021-09-05T08:55:49Z</time>
      </trkpt>
      <trkpt lat="47.31577" lon="6.05549">
        <ele>566.2</ele>
        <time>2021-09-05T08:55:50Z</time>
      </trkpt>
      <trkpt lat="47.31577" lon="6.0555">
        <ele>566.2</ele>
        <time>2021-09-05T08:55:51Z</time>
      </trkpt>
      <trkpt lat="47.31578" lon="6.0555">
        <ele>566.4</ele>
        <time>2021-09-05T08:55:52Z</time>
      </trkpt>
      <trkpt lat="47.31579" lon="6.05551">
        <ele>566.4</ele>
        <time>2021-09-05T08:55:53Z</time>
      </trkpt>
      <trkpt lat="47.3158" lon="6.05552">
        <ele>566.4</ele>
        <time>2021-09-05T08:55:54Z</time>
      </trkpt>
      <trkpt lat="47.31582" lon="6.05553">
        <ele>566.4</ele>
        <time>2021-09-05T08:55:55Z</time>
      </trkpt>
      <trkpt lat="47.31584" lon="6.05554">
        <ele>566.4</ele>
        <time>2021-09-05T08:55:56Z</time>
      </trkpt>
      <trkpt lat="47.31585" lon="6.05556">
        <ele>566.4</ele>
        <time>2021-09-05T08:55:57Z</time>
      </trkpt>
      <trkpt lat="47.31588" lon="6.05558">
        <ele>566.6</ele>
        <time>2021-09-05T08:55:58Z</time>
      </trkpt>
      <trkpt lat="47.31588" lon="6.05558">
        <ele>566.6</ele>
        <time>2021-09-05T08:55:59Z</time>
      </trkpt>
      <trkpt lat="47.3159" lon="6.05561">
        <ele>566.6</ele>
        <time>2021-09-05T08:56:00Z</time>
      </trkpt>
      <trkpt lat="47.31592" lon="6.05562">
        <ele>566.6</ele>
        <time>2021-09-05T08:56:01Z</time>
      </trkpt>
      <trkpt lat="47.31595" lon="6.05568">
        <ele>567.4</ele>
        <time>2021-09-05T08:56:04Z</time>
      </trkpt>
      <trkpt lat="47.31604" lon="6.05577">
        <ele>568</ele>
        <time>2021-09-05T08:56:09Z</time>
      </trkpt>
      <trkpt lat="47.31606" lon="6.0558">
        <ele>568</ele>
        <time>2021-09-05T08:56:10Z</time>
      </trkpt>
      <trkpt lat="47.31607" lon="6.05583">
        <ele>568.2</ele>
        <time>2021-09-05T08:56:11Z</time>
      </trkpt>
      <trkpt lat="47.31609" lon="6.05586">
        <ele>568.2</ele>
        <time>2021-09-05T08:56:12Z</time>
      </trkpt>
      <trkpt lat="47.31611" lon="6.05588">
        <ele>568.2</ele>
        <time>2021-09-05T08:56:13Z</time>
      </trkpt>
      <trkpt lat="47.31613" lon="6.05591">
        <ele>568.4</ele>
        <time>2021-09-05T08:56:14Z</time>
      </trkpt>
      <trkpt lat="47.31616" lon="6.05595">
        <ele>568.4</ele>
        <time>2021-09-05T08:56:15Z</time>
      </trkpt>
      <trkpt lat="47.31618" lon="6.05597">
        <ele>568.6</ele>
        <time>2021-09-05T08:56:16Z</time>
      </trkpt>
      <trkpt lat="47.3162" lon="6.05601">
        <ele>568.6</ele>
        <time>2021-09-05T08:56:17Z</time>
      </trkpt>
      <trkpt lat="47.31623" lon="6.05605">
        <ele>568.8</ele>
        <time>2021-09-05T08:56:18Z</time>
      </trkpt>
      <trkpt lat="47.31624" lon="6.05609">
        <ele>568.8</ele>
        <time>2021-09-05T08:56:19Z</time>
      </trkpt>
      <trkpt lat="47.31627" lon="6.05613">
        <ele>568.8</ele>
        <time>2021-09-05T08:56:20Z</time>
      </trkpt>
      <trkpt lat="47.31628" lon="6.05616">
        <ele>569</ele>
        <time>2021-09-05T08:56:21Z</time>
      </trkpt>
      <trkpt lat="47.3163" lon="6.0562">
        <ele>568.8</ele>
        <time>2021-09-05T08:56:22Z</time>
      </trkpt>
      <trkpt lat="47.31633" lon="6.05624">
        <ele>568.8</ele>
        <time>2021-09-05T08:56:23Z</time>
      </trkpt>
      <trkpt lat="47.31635" lon="6.05627">
        <ele>569</ele>
        <time>2021-09-05T08:56:24Z</time>
      </trkpt>
      <trkpt lat="47.31638" lon="6.05633">
        <ele>568.8</ele>
        <time>2021-09-05T08:56:26Z</time>
      </trkpt>
      <trkpt lat="47.31639" lon="6.05637">
        <ele>568.8</ele>
        <time>2021-09-05T08:56:27Z</time>
      </trkpt>
      <trkpt lat="47.3164" lon="6.0564">
        <ele>568.8</ele>
        <time>2021-09-05T08:56:28Z</time>
      </trkpt>
      <trkpt lat="47.31641" lon="6.05644">
        <ele>568.8</ele>
        <time>2021-09-05T08:56:29Z</time>
      </trkpt>
      <trkpt lat="47.31655" lon="6.05665">
        <ele>568.8</ele>
        <time>2021-09-05T08:56:35Z</time>
      </trkpt>
      <trkpt lat="47.31665" lon="6.05682">
        <ele>568.8</ele>
        <time>2021-09-05T08:56:40Z</time>
      </trkpt>
      <trkpt lat="47.31667" lon="6.05685">
        <ele>568.8</ele>
        <time>2021-09-05T08:56:41Z</time>
      </trkpt>
      <trkpt lat="47.31673" lon="6.05697">
        <ele>568.8</ele>
        <time>2021-09-05T08:56:44Z</time>
      </trkpt>
      <trkpt lat="47.31675" lon="6.05701">
        <ele>568.8</ele>
        <time>2021-09-05T08:56:45Z</time>
      </trkpt>
      <trkpt lat="47.31676" lon="6.05703">
        <ele>569</ele>
        <time>2021-09-05T08:56:46Z</time>
      </trkpt>
      <trkpt lat="47.31677" lon="6.05705">
        <ele>569</ele>
        <time>2021-09-05T08:56:47Z</time>
      </trkpt>
      <trkpt lat="47.31679" lon="6.05707">
        <ele>569.2</ele>
        <time>2021-09-05T08:56:48Z</time>
      </trkpt>
      <trkpt lat="47.31685" lon="6.05719">
        <ele>569.4</ele>
        <time>2021-09-05T08:56:51Z</time>
      </trkpt>
      <trkpt lat="47.31691" lon="6.05729">
        <ele>570</ele>
        <time>2021-09-05T08:56:54Z</time>
      </trkpt>
      <trkpt lat="47.31692" lon="6.05732">
        <ele>570.2</ele>
        <time>2021-09-05T08:56:55Z</time>
      </trkpt>
      <trkpt lat="47.31698" lon="6.05741">
        <ele>570.6</ele>
        <time>2021-09-05T08:56:58Z</time>
      </trkpt>
      <trkpt lat="47.31707" lon="6.0576">
        <ele>571.2</ele>
        <time>2021-09-05T08:57:03Z</time>
      </trkpt>
      <trkpt lat="47.31711" lon="6.05771">
        <ele>571.6</ele>
        <time>2021-09-05T08:57:06Z</time>
      </trkpt>
      <trkpt lat="47.31715" lon="6.05778">
        <ele>572.2</ele>
        <time>2021-09-05T08:57:08Z</time>
      </trkpt>
      <trkpt lat="47.31716" lon="6.05783">
        <ele>572.4</ele>
        <time>2021-09-05T08:57:09Z</time>
      </trkpt>
      <trkpt lat="47.31717" lon="6.05785">
        <ele>572.8</ele>
        <time>2021-09-05T08:57:10Z</time>
      </trkpt>
      <trkpt lat="47.31719" lon="6.05788">
        <ele>573</ele>
        <time>2021-09-05T08:57:11Z</time>
      </trkpt>
      <trkpt lat="47.3172" lon="6.05791">
        <ele>573</ele>
        <time>2021-09-05T08:57:12Z</time>
      </trkpt>
      <trkpt lat="47.31722" lon="6.05794">
        <ele>573</ele>
        <time>2021-09-05T08:57:13Z</time>
      </trkpt>
      <trkpt lat="47.31723" lon="6.05797">
        <ele>573.2</ele>
        <time>2021-09-05T08:57:14Z</time>
      </trkpt>
      <trkpt lat="47.31725" lon="6.05799">
        <ele>573.4</ele>
        <time>2021-09-05T08:57:15Z</time>
      </trkpt>
      <trkpt lat="47.31727" lon="6.05801">
        <ele>573.4</ele>
        <time>2021-09-05T08:57:16Z</time>
      </trkpt>
      <trkpt lat="47.31728" lon="6.05804">
        <ele>573.4</ele>
        <time>2021-09-05T08:57:17Z</time>
      </trkpt>
      <trkpt lat="47.3173" lon="6.05807">
        <ele>573.6</ele>
        <time>2021-09-05T08:57:18Z</time>
      </trkpt>
      <trkpt lat="47.31731" lon="6.0581">
        <ele>573.8</ele>
        <time>2021-09-05T08:57:19Z</time>
      </trkpt>
      <trkpt lat="47.31732" lon="6.05813">
        <ele>574.2</ele>
        <time>2021-09-05T08:57:20Z</time>
      </trkpt>
      <trkpt lat="47.31733" lon="6.05817">
        <ele>574.2</ele>
        <time>2021-09-05T08:57:21Z</time>
      </trkpt>
      <trkpt lat="47.31735" lon="6.0582">
        <ele>574.4</ele>
        <time>2021-09-05T08:57:22Z</time>
      </trkpt>
      <trkpt lat="47.31737" lon="6.05823">
        <ele>574.4</ele>
        <time>2021-09-05T08:57:23Z</time>
      </trkpt>
      <trkpt lat="47.31739" lon="6.05827">
        <ele>574.6</ele>
        <time>2021-09-05T08:57:24Z</time>
      </trkpt>
      <trkpt lat="47.3174" lon="6.0583">
        <ele>574.6</ele>
        <time>2021-09-05T08:57:25Z</time>
      </trkpt>
      <trkpt lat="47.31741" lon="6.05832">
        <ele>574.8</ele>
        <time>2021-09-05T08:57:26Z</time>
      </trkpt>
      <trkpt lat="47.31742" lon="6.05835">
        <ele>575.2</ele>
        <time>2021-09-05T08:57:27Z</time>
      </trkpt>
      <trkpt lat="47.31743" lon="6.05838">
        <ele>575.4</ele>
        <time>2021-09-05T08:57:28Z</time>
      </trkpt>
      <trkpt lat="47.31743" lon="6.0584">
        <ele>575.6</ele>
        <time>2021-09-05T08:57:29Z</time>
      </trkpt>
      <trkpt lat="47.31745" lon="6.05843">
        <ele>575.6</ele>
        <time>2021-09-05T08:57:30Z</time>
      </trkpt>
      <trkpt lat="47.31746" lon="6.05846">
        <ele>575.6</ele>
        <time>2021-09-05T08:57:31Z</time>
      </trkpt>
      <trkpt lat="47.31747" lon="6.05848">
        <ele>575.8</ele>
        <time>2021-09-05T08:57:32Z</time>
      </trkpt>
      <trkpt lat="47.31748" lon="6.05852">
        <ele>575.8</ele>
        <time>2021-09-05T08:57:33Z</time>
      </trkpt>
      <trkpt lat="47.31749" lon="6.05853">
        <ele>576</ele>
        <time>2021-09-05T08:57:34Z</time>
      </trkpt>
      <trkpt lat="47.31751" lon="6.05856">
        <ele>576</ele>
        <time>2021-09-05T08:57:35Z</time>
      </trkpt>
      <trkpt lat="47.31753" lon="6.05858">
        <ele>576.2</ele>
        <time>2021-09-05T08:57:36Z</time>
      </trkpt>
      <trkpt lat="47.31755" lon="6.05861">
        <ele>576.2</ele>
        <time>2021-09-05T08:57:37Z</time>
      </trkpt>
      <trkpt lat="47.31757" lon="6.05864">
        <ele>576.4</ele>
        <time>2021-09-05T08:57:38Z</time>
      </trkpt>
      <trkpt lat="47.31759" lon="6.05867">
        <ele>576.4</ele>
        <time>2021-09-05T08:57:39Z</time>
      </trkpt>
      <trkpt lat="47.31761" lon="6.05869">
        <ele>576.8</ele>
        <time>2021-09-05T08:57:40Z</time>
      </trkpt>
      <trkpt lat="47.31762" lon="6.05871">
        <ele>577</ele>
        <time>2021-09-05T08:57:41Z</time>
      </trkpt>
      <trkpt lat="47.31763" lon="6.05873">
        <ele>577.2</ele>
        <time>2021-09-05T08:57:42Z</time>
      </trkpt>
      <trkpt lat="47.31765" lon="6.05876">
        <ele>577.4</ele>
        <time>2021-09-05T08:57:43Z</time>
      </trkpt>
      <trkpt lat="47.31766" lon="6.05877">
        <ele>577.4</ele>
        <time>2021-09-05T08:57:44Z</time>
      </trkpt>
      <trkpt lat="47.31767" lon="6.05879">
        <ele>577.6</ele>
        <time>2021-09-05T08:57:45Z</time>
      </trkpt>
      <trkpt lat="47.31769" lon="6.05881">
        <ele>577.6</ele>
        <time>2021-09-05T08:57:46Z</time>
      </trkpt>
      <trkpt lat="47.3177" lon="6.05883">
        <ele>577.8</ele>
        <time>2021-09-05T08:57:47Z</time>
      </trkpt>
      <trkpt lat="47.31772" lon="6.05885">
        <ele>577.8</ele>
        <time>2021-09-05T08:57:48Z</time>
      </trkpt>
      <trkpt lat="47.31774" lon="6.05887">
        <ele>577.8</ele>
        <time>2021-09-05T08:57:49Z</time>
      </trkpt>
      <trkpt lat="47.31776" lon="6.05889">
        <ele>578</ele>
        <time>2021-09-05T08:57:50Z</time>
      </trkpt>
      <trkpt lat="47.31779" lon="6.05892">
        <ele>578</ele>
        <time>2021-09-05T08:57:51Z</time>
      </trkpt>
      <trkpt lat="47.31781" lon="6.05893">
        <ele>578.2</ele>
        <time>2021-09-05T08:57:52Z</time>
      </trkpt>
      <trkpt lat="47.31784" lon="6.05895">
        <ele>578.2</ele>
        <time>2021-09-05T08:57:53Z</time>
      </trkpt>
      <trkpt lat="47.31786" lon="6.05896">
        <ele>578.2</ele>
        <time>2021-09-05T08:57:54Z</time>
      </trkpt>
      <trkpt lat="47.31788" lon="6.05898">
        <ele>578.4</ele>
        <time>2021-09-05T08:57:55Z</time>
      </trkpt>
      <trkpt lat="47.3179" lon="6.05899">
        <ele>578.4</ele>
        <time>2021-09-05T08:57:56Z</time>
      </trkpt>
      <trkpt lat="47.31792" lon="6.059">
        <ele>578.6</ele>
        <time>2021-09-05T08:57:57Z</time>
      </trkpt>
      <trkpt lat="47.31794" lon="6.059">
        <ele>578.8</ele>
        <time>2021-09-05T08:57:58Z</time>
      </trkpt>
      <trkpt lat="47.31796" lon="6.05901">
        <ele>579</ele>
        <time>2021-09-05T08:57:59Z</time>
      </trkpt>
      <trkpt lat="47.31798" lon="6.05902">
        <ele>579</ele>
        <time>2021-09-05T08:58:00Z</time>
      </trkpt>
      <trkpt lat="47.318" lon="6.05903">
        <ele>579.2</ele>
        <time>2021-09-05T08:58:01Z</time>
      </trkpt>
      <trkpt lat="47.31803" lon="6.05904">
        <ele>579.2</ele>
        <time>2021-09-05T08:58:02Z</time>
      </trkpt>
      <trkpt lat="47.31804" lon="6.05904">
        <ele>579.4</ele>
        <time>2021-09-05T08:58:03Z</time>
      </trkpt>
      <trkpt lat="47.31807" lon="6.05906">
        <ele>579.6</ele>
        <time>2021-09-05T08:58:04Z</time>
      </trkpt>
      <trkpt lat="47.3181" lon="6.05907">
        <ele>579.6</ele>
        <time>2021-09-05T08:58:05Z</time>
      </trkpt>
      <trkpt lat="47.31813" lon="6.05909">
        <ele>579.8</ele>
        <time>2021-09-05T08:58:06Z</time>
      </trkpt>
      <trkpt lat="47.31817" lon="6.05911">
        <ele>579.8</ele>
        <time>2021-09-05T08:58:07Z</time>
      </trkpt>
      <trkpt lat="47.31819" lon="6.05913">
        <ele>580</ele>
        <time>2021-09-05T08:58:08Z</time>
      </trkpt>
      <trkpt lat="47.31821" lon="6.05914">
        <ele>580</ele>
        <time>2021-09-05T08:58:09Z</time>
      </trkpt>
      <trkpt lat="47.31823" lon="6.05915">
        <ele>580.2</ele>
        <time>2021-09-05T08:58:10Z</time>
      </trkpt>
      <trkpt lat="47.31824" lon="6.05917">
        <ele>580.2</ele>
        <time>2021-09-05T08:58:11Z</time>
      </trkpt>
      <trkpt lat="47.31827" lon="6.05919">
        <ele>580.4</ele>
        <time>2021-09-05T08:58:12Z</time>
      </trkpt>
      <trkpt lat="47.31829" lon="6.05922">
        <ele>580.6</ele>
        <time>2021-09-05T08:58:13Z</time>
      </trkpt>
      <trkpt lat="47.31831" lon="6.05925">
        <ele>580.8</ele>
        <time>2021-09-05T08:58:14Z</time>
      </trkpt>
      <trkpt lat="47.31833" lon="6.05929">
        <ele>581</ele>
        <time>2021-09-05T08:58:15Z</time>
      </trkpt>
      <trkpt lat="47.31835" lon="6.05931">
        <ele>581.2</ele>
        <time>2021-09-05T08:58:16Z</time>
      </trkpt>
      <trkpt lat="47.31838" lon="6.05935">
        <ele>581.4</ele>
        <time>2021-09-05T08:58:17Z</time>
      </trkpt>
      <trkpt lat="47.31839" lon="6.05938">
        <ele>581.4</ele>
        <time>2021-09-05T08:58:18Z</time>
      </trkpt>
      <trkpt lat="47.31842" lon="6.0594">
        <ele>581.6</ele>
        <time>2021-09-05T08:58:19Z</time>
      </trkpt>
      <trkpt lat="47.31844" lon="6.05943">
        <ele>581.6</ele>
        <time>2021-09-05T08:58:20Z</time>
      </trkpt>
      <trkpt lat="47.31846" lon="6.05946">
        <ele>581.8</ele>
        <time>2021-09-05T08:58:21Z</time>
      </trkpt>
      <trkpt lat="47.31847" lon="6.05948">
        <ele>581.8</ele>
        <time>2021-09-05T08:58:22Z</time>
      </trkpt>
      <trkpt lat="47.31847" lon="6.05951">
        <ele>582</ele>
        <time>2021-09-05T08:58:23Z</time>
      </trkpt>
      <trkpt lat="47.31847" lon="6.05955">
        <ele>582.4</ele>
        <time>2021-09-05T08:58:24Z</time>
      </trkpt>
      <trkpt lat="47.31847" lon="6.05959">
        <ele>582.6</ele>
        <time>2021-09-05T08:58:25Z</time>
      </trkpt>
      <trkpt lat="47.31847" lon="6.05962">
        <ele>582.8</ele>
        <time>2021-09-05T08:58:26Z</time>
      </trkpt>
      <trkpt lat="47.31848" lon="6.05966">
        <ele>583</ele>
        <time>2021-09-05T08:58:27Z</time>
      </trkpt>
      <trkpt lat="47.31849" lon="6.05968">
        <ele>583</ele>
        <time>2021-09-05T08:58:28Z</time>
      </trkpt>
      <trkpt lat="47.3185" lon="6.05969">
        <ele>583</ele>
        <time>2021-09-05T08:58:29Z</time>
      </trkpt>
      <trkpt lat="47.31852" lon="6.0597">
        <ele>583.4</ele>
        <time>2021-09-05T08:58:30Z</time>
      </trkpt>
      <trkpt lat="47.31854" lon="6.0597">
        <ele>583.6</ele>
        <time>2021-09-05T08:58:31Z</time>
      </trkpt>
      <trkpt lat="47.31856" lon="6.0597">
        <ele>583.6</ele>
        <time>2021-09-05T08:58:32Z</time>
      </trkpt>
      <trkpt lat="47.31858" lon="6.05969">
        <ele>583.8</ele>
        <time>2021-09-05T08:58:33Z</time>
      </trkpt>
      <trkpt lat="47.3186" lon="6.05969">
        <ele>584</ele>
        <time>2021-09-05T08:58:34Z</time>
      </trkpt>
      <trkpt lat="47.31862" lon="6.05969">
        <ele>584.2</ele>
        <time>2021-09-05T08:58:35Z</time>
      </trkpt>
      <trkpt lat="47.31864" lon="6.05969">
        <ele>584.2</ele>
        <time>2021-09-05T08:58:36Z</time>
      </trkpt>
      <trkpt lat="47.31866" lon="6.0597">
        <ele>584.2</ele>
        <time>2021-09-05T08:58:37Z</time>
      </trkpt>
      <trkpt lat="47.31868" lon="6.0597">
        <ele>584.2</ele>
        <time>2021-09-05T08:58:38Z</time>
      </trkpt>
      <trkpt lat="47.3187" lon="6.05971">
        <ele>584.4</ele>
        <time>2021-09-05T08:58:39Z</time>
      </trkpt>
      <trkpt lat="47.31872" lon="6.05972">
        <ele>584.4</ele>
        <time>2021-09-05T08:58:40Z</time>
      </trkpt>
      <trkpt lat="47.31874" lon="6.05973">
        <ele>584.4</ele>
        <time>2021-09-05T08:58:41Z</time>
      </trkpt>
      <trkpt lat="47.31875" lon="6.05974">
        <ele>584.6</ele>
        <time>2021-09-05T08:58:42Z</time>
      </trkpt>
      <trkpt lat="47.31877" lon="6.05975">
        <ele>584.6</ele>
        <time>2021-09-05T08:58:43Z</time>
      </trkpt>
      <trkpt lat="47.31878" lon="6.05975">
        <ele>584.6</ele>
        <time>2021-09-05T08:58:44Z</time>
      </trkpt>
      <trkpt lat="47.31879" lon="6.05975">
        <ele>584.8</ele>
        <time>2021-09-05T08:58:45Z</time>
      </trkpt>
      <trkpt lat="47.31879" lon="6.05975">
        <ele>584.8</ele>
        <time>2021-09-05T08:58:47Z</time>
      </trkpt>
      <trkpt lat="47.31879" lon="6.05975">
        <ele>584.6</ele>
        <time>2021-09-05T08:58:57Z</time>
      </trkpt>
      <trkpt lat="47.31879" lon="6.05975">
        <ele>584.2</ele>
        <time>2021-09-05T08:59:44Z</time>
      </trkpt>
      <trkpt lat="47.31879" lon="6.05975">
        <ele>584.2</ele>
        <time>2021-09-05T09:00:10Z</time>
      </trkpt>
      <trkpt lat="47.31879" lon="6.05975">
        <ele>584.6</ele>
        <time>2021-09-05T09:00:36Z</time>
      </trkpt>
      <trkpt lat="47.31879" lon="6.05975">
        <ele>584.6</ele>
        <time>2021-09-05T09:01:10Z</time>
      </trkpt>
      <trkpt lat="47.31879" lon="6.05975">
        <ele>584.6</ele>
        <time>2021-09-05T09:01:55Z</time>
      </trkpt>
      <trkpt lat="47.31879" lon="6.05975">
        <ele>584.6</ele>
        <time>2021-09-05T09:03:01Z</time>
      </trkpt>
      <trkpt lat="47.31879" lon="6.05975">
        <ele>584.4</ele>
        <time>2021-09-05T09:03:08Z</time>
      </trkpt>
      <trkpt lat="47.31879" lon="6.05975">
        <ele>584</ele>
        <time>2021-09-05T09:04:35Z</time>
      </trkpt>
      <trkpt lat="47.31879" lon="6.05975">
        <ele>584.2</ele>
        <time>2021-09-05T09:05:53Z</time>
      </trkpt>
      <trkpt lat="47.31879" lon="6.05975">
        <ele>584.2</ele>
        <time>2021-09-05T09:07:07Z</time>
      </trkpt>
      <trkpt lat="47.31879" lon="6.05975">
        <ele>584</ele>
        <time>2021-09-05T09:07:14Z</time>
      </trkpt>
      <trkpt lat="47.31879" lon="6.05975">
        <ele>583.8</ele>
        <time>2021-09-05T09:08:09Z</time>
      </trkpt>
      <trkpt lat="47.31877" lon="6.05973">
        <ele>584</ele>
        <time>2021-09-05T09:09:56Z</time>
      </trkpt>
      <trkpt lat="47.31876" lon="6.05972">
        <ele>584</ele>
        <time>2021-09-05T09:09:57Z</time>
      </trkpt>
      <trkpt lat="47.31875" lon="6.0597">
        <ele>584</ele>
        <time>2021-09-05T09:09:58Z</time>
      </trkpt>
      <trkpt lat="47.31874" lon="6.05967">
        <ele>584</ele>
        <time>2021-09-05T09:09:59Z</time>
      </trkpt>
      <trkpt lat="47.31873" lon="6.05964">
        <ele>583.6</ele>
        <time>2021-09-05T09:10:00Z</time>
      </trkpt>
      <trkpt lat="47.3187" lon="6.05958">
        <ele>583.6</ele>
        <time>2021-09-05T09:10:02Z</time>
      </trkpt>
      <trkpt lat="47.31869" lon="6.05955">
        <ele>583.6</ele>
        <time>2021-09-05T09:10:03Z</time>
      </trkpt>
      <trkpt lat="47.31865" lon="6.05951">
        <ele>583.4</ele>
        <time>2021-09-05T09:10:05Z</time>
      </trkpt>
      <trkpt lat="47.31855" lon="6.05941">
        <ele>583</ele>
        <time>2021-09-05T09:10:09Z</time>
      </trkpt>
      <trkpt lat="47.31852" lon="6.05941">
        <ele>582.8</ele>
        <time>2021-09-05T09:10:10Z</time>
      </trkpt>
      <trkpt lat="47.31851" lon="6.0594">
        <ele>582.8</ele>
        <time>2021-09-05T09:10:11Z</time>
      </trkpt>
      <trkpt lat="47.31849" lon="6.0594">
        <ele>582.8</ele>
        <time>2021-09-05T09:10:12Z</time>
      </trkpt>
      <trkpt lat="47.31848" lon="6.05941">
        <ele>582.6</ele>
        <time>2021-09-05T09:10:13Z</time>
      </trkpt>
      <trkpt lat="47.31847" lon="6.05941">
        <ele>582.6</ele>
        <time>2021-09-05T09:10:14Z</time>
      </trkpt>
      <trkpt lat="47.31846" lon="6.0594">
        <ele>582.4</ele>
        <time>2021-09-05T09:10:15Z</time>
      </trkpt>
      <trkpt lat="47.31844" lon="6.05938">
        <ele>582.4</ele>
        <time>2021-09-05T09:10:16Z</time>
      </trkpt>
      <trkpt lat="47.31843" lon="6.05937">
        <ele>582.2</ele>
        <time>2021-09-05T09:10:17Z</time>
      </trkpt>
      <trkpt lat="47.31841" lon="6.05935">
        <ele>582.2</ele>
        <time>2021-09-05T09:10:18Z</time>
      </trkpt>
      <trkpt lat="47.3184" lon="6.05933">
        <ele>582</ele>
        <time>2021-09-05T09:10:19Z</time>
      </trkpt>
      <trkpt lat="47.31839" lon="6.0593">
        <ele>582</ele>
        <time>2021-09-05T09:10:20Z</time>
      </trkpt>
      <trkpt lat="47.31835" lon="6.05925">
        <ele>581.8</ele>
        <time>2021-09-05T09:10:23Z</time>
      </trkpt>
      <trkpt lat="47.31833" lon="6.05924">
        <ele>581.6</ele>
        <time>2021-09-05T09:10:24Z</time>
      </trkpt>
      <trkpt lat="47.31831" lon="6.05923">
        <ele>581.4</ele>
        <time>2021-09-05T09:10:25Z</time>
      </trkpt>
      <trkpt lat="47.3183" lon="6.05921">
        <ele>581.2</ele>
        <time>2021-09-05T09:10:26Z</time>
      </trkpt>
      <trkpt lat="47.31825" lon="6.05917">
        <ele>580.6</ele>
        <time>2021-09-05T09:10:29Z</time>
      </trkpt>
      <trkpt lat="47.3182" lon="6.05915">
        <ele>580.2</ele>
        <time>2021-09-05T09:10:31Z</time>
      </trkpt>
      <trkpt lat="47.31807" lon="6.05911">
        <ele>580.2</ele>
        <time>2021-09-05T09:10:35Z</time>
      </trkpt>
      <trkpt lat="47.31804" lon="6.0591">
        <ele>579.8</ele>
        <time>2021-09-05T09:10:36Z</time>
      </trkpt>
      <trkpt lat="47.31795" lon="6.05906">
        <ele>579.8</ele>
        <time>2021-09-05T09:10:38Z</time>
      </trkpt>
      <trkpt lat="47.31787" lon="6.059">
        <ele>579.4</ele>
        <time>2021-09-05T09:10:40Z</time>
      </trkpt>
      <trkpt lat="47.31779" lon="6.0589">
        <ele>578.8</ele>
        <time>2021-09-05T09:10:42Z</time>
      </trkpt>
      <trkpt lat="47.31775" lon="6.05885">
        <ele>578.8</ele>
        <time>2021-09-05T09:10:43Z</time>
      </trkpt>
      <trkpt lat="47.31771" lon="6.05879">
        <ele>578.6</ele>
        <time>2021-09-05T09:10:44Z</time>
      </trkpt>
      <trkpt lat="47.31753" lon="6.05856">
        <ele>578.2</ele>
        <time>2021-09-05T09:10:49Z</time>
      </trkpt>
      <trkpt lat="47.3175" lon="6.05853">
        <ele>577.8</ele>
        <time>2021-09-05T09:10:50Z</time>
      </trkpt>
      <trkpt lat="47.31746" lon="6.05852">
        <ele>577.2</ele>
        <time>2021-09-05T09:10:51Z</time>
      </trkpt>
      <trkpt lat="47.31743" lon="6.05851">
        <ele>577</ele>
        <time>2021-09-05T09:10:52Z</time>
      </trkpt>
      <trkpt lat="47.31738" lon="6.05849">
        <ele>576.8</ele>
        <time>2021-09-05T09:10:53Z</time>
      </trkpt>
      <trkpt lat="47.31734" lon="6.05848">
        <ele>576.6</ele>
        <time>2021-09-05T09:10:54Z</time>
      </trkpt>
      <trkpt lat="47.3173" lon="6.05847">
        <ele>576.4</ele>
        <time>2021-09-05T09:10:55Z</time>
      </trkpt>
      <trkpt lat="47.31721" lon="6.05844">
        <ele>575.8</ele>
        <time>2021-09-05T09:10:57Z</time>
      </trkpt>
      <trkpt lat="47.31716" lon="6.05842">
        <ele>575.6</ele>
        <time>2021-09-05T09:10:58Z</time>
      </trkpt>
      <trkpt lat="47.3171" lon="6.0584">
        <ele>575</ele>
        <time>2021-09-05T09:10:59Z</time>
      </trkpt>
      <trkpt lat="47.31705" lon="6.05839">
        <ele>574.6</ele>
        <time>2021-09-05T09:11:00Z</time>
      </trkpt>
      <trkpt lat="47.317" lon="6.05838">
        <ele>574.2</ele>
        <time>2021-09-05T09:11:01Z</time>
      </trkpt>
      <trkpt lat="47.31694" lon="6.05836">
        <ele>574</ele>
        <time>2021-09-05T09:11:02Z</time>
      </trkpt>
      <trkpt lat="47.3169" lon="6.05834">
        <ele>573.6</ele>
        <time>2021-09-05T09:11:03Z</time>
      </trkpt>
      <trkpt lat="47.31685" lon="6.05833">
        <ele>573.4</ele>
        <time>2021-09-05T09:11:04Z</time>
      </trkpt>
      <trkpt lat="47.31682" lon="6.05832">
        <ele>573</ele>
        <time>2021-09-05T09:11:05Z</time>
      </trkpt>
      <trkpt lat="47.31677" lon="6.05831">
        <ele>572.4</ele>
        <time>2021-09-05T09:11:06Z</time>
      </trkpt>
      <trkpt lat="47.31657" lon="6.05823">
        <ele>571.4</ele>
        <time>2021-09-05T09:11:10Z</time>
      </trkpt>
      <trkpt lat="47.31653" lon="6.05821">
        <ele>571</ele>
        <time>2021-09-05T09:11:11Z</time>
      </trkpt>
      <trkpt lat="47.31648" lon="6.0582">
        <ele>570.4</ele>
        <time>2021-09-05T09:11:12Z</time>
      </trkpt>
      <trkpt lat="47.31643" lon="6.05819">
        <ele>569.4</ele>
        <time>2021-09-05T09:11:13Z</time>
      </trkpt>
      <trkpt lat="47.31634" lon="6.05817">
        <ele>568</ele>
        <time>2021-09-05T09:11:15Z</time>
      </trkpt>
      <trkpt lat="47.3163" lon="6.05815">
        <ele>567.6</ele>
        <time>2021-09-05T09:11:16Z</time>
      </trkpt>
      <trkpt lat="47.31626" lon="6.05813">
        <ele>566.8</ele>
        <time>2021-09-05T09:11:17Z</time>
      </trkpt>
      <trkpt lat="47.31623" lon="6.05811">
        <ele>566.6</ele>
        <time>2021-09-05T09:11:18Z</time>
      </trkpt>
      <trkpt lat="47.3162" lon="6.05809">
        <ele>566.4</ele>
        <time>2021-09-05T09:11:19Z</time>
      </trkpt>
      <trkpt lat="47.31618" lon="6.05806">
        <ele>566.2</ele>
        <time>2021-09-05T09:11:20Z</time>
      </trkpt>
      <trkpt lat="47.31616" lon="6.05803">
        <ele>565.8</ele>
        <time>2021-09-05T09:11:21Z</time>
      </trkpt>
      <trkpt lat="47.31614" lon="6.05801">
        <ele>565</ele>
        <time>2021-09-05T09:11:22Z</time>
      </trkpt>
      <trkpt lat="47.31611" lon="6.05799">
        <ele>564.6</ele>
        <time>2021-09-05T09:11:23Z</time>
      </trkpt>
      <trkpt lat="47.31609" lon="6.05799">
        <ele>564</ele>
        <time>2021-09-05T09:11:24Z</time>
      </trkpt>
      <trkpt lat="47.31607" lon="6.05798">
        <ele>563.8</ele>
        <time>2021-09-05T09:11:25Z</time>
      </trkpt>
      <trkpt lat="47.31604" lon="6.05798">
        <ele>563.6</ele>
        <time>2021-09-05T09:11:26Z</time>
      </trkpt>
      <trkpt lat="47.31593" lon="6.05799">
        <ele>562.6</ele>
        <time>2021-09-05T09:11:29Z</time>
      </trkpt>
      <trkpt lat="47.31589" lon="6.058">
        <ele>562.6</ele>
        <time>2021-09-05T09:11:30Z</time>
      </trkpt>
      <trkpt lat="47.31574" lon="6.05806">
        <ele>561</ele>
        <time>2021-09-05T09:11:34Z</time>
      </trkpt>
      <trkpt lat="47.31566" lon="6.05808">
        <ele>560.2</ele>
        <time>2021-09-05T09:11:36Z</time>
      </trkpt>
      <trkpt lat="47.31561" lon="6.05808">
        <ele>560</ele>
        <time>2021-09-05T09:11:37Z</time>
      </trkpt>
      <trkpt lat="47.31557" lon="6.05806">
        <ele>559</ele>
        <time>2021-09-05T09:11:38Z</time>
      </trkpt>
      <trkpt lat="47.31553" lon="6.05803">
        <ele>558.6</ele>
        <time>2021-09-05T09:11:39Z</time>
      </trkpt>
      <trkpt lat="47.31549" lon="6.05799">
        <ele>557.6</ele>
        <time>2021-09-05T09:11:40Z</time>
      </trkpt>
      <trkpt lat="47.31546" lon="6.05795">
        <ele>557.2</ele>
        <time>2021-09-05T09:11:41Z</time>
      </trkpt>
      <trkpt lat="47.31543" lon="6.05791">
        <ele>556.2</ele>
        <time>2021-09-05T09:11:42Z</time>
      </trkpt>
      <trkpt lat="47.31537" lon="6.05785">
        <ele>555</ele>
        <time>2021-09-05T09:11:44Z</time>
      </trkpt>
      <trkpt lat="47.31535" lon="6.05783">
        <ele>554</ele>
        <time>2021-09-05T09:11:45Z</time>
      </trkpt>
      <trkpt lat="47.31533" lon="6.05781">
        <ele>553.6</ele>
        <time>2021-09-05T09:11:46Z</time>
      </trkpt>
      <trkpt lat="47.31531" lon="6.05779">
        <ele>553.2</ele>
        <time>2021-09-05T09:11:47Z</time>
      </trkpt>
      <trkpt lat="47.31529" lon="6.05778">
        <ele>553</ele>
        <time>2021-09-05T09:11:48Z</time>
      </trkpt>
      <trkpt lat="47.31526" lon="6.05776">
        <ele>552.6</ele>
        <time>2021-09-05T09:11:49Z</time>
      </trkpt>
      <trkpt lat="47.31523" lon="6.05774">
        <ele>552.2</ele>
        <time>2021-09-05T09:11:50Z</time>
      </trkpt>
      <trkpt lat="47.31515" lon="6.05769">
        <ele>551.6</ele>
        <time>2021-09-05T09:11:52Z</time>
      </trkpt>
      <trkpt lat="47.31507" lon="6.05762">
        <ele>551</ele>
        <time>2021-09-05T09:11:55Z</time>
      </trkpt>
      <trkpt lat="47.31506" lon="6.05761">
        <ele>550.6</ele>
        <time>2021-09-05T09:11:56Z</time>
      </trkpt>
      <trkpt lat="47.31505" lon="6.05759">
        <ele>550.2</ele>
        <time>2021-09-05T09:11:57Z</time>
      </trkpt>
      <trkpt lat="47.31505" lon="6.05758">
        <ele>548.8</ele>
        <time>2021-09-05T09:12:00Z</time>
      </trkpt>
      <trkpt lat="47.31505" lon="6.05758">
        <ele>548</ele>
        <time>2021-09-05T09:12:21Z</time>
      </trkpt>
      <trkpt lat="47.31504" lon="6.05756">
        <ele>548</ele>
        <time>2021-09-05T09:12:26Z</time>
      </trkpt>
      <trkpt lat="47.31501" lon="6.05752">
        <ele>548</ele>
        <time>2021-09-05T09:12:29Z</time>
      </trkpt>
      <trkpt lat="47.31499" lon="6.0575">
        <ele>548</ele>
        <time>2021-09-05T09:12:30Z</time>
      </trkpt>
      <trkpt lat="47.31494" lon="6.05744">
        <ele>547.8</ele>
        <time>2021-09-05T09:12:33Z</time>
      </trkpt>
      <trkpt lat="47.31492" lon="6.05741">
        <ele>547.6</ele>
        <time>2021-09-05T09:12:34Z</time>
      </trkpt>
      <trkpt lat="47.31481" lon="6.05729">
        <ele>547</ele>
        <time>2021-09-05T09:12:38Z</time>
      </trkpt>
      <trkpt lat="47.31479" lon="6.05726">
        <ele>546.6</ele>
        <time>2021-09-05T09:12:39Z</time>
      </trkpt>
      <trkpt lat="47.31477" lon="6.05723">
        <ele>546.4</ele>
        <time>2021-09-05T09:12:40Z</time>
      </trkpt>
      <trkpt lat="47.31475" lon="6.05721">
        <ele>545.8</ele>
        <time>2021-09-05T09:12:41Z</time>
      </trkpt>
      <trkpt lat="47.31473" lon="6.05719">
        <ele>545.6</ele>
        <time>2021-09-05T09:12:42Z</time>
      </trkpt>
      <trkpt lat="47.31471" lon="6.05717">
        <ele>545</ele>
        <time>2021-09-05T09:12:43Z</time>
      </trkpt>
      <trkpt lat="47.31469" lon="6.05715">
        <ele>545</ele>
        <time>2021-09-05T09:12:44Z</time>
      </trkpt>
      <trkpt lat="47.31468" lon="6.05713">
        <ele>544.6</ele>
        <time>2021-09-05T09:12:45Z</time>
      </trkpt>
      <trkpt lat="47.31466" lon="6.05712">
        <ele>544.6</ele>
        <time>2021-09-05T09:12:46Z</time>
      </trkpt>
      <trkpt lat="47.31466" lon="6.05712">
        <ele>544</ele>
        <time>2021-09-05T09:12:47Z</time>
      </trkpt>
      <trkpt lat="47.31466" lon="6.05712">
        <ele>543.4</ele>
        <time>2021-09-05T09:12:49Z</time>
      </trkpt>
      <trkpt lat="47.31466" lon="6.05712">
        <ele>543</ele>
        <time>2021-09-05T09:12:51Z</time>
      </trkpt>
      <trkpt lat="47.31466" lon="6.05712">
        <ele>542.4</ele>
        <time>2021-09-05T09:13:03Z</time>
      </trkpt>
      <trkpt lat="47.31461" lon="6.05705">
        <ele>542.4</ele>
        <time>2021-09-05T09:13:05Z</time>
      </trkpt>
      <trkpt lat="47.31446" lon="6.05687">
        <ele>542</ele>
        <time>2021-09-05T09:13:09Z</time>
      </trkpt>
      <trkpt lat="47.3144" lon="6.05682">
        <ele>542</ele>
        <time>2021-09-05T09:13:10Z</time>
      </trkpt>
      <trkpt lat="47.31435" lon="6.05677">
        <ele>540.8</ele>
        <time>2021-09-05T09:13:11Z</time>
      </trkpt>
      <trkpt lat="47.3143" lon="6.05672">
        <ele>540.6</ele>
        <time>2021-09-05T09:13:12Z</time>
      </trkpt>
      <trkpt lat="47.31418" lon="6.05661">
        <ele>539.4</ele>
        <time>2021-09-05T09:13:14Z</time>
      </trkpt>
      <trkpt lat="47.31413" lon="6.05655">
        <ele>538.6</ele>
        <time>2021-09-05T09:13:15Z</time>
      </trkpt>
      <trkpt lat="47.31407" lon="6.05647">
        <ele>538.2</ele>
        <time>2021-09-05T09:13:16Z</time>
      </trkpt>
      <trkpt lat="47.31394" lon="6.05632">
        <ele>536.8</ele>
        <time>2021-09-05T09:13:18Z</time>
      </trkpt>
      <trkpt lat="47.3138" lon="6.05616">
        <ele>535.6</ele>
        <time>2021-09-05T09:13:20Z</time>
      </trkpt>
      <trkpt lat="47.31367" lon="6.056">
        <ele>533.4</ele>
        <time>2021-09-05T09:13:22Z</time>
      </trkpt>
      <trkpt lat="47.31353" lon="6.05581">
        <ele>532</ele>
        <time>2021-09-05T09:13:24Z</time>
      </trkpt>
      <trkpt lat="47.31338" lon="6.0556">
        <ele>530.2</ele>
        <time>2021-09-05T09:13:26Z</time>
      </trkpt>
      <trkpt lat="47.31325" lon="6.0554">
        <ele>529</ele>
        <time>2021-09-05T09:13:28Z</time>
      </trkpt>
      <trkpt lat="47.31318" lon="6.0553">
        <ele>527.6</ele>
        <time>2021-09-05T09:13:29Z</time>
      </trkpt>
      <trkpt lat="47.31311" lon="6.05521">
        <ele>527</ele>
        <time>2021-09-05T09:13:30Z</time>
      </trkpt>
      <trkpt lat="47.31304" lon="6.05512">
        <ele>525.4</ele>
        <time>2021-09-05T09:13:31Z</time>
      </trkpt>
      <trkpt lat="47.31292" lon="6.05494">
        <ele>523.6</ele>
        <time>2021-09-05T09:13:33Z</time>
      </trkpt>
      <trkpt lat="47.31285" lon="6.05485">
        <ele>522</ele>
        <time>2021-09-05T09:13:34Z</time>
      </trkpt>
      <trkpt lat="47.31278" lon="6.05477">
        <ele>521.4</ele>
        <time>2021-09-05T09:13:35Z</time>
      </trkpt>
      <trkpt lat="47.3127" lon="6.05467">
        <ele>520.2</ele>
        <time>2021-09-05T09:13:36Z</time>
      </trkpt>
      <trkpt lat="47.31263" lon="6.05459">
        <ele>519</ele>
        <time>2021-09-05T09:13:37Z</time>
      </trkpt>
      <trkpt lat="47.31256" lon="6.05452">
        <ele>517.4</ele>
        <time>2021-09-05T09:13:38Z</time>
      </trkpt>
      <trkpt lat="47.31249" lon="6.05442">
        <ele>517</ele>
        <time>2021-09-05T09:13:39Z</time>
      </trkpt>
      <trkpt lat="47.31244" lon="6.05433">
        <ele>516.4</ele>
        <time>2021-09-05T09:13:40Z</time>
      </trkpt>
      <trkpt lat="47.3124" lon="6.05426">
        <ele>515.6</ele>
        <time>2021-09-05T09:13:41Z</time>
      </trkpt>
      <trkpt lat="47.31236" lon="6.05419">
        <ele>515.2</ele>
        <time>2021-09-05T09:13:42Z</time>
      </trkpt>
      <trkpt lat="47.31233" lon="6.05415">
        <ele>513</ele>
        <time>2021-09-05T09:13:43Z</time>
      </trkpt>
      <trkpt lat="47.3123" lon="6.05411">
        <ele>512.2</ele>
        <time>2021-09-05T09:13:44Z</time>
      </trkpt>
      <trkpt lat="47.31225" lon="6.05407">
        <ele>511.2</ele>
        <time>2021-09-05T09:13:45Z</time>
      </trkpt>
      <trkpt lat="47.31221" lon="6.05403">
        <ele>510.8</ele>
        <time>2021-09-05T09:13:46Z</time>
      </trkpt>
      <trkpt lat="47.31215" lon="6.05399">
        <ele>510.4</ele>
        <time>2021-09-05T09:13:47Z</time>
      </trkpt>
      <trkpt lat="47.31209" lon="6.05395">
        <ele>508.6</ele>
        <time>2021-09-05T09:13:48Z</time>
      </trkpt>
      <trkpt lat="47.31194" lon="6.05385">
        <ele>507.4</ele>
        <time>2021-09-05T09:13:50Z</time>
      </trkpt>
      <trkpt lat="47.31186" lon="6.0538">
        <ele>507</ele>
        <time>2021-09-05T09:13:51Z</time>
      </trkpt>
      <trkpt lat="47.31172" lon="6.05368">
        <ele>506</ele>
        <time>2021-09-05T09:13:53Z</time>
      </trkpt>
      <trkpt lat="47.31166" lon="6.05362">
        <ele>504.6</ele>
        <time>2021-09-05T09:13:54Z</time>
      </trkpt>
      <trkpt lat="47.31152" lon="6.05349">
        <ele>502.4</ele>
        <time>2021-09-05T09:13:56Z</time>
      </trkpt>
      <trkpt lat="47.31144" lon="6.0534">
        <ele>501.2</ele>
        <time>2021-09-05T09:13:57Z</time>
      </trkpt>
      <trkpt lat="47.31138" lon="6.05332">
        <ele>500.8</ele>
        <time>2021-09-05T09:13:58Z</time>
      </trkpt>
      <trkpt lat="47.31131" lon="6.05325">
        <ele>499.8</ele>
        <time>2021-09-05T09:13:59Z</time>
      </trkpt>
      <trkpt lat="47.31125" lon="6.05318">
        <ele>498.6</ele>
        <time>2021-09-05T09:14:00Z</time>
      </trkpt>
      <trkpt lat="47.31121" lon="6.05312">
        <ele>497</ele>
        <time>2021-09-05T09:14:01Z</time>
      </trkpt>
      <trkpt lat="47.31115" lon="6.05305">
        <ele>496.6</ele>
        <time>2021-09-05T09:14:02Z</time>
      </trkpt>
      <trkpt lat="47.31103" lon="6.05288">
        <ele>495.6</ele>
        <time>2021-09-05T09:14:04Z</time>
      </trkpt>
      <trkpt lat="47.3109" lon="6.0527">
        <ele>494.2</ele>
        <time>2021-09-05T09:14:06Z</time>
      </trkpt>
      <trkpt lat="47.31085" lon="6.05261">
        <ele>493.4</ele>
        <time>2021-09-05T09:14:07Z</time>
      </trkpt>
      <trkpt lat="47.31079" lon="6.05252">
        <ele>492.2</ele>
        <time>2021-09-05T09:14:08Z</time>
      </trkpt>
      <trkpt lat="47.31075" lon="6.05242">
        <ele>491.4</ele>
        <time>2021-09-05T09:14:09Z</time>
      </trkpt>
      <trkpt lat="47.3107" lon="6.05232">
        <ele>489.8</ele>
        <time>2021-09-05T09:14:10Z</time>
      </trkpt>
      <trkpt lat="47.31062" lon="6.05212">
        <ele>488.4</ele>
        <time>2021-09-05T09:14:12Z</time>
      </trkpt>
      <trkpt lat="47.31059" lon="6.05203">
        <ele>487.4</ele>
        <time>2021-09-05T09:14:13Z</time>
      </trkpt>
      <trkpt lat="47.31055" lon="6.05195">
        <ele>487</ele>
        <time>2021-09-05T09:14:14Z</time>
      </trkpt>
      <trkpt lat="47.31051" lon="6.05185">
        <ele>486.4</ele>
        <time>2021-09-05T09:14:15Z</time>
      </trkpt>
      <trkpt lat="47.31047" lon="6.05177">
        <ele>486</ele>
        <time>2021-09-05T09:14:16Z</time>
      </trkpt>
      <trkpt lat="47.31043" lon="6.05167">
        <ele>485.4</ele>
        <time>2021-09-05T09:14:17Z</time>
      </trkpt>
      <trkpt lat="47.31039" lon="6.05158">
        <ele>484.2</ele>
        <time>2021-09-05T09:14:18Z</time>
      </trkpt>
      <trkpt lat="47.31032" lon="6.05139">
        <ele>482</ele>
        <time>2021-09-05T09:14:20Z</time>
      </trkpt>
      <trkpt lat="47.31026" lon="6.05121">
        <ele>481</ele>
        <time>2021-09-05T09:14:22Z</time>
      </trkpt>
      <trkpt lat="47.31023" lon="6.05113">
        <ele>480.8</ele>
        <time>2021-09-05T09:14:23Z</time>
      </trkpt>
      <trkpt lat="47.3102" lon="6.05106">
        <ele>479.6</ele>
        <time>2021-09-05T09:14:24Z</time>
      </trkpt>
      <trkpt lat="47.31016" lon="6.05099">
        <ele>479</ele>
        <time>2021-09-05T09:14:25Z</time>
      </trkpt>
      <trkpt lat="47.31012" lon="6.05093">
        <ele>478.2</ele>
        <time>2021-09-05T09:14:26Z</time>
      </trkpt>
      <trkpt lat="47.31009" lon="6.05088">
        <ele>477</ele>
        <time>2021-09-05T09:14:27Z</time>
      </trkpt>
      <trkpt lat="47.31005" lon="6.05084">
        <ele>476.2</ele>
        <time>2021-09-05T09:14:28Z</time>
      </trkpt>
      <trkpt lat="47.31001" lon="6.05081">
        <ele>475.2</ele>
        <time>2021-09-05T09:14:29Z</time>
      </trkpt>
      <trkpt lat="47.3099" lon="6.05075">
        <ele>474</ele>
        <time>2021-09-05T09:14:31Z</time>
      </trkpt>
      <trkpt lat="47.30979" lon="6.05066">
        <ele>472.4</ele>
        <time>2021-09-05T09:14:33Z</time>
      </trkpt>
      <trkpt lat="47.30973" lon="6.05061">
        <ele>471.8</ele>
        <time>2021-09-05T09:14:34Z</time>
      </trkpt>
      <trkpt lat="47.30968" lon="6.05054">
        <ele>471.4</ele>
        <time>2021-09-05T09:14:35Z</time>
      </trkpt>
      <trkpt lat="47.30964" lon="6.05046">
        <ele>470.4</ele>
        <time>2021-09-05T09:14:36Z</time>
      </trkpt>
      <trkpt lat="47.30954" lon="6.05031">
        <ele>469</ele>
        <time>2021-09-05T09:14:38Z</time>
      </trkpt>
      <trkpt lat="47.3095" lon="6.05025">
        <ele>468.6</ele>
        <time>2021-09-05T09:14:39Z</time>
      </trkpt>
      <trkpt lat="47.30946" lon="6.0502">
        <ele>467.8</ele>
        <time>2021-09-05T09:14:40Z</time>
      </trkpt>
      <trkpt lat="47.30941" lon="6.05015">
        <ele>467.2</ele>
        <time>2021-09-05T09:14:41Z</time>
      </trkpt>
      <trkpt lat="47.30929" lon="6.05002">
        <ele>466.2</ele>
        <time>2021-09-05T09:14:43Z</time>
      </trkpt>
      <trkpt lat="47.30916" lon="6.04986">
        <ele>465.2</ele>
        <time>2021-09-05T09:14:45Z</time>
      </trkpt>
      <trkpt lat="47.30909" lon="6.04978">
        <ele>464.8</ele>
        <time>2021-09-05T09:14:46Z</time>
      </trkpt>
      <trkpt lat="47.30897" lon="6.04964">
        <ele>463.2</ele>
        <time>2021-09-05T09:14:48Z</time>
      </trkpt>
      <trkpt lat="47.30891" lon="6.04958">
        <ele>463</ele>
        <time>2021-09-05T09:14:49Z</time>
      </trkpt>
      <trkpt lat="47.30886" lon="6.04951">
        <ele>461.8</ele>
        <time>2021-09-05T09:14:50Z</time>
      </trkpt>
      <trkpt lat="47.30882" lon="6.04948">
        <ele>461.2</ele>
        <time>2021-09-05T09:14:51Z</time>
      </trkpt>
      <trkpt lat="47.30878" lon="6.04943">
        <ele>459.4</ele>
        <time>2021-09-05T09:14:52Z</time>
      </trkpt>
      <trkpt lat="47.30874" lon="6.04939">
        <ele>458.4</ele>
        <time>2021-09-05T09:14:53Z</time>
      </trkpt>
      <trkpt lat="47.3087" lon="6.04936">
        <ele>457.4</ele>
        <time>2021-09-05T09:14:54Z</time>
      </trkpt>
      <trkpt lat="47.30867" lon="6.04933">
        <ele>456.6</ele>
        <time>2021-09-05T09:14:55Z</time>
      </trkpt>
      <trkpt lat="47.30865" lon="6.0493">
        <ele>455.6</ele>
        <time>2021-09-05T09:14:56Z</time>
      </trkpt>
      <trkpt lat="47.30863" lon="6.04929">
        <ele>454.4</ele>
        <time>2021-09-05T09:14:57Z</time>
      </trkpt>
      <trkpt lat="47.30862" lon="6.04928">
        <ele>453.8</ele>
        <time>2021-09-05T09:14:58Z</time>
      </trkpt>
      <trkpt lat="47.30862" lon="6.04928">
        <ele>452.8</ele>
        <time>2021-09-05T09:14:59Z</time>
      </trkpt>
      <trkpt lat="47.30862" lon="6.04928">
        <ele>451.6</ele>
        <time>2021-09-05T09:15:04Z</time>
      </trkpt>
      <trkpt lat="47.30862" lon="6.04928">
        <ele>450.6</ele>
        <time>2021-09-05T09:15:29Z</time>
      </trkpt>
      <trkpt lat="47.30862" lon="6.0493">
        <ele>450.8</ele>
        <time>2021-09-05T09:16:38Z</time>
      </trkpt>
      <trkpt lat="47.30862" lon="6.0493">
        <ele>450.8</ele>
        <time>2021-09-05T09:16:39Z</time>
      </trkpt>
      <trkpt lat="47.30862" lon="6.0493">
        <ele>450.6</ele>
        <time>2021-09-05T09:16:46Z</time>
      </trkpt>
      <trkpt lat="47.30863" lon="6.04939">
        <ele>450.4</ele>
        <time>2021-09-05T09:16:51Z</time>
      </trkpt>
      <trkpt lat="47.30862" lon="6.0497">
        <ele>450.2</ele>
        <time>2021-09-05T09:16:55Z</time>
      </trkpt>
      <trkpt lat="47.3086" lon="6.04997">
        <ele>449.2</ele>
        <time>2021-09-05T09:16:58Z</time>
      </trkpt>
      <trkpt lat="47.30859" lon="6.05004">
        <ele>448.6</ele>
        <time>2021-09-05T09:16:59Z</time>
      </trkpt>
      <trkpt lat="47.30858" lon="6.05013">
        <ele>448.2</ele>
        <time>2021-09-05T09:17:00Z</time>
      </trkpt>
      <trkpt lat="47.30858" lon="6.05023">
        <ele>447</ele>
        <time>2021-09-05T09:17:01Z</time>
      </trkpt>
      <trkpt lat="47.30856" lon="6.05032">
        <ele>446.6</ele>
        <time>2021-09-05T09:17:02Z</time>
      </trkpt>
      <trkpt lat="47.30855" lon="6.05042">
        <ele>446</ele>
        <time>2021-09-05T09:17:03Z</time>
      </trkpt>
      <trkpt lat="47.30851" lon="6.05064">
        <ele>445.2</ele>
        <time>2021-09-05T09:17:05Z</time>
      </trkpt>
      <trkpt lat="47.30849" lon="6.05072">
        <ele>444.8</ele>
        <time>2021-09-05T09:17:06Z</time>
      </trkpt>
      <trkpt lat="47.30847" lon="6.05094">
        <ele>443.8</ele>
        <time>2021-09-05T09:17:08Z</time>
      </trkpt>
      <trkpt lat="47.30847" lon="6.05105">
        <ele>443.6</ele>
        <time>2021-09-05T09:17:09Z</time>
      </trkpt>
      <trkpt lat="47.30845" lon="6.05127">
        <ele>441.8</ele>
        <time>2021-09-05T09:17:11Z</time>
      </trkpt>
      <trkpt lat="47.30845" lon="6.05146">
        <ele>440.2</ele>
        <time>2021-09-05T09:17:13Z</time>
      </trkpt>
      <trkpt lat="47.30847" lon="6.05156">
        <ele>439.8</ele>
        <time>2021-09-05T09:17:14Z</time>
      </trkpt>
      <trkpt lat="47.30849" lon="6.05164">
        <ele>439.2</ele>
        <time>2021-09-05T09:17:15Z</time>
      </trkpt>
      <trkpt lat="47.30853" lon="6.05172">
        <ele>439</ele>
        <time>2021-09-05T09:17:16Z</time>
      </trkpt>
      <trkpt lat="47.30856" lon="6.05179">
        <ele>438.6</ele>
        <time>2021-09-05T09:17:17Z</time>
      </trkpt>
      <trkpt lat="47.3086" lon="6.05186">
        <ele>438.2</ele>
        <time>2021-09-05T09:17:18Z</time>
      </trkpt>
      <trkpt lat="47.30864" lon="6.05193">
        <ele>438</ele>
        <time>2021-09-05T09:17:19Z</time>
      </trkpt>
      <trkpt lat="47.30866" lon="6.05201">
        <ele>437.6</ele>
        <time>2021-09-05T09:17:20Z</time>
      </trkpt>
      <trkpt lat="47.30866" lon="6.0521">
        <ele>437.4</ele>
        <time>2021-09-05T09:17:21Z</time>
      </trkpt>
      <trkpt lat="47.30865" lon="6.05217">
        <ele>437</ele>
        <time>2021-09-05T09:17:22Z</time>
      </trkpt>
      <trkpt lat="47.30863" lon="6.05225">
        <ele>437</ele>
        <time>2021-09-05T09:17:23Z</time>
      </trkpt>
      <trkpt lat="47.30862" lon="6.05233">
        <ele>436.6</ele>
        <time>2021-09-05T09:17:24Z</time>
      </trkpt>
      <trkpt lat="47.3086" lon="6.05242">
        <ele>436.4</ele>
        <time>2021-09-05T09:17:25Z</time>
      </trkpt>
      <trkpt lat="47.30855" lon="6.05271">
        <ele>436</ele>
        <time>2021-09-05T09:17:28Z</time>
      </trkpt>
      <trkpt lat="47.30854" lon="6.05281">
        <ele>435.4</ele>
        <time>2021-09-05T09:17:29Z</time>
      </trkpt>
      <trkpt lat="47.3085" lon="6.05303">
        <ele>434.2</ele>
        <time>2021-09-05T09:17:31Z</time>
      </trkpt>
      <trkpt lat="47.30848" lon="6.05327">
        <ele>433</ele>
        <time>2021-09-05T09:17:33Z</time>
      </trkpt>
      <trkpt lat="47.30846" lon="6.05339">
        <ele>432.4</ele>
        <time>2021-09-05T09:17:34Z</time>
      </trkpt>
      <trkpt lat="47.30845" lon="6.05352">
        <ele>431.8</ele>
        <time>2021-09-05T09:17:35Z</time>
      </trkpt>
      <trkpt lat="47.30843" lon="6.05364">
        <ele>430.8</ele>
        <time>2021-09-05T09:17:36Z</time>
      </trkpt>
      <trkpt lat="47.3084" lon="6.05388">
        <ele>429.8</ele>
        <time>2021-09-05T09:17:38Z</time>
      </trkpt>
      <trkpt lat="47.30839" lon="6.054">
        <ele>429.4</ele>
        <time>2021-09-05T09:17:39Z</time>
      </trkpt>
      <trkpt lat="47.30838" lon="6.05411">
        <ele>428.4</ele>
        <time>2021-09-05T09:17:40Z</time>
      </trkpt>
      <trkpt lat="47.30838" lon="6.05422">
        <ele>427.6</ele>
        <time>2021-09-05T09:17:41Z</time>
      </trkpt>
      <trkpt lat="47.30838" lon="6.05432">
        <ele>426.8</ele>
        <time>2021-09-05T09:17:42Z</time>
      </trkpt>
      <trkpt lat="47.30838" lon="6.05444">
        <ele>425.8</ele>
        <time>2021-09-05T09:17:43Z</time>
      </trkpt>
      <trkpt lat="47.30838" lon="6.05455">
        <ele>425.4</ele>
        <time>2021-09-05T09:17:44Z</time>
      </trkpt>
      <trkpt lat="47.30838" lon="6.05464">
        <ele>424.6</ele>
        <time>2021-09-05T09:17:45Z</time>
      </trkpt>
      <trkpt lat="47.30838" lon="6.05471">
        <ele>424.2</ele>
        <time>2021-09-05T09:17:46Z</time>
      </trkpt>
      <trkpt lat="47.30837" lon="6.05477">
        <ele>423.8</ele>
        <time>2021-09-05T09:17:47Z</time>
      </trkpt>
      <trkpt lat="47.30836" lon="6.05481">
        <ele>422.8</ele>
        <time>2021-09-05T09:17:48Z</time>
      </trkpt>
      <trkpt lat="47.30836" lon="6.05484">
        <ele>422.2</ele>
        <time>2021-09-05T09:17:49Z</time>
      </trkpt>
      <trkpt lat="47.30835" lon="6.05486">
        <ele>421.2</ele>
        <time>2021-09-05T09:17:50Z</time>
      </trkpt>
      <trkpt lat="47.30833" lon="6.05487">
        <ele>421</ele>
        <time>2021-09-05T09:17:51Z</time>
      </trkpt>
      <trkpt lat="47.30832" lon="6.05487">
        <ele>420.2</ele>
        <time>2021-09-05T09:17:52Z</time>
      </trkpt>
      <trkpt lat="47.30829" lon="6.05487">
        <ele>420</ele>
        <time>2021-09-05T09:17:53Z</time>
      </trkpt>
      <trkpt lat="47.30824" lon="6.05485">
        <ele>419.2</ele>
        <time>2021-09-05T09:17:55Z</time>
      </trkpt>
      <trkpt lat="47.30822" lon="6.05483">
        <ele>418.8</ele>
        <time>2021-09-05T09:17:56Z</time>
      </trkpt>
      <trkpt lat="47.3082" lon="6.05481">
        <ele>418.4</ele>
        <time>2021-09-05T09:17:57Z</time>
      </trkpt>
      <trkpt lat="47.30818" lon="6.0548">
        <ele>418.2</ele>
        <time>2021-09-05T09:17:58Z</time>
      </trkpt>
      <trkpt lat="47.30817" lon="6.05478">
        <ele>417.8</ele>
        <time>2021-09-05T09:17:59Z</time>
      </trkpt>
      <trkpt lat="47.30813" lon="6.05476">
        <ele>416.4</ele>
        <time>2021-09-05T09:18:01Z</time>
      </trkpt>
      <trkpt lat="47.30809" lon="6.05473">
        <ele>415.6</ele>
        <time>2021-09-05T09:18:03Z</time>
      </trkpt>
      <trkpt lat="47.30807" lon="6.05472">
        <ele>415.2</ele>
        <time>2021-09-05T09:18:04Z</time>
      </trkpt>
      <trkpt lat="47.30802" lon="6.05469">
        <ele>414.8</ele>
        <time>2021-09-05T09:18:06Z</time>
      </trkpt>
      <trkpt lat="47.30799" lon="6.05464">
        <ele>414.2</ele>
        <time>2021-09-05T09:18:08Z</time>
      </trkpt>
      <trkpt lat="47.30799" lon="6.05462">
        <ele>413.8</ele>
        <time>2021-09-05T09:18:09Z</time>
      </trkpt>
      <trkpt lat="47.30799" lon="6.05462">
        <ele>413.6</ele>
        <time>2021-09-05T09:18:10Z</time>
      </trkpt>
      <trkpt lat="47.30798" lon="6.05462">
        <ele>412.8</ele>
        <time>2021-09-05T09:18:15Z</time>
      </trkpt>
      <trkpt lat="47.30798" lon="6.05462">
        <ele>412.4</ele>
        <time>2021-09-05T09:18:19Z</time>
      </trkpt>
      <trkpt lat="47.30797" lon="6.05456">
        <ele>412</ele>
        <time>2021-09-05T09:18:53Z</time>
      </trkpt>
      <trkpt lat="47.30788" lon="6.05433">
        <ele>411.8</ele>
        <time>2021-09-05T09:19:00Z</time>
      </trkpt>
      <trkpt lat="47.30786" lon="6.05428">
        <ele>411.6</ele>
        <time>2021-09-05T09:19:01Z</time>
      </trkpt>
      <trkpt lat="47.30771" lon="6.05403">
        <ele>410.8</ele>
        <time>2021-09-05T09:19:06Z</time>
      </trkpt>
      <trkpt lat="47.30767" lon="6.05397">
        <ele>410.6</ele>
        <time>2021-09-05T09:19:07Z</time>
      </trkpt>
      <trkpt lat="47.30747" lon="6.05361">
        <ele>409.4</ele>
        <time>2021-09-05T09:19:12Z</time>
      </trkpt>
      <trkpt lat="47.30733" lon="6.05335">
        <ele>408.2</ele>
        <time>2021-09-05T09:19:15Z</time>
      </trkpt>
      <trkpt lat="47.30717" lon="6.05308">
        <ele>406.8</ele>
        <time>2021-09-05T09:19:18Z</time>
      </trkpt>
      <trkpt lat="47.30707" lon="6.05288">
        <ele>405</ele>
        <time>2021-09-05T09:19:20Z</time>
      </trkpt>
      <trkpt lat="47.30701" lon="6.05279">
        <ele>404.6</ele>
        <time>2021-09-05T09:19:21Z</time>
      </trkpt>
      <trkpt lat="47.30696" lon="6.05271">
        <ele>403.2</ele>
        <time>2021-09-05T09:19:22Z</time>
      </trkpt>
      <trkpt lat="47.3069" lon="6.05263">
        <ele>402.4</ele>
        <time>2021-09-05T09:19:23Z</time>
      </trkpt>
      <trkpt lat="47.30683" lon="6.05256">
        <ele>402</ele>
        <time>2021-09-05T09:19:24Z</time>
      </trkpt>
      <trkpt lat="47.30673" lon="6.05246">
        <ele>400.6</ele>
        <time>2021-09-05T09:19:26Z</time>
      </trkpt>
      <trkpt lat="47.3067" lon="6.05242">
        <ele>399.6</ele>
        <time>2021-09-05T09:19:27Z</time>
      </trkpt>
      <trkpt lat="47.30668" lon="6.0524">
        <ele>399.2</ele>
        <time>2021-09-05T09:19:28Z</time>
      </trkpt>
      <trkpt lat="47.30668" lon="6.0524">
        <ele>398</ele>
        <time>2021-09-05T09:19:30Z</time>
      </trkpt>
      <trkpt lat="47.30668" lon="6.0524">
        <ele>397.8</ele>
        <time>2021-09-05T09:19:31Z</time>
      </trkpt>
      <trkpt lat="47.30668" lon="6.05239">
        <ele>396.8</ele>
        <time>2021-09-05T09:19:34Z</time>
      </trkpt>
      <trkpt lat="47.30667" lon="6.05239">
        <ele>396.8</ele>
        <time>2021-09-05T09:19:35Z</time>
      </trkpt>
      <trkpt lat="47.30661" lon="6.05235">
        <ele>396.4</ele>
        <time>2021-09-05T09:19:38Z</time>
      </trkpt>
      <trkpt lat="47.30657" lon="6.05233">
        <ele>396.4</ele>
        <time>2021-09-05T09:19:39Z</time>
      </trkpt>
      <trkpt lat="47.30653" lon="6.05231">
        <ele>396.2</ele>
        <time>2021-09-05T09:19:40Z</time>
      </trkpt>
      <trkpt lat="47.30643" lon="6.05228">
        <ele>396</ele>
        <time>2021-09-05T09:19:42Z</time>
      </trkpt>
      <trkpt lat="47.30637" lon="6.05227">
        <ele>395.8</ele>
        <time>2021-09-05T09:19:43Z</time>
      </trkpt>
      <trkpt lat="47.3063" lon="6.05226">
        <ele>395.4</ele>
        <time>2021-09-05T09:19:44Z</time>
      </trkpt>
      <trkpt lat="47.30615" lon="6.05228">
        <ele>394.8</ele>
        <time>2021-09-05T09:19:46Z</time>
      </trkpt>
      <trkpt lat="47.30608" lon="6.05232">
        <ele>394.4</ele>
        <time>2021-09-05T09:19:47Z</time>
      </trkpt>
      <trkpt lat="47.30601" lon="6.05237">
        <ele>393.6</ele>
        <time>2021-09-05T09:19:48Z</time>
      </trkpt>
      <trkpt lat="47.30595" lon="6.05244">
        <ele>393.2</ele>
        <time>2021-09-05T09:19:49Z</time>
      </trkpt>
      <trkpt lat="47.3059" lon="6.05251">
        <ele>392.4</ele>
        <time>2021-09-05T09:19:50Z</time>
      </trkpt>
      <trkpt lat="47.30586" lon="6.05259">
        <ele>391.2</ele>
        <time>2021-09-05T09:19:51Z</time>
      </trkpt>
      <trkpt lat="47.30583" lon="6.05266">
        <ele>390.6</ele>
        <time>2021-09-05T09:19:52Z</time>
      </trkpt>
      <trkpt lat="47.3058" lon="6.05274">
        <ele>389.6</ele>
        <time>2021-09-05T09:19:53Z</time>
      </trkpt>
      <trkpt lat="47.30579" lon="6.05282">
        <ele>389</ele>
        <time>2021-09-05T09:19:54Z</time>
      </trkpt>
      <trkpt lat="47.30579" lon="6.05292">
        <ele>388.2</ele>
        <time>2021-09-05T09:19:55Z</time>
      </trkpt>
      <trkpt lat="47.30579" lon="6.05302">
        <ele>387.8</ele>
        <time>2021-09-05T09:19:56Z</time>
      </trkpt>
      <trkpt lat="47.30579" lon="6.05312">
        <ele>386.8</ele>
        <time>2021-09-05T09:19:57Z</time>
      </trkpt>
      <trkpt lat="47.30581" lon="6.05335">
        <ele>385.6</ele>
        <time>2021-09-05T09:19:59Z</time>
      </trkpt>
      <trkpt lat="47.30583" lon="6.0536">
        <ele>384.2</ele>
        <time>2021-09-05T09:20:01Z</time>
      </trkpt>
      <trkpt lat="47.30587" lon="6.05387">
        <ele>382.8</ele>
        <time>2021-09-05T09:20:03Z</time>
      </trkpt>
      <trkpt lat="47.30588" lon="6.05401">
        <ele>381.8</ele>
        <time>2021-09-05T09:20:04Z</time>
      </trkpt>
      <trkpt lat="47.3059" lon="6.05415">
        <ele>381.2</ele>
        <time>2021-09-05T09:20:05Z</time>
      </trkpt>
      <trkpt lat="47.30592" lon="6.05429">
        <ele>379.4</ele>
        <time>2021-09-05T09:20:06Z</time>
      </trkpt>
      <trkpt lat="47.30595" lon="6.05443">
        <ele>378.2</ele>
        <time>2021-09-05T09:20:07Z</time>
      </trkpt>
      <trkpt lat="47.30598" lon="6.05457">
        <ele>377.8</ele>
        <time>2021-09-05T09:20:08Z</time>
      </trkpt>
      <trkpt lat="47.306" lon="6.05469">
        <ele>376.8</ele>
        <time>2021-09-05T09:20:09Z</time>
      </trkpt>
      <trkpt lat="47.30603" lon="6.05481">
        <ele>376.4</ele>
        <time>2021-09-05T09:20:10Z</time>
      </trkpt>
      <trkpt lat="47.30605" lon="6.05493">
        <ele>375.6</ele>
        <time>2021-09-05T09:20:11Z</time>
      </trkpt>
      <trkpt lat="47.30607" lon="6.05504">
        <ele>375</ele>
        <time>2021-09-05T09:20:12Z</time>
      </trkpt>
      <trkpt lat="47.30609" lon="6.05514">
        <ele>373.2</ele>
        <time>2021-09-05T09:20:13Z</time>
      </trkpt>
      <trkpt lat="47.30611" lon="6.05524">
        <ele>372</ele>
        <time>2021-09-05T09:20:14Z</time>
      </trkpt>
      <trkpt lat="47.30612" lon="6.05534">
        <ele>371.6</ele>
        <time>2021-09-05T09:20:15Z</time>
      </trkpt>
      <trkpt lat="47.30612" lon="6.05544">
        <ele>371</ele>
        <time>2021-09-05T09:20:16Z</time>
      </trkpt>
      <trkpt lat="47.30612" lon="6.05552">
        <ele>370.6</ele>
        <time>2021-09-05T09:20:17Z</time>
      </trkpt>
      <trkpt lat="47.3061" lon="6.05559">
        <ele>370</ele>
        <time>2021-09-05T09:20:18Z</time>
      </trkpt>
      <trkpt lat="47.30608" lon="6.05563">
        <ele>369.6</ele>
        <time>2021-09-05T09:20:19Z</time>
      </trkpt>
      <trkpt lat="47.30607" lon="6.05565">
        <ele>369</ele>
        <time>2021-09-05T09:20:20Z</time>
      </trkpt>
      <trkpt lat="47.30607" lon="6.05566">
        <ele>368.6</ele>
        <time>2021-09-05T09:20:21Z</time>
      </trkpt>
      <trkpt lat="47.30607" lon="6.05567">
        <ele>368.6</ele>
        <time>2021-09-05T09:20:22Z</time>
      </trkpt>
      <trkpt lat="47.30606" lon="6.05567">
        <ele>368.4</ele>
        <time>2021-09-05T09:20:23Z</time>
      </trkpt>
      <trkpt lat="47.30605" lon="6.05568">
        <ele>368.4</ele>
        <time>2021-09-05T09:20:24Z</time>
      </trkpt>
      <trkpt lat="47.30599" lon="6.0557">
        <ele>368.4</ele>
        <time>2021-09-05T09:20:27Z</time>
      </trkpt>
      <trkpt lat="47.30578" lon="6.05576">
        <ele>368.8</ele>
        <time>2021-09-05T09:20:35Z</time>
      </trkpt>
      <trkpt lat="47.30559" lon="6.05577">
        <ele>369</ele>
        <time>2021-09-05T09:20:42Z</time>
      </trkpt>
      <trkpt lat="47.30545" lon="6.05576">
        <ele>369.2</ele>
        <time>2021-09-05T09:20:47Z</time>
      </trkpt>
      <trkpt lat="47.30543" lon="6.05577">
        <ele>369.4</ele>
        <time>2021-09-05T09:20:48Z</time>
      </trkpt>
      <trkpt lat="47.3054" lon="6.05578">
        <ele>369.6</ele>
        <time>2021-09-05T09:20:49Z</time>
      </trkpt>
      <trkpt lat="47.30539" lon="6.0558">
        <ele>369.8</ele>
        <time>2021-09-05T09:20:50Z</time>
      </trkpt>
      <trkpt lat="47.30537" lon="6.05581">
        <ele>369.8</ele>
        <time>2021-09-05T09:20:51Z</time>
      </trkpt>
      <trkpt lat="47.30535" lon="6.05582">
        <ele>370</ele>
        <time>2021-09-05T09:20:52Z</time>
      </trkpt>
      <trkpt lat="47.30533" lon="6.05581">
        <ele>370</ele>
        <time>2021-09-05T09:20:53Z</time>
      </trkpt>
      <trkpt lat="47.30531" lon="6.05581">
        <ele>370.2</ele>
        <time>2021-09-05T09:20:54Z</time>
      </trkpt>
      <trkpt lat="47.30529" lon="6.0558">
        <ele>370.4</ele>
        <time>2021-09-05T09:20:55Z</time>
      </trkpt>
      <trkpt lat="47.30527" lon="6.0558">
        <ele>370.6</ele>
        <time>2021-09-05T09:20:56Z</time>
      </trkpt>
      <trkpt lat="47.30525" lon="6.0558">
        <ele>370.8</ele>
        <time>2021-09-05T09:20:57Z</time>
      </trkpt>
      <trkpt lat="47.30523" lon="6.05579">
        <ele>371.2</ele>
        <time>2021-09-05T09:20:58Z</time>
      </trkpt>
      <trkpt lat="47.30522" lon="6.05578">
        <ele>371.4</ele>
        <time>2021-09-05T09:20:59Z</time>
      </trkpt>
      <trkpt lat="47.3052" lon="6.05578">
        <ele>371.6</ele>
        <time>2021-09-05T09:21:00Z</time>
      </trkpt>
      <trkpt lat="47.30518" lon="6.05577">
        <ele>371.8</ele>
        <time>2021-09-05T09:21:01Z</time>
      </trkpt>
      <trkpt lat="47.30516" lon="6.05577">
        <ele>372.2</ele>
        <time>2021-09-05T09:21:02Z</time>
      </trkpt>
      <trkpt lat="47.30511" lon="6.05575">
        <ele>372.6</ele>
        <time>2021-09-05T09:21:04Z</time>
      </trkpt>
      <trkpt lat="47.30509" lon="6.05573">
        <ele>372.8</ele>
        <time>2021-09-05T09:21:05Z</time>
      </trkpt>
      <trkpt lat="47.30508" lon="6.05572">
        <ele>372.8</ele>
        <time>2021-09-05T09:21:06Z</time>
      </trkpt>
      <trkpt lat="47.30507" lon="6.05571">
        <ele>373</ele>
        <time>2021-09-05T09:21:07Z</time>
      </trkpt>
      <trkpt lat="47.30506" lon="6.05571">
        <ele>373.2</ele>
        <time>2021-09-05T09:21:08Z</time>
      </trkpt>
      <trkpt lat="47.30504" lon="6.05573">
        <ele>373.2</ele>
        <time>2021-09-05T09:21:09Z</time>
      </trkpt>
      <trkpt lat="47.30502" lon="6.05575">
        <ele>373.2</ele>
        <time>2021-09-05T09:21:10Z</time>
      </trkpt>
      <trkpt lat="47.305" lon="6.05579">
        <ele>373.2</ele>
        <time>2021-09-05T09:21:11Z</time>
      </trkpt>
      <trkpt lat="47.30497" lon="6.05583">
        <ele>373.2</ele>
        <time>2021-09-05T09:21:12Z</time>
      </trkpt>
      <trkpt lat="47.30494" lon="6.05587">
        <ele>373.2</ele>
        <time>2021-09-05T09:21:13Z</time>
      </trkpt>
      <trkpt lat="47.3049" lon="6.05591">
        <ele>373.2</ele>
        <time>2021-09-05T09:21:14Z</time>
      </trkpt>
      <trkpt lat="47.30485" lon="6.05594">
        <ele>373</ele>
        <time>2021-09-05T09:21:15Z</time>
      </trkpt>
      <trkpt lat="47.3048" lon="6.05595">
        <ele>372.6</ele>
        <time>2021-09-05T09:21:16Z</time>
      </trkpt>
      <trkpt lat="47.30475" lon="6.05595">
        <ele>372.6</ele>
        <time>2021-09-05T09:21:17Z</time>
      </trkpt>
      <trkpt lat="47.3047" lon="6.05595">
        <ele>372.4</ele>
        <time>2021-09-05T09:21:18Z</time>
      </trkpt>
      <trkpt lat="47.30466" lon="6.05594">
        <ele>372.2</ele>
        <time>2021-09-05T09:21:19Z</time>
      </trkpt>
      <trkpt lat="47.30461" lon="6.05594">
        <ele>371.8</ele>
        <time>2021-09-05T09:21:20Z</time>
      </trkpt>
      <trkpt lat="47.3045" lon="6.05593">
        <ele>371.2</ele>
        <time>2021-09-05T09:21:23Z</time>
      </trkpt>
      <trkpt lat="47.30447" lon="6.05592">
        <ele>371</ele>
        <time>2021-09-05T09:21:24Z</time>
      </trkpt>
      <trkpt lat="47.30445" lon="6.05591">
        <ele>370.6</ele>
        <time>2021-09-05T09:21:25Z</time>
      </trkpt>
      <trkpt lat="47.30442" lon="6.05591">
        <ele>370.6</ele>
        <time>2021-09-05T09:21:26Z</time>
      </trkpt>
      <trkpt lat="47.3043" lon="6.05589">
        <ele>370.4</ele>
        <time>2021-09-05T09:21:29Z</time>
      </trkpt>
      <trkpt lat="47.30422" lon="6.05593">
        <ele>370.2</ele>
        <time>2021-09-05T09:21:31Z</time>
      </trkpt>
      <trkpt lat="47.30419" lon="6.05597">
        <ele>370.2</ele>
        <time>2021-09-05T09:21:32Z</time>
      </trkpt>
      <trkpt lat="47.30416" lon="6.05601">
        <ele>369.8</ele>
        <time>2021-09-05T09:21:33Z</time>
      </trkpt>
      <trkpt lat="47.30413" lon="6.05606">
        <ele>369.4</ele>
        <time>2021-09-05T09:21:34Z</time>
      </trkpt>
      <trkpt lat="47.3041" lon="6.05612">
        <ele>369.2</ele>
        <time>2021-09-05T09:21:35Z</time>
      </trkpt>
      <trkpt lat="47.30402" lon="6.05623">
        <ele>368.4</ele>
        <time>2021-09-05T09:21:37Z</time>
      </trkpt>
      <trkpt lat="47.30396" lon="6.05628">
        <ele>368.2</ele>
        <time>2021-09-05T09:21:38Z</time>
      </trkpt>
      <trkpt lat="47.3039" lon="6.05632">
        <ele>367.6</ele>
        <time>2021-09-05T09:21:39Z</time>
      </trkpt>
      <trkpt lat="47.30382" lon="6.05635">
        <ele>366.6</ele>
        <time>2021-09-05T09:21:40Z</time>
      </trkpt>
      <trkpt lat="47.30375" lon="6.05638">
        <ele>365.6</ele>
        <time>2021-09-05T09:21:41Z</time>
      </trkpt>
      <trkpt lat="47.30353" lon="6.0565">
        <ele>363.8</ele>
        <time>2021-09-05T09:21:44Z</time>
      </trkpt>
      <trkpt lat="47.30332" lon="6.05661">
        <ele>362.8</ele>
        <time>2021-09-05T09:21:47Z</time>
      </trkpt>
      <trkpt lat="47.30319" lon="6.05666">
        <ele>361.6</ele>
        <time>2021-09-05T09:21:49Z</time>
      </trkpt>
      <trkpt lat="47.30312" lon="6.05668">
        <ele>361.4</ele>
        <time>2021-09-05T09:21:50Z</time>
      </trkpt>
      <trkpt lat="47.30305" lon="6.05669">
        <ele>360.8</ele>
        <time>2021-09-05T09:21:51Z</time>
      </trkpt>
      <trkpt lat="47.30298" lon="6.05671">
        <ele>360.6</ele>
        <time>2021-09-05T09:21:52Z</time>
      </trkpt>
      <trkpt lat="47.30291" lon="6.05671">
        <ele>360.4</ele>
        <time>2021-09-05T09:21:53Z</time>
      </trkpt>
      <trkpt lat="47.30269" lon="6.05672">
        <ele>359.8</ele>
        <time>2021-09-05T09:21:56Z</time>
      </trkpt>
      <trkpt lat="47.30262" lon="6.05672">
        <ele>359.4</ele>
        <time>2021-09-05T09:21:57Z</time>
      </trkpt>
      <trkpt lat="47.30255" lon="6.05671">
        <ele>358.8</ele>
        <time>2021-09-05T09:21:58Z</time>
      </trkpt>
      <trkpt lat="47.30241" lon="6.05665">
        <ele>358.2</ele>
        <time>2021-09-05T09:22:00Z</time>
      </trkpt>
      <trkpt lat="47.30228" lon="6.05655">
        <ele>357.8</ele>
        <time>2021-09-05T09:22:02Z</time>
      </trkpt>
      <trkpt lat="47.30217" lon="6.05645">
        <ele>357.4</ele>
        <time>2021-09-05T09:22:04Z</time>
      </trkpt>
      <trkpt lat="47.30211" lon="6.0564">
        <ele>357.2</ele>
        <time>2021-09-05T09:22:05Z</time>
      </trkpt>
      <trkpt lat="47.30207" lon="6.05635">
        <ele>357</ele>
        <time>2021-09-05T09:22:06Z</time>
      </trkpt>
      <trkpt lat="47.30202" lon="6.05629">
        <ele>356.6</ele>
        <time>2021-09-05T09:22:07Z</time>
      </trkpt>
      <trkpt lat="47.30198" lon="6.05624">
        <ele>356.4</ele>
        <time>2021-09-05T09:22:08Z</time>
      </trkpt>
      <trkpt lat="47.30194" lon="6.05618">
        <ele>356.2</ele>
        <time>2021-09-05T09:22:09Z</time>
      </trkpt>
      <trkpt lat="47.3019" lon="6.05613">
        <ele>356.2</ele>
        <time>2021-09-05T09:22:10Z</time>
      </trkpt>
      <trkpt lat="47.30186" lon="6.0561">
        <ele>356</ele>
        <time>2021-09-05T09:22:11Z</time>
      </trkpt>
      <trkpt lat="47.30182" lon="6.05607">
        <ele>356</ele>
        <time>2021-09-05T09:22:12Z</time>
      </trkpt>
      <trkpt lat="47.30179" lon="6.05604">
        <ele>355.8</ele>
        <time>2021-09-05T09:22:13Z</time>
      </trkpt>
      <trkpt lat="47.30175" lon="6.05601">
        <ele>355.8</ele>
        <time>2021-09-05T09:22:14Z</time>
      </trkpt>
      <trkpt lat="47.30172" lon="6.05598">
        <ele>355.8</ele>
        <time>2021-09-05T09:22:15Z</time>
      </trkpt>
      <trkpt lat="47.30169" lon="6.05596">
        <ele>355.8</ele>
        <time>2021-09-05T09:22:16Z</time>
      </trkpt>
      <trkpt lat="47.30166" lon="6.05594">
        <ele>355.8</ele>
        <time>2021-09-05T09:22:17Z</time>
      </trkpt>
      <trkpt lat="47.30163" lon="6.05592">
        <ele>355.8</ele>
        <time>2021-09-05T09:22:18Z</time>
      </trkpt>
      <trkpt lat="47.30145" lon="6.05572">
        <ele>355.8</ele>
        <time>2021-09-05T09:22:23Z</time>
      </trkpt>
      <trkpt lat="47.30137" lon="6.05563">
        <ele>355.8</ele>
        <time>2021-09-05T09:22:25Z</time>
      </trkpt>
      <trkpt lat="47.30129" lon="6.05555">
        <ele>355.6</ele>
        <time>2021-09-05T09:22:27Z</time>
      </trkpt>
      <trkpt lat="47.30125" lon="6.05551">
        <ele>355.2</ele>
        <time>2021-09-05T09:22:28Z</time>
      </trkpt>
      <trkpt lat="47.30115" lon="6.05543">
        <ele>355</ele>
        <time>2021-09-05T09:22:30Z</time>
      </trkpt>
      <trkpt lat="47.30106" lon="6.05536">
        <ele>354.6</ele>
        <time>2021-09-05T09:22:32Z</time>
      </trkpt>
      <trkpt lat="47.30101" lon="6.05532">
        <ele>354.4</ele>
        <time>2021-09-05T09:22:33Z</time>
      </trkpt>
      <trkpt lat="47.30091" lon="6.05525">
        <ele>354</ele>
        <time>2021-09-05T09:22:35Z</time>
      </trkpt>
      <trkpt lat="47.30067" lon="6.05512">
        <ele>353</ele>
        <time>2021-09-05T09:22:39Z</time>
      </trkpt>
      <trkpt lat="47.30061" lon="6.05507">
        <ele>352.8</ele>
        <time>2021-09-05T09:22:40Z</time>
      </trkpt>
      <trkpt lat="47.30055" lon="6.055">
        <ele>352.4</ele>
        <time>2021-09-05T09:22:41Z</time>
      </trkpt>
      <trkpt lat="47.30049" lon="6.05493">
        <ele>351.8</ele>
        <time>2021-09-05T09:22:42Z</time>
      </trkpt>
      <trkpt lat="47.30045" lon="6.05486">
        <ele>351.6</ele>
        <time>2021-09-05T09:22:43Z</time>
      </trkpt>
      <trkpt lat="47.30041" lon="6.05481">
        <ele>351.6</ele>
        <time>2021-09-05T09:22:44Z</time>
      </trkpt>
      <trkpt lat="47.30036" lon="6.05476">
        <ele>351.4</ele>
        <time>2021-09-05T09:22:45Z</time>
      </trkpt>
      <trkpt lat="47.30032" lon="6.05471">
        <ele>351</ele>
        <time>2021-09-05T09:22:46Z</time>
      </trkpt>
      <trkpt lat="47.30024" lon="6.0546">
        <ele>350.4</ele>
        <time>2021-09-05T09:22:48Z</time>
      </trkpt>
      <trkpt lat="47.3002" lon="6.05453">
        <ele>350.2</ele>
        <time>2021-09-05T09:22:49Z</time>
      </trkpt>
      <trkpt lat="47.30015" lon="6.05446">
        <ele>349.6</ele>
        <time>2021-09-05T09:22:50Z</time>
      </trkpt>
      <trkpt lat="47.3001" lon="6.05441">
        <ele>349.4</ele>
        <time>2021-09-05T09:22:51Z</time>
      </trkpt>
      <trkpt lat="47.30005" lon="6.05436">
        <ele>349.2</ele>
        <time>2021-09-05T09:22:52Z</time>
      </trkpt>
      <trkpt lat="47.29994" lon="6.05427">
        <ele>348.4</ele>
        <time>2021-09-05T09:22:54Z</time>
      </trkpt>
      <trkpt lat="47.29987" lon="6.05422">
        <ele>348</ele>
        <time>2021-09-05T09:22:55Z</time>
      </trkpt>
      <trkpt lat="47.2998" lon="6.05418">
        <ele>347.8</ele>
        <time>2021-09-05T09:22:56Z</time>
      </trkpt>
      <trkpt lat="47.29966" lon="6.05411">
        <ele>346.8</ele>
        <time>2021-09-05T09:22:58Z</time>
      </trkpt>
      <trkpt lat="47.29944" lon="6.05398">
        <ele>345.4</ele>
        <time>2021-09-05T09:23:01Z</time>
      </trkpt>
      <trkpt lat="47.29921" lon="6.05384">
        <ele>343.8</ele>
        <time>2021-09-05T09:23:04Z</time>
      </trkpt>
      <trkpt lat="47.29914" lon="6.05379">
        <ele>343.4</ele>
        <time>2021-09-05T09:23:05Z</time>
      </trkpt>
      <trkpt lat="47.29899" lon="6.05369">
        <ele>342.8</ele>
        <time>2021-09-05T09:23:07Z</time>
      </trkpt>
      <trkpt lat="47.29885" lon="6.05358">
        <ele>342.2</ele>
        <time>2021-09-05T09:23:09Z</time>
      </trkpt>
      <trkpt lat="47.2988" lon="6.05354">
        <ele>341.8</ele>
        <time>2021-09-05T09:23:10Z</time>
      </trkpt>
      <trkpt lat="47.29876" lon="6.05351">
        <ele>341</ele>
        <time>2021-09-05T09:23:11Z</time>
      </trkpt>
      <trkpt lat="47.29872" lon="6.05348">
        <ele>340.2</ele>
        <time>2021-09-05T09:23:12Z</time>
      </trkpt>
      <trkpt lat="47.2987" lon="6.05346">
        <ele>340</ele>
        <time>2021-09-05T09:23:13Z</time>
      </trkpt>
      <trkpt lat="47.29867" lon="6.05344">
        <ele>339.6</ele>
        <time>2021-09-05T09:23:14Z</time>
      </trkpt>
      <trkpt lat="47.29865" lon="6.05343">
        <ele>339.4</ele>
        <time>2021-09-05T09:23:15Z</time>
      </trkpt>
      <trkpt lat="47.29863" lon="6.05341">
        <ele>339</ele>
        <time>2021-09-05T09:23:16Z</time>
      </trkpt>
      <trkpt lat="47.2986" lon="6.05339">
        <ele>338.8</ele>
        <time>2021-09-05T09:23:17Z</time>
      </trkpt>
      <trkpt lat="47.29855" lon="6.05334">
        <ele>338.6</ele>
        <time>2021-09-05T09:23:19Z</time>
      </trkpt>
      <trkpt lat="47.29853" lon="6.05331">
        <ele>338.4</ele>
        <time>2021-09-05T09:23:20Z</time>
      </trkpt>
      <trkpt lat="47.29851" lon="6.0533">
        <ele>338.2</ele>
        <time>2021-09-05T09:23:21Z</time>
      </trkpt>
      <trkpt lat="47.29848" lon="6.05328">
        <ele>338</ele>
        <time>2021-09-05T09:23:22Z</time>
      </trkpt>
      <trkpt lat="47.29841" lon="6.05322">
        <ele>337.8</ele>
        <time>2021-09-05T09:23:24Z</time>
      </trkpt>
      <trkpt lat="47.29838" lon="6.05319">
        <ele>337.8</ele>
        <time>2021-09-05T09:23:25Z</time>
      </trkpt>
      <trkpt lat="47.2982" lon="6.05305">
        <ele>337</ele>
        <time>2021-09-05T09:23:29Z</time>
      </trkpt>
      <trkpt lat="47.29816" lon="6.05301">
        <ele>336.6</ele>
        <time>2021-09-05T09:23:30Z</time>
      </trkpt>
      <trkpt lat="47.29795" lon="6.05286">
        <ele>335.6</ele>
        <time>2021-09-05T09:23:34Z</time>
      </trkpt>
      <trkpt lat="47.29789" lon="6.05281">
        <ele>335.2</ele>
        <time>2021-09-05T09:23:35Z</time>
      </trkpt>
      <trkpt lat="47.29773" lon="6.05267">
        <ele>334.8</ele>
        <time>2021-09-05T09:23:38Z</time>
      </trkpt>
      <trkpt lat="47.29768" lon="6.05263">
        <ele>334.8</ele>
        <time>2021-09-05T09:23:39Z</time>
      </trkpt>
      <trkpt lat="47.29764" lon="6.0526">
        <ele>334.6</ele>
        <time>2021-09-05T09:23:40Z</time>
      </trkpt>
      <trkpt lat="47.2976" lon="6.05258">
        <ele>334.4</ele>
        <time>2021-09-05T09:23:41Z</time>
      </trkpt>
      <trkpt lat="47.29753" lon="6.05253">
        <ele>334</ele>
        <time>2021-09-05T09:23:42Z</time>
      </trkpt>
      <trkpt lat="47.29741" lon="6.05248">
        <ele>333.4</ele>
        <time>2021-09-05T09:23:44Z</time>
      </trkpt>
      <trkpt lat="47.29737" lon="6.05246">
        <ele>333.2</ele>
        <time>2021-09-05T09:23:45Z</time>
      </trkpt>
      <trkpt lat="47.29733" lon="6.05244">
        <ele>332.6</ele>
        <time>2021-09-05T09:23:46Z</time>
      </trkpt>
      <trkpt lat="47.2973" lon="6.05242">
        <ele>332.2</ele>
        <time>2021-09-05T09:23:47Z</time>
      </trkpt>
      <trkpt lat="47.29729" lon="6.0524">
        <ele>331.8</ele>
        <time>2021-09-05T09:23:48Z</time>
      </trkpt>
      <trkpt lat="47.29728" lon="6.05238">
        <ele>331.6</ele>
        <time>2021-09-05T09:23:49Z</time>
      </trkpt>
      <trkpt lat="47.29728" lon="6.05238">
        <ele>331.4</ele>
        <time>2021-09-05T09:23:50Z</time>
      </trkpt>
      <trkpt lat="47.29728" lon="6.05238">
        <ele>331.2</ele>
        <time>2021-09-05T09:23:51Z</time>
      </trkpt>
      <trkpt lat="47.29728" lon="6.05238">
        <ele>331</ele>
        <time>2021-09-05T09:23:53Z</time>
      </trkpt>
      <trkpt lat="47.29727" lon="6.05235">
        <ele>330.8</ele>
        <time>2021-09-05T09:24:04Z</time>
      </trkpt>
      <trkpt lat="47.29725" lon="6.05232">
        <ele>330.8</ele>
        <time>2021-09-05T09:24:06Z</time>
      </trkpt>
      <trkpt lat="47.29723" lon="6.0523">
        <ele>330.6</ele>
        <time>2021-09-05T09:24:07Z</time>
      </trkpt>
      <trkpt lat="47.29722" lon="6.05229">
        <ele>330.6</ele>
        <time>2021-09-05T09:24:08Z</time>
      </trkpt>
      <trkpt lat="47.2972" lon="6.05227">
        <ele>330.6</ele>
        <time>2021-09-05T09:24:09Z</time>
      </trkpt>
      <trkpt lat="47.29718" lon="6.05225">
        <ele>330.4</ele>
        <time>2021-09-05T09:24:10Z</time>
      </trkpt>
      <trkpt lat="47.29716" lon="6.05223">
        <ele>330.2</ele>
        <time>2021-09-05T09:24:11Z</time>
      </trkpt>
      <trkpt lat="47.29715" lon="6.05222">
        <ele>329.8</ele>
        <time>2021-09-05T09:24:12Z</time>
      </trkpt>
      <trkpt lat="47.29713" lon="6.05221">
        <ele>329.8</ele>
        <time>2021-09-05T09:24:13Z</time>
      </trkpt>
      <trkpt lat="47.2971" lon="6.0522">
        <ele>329.6</ele>
        <time>2021-09-05T09:24:15Z</time>
      </trkpt>
      <trkpt lat="47.29708" lon="6.05219">
        <ele>329.4</ele>
        <time>2021-09-05T09:24:16Z</time>
      </trkpt>
      <trkpt lat="47.29705" lon="6.05216">
        <ele>329.2</ele>
        <time>2021-09-05T09:24:18Z</time>
      </trkpt>
      <trkpt lat="47.29705" lon="6.05216">
        <ele>329.2</ele>
        <time>2021-09-05T09:24:19Z</time>
      </trkpt>
      <trkpt lat="47.29705" lon="6.05216">
        <ele>329.2</ele>
        <time>2021-09-05T09:24:20Z</time>
      </trkpt>
      <trkpt lat="47.29705" lon="6.05216">
        <ele>328.8</ele>
        <time>2021-09-05T09:24:24Z</time>
      </trkpt>
      <trkpt lat="47.29705" lon="6.05216">
        <ele>328.8</ele>
        <time>2021-09-05T09:24:26Z</time>
      </trkpt>
      <trkpt lat="47.29705" lon="6.05216">
        <ele>328.2</ele>
        <time>2021-09-05T09:24:46Z</time>
      </trkpt>
      <trkpt lat="47.29704" lon="6.05218">
        <ele>328.2</ele>
        <time>2021-09-05T09:25:02Z</time>
      </trkpt>
      <trkpt lat="47.29697" lon="6.05217">
        <ele>328.2</ele>
        <time>2021-09-05T09:25:06Z</time>
      </trkpt>
      <trkpt lat="47.29691" lon="6.05215">
        <ele>328.2</ele>
        <time>2021-09-05T09:25:10Z</time>
      </trkpt>
      <trkpt lat="47.29689" lon="6.05213">
        <ele>328.2</ele>
        <time>2021-09-05T09:25:12Z</time>
      </trkpt>
      <trkpt lat="47.29681" lon="6.05207">
        <ele>328</ele>
        <time>2021-09-05T09:25:18Z</time>
      </trkpt>
      <trkpt lat="47.29679" lon="6.05205">
        <ele>328</ele>
        <time>2021-09-05T09:25:20Z</time>
      </trkpt>
      <trkpt lat="47.29672" lon="6.05202">
        <ele>328</ele>
        <time>2021-09-05T09:25:24Z</time>
      </trkpt>
      <trkpt lat="47.29666" lon="6.052">
        <ele>328</ele>
        <time>2021-09-05T09:25:27Z</time>
      </trkpt>
      <trkpt lat="47.29656" lon="6.05195">
        <ele>328.2</ele>
        <time>2021-09-05T09:25:31Z</time>
      </trkpt>
      <trkpt lat="47.29654" lon="6.05194">
        <ele>328.2</ele>
        <time>2021-09-05T09:25:32Z</time>
      </trkpt>
      <trkpt lat="47.29652" lon="6.05193">
        <ele>328.2</ele>
        <time>2021-09-05T09:25:33Z</time>
      </trkpt>
      <trkpt lat="47.29635" lon="6.05183">
        <ele>328</ele>
        <time>2021-09-05T09:25:40Z</time>
      </trkpt>
      <trkpt lat="47.29626" lon="6.05176">
        <ele>327.8</ele>
        <time>2021-09-05T09:25:43Z</time>
      </trkpt>
      <trkpt lat="47.29615" lon="6.05168">
        <ele>327.4</ele>
        <time>2021-09-05T09:25:46Z</time>
      </trkpt>
      <trkpt lat="47.29591" lon="6.05144">
        <ele>326.8</ele>
        <time>2021-09-05T09:25:52Z</time>
      </trkpt>
      <trkpt lat="47.29575" lon="6.05129">
        <ele>326.2</ele>
        <time>2021-09-05T09:25:56Z</time>
      </trkpt>
      <trkpt lat="47.29567" lon="6.05125">
        <ele>325.8</ele>
        <time>2021-09-05T09:25:58Z</time>
      </trkpt>
      <trkpt lat="47.29565" lon="6.05124">
        <ele>325.8</ele>
        <time>2021-09-05T09:25:59Z</time>
      </trkpt>
      <trkpt lat="47.29563" lon="6.05121">
        <ele>325.8</ele>
        <time>2021-09-05T09:26:00Z</time>
      </trkpt>
      <trkpt lat="47.29562" lon="6.0512">
        <ele>325.8</ele>
        <time>2021-09-05T09:26:01Z</time>
      </trkpt>
      <trkpt lat="47.2956" lon="6.05119">
        <ele>325.8</ele>
        <time>2021-09-05T09:26:02Z</time>
      </trkpt>
      <trkpt lat="47.29558" lon="6.05118">
        <ele>325.8</ele>
        <time>2021-09-05T09:26:03Z</time>
      </trkpt>
      <trkpt lat="47.29556" lon="6.05117">
        <ele>325.8</ele>
        <time>2021-09-05T09:26:04Z</time>
      </trkpt>
      <trkpt lat="47.29554" lon="6.05115">
        <ele>325.8</ele>
        <time>2021-09-05T09:26:05Z</time>
      </trkpt>
      <trkpt lat="47.29545" lon="6.05111">
        <ele>326.2</ele>
        <time>2021-09-05T09:26:08Z</time>
      </trkpt>
      <trkpt lat="47.29543" lon="6.0511">
        <ele>326.2</ele>
        <time>2021-09-05T09:26:09Z</time>
      </trkpt>
      <trkpt lat="47.29541" lon="6.05109">
        <ele>326.4</ele>
        <time>2021-09-05T09:26:10Z</time>
      </trkpt>
      <trkpt lat="47.29539" lon="6.05108">
        <ele>326.4</ele>
        <time>2021-09-05T09:26:11Z</time>
      </trkpt>
      <trkpt lat="47.29536" lon="6.05107">
        <ele>326.8</ele>
        <time>2021-09-05T09:26:12Z</time>
      </trkpt>
      <trkpt lat="47.29534" lon="6.05106">
        <ele>327.2</ele>
        <time>2021-09-05T09:26:13Z</time>
      </trkpt>
      <trkpt lat="47.29532" lon="6.05105">
        <ele>327.6</ele>
        <time>2021-09-05T09:26:14Z</time>
      </trkpt>
      <trkpt lat="47.29529" lon="6.05104">
        <ele>327.6</ele>
        <time>2021-09-05T09:26:15Z</time>
      </trkpt>
      <trkpt lat="47.29527" lon="6.05102">
        <ele>327.8</ele>
        <time>2021-09-05T09:26:16Z</time>
      </trkpt>
      <trkpt lat="47.29524" lon="6.051">
        <ele>328</ele>
        <time>2021-09-05T09:26:17Z</time>
      </trkpt>
      <trkpt lat="47.29513" lon="6.05091">
        <ele>328.8</ele>
        <time>2021-09-05T09:26:22Z</time>
      </trkpt>
      <trkpt lat="47.29501" lon="6.05079">
        <ele>329.2</ele>
        <time>2021-09-05T09:26:26Z</time>
      </trkpt>
      <trkpt lat="47.29497" lon="6.05076">
        <ele>329.4</ele>
        <time>2021-09-05T09:26:27Z</time>
      </trkpt>
      <trkpt lat="47.29494" lon="6.05073">
        <ele>329.4</ele>
        <time>2021-09-05T09:26:28Z</time>
      </trkpt>
      <trkpt lat="47.29491" lon="6.05069">
        <ele>329.4</ele>
        <time>2021-09-05T09:26:29Z</time>
      </trkpt>
      <trkpt lat="47.29488" lon="6.05065">
        <ele>329.4</ele>
        <time>2021-09-05T09:26:30Z</time>
      </trkpt>
      <trkpt lat="47.29485" lon="6.05062">
        <ele>329.4</ele>
        <time>2021-09-05T09:26:31Z</time>
      </trkpt>
      <trkpt lat="47.29482" lon="6.0506">
        <ele>329.4</ele>
        <time>2021-09-05T09:26:32Z</time>
      </trkpt>
      <trkpt lat="47.29478" lon="6.05057">
        <ele>329.4</ele>
        <time>2021-09-05T09:26:33Z</time>
      </trkpt>
      <trkpt lat="47.29475" lon="6.05055">
        <ele>329.4</ele>
        <time>2021-09-05T09:26:34Z</time>
      </trkpt>
      <trkpt lat="47.29473" lon="6.05053">
        <ele>329.2</ele>
        <time>2021-09-05T09:26:35Z</time>
      </trkpt>
      <trkpt lat="47.29469" lon="6.05051">
        <ele>329.2</ele>
        <time>2021-09-05T09:26:36Z</time>
      </trkpt>
      <trkpt lat="47.29459" lon="6.05049">
        <ele>329</ele>
        <time>2021-09-05T09:26:39Z</time>
      </trkpt>
      <trkpt lat="47.29455" lon="6.05048">
        <ele>329</ele>
        <time>2021-09-05T09:26:40Z</time>
      </trkpt>
      <trkpt lat="47.29452" lon="6.05048">
        <ele>329</ele>
        <time>2021-09-05T09:26:41Z</time>
      </trkpt>
      <trkpt lat="47.29449" lon="6.05049">
        <ele>329</ele>
        <time>2021-09-05T09:26:42Z</time>
      </trkpt>
      <trkpt lat="47.29445" lon="6.05049">
        <ele>329</ele>
        <time>2021-09-05T09:26:43Z</time>
      </trkpt>
      <trkpt lat="47.29442" lon="6.05049">
        <ele>329</ele>
        <time>2021-09-05T09:26:44Z</time>
      </trkpt>
      <trkpt lat="47.29438" lon="6.05049">
        <ele>329</ele>
        <time>2021-09-05T09:26:45Z</time>
      </trkpt>
      <trkpt lat="47.29435" lon="6.0505">
        <ele>329</ele>
        <time>2021-09-05T09:26:46Z</time>
      </trkpt>
      <trkpt lat="47.29404" lon="6.05055">
        <ele>329.6</ele>
        <time>2021-09-05T09:26:55Z</time>
      </trkpt>
      <trkpt lat="47.29395" lon="6.05059">
        <ele>330</ele>
        <time>2021-09-05T09:26:58Z</time>
      </trkpt>
      <trkpt lat="47.29384" lon="6.05061">
        <ele>330</ele>
        <time>2021-09-05T09:27:01Z</time>
      </trkpt>
      <trkpt lat="47.29381" lon="6.05062">
        <ele>330.2</ele>
        <time>2021-09-05T09:27:02Z</time>
      </trkpt>
      <trkpt lat="47.29378" lon="6.05063">
        <ele>330.2</ele>
        <time>2021-09-05T09:27:03Z</time>
      </trkpt>
      <trkpt lat="47.2936" lon="6.05063">
        <ele>330.6</ele>
        <time>2021-09-05T09:27:08Z</time>
      </trkpt>
      <trkpt lat="47.29358" lon="6.05063">
        <ele>330.8</ele>
        <time>2021-09-05T09:27:09Z</time>
      </trkpt>
      <trkpt lat="47.29355" lon="6.05063">
        <ele>330.8</ele>
        <time>2021-09-05T09:27:10Z</time>
      </trkpt>
      <trkpt lat="47.29353" lon="6.05062">
        <ele>331</ele>
        <time>2021-09-05T09:27:11Z</time>
      </trkpt>
      <trkpt lat="47.29345" lon="6.0506">
        <ele>331.4</ele>
        <time>2021-09-05T09:27:13Z</time>
      </trkpt>
      <trkpt lat="47.29328" lon="6.05059">
        <ele>331.8</ele>
        <time>2021-09-05T09:27:17Z</time>
      </trkpt>
      <trkpt lat="47.29324" lon="6.05062">
        <ele>332</ele>
        <time>2021-09-05T09:27:18Z</time>
      </trkpt>
      <trkpt lat="47.29322" lon="6.05065">
        <ele>332</ele>
        <time>2021-09-05T09:27:19Z</time>
      </trkpt>
      <trkpt lat="47.29321" lon="6.05069">
        <ele>332.2</ele>
        <time>2021-09-05T09:27:20Z</time>
      </trkpt>
      <trkpt lat="47.29319" lon="6.0507">
        <ele>332.4</ele>
        <time>2021-09-05T09:27:21Z</time>
      </trkpt>
      <trkpt lat="47.29317" lon="6.05072">
        <ele>332.4</ele>
        <time>2021-09-05T09:27:22Z</time>
      </trkpt>
      <trkpt lat="47.29315" lon="6.05075">
        <ele>332.8</ele>
        <time>2021-09-05T09:27:23Z</time>
      </trkpt>
      <trkpt lat="47.29313" lon="6.05077">
        <ele>332.8</ele>
        <time>2021-09-05T09:27:24Z</time>
      </trkpt>
      <trkpt lat="47.29311" lon="6.05078">
        <ele>333.4</ele>
        <time>2021-09-05T09:27:25Z</time>
      </trkpt>
      <trkpt lat="47.2931" lon="6.05079">
        <ele>333.6</ele>
        <time>2021-09-05T09:27:26Z</time>
      </trkpt>
      <trkpt lat="47.29307" lon="6.05082">
        <ele>333.8</ele>
        <time>2021-09-05T09:27:27Z</time>
      </trkpt>
      <trkpt lat="47.29304" lon="6.05084">
        <ele>334</ele>
        <time>2021-09-05T09:27:28Z</time>
      </trkpt>
      <trkpt lat="47.29302" lon="6.05087">
        <ele>334.2</ele>
        <time>2021-09-05T09:27:29Z</time>
      </trkpt>
      <trkpt lat="47.29299" lon="6.05089">
        <ele>334.4</ele>
        <time>2021-09-05T09:27:30Z</time>
      </trkpt>
      <trkpt lat="47.29297" lon="6.05092">
        <ele>334.6</ele>
        <time>2021-09-05T09:27:31Z</time>
      </trkpt>
      <trkpt lat="47.29295" lon="6.05093">
        <ele>334.6</ele>
        <time>2021-09-05T09:27:32Z</time>
      </trkpt>
      <trkpt lat="47.29292" lon="6.05097">
        <ele>334.6</ele>
        <time>2021-09-05T09:27:33Z</time>
      </trkpt>
      <trkpt lat="47.2929" lon="6.051">
        <ele>335</ele>
        <time>2021-09-05T09:27:34Z</time>
      </trkpt>
      <trkpt lat="47.29288" lon="6.05102">
        <ele>335.2</ele>
        <time>2021-09-05T09:27:35Z</time>
      </trkpt>
      <trkpt lat="47.29286" lon="6.05104">
        <ele>335.4</ele>
        <time>2021-09-05T09:27:36Z</time>
      </trkpt>
      <trkpt lat="47.29285" lon="6.05106">
        <ele>335.4</ele>
        <time>2021-09-05T09:27:37Z</time>
      </trkpt>
      <trkpt lat="47.29284" lon="6.0511">
        <ele>335.6</ele>
        <time>2021-09-05T09:27:38Z</time>
      </trkpt>
      <trkpt lat="47.29282" lon="6.05113">
        <ele>335.6</ele>
        <time>2021-09-05T09:27:39Z</time>
      </trkpt>
      <trkpt lat="47.29279" lon="6.05117">
        <ele>335.6</ele>
        <time>2021-09-05T09:27:40Z</time>
      </trkpt>
      <trkpt lat="47.29276" lon="6.0512">
        <ele>335.6</ele>
        <time>2021-09-05T09:27:41Z</time>
      </trkpt>
      <trkpt lat="47.29271" lon="6.05123">
        <ele>335.6</ele>
        <time>2021-09-05T09:27:42Z</time>
      </trkpt>
      <trkpt lat="47.29265" lon="6.05129">
        <ele>335.4</ele>
        <time>2021-09-05T09:27:43Z</time>
      </trkpt>
      <trkpt lat="47.2926" lon="6.05134">
        <ele>335.4</ele>
        <time>2021-09-05T09:27:44Z</time>
      </trkpt>
      <trkpt lat="47.29252" lon="6.0514">
        <ele>335.2</ele>
        <time>2021-09-05T09:27:45Z</time>
      </trkpt>
      <trkpt lat="47.29244" lon="6.05149">
        <ele>334.8</ele>
        <time>2021-09-05T09:27:46Z</time>
      </trkpt>
      <trkpt lat="47.29239" lon="6.05157">
        <ele>334.6</ele>
        <time>2021-09-05T09:27:47Z</time>
      </trkpt>
      <trkpt lat="47.29234" lon="6.05166">
        <ele>333.6</ele>
        <time>2021-09-05T09:27:48Z</time>
      </trkpt>
      <trkpt lat="47.29227" lon="6.05174">
        <ele>333.2</ele>
        <time>2021-09-05T09:27:49Z</time>
      </trkpt>
      <trkpt lat="47.29221" lon="6.05181">
        <ele>332.8</ele>
        <time>2021-09-05T09:27:50Z</time>
      </trkpt>
      <trkpt lat="47.29214" lon="6.05187">
        <ele>331.8</ele>
        <time>2021-09-05T09:27:51Z</time>
      </trkpt>
      <trkpt lat="47.29209" lon="6.05196">
        <ele>331.4</ele>
        <time>2021-09-05T09:27:52Z</time>
      </trkpt>
      <trkpt lat="47.29205" lon="6.05205">
        <ele>330.8</ele>
        <time>2021-09-05T09:27:53Z</time>
      </trkpt>
      <trkpt lat="47.29199" lon="6.05211">
        <ele>330.4</ele>
        <time>2021-09-05T09:27:54Z</time>
      </trkpt>
      <trkpt lat="47.29194" lon="6.05216">
        <ele>329.4</ele>
        <time>2021-09-05T09:27:55Z</time>
      </trkpt>
      <trkpt lat="47.29179" lon="6.05226">
        <ele>327.8</ele>
        <time>2021-09-05T09:27:57Z</time>
      </trkpt>
      <trkpt lat="47.29171" lon="6.05233">
        <ele>326.8</ele>
        <time>2021-09-05T09:27:58Z</time>
      </trkpt>
      <trkpt lat="47.29163" lon="6.0524">
        <ele>326.6</ele>
        <time>2021-09-05T09:27:59Z</time>
      </trkpt>
      <trkpt lat="47.29147" lon="6.05252">
        <ele>325.4</ele>
        <time>2021-09-05T09:28:01Z</time>
      </trkpt>
      <trkpt lat="47.29136" lon="6.05259">
        <ele>324.2</ele>
        <time>2021-09-05T09:28:02Z</time>
      </trkpt>
      <trkpt lat="47.29114" lon="6.05273">
        <ele>322.8</ele>
        <time>2021-09-05T09:28:04Z</time>
      </trkpt>
      <trkpt lat="47.29103" lon="6.05282">
        <ele>322.4</ele>
        <time>2021-09-05T09:28:05Z</time>
      </trkpt>
      <trkpt lat="47.29093" lon="6.05292">
        <ele>321</ele>
        <time>2021-09-05T09:28:06Z</time>
      </trkpt>
      <trkpt lat="47.29084" lon="6.05302">
        <ele>319.6</ele>
        <time>2021-09-05T09:28:07Z</time>
      </trkpt>
      <trkpt lat="47.29076" lon="6.0531">
        <ele>319</ele>
        <time>2021-09-05T09:28:08Z</time>
      </trkpt>
      <trkpt lat="47.29069" lon="6.05317">
        <ele>317.4</ele>
        <time>2021-09-05T09:28:09Z</time>
      </trkpt>
      <trkpt lat="47.29051" lon="6.05336">
        <ele>315.8</ele>
        <time>2021-09-05T09:28:11Z</time>
      </trkpt>
      <trkpt lat="47.29042" lon="6.05345">
        <ele>315.2</ele>
        <time>2021-09-05T09:28:12Z</time>
      </trkpt>
      <trkpt lat="47.29034" lon="6.05353">
        <ele>314.2</ele>
        <time>2021-09-05T09:28:13Z</time>
      </trkpt>
      <trkpt lat="47.29027" lon="6.05362">
        <ele>313</ele>
        <time>2021-09-05T09:28:14Z</time>
      </trkpt>
      <trkpt lat="47.29018" lon="6.05367">
        <ele>312.4</ele>
        <time>2021-09-05T09:28:15Z</time>
      </trkpt>
      <trkpt lat="47.29011" lon="6.0537">
        <ele>311.4</ele>
        <time>2021-09-05T09:28:16Z</time>
      </trkpt>
      <trkpt lat="47.29004" lon="6.05371">
        <ele>311</ele>
        <time>2021-09-05T09:28:17Z</time>
      </trkpt>
      <trkpt lat="47.28996" lon="6.0537">
        <ele>310.6</ele>
        <time>2021-09-05T09:28:18Z</time>
      </trkpt>
      <trkpt lat="47.2899" lon="6.05368">
        <ele>310.4</ele>
        <time>2021-09-05T09:28:19Z</time>
      </trkpt>
      <trkpt lat="47.28985" lon="6.05366">
        <ele>310.2</ele>
        <time>2021-09-05T09:28:20Z</time>
      </trkpt>
      <trkpt lat="47.28981" lon="6.05363">
        <ele>310</ele>
        <time>2021-09-05T09:28:21Z</time>
      </trkpt>
      <trkpt lat="47.28977" lon="6.05359">
        <ele>309.8</ele>
        <time>2021-09-05T09:28:22Z</time>
      </trkpt>
      <trkpt lat="47.2897" lon="6.05355">
        <ele>309.8</ele>
        <time>2021-09-05T09:28:23Z</time>
      </trkpt>
      <trkpt lat="47.28964" lon="6.05353">
        <ele>309.8</ele>
        <time>2021-09-05T09:28:24Z</time>
      </trkpt>
      <trkpt lat="47.28959" lon="6.05352">
        <ele>309.6</ele>
        <time>2021-09-05T09:28:25Z</time>
      </trkpt>
      <trkpt lat="47.28954" lon="6.05349">
        <ele>309.6</ele>
        <time>2021-09-05T09:28:26Z</time>
      </trkpt>
      <trkpt lat="47.28941" lon="6.05343">
        <ele>309.2</ele>
        <time>2021-09-05T09:28:28Z</time>
      </trkpt>
      <trkpt lat="47.28935" lon="6.05342">
        <ele>309</ele>
        <time>2021-09-05T09:28:29Z</time>
      </trkpt>
      <trkpt lat="47.28925" lon="6.05341">
        <ele>308.6</ele>
        <time>2021-09-05T09:28:31Z</time>
      </trkpt>
      <trkpt lat="47.2891" lon="6.05343">
        <ele>308.2</ele>
        <time>2021-09-05T09:28:33Z</time>
      </trkpt>
      <trkpt lat="47.28895" lon="6.05348">
        <ele>307.8</ele>
        <time>2021-09-05T09:28:35Z</time>
      </trkpt>
      <trkpt lat="47.28882" lon="6.0535">
        <ele>307</ele>
        <time>2021-09-05T09:28:37Z</time>
      </trkpt>
      <trkpt lat="47.28875" lon="6.05351">
        <ele>306.8</ele>
        <time>2021-09-05T09:28:38Z</time>
      </trkpt>
      <trkpt lat="47.28869" lon="6.05353">
        <ele>306.4</ele>
        <time>2021-09-05T09:28:39Z</time>
      </trkpt>
      <trkpt lat="47.28863" lon="6.05355">
        <ele>306.2</ele>
        <time>2021-09-05T09:28:40Z</time>
      </trkpt>
      <trkpt lat="47.28858" lon="6.05356">
        <ele>306</ele>
        <time>2021-09-05T09:28:41Z</time>
      </trkpt>
      <trkpt lat="47.28851" lon="6.0536">
        <ele>306</ele>
        <time>2021-09-05T09:28:42Z</time>
      </trkpt>
      <trkpt lat="47.28846" lon="6.05364">
        <ele>305.8</ele>
        <time>2021-09-05T09:28:43Z</time>
      </trkpt>
      <trkpt lat="47.28843" lon="6.05366">
        <ele>305.8</ele>
        <time>2021-09-05T09:28:44Z</time>
      </trkpt>
      <trkpt lat="47.28839" lon="6.05367">
        <ele>305.8</ele>
        <time>2021-09-05T09:28:45Z</time>
      </trkpt>
      <trkpt lat="47.28835" lon="6.05368">
        <ele>306</ele>
        <time>2021-09-05T09:28:46Z</time>
      </trkpt>
      <trkpt lat="47.28831" lon="6.0537">
        <ele>306</ele>
        <time>2021-09-05T09:28:47Z</time>
      </trkpt>
      <trkpt lat="47.28829" lon="6.05373">
        <ele>306</ele>
        <time>2021-09-05T09:28:48Z</time>
      </trkpt>
      <trkpt lat="47.28818" lon="6.05383">
        <ele>306.4</ele>
        <time>2021-09-05T09:28:52Z</time>
      </trkpt>
      <trkpt lat="47.28813" lon="6.05385">
        <ele>306.6</ele>
        <time>2021-09-05T09:28:53Z</time>
      </trkpt>
      <trkpt lat="47.28812" lon="6.05386">
        <ele>306.6</ele>
        <time>2021-09-05T09:28:54Z</time>
      </trkpt>
      <trkpt lat="47.2881" lon="6.05388">
        <ele>306.6</ele>
        <time>2021-09-05T09:28:55Z</time>
      </trkpt>
      <trkpt lat="47.28808" lon="6.0539">
        <ele>306.6</ele>
        <time>2021-09-05T09:28:56Z</time>
      </trkpt>
      <trkpt lat="47.28807" lon="6.05392">
        <ele>306.8</ele>
        <time>2021-09-05T09:28:57Z</time>
      </trkpt>
      <trkpt lat="47.28805" lon="6.05394">
        <ele>306.8</ele>
        <time>2021-09-05T09:28:58Z</time>
      </trkpt>
      <trkpt lat="47.28803" lon="6.05396">
        <ele>307</ele>
        <time>2021-09-05T09:28:59Z</time>
      </trkpt>
      <trkpt lat="47.28801" lon="6.05399">
        <ele>307.2</ele>
        <time>2021-09-05T09:29:00Z</time>
      </trkpt>
      <trkpt lat="47.28796" lon="6.05404">
        <ele>307.4</ele>
        <time>2021-09-05T09:29:02Z</time>
      </trkpt>
      <trkpt lat="47.28794" lon="6.05406">
        <ele>307.6</ele>
        <time>2021-09-05T09:29:03Z</time>
      </trkpt>
      <trkpt lat="47.28785" lon="6.05414">
        <ele>308</ele>
        <time>2021-09-05T09:29:06Z</time>
      </trkpt>
      <trkpt lat="47.28773" lon="6.05423">
        <ele>308.4</ele>
        <time>2021-09-05T09:29:10Z</time>
      </trkpt>
      <trkpt lat="47.28769" lon="6.05426">
        <ele>308.6</ele>
        <time>2021-09-05T09:29:11Z</time>
      </trkpt>
      <trkpt lat="47.28764" lon="6.05431">
        <ele>308.8</ele>
        <time>2021-09-05T09:29:13Z</time>
      </trkpt>
      <trkpt lat="47.28757" lon="6.05436">
        <ele>309</ele>
        <time>2021-09-05T09:29:15Z</time>
      </trkpt>
      <trkpt lat="47.28741" lon="6.05447">
        <ele>309.4</ele>
        <time>2021-09-05T09:29:19Z</time>
      </trkpt>
      <trkpt lat="47.28731" lon="6.05456">
        <ele>309.6</ele>
        <time>2021-09-05T09:29:22Z</time>
      </trkpt>
      <trkpt lat="47.28715" lon="6.05467">
        <ele>309.8</ele>
        <time>2021-09-05T09:29:26Z</time>
      </trkpt>
      <trkpt lat="47.2871" lon="6.05467">
        <ele>309.8</ele>
        <time>2021-09-05T09:29:27Z</time>
      </trkpt>
      <trkpt lat="47.28704" lon="6.05468">
        <ele>309.8</ele>
        <time>2021-09-05T09:29:28Z</time>
      </trkpt>
      <trkpt lat="47.28683" lon="6.05478">
        <ele>310</ele>
        <time>2021-09-05T09:29:32Z</time>
      </trkpt>
      <trkpt lat="47.28679" lon="6.0548">
        <ele>310.2</ele>
        <time>2021-09-05T09:29:33Z</time>
      </trkpt>
      <trkpt lat="47.28673" lon="6.05486">
        <ele>310.6</ele>
        <time>2021-09-05T09:29:35Z</time>
      </trkpt>
      <trkpt lat="47.28671" lon="6.05489">
        <ele>311</ele>
        <time>2021-09-05T09:29:36Z</time>
      </trkpt>
      <trkpt lat="47.28669" lon="6.05491">
        <ele>311.2</ele>
        <time>2021-09-05T09:29:37Z</time>
      </trkpt>
      <trkpt lat="47.28667" lon="6.05494">
        <ele>311.6</ele>
        <time>2021-09-05T09:29:38Z</time>
      </trkpt>
      <trkpt lat="47.28665" lon="6.05497">
        <ele>311.8</ele>
        <time>2021-09-05T09:29:39Z</time>
      </trkpt>
      <trkpt lat="47.28661" lon="6.05502">
        <ele>312.4</ele>
        <time>2021-09-05T09:29:41Z</time>
      </trkpt>
      <trkpt lat="47.2866" lon="6.05504">
        <ele>312.4</ele>
        <time>2021-09-05T09:29:42Z</time>
      </trkpt>
      <trkpt lat="47.28659" lon="6.05506">
        <ele>312.8</ele>
        <time>2021-09-05T09:29:43Z</time>
      </trkpt>
      <trkpt lat="47.28658" lon="6.05509">
        <ele>312.8</ele>
        <time>2021-09-05T09:29:44Z</time>
      </trkpt>
      <trkpt lat="47.28656" lon="6.05513">
        <ele>313.2</ele>
        <time>2021-09-05T09:29:45Z</time>
      </trkpt>
      <trkpt lat="47.28654" lon="6.05516">
        <ele>313.2</ele>
        <time>2021-09-05T09:29:46Z</time>
      </trkpt>
      <trkpt lat="47.28653" lon="6.05518">
        <ele>313.4</ele>
        <time>2021-09-05T09:29:47Z</time>
      </trkpt>
      <trkpt lat="47.28651" lon="6.05522">
        <ele>313.8</ele>
        <time>2021-09-05T09:29:48Z</time>
      </trkpt>
      <trkpt lat="47.2865" lon="6.05525">
        <ele>314</ele>
        <time>2021-09-05T09:29:49Z</time>
      </trkpt>
      <trkpt lat="47.28647" lon="6.05528">
        <ele>314.2</ele>
        <time>2021-09-05T09:29:50Z</time>
      </trkpt>
      <trkpt lat="47.28645" lon="6.05531">
        <ele>314.4</ele>
        <time>2021-09-05T09:29:51Z</time>
      </trkpt>
      <trkpt lat="47.28643" lon="6.05533">
        <ele>314.4</ele>
        <time>2021-09-05T09:29:52Z</time>
      </trkpt>
      <trkpt lat="47.2864" lon="6.05537">
        <ele>314.4</ele>
        <time>2021-09-05T09:29:53Z</time>
      </trkpt>
      <trkpt lat="47.28637" lon="6.05539">
        <ele>314.6</ele>
        <time>2021-09-05T09:29:54Z</time>
      </trkpt>
      <trkpt lat="47.28635" lon="6.05542">
        <ele>314.8</ele>
        <time>2021-09-05T09:29:55Z</time>
      </trkpt>
      <trkpt lat="47.28632" lon="6.05545">
        <ele>315</ele>
        <time>2021-09-05T09:29:56Z</time>
      </trkpt>
      <trkpt lat="47.2863" lon="6.05548">
        <ele>315.4</ele>
        <time>2021-09-05T09:29:57Z</time>
      </trkpt>
      <trkpt lat="47.28628" lon="6.05551">
        <ele>315.4</ele>
        <time>2021-09-05T09:29:58Z</time>
      </trkpt>
      <trkpt lat="47.28626" lon="6.05553">
        <ele>315.6</ele>
        <time>2021-09-05T09:29:59Z</time>
      </trkpt>
      <trkpt lat="47.28624" lon="6.05556">
        <ele>315.6</ele>
        <time>2021-09-05T09:30:00Z</time>
      </trkpt>
      <trkpt lat="47.28622" lon="6.0556">
        <ele>315.8</ele>
        <time>2021-09-05T09:30:01Z</time>
      </trkpt>
      <trkpt lat="47.2862" lon="6.05564">
        <ele>316</ele>
        <time>2021-09-05T09:30:02Z</time>
      </trkpt>
      <trkpt lat="47.28619" lon="6.05569">
        <ele>316</ele>
        <time>2021-09-05T09:30:03Z</time>
      </trkpt>
      <trkpt lat="47.28618" lon="6.05573">
        <ele>316.2</ele>
        <time>2021-09-05T09:30:04Z</time>
      </trkpt>
      <trkpt lat="47.28617" lon="6.05578">
        <ele>316.4</ele>
        <time>2021-09-05T09:30:05Z</time>
      </trkpt>
      <trkpt lat="47.28616" lon="6.05582">
        <ele>316.6</ele>
        <time>2021-09-05T09:30:06Z</time>
      </trkpt>
      <trkpt lat="47.28614" lon="6.05586">
        <ele>316.8</ele>
        <time>2021-09-05T09:30:07Z</time>
      </trkpt>
      <trkpt lat="47.28613" lon="6.0559">
        <ele>317</ele>
        <time>2021-09-05T09:30:08Z</time>
      </trkpt>
      <trkpt lat="47.28611" lon="6.05594">
        <ele>317</ele>
        <time>2021-09-05T09:30:09Z</time>
      </trkpt>
      <trkpt lat="47.28609" lon="6.05597">
        <ele>317.2</ele>
        <time>2021-09-05T09:30:10Z</time>
      </trkpt>
      <trkpt lat="47.28608" lon="6.05601">
        <ele>317.2</ele>
        <time>2021-09-05T09:30:11Z</time>
      </trkpt>
      <trkpt lat="47.28608" lon="6.05606">
        <ele>317.2</ele>
        <time>2021-09-05T09:30:12Z</time>
      </trkpt>
      <trkpt lat="47.28607" lon="6.05611">
        <ele>317.4</ele>
        <time>2021-09-05T09:30:13Z</time>
      </trkpt>
      <trkpt lat="47.28606" lon="6.05615">
        <ele>317.4</ele>
        <time>2021-09-05T09:30:14Z</time>
      </trkpt>
      <trkpt lat="47.28605" lon="6.05619">
        <ele>317.6</ele>
        <time>2021-09-05T09:30:15Z</time>
      </trkpt>
      <trkpt lat="47.28604" lon="6.05623">
        <ele>317.6</ele>
        <time>2021-09-05T09:30:16Z</time>
      </trkpt>
      <trkpt lat="47.28603" lon="6.05627">
        <ele>317.8</ele>
        <time>2021-09-05T09:30:17Z</time>
      </trkpt>
      <trkpt lat="47.28602" lon="6.05631">
        <ele>318</ele>
        <time>2021-09-05T09:30:18Z</time>
      </trkpt>
      <trkpt lat="47.28601" lon="6.05637">
        <ele>318</ele>
        <time>2021-09-05T09:30:19Z</time>
      </trkpt>
      <trkpt lat="47.28601" lon="6.0564">
        <ele>318.2</ele>
        <time>2021-09-05T09:30:20Z</time>
      </trkpt>
      <trkpt lat="47.28602" lon="6.05644">
        <ele>318.4</ele>
        <time>2021-09-05T09:30:21Z</time>
      </trkpt>
      <trkpt lat="47.286" lon="6.05649">
        <ele>318.4</ele>
        <time>2021-09-05T09:30:22Z</time>
      </trkpt>
      <trkpt lat="47.28598" lon="6.05654">
        <ele>318.4</ele>
        <time>2021-09-05T09:30:23Z</time>
      </trkpt>
      <trkpt lat="47.28595" lon="6.05656">
        <ele>318.6</ele>
        <time>2021-09-05T09:30:24Z</time>
      </trkpt>
      <trkpt lat="47.28594" lon="6.05659">
        <ele>318.6</ele>
        <time>2021-09-05T09:30:25Z</time>
      </trkpt>
      <trkpt lat="47.28592" lon="6.05661">
        <ele>318.6</ele>
        <time>2021-09-05T09:30:26Z</time>
      </trkpt>
      <trkpt lat="47.2859" lon="6.05663">
        <ele>318.8</ele>
        <time>2021-09-05T09:30:27Z</time>
      </trkpt>
      <trkpt lat="47.28588" lon="6.05665">
        <ele>318.8</ele>
        <time>2021-09-05T09:30:28Z</time>
      </trkpt>
      <trkpt lat="47.28586" lon="6.05667">
        <ele>318.8</ele>
        <time>2021-09-05T09:30:29Z</time>
      </trkpt>
      <trkpt lat="47.28584" lon="6.05669">
        <ele>319</ele>
        <time>2021-09-05T09:30:30Z</time>
      </trkpt>
      <trkpt lat="47.28582" lon="6.0567">
        <ele>319</ele>
        <time>2021-09-05T09:30:31Z</time>
      </trkpt>
      <trkpt lat="47.2858" lon="6.05671">
        <ele>319.2</ele>
        <time>2021-09-05T09:30:32Z</time>
      </trkpt>
      <trkpt lat="47.28577" lon="6.05673">
        <ele>319.2</ele>
        <time>2021-09-05T09:30:33Z</time>
      </trkpt>
      <trkpt lat="47.28574" lon="6.05675">
        <ele>319.2</ele>
        <time>2021-09-05T09:30:34Z</time>
      </trkpt>
      <trkpt lat="47.28571" lon="6.05677">
        <ele>319.4</ele>
        <time>2021-09-05T09:30:35Z</time>
      </trkpt>
      <trkpt lat="47.28569" lon="6.05679">
        <ele>319.6</ele>
        <time>2021-09-05T09:30:36Z</time>
      </trkpt>
      <trkpt lat="47.28566" lon="6.05681">
        <ele>319.6</ele>
        <time>2021-09-05T09:30:37Z</time>
      </trkpt>
      <trkpt lat="47.28563" lon="6.05683">
        <ele>319.8</ele>
        <time>2021-09-05T09:30:38Z</time>
      </trkpt>
      <trkpt lat="47.28556" lon="6.05691">
        <ele>320.6</ele>
        <time>2021-09-05T09:30:42Z</time>
      </trkpt>
      <trkpt lat="47.28554" lon="6.05693">
        <ele>320.6</ele>
        <time>2021-09-05T09:30:43Z</time>
      </trkpt>
      <trkpt lat="47.28552" lon="6.05695">
        <ele>320.8</ele>
        <time>2021-09-05T09:30:44Z</time>
      </trkpt>
      <trkpt lat="47.2855" lon="6.05698">
        <ele>321</ele>
        <time>2021-09-05T09:30:45Z</time>
      </trkpt>
      <trkpt lat="47.28548" lon="6.05699">
        <ele>321.2</ele>
        <time>2021-09-05T09:30:46Z</time>
      </trkpt>
      <trkpt lat="47.28545" lon="6.05702">
        <ele>321.4</ele>
        <time>2021-09-05T09:30:47Z</time>
      </trkpt>
      <trkpt lat="47.28543" lon="6.05704">
        <ele>321.4</ele>
        <time>2021-09-05T09:30:48Z</time>
      </trkpt>
      <trkpt lat="47.2854" lon="6.05707">
        <ele>321.6</ele>
        <time>2021-09-05T09:30:49Z</time>
      </trkpt>
      <trkpt lat="47.28537" lon="6.05709">
        <ele>321.8</ele>
        <time>2021-09-05T09:30:50Z</time>
      </trkpt>
      <trkpt lat="47.28535" lon="6.05711">
        <ele>322</ele>
        <time>2021-09-05T09:30:51Z</time>
      </trkpt>
      <trkpt lat="47.28533" lon="6.05714">
        <ele>322.4</ele>
        <time>2021-09-05T09:30:52Z</time>
      </trkpt>
      <trkpt lat="47.2853" lon="6.05716">
        <ele>322.4</ele>
        <time>2021-09-05T09:30:53Z</time>
      </trkpt>
      <trkpt lat="47.28528" lon="6.05718">
        <ele>322.8</ele>
        <time>2021-09-05T09:30:54Z</time>
      </trkpt>
      <trkpt lat="47.28525" lon="6.0572">
        <ele>323</ele>
        <time>2021-09-05T09:30:55Z</time>
      </trkpt>
      <trkpt lat="47.28523" lon="6.05722">
        <ele>323.2</ele>
        <time>2021-09-05T09:30:56Z</time>
      </trkpt>
      <trkpt lat="47.2852" lon="6.05723">
        <ele>323.4</ele>
        <time>2021-09-05T09:30:57Z</time>
      </trkpt>
      <trkpt lat="47.28517" lon="6.05725">
        <ele>323.4</ele>
        <time>2021-09-05T09:30:58Z</time>
      </trkpt>
      <trkpt lat="47.28513" lon="6.05726">
        <ele>323.8</ele>
        <time>2021-09-05T09:30:59Z</time>
      </trkpt>
      <trkpt lat="47.2851" lon="6.05728">
        <ele>324</ele>
        <time>2021-09-05T09:31:00Z</time>
      </trkpt>
      <trkpt lat="47.28508" lon="6.05729">
        <ele>324</ele>
        <time>2021-09-05T09:31:01Z</time>
      </trkpt>
      <trkpt lat="47.28505" lon="6.05731">
        <ele>324.2</ele>
        <time>2021-09-05T09:31:02Z</time>
      </trkpt>
      <trkpt lat="47.28503" lon="6.05733">
        <ele>324.4</ele>
        <time>2021-09-05T09:31:03Z</time>
      </trkpt>
      <trkpt lat="47.28502" lon="6.05735">
        <ele>324.6</ele>
        <time>2021-09-05T09:31:04Z</time>
      </trkpt>
      <trkpt lat="47.285" lon="6.05737">
        <ele>324.8</ele>
        <time>2021-09-05T09:31:05Z</time>
      </trkpt>
      <trkpt lat="47.28498" lon="6.05739">
        <ele>325</ele>
        <time>2021-09-05T09:31:06Z</time>
      </trkpt>
      <trkpt lat="47.28496" lon="6.05742">
        <ele>325</ele>
        <time>2021-09-05T09:31:07Z</time>
      </trkpt>
      <trkpt lat="47.28493" lon="6.05745">
        <ele>325.2</ele>
        <time>2021-09-05T09:31:08Z</time>
      </trkpt>
      <trkpt lat="47.2849" lon="6.05748">
        <ele>325.2</ele>
        <time>2021-09-05T09:31:09Z</time>
      </trkpt>
      <trkpt lat="47.28487" lon="6.05752">
        <ele>325.4</ele>
        <time>2021-09-05T09:31:10Z</time>
      </trkpt>
      <trkpt lat="47.28484" lon="6.05756">
        <ele>325.4</ele>
        <time>2021-09-05T09:31:11Z</time>
      </trkpt>
      <trkpt lat="47.28481" lon="6.0576">
        <ele>325.4</ele>
        <time>2021-09-05T09:31:12Z</time>
      </trkpt>
      <trkpt lat="47.28478" lon="6.05764">
        <ele>325.4</ele>
        <time>2021-09-05T09:31:13Z</time>
      </trkpt>
      <trkpt lat="47.28475" lon="6.05767">
        <ele>325.4</ele>
        <time>2021-09-05T09:31:14Z</time>
      </trkpt>
      <trkpt lat="47.28471" lon="6.05771">
        <ele>325.4</ele>
        <time>2021-09-05T09:31:15Z</time>
      </trkpt>
      <trkpt lat="47.28466" lon="6.05774">
        <ele>325.4</ele>
        <time>2021-09-05T09:31:16Z</time>
      </trkpt>
      <trkpt lat="47.28462" lon="6.05777">
        <ele>325.2</ele>
        <time>2021-09-05T09:31:17Z</time>
      </trkpt>
      <trkpt lat="47.28457" lon="6.0578">
        <ele>325</ele>
        <time>2021-09-05T09:31:18Z</time>
      </trkpt>
      <trkpt lat="47.28452" lon="6.05783">
        <ele>324.8</ele>
        <time>2021-09-05T09:31:19Z</time>
      </trkpt>
      <trkpt lat="47.28448" lon="6.05786">
        <ele>324.6</ele>
        <time>2021-09-05T09:31:20Z</time>
      </trkpt>
      <trkpt lat="47.28443" lon="6.05789">
        <ele>324.4</ele>
        <time>2021-09-05T09:31:21Z</time>
      </trkpt>
      <trkpt lat="47.28438" lon="6.05791">
        <ele>324</ele>
        <time>2021-09-05T09:31:22Z</time>
      </trkpt>
      <trkpt lat="47.28434" lon="6.05794">
        <ele>323.8</ele>
        <time>2021-09-05T09:31:23Z</time>
      </trkpt>
      <trkpt lat="47.28426" lon="6.058">
        <ele>323.4</ele>
        <time>2021-09-05T09:31:25Z</time>
      </trkpt>
      <trkpt lat="47.28423" lon="6.05803">
        <ele>323.4</ele>
        <time>2021-09-05T09:31:26Z</time>
      </trkpt>
      <trkpt lat="47.2842" lon="6.05805">
        <ele>323.4</ele>
        <time>2021-09-05T09:31:27Z</time>
      </trkpt>
      <trkpt lat="47.28417" lon="6.05807">
        <ele>323.4</ele>
        <time>2021-09-05T09:31:28Z</time>
      </trkpt>
      <trkpt lat="47.28414" lon="6.0581">
        <ele>323.4</ele>
        <time>2021-09-05T09:31:29Z</time>
      </trkpt>
      <trkpt lat="47.28406" lon="6.05817">
        <ele>323.6</ele>
        <time>2021-09-05T09:31:32Z</time>
      </trkpt>
      <trkpt lat="47.28403" lon="6.05819">
        <ele>323.8</ele>
        <time>2021-09-05T09:31:33Z</time>
      </trkpt>
      <trkpt lat="47.28401" lon="6.05822">
        <ele>324</ele>
        <time>2021-09-05T09:31:34Z</time>
      </trkpt>
      <trkpt lat="47.28399" lon="6.05824">
        <ele>324.2</ele>
        <time>2021-09-05T09:31:35Z</time>
      </trkpt>
      <trkpt lat="47.28395" lon="6.05828">
        <ele>324.4</ele>
        <time>2021-09-05T09:31:37Z</time>
      </trkpt>
      <trkpt lat="47.28393" lon="6.05829">
        <ele>324.6</ele>
        <time>2021-09-05T09:31:38Z</time>
      </trkpt>
      <trkpt lat="47.28389" lon="6.05834">
        <ele>325</ele>
        <time>2021-09-05T09:31:40Z</time>
      </trkpt>
      <trkpt lat="47.28379" lon="6.05843">
        <ele>325.6</ele>
        <time>2021-09-05T09:31:44Z</time>
      </trkpt>
      <trkpt lat="47.28376" lon="6.05844">
        <ele>325.8</ele>
        <time>2021-09-05T09:31:45Z</time>
      </trkpt>
      <trkpt lat="47.28373" lon="6.05847">
        <ele>325.8</ele>
        <time>2021-09-05T09:31:46Z</time>
      </trkpt>
      <trkpt lat="47.28371" lon="6.05849">
        <ele>325.8</ele>
        <time>2021-09-05T09:31:47Z</time>
      </trkpt>
      <trkpt lat="47.28346" lon="6.05859">
        <ele>326.6</ele>
        <time>2021-09-05T09:31:53Z</time>
      </trkpt>
      <trkpt lat="47.28342" lon="6.0586">
        <ele>326.8</ele>
        <time>2021-09-05T09:31:54Z</time>
      </trkpt>
      <trkpt lat="47.2833" lon="6.0586">
        <ele>327</ele>
        <time>2021-09-05T09:31:57Z</time>
      </trkpt>
      <trkpt lat="47.28327" lon="6.0586">
        <ele>327.2</ele>
        <time>2021-09-05T09:31:58Z</time>
      </trkpt>
      <trkpt lat="47.28322" lon="6.05859">
        <ele>327.4</ele>
        <time>2021-09-05T09:31:59Z</time>
      </trkpt>
      <trkpt lat="47.28319" lon="6.05859">
        <ele>327.4</ele>
        <time>2021-09-05T09:32:00Z</time>
      </trkpt>
      <trkpt lat="47.28315" lon="6.05858">
        <ele>327.6</ele>
        <time>2021-09-05T09:32:01Z</time>
      </trkpt>
      <trkpt lat="47.28311" lon="6.05858">
        <ele>327.6</ele>
        <time>2021-09-05T09:32:02Z</time>
      </trkpt>
      <trkpt lat="47.28306" lon="6.05858">
        <ele>327.8</ele>
        <time>2021-09-05T09:32:03Z</time>
      </trkpt>
      <trkpt lat="47.28301" lon="6.05858">
        <ele>327.8</ele>
        <time>2021-09-05T09:32:04Z</time>
      </trkpt>
      <trkpt lat="47.28296" lon="6.05856">
        <ele>327.8</ele>
        <time>2021-09-05T09:32:05Z</time>
      </trkpt>
      <trkpt lat="47.28292" lon="6.05856">
        <ele>327.8</ele>
        <time>2021-09-05T09:32:06Z</time>
      </trkpt>
      <trkpt lat="47.28288" lon="6.05856">
        <ele>328</ele>
        <time>2021-09-05T09:32:07Z</time>
      </trkpt>
      <trkpt lat="47.28284" lon="6.05854">
        <ele>328</ele>
        <time>2021-09-05T09:32:08Z</time>
      </trkpt>
      <trkpt lat="47.2828" lon="6.05853">
        <ele>328.2</ele>
        <time>2021-09-05T09:32:09Z</time>
      </trkpt>
      <trkpt lat="47.28276" lon="6.05852">
        <ele>328.2</ele>
        <time>2021-09-05T09:32:10Z</time>
      </trkpt>
      <trkpt lat="47.28273" lon="6.0585">
        <ele>328.2</ele>
        <time>2021-09-05T09:32:11Z</time>
      </trkpt>
      <trkpt lat="47.2827" lon="6.0585">
        <ele>328.2</ele>
        <time>2021-09-05T09:32:12Z</time>
      </trkpt>
      <trkpt lat="47.28266" lon="6.0585">
        <ele>328.2</ele>
        <time>2021-09-05T09:32:13Z</time>
      </trkpt>
      <trkpt lat="47.28259" lon="6.05851">
        <ele>328.2</ele>
        <time>2021-09-05T09:32:15Z</time>
      </trkpt>
      <trkpt lat="47.28255" lon="6.05852">
        <ele>328.2</ele>
        <time>2021-09-05T09:32:16Z</time>
      </trkpt>
      <trkpt lat="47.28246" lon="6.05852">
        <ele>328.4</ele>
        <time>2021-09-05T09:32:19Z</time>
      </trkpt>
      <trkpt lat="47.28242" lon="6.05853">
        <ele>328.4</ele>
        <time>2021-09-05T09:32:20Z</time>
      </trkpt>
      <trkpt lat="47.28232" lon="6.05855">
        <ele>328.4</ele>
        <time>2021-09-05T09:32:23Z</time>
      </trkpt>
      <trkpt lat="47.28229" lon="6.05856">
        <ele>328.4</ele>
        <time>2021-09-05T09:32:24Z</time>
      </trkpt>
      <trkpt lat="47.28226" lon="6.05857">
        <ele>328.4</ele>
        <time>2021-09-05T09:32:25Z</time>
      </trkpt>
      <trkpt lat="47.28222" lon="6.05858">
        <ele>328.4</ele>
        <time>2021-09-05T09:32:26Z</time>
      </trkpt>
      <trkpt lat="47.28218" lon="6.05858">
        <ele>328.4</ele>
        <time>2021-09-05T09:32:27Z</time>
      </trkpt>
      <trkpt lat="47.28192" lon="6.05864">
        <ele>328.2</ele>
        <time>2021-09-05T09:32:33Z</time>
      </trkpt>
      <trkpt lat="47.28163" lon="6.05866">
        <ele>328</ele>
        <time>2021-09-05T09:32:39Z</time>
      </trkpt>
      <trkpt lat="47.28139" lon="6.05863">
        <ele>328.4</ele>
        <time>2021-09-05T09:32:44Z</time>
      </trkpt>
      <trkpt lat="47.28129" lon="6.05861">
        <ele>328.4</ele>
        <time>2021-09-05T09:32:46Z</time>
      </trkpt>
      <trkpt lat="47.28096" lon="6.05851">
        <ele>328.4</ele>
        <time>2021-09-05T09:32:54Z</time>
      </trkpt>
      <trkpt lat="47.28094" lon="6.05845">
        <ele>328.4</ele>
        <time>2021-09-05T09:32:55Z</time>
      </trkpt>
      <trkpt lat="47.28092" lon="6.05839">
        <ele>328.2</ele>
        <time>2021-09-05T09:32:56Z</time>
      </trkpt>
      <trkpt lat="47.2809" lon="6.05833">
        <ele>328.4</ele>
        <time>2021-09-05T09:32:57Z</time>
      </trkpt>
      <trkpt lat="47.28087" lon="6.05827">
        <ele>328.2</ele>
        <time>2021-09-05T09:32:58Z</time>
      </trkpt>
      <trkpt lat="47.28076" lon="6.05793">
        <ele>328</ele>
        <time>2021-09-05T09:33:04Z</time>
      </trkpt>
      <trkpt lat="47.28073" lon="6.05783">
        <ele>328</ele>
        <time>2021-09-05T09:33:07Z</time>
      </trkpt>
      <trkpt lat="47.28064" lon="6.05768">
        <ele>328</ele>
        <time>2021-09-05T09:33:10Z</time>
      </trkpt>
      <trkpt lat="47.28062" lon="6.05764">
        <ele>328</ele>
        <time>2021-09-05T09:33:11Z</time>
      </trkpt>
      <trkpt lat="47.2806" lon="6.0576">
        <ele>328.2</ele>
        <time>2021-09-05T09:33:12Z</time>
      </trkpt>
      <trkpt lat="47.28058" lon="6.05757">
        <ele>328.2</ele>
        <time>2021-09-05T09:33:13Z</time>
      </trkpt>
      <trkpt lat="47.28054" lon="6.05754">
        <ele>328.2</ele>
        <time>2021-09-05T09:33:14Z</time>
      </trkpt>
      <trkpt lat="47.28051" lon="6.05752">
        <ele>328.2</ele>
        <time>2021-09-05T09:33:15Z</time>
      </trkpt>
      <trkpt lat="47.28049" lon="6.0575">
        <ele>328</ele>
        <time>2021-09-05T09:33:16Z</time>
      </trkpt>
      <trkpt lat="47.28026" lon="6.05734">
        <ele>327.4</ele>
        <time>2021-09-05T09:33:22Z</time>
      </trkpt>
      <trkpt lat="47.28018" lon="6.05725">
        <ele>327.2</ele>
        <time>2021-09-05T09:33:24Z</time>
      </trkpt>
      <trkpt lat="47.28015" lon="6.05721">
        <ele>327.2</ele>
        <time>2021-09-05T09:33:25Z</time>
      </trkpt>
      <trkpt lat="47.28012" lon="6.05716">
        <ele>327</ele>
        <time>2021-09-05T09:33:26Z</time>
      </trkpt>
      <trkpt lat="47.28008" lon="6.05712">
        <ele>326.6</ele>
        <time>2021-09-05T09:33:27Z</time>
      </trkpt>
      <trkpt lat="47.28004" lon="6.05709">
        <ele>326.4</ele>
        <time>2021-09-05T09:33:28Z</time>
      </trkpt>
      <trkpt lat="47.27985" lon="6.05692">
        <ele>325.8</ele>
        <time>2021-09-05T09:33:32Z</time>
      </trkpt>
      <trkpt lat="47.27981" lon="6.05689">
        <ele>325.6</ele>
        <time>2021-09-05T09:33:33Z</time>
      </trkpt>
      <trkpt lat="47.27976" lon="6.05686">
        <ele>325.4</ele>
        <time>2021-09-05T09:33:34Z</time>
      </trkpt>
      <trkpt lat="47.27972" lon="6.05683">
        <ele>325.2</ele>
        <time>2021-09-05T09:33:35Z</time>
      </trkpt>
      <trkpt lat="47.27967" lon="6.05679">
        <ele>325</ele>
        <time>2021-09-05T09:33:36Z</time>
      </trkpt>
      <trkpt lat="47.2794" lon="6.0565">
        <ele>324.2</ele>
        <time>2021-09-05T09:33:41Z</time>
      </trkpt>
      <trkpt lat="47.27927" lon="6.05629">
        <ele>323.6</ele>
        <time>2021-09-05T09:33:44Z</time>
      </trkpt>
      <trkpt lat="47.27912" lon="6.05612">
        <ele>323</ele>
        <time>2021-09-05T09:33:47Z</time>
      </trkpt>
      <trkpt lat="47.27894" lon="6.05598">
        <ele>322.6</ele>
        <time>2021-09-05T09:33:51Z</time>
      </trkpt>
      <trkpt lat="47.27881" lon="6.05589">
        <ele>322.4</ele>
        <time>2021-09-05T09:33:54Z</time>
      </trkpt>
      <trkpt lat="47.27876" lon="6.05583">
        <ele>322.2</ele>
        <time>2021-09-05T09:33:55Z</time>
      </trkpt>
      <trkpt lat="47.27873" lon="6.05577">
        <ele>322.2</ele>
        <time>2021-09-05T09:33:56Z</time>
      </trkpt>
      <trkpt lat="47.2787" lon="6.05573">
        <ele>322</ele>
        <time>2021-09-05T09:33:57Z</time>
      </trkpt>
      <trkpt lat="47.27861" lon="6.05566">
        <ele>321.8</ele>
        <time>2021-09-05T09:33:59Z</time>
      </trkpt>
      <trkpt lat="47.27856" lon="6.05563">
        <ele>321.6</ele>
        <time>2021-09-05T09:34:00Z</time>
      </trkpt>
      <trkpt lat="47.27851" lon="6.05561">
        <ele>321.6</ele>
        <time>2021-09-05T09:34:01Z</time>
      </trkpt>
      <trkpt lat="47.27837" lon="6.05552">
        <ele>321.2</ele>
        <time>2021-09-05T09:34:04Z</time>
      </trkpt>
      <trkpt lat="47.27833" lon="6.05549">
        <ele>321</ele>
        <time>2021-09-05T09:34:05Z</time>
      </trkpt>
      <trkpt lat="47.27824" lon="6.05544">
        <ele>320.8</ele>
        <time>2021-09-05T09:34:07Z</time>
      </trkpt>
      <trkpt lat="47.27819" lon="6.05542">
        <ele>320.8</ele>
        <time>2021-09-05T09:34:08Z</time>
      </trkpt>
      <trkpt lat="47.27816" lon="6.05541">
        <ele>320.8</ele>
        <time>2021-09-05T09:34:09Z</time>
      </trkpt>
      <trkpt lat="47.27812" lon="6.0554">
        <ele>320.8</ele>
        <time>2021-09-05T09:34:10Z</time>
      </trkpt>
      <trkpt lat="47.27807" lon="6.05539">
        <ele>320.8</ele>
        <time>2021-09-05T09:34:11Z</time>
      </trkpt>
      <trkpt lat="47.27804" lon="6.05538">
        <ele>320.8</ele>
        <time>2021-09-05T09:34:12Z</time>
      </trkpt>
      <trkpt lat="47.278" lon="6.05537">
        <ele>320.6</ele>
        <time>2021-09-05T09:34:13Z</time>
      </trkpt>
      <trkpt lat="47.27786" lon="6.05535">
        <ele>320.6</ele>
        <time>2021-09-05T09:34:16Z</time>
      </trkpt>
      <trkpt lat="47.27782" lon="6.05535">
        <ele>320.4</ele>
        <time>2021-09-05T09:34:17Z</time>
      </trkpt>
      <trkpt lat="47.27778" lon="6.05534">
        <ele>320.4</ele>
        <time>2021-09-05T09:34:18Z</time>
      </trkpt>
      <trkpt lat="47.27769" lon="6.05532">
        <ele>320.4</ele>
        <time>2021-09-05T09:34:20Z</time>
      </trkpt>
      <trkpt lat="47.27758" lon="6.05528">
        <ele>320.2</ele>
        <time>2021-09-05T09:34:23Z</time>
      </trkpt>
      <trkpt lat="47.27754" lon="6.05527">
        <ele>320.2</ele>
        <time>2021-09-05T09:34:24Z</time>
      </trkpt>
      <trkpt lat="47.2775" lon="6.05526">
        <ele>320.2</ele>
        <time>2021-09-05T09:34:25Z</time>
      </trkpt>
      <trkpt lat="47.27747" lon="6.05525">
        <ele>320.2</ele>
        <time>2021-09-05T09:34:26Z</time>
      </trkpt>
      <trkpt lat="47.27745" lon="6.05524">
        <ele>320</ele>
        <time>2021-09-05T09:34:27Z</time>
      </trkpt>
      <trkpt lat="47.27743" lon="6.05524">
        <ele>320</ele>
        <time>2021-09-05T09:34:28Z</time>
      </trkpt>
      <trkpt lat="47.27739" lon="6.05524">
        <ele>320</ele>
        <time>2021-09-05T09:34:29Z</time>
      </trkpt>
      <trkpt lat="47.27735" lon="6.05523">
        <ele>319.8</ele>
        <time>2021-09-05T09:34:30Z</time>
      </trkpt>
      <trkpt lat="47.27719" lon="6.05528">
        <ele>319.8</ele>
        <time>2021-09-05T09:34:33Z</time>
      </trkpt>
      <trkpt lat="47.27715" lon="6.0553">
        <ele>319.6</ele>
        <time>2021-09-05T09:34:34Z</time>
      </trkpt>
      <trkpt lat="47.27707" lon="6.05533">
        <ele>319.6</ele>
        <time>2021-09-05T09:34:36Z</time>
      </trkpt>
      <trkpt lat="47.27702" lon="6.05533">
        <ele>319.6</ele>
        <time>2021-09-05T09:34:37Z</time>
      </trkpt>
      <trkpt lat="47.27698" lon="6.05532">
        <ele>319.6</ele>
        <time>2021-09-05T09:34:38Z</time>
      </trkpt>
      <trkpt lat="47.27682" lon="6.05532">
        <ele>319.6</ele>
        <time>2021-09-05T09:34:42Z</time>
      </trkpt>
      <trkpt lat="47.27664" lon="6.0553">
        <ele>319.2</ele>
        <time>2021-09-05T09:34:46Z</time>
      </trkpt>
      <trkpt lat="47.27661" lon="6.05528">
        <ele>319.2</ele>
        <time>2021-09-05T09:34:47Z</time>
      </trkpt>
      <trkpt lat="47.27657" lon="6.05526">
        <ele>319</ele>
        <time>2021-09-05T09:34:48Z</time>
      </trkpt>
      <trkpt lat="47.27643" lon="6.05516">
        <ele>318.4</ele>
        <time>2021-09-05T09:34:52Z</time>
      </trkpt>
      <trkpt lat="47.27635" lon="6.05509">
        <ele>317.8</ele>
        <time>2021-09-05T09:34:55Z</time>
      </trkpt>
      <trkpt lat="47.27632" lon="6.05507">
        <ele>317.6</ele>
        <time>2021-09-05T09:34:56Z</time>
      </trkpt>
      <trkpt lat="47.27628" lon="6.055">
        <ele>317.2</ele>
        <time>2021-09-05T09:34:58Z</time>
      </trkpt>
      <trkpt lat="47.27627" lon="6.05497">
        <ele>317</ele>
        <time>2021-09-05T09:34:59Z</time>
      </trkpt>
      <trkpt lat="47.27626" lon="6.05494">
        <ele>316.8</ele>
        <time>2021-09-05T09:35:00Z</time>
      </trkpt>
      <trkpt lat="47.27625" lon="6.05493">
        <ele>316.6</ele>
        <time>2021-09-05T09:35:01Z</time>
      </trkpt>
      <trkpt lat="47.27624" lon="6.05492">
        <ele>316.6</ele>
        <time>2021-09-05T09:35:02Z</time>
      </trkpt>
      <trkpt lat="47.27623" lon="6.05493">
        <ele>316.6</ele>
        <time>2021-09-05T09:35:03Z</time>
      </trkpt>
      <trkpt lat="47.27621" lon="6.05494">
        <ele>316.6</ele>
        <time>2021-09-05T09:35:04Z</time>
      </trkpt>
      <trkpt lat="47.27619" lon="6.05496">
        <ele>316.4</ele>
        <time>2021-09-05T09:35:05Z</time>
      </trkpt>
      <trkpt lat="47.27617" lon="6.05498">
        <ele>316.4</ele>
        <time>2021-09-05T09:35:06Z</time>
      </trkpt>
      <trkpt lat="47.27613" lon="6.05503">
        <ele>316.2</ele>
        <time>2021-09-05T09:35:08Z</time>
      </trkpt>
      <trkpt lat="47.27613" lon="6.05506">
        <ele>316</ele>
        <time>2021-09-05T09:35:09Z</time>
      </trkpt>
      <trkpt lat="47.27614" lon="6.05513">
        <ele>315.8</ele>
        <time>2021-09-05T09:35:11Z</time>
      </trkpt>
      <trkpt lat="47.27617" lon="6.0553">
        <ele>315.6</ele>
        <time>2021-09-05T09:35:14Z</time>
      </trkpt>
      <trkpt lat="47.27618" lon="6.05541">
        <ele>315.6</ele>
        <time>2021-09-05T09:35:16Z</time>
      </trkpt>
      <trkpt lat="47.27618" lon="6.05547">
        <ele>315.6</ele>
        <time>2021-09-05T09:35:17Z</time>
      </trkpt>
      <trkpt lat="47.27618" lon="6.0555">
        <ele>315.6</ele>
        <time>2021-09-05T09:35:18Z</time>
      </trkpt>
      <trkpt lat="47.27615" lon="6.05555">
        <ele>315.6</ele>
        <time>2021-09-05T09:35:19Z</time>
      </trkpt>
      <trkpt lat="47.27615" lon="6.05555">
        <ele>315.6</ele>
        <time>2021-09-05T09:35:20Z</time>
      </trkpt>
      <trkpt lat="47.27614" lon="6.05557">
        <ele>315.6</ele>
        <time>2021-09-05T09:35:21Z</time>
      </trkpt>
      <trkpt lat="47.27612" lon="6.05561">
        <ele>315.6</ele>
        <time>2021-09-05T09:35:22Z</time>
      </trkpt>
      <trkpt lat="47.27602" lon="6.05569">
        <ele>315.6</ele>
        <time>2021-09-05T09:35:25Z</time>
      </trkpt>
      <trkpt lat="47.27599" lon="6.0557">
        <ele>315.6</ele>
        <time>2021-09-05T09:35:26Z</time>
      </trkpt>
      <trkpt lat="47.27597" lon="6.05571">
        <ele>315.6</ele>
        <time>2021-09-05T09:35:27Z</time>
      </trkpt>
      <trkpt lat="47.27593" lon="6.05571">
        <ele>315.6</ele>
        <time>2021-09-05T09:35:28Z</time>
      </trkpt>
      <trkpt lat="47.27574" lon="6.05571">
        <ele>316</ele>
        <time>2021-09-05T09:35:34Z</time>
      </trkpt>
      <trkpt lat="47.27571" lon="6.0557">
        <ele>316.2</ele>
        <time>2021-09-05T09:35:35Z</time>
      </trkpt>
      <trkpt lat="47.27568" lon="6.05569">
        <ele>316.4</ele>
        <time>2021-09-05T09:35:36Z</time>
      </trkpt>
      <trkpt lat="47.27566" lon="6.05568">
        <ele>316.4</ele>
        <time>2021-09-05T09:35:37Z</time>
      </trkpt>
      <trkpt lat="47.27564" lon="6.05567">
        <ele>316.6</ele>
        <time>2021-09-05T09:35:38Z</time>
      </trkpt>
      <trkpt lat="47.27561" lon="6.05566">
        <ele>316.6</ele>
        <time>2021-09-05T09:35:39Z</time>
      </trkpt>
      <trkpt lat="47.27559" lon="6.05564">
        <ele>317.2</ele>
        <time>2021-09-05T09:35:40Z</time>
      </trkpt>
      <trkpt lat="47.27558" lon="6.05563">
        <ele>317.6</ele>
        <time>2021-09-05T09:35:41Z</time>
      </trkpt>
      <trkpt lat="47.27543" lon="6.05555">
        <ele>318.2</ele>
        <time>2021-09-05T09:35:46Z</time>
      </trkpt>
      <trkpt lat="47.2754" lon="6.05554">
        <ele>318.4</ele>
        <time>2021-09-05T09:35:47Z</time>
      </trkpt>
      <trkpt lat="47.27531" lon="6.05548">
        <ele>319.2</ele>
        <time>2021-09-05T09:35:50Z</time>
      </trkpt>
      <trkpt lat="47.27529" lon="6.05547">
        <ele>319.4</ele>
        <time>2021-09-05T09:35:51Z</time>
      </trkpt>
      <trkpt lat="47.27528" lon="6.05546">
        <ele>319.6</ele>
        <time>2021-09-05T09:35:52Z</time>
      </trkpt>
      <trkpt lat="47.27525" lon="6.05543">
        <ele>319.6</ele>
        <time>2021-09-05T09:35:53Z</time>
      </trkpt>
      <trkpt lat="47.27521" lon="6.0554">
        <ele>319.8</ele>
        <time>2021-09-05T09:35:54Z</time>
      </trkpt>
      <trkpt lat="47.27517" lon="6.05538">
        <ele>319.8</ele>
        <time>2021-09-05T09:35:55Z</time>
      </trkpt>
      <trkpt lat="47.27513" lon="6.05536">
        <ele>320</ele>
        <time>2021-09-05T09:35:56Z</time>
      </trkpt>
      <trkpt lat="47.27509" lon="6.05535">
        <ele>320</ele>
        <time>2021-09-05T09:35:57Z</time>
      </trkpt>
      <trkpt lat="47.27506" lon="6.05535">
        <ele>320.2</ele>
        <time>2021-09-05T09:35:58Z</time>
      </trkpt>
      <trkpt lat="47.27502" lon="6.05533">
        <ele>320.4</ele>
        <time>2021-09-05T09:35:59Z</time>
      </trkpt>
      <trkpt lat="47.27498" lon="6.05529">
        <ele>320.4</ele>
        <time>2021-09-05T09:36:00Z</time>
      </trkpt>
      <trkpt lat="47.27494" lon="6.05526">
        <ele>320.6</ele>
        <time>2021-09-05T09:36:01Z</time>
      </trkpt>
      <trkpt lat="47.27491" lon="6.05526">
        <ele>320.8</ele>
        <time>2021-09-05T09:36:02Z</time>
      </trkpt>
      <trkpt lat="47.27488" lon="6.05526">
        <ele>321</ele>
        <time>2021-09-05T09:36:03Z</time>
      </trkpt>
      <trkpt lat="47.27485" lon="6.05525">
        <ele>321.4</ele>
        <time>2021-09-05T09:36:04Z</time>
      </trkpt>
      <trkpt lat="47.27484" lon="6.05524">
        <ele>321.6</ele>
        <time>2021-09-05T09:36:05Z</time>
      </trkpt>
      <trkpt lat="47.27482" lon="6.05525">
        <ele>321.8</ele>
        <time>2021-09-05T09:36:06Z</time>
      </trkpt>
      <trkpt lat="47.2748" lon="6.05525">
        <ele>322</ele>
        <time>2021-09-05T09:36:07Z</time>
      </trkpt>
      <trkpt lat="47.27478" lon="6.05523">
        <ele>322.4</ele>
        <time>2021-09-05T09:36:08Z</time>
      </trkpt>
      <trkpt lat="47.27475" lon="6.05521">
        <ele>322.4</ele>
        <time>2021-09-05T09:36:09Z</time>
      </trkpt>
      <trkpt lat="47.27473" lon="6.05519">
        <ele>322.6</ele>
        <time>2021-09-05T09:36:10Z</time>
      </trkpt>
      <trkpt lat="47.2747" lon="6.05517">
        <ele>322.6</ele>
        <time>2021-09-05T09:36:11Z</time>
      </trkpt>
      <trkpt lat="47.27469" lon="6.05515">
        <ele>322.8</ele>
        <time>2021-09-05T09:36:12Z</time>
      </trkpt>
      <trkpt lat="47.27467" lon="6.05514">
        <ele>323</ele>
        <time>2021-09-05T09:36:13Z</time>
      </trkpt>
      <trkpt lat="47.27465" lon="6.05512">
        <ele>323</ele>
        <time>2021-09-05T09:36:14Z</time>
      </trkpt>
      <trkpt lat="47.27462" lon="6.0551">
        <ele>323.2</ele>
        <time>2021-09-05T09:36:15Z</time>
      </trkpt>
      <trkpt lat="47.2746" lon="6.05509">
        <ele>323.2</ele>
        <time>2021-09-05T09:36:16Z</time>
      </trkpt>
      <trkpt lat="47.27457" lon="6.05507">
        <ele>323.4</ele>
        <time>2021-09-05T09:36:17Z</time>
      </trkpt>
      <trkpt lat="47.27455" lon="6.05505">
        <ele>323.4</ele>
        <time>2021-09-05T09:36:18Z</time>
      </trkpt>
      <trkpt lat="47.27452" lon="6.05503">
        <ele>323.6</ele>
        <time>2021-09-05T09:36:19Z</time>
      </trkpt>
      <trkpt lat="47.27449" lon="6.05501">
        <ele>323.6</ele>
        <time>2021-09-05T09:36:20Z</time>
      </trkpt>
      <trkpt lat="47.27447" lon="6.055">
        <ele>323.6</ele>
        <time>2021-09-05T09:36:21Z</time>
      </trkpt>
      <trkpt lat="47.27444" lon="6.05496">
        <ele>323.8</ele>
        <time>2021-09-05T09:36:22Z</time>
      </trkpt>
      <trkpt lat="47.27442" lon="6.05494">
        <ele>323.8</ele>
        <time>2021-09-05T09:36:23Z</time>
      </trkpt>
      <trkpt lat="47.27439" lon="6.05491">
        <ele>323.8</ele>
        <time>2021-09-05T09:36:24Z</time>
      </trkpt>
      <trkpt lat="47.27436" lon="6.0549">
        <ele>324</ele>
        <time>2021-09-05T09:36:25Z</time>
      </trkpt>
      <trkpt lat="47.27433" lon="6.05489">
        <ele>324</ele>
        <time>2021-09-05T09:36:26Z</time>
      </trkpt>
      <trkpt lat="47.2743" lon="6.05487">
        <ele>324</ele>
        <time>2021-09-05T09:36:27Z</time>
      </trkpt>
      <trkpt lat="47.27426" lon="6.05485">
        <ele>324</ele>
        <time>2021-09-05T09:36:28Z</time>
      </trkpt>
      <trkpt lat="47.27423" lon="6.05483">
        <ele>324</ele>
        <time>2021-09-05T09:36:29Z</time>
      </trkpt>
      <trkpt lat="47.27418" lon="6.0548">
        <ele>324</ele>
        <time>2021-09-05T09:36:30Z</time>
      </trkpt>
      <trkpt lat="47.27415" lon="6.05478">
        <ele>324</ele>
        <time>2021-09-05T09:36:31Z</time>
      </trkpt>
      <trkpt lat="47.2741" lon="6.05474">
        <ele>324</ele>
        <time>2021-09-05T09:36:32Z</time>
      </trkpt>
      <trkpt lat="47.27407" lon="6.05472">
        <ele>324.2</ele>
        <time>2021-09-05T09:36:33Z</time>
      </trkpt>
      <trkpt lat="47.27404" lon="6.05469">
        <ele>324.2</ele>
        <time>2021-09-05T09:36:34Z</time>
      </trkpt>
      <trkpt lat="47.27388" lon="6.05449">
        <ele>324.4</ele>
        <time>2021-09-05T09:36:39Z</time>
      </trkpt>
      <trkpt lat="47.27385" lon="6.05444">
        <ele>324.6</ele>
        <time>2021-09-05T09:36:40Z</time>
      </trkpt>
      <trkpt lat="47.2738" lon="6.05439">
        <ele>324.6</ele>
        <time>2021-09-05T09:36:42Z</time>
      </trkpt>
      <trkpt lat="47.27377" lon="6.05436">
        <ele>324.8</ele>
        <time>2021-09-05T09:36:43Z</time>
      </trkpt>
      <trkpt lat="47.27374" lon="6.05432">
        <ele>324.8</ele>
        <time>2021-09-05T09:36:44Z</time>
      </trkpt>
      <trkpt lat="47.27371" lon="6.05428">
        <ele>325</ele>
        <time>2021-09-05T09:36:45Z</time>
      </trkpt>
      <trkpt lat="47.27369" lon="6.05425">
        <ele>325</ele>
        <time>2021-09-05T09:36:46Z</time>
      </trkpt>
      <trkpt lat="47.27367" lon="6.05421">
        <ele>325.2</ele>
        <time>2021-09-05T09:36:47Z</time>
      </trkpt>
      <trkpt lat="47.27365" lon="6.05419">
        <ele>325.2</ele>
        <time>2021-09-05T09:36:48Z</time>
      </trkpt>
      <trkpt lat="47.27362" lon="6.05416">
        <ele>325.4</ele>
        <time>2021-09-05T09:36:49Z</time>
      </trkpt>
      <trkpt lat="47.27359" lon="6.05413">
        <ele>325.6</ele>
        <time>2021-09-05T09:36:50Z</time>
      </trkpt>
      <trkpt lat="47.27347" lon="6.05401">
        <ele>326</ele>
        <time>2021-09-05T09:36:55Z</time>
      </trkpt>
      <trkpt lat="47.27343" lon="6.05397">
        <ele>326.4</ele>
        <time>2021-09-05T09:36:57Z</time>
      </trkpt>
      <trkpt lat="47.27338" lon="6.05393">
        <ele>326.4</ele>
        <time>2021-09-05T09:36:58Z</time>
      </trkpt>
      <trkpt lat="47.27338" lon="6.05393">
        <ele>326.8</ele>
        <time>2021-09-05T09:36:59Z</time>
      </trkpt>
      <trkpt lat="47.2733" lon="6.05385">
        <ele>327.2</ele>
        <time>2021-09-05T09:37:01Z</time>
      </trkpt>
      <trkpt lat="47.27325" lon="6.05379">
        <ele>327.6</ele>
        <time>2021-09-05T09:37:03Z</time>
      </trkpt>
      <trkpt lat="47.27322" lon="6.05377">
        <ele>327.8</ele>
        <time>2021-09-05T09:37:04Z</time>
      </trkpt>
      <trkpt lat="47.2732" lon="6.05374">
        <ele>327.8</ele>
        <time>2021-09-05T09:37:05Z</time>
      </trkpt>
      <trkpt lat="47.27319" lon="6.05372">
        <ele>327.8</ele>
        <time>2021-09-05T09:37:06Z</time>
      </trkpt>
      <trkpt lat="47.27316" lon="6.0537">
        <ele>327.8</ele>
        <time>2021-09-05T09:37:07Z</time>
      </trkpt>
      <trkpt lat="47.27316" lon="6.0537">
        <ele>327.8</ele>
        <time>2021-09-05T09:37:08Z</time>
      </trkpt>
      <trkpt lat="47.27314" lon="6.05368">
        <ele>328</ele>
        <time>2021-09-05T09:37:09Z</time>
      </trkpt>
      <trkpt lat="47.27311" lon="6.05365">
        <ele>328</ele>
        <time>2021-09-05T09:37:10Z</time>
      </trkpt>
      <trkpt lat="47.27306" lon="6.05361">
        <ele>328</ele>
        <time>2021-09-05T09:37:11Z</time>
      </trkpt>
      <trkpt lat="47.27304" lon="6.05359">
        <ele>328</ele>
        <time>2021-09-05T09:37:12Z</time>
      </trkpt>
      <trkpt lat="47.27301" lon="6.05357">
        <ele>328</ele>
        <time>2021-09-05T09:37:13Z</time>
      </trkpt>
      <trkpt lat="47.27301" lon="6.05357">
        <ele>328</ele>
        <time>2021-09-05T09:37:14Z</time>
      </trkpt>
      <trkpt lat="47.27299" lon="6.05353">
        <ele>328.2</ele>
        <time>2021-09-05T09:37:15Z</time>
      </trkpt>
      <trkpt lat="47.27296" lon="6.05348">
        <ele>328.2</ele>
        <time>2021-09-05T09:37:16Z</time>
      </trkpt>
      <trkpt lat="47.27289" lon="6.05339">
        <ele>328.2</ele>
        <time>2021-09-05T09:37:17Z</time>
      </trkpt>
      <trkpt lat="47.27286" lon="6.05335">
        <ele>328.4</ele>
        <time>2021-09-05T09:37:18Z</time>
      </trkpt>
      <trkpt lat="47.27284" lon="6.05332">
        <ele>328.4</ele>
        <time>2021-09-05T09:37:19Z</time>
      </trkpt>
      <trkpt lat="47.2728" lon="6.05325">
        <ele>328.4</ele>
        <time>2021-09-05T09:37:21Z</time>
      </trkpt>
      <trkpt lat="47.27277" lon="6.05322">
        <ele>328.4</ele>
        <time>2021-09-05T09:37:22Z</time>
      </trkpt>
      <trkpt lat="47.27271" lon="6.05315">
        <ele>328.6</ele>
        <time>2021-09-05T09:37:24Z</time>
      </trkpt>
      <trkpt lat="47.27269" lon="6.05312">
        <ele>328.6</ele>
        <time>2021-09-05T09:37:25Z</time>
      </trkpt>
      <trkpt lat="47.27266" lon="6.0531">
        <ele>328.6</ele>
        <time>2021-09-05T09:37:26Z</time>
      </trkpt>
      <trkpt lat="47.27263" lon="6.05308">
        <ele>328.6</ele>
        <time>2021-09-05T09:37:27Z</time>
      </trkpt>
      <trkpt lat="47.27258" lon="6.05301">
        <ele>328.2</ele>
        <time>2021-09-05T09:37:30Z</time>
      </trkpt>
      <trkpt lat="47.27258" lon="6.05301">
        <ele>328.2</ele>
        <time>2021-09-05T09:37:31Z</time>
      </trkpt>
      <trkpt lat="47.27255" lon="6.05299">
        <ele>328</ele>
        <time>2021-09-05T09:37:32Z</time>
      </trkpt>
      <trkpt lat="47.27247" lon="6.05292">
        <ele>328</ele>
        <time>2021-09-05T09:37:33Z</time>
      </trkpt>
      <trkpt lat="47.27244" lon="6.05291">
        <ele>328</ele>
        <time>2021-09-05T09:37:34Z</time>
      </trkpt>
      <trkpt lat="47.27242" lon="6.0529">
        <ele>328</ele>
        <time>2021-09-05T09:37:35Z</time>
      </trkpt>
      <trkpt lat="47.27238" lon="6.05289">
        <ele>328</ele>
        <time>2021-09-05T09:37:36Z</time>
      </trkpt>
      <trkpt lat="47.27226" lon="6.05282">
        <ele>328</ele>
        <time>2021-09-05T09:37:40Z</time>
      </trkpt>
      <trkpt lat="47.27222" lon="6.0528">
        <ele>328</ele>
        <time>2021-09-05T09:37:41Z</time>
      </trkpt>
      <trkpt lat="47.272" lon="6.05274">
        <ele>327.6</ele>
        <time>2021-09-05T09:37:46Z</time>
      </trkpt>
      <trkpt lat="47.27193" lon="6.05272">
        <ele>327.2</ele>
        <time>2021-09-05T09:37:48Z</time>
      </trkpt>
      <trkpt lat="47.2719" lon="6.05272">
        <ele>327.2</ele>
        <time>2021-09-05T09:37:49Z</time>
      </trkpt>
      <trkpt lat="47.27176" lon="6.05269">
        <ele>326.8</ele>
        <time>2021-09-05T09:37:53Z</time>
      </trkpt>
      <trkpt lat="47.27172" lon="6.05269">
        <ele>326.6</ele>
        <time>2021-09-05T09:37:54Z</time>
      </trkpt>
      <trkpt lat="47.27169" lon="6.0527">
        <ele>326.6</ele>
        <time>2021-09-05T09:37:55Z</time>
      </trkpt>
      <trkpt lat="47.27165" lon="6.05271">
        <ele>326.6</ele>
        <time>2021-09-05T09:37:56Z</time>
      </trkpt>
      <trkpt lat="47.27161" lon="6.05271">
        <ele>326.6</ele>
        <time>2021-09-05T09:37:57Z</time>
      </trkpt>
      <trkpt lat="47.27158" lon="6.05272">
        <ele>326.4</ele>
        <time>2021-09-05T09:37:58Z</time>
      </trkpt>
      <trkpt lat="47.27154" lon="6.05274">
        <ele>326.4</ele>
        <time>2021-09-05T09:37:59Z</time>
      </trkpt>
      <trkpt lat="47.27147" lon="6.05278">
        <ele>326.2</ele>
        <time>2021-09-05T09:38:01Z</time>
      </trkpt>
      <trkpt lat="47.27136" lon="6.05284">
        <ele>326</ele>
        <time>2021-09-05T09:38:04Z</time>
      </trkpt>
      <trkpt lat="47.2713" lon="6.05286">
        <ele>326</ele>
        <time>2021-09-05T09:38:06Z</time>
      </trkpt>
      <trkpt lat="47.27128" lon="6.05288">
        <ele>325.8</ele>
        <time>2021-09-05T09:38:07Z</time>
      </trkpt>
      <trkpt lat="47.27125" lon="6.0529">
        <ele>325.8</ele>
        <time>2021-09-05T09:38:08Z</time>
      </trkpt>
      <trkpt lat="47.27121" lon="6.05292">
        <ele>325.8</ele>
        <time>2021-09-05T09:38:09Z</time>
      </trkpt>
      <trkpt lat="47.27118" lon="6.05292">
        <ele>325.6</ele>
        <time>2021-09-05T09:38:10Z</time>
      </trkpt>
      <trkpt lat="47.27113" lon="6.05291">
        <ele>325.6</ele>
        <time>2021-09-05T09:38:11Z</time>
      </trkpt>
      <trkpt lat="47.27109" lon="6.05289">
        <ele>325.6</ele>
        <time>2021-09-05T09:38:12Z</time>
      </trkpt>
      <trkpt lat="47.27106" lon="6.05285">
        <ele>325.6</ele>
        <time>2021-09-05T09:38:13Z</time>
      </trkpt>
      <trkpt lat="47.27102" lon="6.05281">
        <ele>325.6</ele>
        <time>2021-09-05T09:38:14Z</time>
      </trkpt>
      <trkpt lat="47.27099" lon="6.05277">
        <ele>325.6</ele>
        <time>2021-09-05T09:38:15Z</time>
      </trkpt>
      <trkpt lat="47.27096" lon="6.05274">
        <ele>325.6</ele>
        <time>2021-09-05T09:38:16Z</time>
      </trkpt>
      <trkpt lat="47.27072" lon="6.05247">
        <ele>325.8</ele>
        <time>2021-09-05T09:38:25Z</time>
      </trkpt>
      <trkpt lat="47.2707" lon="6.05245">
        <ele>325.8</ele>
        <time>2021-09-05T09:38:26Z</time>
      </trkpt>
      <trkpt lat="47.27067" lon="6.05242">
        <ele>326</ele>
        <time>2021-09-05T09:38:27Z</time>
      </trkpt>
      <trkpt lat="47.27065" lon="6.05238">
        <ele>326.2</ele>
        <time>2021-09-05T09:38:28Z</time>
      </trkpt>
      <trkpt lat="47.27061" lon="6.05235">
        <ele>326.6</ele>
        <time>2021-09-05T09:38:29Z</time>
      </trkpt>
      <trkpt lat="47.27056" lon="6.05228">
        <ele>326.8</ele>
        <time>2021-09-05T09:38:31Z</time>
      </trkpt>
      <trkpt lat="47.27038" lon="6.05206">
        <ele>327.2</ele>
        <time>2021-09-05T09:38:37Z</time>
      </trkpt>
      <trkpt lat="47.27012" lon="6.05174">
        <ele>327.8</ele>
        <time>2021-09-05T09:38:46Z</time>
      </trkpt>
      <trkpt lat="47.27009" lon="6.0517">
        <ele>327.8</ele>
        <time>2021-09-05T09:38:47Z</time>
      </trkpt>
      <trkpt lat="47.26981" lon="6.05127">
        <ele>328.4</ele>
        <time>2021-09-05T09:38:57Z</time>
      </trkpt>
      <trkpt lat="47.26979" lon="6.05123">
        <ele>328.4</ele>
        <time>2021-09-05T09:38:58Z</time>
      </trkpt>
      <trkpt lat="47.2696" lon="6.05087">
        <ele>328.4</ele>
        <time>2021-09-05T09:39:05Z</time>
      </trkpt>
      <trkpt lat="47.26945" lon="6.0505">
        <ele>328.6</ele>
        <time>2021-09-05T09:39:12Z</time>
      </trkpt>
      <trkpt lat="47.2694" lon="6.0504">
        <ele>328.8</ele>
        <time>2021-09-05T09:39:14Z</time>
      </trkpt>
      <trkpt lat="47.26938" lon="6.05035">
        <ele>328.8</ele>
        <time>2021-09-05T09:39:15Z</time>
      </trkpt>
      <trkpt lat="47.26935" lon="6.0503">
        <ele>329</ele>
        <time>2021-09-05T09:39:16Z</time>
      </trkpt>
      <trkpt lat="47.26932" lon="6.05026">
        <ele>329.2</ele>
        <time>2021-09-05T09:39:17Z</time>
      </trkpt>
      <trkpt lat="47.26921" lon="6.05011">
        <ele>329.6</ele>
        <time>2021-09-05T09:39:21Z</time>
      </trkpt>
      <trkpt lat="47.26916" lon="6.05006">
        <ele>329.8</ele>
        <time>2021-09-05T09:39:23Z</time>
      </trkpt>
      <trkpt lat="47.26913" lon="6.05002">
        <ele>330</ele>
        <time>2021-09-05T09:39:24Z</time>
      </trkpt>
      <trkpt lat="47.26911" lon="6.05">
        <ele>330</ele>
        <time>2021-09-05T09:39:25Z</time>
      </trkpt>
      <trkpt lat="47.26908" lon="6.04998">
        <ele>330.2</ele>
        <time>2021-09-05T09:39:26Z</time>
      </trkpt>
      <trkpt lat="47.26903" lon="6.04993">
        <ele>330.2</ele>
        <time>2021-09-05T09:39:28Z</time>
      </trkpt>
      <trkpt lat="47.26901" lon="6.04992">
        <ele>330.4</ele>
        <time>2021-09-05T09:39:29Z</time>
      </trkpt>
      <trkpt lat="47.26898" lon="6.04989">
        <ele>330.4</ele>
        <time>2021-09-05T09:39:30Z</time>
      </trkpt>
      <trkpt lat="47.26894" lon="6.04986">
        <ele>330.4</ele>
        <time>2021-09-05T09:39:31Z</time>
      </trkpt>
      <trkpt lat="47.26887" lon="6.04983">
        <ele>330.2</ele>
        <time>2021-09-05T09:39:33Z</time>
      </trkpt>
      <trkpt lat="47.26882" lon="6.04981">
        <ele>330.2</ele>
        <time>2021-09-05T09:39:34Z</time>
      </trkpt>
      <trkpt lat="47.26865" lon="6.04976">
        <ele>330.2</ele>
        <time>2021-09-05T09:39:38Z</time>
      </trkpt>
      <trkpt lat="47.26853" lon="6.04974">
        <ele>330</ele>
        <time>2021-09-05T09:39:41Z</time>
      </trkpt>
      <trkpt lat="47.26849" lon="6.04973">
        <ele>330</ele>
        <time>2021-09-05T09:39:42Z</time>
      </trkpt>
      <trkpt lat="47.2681" lon="6.04963">
        <ele>330</ele>
        <time>2021-09-05T09:39:51Z</time>
      </trkpt>
      <trkpt lat="47.26802" lon="6.04961">
        <ele>330.2</ele>
        <time>2021-09-05T09:39:53Z</time>
      </trkpt>
      <trkpt lat="47.26785" lon="6.04957">
        <ele>330.2</ele>
        <time>2021-09-05T09:39:57Z</time>
      </trkpt>
      <trkpt lat="47.26781" lon="6.04956">
        <ele>330.2</ele>
        <time>2021-09-05T09:39:58Z</time>
      </trkpt>
      <trkpt lat="47.26776" lon="6.04955">
        <ele>330.4</ele>
        <time>2021-09-05T09:39:59Z</time>
      </trkpt>
      <trkpt lat="47.26773" lon="6.04954">
        <ele>330.4</ele>
        <time>2021-09-05T09:40:00Z</time>
      </trkpt>
      <trkpt lat="47.26768" lon="6.04952">
        <ele>330.2</ele>
        <time>2021-09-05T09:40:01Z</time>
      </trkpt>
      <trkpt lat="47.26764" lon="6.0495">
        <ele>330.2</ele>
        <time>2021-09-05T09:40:02Z</time>
      </trkpt>
      <trkpt lat="47.26757" lon="6.04946">
        <ele>330.2</ele>
        <time>2021-09-05T09:40:04Z</time>
      </trkpt>
      <trkpt lat="47.26754" lon="6.04944">
        <ele>330</ele>
        <time>2021-09-05T09:40:05Z</time>
      </trkpt>
      <trkpt lat="47.26754" lon="6.04944">
        <ele>330</ele>
        <time>2021-09-05T09:40:06Z</time>
      </trkpt>
      <trkpt lat="47.26751" lon="6.04943">
        <ele>330</ele>
        <time>2021-09-05T09:40:07Z</time>
      </trkpt>
      <trkpt lat="47.2675" lon="6.04942">
        <ele>330</ele>
        <time>2021-09-05T09:40:08Z</time>
      </trkpt>
      <trkpt lat="47.26749" lon="6.04942">
        <ele>330</ele>
        <time>2021-09-05T09:40:09Z</time>
      </trkpt>
      <trkpt lat="47.26746" lon="6.04943">
        <ele>330</ele>
        <time>2021-09-05T09:40:10Z</time>
      </trkpt>
      <trkpt lat="47.26744" lon="6.04945">
        <ele>329.8</ele>
        <time>2021-09-05T09:40:11Z</time>
      </trkpt>
      <trkpt lat="47.26741" lon="6.04948">
        <ele>329.8</ele>
        <time>2021-09-05T09:40:12Z</time>
      </trkpt>
      <trkpt lat="47.26738" lon="6.04952">
        <ele>329.8</ele>
        <time>2021-09-05T09:40:13Z</time>
      </trkpt>
      <trkpt lat="47.26735" lon="6.04957">
        <ele>329.8</ele>
        <time>2021-09-05T09:40:14Z</time>
      </trkpt>
      <trkpt lat="47.26732" lon="6.04961">
        <ele>329.8</ele>
        <time>2021-09-05T09:40:15Z</time>
      </trkpt>
      <trkpt lat="47.26728" lon="6.04968">
        <ele>329.6</ele>
        <time>2021-09-05T09:40:16Z</time>
      </trkpt>
      <trkpt lat="47.26716" lon="6.04985">
        <ele>329.4</ele>
        <time>2021-09-05T09:40:19Z</time>
      </trkpt>
      <trkpt lat="47.26711" lon="6.04989">
        <ele>329.2</ele>
        <time>2021-09-05T09:40:20Z</time>
      </trkpt>
      <trkpt lat="47.26706" lon="6.0499">
        <ele>328.8</ele>
        <time>2021-09-05T09:40:21Z</time>
      </trkpt>
      <trkpt lat="47.26698" lon="6.04992">
        <ele>328.6</ele>
        <time>2021-09-05T09:40:22Z</time>
      </trkpt>
      <trkpt lat="47.26691" lon="6.04993">
        <ele>328.4</ele>
        <time>2021-09-05T09:40:23Z</time>
      </trkpt>
      <trkpt lat="47.26685" lon="6.04993">
        <ele>328</ele>
        <time>2021-09-05T09:40:24Z</time>
      </trkpt>
      <trkpt lat="47.26679" lon="6.04992">
        <ele>327.8</ele>
        <time>2021-09-05T09:40:25Z</time>
      </trkpt>
      <trkpt lat="47.26671" lon="6.0499">
        <ele>327.2</ele>
        <time>2021-09-05T09:40:27Z</time>
      </trkpt>
      <trkpt lat="47.26658" lon="6.04989">
        <ele>326.8</ele>
        <time>2021-09-05T09:40:28Z</time>
      </trkpt>
      <trkpt lat="47.26648" lon="6.0499">
        <ele>326</ele>
        <time>2021-09-05T09:40:30Z</time>
      </trkpt>
      <trkpt lat="47.26646" lon="6.04991">
        <ele>325.6</ele>
        <time>2021-09-05T09:40:31Z</time>
      </trkpt>
      <trkpt lat="47.26643" lon="6.04992">
        <ele>325.6</ele>
        <time>2021-09-05T09:40:32Z</time>
      </trkpt>
      <trkpt lat="47.2664" lon="6.04993">
        <ele>325.4</ele>
        <time>2021-09-05T09:40:33Z</time>
      </trkpt>
      <trkpt lat="47.26637" lon="6.04995">
        <ele>325.2</ele>
        <time>2021-09-05T09:40:34Z</time>
      </trkpt>
      <trkpt lat="47.26619" lon="6.0501">
        <ele>324.8</ele>
        <time>2021-09-05T09:40:38Z</time>
      </trkpt>
      <trkpt lat="47.26608" lon="6.05017">
        <ele>324.6</ele>
        <time>2021-09-05T09:40:40Z</time>
      </trkpt>
      <trkpt lat="47.26587" lon="6.05032">
        <ele>323.6</ele>
        <time>2021-09-05T09:40:43Z</time>
      </trkpt>
      <trkpt lat="47.2658" lon="6.05036">
        <ele>323.2</ele>
        <time>2021-09-05T09:40:44Z</time>
      </trkpt>
      <trkpt lat="47.26567" lon="6.05045">
        <ele>322</ele>
        <time>2021-09-05T09:40:46Z</time>
      </trkpt>
      <trkpt lat="47.26561" lon="6.05049">
        <ele>321.4</ele>
        <time>2021-09-05T09:40:47Z</time>
      </trkpt>
      <trkpt lat="47.26555" lon="6.05053">
        <ele>321.2</ele>
        <time>2021-09-05T09:40:48Z</time>
      </trkpt>
      <trkpt lat="47.26549" lon="6.05057">
        <ele>320.8</ele>
        <time>2021-09-05T09:40:49Z</time>
      </trkpt>
      <trkpt lat="47.26544" lon="6.0506">
        <ele>320.8</ele>
        <time>2021-09-05T09:40:50Z</time>
      </trkpt>
      <trkpt lat="47.2654" lon="6.05062">
        <ele>320.6</ele>
        <time>2021-09-05T09:40:51Z</time>
      </trkpt>
      <trkpt lat="47.26534" lon="6.05066">
        <ele>320.6</ele>
        <time>2021-09-05T09:40:52Z</time>
      </trkpt>
      <trkpt lat="47.2653" lon="6.05069">
        <ele>320.6</ele>
        <time>2021-09-05T09:40:53Z</time>
      </trkpt>
      <trkpt lat="47.26526" lon="6.05071">
        <ele>320.6</ele>
        <time>2021-09-05T09:40:54Z</time>
      </trkpt>
      <trkpt lat="47.26522" lon="6.05074">
        <ele>320.6</ele>
        <time>2021-09-05T09:40:55Z</time>
      </trkpt>
      <trkpt lat="47.26519" lon="6.05076">
        <ele>320.6</ele>
        <time>2021-09-05T09:40:56Z</time>
      </trkpt>
      <trkpt lat="47.26516" lon="6.05079">
        <ele>320.6</ele>
        <time>2021-09-05T09:40:57Z</time>
      </trkpt>
      <trkpt lat="47.26512" lon="6.05082">
        <ele>320.6</ele>
        <time>2021-09-05T09:40:58Z</time>
      </trkpt>
      <trkpt lat="47.26508" lon="6.05085">
        <ele>320.6</ele>
        <time>2021-09-05T09:40:59Z</time>
      </trkpt>
      <trkpt lat="47.26497" lon="6.05093">
        <ele>320.8</ele>
        <time>2021-09-05T09:41:02Z</time>
      </trkpt>
      <trkpt lat="47.26489" lon="6.05099">
        <ele>320.8</ele>
        <time>2021-09-05T09:41:04Z</time>
      </trkpt>
      <trkpt lat="47.26483" lon="6.05104">
        <ele>320.8</ele>
        <time>2021-09-05T09:41:06Z</time>
      </trkpt>
      <trkpt lat="47.2648" lon="6.05106">
        <ele>320.8</ele>
        <time>2021-09-05T09:41:07Z</time>
      </trkpt>
      <trkpt lat="47.26478" lon="6.05107">
        <ele>320.8</ele>
        <time>2021-09-05T09:41:08Z</time>
      </trkpt>
      <trkpt lat="47.26475" lon="6.05107">
        <ele>321</ele>
        <time>2021-09-05T09:41:09Z</time>
      </trkpt>
      <trkpt lat="47.26473" lon="6.05107">
        <ele>321</ele>
        <time>2021-09-05T09:41:10Z</time>
      </trkpt>
      <trkpt lat="47.26471" lon="6.05106">
        <ele>321</ele>
        <time>2021-09-05T09:41:11Z</time>
      </trkpt>
      <trkpt lat="47.26469" lon="6.05105">
        <ele>321.2</ele>
        <time>2021-09-05T09:41:12Z</time>
      </trkpt>
      <trkpt lat="47.26466" lon="6.05105">
        <ele>321.2</ele>
        <time>2021-09-05T09:41:13Z</time>
      </trkpt>
      <trkpt lat="47.26443" lon="6.05103">
        <ele>321.4</ele>
        <time>2021-09-05T09:41:20Z</time>
      </trkpt>
      <trkpt lat="47.26434" lon="6.05103">
        <ele>321.4</ele>
        <time>2021-09-05T09:41:22Z</time>
      </trkpt>
      <trkpt lat="47.26417" lon="6.05102">
        <ele>320.6</ele>
        <time>2021-09-05T09:41:26Z</time>
      </trkpt>
      <trkpt lat="47.26413" lon="6.05102">
        <ele>320.6</ele>
        <time>2021-09-05T09:41:27Z</time>
      </trkpt>
      <trkpt lat="47.26401" lon="6.05104">
        <ele>320</ele>
        <time>2021-09-05T09:41:30Z</time>
      </trkpt>
      <trkpt lat="47.26395" lon="6.05109">
        <ele>319.6</ele>
        <time>2021-09-05T09:41:32Z</time>
      </trkpt>
      <trkpt lat="47.26393" lon="6.05111">
        <ele>319.4</ele>
        <time>2021-09-05T09:41:33Z</time>
      </trkpt>
      <trkpt lat="47.26391" lon="6.05113">
        <ele>319</ele>
        <time>2021-09-05T09:41:34Z</time>
      </trkpt>
      <trkpt lat="47.26388" lon="6.05116">
        <ele>318.6</ele>
        <time>2021-09-05T09:41:35Z</time>
      </trkpt>
      <trkpt lat="47.26385" lon="6.0512">
        <ele>318</ele>
        <time>2021-09-05T09:41:36Z</time>
      </trkpt>
      <trkpt lat="47.26378" lon="6.05129">
        <ele>317.2</ele>
        <time>2021-09-05T09:41:38Z</time>
      </trkpt>
      <trkpt lat="47.26375" lon="6.05132">
        <ele>316.6</ele>
        <time>2021-09-05T09:41:40Z</time>
      </trkpt>
      <trkpt lat="47.2637" lon="6.05138">
        <ele>316.4</ele>
        <time>2021-09-05T09:41:41Z</time>
      </trkpt>
      <trkpt lat="47.26367" lon="6.05141">
        <ele>315.6</ele>
        <time>2021-09-05T09:41:42Z</time>
      </trkpt>
      <trkpt lat="47.26361" lon="6.0515">
        <ele>314.6</ele>
        <time>2021-09-05T09:41:44Z</time>
      </trkpt>
      <trkpt lat="47.26358" lon="6.05154">
        <ele>314</ele>
        <time>2021-09-05T09:41:45Z</time>
      </trkpt>
      <trkpt lat="47.26349" lon="6.05164">
        <ele>312.6</ele>
        <time>2021-09-05T09:41:48Z</time>
      </trkpt>
      <trkpt lat="47.26347" lon="6.05166">
        <ele>312.2</ele>
        <time>2021-09-05T09:41:49Z</time>
      </trkpt>
      <trkpt lat="47.26345" lon="6.05168">
        <ele>311.2</ele>
        <time>2021-09-05T09:41:50Z</time>
      </trkpt>
      <trkpt lat="47.26342" lon="6.0517">
        <ele>310.8</ele>
        <time>2021-09-05T09:41:51Z</time>
      </trkpt>
      <trkpt lat="47.26341" lon="6.05171">
        <ele>310</ele>
        <time>2021-09-05T09:41:52Z</time>
      </trkpt>
      <trkpt lat="47.26341" lon="6.05171">
        <ele>309.6</ele>
        <time>2021-09-05T09:41:53Z</time>
      </trkpt>
      <trkpt lat="47.26341" lon="6.05171">
        <ele>308.8</ele>
        <time>2021-09-05T09:41:54Z</time>
      </trkpt>
      <trkpt lat="47.26341" lon="6.05171">
        <ele>308.6</ele>
        <time>2021-09-05T09:41:55Z</time>
      </trkpt>
      <trkpt lat="47.26341" lon="6.05171">
        <ele>307.8</ele>
        <time>2021-09-05T09:41:57Z</time>
      </trkpt>
      <trkpt lat="47.2634" lon="6.05172">
        <ele>307</ele>
        <time>2021-09-05T09:42:13Z</time>
      </trkpt>
      <trkpt lat="47.26326" lon="6.05185">
        <ele>306.8</ele>
        <time>2021-09-05T09:42:19Z</time>
      </trkpt>
      <trkpt lat="47.26323" lon="6.05189">
        <ele>306.6</ele>
        <time>2021-09-05T09:42:20Z</time>
      </trkpt>
      <trkpt lat="47.26312" lon="6.05198">
        <ele>306.4</ele>
        <time>2021-09-05T09:42:23Z</time>
      </trkpt>
      <trkpt lat="47.2631" lon="6.052">
        <ele>306.4</ele>
        <time>2021-09-05T09:42:24Z</time>
      </trkpt>
      <trkpt lat="47.26308" lon="6.05203">
        <ele>306.2</ele>
        <time>2021-09-05T09:42:25Z</time>
      </trkpt>
      <trkpt lat="47.26307" lon="6.05206">
        <ele>306</ele>
        <time>2021-09-05T09:42:26Z</time>
      </trkpt>
      <trkpt lat="47.26305" lon="6.05207">
        <ele>306</ele>
        <time>2021-09-05T09:42:27Z</time>
      </trkpt>
      <trkpt lat="47.26303" lon="6.05208">
        <ele>306</ele>
        <time>2021-09-05T09:42:28Z</time>
      </trkpt>
      <trkpt lat="47.263" lon="6.05208">
        <ele>305.8</ele>
        <time>2021-09-05T09:42:29Z</time>
      </trkpt>
      <trkpt lat="47.26297" lon="6.05208">
        <ele>305.8</ele>
        <time>2021-09-05T09:42:30Z</time>
      </trkpt>
      <trkpt lat="47.2629" lon="6.05205">
        <ele>305.6</ele>
        <time>2021-09-05T09:42:33Z</time>
      </trkpt>
      <trkpt lat="47.26288" lon="6.05204">
        <ele>305.6</ele>
        <time>2021-09-05T09:42:34Z</time>
      </trkpt>
      <trkpt lat="47.26285" lon="6.05203">
        <ele>305.6</ele>
        <time>2021-09-05T09:42:35Z</time>
      </trkpt>
      <trkpt lat="47.26282" lon="6.05201">
        <ele>305.8</ele>
        <time>2021-09-05T09:42:36Z</time>
      </trkpt>
      <trkpt lat="47.2628" lon="6.05199">
        <ele>306</ele>
        <time>2021-09-05T09:42:37Z</time>
      </trkpt>
      <trkpt lat="47.26278" lon="6.05197">
        <ele>305.8</ele>
        <time>2021-09-05T09:42:38Z</time>
      </trkpt>
      <trkpt lat="47.26276" lon="6.05193">
        <ele>306.2</ele>
        <time>2021-09-05T09:42:39Z</time>
      </trkpt>
      <trkpt lat="47.26275" lon="6.05189">
        <ele>306</ele>
        <time>2021-09-05T09:42:40Z</time>
      </trkpt>
      <trkpt lat="47.26273" lon="6.05185">
        <ele>306.2</ele>
        <time>2021-09-05T09:42:41Z</time>
      </trkpt>
      <trkpt lat="47.26272" lon="6.05181">
        <ele>306.2</ele>
        <time>2021-09-05T09:42:42Z</time>
      </trkpt>
      <trkpt lat="47.2627" lon="6.05177">
        <ele>306.2</ele>
        <time>2021-09-05T09:42:43Z</time>
      </trkpt>
      <trkpt lat="47.26263" lon="6.05162">
        <ele>307</ele>
        <time>2021-09-05T09:42:47Z</time>
      </trkpt>
      <trkpt lat="47.26258" lon="6.05158">
        <ele>307</ele>
        <time>2021-09-05T09:42:49Z</time>
      </trkpt>
      <trkpt lat="47.26255" lon="6.05157">
        <ele>307.2</ele>
        <time>2021-09-05T09:42:50Z</time>
      </trkpt>
      <trkpt lat="47.26252" lon="6.05158">
        <ele>307</ele>
        <time>2021-09-05T09:42:51Z</time>
      </trkpt>
      <trkpt lat="47.2625" lon="6.0516">
        <ele>307.2</ele>
        <time>2021-09-05T09:42:52Z</time>
      </trkpt>
      <trkpt lat="47.26249" lon="6.05164">
        <ele>307.2</ele>
        <time>2021-09-05T09:42:53Z</time>
      </trkpt>
      <trkpt lat="47.26245" lon="6.05182">
        <ele>307.6</ele>
        <time>2021-09-05T09:42:58Z</time>
      </trkpt>
      <trkpt lat="47.2624" lon="6.05189">
        <ele>307.6</ele>
        <time>2021-09-05T09:43:00Z</time>
      </trkpt>
      <trkpt lat="47.26238" lon="6.05199">
        <ele>307.4</ele>
        <time>2021-09-05T09:43:03Z</time>
      </trkpt>
      <trkpt lat="47.26237" lon="6.05201">
        <ele>307.2</ele>
        <time>2021-09-05T09:43:04Z</time>
      </trkpt>
      <trkpt lat="47.26234" lon="6.05199">
        <ele>307.6</ele>
        <time>2021-09-05T09:43:06Z</time>
      </trkpt>
      <trkpt lat="47.26233" lon="6.05197">
        <ele>307.6</ele>
        <time>2021-09-05T09:43:07Z</time>
      </trkpt>
      <trkpt lat="47.26232" lon="6.05195">
        <ele>307.6</ele>
        <time>2021-09-05T09:43:08Z</time>
      </trkpt>
      <trkpt lat="47.26231" lon="6.05193">
        <ele>307.6</ele>
        <time>2021-09-05T09:43:09Z</time>
      </trkpt>
      <trkpt lat="47.26229" lon="6.05188">
        <ele>307.8</ele>
        <time>2021-09-05T09:43:11Z</time>
      </trkpt>
      <trkpt lat="47.26226" lon="6.05182">
        <ele>308</ele>
        <time>2021-09-05T09:43:13Z</time>
      </trkpt>
      <trkpt lat="47.2622" lon="6.05154">
        <ele>308.6</ele>
        <time>2021-09-05T09:43:20Z</time>
      </trkpt>
      <trkpt lat="47.26215" lon="6.05121">
        <ele>309.2</ele>
        <time>2021-09-05T09:43:27Z</time>
      </trkpt>
      <trkpt lat="47.26213" lon="6.05112">
        <ele>309.4</ele>
        <time>2021-09-05T09:43:29Z</time>
      </trkpt>
      <trkpt lat="47.2621" lon="6.05094">
        <ele>310.2</ele>
        <time>2021-09-05T09:43:33Z</time>
      </trkpt>
      <trkpt lat="47.26209" lon="6.05089">
        <ele>310.2</ele>
        <time>2021-09-05T09:43:34Z</time>
      </trkpt>
      <trkpt lat="47.26206" lon="6.0507">
        <ele>310.4</ele>
        <time>2021-09-05T09:43:38Z</time>
      </trkpt>
      <trkpt lat="47.26201" lon="6.05039">
        <ele>310.8</ele>
        <time>2021-09-05T09:43:45Z</time>
      </trkpt>
      <trkpt lat="47.262" lon="6.05033">
        <ele>310.8</ele>
        <time>2021-09-05T09:43:46Z</time>
      </trkpt>
      <trkpt lat="47.26196" lon="6.05006">
        <ele>311.4</ele>
        <time>2021-09-05T09:43:52Z</time>
      </trkpt>
      <trkpt lat="47.26193" lon="6.04998">
        <ele>311.4</ele>
        <time>2021-09-05T09:43:54Z</time>
      </trkpt>
      <trkpt lat="47.26191" lon="6.04995">
        <ele>311.4</ele>
        <time>2021-09-05T09:43:55Z</time>
      </trkpt>
      <trkpt lat="47.26188" lon="6.04994">
        <ele>311.4</ele>
        <time>2021-09-05T09:43:56Z</time>
      </trkpt>
      <trkpt lat="47.26185" lon="6.04993">
        <ele>311.6</ele>
        <time>2021-09-05T09:43:57Z</time>
      </trkpt>
      <trkpt lat="47.26177" lon="6.04998">
        <ele>311.8</ele>
        <time>2021-09-05T09:44:00Z</time>
      </trkpt>
      <trkpt lat="47.26173" lon="6.05002">
        <ele>312</ele>
        <time>2021-09-05T09:44:02Z</time>
      </trkpt>
      <trkpt lat="47.2617" lon="6.05006">
        <ele>312.2</ele>
        <time>2021-09-05T09:44:03Z</time>
      </trkpt>
      <trkpt lat="47.26168" lon="6.05008">
        <ele>312.4</ele>
        <time>2021-09-05T09:44:04Z</time>
      </trkpt>
      <trkpt lat="47.26166" lon="6.05011">
        <ele>312.4</ele>
        <time>2021-09-05T09:44:05Z</time>
      </trkpt>
      <trkpt lat="47.26165" lon="6.05013">
        <ele>312.6</ele>
        <time>2021-09-05T09:44:06Z</time>
      </trkpt>
      <trkpt lat="47.26162" lon="6.05017">
        <ele>312.8</ele>
        <time>2021-09-05T09:44:07Z</time>
      </trkpt>
      <trkpt lat="47.2616" lon="6.0502">
        <ele>312.8</ele>
        <time>2021-09-05T09:44:08Z</time>
      </trkpt>
      <trkpt lat="47.26158" lon="6.05022">
        <ele>312.8</ele>
        <time>2021-09-05T09:44:09Z</time>
      </trkpt>
      <trkpt lat="47.26156" lon="6.05024">
        <ele>313</ele>
        <time>2021-09-05T09:44:10Z</time>
      </trkpt>
      <trkpt lat="47.26154" lon="6.05027">
        <ele>313</ele>
        <time>2021-09-05T09:44:11Z</time>
      </trkpt>
      <trkpt lat="47.26149" lon="6.05037">
        <ele>313.6</ele>
        <time>2021-09-05T09:44:14Z</time>
      </trkpt>
      <trkpt lat="47.26142" lon="6.05049">
        <ele>313.8</ele>
        <time>2021-09-05T09:44:18Z</time>
      </trkpt>
      <trkpt lat="47.26136" lon="6.05063">
        <ele>314.4</ele>
        <time>2021-09-05T09:44:22Z</time>
      </trkpt>
      <trkpt lat="47.26134" lon="6.05067">
        <ele>314.4</ele>
        <time>2021-09-05T09:44:23Z</time>
      </trkpt>
      <trkpt lat="47.26133" lon="6.05071">
        <ele>314.4</ele>
        <time>2021-09-05T09:44:24Z</time>
      </trkpt>
      <trkpt lat="47.26131" lon="6.05074">
        <ele>314.6</ele>
        <time>2021-09-05T09:44:25Z</time>
      </trkpt>
      <trkpt lat="47.2613" lon="6.05078">
        <ele>314.6</ele>
        <time>2021-09-05T09:44:26Z</time>
      </trkpt>
      <trkpt lat="47.26128" lon="6.05081">
        <ele>314.6</ele>
        <time>2021-09-05T09:44:27Z</time>
      </trkpt>
      <trkpt lat="47.26126" lon="6.05086">
        <ele>314.6</ele>
        <time>2021-09-05T09:44:28Z</time>
      </trkpt>
      <trkpt lat="47.26124" lon="6.05089">
        <ele>314.6</ele>
        <time>2021-09-05T09:44:29Z</time>
      </trkpt>
      <trkpt lat="47.2612" lon="6.05096">
        <ele>314.8</ele>
        <time>2021-09-05T09:44:32Z</time>
      </trkpt>
      <trkpt lat="47.26109" lon="6.0512">
        <ele>315.2</ele>
        <time>2021-09-05T09:44:38Z</time>
      </trkpt>
      <trkpt lat="47.26107" lon="6.05123">
        <ele>315.4</ele>
        <time>2021-09-05T09:44:39Z</time>
      </trkpt>
      <trkpt lat="47.26104" lon="6.05126">
        <ele>315.4</ele>
        <time>2021-09-05T09:44:40Z</time>
      </trkpt>
      <trkpt lat="47.26103" lon="6.05127">
        <ele>315.6</ele>
        <time>2021-09-05T09:44:41Z</time>
      </trkpt>
      <trkpt lat="47.261" lon="6.05127">
        <ele>315.8</ele>
        <time>2021-09-05T09:44:42Z</time>
      </trkpt>
      <trkpt lat="47.26096" lon="6.05126">
        <ele>316</ele>
        <time>2021-09-05T09:44:43Z</time>
      </trkpt>
      <trkpt lat="47.26093" lon="6.05126">
        <ele>316.2</ele>
        <time>2021-09-05T09:44:44Z</time>
      </trkpt>
      <trkpt lat="47.26091" lon="6.05126">
        <ele>316.2</ele>
        <time>2021-09-05T09:44:45Z</time>
      </trkpt>
      <trkpt lat="47.26088" lon="6.05125">
        <ele>316.4</ele>
        <time>2021-09-05T09:44:46Z</time>
      </trkpt>
      <trkpt lat="47.26082" lon="6.05125">
        <ele>316.6</ele>
        <time>2021-09-05T09:44:48Z</time>
      </trkpt>
      <trkpt lat="47.2607" lon="6.05123">
        <ele>317.2</ele>
        <time>2021-09-05T09:44:52Z</time>
      </trkpt>
      <trkpt lat="47.26067" lon="6.05123">
        <ele>317.2</ele>
        <time>2021-09-05T09:44:53Z</time>
      </trkpt>
      <trkpt lat="47.26064" lon="6.05122">
        <ele>317.2</ele>
        <time>2021-09-05T09:44:54Z</time>
      </trkpt>
      <trkpt lat="47.26061" lon="6.05122">
        <ele>317.4</ele>
        <time>2021-09-05T09:44:55Z</time>
      </trkpt>
      <trkpt lat="47.26058" lon="6.05122">
        <ele>317.6</ele>
        <time>2021-09-05T09:44:56Z</time>
      </trkpt>
      <trkpt lat="47.26055" lon="6.05121">
        <ele>317.6</ele>
        <time>2021-09-05T09:44:57Z</time>
      </trkpt>
      <trkpt lat="47.26052" lon="6.05121">
        <ele>317.6</ele>
        <time>2021-09-05T09:44:58Z</time>
      </trkpt>
      <trkpt lat="47.26049" lon="6.05122">
        <ele>317.8</ele>
        <time>2021-09-05T09:44:59Z</time>
      </trkpt>
      <trkpt lat="47.26047" lon="6.05122">
        <ele>317.8</ele>
        <time>2021-09-05T09:45:00Z</time>
      </trkpt>
      <trkpt lat="47.26044" lon="6.05123">
        <ele>318</ele>
        <time>2021-09-05T09:45:01Z</time>
      </trkpt>
      <trkpt lat="47.26041" lon="6.05124">
        <ele>318.2</ele>
        <time>2021-09-05T09:45:02Z</time>
      </trkpt>
      <trkpt lat="47.26039" lon="6.05126">
        <ele>318.4</ele>
        <time>2021-09-05T09:45:03Z</time>
      </trkpt>
      <trkpt lat="47.26037" lon="6.05128">
        <ele>318.4</ele>
        <time>2021-09-05T09:45:04Z</time>
      </trkpt>
      <trkpt lat="47.26034" lon="6.0513">
        <ele>318.6</ele>
        <time>2021-09-05T09:45:05Z</time>
      </trkpt>
      <trkpt lat="47.26032" lon="6.05133">
        <ele>318.6</ele>
        <time>2021-09-05T09:45:06Z</time>
      </trkpt>
      <trkpt lat="47.26031" lon="6.05136">
        <ele>319</ele>
        <time>2021-09-05T09:45:07Z</time>
      </trkpt>
      <trkpt lat="47.26029" lon="6.05139">
        <ele>319</ele>
        <time>2021-09-05T09:45:08Z</time>
      </trkpt>
      <trkpt lat="47.26028" lon="6.05142">
        <ele>319.2</ele>
        <time>2021-09-05T09:45:09Z</time>
      </trkpt>
      <trkpt lat="47.26028" lon="6.05145">
        <ele>319.4</ele>
        <time>2021-09-05T09:45:10Z</time>
      </trkpt>
      <trkpt lat="47.26028" lon="6.05148">
        <ele>319.6</ele>
        <time>2021-09-05T09:45:11Z</time>
      </trkpt>
      <trkpt lat="47.26028" lon="6.05151">
        <ele>319.8</ele>
        <time>2021-09-05T09:45:12Z</time>
      </trkpt>
      <trkpt lat="47.26028" lon="6.05153">
        <ele>319.8</ele>
        <time>2021-09-05T09:45:13Z</time>
      </trkpt>
      <trkpt lat="47.26029" lon="6.05156">
        <ele>320</ele>
        <time>2021-09-05T09:45:14Z</time>
      </trkpt>
      <trkpt lat="47.26029" lon="6.05159">
        <ele>320.2</ele>
        <time>2021-09-05T09:45:15Z</time>
      </trkpt>
      <trkpt lat="47.2603" lon="6.05162">
        <ele>320.6</ele>
        <time>2021-09-05T09:45:16Z</time>
      </trkpt>
      <trkpt lat="47.26031" lon="6.05164">
        <ele>320.8</ele>
        <time>2021-09-05T09:45:17Z</time>
      </trkpt>
      <trkpt lat="47.26033" lon="6.05167">
        <ele>321</ele>
        <time>2021-09-05T09:45:18Z</time>
      </trkpt>
      <trkpt lat="47.26035" lon="6.05169">
        <ele>321.4</ele>
        <time>2021-09-05T09:45:19Z</time>
      </trkpt>
      <trkpt lat="47.26038" lon="6.05171">
        <ele>321.4</ele>
        <time>2021-09-05T09:45:20Z</time>
      </trkpt>
      <trkpt lat="47.2604" lon="6.05172">
        <ele>321.6</ele>
        <time>2021-09-05T09:45:21Z</time>
      </trkpt>
      <trkpt lat="47.26043" lon="6.05173">
        <ele>321.6</ele>
        <time>2021-09-05T09:45:22Z</time>
      </trkpt>
      <trkpt lat="47.26045" lon="6.05174">
        <ele>321.8</ele>
        <time>2021-09-05T09:45:23Z</time>
      </trkpt>
      <trkpt lat="47.26048" lon="6.05175">
        <ele>322</ele>
        <time>2021-09-05T09:45:24Z</time>
      </trkpt>
      <trkpt lat="47.2605" lon="6.05175">
        <ele>322.2</ele>
        <time>2021-09-05T09:45:25Z</time>
      </trkpt>
      <trkpt lat="47.26053" lon="6.05175">
        <ele>322.4</ele>
        <time>2021-09-05T09:45:26Z</time>
      </trkpt>
      <trkpt lat="47.26055" lon="6.05176">
        <ele>322.6</ele>
        <time>2021-09-05T09:45:27Z</time>
      </trkpt>
      <trkpt lat="47.26058" lon="6.05176">
        <ele>322.8</ele>
        <time>2021-09-05T09:45:28Z</time>
      </trkpt>
      <trkpt lat="47.2606" lon="6.05176">
        <ele>323</ele>
        <time>2021-09-05T09:45:29Z</time>
      </trkpt>
      <trkpt lat="47.26062" lon="6.05177">
        <ele>323.4</ele>
        <time>2021-09-05T09:45:30Z</time>
      </trkpt>
      <trkpt lat="47.26065" lon="6.05177">
        <ele>323.6</ele>
        <time>2021-09-05T09:45:31Z</time>
      </trkpt>
      <trkpt lat="47.26067" lon="6.05178">
        <ele>323.8</ele>
        <time>2021-09-05T09:45:32Z</time>
      </trkpt>
      <trkpt lat="47.26069" lon="6.05179">
        <ele>324</ele>
        <time>2021-09-05T09:45:33Z</time>
      </trkpt>
      <trkpt lat="47.26071" lon="6.05181">
        <ele>324.2</ele>
        <time>2021-09-05T09:45:34Z</time>
      </trkpt>
      <trkpt lat="47.26074" lon="6.05183">
        <ele>324.4</ele>
        <time>2021-09-05T09:45:35Z</time>
      </trkpt>
      <trkpt lat="47.26075" lon="6.05185">
        <ele>324.4</ele>
        <time>2021-09-05T09:45:36Z</time>
      </trkpt>
      <trkpt lat="47.26077" lon="6.05188">
        <ele>324.6</ele>
        <time>2021-09-05T09:45:37Z</time>
      </trkpt>
      <trkpt lat="47.26078" lon="6.0519">
        <ele>324.8</ele>
        <time>2021-09-05T09:45:38Z</time>
      </trkpt>
      <trkpt lat="47.26078" lon="6.05193">
        <ele>325</ele>
        <time>2021-09-05T09:45:39Z</time>
      </trkpt>
      <trkpt lat="47.26078" lon="6.05196">
        <ele>325.2</ele>
        <time>2021-09-05T09:45:40Z</time>
      </trkpt>
      <trkpt lat="47.26077" lon="6.05199">
        <ele>325.4</ele>
        <time>2021-09-05T09:45:41Z</time>
      </trkpt>
      <trkpt lat="47.26077" lon="6.05203">
        <ele>325.6</ele>
        <time>2021-09-05T09:45:42Z</time>
      </trkpt>
      <trkpt lat="47.26077" lon="6.05206">
        <ele>325.8</ele>
        <time>2021-09-05T09:45:43Z</time>
      </trkpt>
      <trkpt lat="47.26077" lon="6.05209">
        <ele>326</ele>
        <time>2021-09-05T09:45:44Z</time>
      </trkpt>
      <trkpt lat="47.26077" lon="6.05212">
        <ele>326.2</ele>
        <time>2021-09-05T09:45:45Z</time>
      </trkpt>
      <trkpt lat="47.26077" lon="6.05214">
        <ele>326.2</ele>
        <time>2021-09-05T09:45:46Z</time>
      </trkpt>
      <trkpt lat="47.26078" lon="6.05216">
        <ele>326.6</ele>
        <time>2021-09-05T09:45:47Z</time>
      </trkpt>
      <trkpt lat="47.26078" lon="6.05218">
        <ele>327</ele>
        <time>2021-09-05T09:45:48Z</time>
      </trkpt>
      <trkpt lat="47.26079" lon="6.05221">
        <ele>327.4</ele>
        <time>2021-09-05T09:45:49Z</time>
      </trkpt>
      <trkpt lat="47.26079" lon="6.05221">
        <ele>327.6</ele>
        <time>2021-09-05T09:45:50Z</time>
      </trkpt>
      <trkpt lat="47.2608" lon="6.05226">
        <ele>327.8</ele>
        <time>2021-09-05T09:45:51Z</time>
      </trkpt>
      <trkpt lat="47.26081" lon="6.05228">
        <ele>328</ele>
        <time>2021-09-05T09:45:52Z</time>
      </trkpt>
      <trkpt lat="47.26082" lon="6.0523">
        <ele>328.2</ele>
        <time>2021-09-05T09:45:53Z</time>
      </trkpt>
      <trkpt lat="47.26083" lon="6.05233">
        <ele>328.6</ele>
        <time>2021-09-05T09:45:54Z</time>
      </trkpt>
      <trkpt lat="47.26085" lon="6.05235">
        <ele>328.8</ele>
        <time>2021-09-05T09:45:55Z</time>
      </trkpt>
      <trkpt lat="47.26085" lon="6.05237">
        <ele>329.2</ele>
        <time>2021-09-05T09:45:56Z</time>
      </trkpt>
      <trkpt lat="47.26086" lon="6.05239">
        <ele>329.4</ele>
        <time>2021-09-05T09:45:57Z</time>
      </trkpt>
      <trkpt lat="47.26087" lon="6.0524">
        <ele>329.8</ele>
        <time>2021-09-05T09:45:58Z</time>
      </trkpt>
      <trkpt lat="47.26087" lon="6.05242">
        <ele>330.4</ele>
        <time>2021-09-05T09:45:59Z</time>
      </trkpt>
      <trkpt lat="47.26088" lon="6.05245">
        <ele>330.8</ele>
        <time>2021-09-05T09:46:00Z</time>
      </trkpt>
      <trkpt lat="47.26089" lon="6.05247">
        <ele>331.2</ele>
        <time>2021-09-05T09:46:01Z</time>
      </trkpt>
      <trkpt lat="47.26089" lon="6.05249">
        <ele>331.6</ele>
        <time>2021-09-05T09:46:02Z</time>
      </trkpt>
      <trkpt lat="47.2609" lon="6.0525">
        <ele>332.2</ele>
        <time>2021-09-05T09:46:03Z</time>
      </trkpt>
      <trkpt lat="47.2609" lon="6.05253">
        <ele>332.6</ele>
        <time>2021-09-05T09:46:04Z</time>
      </trkpt>
      <trkpt lat="47.26091" lon="6.05254">
        <ele>333</ele>
        <time>2021-09-05T09:46:05Z</time>
      </trkpt>
      <trkpt lat="47.26091" lon="6.05257">
        <ele>333.4</ele>
        <time>2021-09-05T09:46:06Z</time>
      </trkpt>
      <trkpt lat="47.26092" lon="6.05259">
        <ele>333.8</ele>
        <time>2021-09-05T09:46:07Z</time>
      </trkpt>
      <trkpt lat="47.26094" lon="6.05262">
        <ele>334.2</ele>
        <time>2021-09-05T09:46:08Z</time>
      </trkpt>
      <trkpt lat="47.26095" lon="6.05264">
        <ele>334.2</ele>
        <time>2021-09-05T09:46:09Z</time>
      </trkpt>
      <trkpt lat="47.26095" lon="6.05266">
        <ele>335</ele>
        <time>2021-09-05T09:46:10Z</time>
      </trkpt>
      <trkpt lat="47.26096" lon="6.05268">
        <ele>335.4</ele>
        <time>2021-09-05T09:46:11Z</time>
      </trkpt>
      <trkpt lat="47.26097" lon="6.0527">
        <ele>335.6</ele>
        <time>2021-09-05T09:46:12Z</time>
      </trkpt>
      <trkpt lat="47.26097" lon="6.05272">
        <ele>336</ele>
        <time>2021-09-05T09:46:13Z</time>
      </trkpt>
      <trkpt lat="47.26097" lon="6.05272">
        <ele>336.4</ele>
        <time>2021-09-05T09:46:14Z</time>
      </trkpt>
      <trkpt lat="47.26099" lon="6.05275">
        <ele>336.8</ele>
        <time>2021-09-05T09:46:15Z</time>
      </trkpt>
      <trkpt lat="47.26101" lon="6.05279">
        <ele>336.8</ele>
        <time>2021-09-05T09:46:16Z</time>
      </trkpt>
      <trkpt lat="47.26102" lon="6.05281">
        <ele>337.2</ele>
        <time>2021-09-05T09:46:17Z</time>
      </trkpt>
      <trkpt lat="47.26103" lon="6.05283">
        <ele>337.2</ele>
        <time>2021-09-05T09:46:18Z</time>
      </trkpt>
      <trkpt lat="47.26104" lon="6.05284">
        <ele>337.4</ele>
        <time>2021-09-05T09:46:19Z</time>
      </trkpt>
      <trkpt lat="47.26104" lon="6.05286">
        <ele>337.8</ele>
        <time>2021-09-05T09:46:20Z</time>
      </trkpt>
      <trkpt lat="47.26105" lon="6.05288">
        <ele>337.8</ele>
        <time>2021-09-05T09:46:21Z</time>
      </trkpt>
      <trkpt lat="47.26106" lon="6.05291">
        <ele>338.4</ele>
        <time>2021-09-05T09:46:22Z</time>
      </trkpt>
      <trkpt lat="47.26107" lon="6.05293">
        <ele>338.6</ele>
        <time>2021-09-05T09:46:23Z</time>
      </trkpt>
      <trkpt lat="47.26108" lon="6.05295">
        <ele>338.8</ele>
        <time>2021-09-05T09:46:24Z</time>
      </trkpt>
      <trkpt lat="47.2611" lon="6.05298">
        <ele>338.8</ele>
        <time>2021-09-05T09:46:25Z</time>
      </trkpt>
      <trkpt lat="47.26111" lon="6.05301">
        <ele>339</ele>
        <time>2021-09-05T09:46:26Z</time>
      </trkpt>
      <trkpt lat="47.26112" lon="6.05304">
        <ele>339.2</ele>
        <time>2021-09-05T09:46:27Z</time>
      </trkpt>
      <trkpt lat="47.26113" lon="6.05306">
        <ele>339.2</ele>
        <time>2021-09-05T09:46:28Z</time>
      </trkpt>
      <trkpt lat="47.26115" lon="6.05307">
        <ele>339.6</ele>
        <time>2021-09-05T09:46:29Z</time>
      </trkpt>
      <trkpt lat="47.26116" lon="6.05309">
        <ele>339.8</ele>
        <time>2021-09-05T09:46:30Z</time>
      </trkpt>
      <trkpt lat="47.26118" lon="6.05311">
        <ele>340</ele>
        <time>2021-09-05T09:46:31Z</time>
      </trkpt>
      <trkpt lat="47.26119" lon="6.05315">
        <ele>340</ele>
        <time>2021-09-05T09:46:32Z</time>
      </trkpt>
      <trkpt lat="47.26121" lon="6.05317">
        <ele>340.2</ele>
        <time>2021-09-05T09:46:33Z</time>
      </trkpt>
      <trkpt lat="47.26123" lon="6.05319">
        <ele>340.2</ele>
        <time>2021-09-05T09:46:34Z</time>
      </trkpt>
      <trkpt lat="47.26124" lon="6.05322">
        <ele>340.4</ele>
        <time>2021-09-05T09:46:35Z</time>
      </trkpt>
      <trkpt lat="47.26125" lon="6.05325">
        <ele>340.6</ele>
        <time>2021-09-05T09:46:36Z</time>
      </trkpt>
      <trkpt lat="47.26127" lon="6.05327">
        <ele>340.6</ele>
        <time>2021-09-05T09:46:37Z</time>
      </trkpt>
      <trkpt lat="47.26129" lon="6.05329">
        <ele>340.6</ele>
        <time>2021-09-05T09:46:38Z</time>
      </trkpt>
      <trkpt lat="47.2613" lon="6.05332">
        <ele>340.8</ele>
        <time>2021-09-05T09:46:39Z</time>
      </trkpt>
      <trkpt lat="47.26132" lon="6.05334">
        <ele>340.8</ele>
        <time>2021-09-05T09:46:40Z</time>
      </trkpt>
      <trkpt lat="47.26133" lon="6.05336">
        <ele>341</ele>
        <time>2021-09-05T09:46:41Z</time>
      </trkpt>
      <trkpt lat="47.26134" lon="6.05338">
        <ele>341</ele>
        <time>2021-09-05T09:46:42Z</time>
      </trkpt>
      <trkpt lat="47.26134" lon="6.05339">
        <ele>341</ele>
        <time>2021-09-05T09:46:43Z</time>
      </trkpt>
      <trkpt lat="47.26136" lon="6.05343">
        <ele>341</ele>
        <time>2021-09-05T09:46:44Z</time>
      </trkpt>
      <trkpt lat="47.26137" lon="6.05346">
        <ele>341.2</ele>
        <time>2021-09-05T09:46:45Z</time>
      </trkpt>
      <trkpt lat="47.26138" lon="6.05348">
        <ele>341.2</ele>
        <time>2021-09-05T09:46:46Z</time>
      </trkpt>
      <trkpt lat="47.26139" lon="6.0535">
        <ele>341.2</ele>
        <time>2021-09-05T09:46:47Z</time>
      </trkpt>
      <trkpt lat="47.2614" lon="6.05353">
        <ele>341.4</ele>
        <time>2021-09-05T09:46:48Z</time>
      </trkpt>
      <trkpt lat="47.26141" lon="6.05355">
        <ele>341.4</ele>
        <time>2021-09-05T09:46:49Z</time>
      </trkpt>
      <trkpt lat="47.26142" lon="6.05358">
        <ele>341.6</ele>
        <time>2021-09-05T09:46:50Z</time>
      </trkpt>
      <trkpt lat="47.26142" lon="6.05362">
        <ele>341.6</ele>
        <time>2021-09-05T09:46:51Z</time>
      </trkpt>
      <trkpt lat="47.26142" lon="6.05365">
        <ele>341.6</ele>
        <time>2021-09-05T09:46:52Z</time>
      </trkpt>
      <trkpt lat="47.26141" lon="6.05368">
        <ele>341.6</ele>
        <time>2021-09-05T09:46:53Z</time>
      </trkpt>
      <trkpt lat="47.26141" lon="6.0537">
        <ele>341.6</ele>
        <time>2021-09-05T09:46:54Z</time>
      </trkpt>
      <trkpt lat="47.2614" lon="6.05373">
        <ele>341.6</ele>
        <time>2021-09-05T09:46:55Z</time>
      </trkpt>
      <trkpt lat="47.26139" lon="6.05375">
        <ele>341.8</ele>
        <time>2021-09-05T09:46:56Z</time>
      </trkpt>
      <trkpt lat="47.26139" lon="6.05378">
        <ele>341.8</ele>
        <time>2021-09-05T09:46:57Z</time>
      </trkpt>
      <trkpt lat="47.26138" lon="6.05383">
        <ele>342</ele>
        <time>2021-09-05T09:46:59Z</time>
      </trkpt>
      <trkpt lat="47.26136" lon="6.05393">
        <ele>343</ele>
        <time>2021-09-05T09:47:02Z</time>
      </trkpt>
      <trkpt lat="47.26136" lon="6.05396">
        <ele>343</ele>
        <time>2021-09-05T09:47:03Z</time>
      </trkpt>
      <trkpt lat="47.26136" lon="6.05398">
        <ele>343.4</ele>
        <time>2021-09-05T09:47:04Z</time>
      </trkpt>
      <trkpt lat="47.26132" lon="6.05406">
        <ele>344</ele>
        <time>2021-09-05T09:47:08Z</time>
      </trkpt>
      <trkpt lat="47.2613" lon="6.05409">
        <ele>344.4</ele>
        <time>2021-09-05T09:47:09Z</time>
      </trkpt>
      <trkpt lat="47.26129" lon="6.05411">
        <ele>344.6</ele>
        <time>2021-09-05T09:47:10Z</time>
      </trkpt>
      <trkpt lat="47.26128" lon="6.05412">
        <ele>344.8</ele>
        <time>2021-09-05T09:47:11Z</time>
      </trkpt>
      <trkpt lat="47.26126" lon="6.05413">
        <ele>345</ele>
        <time>2021-09-05T09:47:12Z</time>
      </trkpt>
      <trkpt lat="47.26124" lon="6.05415">
        <ele>345.2</ele>
        <time>2021-09-05T09:47:13Z</time>
      </trkpt>
      <trkpt lat="47.26122" lon="6.05416">
        <ele>345.2</ele>
        <time>2021-09-05T09:47:14Z</time>
      </trkpt>
      <trkpt lat="47.2612" lon="6.05417">
        <ele>345.4</ele>
        <time>2021-09-05T09:47:15Z</time>
      </trkpt>
      <trkpt lat="47.26118" lon="6.05417">
        <ele>345.4</ele>
        <time>2021-09-05T09:47:16Z</time>
      </trkpt>
      <trkpt lat="47.26116" lon="6.05417">
        <ele>345.6</ele>
        <time>2021-09-05T09:47:17Z</time>
      </trkpt>
      <trkpt lat="47.26113" lon="6.05417">
        <ele>345.6</ele>
        <time>2021-09-05T09:47:18Z</time>
      </trkpt>
      <trkpt lat="47.26112" lon="6.05417">
        <ele>345.6</ele>
        <time>2021-09-05T09:47:19Z</time>
      </trkpt>
      <trkpt lat="47.2611" lon="6.05416">
        <ele>345.6</ele>
        <time>2021-09-05T09:47:20Z</time>
      </trkpt>
      <trkpt lat="47.2611" lon="6.05416">
        <ele>345.6</ele>
        <time>2021-09-05T09:47:21Z</time>
      </trkpt>
      <trkpt lat="47.26106" lon="6.05416">
        <ele>345.8</ele>
        <time>2021-09-05T09:47:22Z</time>
      </trkpt>
      <trkpt lat="47.26104" lon="6.05416">
        <ele>345.8</ele>
        <time>2021-09-05T09:47:23Z</time>
      </trkpt>
      <trkpt lat="47.26102" lon="6.05417">
        <ele>345.8</ele>
        <time>2021-09-05T09:47:24Z</time>
      </trkpt>
      <trkpt lat="47.26101" lon="6.05417">
        <ele>346</ele>
        <time>2021-09-05T09:47:25Z</time>
      </trkpt>
      <trkpt lat="47.26099" lon="6.05418">
        <ele>346</ele>
        <time>2021-09-05T09:47:26Z</time>
      </trkpt>
      <trkpt lat="47.26097" lon="6.05418">
        <ele>346.2</ele>
        <time>2021-09-05T09:47:27Z</time>
      </trkpt>
      <trkpt lat="47.26096" lon="6.05418">
        <ele>346.4</ele>
        <time>2021-09-05T09:47:28Z</time>
      </trkpt>
      <trkpt lat="47.26094" lon="6.05419">
        <ele>346.6</ele>
        <time>2021-09-05T09:47:29Z</time>
      </trkpt>
      <trkpt lat="47.26093" lon="6.0542">
        <ele>346.8</ele>
        <time>2021-09-05T09:47:30Z</time>
      </trkpt>
      <trkpt lat="47.26092" lon="6.0542">
        <ele>347</ele>
        <time>2021-09-05T09:47:31Z</time>
      </trkpt>
      <trkpt lat="47.2609" lon="6.05421">
        <ele>347.2</ele>
        <time>2021-09-05T09:47:32Z</time>
      </trkpt>
      <trkpt lat="47.26088" lon="6.05421">
        <ele>347.2</ele>
        <time>2021-09-05T09:47:33Z</time>
      </trkpt>
      <trkpt lat="47.26086" lon="6.05421">
        <ele>347.4</ele>
        <time>2021-09-05T09:47:34Z</time>
      </trkpt>
      <trkpt lat="47.26084" lon="6.05421">
        <ele>347.6</ele>
        <time>2021-09-05T09:47:35Z</time>
      </trkpt>
      <trkpt lat="47.26083" lon="6.05421">
        <ele>347.6</ele>
        <time>2021-09-05T09:47:36Z</time>
      </trkpt>
      <trkpt lat="47.26081" lon="6.05421">
        <ele>347.8</ele>
        <time>2021-09-05T09:47:37Z</time>
      </trkpt>
      <trkpt lat="47.2608" lon="6.05421">
        <ele>348</ele>
        <time>2021-09-05T09:47:38Z</time>
      </trkpt>
      <trkpt lat="47.26078" lon="6.05422">
        <ele>348.2</ele>
        <time>2021-09-05T09:47:39Z</time>
      </trkpt>
      <trkpt lat="47.26077" lon="6.05422">
        <ele>348.2</ele>
        <time>2021-09-05T09:47:40Z</time>
      </trkpt>
      <trkpt lat="47.26075" lon="6.05423">
        <ele>348.4</ele>
        <time>2021-09-05T09:47:41Z</time>
      </trkpt>
      <trkpt lat="47.26074" lon="6.05423">
        <ele>348.4</ele>
        <time>2021-09-05T09:47:42Z</time>
      </trkpt>
      <trkpt lat="47.26073" lon="6.05424">
        <ele>348.6</ele>
        <time>2021-09-05T09:47:43Z</time>
      </trkpt>
      <trkpt lat="47.26072" lon="6.05424">
        <ele>348.8</ele>
        <time>2021-09-05T09:47:44Z</time>
      </trkpt>
      <trkpt lat="47.26071" lon="6.05425">
        <ele>349</ele>
        <time>2021-09-05T09:47:45Z</time>
      </trkpt>
      <trkpt lat="47.26071" lon="6.05425">
        <ele>349</ele>
        <time>2021-09-05T09:47:46Z</time>
      </trkpt>
      <trkpt lat="47.26071" lon="6.05425">
        <ele>349.2</ele>
        <time>2021-09-05T09:47:47Z</time>
      </trkpt>
      <trkpt lat="47.26071" lon="6.05425">
        <ele>349.4</ele>
        <time>2021-09-05T09:47:55Z</time>
      </trkpt>
      <trkpt lat="47.26071" lon="6.05425">
        <ele>349.4</ele>
        <time>2021-09-05T09:48:00Z</time>
      </trkpt>
      <trkpt lat="47.26071" lon="6.05425">
        <ele>348.8</ele>
        <time>2021-09-05T09:48:24Z</time>
      </trkpt>
      <trkpt lat="47.26065" lon="6.05427">
        <ele>348.8</ele>
        <time>2021-09-05T09:48:58Z</time>
      </trkpt>
      <trkpt lat="47.26062" lon="6.05429">
        <ele>349</ele>
        <time>2021-09-05T09:49:00Z</time>
      </trkpt>
      <trkpt lat="47.26059" lon="6.05429">
        <ele>349</ele>
        <time>2021-09-05T09:49:01Z</time>
      </trkpt>
      <trkpt lat="47.26057" lon="6.0543">
        <ele>349</ele>
        <time>2021-09-05T09:49:02Z</time>
      </trkpt>
      <trkpt lat="47.26053" lon="6.05431">
        <ele>349</ele>
        <time>2021-09-05T09:49:04Z</time>
      </trkpt>
      <trkpt lat="47.2605" lon="6.05432">
        <ele>349</ele>
        <time>2021-09-05T09:49:06Z</time>
      </trkpt>
      <trkpt lat="47.26048" lon="6.05433">
        <ele>349</ele>
        <time>2021-09-05T09:49:07Z</time>
      </trkpt>
      <trkpt lat="47.26045" lon="6.05434">
        <ele>349</ele>
        <time>2021-09-05T09:49:08Z</time>
      </trkpt>
      <trkpt lat="47.26043" lon="6.05435">
        <ele>349</ele>
        <time>2021-09-05T09:49:09Z</time>
      </trkpt>
      <trkpt lat="47.2604" lon="6.05436">
        <ele>348.8</ele>
        <time>2021-09-05T09:49:10Z</time>
      </trkpt>
      <trkpt lat="47.2604" lon="6.05437">
        <ele>348.8</ele>
        <time>2021-09-05T09:49:11Z</time>
      </trkpt>
      <trkpt lat="47.2604" lon="6.05437">
        <ele>348.8</ele>
        <time>2021-09-05T09:49:12Z</time>
      </trkpt>
      <trkpt lat="47.2604" lon="6.05437">
        <ele>348.8</ele>
        <time>2021-09-05T09:49:14Z</time>
      </trkpt>
      <trkpt lat="47.2604" lon="6.05437">
        <ele>349</ele>
        <time>2021-09-05T09:49:28Z</time>
      </trkpt>
      <trkpt lat="47.26039" lon="6.05438">
        <ele>348.6</ele>
        <time>2021-09-05T09:50:05Z</time>
      </trkpt>
      <trkpt lat="47.26036" lon="6.05439">
        <ele>348.6</ele>
        <time>2021-09-05T09:50:15Z</time>
      </trkpt>
      <trkpt lat="47.26033" lon="6.05441">
        <ele>348.6</ele>
        <time>2021-09-05T09:50:17Z</time>
      </trkpt>
      <trkpt lat="47.2602" lon="6.05447">
        <ele>348.6</ele>
        <time>2021-09-05T09:50:22Z</time>
      </trkpt>
      <trkpt lat="47.26001" lon="6.05456">
        <ele>348.6</ele>
        <time>2021-09-05T09:50:27Z</time>
      </trkpt>
      <trkpt lat="47.25997" lon="6.05457">
        <ele>348.6</ele>
        <time>2021-09-05T09:50:28Z</time>
      </trkpt>
      <trkpt lat="47.25992" lon="6.0546">
        <ele>348.6</ele>
        <time>2021-09-05T09:50:29Z</time>
      </trkpt>
      <trkpt lat="47.25976" lon="6.05474">
        <ele>348.6</ele>
        <time>2021-09-05T09:50:33Z</time>
      </trkpt>
      <trkpt lat="47.2597" lon="6.05481">
        <ele>348.6</ele>
        <time>2021-09-05T09:50:35Z</time>
      </trkpt>
      <trkpt lat="47.25968" lon="6.05482">
        <ele>348.6</ele>
        <time>2021-09-05T09:50:36Z</time>
      </trkpt>
      <trkpt lat="47.25965" lon="6.05482">
        <ele>348.6</ele>
        <time>2021-09-05T09:50:37Z</time>
      </trkpt>
      <trkpt lat="47.25964" lon="6.05483">
        <ele>348.6</ele>
        <time>2021-09-05T09:50:38Z</time>
      </trkpt>
      <trkpt lat="47.25963" lon="6.05484">
        <ele>348.6</ele>
        <time>2021-09-05T09:50:39Z</time>
      </trkpt>
      <trkpt lat="47.25962" lon="6.05485">
        <ele>348.6</ele>
        <time>2021-09-05T09:50:40Z</time>
      </trkpt>
      <trkpt lat="47.25959" lon="6.05487">
        <ele>348.6</ele>
        <time>2021-09-05T09:50:41Z</time>
      </trkpt>
      <trkpt lat="47.25959" lon="6.05487">
        <ele>348.6</ele>
        <time>2021-09-05T09:50:42Z</time>
      </trkpt>
      <trkpt lat="47.25959" lon="6.05487">
        <ele>348.6</ele>
        <time>2021-09-05T09:50:43Z</time>
      </trkpt>
      <trkpt lat="47.25959" lon="6.05487">
        <ele>348.6</ele>
        <time>2021-09-05T09:50:45Z</time>
      </trkpt>
      <trkpt lat="47.25956" lon="6.05488">
        <ele>348.6</ele>
        <time>2021-09-05T09:50:53Z</time>
      </trkpt>
      <trkpt lat="47.2595" lon="6.05487">
        <ele>348.6</ele>
        <time>2021-09-05T09:50:56Z</time>
      </trkpt>
      <trkpt lat="47.25947" lon="6.05485">
        <ele>348.6</ele>
        <time>2021-09-05T09:50:57Z</time>
      </trkpt>
      <trkpt lat="47.25944" lon="6.05483">
        <ele>348.6</ele>
        <time>2021-09-05T09:50:58Z</time>
      </trkpt>
      <trkpt lat="47.25942" lon="6.0548">
        <ele>348.6</ele>
        <time>2021-09-05T09:50:59Z</time>
      </trkpt>
      <trkpt lat="47.2594" lon="6.05477">
        <ele>348.6</ele>
        <time>2021-09-05T09:51:00Z</time>
      </trkpt>
      <trkpt lat="47.25936" lon="6.05473">
        <ele>348.6</ele>
        <time>2021-09-05T09:51:01Z</time>
      </trkpt>
      <trkpt lat="47.25923" lon="6.05455">
        <ele>348.6</ele>
        <time>2021-09-05T09:51:05Z</time>
      </trkpt>
      <trkpt lat="47.25914" lon="6.05448">
        <ele>348.6</ele>
        <time>2021-09-05T09:51:07Z</time>
      </trkpt>
      <trkpt lat="47.259" lon="6.05441">
        <ele>348.4</ele>
        <time>2021-09-05T09:51:10Z</time>
      </trkpt>
      <trkpt lat="47.25897" lon="6.0544">
        <ele>348.4</ele>
        <time>2021-09-05T09:51:11Z</time>
      </trkpt>
      <trkpt lat="47.25895" lon="6.05439">
        <ele>348.2</ele>
        <time>2021-09-05T09:51:12Z</time>
      </trkpt>
      <trkpt lat="47.25893" lon="6.05436">
        <ele>348.2</ele>
        <time>2021-09-05T09:51:13Z</time>
      </trkpt>
      <trkpt lat="47.2589" lon="6.05434">
        <ele>348</ele>
        <time>2021-09-05T09:51:14Z</time>
      </trkpt>
      <trkpt lat="47.25887" lon="6.05433">
        <ele>348</ele>
        <time>2021-09-05T09:51:15Z</time>
      </trkpt>
      <trkpt lat="47.25884" lon="6.0543">
        <ele>347.8</ele>
        <time>2021-09-05T09:51:16Z</time>
      </trkpt>
      <trkpt lat="47.2588" lon="6.05426">
        <ele>347.8</ele>
        <time>2021-09-05T09:51:17Z</time>
      </trkpt>
      <trkpt lat="47.2587" lon="6.05424">
        <ele>347.4</ele>
        <time>2021-09-05T09:51:20Z</time>
      </trkpt>
      <trkpt lat="47.25868" lon="6.05426">
        <ele>347.2</ele>
        <time>2021-09-05T09:51:21Z</time>
      </trkpt>
      <trkpt lat="47.25865" lon="6.05429">
        <ele>347.2</ele>
        <time>2021-09-05T09:51:22Z</time>
      </trkpt>
      <trkpt lat="47.25859" lon="6.05445">
        <ele>346.8</ele>
        <time>2021-09-05T09:51:25Z</time>
      </trkpt>
      <trkpt lat="47.25857" lon="6.05451">
        <ele>346.6</ele>
        <time>2021-09-05T09:51:26Z</time>
      </trkpt>
      <trkpt lat="47.25853" lon="6.05465">
        <ele>346.2</ele>
        <time>2021-09-05T09:51:28Z</time>
      </trkpt>
      <trkpt lat="47.25848" lon="6.05485">
        <ele>345.8</ele>
        <time>2021-09-05T09:51:31Z</time>
      </trkpt>
      <trkpt lat="47.25847" lon="6.05491">
        <ele>345.6</ele>
        <time>2021-09-05T09:51:32Z</time>
      </trkpt>
      <trkpt lat="47.25846" lon="6.05502">
        <ele>345.6</ele>
        <time>2021-09-05T09:51:34Z</time>
      </trkpt>
      <trkpt lat="47.25847" lon="6.05505">
        <ele>345.4</ele>
        <time>2021-09-05T09:51:35Z</time>
      </trkpt>
      <trkpt lat="47.25848" lon="6.05508">
        <ele>345.4</ele>
        <time>2021-09-05T09:51:36Z</time>
      </trkpt>
      <trkpt lat="47.25849" lon="6.05511">
        <ele>345.4</ele>
        <time>2021-09-05T09:51:37Z</time>
      </trkpt>
      <trkpt lat="47.25849" lon="6.05513">
        <ele>345.2</ele>
        <time>2021-09-05T09:51:38Z</time>
      </trkpt>
      <trkpt lat="47.2585" lon="6.05515">
        <ele>345.2</ele>
        <time>2021-09-05T09:51:39Z</time>
      </trkpt>
      <trkpt lat="47.25851" lon="6.05517">
        <ele>345</ele>
        <time>2021-09-05T09:51:40Z</time>
      </trkpt>
      <trkpt lat="47.25853" lon="6.05519">
        <ele>345</ele>
        <time>2021-09-05T09:51:41Z</time>
      </trkpt>
      <trkpt lat="47.25854" lon="6.05521">
        <ele>345</ele>
        <time>2021-09-05T09:51:42Z</time>
      </trkpt>
      <trkpt lat="47.25856" lon="6.05523">
        <ele>345</ele>
        <time>2021-09-05T09:51:43Z</time>
      </trkpt>
      <trkpt lat="47.25857" lon="6.05531">
        <ele>345.2</ele>
        <time>2021-09-05T09:51:46Z</time>
      </trkpt>
      <trkpt lat="47.25857" lon="6.05532">
        <ele>345.2</ele>
        <time>2021-09-05T09:51:47Z</time>
      </trkpt>
      <trkpt lat="47.25856" lon="6.05534">
        <ele>345.2</ele>
        <time>2021-09-05T09:51:48Z</time>
      </trkpt>
      <trkpt lat="47.25856" lon="6.05535">
        <ele>345.4</ele>
        <time>2021-09-05T09:51:49Z</time>
      </trkpt>
      <trkpt lat="47.25855" lon="6.05537">
        <ele>345.4</ele>
        <time>2021-09-05T09:51:50Z</time>
      </trkpt>
      <trkpt lat="47.25854" lon="6.05538">
        <ele>345.4</ele>
        <time>2021-09-05T09:51:51Z</time>
      </trkpt>
      <trkpt lat="47.25852" lon="6.05539">
        <ele>345.4</ele>
        <time>2021-09-05T09:51:52Z</time>
      </trkpt>
      <trkpt lat="47.25851" lon="6.05541">
        <ele>345.4</ele>
        <time>2021-09-05T09:51:53Z</time>
      </trkpt>
      <trkpt lat="47.25846" lon="6.05546">
        <ele>345.4</ele>
        <time>2021-09-05T09:51:55Z</time>
      </trkpt>
      <trkpt lat="47.25845" lon="6.05548">
        <ele>345.4</ele>
        <time>2021-09-05T09:51:56Z</time>
      </trkpt>
      <trkpt lat="47.25845" lon="6.05552">
        <ele>345.4</ele>
        <time>2021-09-05T09:51:57Z</time>
      </trkpt>
      <trkpt lat="47.25844" lon="6.05554">
        <ele>345.4</ele>
        <time>2021-09-05T09:51:58Z</time>
      </trkpt>
      <trkpt lat="47.25844" lon="6.05557">
        <ele>345.2</ele>
        <time>2021-09-05T09:51:59Z</time>
      </trkpt>
      <trkpt lat="47.25843" lon="6.05559">
        <ele>345.2</ele>
        <time>2021-09-05T09:52:00Z</time>
      </trkpt>
      <trkpt lat="47.25842" lon="6.05562">
        <ele>345.2</ele>
        <time>2021-09-05T09:52:01Z</time>
      </trkpt>
      <trkpt lat="47.25829" lon="6.05585">
        <ele>344.8</ele>
        <time>2021-09-05T09:52:08Z</time>
      </trkpt>
      <trkpt lat="47.25829" lon="6.0559">
        <ele>344.8</ele>
        <time>2021-09-05T09:52:09Z</time>
      </trkpt>
      <trkpt lat="47.25821" lon="6.05609">
        <ele>344.4</ele>
        <time>2021-09-05T09:52:13Z</time>
      </trkpt>
      <trkpt lat="47.2582" lon="6.05613">
        <ele>344.4</ele>
        <time>2021-09-05T09:52:14Z</time>
      </trkpt>
      <trkpt lat="47.25819" lon="6.05615">
        <ele>344.2</ele>
        <time>2021-09-05T09:52:15Z</time>
      </trkpt>
      <trkpt lat="47.25819" lon="6.05618">
        <ele>344.2</ele>
        <time>2021-09-05T09:52:16Z</time>
      </trkpt>
      <trkpt lat="47.25816" lon="6.05622">
        <ele>344.2</ele>
        <time>2021-09-05T09:52:17Z</time>
      </trkpt>
      <trkpt lat="47.25813" lon="6.05627">
        <ele>344</ele>
        <time>2021-09-05T09:52:18Z</time>
      </trkpt>
      <trkpt lat="47.25809" lon="6.05631">
        <ele>343.8</ele>
        <time>2021-09-05T09:52:19Z</time>
      </trkpt>
      <trkpt lat="47.25805" lon="6.05644">
        <ele>343.4</ele>
        <time>2021-09-05T09:52:22Z</time>
      </trkpt>
      <trkpt lat="47.25802" lon="6.05651">
        <ele>343.2</ele>
        <time>2021-09-05T09:52:24Z</time>
      </trkpt>
      <trkpt lat="47.25799" lon="6.05653">
        <ele>342.8</ele>
        <time>2021-09-05T09:52:25Z</time>
      </trkpt>
      <trkpt lat="47.25795" lon="6.05656">
        <ele>342.6</ele>
        <time>2021-09-05T09:52:26Z</time>
      </trkpt>
      <trkpt lat="47.25792" lon="6.05658">
        <ele>342.6</ele>
        <time>2021-09-05T09:52:27Z</time>
      </trkpt>
      <trkpt lat="47.25787" lon="6.0566">
        <ele>342.6</ele>
        <time>2021-09-05T09:52:28Z</time>
      </trkpt>
      <trkpt lat="47.25785" lon="6.05662">
        <ele>342.4</ele>
        <time>2021-09-05T09:52:29Z</time>
      </trkpt>
      <trkpt lat="47.25781" lon="6.05667">
        <ele>342</ele>
        <time>2021-09-05T09:52:32Z</time>
      </trkpt>
      <trkpt lat="47.25778" lon="6.05673">
        <ele>342</ele>
        <time>2021-09-05T09:52:33Z</time>
      </trkpt>
      <trkpt lat="47.25775" lon="6.05677">
        <ele>342</ele>
        <time>2021-09-05T09:52:34Z</time>
      </trkpt>
      <trkpt lat="47.25773" lon="6.05679">
        <ele>342</ele>
        <time>2021-09-05T09:52:35Z</time>
      </trkpt>
      <trkpt lat="47.25771" lon="6.0568">
        <ele>342</ele>
        <time>2021-09-05T09:52:36Z</time>
      </trkpt>
      <trkpt lat="47.2577" lon="6.05681">
        <ele>341.8</ele>
        <time>2021-09-05T09:52:37Z</time>
      </trkpt>
      <trkpt lat="47.25768" lon="6.05681">
        <ele>341.8</ele>
        <time>2021-09-05T09:52:38Z</time>
      </trkpt>
      <trkpt lat="47.25766" lon="6.0568">
        <ele>341.8</ele>
        <time>2021-09-05T09:52:39Z</time>
      </trkpt>
      <trkpt lat="47.25763" lon="6.0568">
        <ele>341.6</ele>
        <time>2021-09-05T09:52:40Z</time>
      </trkpt>
      <trkpt lat="47.25761" lon="6.05679">
        <ele>341.6</ele>
        <time>2021-09-05T09:52:41Z</time>
      </trkpt>
      <trkpt lat="47.2576" lon="6.05679">
        <ele>341.6</ele>
        <time>2021-09-05T09:52:42Z</time>
      </trkpt>
      <trkpt lat="47.2576" lon="6.05678">
        <ele>341.6</ele>
        <time>2021-09-05T09:52:43Z</time>
      </trkpt>
      <trkpt lat="47.2576" lon="6.05678">
        <ele>341.6</ele>
        <time>2021-09-05T09:52:44Z</time>
      </trkpt>
      <trkpt lat="47.25759" lon="6.05681">
        <ele>341.8</ele>
        <time>2021-09-05T09:52:45Z</time>
      </trkpt>
      <trkpt lat="47.25757" lon="6.05683">
        <ele>341.8</ele>
        <time>2021-09-05T09:52:46Z</time>
      </trkpt>
      <trkpt lat="47.25755" lon="6.05687">
        <ele>341.8</ele>
        <time>2021-09-05T09:52:47Z</time>
      </trkpt>
      <trkpt lat="47.25754" lon="6.05695">
        <ele>341.8</ele>
        <time>2021-09-05T09:52:49Z</time>
      </trkpt>
      <trkpt lat="47.25751" lon="6.057">
        <ele>341.8</ele>
        <time>2021-09-05T09:52:51Z</time>
      </trkpt>
      <trkpt lat="47.25745" lon="6.05708">
        <ele>341.6</ele>
        <time>2021-09-05T09:52:53Z</time>
      </trkpt>
      <trkpt lat="47.25737" lon="6.05716">
        <ele>341.2</ele>
        <time>2021-09-05T09:52:56Z</time>
      </trkpt>
      <trkpt lat="47.25734" lon="6.05722">
        <ele>340.8</ele>
        <time>2021-09-05T09:52:58Z</time>
      </trkpt>
      <trkpt lat="47.25725" lon="6.05732">
        <ele>340.6</ele>
        <time>2021-09-05T09:53:00Z</time>
      </trkpt>
      <trkpt lat="47.2572" lon="6.05737">
        <ele>340.6</ele>
        <time>2021-09-05T09:53:01Z</time>
      </trkpt>
      <trkpt lat="47.25717" lon="6.05741">
        <ele>340.4</ele>
        <time>2021-09-05T09:53:02Z</time>
      </trkpt>
      <trkpt lat="47.25716" lon="6.05745">
        <ele>340.2</ele>
        <time>2021-09-05T09:53:03Z</time>
      </trkpt>
      <trkpt lat="47.25713" lon="6.05748">
        <ele>340.2</ele>
        <time>2021-09-05T09:53:04Z</time>
      </trkpt>
      <trkpt lat="47.25711" lon="6.05751">
        <ele>340</ele>
        <time>2021-09-05T09:53:05Z</time>
      </trkpt>
      <trkpt lat="47.2571" lon="6.05754">
        <ele>339.8</ele>
        <time>2021-09-05T09:53:06Z</time>
      </trkpt>
      <trkpt lat="47.25709" lon="6.05756">
        <ele>339.4</ele>
        <time>2021-09-05T09:53:07Z</time>
      </trkpt>
      <trkpt lat="47.25709" lon="6.05756">
        <ele>339.2</ele>
        <time>2021-09-05T09:53:08Z</time>
      </trkpt>
      <trkpt lat="47.25707" lon="6.05758">
        <ele>339</ele>
        <time>2021-09-05T09:53:09Z</time>
      </trkpt>
      <trkpt lat="47.25707" lon="6.05761">
        <ele>339</ele>
        <time>2021-09-05T09:53:10Z</time>
      </trkpt>
      <trkpt lat="47.25707" lon="6.05763">
        <ele>339</ele>
        <time>2021-09-05T09:53:11Z</time>
      </trkpt>
      <trkpt lat="47.25707" lon="6.05768">
        <ele>338.8</ele>
        <time>2021-09-05T09:53:12Z</time>
      </trkpt>
      <trkpt lat="47.25706" lon="6.0577">
        <ele>338.8</ele>
        <time>2021-09-05T09:53:13Z</time>
      </trkpt>
      <trkpt lat="47.25706" lon="6.05771">
        <ele>338.6</ele>
        <time>2021-09-05T09:53:14Z</time>
      </trkpt>
      <trkpt lat="47.25706" lon="6.05773">
        <ele>338.4</ele>
        <time>2021-09-05T09:53:15Z</time>
      </trkpt>
      <trkpt lat="47.25707" lon="6.05777">
        <ele>338.4</ele>
        <time>2021-09-05T09:53:16Z</time>
      </trkpt>
      <trkpt lat="47.25706" lon="6.0578">
        <ele>338.2</ele>
        <time>2021-09-05T09:53:17Z</time>
      </trkpt>
      <trkpt lat="47.25706" lon="6.05783">
        <ele>338.2</ele>
        <time>2021-09-05T09:53:18Z</time>
      </trkpt>
      <trkpt lat="47.25706" lon="6.05786">
        <ele>338</ele>
        <time>2021-09-05T09:53:19Z</time>
      </trkpt>
      <trkpt lat="47.25705" lon="6.05789">
        <ele>338</ele>
        <time>2021-09-05T09:53:20Z</time>
      </trkpt>
      <trkpt lat="47.25705" lon="6.05793">
        <ele>337.8</ele>
        <time>2021-09-05T09:53:21Z</time>
      </trkpt>
      <trkpt lat="47.25701" lon="6.05809">
        <ele>337.4</ele>
        <time>2021-09-05T09:53:24Z</time>
      </trkpt>
      <trkpt lat="47.25697" lon="6.05823">
        <ele>336.4</ele>
        <time>2021-09-05T09:53:27Z</time>
      </trkpt>
      <trkpt lat="47.25696" lon="6.05828">
        <ele>336</ele>
        <time>2021-09-05T09:53:28Z</time>
      </trkpt>
      <trkpt lat="47.25696" lon="6.05835">
        <ele>336</ele>
        <time>2021-09-05T09:53:29Z</time>
      </trkpt>
      <trkpt lat="47.25695" lon="6.05843">
        <ele>335.6</ele>
        <time>2021-09-05T09:53:30Z</time>
      </trkpt>
      <trkpt lat="47.25694" lon="6.0585">
        <ele>335.2</ele>
        <time>2021-09-05T09:53:31Z</time>
      </trkpt>
      <trkpt lat="47.25693" lon="6.05856">
        <ele>334.6</ele>
        <time>2021-09-05T09:53:32Z</time>
      </trkpt>
      <trkpt lat="47.25693" lon="6.05857">
        <ele>334.4</ele>
        <time>2021-09-05T09:53:33Z</time>
      </trkpt>
      <trkpt lat="47.25693" lon="6.05861">
        <ele>334</ele>
        <time>2021-09-05T09:53:34Z</time>
      </trkpt>
      <trkpt lat="47.25693" lon="6.05865">
        <ele>333.6</ele>
        <time>2021-09-05T09:53:35Z</time>
      </trkpt>
      <trkpt lat="47.25696" lon="6.05876">
        <ele>333.2</ele>
        <time>2021-09-05T09:53:37Z</time>
      </trkpt>
      <trkpt lat="47.25697" lon="6.0588">
        <ele>333</ele>
        <time>2021-09-05T09:53:38Z</time>
      </trkpt>
      <trkpt lat="47.25699" lon="6.05884">
        <ele>332.8</ele>
        <time>2021-09-05T09:53:39Z</time>
      </trkpt>
      <trkpt lat="47.257" lon="6.05888">
        <ele>332.6</ele>
        <time>2021-09-05T09:53:40Z</time>
      </trkpt>
      <trkpt lat="47.25702" lon="6.05892">
        <ele>332.4</ele>
        <time>2021-09-05T09:53:41Z</time>
      </trkpt>
      <trkpt lat="47.25703" lon="6.05895">
        <ele>332</ele>
        <time>2021-09-05T09:53:42Z</time>
      </trkpt>
      <trkpt lat="47.25704" lon="6.05897">
        <ele>331.8</ele>
        <time>2021-09-05T09:53:43Z</time>
      </trkpt>
      <trkpt lat="47.25705" lon="6.059">
        <ele>331.4</ele>
        <time>2021-09-05T09:53:44Z</time>
      </trkpt>
      <trkpt lat="47.25703" lon="6.05907">
        <ele>330.4</ele>
        <time>2021-09-05T09:53:46Z</time>
      </trkpt>
      <trkpt lat="47.25698" lon="6.05914">
        <ele>330</ele>
        <time>2021-09-05T09:53:48Z</time>
      </trkpt>
      <trkpt lat="47.25696" lon="6.05919">
        <ele>329.8</ele>
        <time>2021-09-05T09:53:49Z</time>
      </trkpt>
      <trkpt lat="47.25693" lon="6.05924">
        <ele>329.8</ele>
        <time>2021-09-05T09:53:50Z</time>
      </trkpt>
      <trkpt lat="47.25693" lon="6.05924">
        <ele>329.6</ele>
        <time>2021-09-05T09:53:51Z</time>
      </trkpt>
      <trkpt lat="47.25686" lon="6.05936">
        <ele>329.4</ele>
        <time>2021-09-05T09:53:53Z</time>
      </trkpt>
      <trkpt lat="47.25683" lon="6.05942">
        <ele>329.2</ele>
        <time>2021-09-05T09:53:55Z</time>
      </trkpt>
      <trkpt lat="47.25681" lon="6.05946">
        <ele>329.2</ele>
        <time>2021-09-05T09:53:56Z</time>
      </trkpt>
      <trkpt lat="47.25679" lon="6.0595">
        <ele>329.2</ele>
        <time>2021-09-05T09:53:57Z</time>
      </trkpt>
      <trkpt lat="47.25677" lon="6.05952">
        <ele>329.2</ele>
        <time>2021-09-05T09:53:58Z</time>
      </trkpt>
      <trkpt lat="47.25675" lon="6.05954">
        <ele>329.2</ele>
        <time>2021-09-05T09:53:59Z</time>
      </trkpt>
      <trkpt lat="47.25674" lon="6.05955">
        <ele>329.2</ele>
        <time>2021-09-05T09:54:00Z</time>
      </trkpt>
      <trkpt lat="47.25674" lon="6.05955">
        <ele>329.2</ele>
        <time>2021-09-05T09:54:01Z</time>
      </trkpt>
      <trkpt lat="47.25671" lon="6.05958">
        <ele>329.2</ele>
        <time>2021-09-05T09:54:02Z</time>
      </trkpt>
      <trkpt lat="47.2567" lon="6.05959">
        <ele>329.4</ele>
        <time>2021-09-05T09:54:03Z</time>
      </trkpt>
      <trkpt lat="47.25669" lon="6.0596">
        <ele>329.4</ele>
        <time>2021-09-05T09:54:04Z</time>
      </trkpt>
      <trkpt lat="47.2567" lon="6.05964">
        <ele>329.4</ele>
        <time>2021-09-05T09:54:05Z</time>
      </trkpt>
      <trkpt lat="47.2567" lon="6.05977">
        <ele>329.6</ele>
        <time>2021-09-05T09:54:08Z</time>
      </trkpt>
      <trkpt lat="47.25668" lon="6.05981">
        <ele>329.6</ele>
        <time>2021-09-05T09:54:09Z</time>
      </trkpt>
      <trkpt lat="47.25666" lon="6.05984">
        <ele>329.6</ele>
        <time>2021-09-05T09:54:10Z</time>
      </trkpt>
      <trkpt lat="47.25657" lon="6.06006">
        <ele>328.6</ele>
        <time>2021-09-05T09:54:15Z</time>
      </trkpt>
      <trkpt lat="47.25652" lon="6.06026">
        <ele>328.6</ele>
        <time>2021-09-05T09:54:19Z</time>
      </trkpt>
      <trkpt lat="47.2565" lon="6.06028">
        <ele>328.6</ele>
        <time>2021-09-05T09:54:20Z</time>
      </trkpt>
      <trkpt lat="47.25649" lon="6.0603">
        <ele>328.6</ele>
        <time>2021-09-05T09:54:21Z</time>
      </trkpt>
      <trkpt lat="47.25647" lon="6.06033">
        <ele>328.6</ele>
        <time>2021-09-05T09:54:22Z</time>
      </trkpt>
      <trkpt lat="47.25646" lon="6.06038">
        <ele>328.6</ele>
        <time>2021-09-05T09:54:23Z</time>
      </trkpt>
      <trkpt lat="47.25645" lon="6.06043">
        <ele>328.6</ele>
        <time>2021-09-05T09:54:24Z</time>
      </trkpt>
      <trkpt lat="47.25642" lon="6.06047">
        <ele>328.6</ele>
        <time>2021-09-05T09:54:25Z</time>
      </trkpt>
      <trkpt lat="47.25639" lon="6.06052">
        <ele>328.4</ele>
        <time>2021-09-05T09:54:26Z</time>
      </trkpt>
      <trkpt lat="47.25638" lon="6.06056">
        <ele>328.4</ele>
        <time>2021-09-05T09:54:27Z</time>
      </trkpt>
      <trkpt lat="47.25638" lon="6.06059">
        <ele>328.2</ele>
        <time>2021-09-05T09:54:28Z</time>
      </trkpt>
      <trkpt lat="47.25639" lon="6.06062">
        <ele>328.2</ele>
        <time>2021-09-05T09:54:29Z</time>
      </trkpt>
      <trkpt lat="47.25641" lon="6.06067">
        <ele>328.2</ele>
        <time>2021-09-05T09:54:30Z</time>
      </trkpt>
      <trkpt lat="47.2564" lon="6.06069">
        <ele>328</ele>
        <time>2021-09-05T09:54:31Z</time>
      </trkpt>
      <trkpt lat="47.25638" lon="6.06071">
        <ele>328</ele>
        <time>2021-09-05T09:54:32Z</time>
      </trkpt>
      <trkpt lat="47.25638" lon="6.06071">
        <ele>328</ele>
        <time>2021-09-05T09:54:33Z</time>
      </trkpt>
      <trkpt lat="47.25638" lon="6.06073">
        <ele>328</ele>
        <time>2021-09-05T09:54:34Z</time>
      </trkpt>
      <trkpt lat="47.25638" lon="6.06074">
        <ele>328</ele>
        <time>2021-09-05T09:54:35Z</time>
      </trkpt>
      <trkpt lat="47.25637" lon="6.06076">
        <ele>328</ele>
        <time>2021-09-05T09:54:36Z</time>
      </trkpt>
      <trkpt lat="47.25635" lon="6.0608">
        <ele>328.2</ele>
        <time>2021-09-05T09:54:37Z</time>
      </trkpt>
      <trkpt lat="47.25632" lon="6.06085">
        <ele>328.2</ele>
        <time>2021-09-05T09:54:38Z</time>
      </trkpt>
      <trkpt lat="47.25629" lon="6.06089">
        <ele>328.4</ele>
        <time>2021-09-05T09:54:39Z</time>
      </trkpt>
      <trkpt lat="47.25627" lon="6.06093">
        <ele>328.4</ele>
        <time>2021-09-05T09:54:40Z</time>
      </trkpt>
      <trkpt lat="47.25623" lon="6.06098">
        <ele>328.4</ele>
        <time>2021-09-05T09:54:41Z</time>
      </trkpt>
      <trkpt lat="47.25622" lon="6.06101">
        <ele>328.6</ele>
        <time>2021-09-05T09:54:42Z</time>
      </trkpt>
      <trkpt lat="47.25622" lon="6.06104">
        <ele>328.6</ele>
        <time>2021-09-05T09:54:43Z</time>
      </trkpt>
      <trkpt lat="47.25619" lon="6.06108">
        <ele>328.8</ele>
        <time>2021-09-05T09:54:44Z</time>
      </trkpt>
      <trkpt lat="47.25609" lon="6.06125">
        <ele>329</ele>
        <time>2021-09-05T09:54:48Z</time>
      </trkpt>
      <trkpt lat="47.25608" lon="6.06127">
        <ele>329</ele>
        <time>2021-09-05T09:54:49Z</time>
      </trkpt>
      <trkpt lat="47.25609" lon="6.06129">
        <ele>329.2</ele>
        <time>2021-09-05T09:54:50Z</time>
      </trkpt>
      <trkpt lat="47.25607" lon="6.06133">
        <ele>329.4</ele>
        <time>2021-09-05T09:54:51Z</time>
      </trkpt>
      <trkpt lat="47.25601" lon="6.0614">
        <ele>329.8</ele>
        <time>2021-09-05T09:54:53Z</time>
      </trkpt>
      <trkpt lat="47.25599" lon="6.06143">
        <ele>329.8</ele>
        <time>2021-09-05T09:54:54Z</time>
      </trkpt>
      <trkpt lat="47.25596" lon="6.06145">
        <ele>330</ele>
        <time>2021-09-05T09:54:55Z</time>
      </trkpt>
      <trkpt lat="47.25596" lon="6.06147">
        <ele>330</ele>
        <time>2021-09-05T09:54:56Z</time>
      </trkpt>
      <trkpt lat="47.25595" lon="6.0615">
        <ele>330.2</ele>
        <time>2021-09-05T09:54:57Z</time>
      </trkpt>
      <trkpt lat="47.25593" lon="6.06153">
        <ele>330.2</ele>
        <time>2021-09-05T09:54:58Z</time>
      </trkpt>
      <trkpt lat="47.25589" lon="6.06156">
        <ele>330.4</ele>
        <time>2021-09-05T09:54:59Z</time>
      </trkpt>
      <trkpt lat="47.25588" lon="6.06158">
        <ele>330.6</ele>
        <time>2021-09-05T09:55:00Z</time>
      </trkpt>
      <trkpt lat="47.25586" lon="6.06159">
        <ele>330.8</ele>
        <time>2021-09-05T09:55:01Z</time>
      </trkpt>
      <trkpt lat="47.25584" lon="6.06163">
        <ele>331</ele>
        <time>2021-09-05T09:55:02Z</time>
      </trkpt>
      <trkpt lat="47.25583" lon="6.06165">
        <ele>331</ele>
        <time>2021-09-05T09:55:03Z</time>
      </trkpt>
      <trkpt lat="47.2558" lon="6.06169">
        <ele>331.2</ele>
        <time>2021-09-05T09:55:04Z</time>
      </trkpt>
      <trkpt lat="47.25578" lon="6.06172">
        <ele>331.2</ele>
        <time>2021-09-05T09:55:05Z</time>
      </trkpt>
      <trkpt lat="47.25578" lon="6.06174">
        <ele>331.4</ele>
        <time>2021-09-05T09:55:06Z</time>
      </trkpt>
      <trkpt lat="47.25574" lon="6.06176">
        <ele>331.6</ele>
        <time>2021-09-05T09:55:07Z</time>
      </trkpt>
      <trkpt lat="47.25571" lon="6.06178">
        <ele>331.6</ele>
        <time>2021-09-05T09:55:08Z</time>
      </trkpt>
      <trkpt lat="47.25566" lon="6.06183">
        <ele>331.8</ele>
        <time>2021-09-05T09:55:09Z</time>
      </trkpt>
      <trkpt lat="47.25564" lon="6.06187">
        <ele>332</ele>
        <time>2021-09-05T09:55:10Z</time>
      </trkpt>
      <trkpt lat="47.25562" lon="6.0619">
        <ele>332.2</ele>
        <time>2021-09-05T09:55:11Z</time>
      </trkpt>
      <trkpt lat="47.25559" lon="6.06193">
        <ele>332.4</ele>
        <time>2021-09-05T09:55:12Z</time>
      </trkpt>
      <trkpt lat="47.25558" lon="6.06196">
        <ele>332.4</ele>
        <time>2021-09-05T09:55:13Z</time>
      </trkpt>
      <trkpt lat="47.25558" lon="6.06199">
        <ele>332.4</ele>
        <time>2021-09-05T09:55:14Z</time>
      </trkpt>
      <trkpt lat="47.25555" lon="6.06203">
        <ele>332.6</ele>
        <time>2021-09-05T09:55:15Z</time>
      </trkpt>
      <trkpt lat="47.25553" lon="6.06206">
        <ele>333</ele>
        <time>2021-09-05T09:55:16Z</time>
      </trkpt>
      <trkpt lat="47.25551" lon="6.06208">
        <ele>333</ele>
        <time>2021-09-05T09:55:17Z</time>
      </trkpt>
      <trkpt lat="47.25549" lon="6.0621">
        <ele>333.2</ele>
        <time>2021-09-05T09:55:18Z</time>
      </trkpt>
      <trkpt lat="47.25548" lon="6.06212">
        <ele>333.4</ele>
        <time>2021-09-05T09:55:19Z</time>
      </trkpt>
      <trkpt lat="47.25548" lon="6.06214">
        <ele>333.4</ele>
        <time>2021-09-05T09:55:20Z</time>
      </trkpt>
      <trkpt lat="47.25546" lon="6.06218">
        <ele>333.4</ele>
        <time>2021-09-05T09:55:21Z</time>
      </trkpt>
      <trkpt lat="47.25545" lon="6.06221">
        <ele>333.6</ele>
        <time>2021-09-05T09:55:22Z</time>
      </trkpt>
      <trkpt lat="47.25543" lon="6.06225">
        <ele>333.8</ele>
        <time>2021-09-05T09:55:23Z</time>
      </trkpt>
      <trkpt lat="47.25542" lon="6.06227">
        <ele>334</ele>
        <time>2021-09-05T09:55:24Z</time>
      </trkpt>
      <trkpt lat="47.25542" lon="6.06229">
        <ele>334.2</ele>
        <time>2021-09-05T09:55:25Z</time>
      </trkpt>
      <trkpt lat="47.25541" lon="6.0623">
        <ele>334.2</ele>
        <time>2021-09-05T09:55:26Z</time>
      </trkpt>
      <trkpt lat="47.25539" lon="6.06233">
        <ele>334.4</ele>
        <time>2021-09-05T09:55:27Z</time>
      </trkpt>
      <trkpt lat="47.25538" lon="6.06236">
        <ele>334.4</ele>
        <time>2021-09-05T09:55:28Z</time>
      </trkpt>
      <trkpt lat="47.25537" lon="6.06238">
        <ele>334.4</ele>
        <time>2021-09-05T09:55:29Z</time>
      </trkpt>
      <trkpt lat="47.25535" lon="6.06241">
        <ele>334.6</ele>
        <time>2021-09-05T09:55:30Z</time>
      </trkpt>
      <trkpt lat="47.25533" lon="6.06243">
        <ele>334.8</ele>
        <time>2021-09-05T09:55:31Z</time>
      </trkpt>
      <trkpt lat="47.2553" lon="6.06247">
        <ele>334.8</ele>
        <time>2021-09-05T09:55:32Z</time>
      </trkpt>
      <trkpt lat="47.25529" lon="6.06251">
        <ele>335</ele>
        <time>2021-09-05T09:55:33Z</time>
      </trkpt>
      <trkpt lat="47.25528" lon="6.06253">
        <ele>335</ele>
        <time>2021-09-05T09:55:34Z</time>
      </trkpt>
      <trkpt lat="47.25525" lon="6.06258">
        <ele>335.2</ele>
        <time>2021-09-05T09:55:35Z</time>
      </trkpt>
      <trkpt lat="47.25523" lon="6.06261">
        <ele>335.2</ele>
        <time>2021-09-05T09:55:36Z</time>
      </trkpt>
      <trkpt lat="47.25522" lon="6.06264">
        <ele>335.4</ele>
        <time>2021-09-05T09:55:37Z</time>
      </trkpt>
      <trkpt lat="47.2552" lon="6.06267">
        <ele>335.4</ele>
        <time>2021-09-05T09:55:38Z</time>
      </trkpt>
      <trkpt lat="47.25519" lon="6.06269">
        <ele>335.4</ele>
        <time>2021-09-05T09:55:39Z</time>
      </trkpt>
      <trkpt lat="47.25518" lon="6.06272">
        <ele>335.4</ele>
        <time>2021-09-05T09:55:40Z</time>
      </trkpt>
      <trkpt lat="47.25515" lon="6.06276">
        <ele>335.6</ele>
        <time>2021-09-05T09:55:41Z</time>
      </trkpt>
      <trkpt lat="47.25513" lon="6.06279">
        <ele>335.6</ele>
        <time>2021-09-05T09:55:42Z</time>
      </trkpt>
      <trkpt lat="47.25511" lon="6.06282">
        <ele>335.6</ele>
        <time>2021-09-05T09:55:43Z</time>
      </trkpt>
      <trkpt lat="47.25509" lon="6.06286">
        <ele>335.6</ele>
        <time>2021-09-05T09:55:44Z</time>
      </trkpt>
      <trkpt lat="47.25507" lon="6.06288">
        <ele>335.8</ele>
        <time>2021-09-05T09:55:45Z</time>
      </trkpt>
      <trkpt lat="47.25503" lon="6.06293">
        <ele>335.8</ele>
        <time>2021-09-05T09:55:46Z</time>
      </trkpt>
      <trkpt lat="47.255" lon="6.06298">
        <ele>335.8</ele>
        <time>2021-09-05T09:55:47Z</time>
      </trkpt>
      <trkpt lat="47.25496" lon="6.06303">
        <ele>336</ele>
        <time>2021-09-05T09:55:48Z</time>
      </trkpt>
      <trkpt lat="47.25493" lon="6.06307">
        <ele>336</ele>
        <time>2021-09-05T09:55:49Z</time>
      </trkpt>
      <trkpt lat="47.25479" lon="6.06328">
        <ele>336</ele>
        <time>2021-09-05T09:55:53Z</time>
      </trkpt>
      <trkpt lat="47.25472" lon="6.0634">
        <ele>335.8</ele>
        <time>2021-09-05T09:55:56Z</time>
      </trkpt>
      <trkpt lat="47.2547" lon="6.06343">
        <ele>335.8</ele>
        <time>2021-09-05T09:55:57Z</time>
      </trkpt>
      <trkpt lat="47.25467" lon="6.06345">
        <ele>335.8</ele>
        <time>2021-09-05T09:55:58Z</time>
      </trkpt>
      <trkpt lat="47.25466" lon="6.06348">
        <ele>335.8</ele>
        <time>2021-09-05T09:55:59Z</time>
      </trkpt>
      <trkpt lat="47.25464" lon="6.0635">
        <ele>335.8</ele>
        <time>2021-09-05T09:56:00Z</time>
      </trkpt>
      <trkpt lat="47.25462" lon="6.06352">
        <ele>335.6</ele>
        <time>2021-09-05T09:56:01Z</time>
      </trkpt>
      <trkpt lat="47.25461" lon="6.06354">
        <ele>335.6</ele>
        <time>2021-09-05T09:56:02Z</time>
      </trkpt>
      <trkpt lat="47.25459" lon="6.06358">
        <ele>335.6</ele>
        <time>2021-09-05T09:56:03Z</time>
      </trkpt>
      <trkpt lat="47.25457" lon="6.0636">
        <ele>335.8</ele>
        <time>2021-09-05T09:56:04Z</time>
      </trkpt>
      <trkpt lat="47.25451" lon="6.06369">
        <ele>335.6</ele>
        <time>2021-09-05T09:56:07Z</time>
      </trkpt>
      <trkpt lat="47.25449" lon="6.06372">
        <ele>335.8</ele>
        <time>2021-09-05T09:56:08Z</time>
      </trkpt>
      <trkpt lat="47.25446" lon="6.06375">
        <ele>335.8</ele>
        <time>2021-09-05T09:56:09Z</time>
      </trkpt>
      <trkpt lat="47.25443" lon="6.06379">
        <ele>335.8</ele>
        <time>2021-09-05T09:56:10Z</time>
      </trkpt>
      <trkpt lat="47.25441" lon="6.06382">
        <ele>336</ele>
        <time>2021-09-05T09:56:11Z</time>
      </trkpt>
      <trkpt lat="47.25435" lon="6.06388">
        <ele>336.2</ele>
        <time>2021-09-05T09:56:13Z</time>
      </trkpt>
      <trkpt lat="47.25425" lon="6.06402">
        <ele>336.4</ele>
        <time>2021-09-05T09:56:17Z</time>
      </trkpt>
      <trkpt lat="47.25423" lon="6.06405">
        <ele>336.4</ele>
        <time>2021-09-05T09:56:18Z</time>
      </trkpt>
      <trkpt lat="47.2542" lon="6.06409">
        <ele>336.6</ele>
        <time>2021-09-05T09:56:19Z</time>
      </trkpt>
      <trkpt lat="47.25416" lon="6.06414">
        <ele>336.6</ele>
        <time>2021-09-05T09:56:20Z</time>
      </trkpt>
      <trkpt lat="47.25406" lon="6.06424">
        <ele>336.6</ele>
        <time>2021-09-05T09:56:23Z</time>
      </trkpt>
      <trkpt lat="47.25383" lon="6.06449">
        <ele>337.2</ele>
        <time>2021-09-05T09:56:30Z</time>
      </trkpt>
      <trkpt lat="47.25377" lon="6.06453">
        <ele>337.2</ele>
        <time>2021-09-05T09:56:32Z</time>
      </trkpt>
      <trkpt lat="47.2537" lon="6.06457">
        <ele>337.6</ele>
        <time>2021-09-05T09:56:35Z</time>
      </trkpt>
      <trkpt lat="47.25362" lon="6.06463">
        <ele>337.6</ele>
        <time>2021-09-05T09:56:38Z</time>
      </trkpt>
      <trkpt lat="47.2536" lon="6.06464">
        <ele>337.6</ele>
        <time>2021-09-05T09:56:39Z</time>
      </trkpt>
      <trkpt lat="47.25358" lon="6.06465">
        <ele>337.6</ele>
        <time>2021-09-05T09:56:40Z</time>
      </trkpt>
      <trkpt lat="47.25356" lon="6.06465">
        <ele>337.8</ele>
        <time>2021-09-05T09:56:41Z</time>
      </trkpt>
      <trkpt lat="47.25354" lon="6.06465">
        <ele>337.8</ele>
        <time>2021-09-05T09:56:42Z</time>
      </trkpt>
      <trkpt lat="47.25352" lon="6.06464">
        <ele>337.8</ele>
        <time>2021-09-05T09:56:43Z</time>
      </trkpt>
      <trkpt lat="47.2535" lon="6.06462">
        <ele>337.8</ele>
        <time>2021-09-05T09:56:44Z</time>
      </trkpt>
      <trkpt lat="47.25349" lon="6.0646">
        <ele>337.8</ele>
        <time>2021-09-05T09:56:45Z</time>
      </trkpt>
      <trkpt lat="47.25347" lon="6.06458">
        <ele>337.8</ele>
        <time>2021-09-05T09:56:46Z</time>
      </trkpt>
      <trkpt lat="47.25346" lon="6.06455">
        <ele>337.8</ele>
        <time>2021-09-05T09:56:47Z</time>
      </trkpt>
      <trkpt lat="47.25344" lon="6.06451">
        <ele>337.8</ele>
        <time>2021-09-05T09:56:48Z</time>
      </trkpt>
      <trkpt lat="47.2534" lon="6.06442">
        <ele>338</ele>
        <time>2021-09-05T09:56:51Z</time>
      </trkpt>
      <trkpt lat="47.25331" lon="6.06428">
        <ele>338.2</ele>
        <time>2021-09-05T09:56:56Z</time>
      </trkpt>
      <trkpt lat="47.25323" lon="6.06426">
        <ele>338.6</ele>
        <time>2021-09-05T09:56:59Z</time>
      </trkpt>
      <trkpt lat="47.25321" lon="6.06427">
        <ele>338.6</ele>
        <time>2021-09-05T09:57:00Z</time>
      </trkpt>
      <trkpt lat="47.25318" lon="6.06428">
        <ele>338.8</ele>
        <time>2021-09-05T09:57:01Z</time>
      </trkpt>
      <trkpt lat="47.25316" lon="6.06431">
        <ele>338.8</ele>
        <time>2021-09-05T09:57:02Z</time>
      </trkpt>
      <trkpt lat="47.25314" lon="6.06433">
        <ele>339</ele>
        <time>2021-09-05T09:57:03Z</time>
      </trkpt>
      <trkpt lat="47.25312" lon="6.06435">
        <ele>339</ele>
        <time>2021-09-05T09:57:04Z</time>
      </trkpt>
      <trkpt lat="47.25309" lon="6.06438">
        <ele>339.2</ele>
        <time>2021-09-05T09:57:05Z</time>
      </trkpt>
      <trkpt lat="47.25303" lon="6.06446">
        <ele>339.6</ele>
        <time>2021-09-05T09:57:08Z</time>
      </trkpt>
      <trkpt lat="47.25301" lon="6.06448">
        <ele>339.6</ele>
        <time>2021-09-05T09:57:09Z</time>
      </trkpt>
      <trkpt lat="47.253" lon="6.0645">
        <ele>340</ele>
        <time>2021-09-05T09:57:10Z</time>
      </trkpt>
      <trkpt lat="47.25297" lon="6.06454">
        <ele>340.2</ele>
        <time>2021-09-05T09:57:12Z</time>
      </trkpt>
      <trkpt lat="47.25296" lon="6.06456">
        <ele>340.6</ele>
        <time>2021-09-05T09:57:13Z</time>
      </trkpt>
      <trkpt lat="47.25294" lon="6.06458">
        <ele>341</ele>
        <time>2021-09-05T09:57:14Z</time>
      </trkpt>
      <trkpt lat="47.25293" lon="6.0646">
        <ele>341.4</ele>
        <time>2021-09-05T09:57:15Z</time>
      </trkpt>
      <trkpt lat="47.25292" lon="6.06462">
        <ele>341.6</ele>
        <time>2021-09-05T09:57:16Z</time>
      </trkpt>
      <trkpt lat="47.25291" lon="6.06463">
        <ele>342.2</ele>
        <time>2021-09-05T09:57:17Z</time>
      </trkpt>
      <trkpt lat="47.2529" lon="6.06465">
        <ele>342.2</ele>
        <time>2021-09-05T09:57:18Z</time>
      </trkpt>
      <trkpt lat="47.25288" lon="6.06466">
        <ele>342.6</ele>
        <time>2021-09-05T09:57:19Z</time>
      </trkpt>
      <trkpt lat="47.25287" lon="6.06468">
        <ele>342.8</ele>
        <time>2021-09-05T09:57:20Z</time>
      </trkpt>
      <trkpt lat="47.25285" lon="6.0647">
        <ele>343</ele>
        <time>2021-09-05T09:57:21Z</time>
      </trkpt>
      <trkpt lat="47.25283" lon="6.06471">
        <ele>343.2</ele>
        <time>2021-09-05T09:57:22Z</time>
      </trkpt>
      <trkpt lat="47.25281" lon="6.06473">
        <ele>343.4</ele>
        <time>2021-09-05T09:57:23Z</time>
      </trkpt>
      <trkpt lat="47.25278" lon="6.06475">
        <ele>343.8</ele>
        <time>2021-09-05T09:57:24Z</time>
      </trkpt>
      <trkpt lat="47.25276" lon="6.06477">
        <ele>344</ele>
        <time>2021-09-05T09:57:25Z</time>
      </trkpt>
      <trkpt lat="47.25274" lon="6.06478">
        <ele>344.2</ele>
        <time>2021-09-05T09:57:26Z</time>
      </trkpt>
      <trkpt lat="47.25271" lon="6.0648">
        <ele>344.2</ele>
        <time>2021-09-05T09:57:27Z</time>
      </trkpt>
      <trkpt lat="47.25268" lon="6.06481">
        <ele>344.4</ele>
        <time>2021-09-05T09:57:28Z</time>
      </trkpt>
      <trkpt lat="47.25265" lon="6.06482">
        <ele>344.4</ele>
        <time>2021-09-05T09:57:29Z</time>
      </trkpt>
      <trkpt lat="47.25263" lon="6.06483">
        <ele>344.6</ele>
        <time>2021-09-05T09:57:30Z</time>
      </trkpt>
      <trkpt lat="47.2526" lon="6.06484">
        <ele>344.8</ele>
        <time>2021-09-05T09:57:31Z</time>
      </trkpt>
      <trkpt lat="47.25257" lon="6.06485">
        <ele>345</ele>
        <time>2021-09-05T09:57:32Z</time>
      </trkpt>
      <trkpt lat="47.25254" lon="6.06484">
        <ele>345</ele>
        <time>2021-09-05T09:57:33Z</time>
      </trkpt>
      <trkpt lat="47.25252" lon="6.06483">
        <ele>345.2</ele>
        <time>2021-09-05T09:57:34Z</time>
      </trkpt>
      <trkpt lat="47.25249" lon="6.06482">
        <ele>345.6</ele>
        <time>2021-09-05T09:57:35Z</time>
      </trkpt>
      <trkpt lat="47.25247" lon="6.0648">
        <ele>345.6</ele>
        <time>2021-09-05T09:57:36Z</time>
      </trkpt>
      <trkpt lat="47.25245" lon="6.06478">
        <ele>345.8</ele>
        <time>2021-09-05T09:57:37Z</time>
      </trkpt>
      <trkpt lat="47.25243" lon="6.06477">
        <ele>345.8</ele>
        <time>2021-09-05T09:57:38Z</time>
      </trkpt>
      <trkpt lat="47.2524" lon="6.06475">
        <ele>346.2</ele>
        <time>2021-09-05T09:57:39Z</time>
      </trkpt>
      <trkpt lat="47.25238" lon="6.06474">
        <ele>346.4</ele>
        <time>2021-09-05T09:57:40Z</time>
      </trkpt>
      <trkpt lat="47.25236" lon="6.06473">
        <ele>346.4</ele>
        <time>2021-09-05T09:57:41Z</time>
      </trkpt>
      <trkpt lat="47.25233" lon="6.06471">
        <ele>346.8</ele>
        <time>2021-09-05T09:57:42Z</time>
      </trkpt>
      <trkpt lat="47.25231" lon="6.0647">
        <ele>347</ele>
        <time>2021-09-05T09:57:43Z</time>
      </trkpt>
      <trkpt lat="47.25229" lon="6.06468">
        <ele>347.2</ele>
        <time>2021-09-05T09:57:44Z</time>
      </trkpt>
      <trkpt lat="47.25226" lon="6.06467">
        <ele>347.2</ele>
        <time>2021-09-05T09:57:45Z</time>
      </trkpt>
      <trkpt lat="47.25224" lon="6.06466">
        <ele>347.8</ele>
        <time>2021-09-05T09:57:46Z</time>
      </trkpt>
      <trkpt lat="47.25222" lon="6.06464">
        <ele>348.2</ele>
        <time>2021-09-05T09:57:47Z</time>
      </trkpt>
      <trkpt lat="47.2522" lon="6.06463">
        <ele>348.4</ele>
        <time>2021-09-05T09:57:48Z</time>
      </trkpt>
      <trkpt lat="47.25217" lon="6.06462">
        <ele>348.6</ele>
        <time>2021-09-05T09:57:49Z</time>
      </trkpt>
      <trkpt lat="47.25215" lon="6.0646">
        <ele>348.6</ele>
        <time>2021-09-05T09:57:50Z</time>
      </trkpt>
      <trkpt lat="47.25212" lon="6.06459">
        <ele>348.8</ele>
        <time>2021-09-05T09:57:51Z</time>
      </trkpt>
      <trkpt lat="47.25209" lon="6.06457">
        <ele>349</ele>
        <time>2021-09-05T09:57:52Z</time>
      </trkpt>
      <trkpt lat="47.25207" lon="6.06456">
        <ele>349.2</ele>
        <time>2021-09-05T09:57:53Z</time>
      </trkpt>
      <trkpt lat="47.25204" lon="6.06455">
        <ele>349.4</ele>
        <time>2021-09-05T09:57:54Z</time>
      </trkpt>
      <trkpt lat="47.25201" lon="6.06453">
        <ele>349.6</ele>
        <time>2021-09-05T09:57:55Z</time>
      </trkpt>
      <trkpt lat="47.25199" lon="6.06451">
        <ele>350</ele>
        <time>2021-09-05T09:57:56Z</time>
      </trkpt>
      <trkpt lat="47.25196" lon="6.0645">
        <ele>349.8</ele>
        <time>2021-09-05T09:57:57Z</time>
      </trkpt>
      <trkpt lat="47.25193" lon="6.06448">
        <ele>350.2</ele>
        <time>2021-09-05T09:57:58Z</time>
      </trkpt>
      <trkpt lat="47.2519" lon="6.06447">
        <ele>350.2</ele>
        <time>2021-09-05T09:57:59Z</time>
      </trkpt>
      <trkpt lat="47.25187" lon="6.06446">
        <ele>350.4</ele>
        <time>2021-09-05T09:58:00Z</time>
      </trkpt>
      <trkpt lat="47.25184" lon="6.06445">
        <ele>350.4</ele>
        <time>2021-09-05T09:58:01Z</time>
      </trkpt>
      <trkpt lat="47.25181" lon="6.06444">
        <ele>350.6</ele>
        <time>2021-09-05T09:58:02Z</time>
      </trkpt>
      <trkpt lat="47.25178" lon="6.06443">
        <ele>350.6</ele>
        <time>2021-09-05T09:58:03Z</time>
      </trkpt>
      <trkpt lat="47.25175" lon="6.06442">
        <ele>350.6</ele>
        <time>2021-09-05T09:58:04Z</time>
      </trkpt>
      <trkpt lat="47.25172" lon="6.06441">
        <ele>350.8</ele>
        <time>2021-09-05T09:58:05Z</time>
      </trkpt>
      <trkpt lat="47.25169" lon="6.0644">
        <ele>350.8</ele>
        <time>2021-09-05T09:58:06Z</time>
      </trkpt>
      <trkpt lat="47.25166" lon="6.06439">
        <ele>350.8</ele>
        <time>2021-09-05T09:58:07Z</time>
      </trkpt>
      <trkpt lat="47.25162" lon="6.06438">
        <ele>351</ele>
        <time>2021-09-05T09:58:08Z</time>
      </trkpt>
      <trkpt lat="47.25159" lon="6.06436">
        <ele>351</ele>
        <time>2021-09-05T09:58:09Z</time>
      </trkpt>
      <trkpt lat="47.25155" lon="6.06435">
        <ele>351</ele>
        <time>2021-09-05T09:58:10Z</time>
      </trkpt>
      <trkpt lat="47.25152" lon="6.06434">
        <ele>351</ele>
        <time>2021-09-05T09:58:11Z</time>
      </trkpt>
      <trkpt lat="47.25148" lon="6.06432">
        <ele>351</ele>
        <time>2021-09-05T09:58:12Z</time>
      </trkpt>
      <trkpt lat="47.25145" lon="6.06431">
        <ele>351</ele>
        <time>2021-09-05T09:58:13Z</time>
      </trkpt>
      <trkpt lat="47.25141" lon="6.06429">
        <ele>351</ele>
        <time>2021-09-05T09:58:14Z</time>
      </trkpt>
      <trkpt lat="47.25138" lon="6.06428">
        <ele>351</ele>
        <time>2021-09-05T09:58:15Z</time>
      </trkpt>
      <trkpt lat="47.25135" lon="6.06426">
        <ele>351</ele>
        <time>2021-09-05T09:58:16Z</time>
      </trkpt>
      <trkpt lat="47.25131" lon="6.06424">
        <ele>350.8</ele>
        <time>2021-09-05T09:58:17Z</time>
      </trkpt>
      <trkpt lat="47.25128" lon="6.06423">
        <ele>350.8</ele>
        <time>2021-09-05T09:58:18Z</time>
      </trkpt>
      <trkpt lat="47.25124" lon="6.06421">
        <ele>350.6</ele>
        <time>2021-09-05T09:58:19Z</time>
      </trkpt>
      <trkpt lat="47.2509" lon="6.06403">
        <ele>349.6</ele>
        <time>2021-09-05T09:58:27Z</time>
      </trkpt>
      <trkpt lat="47.2507" lon="6.06382">
        <ele>348.8</ele>
        <time>2021-09-05T09:58:32Z</time>
      </trkpt>
      <trkpt lat="47.25069" lon="6.06379">
        <ele>348.6</ele>
        <time>2021-09-05T09:58:33Z</time>
      </trkpt>
      <trkpt lat="47.2507" lon="6.06376">
        <ele>348.4</ele>
        <time>2021-09-05T09:58:34Z</time>
      </trkpt>
      <trkpt lat="47.25073" lon="6.06374">
        <ele>348.2</ele>
        <time>2021-09-05T09:58:35Z</time>
      </trkpt>
      <trkpt lat="47.25075" lon="6.06374">
        <ele>348.2</ele>
        <time>2021-09-05T09:58:36Z</time>
      </trkpt>
      <trkpt lat="47.25077" lon="6.06376">
        <ele>348</ele>
        <time>2021-09-05T09:58:37Z</time>
      </trkpt>
      <trkpt lat="47.25079" lon="6.06377">
        <ele>348</ele>
        <time>2021-09-05T09:58:38Z</time>
      </trkpt>
      <trkpt lat="47.25086" lon="6.06368">
        <ele>348</ele>
        <time>2021-09-05T09:58:42Z</time>
      </trkpt>
      <trkpt lat="47.25089" lon="6.06361">
        <ele>348</ele>
        <time>2021-09-05T09:58:44Z</time>
      </trkpt>
      <trkpt lat="47.25091" lon="6.06358">
        <ele>348</ele>
        <time>2021-09-05T09:58:45Z</time>
      </trkpt>
      <trkpt lat="47.25094" lon="6.06354">
        <ele>348.2</ele>
        <time>2021-09-05T09:58:47Z</time>
      </trkpt>
      <trkpt lat="47.25096" lon="6.06353">
        <ele>348.4</ele>
        <time>2021-09-05T09:58:48Z</time>
      </trkpt>
      <trkpt lat="47.25098" lon="6.06354">
        <ele>348.4</ele>
        <time>2021-09-05T09:58:49Z</time>
      </trkpt>
      <trkpt lat="47.25099" lon="6.06355">
        <ele>348.6</ele>
        <time>2021-09-05T09:58:50Z</time>
      </trkpt>
      <trkpt lat="47.25101" lon="6.06356">
        <ele>349.2</ele>
        <time>2021-09-05T09:58:51Z</time>
      </trkpt>
      <trkpt lat="47.25101" lon="6.06358">
        <ele>349.4</ele>
        <time>2021-09-05T09:58:52Z</time>
      </trkpt>
      <trkpt lat="47.25101" lon="6.06361">
        <ele>349.8</ele>
        <time>2021-09-05T09:58:53Z</time>
      </trkpt>
      <trkpt lat="47.25099" lon="6.06365">
        <ele>350.4</ele>
        <time>2021-09-05T09:58:55Z</time>
      </trkpt>
      <trkpt lat="47.25098" lon="6.06368">
        <ele>351.2</ele>
        <time>2021-09-05T09:58:56Z</time>
      </trkpt>
      <trkpt lat="47.25097" lon="6.0637">
        <ele>351.6</ele>
        <time>2021-09-05T09:58:57Z</time>
      </trkpt>
      <trkpt lat="47.25096" lon="6.06372">
        <ele>352</ele>
        <time>2021-09-05T09:58:58Z</time>
      </trkpt>
      <trkpt lat="47.25095" lon="6.06373">
        <ele>352</ele>
        <time>2021-09-05T09:58:59Z</time>
      </trkpt>
      <trkpt lat="47.25095" lon="6.06373">
        <ele>352.2</ele>
        <time>2021-09-05T09:59:00Z</time>
      </trkpt>
      <trkpt lat="47.25095" lon="6.06373">
        <ele>352.2</ele>
        <time>2021-09-05T09:59:08Z</time>
      </trkpt>
      <trkpt lat="47.25095" lon="6.06373">
        <ele>352.2</ele>
        <time>2021-09-05T09:59:18Z</time>
      </trkpt>
      <trkpt lat="47.25095" lon="6.06373">
        <ele>352</ele>
        <time>2021-09-05T09:59:53Z</time>
      </trkpt>
      <trkpt lat="47.25095" lon="6.06373">
        <ele>352.2</ele>
        <time>2021-09-05T10:00:21Z</time>
      </trkpt>
      <trkpt lat="47.25095" lon="6.06373">
        <ele>352</ele>
        <time>2021-09-05T10:00:53Z</time>
      </trkpt>
      <trkpt lat="47.25096" lon="6.06378">
        <ele>351.8</ele>
        <time>2021-09-05T10:00:56Z</time>
      </trkpt>
      <trkpt lat="47.25096" lon="6.06381">
        <ele>351.8</ele>
        <time>2021-09-05T10:00:57Z</time>
      </trkpt>
      <trkpt lat="47.25096" lon="6.06382">
        <ele>351.8</ele>
        <time>2021-09-05T10:00:58Z</time>
      </trkpt>
      <trkpt lat="47.25094" lon="6.06383">
        <ele>351.8</ele>
        <time>2021-09-05T10:01:00Z</time>
      </trkpt>
      <trkpt lat="47.2509" lon="6.06385">
        <ele>351.6</ele>
        <time>2021-09-05T10:01:02Z</time>
      </trkpt>
      <trkpt lat="47.25089" lon="6.06388">
        <ele>351.4</ele>
        <time>2021-09-05T10:01:03Z</time>
      </trkpt>
      <trkpt lat="47.25088" lon="6.0639">
        <ele>350.8</ele>
        <time>2021-09-05T10:01:04Z</time>
      </trkpt>
      <trkpt lat="47.25087" lon="6.06391">
        <ele>350.6</ele>
        <time>2021-09-05T10:01:05Z</time>
      </trkpt>
      <trkpt lat="47.25087" lon="6.06392">
        <ele>350.2</ele>
        <time>2021-09-05T10:01:06Z</time>
      </trkpt>
      <trkpt lat="47.25087" lon="6.06393">
        <ele>350</ele>
        <time>2021-09-05T10:01:07Z</time>
      </trkpt>
      <trkpt lat="47.25087" lon="6.06393">
        <ele>349.8</ele>
        <time>2021-09-05T10:01:08Z</time>
      </trkpt>
      <trkpt lat="47.25087" lon="6.06393">
        <ele>349.6</ele>
        <time>2021-09-05T10:01:09Z</time>
      </trkpt>
      <trkpt lat="47.25087" lon="6.06393">
        <ele>348.4</ele>
        <time>2021-09-05T10:01:14Z</time>
      </trkpt>
      <trkpt lat="47.25087" lon="6.06393">
        <ele>348.4</ele>
        <time>2021-09-05T10:01:21Z</time>
      </trkpt>
      <trkpt lat="47.25087" lon="6.06393">
        <ele>348.4</ele>
        <time>2021-09-05T10:01:28Z</time>
      </trkpt>
      <trkpt lat="47.25087" lon="6.06393">
        <ele>348.2</ele>
        <time>2021-09-05T10:01:52Z</time>
      </trkpt>
      <trkpt lat="47.25087" lon="6.06393">
        <ele>348</ele>
        <time>2021-09-05T10:02:23Z</time>
      </trkpt>
      <trkpt lat="47.25086" lon="6.06392">
        <ele>348.2</ele>
        <time>2021-09-05T10:02:53Z</time>
      </trkpt>
      <trkpt lat="47.25084" lon="6.06389">
        <ele>348.2</ele>
        <time>2021-09-05T10:02:55Z</time>
      </trkpt>
      <trkpt lat="47.25079" lon="6.06382">
        <ele>348.2</ele>
        <time>2021-09-05T10:02:58Z</time>
      </trkpt>
      <trkpt lat="47.25074" lon="6.06378">
        <ele>348.2</ele>
        <time>2021-09-05T10:03:00Z</time>
      </trkpt>
      <trkpt lat="47.25071" lon="6.06376">
        <ele>348.2</ele>
        <time>2021-09-05T10:03:01Z</time>
      </trkpt>
      <trkpt lat="47.25067" lon="6.0637">
        <ele>348.2</ele>
        <time>2021-09-05T10:03:03Z</time>
      </trkpt>
      <trkpt lat="47.25065" lon="6.06367">
        <ele>348.2</ele>
        <time>2021-09-05T10:03:04Z</time>
      </trkpt>
      <trkpt lat="47.25063" lon="6.06365">
        <ele>348.2</ele>
        <time>2021-09-05T10:03:05Z</time>
      </trkpt>
      <trkpt lat="47.25053" lon="6.06348">
        <ele>348.8</ele>
        <time>2021-09-05T10:03:10Z</time>
      </trkpt>
      <trkpt lat="47.25039" lon="6.06317">
        <ele>348.6</ele>
        <time>2021-09-05T10:03:17Z</time>
      </trkpt>
      <trkpt lat="47.25025" lon="6.06298">
        <ele>348.4</ele>
        <time>2021-09-05T10:03:22Z</time>
      </trkpt>
      <trkpt lat="47.25021" lon="6.06295">
        <ele>348.4</ele>
        <time>2021-09-05T10:03:23Z</time>
      </trkpt>
      <trkpt lat="47.25016" lon="6.06293">
        <ele>348.2</ele>
        <time>2021-09-05T10:03:24Z</time>
      </trkpt>
      <trkpt lat="47.25011" lon="6.0629">
        <ele>348.2</ele>
        <time>2021-09-05T10:03:25Z</time>
      </trkpt>
      <trkpt lat="47.25001" lon="6.06283">
        <ele>347.8</ele>
        <time>2021-09-05T10:03:27Z</time>
      </trkpt>
      <trkpt lat="47.24992" lon="6.06272">
        <ele>347.6</ele>
        <time>2021-09-05T10:03:29Z</time>
      </trkpt>
      <trkpt lat="47.24977" lon="6.06256">
        <ele>347</ele>
        <time>2021-09-05T10:03:32Z</time>
      </trkpt>
      <trkpt lat="47.24972" lon="6.06251">
        <ele>346.8</ele>
        <time>2021-09-05T10:03:33Z</time>
      </trkpt>
      <trkpt lat="47.24967" lon="6.06246">
        <ele>346.6</ele>
        <time>2021-09-05T10:03:34Z</time>
      </trkpt>
      <trkpt lat="47.24962" lon="6.06241">
        <ele>346.4</ele>
        <time>2021-09-05T10:03:35Z</time>
      </trkpt>
      <trkpt lat="47.24944" lon="6.06223">
        <ele>346</ele>
        <time>2021-09-05T10:03:39Z</time>
      </trkpt>
      <trkpt lat="47.2494" lon="6.06219">
        <ele>346</ele>
        <time>2021-09-05T10:03:40Z</time>
      </trkpt>
      <trkpt lat="47.24936" lon="6.06215">
        <ele>346</ele>
        <time>2021-09-05T10:03:41Z</time>
      </trkpt>
      <trkpt lat="47.24932" lon="6.06212">
        <ele>346</ele>
        <time>2021-09-05T10:03:42Z</time>
      </trkpt>
      <trkpt lat="47.24929" lon="6.06209">
        <ele>346</ele>
        <time>2021-09-05T10:03:43Z</time>
      </trkpt>
      <trkpt lat="47.24926" lon="6.06206">
        <ele>346</ele>
        <time>2021-09-05T10:03:44Z</time>
      </trkpt>
      <trkpt lat="47.24924" lon="6.06204">
        <ele>346</ele>
        <time>2021-09-05T10:03:45Z</time>
      </trkpt>
      <trkpt lat="47.24921" lon="6.06201">
        <ele>346.2</ele>
        <time>2021-09-05T10:03:46Z</time>
      </trkpt>
      <trkpt lat="47.24918" lon="6.062">
        <ele>346.4</ele>
        <time>2021-09-05T10:03:47Z</time>
      </trkpt>
      <trkpt lat="47.24916" lon="6.06198">
        <ele>346.4</ele>
        <time>2021-09-05T10:03:48Z</time>
      </trkpt>
      <trkpt lat="47.24913" lon="6.06196">
        <ele>346.6</ele>
        <time>2021-09-05T10:03:49Z</time>
      </trkpt>
      <trkpt lat="47.2491" lon="6.06196">
        <ele>346.8</ele>
        <time>2021-09-05T10:03:50Z</time>
      </trkpt>
      <trkpt lat="47.24907" lon="6.06196">
        <ele>346.8</ele>
        <time>2021-09-05T10:03:51Z</time>
      </trkpt>
      <trkpt lat="47.24905" lon="6.06196">
        <ele>347</ele>
        <time>2021-09-05T10:03:52Z</time>
      </trkpt>
      <trkpt lat="47.24903" lon="6.06198">
        <ele>347.2</ele>
        <time>2021-09-05T10:03:53Z</time>
      </trkpt>
      <trkpt lat="47.24901" lon="6.06199">
        <ele>347.2</ele>
        <time>2021-09-05T10:03:54Z</time>
      </trkpt>
      <trkpt lat="47.24899" lon="6.062">
        <ele>347.4</ele>
        <time>2021-09-05T10:03:55Z</time>
      </trkpt>
      <trkpt lat="47.24897" lon="6.06202">
        <ele>347.4</ele>
        <time>2021-09-05T10:03:56Z</time>
      </trkpt>
      <trkpt lat="47.24895" lon="6.06203">
        <ele>347.6</ele>
        <time>2021-09-05T10:03:57Z</time>
      </trkpt>
      <trkpt lat="47.24893" lon="6.06204">
        <ele>347.6</ele>
        <time>2021-09-05T10:03:58Z</time>
      </trkpt>
      <trkpt lat="47.24891" lon="6.06205">
        <ele>348</ele>
        <time>2021-09-05T10:03:59Z</time>
      </trkpt>
      <trkpt lat="47.24889" lon="6.06206">
        <ele>348.2</ele>
        <time>2021-09-05T10:04:00Z</time>
      </trkpt>
      <trkpt lat="47.24887" lon="6.06207">
        <ele>348.6</ele>
        <time>2021-09-05T10:04:01Z</time>
      </trkpt>
      <trkpt lat="47.24885" lon="6.06208">
        <ele>348.8</ele>
        <time>2021-09-05T10:04:02Z</time>
      </trkpt>
      <trkpt lat="47.24883" lon="6.06209">
        <ele>349</ele>
        <time>2021-09-05T10:04:03Z</time>
      </trkpt>
      <trkpt lat="47.24881" lon="6.0621">
        <ele>349.2</ele>
        <time>2021-09-05T10:04:04Z</time>
      </trkpt>
      <trkpt lat="47.24879" lon="6.06211">
        <ele>349.2</ele>
        <time>2021-09-05T10:04:05Z</time>
      </trkpt>
      <trkpt lat="47.24877" lon="6.06213">
        <ele>349.4</ele>
        <time>2021-09-05T10:04:06Z</time>
      </trkpt>
      <trkpt lat="47.24875" lon="6.06214">
        <ele>349.6</ele>
        <time>2021-09-05T10:04:07Z</time>
      </trkpt>
      <trkpt lat="47.24873" lon="6.06215">
        <ele>349.6</ele>
        <time>2021-09-05T10:04:08Z</time>
      </trkpt>
      <trkpt lat="47.24871" lon="6.06216">
        <ele>349.8</ele>
        <time>2021-09-05T10:04:09Z</time>
      </trkpt>
      <trkpt lat="47.2487" lon="6.06218">
        <ele>350</ele>
        <time>2021-09-05T10:04:10Z</time>
      </trkpt>
      <trkpt lat="47.24868" lon="6.06219">
        <ele>350.2</ele>
        <time>2021-09-05T10:04:11Z</time>
      </trkpt>
      <trkpt lat="47.24866" lon="6.0622">
        <ele>350.6</ele>
        <time>2021-09-05T10:04:12Z</time>
      </trkpt>
      <trkpt lat="47.24864" lon="6.06222">
        <ele>350.8</ele>
        <time>2021-09-05T10:04:13Z</time>
      </trkpt>
      <trkpt lat="47.24862" lon="6.06223">
        <ele>351.2</ele>
        <time>2021-09-05T10:04:14Z</time>
      </trkpt>
      <trkpt lat="47.2486" lon="6.06224">
        <ele>351.2</ele>
        <time>2021-09-05T10:04:15Z</time>
      </trkpt>
      <trkpt lat="47.24859" lon="6.06226">
        <ele>351.6</ele>
        <time>2021-09-05T10:04:16Z</time>
      </trkpt>
      <trkpt lat="47.24857" lon="6.06227">
        <ele>351.8</ele>
        <time>2021-09-05T10:04:17Z</time>
      </trkpt>
      <trkpt lat="47.24855" lon="6.06228">
        <ele>352</ele>
        <time>2021-09-05T10:04:18Z</time>
      </trkpt>
      <trkpt lat="47.24853" lon="6.06229">
        <ele>352.2</ele>
        <time>2021-09-05T10:04:19Z</time>
      </trkpt>
      <trkpt lat="47.24851" lon="6.0623">
        <ele>352.6</ele>
        <time>2021-09-05T10:04:20Z</time>
      </trkpt>
      <trkpt lat="47.24849" lon="6.0623">
        <ele>353</ele>
        <time>2021-09-05T10:04:21Z</time>
      </trkpt>
      <trkpt lat="47.24848" lon="6.06231">
        <ele>353.2</ele>
        <time>2021-09-05T10:04:22Z</time>
      </trkpt>
      <trkpt lat="47.24846" lon="6.06232">
        <ele>353.6</ele>
        <time>2021-09-05T10:04:23Z</time>
      </trkpt>
      <trkpt lat="47.24844" lon="6.06232">
        <ele>353.8</ele>
        <time>2021-09-05T10:04:24Z</time>
      </trkpt>
      <trkpt lat="47.24842" lon="6.06233">
        <ele>354</ele>
        <time>2021-09-05T10:04:25Z</time>
      </trkpt>
      <trkpt lat="47.24841" lon="6.06233">
        <ele>354.2</ele>
        <time>2021-09-05T10:04:26Z</time>
      </trkpt>
      <trkpt lat="47.24839" lon="6.06234">
        <ele>354.6</ele>
        <time>2021-09-05T10:04:27Z</time>
      </trkpt>
      <trkpt lat="47.24837" lon="6.06236">
        <ele>354.8</ele>
        <time>2021-09-05T10:04:28Z</time>
      </trkpt>
      <trkpt lat="47.24836" lon="6.06237">
        <ele>355</ele>
        <time>2021-09-05T10:04:29Z</time>
      </trkpt>
      <trkpt lat="47.24835" lon="6.06238">
        <ele>355.4</ele>
        <time>2021-09-05T10:04:30Z</time>
      </trkpt>
      <trkpt lat="47.24833" lon="6.06239">
        <ele>355.6</ele>
        <time>2021-09-05T10:04:31Z</time>
      </trkpt>
      <trkpt lat="47.24831" lon="6.0624">
        <ele>355.8</ele>
        <time>2021-09-05T10:04:32Z</time>
      </trkpt>
      <trkpt lat="47.24829" lon="6.06241">
        <ele>356</ele>
        <time>2021-09-05T10:04:33Z</time>
      </trkpt>
      <trkpt lat="47.24827" lon="6.06242">
        <ele>356.2</ele>
        <time>2021-09-05T10:04:34Z</time>
      </trkpt>
      <trkpt lat="47.24825" lon="6.06243">
        <ele>356.6</ele>
        <time>2021-09-05T10:04:35Z</time>
      </trkpt>
      <trkpt lat="47.24823" lon="6.06244">
        <ele>357</ele>
        <time>2021-09-05T10:04:36Z</time>
      </trkpt>
      <trkpt lat="47.24821" lon="6.06245">
        <ele>357.2</ele>
        <time>2021-09-05T10:04:37Z</time>
      </trkpt>
      <trkpt lat="47.24819" lon="6.06245">
        <ele>357.4</ele>
        <time>2021-09-05T10:04:38Z</time>
      </trkpt>
      <trkpt lat="47.24817" lon="6.06245">
        <ele>357.6</ele>
        <time>2021-09-05T10:04:39Z</time>
      </trkpt>
      <trkpt lat="47.24815" lon="6.06245">
        <ele>357.8</ele>
        <time>2021-09-05T10:04:40Z</time>
      </trkpt>
      <trkpt lat="47.24812" lon="6.06245">
        <ele>358</ele>
        <time>2021-09-05T10:04:41Z</time>
      </trkpt>
      <trkpt lat="47.2481" lon="6.06245">
        <ele>358.4</ele>
        <time>2021-09-05T10:04:42Z</time>
      </trkpt>
      <trkpt lat="47.24808" lon="6.06244">
        <ele>358.6</ele>
        <time>2021-09-05T10:04:43Z</time>
      </trkpt>
      <trkpt lat="47.24807" lon="6.06243">
        <ele>359</ele>
        <time>2021-09-05T10:04:44Z</time>
      </trkpt>
      <trkpt lat="47.24805" lon="6.06242">
        <ele>359</ele>
        <time>2021-09-05T10:04:45Z</time>
      </trkpt>
      <trkpt lat="47.24803" lon="6.06241">
        <ele>359.2</ele>
        <time>2021-09-05T10:04:46Z</time>
      </trkpt>
      <trkpt lat="47.24801" lon="6.06239">
        <ele>359.6</ele>
        <time>2021-09-05T10:04:47Z</time>
      </trkpt>
      <trkpt lat="47.248" lon="6.06238">
        <ele>360</ele>
        <time>2021-09-05T10:04:48Z</time>
      </trkpt>
      <trkpt lat="47.24798" lon="6.06237">
        <ele>360.4</ele>
        <time>2021-09-05T10:04:49Z</time>
      </trkpt>
      <trkpt lat="47.24796" lon="6.06236">
        <ele>360.4</ele>
        <time>2021-09-05T10:04:50Z</time>
      </trkpt>
      <trkpt lat="47.24794" lon="6.06236">
        <ele>360.8</ele>
        <time>2021-09-05T10:04:51Z</time>
      </trkpt>
      <trkpt lat="47.24791" lon="6.06235">
        <ele>361</ele>
        <time>2021-09-05T10:04:52Z</time>
      </trkpt>
      <trkpt lat="47.24789" lon="6.06235">
        <ele>361.2</ele>
        <time>2021-09-05T10:04:53Z</time>
      </trkpt>
      <trkpt lat="47.24787" lon="6.06234">
        <ele>361.4</ele>
        <time>2021-09-05T10:04:54Z</time>
      </trkpt>
      <trkpt lat="47.24785" lon="6.06232">
        <ele>361.6</ele>
        <time>2021-09-05T10:04:55Z</time>
      </trkpt>
      <trkpt lat="47.24783" lon="6.06231">
        <ele>362</ele>
        <time>2021-09-05T10:04:56Z</time>
      </trkpt>
      <trkpt lat="47.24781" lon="6.0623">
        <ele>362.2</ele>
        <time>2021-09-05T10:04:57Z</time>
      </trkpt>
      <trkpt lat="47.24779" lon="6.06229">
        <ele>362.4</ele>
        <time>2021-09-05T10:04:58Z</time>
      </trkpt>
      <trkpt lat="47.24777" lon="6.06228">
        <ele>362.6</ele>
        <time>2021-09-05T10:04:59Z</time>
      </trkpt>
      <trkpt lat="47.24775" lon="6.06227">
        <ele>363</ele>
        <time>2021-09-05T10:05:00Z</time>
      </trkpt>
      <trkpt lat="47.24773" lon="6.06226">
        <ele>362.8</ele>
        <time>2021-09-05T10:05:01Z</time>
      </trkpt>
      <trkpt lat="47.24772" lon="6.06225">
        <ele>363</ele>
        <time>2021-09-05T10:05:02Z</time>
      </trkpt>
      <trkpt lat="47.2477" lon="6.06223">
        <ele>363.4</ele>
        <time>2021-09-05T10:05:03Z</time>
      </trkpt>
      <trkpt lat="47.24768" lon="6.06222">
        <ele>363.6</ele>
        <time>2021-09-05T10:05:04Z</time>
      </trkpt>
      <trkpt lat="47.24766" lon="6.06221">
        <ele>364</ele>
        <time>2021-09-05T10:05:05Z</time>
      </trkpt>
      <trkpt lat="47.24764" lon="6.06221">
        <ele>364.2</ele>
        <time>2021-09-05T10:05:06Z</time>
      </trkpt>
      <trkpt lat="47.24762" lon="6.0622">
        <ele>364.4</ele>
        <time>2021-09-05T10:05:07Z</time>
      </trkpt>
      <trkpt lat="47.2476" lon="6.0622">
        <ele>364.4</ele>
        <time>2021-09-05T10:05:08Z</time>
      </trkpt>
      <trkpt lat="47.24759" lon="6.0622">
        <ele>364.8</ele>
        <time>2021-09-05T10:05:09Z</time>
      </trkpt>
      <trkpt lat="47.24757" lon="6.0622">
        <ele>365</ele>
        <time>2021-09-05T10:05:10Z</time>
      </trkpt>
      <trkpt lat="47.24755" lon="6.0622">
        <ele>365.2</ele>
        <time>2021-09-05T10:05:11Z</time>
      </trkpt>
      <trkpt lat="47.24754" lon="6.0622">
        <ele>365.4</ele>
        <time>2021-09-05T10:05:12Z</time>
      </trkpt>
      <trkpt lat="47.24752" lon="6.0622">
        <ele>365.6</ele>
        <time>2021-09-05T10:05:13Z</time>
      </trkpt>
      <trkpt lat="47.24751" lon="6.06221">
        <ele>366</ele>
        <time>2021-09-05T10:05:14Z</time>
      </trkpt>
      <trkpt lat="47.24749" lon="6.06221">
        <ele>366.2</ele>
        <time>2021-09-05T10:05:15Z</time>
      </trkpt>
      <trkpt lat="47.24748" lon="6.06221">
        <ele>366.2</ele>
        <time>2021-09-05T10:05:16Z</time>
      </trkpt>
      <trkpt lat="47.24746" lon="6.0622">
        <ele>366.2</ele>
        <time>2021-09-05T10:05:17Z</time>
      </trkpt>
      <trkpt lat="47.24745" lon="6.0622">
        <ele>366.2</ele>
        <time>2021-09-05T10:05:18Z</time>
      </trkpt>
      <trkpt lat="47.24744" lon="6.06221">
        <ele>366.2</ele>
        <time>2021-09-05T10:05:19Z</time>
      </trkpt>
      <trkpt lat="47.24742" lon="6.0622">
        <ele>366.2</ele>
        <time>2021-09-05T10:05:20Z</time>
      </trkpt>
      <trkpt lat="47.24741" lon="6.0622">
        <ele>366.2</ele>
        <time>2021-09-05T10:05:21Z</time>
      </trkpt>
      <trkpt lat="47.24741" lon="6.0622">
        <ele>366.2</ele>
        <time>2021-09-05T10:05:22Z</time>
      </trkpt>
      <trkpt lat="47.24741" lon="6.0622">
        <ele>366.4</ele>
        <time>2021-09-05T10:05:23Z</time>
      </trkpt>
      <trkpt lat="47.24741" lon="6.0622">
        <ele>366.6</ele>
        <time>2021-09-05T10:05:28Z</time>
      </trkpt>
      <trkpt lat="47.24741" lon="6.0622">
        <ele>366</ele>
        <time>2021-09-05T10:06:40Z</time>
      </trkpt>
      <trkpt lat="47.24741" lon="6.0622">
        <ele>366.2</ele>
        <time>2021-09-05T10:07:12Z</time>
      </trkpt>
      <trkpt lat="47.24741" lon="6.0622">
        <ele>365.6</ele>
        <time>2021-09-05T10:07:26Z</time>
      </trkpt>
      <trkpt lat="47.24741" lon="6.0622">
        <ele>365.8</ele>
        <time>2021-09-05T10:07:33Z</time>
      </trkpt>
      <trkpt lat="47.24741" lon="6.06219">
        <ele>366.2</ele>
        <time>2021-09-05T10:07:43Z</time>
      </trkpt>
      <trkpt lat="47.24741" lon="6.06216">
        <ele>367</ele>
        <time>2021-09-05T10:08:24Z</time>
      </trkpt>
      <trkpt lat="47.24741" lon="6.0621">
        <ele>366.8</ele>
        <time>2021-09-05T10:08:28Z</time>
      </trkpt>
      <trkpt lat="47.24741" lon="6.06208">
        <ele>366.8</ele>
        <time>2021-09-05T10:08:29Z</time>
      </trkpt>
      <trkpt lat="47.2474" lon="6.06206">
        <ele>366.8</ele>
        <time>2021-09-05T10:08:31Z</time>
      </trkpt>
      <trkpt lat="47.2474" lon="6.06205">
        <ele>366.8</ele>
        <time>2021-09-05T10:08:32Z</time>
      </trkpt>
      <trkpt lat="47.24737" lon="6.06203">
        <ele>367.2</ele>
        <time>2021-09-05T10:08:37Z</time>
      </trkpt>
      <trkpt lat="47.24736" lon="6.06204">
        <ele>367.6</ele>
        <time>2021-09-05T10:08:39Z</time>
      </trkpt>
      <trkpt lat="47.24735" lon="6.06203">
        <ele>368</ele>
        <time>2021-09-05T10:08:43Z</time>
      </trkpt>
      <trkpt lat="47.24731" lon="6.06201">
        <ele>368</ele>
        <time>2021-09-05T10:08:46Z</time>
      </trkpt>
      <trkpt lat="47.24729" lon="6.062">
        <ele>368</ele>
        <time>2021-09-05T10:08:47Z</time>
      </trkpt>
      <trkpt lat="47.24728" lon="6.06199">
        <ele>368</ele>
        <time>2021-09-05T10:08:48Z</time>
      </trkpt>
      <trkpt lat="47.24725" lon="6.06196">
        <ele>368.2</ele>
        <time>2021-09-05T10:08:50Z</time>
      </trkpt>
      <trkpt lat="47.24724" lon="6.06195">
        <ele>368.4</ele>
        <time>2021-09-05T10:08:51Z</time>
      </trkpt>
      <trkpt lat="47.24723" lon="6.06193">
        <ele>368.4</ele>
        <time>2021-09-05T10:08:52Z</time>
      </trkpt>
      <trkpt lat="47.2472" lon="6.06191">
        <ele>369</ele>
        <time>2021-09-05T10:08:54Z</time>
      </trkpt>
      <trkpt lat="47.24719" lon="6.06189">
        <ele>369.2</ele>
        <time>2021-09-05T10:08:55Z</time>
      </trkpt>
      <trkpt lat="47.24716" lon="6.06187">
        <ele>369.6</ele>
        <time>2021-09-05T10:08:57Z</time>
      </trkpt>
      <trkpt lat="47.24714" lon="6.06186">
        <ele>369.8</ele>
        <time>2021-09-05T10:08:58Z</time>
      </trkpt>
      <trkpt lat="47.24713" lon="6.06183">
        <ele>369.8</ele>
        <time>2021-09-05T10:08:59Z</time>
      </trkpt>
      <trkpt lat="47.24712" lon="6.06177">
        <ele>370.2</ele>
        <time>2021-09-05T10:09:02Z</time>
      </trkpt>
      <trkpt lat="47.24712" lon="6.06175">
        <ele>370.4</ele>
        <time>2021-09-05T10:09:03Z</time>
      </trkpt>
      <trkpt lat="47.2471" lon="6.06174">
        <ele>370.6</ele>
        <time>2021-09-05T10:09:04Z</time>
      </trkpt>
      <trkpt lat="47.24708" lon="6.06173">
        <ele>371</ele>
        <time>2021-09-05T10:09:05Z</time>
      </trkpt>
      <trkpt lat="47.24708" lon="6.06171">
        <ele>371.2</ele>
        <time>2021-09-05T10:09:06Z</time>
      </trkpt>
      <trkpt lat="47.24708" lon="6.06169">
        <ele>371.4</ele>
        <time>2021-09-05T10:09:07Z</time>
      </trkpt>
      <trkpt lat="47.24708" lon="6.06169">
        <ele>371.8</ele>
        <time>2021-09-05T10:09:08Z</time>
      </trkpt>
      <trkpt lat="47.24708" lon="6.06167">
        <ele>372.2</ele>
        <time>2021-09-05T10:09:09Z</time>
      </trkpt>
      <trkpt lat="47.24707" lon="6.06164">
        <ele>372.4</ele>
        <time>2021-09-05T10:09:10Z</time>
      </trkpt>
      <trkpt lat="47.24707" lon="6.06162">
        <ele>372.6</ele>
        <time>2021-09-05T10:09:11Z</time>
      </trkpt>
      <trkpt lat="47.24708" lon="6.0616">
        <ele>372.8</ele>
        <time>2021-09-05T10:09:12Z</time>
      </trkpt>
      <trkpt lat="47.24708" lon="6.06157">
        <ele>372.8</ele>
        <time>2021-09-05T10:09:13Z</time>
      </trkpt>
      <trkpt lat="47.24708" lon="6.06156">
        <ele>373</ele>
        <time>2021-09-05T10:09:14Z</time>
      </trkpt>
      <trkpt lat="47.24709" lon="6.06155">
        <ele>373.2</ele>
        <time>2021-09-05T10:09:15Z</time>
      </trkpt>
      <trkpt lat="47.24709" lon="6.06153">
        <ele>373.2</ele>
        <time>2021-09-05T10:09:16Z</time>
      </trkpt>
      <trkpt lat="47.24707" lon="6.06152">
        <ele>373.4</ele>
        <time>2021-09-05T10:09:17Z</time>
      </trkpt>
      <trkpt lat="47.24706" lon="6.06151">
        <ele>373.4</ele>
        <time>2021-09-05T10:09:18Z</time>
      </trkpt>
      <trkpt lat="47.24706" lon="6.0615">
        <ele>373.4</ele>
        <time>2021-09-05T10:09:19Z</time>
      </trkpt>
      <trkpt lat="47.24704" lon="6.06149">
        <ele>373.6</ele>
        <time>2021-09-05T10:09:20Z</time>
      </trkpt>
      <trkpt lat="47.24702" lon="6.06148">
        <ele>373.6</ele>
        <time>2021-09-05T10:09:21Z</time>
      </trkpt>
      <trkpt lat="47.24701" lon="6.06147">
        <ele>373.6</ele>
        <time>2021-09-05T10:09:22Z</time>
      </trkpt>
      <trkpt lat="47.24699" lon="6.06147">
        <ele>373.8</ele>
        <time>2021-09-05T10:09:23Z</time>
      </trkpt>
      <trkpt lat="47.24698" lon="6.06146">
        <ele>373.8</ele>
        <time>2021-09-05T10:09:24Z</time>
      </trkpt>
      <trkpt lat="47.24697" lon="6.06145">
        <ele>374</ele>
        <time>2021-09-05T10:09:25Z</time>
      </trkpt>
      <trkpt lat="47.24696" lon="6.06144">
        <ele>374</ele>
        <time>2021-09-05T10:09:26Z</time>
      </trkpt>
      <trkpt lat="47.24696" lon="6.06142">
        <ele>374.2</ele>
        <time>2021-09-05T10:09:27Z</time>
      </trkpt>
      <trkpt lat="47.24695" lon="6.06141">
        <ele>374.6</ele>
        <time>2021-09-05T10:09:28Z</time>
      </trkpt>
      <trkpt lat="47.24695" lon="6.06141">
        <ele>374.4</ele>
        <time>2021-09-05T10:09:29Z</time>
      </trkpt>
      <trkpt lat="47.24695" lon="6.06141">
        <ele>375.2</ele>
        <time>2021-09-05T10:09:32Z</time>
      </trkpt>
      <trkpt lat="47.24695" lon="6.06141">
        <ele>375.4</ele>
        <time>2021-09-05T10:09:34Z</time>
      </trkpt>
      <trkpt lat="47.24693" lon="6.06139">
        <ele>375.6</ele>
        <time>2021-09-05T10:09:40Z</time>
      </trkpt>
      <trkpt lat="47.24692" lon="6.06138">
        <ele>375.6</ele>
        <time>2021-09-05T10:09:41Z</time>
      </trkpt>
      <trkpt lat="47.2469" lon="6.06138">
        <ele>375.6</ele>
        <time>2021-09-05T10:09:42Z</time>
      </trkpt>
      <trkpt lat="47.24689" lon="6.06137">
        <ele>375.6</ele>
        <time>2021-09-05T10:09:43Z</time>
      </trkpt>
      <trkpt lat="47.24688" lon="6.06136">
        <ele>375.6</ele>
        <time>2021-09-05T10:09:44Z</time>
      </trkpt>
      <trkpt lat="47.24687" lon="6.06135">
        <ele>375.8</ele>
        <time>2021-09-05T10:09:45Z</time>
      </trkpt>
      <trkpt lat="47.24686" lon="6.06134">
        <ele>375.8</ele>
        <time>2021-09-05T10:09:46Z</time>
      </trkpt>
      <trkpt lat="47.24685" lon="6.06133">
        <ele>375.8</ele>
        <time>2021-09-05T10:09:47Z</time>
      </trkpt>
      <trkpt lat="47.24683" lon="6.06132">
        <ele>376</ele>
        <time>2021-09-05T10:09:48Z</time>
      </trkpt>
      <trkpt lat="47.24681" lon="6.06131">
        <ele>376.2</ele>
        <time>2021-09-05T10:09:49Z</time>
      </trkpt>
      <trkpt lat="47.2468" lon="6.0613">
        <ele>376.2</ele>
        <time>2021-09-05T10:09:50Z</time>
      </trkpt>
      <trkpt lat="47.24671" lon="6.06121">
        <ele>377</ele>
        <time>2021-09-05T10:09:56Z</time>
      </trkpt>
      <trkpt lat="47.24669" lon="6.06119">
        <ele>377</ele>
        <time>2021-09-05T10:09:57Z</time>
      </trkpt>
      <trkpt lat="47.24666" lon="6.06114">
        <ele>377.2</ele>
        <time>2021-09-05T10:09:59Z</time>
      </trkpt>
      <trkpt lat="47.24659" lon="6.06106">
        <ele>377.6</ele>
        <time>2021-09-05T10:10:02Z</time>
      </trkpt>
      <trkpt lat="47.24654" lon="6.06104">
        <ele>377.8</ele>
        <time>2021-09-05T10:10:04Z</time>
      </trkpt>
      <trkpt lat="47.24652" lon="6.06103">
        <ele>378</ele>
        <time>2021-09-05T10:10:05Z</time>
      </trkpt>
      <trkpt lat="47.24649" lon="6.061">
        <ele>378.2</ele>
        <time>2021-09-05T10:10:07Z</time>
      </trkpt>
      <trkpt lat="47.24648" lon="6.06098">
        <ele>378.6</ele>
        <time>2021-09-05T10:10:08Z</time>
      </trkpt>
      <trkpt lat="47.24648" lon="6.06097">
        <ele>378.6</ele>
        <time>2021-09-05T10:10:09Z</time>
      </trkpt>
      <trkpt lat="47.24646" lon="6.06093">
        <ele>378.8</ele>
        <time>2021-09-05T10:10:10Z</time>
      </trkpt>
      <trkpt lat="47.24643" lon="6.0609">
        <ele>378.8</ele>
        <time>2021-09-05T10:10:11Z</time>
      </trkpt>
      <trkpt lat="47.2464" lon="6.06087">
        <ele>379</ele>
        <time>2021-09-05T10:10:12Z</time>
      </trkpt>
      <trkpt lat="47.24638" lon="6.06083">
        <ele>379.2</ele>
        <time>2021-09-05T10:10:13Z</time>
      </trkpt>
      <trkpt lat="47.24635" lon="6.06081">
        <ele>379.2</ele>
        <time>2021-09-05T10:10:14Z</time>
      </trkpt>
      <trkpt lat="47.24633" lon="6.06078">
        <ele>379.4</ele>
        <time>2021-09-05T10:10:15Z</time>
      </trkpt>
      <trkpt lat="47.24633" lon="6.06077">
        <ele>379.4</ele>
        <time>2021-09-05T10:10:16Z</time>
      </trkpt>
      <trkpt lat="47.2463" lon="6.06076">
        <ele>379.6</ele>
        <time>2021-09-05T10:10:17Z</time>
      </trkpt>
      <trkpt lat="47.24628" lon="6.06075">
        <ele>379.6</ele>
        <time>2021-09-05T10:10:18Z</time>
      </trkpt>
      <trkpt lat="47.24627" lon="6.06074">
        <ele>379.6</ele>
        <time>2021-09-05T10:10:19Z</time>
      </trkpt>
      <trkpt lat="47.24626" lon="6.06073">
        <ele>379.4</ele>
        <time>2021-09-05T10:10:20Z</time>
      </trkpt>
      <trkpt lat="47.24625" lon="6.06072">
        <ele>379.4</ele>
        <time>2021-09-05T10:10:21Z</time>
      </trkpt>
      <trkpt lat="47.24623" lon="6.06071">
        <ele>379.4</ele>
        <time>2021-09-05T10:10:22Z</time>
      </trkpt>
      <trkpt lat="47.24621" lon="6.06069">
        <ele>379.4</ele>
        <time>2021-09-05T10:10:23Z</time>
      </trkpt>
      <trkpt lat="47.24619" lon="6.06068">
        <ele>379.4</ele>
        <time>2021-09-05T10:10:24Z</time>
      </trkpt>
      <trkpt lat="47.24617" lon="6.06066">
        <ele>379.4</ele>
        <time>2021-09-05T10:10:25Z</time>
      </trkpt>
      <trkpt lat="47.24616" lon="6.06064">
        <ele>379.4</ele>
        <time>2021-09-05T10:10:26Z</time>
      </trkpt>
      <trkpt lat="47.24611" lon="6.06059">
        <ele>379.4</ele>
        <time>2021-09-05T10:10:29Z</time>
      </trkpt>
      <trkpt lat="47.2461" lon="6.06057">
        <ele>379.4</ele>
        <time>2021-09-05T10:10:30Z</time>
      </trkpt>
      <trkpt lat="47.24609" lon="6.06055">
        <ele>379.4</ele>
        <time>2021-09-05T10:10:31Z</time>
      </trkpt>
      <trkpt lat="47.24608" lon="6.06052">
        <ele>379.6</ele>
        <time>2021-09-05T10:10:32Z</time>
      </trkpt>
      <trkpt lat="47.24606" lon="6.06049">
        <ele>379.6</ele>
        <time>2021-09-05T10:10:33Z</time>
      </trkpt>
      <trkpt lat="47.24605" lon="6.06047">
        <ele>379.8</ele>
        <time>2021-09-05T10:10:34Z</time>
      </trkpt>
      <trkpt lat="47.24604" lon="6.06046">
        <ele>379.8</ele>
        <time>2021-09-05T10:10:35Z</time>
      </trkpt>
      <trkpt lat="47.24602" lon="6.06045">
        <ele>379.8</ele>
        <time>2021-09-05T10:10:36Z</time>
      </trkpt>
      <trkpt lat="47.246" lon="6.06044">
        <ele>379.8</ele>
        <time>2021-09-05T10:10:37Z</time>
      </trkpt>
      <trkpt lat="47.24598" lon="6.06042">
        <ele>379.8</ele>
        <time>2021-09-05T10:10:38Z</time>
      </trkpt>
      <trkpt lat="47.24596" lon="6.0604">
        <ele>379.8</ele>
        <time>2021-09-05T10:10:39Z</time>
      </trkpt>
      <trkpt lat="47.24593" lon="6.06037">
        <ele>379.8</ele>
        <time>2021-09-05T10:10:41Z</time>
      </trkpt>
      <trkpt lat="47.24591" lon="6.06035">
        <ele>379.8</ele>
        <time>2021-09-05T10:10:42Z</time>
      </trkpt>
      <trkpt lat="47.2459" lon="6.06033">
        <ele>379.8</ele>
        <time>2021-09-05T10:10:43Z</time>
      </trkpt>
      <trkpt lat="47.24588" lon="6.06029">
        <ele>379.8</ele>
        <time>2021-09-05T10:10:44Z</time>
      </trkpt>
      <trkpt lat="47.24587" lon="6.06026">
        <ele>379.8</ele>
        <time>2021-09-05T10:10:45Z</time>
      </trkpt>
      <trkpt lat="47.24585" lon="6.06023">
        <ele>380</ele>
        <time>2021-09-05T10:10:46Z</time>
      </trkpt>
      <trkpt lat="47.2458" lon="6.06015">
        <ele>380</ele>
        <time>2021-09-05T10:10:49Z</time>
      </trkpt>
      <trkpt lat="47.24578" lon="6.06012">
        <ele>380</ele>
        <time>2021-09-05T10:10:50Z</time>
      </trkpt>
      <trkpt lat="47.24576" lon="6.06008">
        <ele>380</ele>
        <time>2021-09-05T10:10:51Z</time>
      </trkpt>
      <trkpt lat="47.24572" lon="6.06003">
        <ele>379.8</ele>
        <time>2021-09-05T10:10:53Z</time>
      </trkpt>
      <trkpt lat="47.24566" lon="6.06001">
        <ele>379.8</ele>
        <time>2021-09-05T10:10:55Z</time>
      </trkpt>
      <trkpt lat="47.24565" lon="6.06">
        <ele>379.8</ele>
        <time>2021-09-05T10:10:56Z</time>
      </trkpt>
      <trkpt lat="47.24562" lon="6.05998">
        <ele>379.8</ele>
        <time>2021-09-05T10:10:57Z</time>
      </trkpt>
      <trkpt lat="47.24559" lon="6.05996">
        <ele>379.8</ele>
        <time>2021-09-05T10:10:58Z</time>
      </trkpt>
      <trkpt lat="47.24551" lon="6.05989">
        <ele>379.8</ele>
        <time>2021-09-05T10:11:02Z</time>
      </trkpt>
      <trkpt lat="47.24549" lon="6.05987">
        <ele>379.8</ele>
        <time>2021-09-05T10:11:03Z</time>
      </trkpt>
      <trkpt lat="47.24547" lon="6.05985">
        <ele>379.8</ele>
        <time>2021-09-05T10:11:04Z</time>
      </trkpt>
      <trkpt lat="47.24546" lon="6.05984">
        <ele>380</ele>
        <time>2021-09-05T10:11:05Z</time>
      </trkpt>
      <trkpt lat="47.24544" lon="6.05982">
        <ele>380</ele>
        <time>2021-09-05T10:11:06Z</time>
      </trkpt>
      <trkpt lat="47.24542" lon="6.0598">
        <ele>380</ele>
        <time>2021-09-05T10:11:07Z</time>
      </trkpt>
      <trkpt lat="47.24537" lon="6.05977">
        <ele>380</ele>
        <time>2021-09-05T10:11:10Z</time>
      </trkpt>
      <trkpt lat="47.24536" lon="6.05976">
        <ele>380</ele>
        <time>2021-09-05T10:11:11Z</time>
      </trkpt>
      <trkpt lat="47.24534" lon="6.05975">
        <ele>380</ele>
        <time>2021-09-05T10:11:12Z</time>
      </trkpt>
      <trkpt lat="47.24533" lon="6.05974">
        <ele>380</ele>
        <time>2021-09-05T10:11:13Z</time>
      </trkpt>
      <trkpt lat="47.24533" lon="6.05974">
        <ele>380.2</ele>
        <time>2021-09-05T10:11:14Z</time>
      </trkpt>
      <trkpt lat="47.24532" lon="6.05974">
        <ele>380.2</ele>
        <time>2021-09-05T10:11:15Z</time>
      </trkpt>
      <trkpt lat="47.24531" lon="6.05973">
        <ele>380.2</ele>
        <time>2021-09-05T10:11:16Z</time>
      </trkpt>
      <trkpt lat="47.2453" lon="6.05972">
        <ele>380.2</ele>
        <time>2021-09-05T10:11:17Z</time>
      </trkpt>
      <trkpt lat="47.24528" lon="6.05971">
        <ele>380.4</ele>
        <time>2021-09-05T10:11:18Z</time>
      </trkpt>
      <trkpt lat="47.24527" lon="6.0597">
        <ele>380.4</ele>
        <time>2021-09-05T10:11:19Z</time>
      </trkpt>
      <trkpt lat="47.24524" lon="6.05969">
        <ele>380.6</ele>
        <time>2021-09-05T10:11:21Z</time>
      </trkpt>
      <trkpt lat="47.24524" lon="6.05968">
        <ele>380.6</ele>
        <time>2021-09-05T10:11:22Z</time>
      </trkpt>
      <trkpt lat="47.24523" lon="6.05968">
        <ele>380.6</ele>
        <time>2021-09-05T10:11:23Z</time>
      </trkpt>
      <trkpt lat="47.24523" lon="6.05967">
        <ele>380.6</ele>
        <time>2021-09-05T10:11:24Z</time>
      </trkpt>
      <trkpt lat="47.2452" lon="6.05965">
        <ele>380.8</ele>
        <time>2021-09-05T10:11:26Z</time>
      </trkpt>
      <trkpt lat="47.24516" lon="6.0596">
        <ele>380.6</ele>
        <time>2021-09-05T10:11:29Z</time>
      </trkpt>
      <trkpt lat="47.24511" lon="6.05954">
        <ele>380.8</ele>
        <time>2021-09-05T10:11:32Z</time>
      </trkpt>
      <trkpt lat="47.24508" lon="6.05954">
        <ele>380.6</ele>
        <time>2021-09-05T10:11:33Z</time>
      </trkpt>
      <trkpt lat="47.24506" lon="6.05952">
        <ele>380.6</ele>
        <time>2021-09-05T10:11:34Z</time>
      </trkpt>
      <trkpt lat="47.24504" lon="6.05952">
        <ele>380.6</ele>
        <time>2021-09-05T10:11:35Z</time>
      </trkpt>
      <trkpt lat="47.24501" lon="6.05949">
        <ele>380.6</ele>
        <time>2021-09-05T10:11:37Z</time>
      </trkpt>
      <trkpt lat="47.245" lon="6.05948">
        <ele>380.8</ele>
        <time>2021-09-05T10:11:38Z</time>
      </trkpt>
      <trkpt lat="47.245" lon="6.05945">
        <ele>380.8</ele>
        <time>2021-09-05T10:11:39Z</time>
      </trkpt>
      <trkpt lat="47.245" lon="6.05941">
        <ele>381</ele>
        <time>2021-09-05T10:11:41Z</time>
      </trkpt>
      <trkpt lat="47.245" lon="6.05938">
        <ele>381.2</ele>
        <time>2021-09-05T10:11:42Z</time>
      </trkpt>
      <trkpt lat="47.245" lon="6.05938">
        <ele>381</ele>
        <time>2021-09-05T10:11:43Z</time>
      </trkpt>
      <trkpt lat="47.245" lon="6.05938">
        <ele>381</ele>
        <time>2021-09-05T10:11:44Z</time>
      </trkpt>
      <trkpt lat="47.245" lon="6.05938">
        <ele>380.8</ele>
        <time>2021-09-05T10:11:48Z</time>
      </trkpt>
      <trkpt lat="47.245" lon="6.0593">
        <ele>380.4</ele>
        <time>2021-09-05T10:12:14Z</time>
      </trkpt>
      <trkpt lat="47.24499" lon="6.0592">
        <ele>379.8</ele>
        <time>2021-09-05T10:12:17Z</time>
      </trkpt>
      <trkpt lat="47.24499" lon="6.05917">
        <ele>379.8</ele>
        <time>2021-09-05T10:12:18Z</time>
      </trkpt>
      <trkpt lat="47.24498" lon="6.05907">
        <ele>379</ele>
        <time>2021-09-05T10:12:20Z</time>
      </trkpt>
      <trkpt lat="47.24496" lon="6.05903">
        <ele>379</ele>
        <time>2021-09-05T10:12:21Z</time>
      </trkpt>
      <trkpt lat="47.24494" lon="6.05898">
        <ele>378.8</ele>
        <time>2021-09-05T10:12:23Z</time>
      </trkpt>
      <trkpt lat="47.24493" lon="6.05897">
        <ele>378.4</ele>
        <time>2021-09-05T10:12:24Z</time>
      </trkpt>
      <trkpt lat="47.24492" lon="6.05895">
        <ele>378.2</ele>
        <time>2021-09-05T10:12:25Z</time>
      </trkpt>
      <trkpt lat="47.24491" lon="6.05893">
        <ele>378</ele>
        <time>2021-09-05T10:12:26Z</time>
      </trkpt>
      <trkpt lat="47.24489" lon="6.05891">
        <ele>378</ele>
        <time>2021-09-05T10:12:27Z</time>
      </trkpt>
      <trkpt lat="47.24487" lon="6.0589">
        <ele>377.8</ele>
        <time>2021-09-05T10:12:28Z</time>
      </trkpt>
      <trkpt lat="47.24485" lon="6.05886">
        <ele>377.8</ele>
        <time>2021-09-05T10:12:30Z</time>
      </trkpt>
      <trkpt lat="47.24483" lon="6.05884">
        <ele>377.8</ele>
        <time>2021-09-05T10:12:31Z</time>
      </trkpt>
      <trkpt lat="47.24481" lon="6.0588">
        <ele>377.8</ele>
        <time>2021-09-05T10:12:32Z</time>
      </trkpt>
      <trkpt lat="47.24479" lon="6.05879">
        <ele>377.8</ele>
        <time>2021-09-05T10:12:33Z</time>
      </trkpt>
      <trkpt lat="47.24478" lon="6.05878">
        <ele>378</ele>
        <time>2021-09-05T10:12:34Z</time>
      </trkpt>
      <trkpt lat="47.24476" lon="6.05876">
        <ele>378</ele>
        <time>2021-09-05T10:12:35Z</time>
      </trkpt>
      <trkpt lat="47.24476" lon="6.05875">
        <ele>378.2</ele>
        <time>2021-09-05T10:12:36Z</time>
      </trkpt>
      <trkpt lat="47.24475" lon="6.05876">
        <ele>378.4</ele>
        <time>2021-09-05T10:12:37Z</time>
      </trkpt>
      <trkpt lat="47.24473" lon="6.05876">
        <ele>379</ele>
        <time>2021-09-05T10:12:38Z</time>
      </trkpt>
      <trkpt lat="47.24471" lon="6.05876">
        <ele>379.4</ele>
        <time>2021-09-05T10:12:39Z</time>
      </trkpt>
      <trkpt lat="47.24469" lon="6.05875">
        <ele>379.6</ele>
        <time>2021-09-05T10:12:40Z</time>
      </trkpt>
      <trkpt lat="47.24468" lon="6.05876">
        <ele>380</ele>
        <time>2021-09-05T10:12:41Z</time>
      </trkpt>
      <trkpt lat="47.24466" lon="6.05875">
        <ele>380.2</ele>
        <time>2021-09-05T10:12:42Z</time>
      </trkpt>
      <trkpt lat="47.24465" lon="6.05875">
        <ele>380.4</ele>
        <time>2021-09-05T10:12:43Z</time>
      </trkpt>
      <trkpt lat="47.24464" lon="6.05875">
        <ele>380.4</ele>
        <time>2021-09-05T10:12:44Z</time>
      </trkpt>
      <trkpt lat="47.24463" lon="6.05875">
        <ele>380.6</ele>
        <time>2021-09-05T10:12:45Z</time>
      </trkpt>
      <trkpt lat="47.24462" lon="6.05875">
        <ele>380.8</ele>
        <time>2021-09-05T10:12:46Z</time>
      </trkpt>
      <trkpt lat="47.24456" lon="6.05875">
        <ele>381.4</ele>
        <time>2021-09-05T10:12:50Z</time>
      </trkpt>
      <trkpt lat="47.24454" lon="6.05874">
        <ele>381.6</ele>
        <time>2021-09-05T10:12:51Z</time>
      </trkpt>
      <trkpt lat="47.24453" lon="6.05874">
        <ele>381.6</ele>
        <time>2021-09-05T10:12:52Z</time>
      </trkpt>
      <trkpt lat="47.24452" lon="6.05873">
        <ele>382</ele>
        <time>2021-09-05T10:12:53Z</time>
      </trkpt>
      <trkpt lat="47.2445" lon="6.05871">
        <ele>382.2</ele>
        <time>2021-09-05T10:12:54Z</time>
      </trkpt>
      <trkpt lat="47.24447" lon="6.0587">
        <ele>382.8</ele>
        <time>2021-09-05T10:12:55Z</time>
      </trkpt>
      <trkpt lat="47.24445" lon="6.0587">
        <ele>383</ele>
        <time>2021-09-05T10:12:56Z</time>
      </trkpt>
      <trkpt lat="47.24443" lon="6.0587">
        <ele>383.4</ele>
        <time>2021-09-05T10:12:57Z</time>
      </trkpt>
      <trkpt lat="47.24441" lon="6.0587">
        <ele>383.6</ele>
        <time>2021-09-05T10:12:58Z</time>
      </trkpt>
      <trkpt lat="47.24439" lon="6.0587">
        <ele>383.8</ele>
        <time>2021-09-05T10:12:59Z</time>
      </trkpt>
      <trkpt lat="47.24438" lon="6.0587">
        <ele>384.2</ele>
        <time>2021-09-05T10:13:00Z</time>
      </trkpt>
      <trkpt lat="47.24437" lon="6.05869">
        <ele>384.4</ele>
        <time>2021-09-05T10:13:01Z</time>
      </trkpt>
      <trkpt lat="47.24435" lon="6.05869">
        <ele>384.6</ele>
        <time>2021-09-05T10:13:02Z</time>
      </trkpt>
      <trkpt lat="47.24433" lon="6.05869">
        <ele>384.6</ele>
        <time>2021-09-05T10:13:03Z</time>
      </trkpt>
      <trkpt lat="47.24432" lon="6.05868">
        <ele>385.4</ele>
        <time>2021-09-05T10:13:04Z</time>
      </trkpt>
      <trkpt lat="47.2443" lon="6.05867">
        <ele>385.4</ele>
        <time>2021-09-05T10:13:05Z</time>
      </trkpt>
      <trkpt lat="47.24429" lon="6.05866">
        <ele>385.8</ele>
        <time>2021-09-05T10:13:06Z</time>
      </trkpt>
      <trkpt lat="47.24427" lon="6.05866">
        <ele>386.2</ele>
        <time>2021-09-05T10:13:07Z</time>
      </trkpt>
      <trkpt lat="47.24425" lon="6.05865">
        <ele>386.4</ele>
        <time>2021-09-05T10:13:08Z</time>
      </trkpt>
      <trkpt lat="47.24423" lon="6.05864">
        <ele>386.6</ele>
        <time>2021-09-05T10:13:09Z</time>
      </trkpt>
      <trkpt lat="47.24422" lon="6.05863">
        <ele>386.8</ele>
        <time>2021-09-05T10:13:10Z</time>
      </trkpt>
      <trkpt lat="47.24421" lon="6.05863">
        <ele>387.2</ele>
        <time>2021-09-05T10:13:11Z</time>
      </trkpt>
      <trkpt lat="47.2442" lon="6.05862">
        <ele>387.4</ele>
        <time>2021-09-05T10:13:12Z</time>
      </trkpt>
      <trkpt lat="47.24419" lon="6.05861">
        <ele>387.6</ele>
        <time>2021-09-05T10:13:13Z</time>
      </trkpt>
      <trkpt lat="47.24418" lon="6.05859">
        <ele>387.8</ele>
        <time>2021-09-05T10:13:14Z</time>
      </trkpt>
      <trkpt lat="47.24416" lon="6.05858">
        <ele>388</ele>
        <time>2021-09-05T10:13:15Z</time>
      </trkpt>
      <trkpt lat="47.24415" lon="6.05856">
        <ele>388</ele>
        <time>2021-09-05T10:13:16Z</time>
      </trkpt>
      <trkpt lat="47.24413" lon="6.05854">
        <ele>388.2</ele>
        <time>2021-09-05T10:13:17Z</time>
      </trkpt>
      <trkpt lat="47.24412" lon="6.05853">
        <ele>388.4</ele>
        <time>2021-09-05T10:13:18Z</time>
      </trkpt>
      <trkpt lat="47.24411" lon="6.05852">
        <ele>388.6</ele>
        <time>2021-09-05T10:13:19Z</time>
      </trkpt>
      <trkpt lat="47.2441" lon="6.05851">
        <ele>388.6</ele>
        <time>2021-09-05T10:13:20Z</time>
      </trkpt>
      <trkpt lat="47.24409" lon="6.0585">
        <ele>388.8</ele>
        <time>2021-09-05T10:13:21Z</time>
      </trkpt>
      <trkpt lat="47.24409" lon="6.0585">
        <ele>388.8</ele>
        <time>2021-09-05T10:13:22Z</time>
      </trkpt>
      <trkpt lat="47.24408" lon="6.05849">
        <ele>389</ele>
        <time>2021-09-05T10:13:23Z</time>
      </trkpt>
      <trkpt lat="47.24407" lon="6.05848">
        <ele>389</ele>
        <time>2021-09-05T10:13:24Z</time>
      </trkpt>
      <trkpt lat="47.24406" lon="6.05848">
        <ele>389</ele>
        <time>2021-09-05T10:13:25Z</time>
      </trkpt>
      <trkpt lat="47.24404" lon="6.05846">
        <ele>389.2</ele>
        <time>2021-09-05T10:13:26Z</time>
      </trkpt>
      <trkpt lat="47.24403" lon="6.05844">
        <ele>389.2</ele>
        <time>2021-09-05T10:13:27Z</time>
      </trkpt>
      <trkpt lat="47.24401" lon="6.05842">
        <ele>389.2</ele>
        <time>2021-09-05T10:13:28Z</time>
      </trkpt>
      <trkpt lat="47.244" lon="6.05841">
        <ele>389.4</ele>
        <time>2021-09-05T10:13:29Z</time>
      </trkpt>
      <trkpt lat="47.24398" lon="6.05839">
        <ele>389.4</ele>
        <time>2021-09-05T10:13:30Z</time>
      </trkpt>
      <trkpt lat="47.24397" lon="6.05839">
        <ele>389.6</ele>
        <time>2021-09-05T10:13:31Z</time>
      </trkpt>
      <trkpt lat="47.24397" lon="6.05838">
        <ele>389.6</ele>
        <time>2021-09-05T10:13:32Z</time>
      </trkpt>
      <trkpt lat="47.24396" lon="6.05837">
        <ele>389.8</ele>
        <time>2021-09-05T10:13:33Z</time>
      </trkpt>
      <trkpt lat="47.24394" lon="6.05836">
        <ele>389.8</ele>
        <time>2021-09-05T10:13:34Z</time>
      </trkpt>
      <trkpt lat="47.24392" lon="6.05834">
        <ele>390</ele>
        <time>2021-09-05T10:13:35Z</time>
      </trkpt>
      <trkpt lat="47.24392" lon="6.05833">
        <ele>390</ele>
        <time>2021-09-05T10:13:36Z</time>
      </trkpt>
      <trkpt lat="47.2439" lon="6.05831">
        <ele>390.2</ele>
        <time>2021-09-05T10:13:37Z</time>
      </trkpt>
      <trkpt lat="47.24388" lon="6.0583">
        <ele>390.2</ele>
        <time>2021-09-05T10:13:38Z</time>
      </trkpt>
      <trkpt lat="47.24387" lon="6.05828">
        <ele>390.6</ele>
        <time>2021-09-05T10:13:39Z</time>
      </trkpt>
      <trkpt lat="47.24385" lon="6.05827">
        <ele>390.8</ele>
        <time>2021-09-05T10:13:40Z</time>
      </trkpt>
      <trkpt lat="47.24384" lon="6.05825">
        <ele>391.2</ele>
        <time>2021-09-05T10:13:41Z</time>
      </trkpt>
      <trkpt lat="47.24382" lon="6.05824">
        <ele>391.2</ele>
        <time>2021-09-05T10:13:42Z</time>
      </trkpt>
      <trkpt lat="47.2438" lon="6.05821">
        <ele>391.4</ele>
        <time>2021-09-05T10:13:43Z</time>
      </trkpt>
      <trkpt lat="47.24377" lon="6.05819">
        <ele>391.6</ele>
        <time>2021-09-05T10:13:44Z</time>
      </trkpt>
      <trkpt lat="47.24374" lon="6.05819">
        <ele>391.8</ele>
        <time>2021-09-05T10:13:45Z</time>
      </trkpt>
      <trkpt lat="47.24372" lon="6.05818">
        <ele>392</ele>
        <time>2021-09-05T10:13:46Z</time>
      </trkpt>
      <trkpt lat="47.2437" lon="6.05817">
        <ele>392</ele>
        <time>2021-09-05T10:13:47Z</time>
      </trkpt>
      <trkpt lat="47.24368" lon="6.05816">
        <ele>392.2</ele>
        <time>2021-09-05T10:13:48Z</time>
      </trkpt>
      <trkpt lat="47.24367" lon="6.05817">
        <ele>392.6</ele>
        <time>2021-09-05T10:13:49Z</time>
      </trkpt>
      <trkpt lat="47.24365" lon="6.05817">
        <ele>392.6</ele>
        <time>2021-09-05T10:13:50Z</time>
      </trkpt>
      <trkpt lat="47.24364" lon="6.05817">
        <ele>393</ele>
        <time>2021-09-05T10:13:51Z</time>
      </trkpt>
      <trkpt lat="47.24363" lon="6.05816">
        <ele>393</ele>
        <time>2021-09-05T10:13:52Z</time>
      </trkpt>
      <trkpt lat="47.24361" lon="6.05818">
        <ele>393.2</ele>
        <time>2021-09-05T10:13:53Z</time>
      </trkpt>
      <trkpt lat="47.24358" lon="6.05819">
        <ele>393.2</ele>
        <time>2021-09-05T10:13:54Z</time>
      </trkpt>
      <trkpt lat="47.24357" lon="6.05819">
        <ele>393.4</ele>
        <time>2021-09-05T10:13:55Z</time>
      </trkpt>
      <trkpt lat="47.24356" lon="6.05818">
        <ele>393.6</ele>
        <time>2021-09-05T10:13:56Z</time>
      </trkpt>
      <trkpt lat="47.24355" lon="6.05818">
        <ele>393.8</ele>
        <time>2021-09-05T10:13:57Z</time>
      </trkpt>
      <trkpt lat="47.24354" lon="6.05817">
        <ele>394</ele>
        <time>2021-09-05T10:13:58Z</time>
      </trkpt>
      <trkpt lat="47.24353" lon="6.05816">
        <ele>394.2</ele>
        <time>2021-09-05T10:13:59Z</time>
      </trkpt>
      <trkpt lat="47.24352" lon="6.05815">
        <ele>394.4</ele>
        <time>2021-09-05T10:14:00Z</time>
      </trkpt>
      <trkpt lat="47.24351" lon="6.05814">
        <ele>394.4</ele>
        <time>2021-09-05T10:14:01Z</time>
      </trkpt>
      <trkpt lat="47.2435" lon="6.05812">
        <ele>394.6</ele>
        <time>2021-09-05T10:14:02Z</time>
      </trkpt>
      <trkpt lat="47.24348" lon="6.05811">
        <ele>394.8</ele>
        <time>2021-09-05T10:14:03Z</time>
      </trkpt>
      <trkpt lat="47.24346" lon="6.05809">
        <ele>394.8</ele>
        <time>2021-09-05T10:14:04Z</time>
      </trkpt>
      <trkpt lat="47.24345" lon="6.05808">
        <ele>395</ele>
        <time>2021-09-05T10:14:05Z</time>
      </trkpt>
      <trkpt lat="47.24343" lon="6.05807">
        <ele>395</ele>
        <time>2021-09-05T10:14:06Z</time>
      </trkpt>
      <trkpt lat="47.24342" lon="6.05806">
        <ele>395.2</ele>
        <time>2021-09-05T10:14:07Z</time>
      </trkpt>
      <trkpt lat="47.2434" lon="6.05805">
        <ele>395.4</ele>
        <time>2021-09-05T10:14:08Z</time>
      </trkpt>
      <trkpt lat="47.24339" lon="6.05804">
        <ele>395.4</ele>
        <time>2021-09-05T10:14:09Z</time>
      </trkpt>
      <trkpt lat="47.24338" lon="6.05803">
        <ele>395.6</ele>
        <time>2021-09-05T10:14:10Z</time>
      </trkpt>
      <trkpt lat="47.24336" lon="6.05802">
        <ele>395.6</ele>
        <time>2021-09-05T10:14:11Z</time>
      </trkpt>
      <trkpt lat="47.24334" lon="6.05801">
        <ele>395.8</ele>
        <time>2021-09-05T10:14:12Z</time>
      </trkpt>
      <trkpt lat="47.24333" lon="6.058">
        <ele>396</ele>
        <time>2021-09-05T10:14:13Z</time>
      </trkpt>
      <trkpt lat="47.24331" lon="6.05799">
        <ele>396</ele>
        <time>2021-09-05T10:14:14Z</time>
      </trkpt>
      <trkpt lat="47.24329" lon="6.05798">
        <ele>396</ele>
        <time>2021-09-05T10:14:15Z</time>
      </trkpt>
      <trkpt lat="47.24328" lon="6.05797">
        <ele>396.2</ele>
        <time>2021-09-05T10:14:16Z</time>
      </trkpt>
      <trkpt lat="47.24326" lon="6.05795">
        <ele>396.4</ele>
        <time>2021-09-05T10:14:17Z</time>
      </trkpt>
      <trkpt lat="47.24324" lon="6.05793">
        <ele>396.6</ele>
        <time>2021-09-05T10:14:18Z</time>
      </trkpt>
      <trkpt lat="47.24322" lon="6.05791">
        <ele>396.8</ele>
        <time>2021-09-05T10:14:19Z</time>
      </trkpt>
      <trkpt lat="47.2432" lon="6.0579">
        <ele>396.8</ele>
        <time>2021-09-05T10:14:20Z</time>
      </trkpt>
      <trkpt lat="47.24318" lon="6.05788">
        <ele>397</ele>
        <time>2021-09-05T10:14:21Z</time>
      </trkpt>
      <trkpt lat="47.24316" lon="6.05787">
        <ele>397</ele>
        <time>2021-09-05T10:14:22Z</time>
      </trkpt>
      <trkpt lat="47.24314" lon="6.05787">
        <ele>397.2</ele>
        <time>2021-09-05T10:14:23Z</time>
      </trkpt>
      <trkpt lat="47.24313" lon="6.05786">
        <ele>397.2</ele>
        <time>2021-09-05T10:14:24Z</time>
      </trkpt>
      <trkpt lat="47.24311" lon="6.05785">
        <ele>397.2</ele>
        <time>2021-09-05T10:14:25Z</time>
      </trkpt>
      <trkpt lat="47.24309" lon="6.05784">
        <ele>397.4</ele>
        <time>2021-09-05T10:14:26Z</time>
      </trkpt>
      <trkpt lat="47.24308" lon="6.05782">
        <ele>397.6</ele>
        <time>2021-09-05T10:14:27Z</time>
      </trkpt>
      <trkpt lat="47.24306" lon="6.05782">
        <ele>397.6</ele>
        <time>2021-09-05T10:14:28Z</time>
      </trkpt>
      <trkpt lat="47.24304" lon="6.0578">
        <ele>397.6</ele>
        <time>2021-09-05T10:14:29Z</time>
      </trkpt>
      <trkpt lat="47.24302" lon="6.05779">
        <ele>397.6</ele>
        <time>2021-09-05T10:14:30Z</time>
      </trkpt>
      <trkpt lat="47.243" lon="6.05777">
        <ele>397.8</ele>
        <time>2021-09-05T10:14:31Z</time>
      </trkpt>
      <trkpt lat="47.24297" lon="6.05777">
        <ele>397.8</ele>
        <time>2021-09-05T10:14:32Z</time>
      </trkpt>
      <trkpt lat="47.24296" lon="6.05775">
        <ele>397.8</ele>
        <time>2021-09-05T10:14:33Z</time>
      </trkpt>
      <trkpt lat="47.24293" lon="6.05774">
        <ele>398</ele>
        <time>2021-09-05T10:14:34Z</time>
      </trkpt>
      <trkpt lat="47.24292" lon="6.05773">
        <ele>398.2</ele>
        <time>2021-09-05T10:14:35Z</time>
      </trkpt>
      <trkpt lat="47.2429" lon="6.05772">
        <ele>398.2</ele>
        <time>2021-09-05T10:14:36Z</time>
      </trkpt>
      <trkpt lat="47.24287" lon="6.05771">
        <ele>398.4</ele>
        <time>2021-09-05T10:14:37Z</time>
      </trkpt>
      <trkpt lat="47.24284" lon="6.05768">
        <ele>398.6</ele>
        <time>2021-09-05T10:14:38Z</time>
      </trkpt>
      <trkpt lat="47.24283" lon="6.05765">
        <ele>398.6</ele>
        <time>2021-09-05T10:14:39Z</time>
      </trkpt>
      <trkpt lat="47.24281" lon="6.05763">
        <ele>398.8</ele>
        <time>2021-09-05T10:14:40Z</time>
      </trkpt>
      <trkpt lat="47.24278" lon="6.05762">
        <ele>399</ele>
        <time>2021-09-05T10:14:41Z</time>
      </trkpt>
      <trkpt lat="47.24276" lon="6.05761">
        <ele>399</ele>
        <time>2021-09-05T10:14:42Z</time>
      </trkpt>
      <trkpt lat="47.24274" lon="6.05759">
        <ele>399</ele>
        <time>2021-09-05T10:14:43Z</time>
      </trkpt>
      <trkpt lat="47.24272" lon="6.05757">
        <ele>399.2</ele>
        <time>2021-09-05T10:14:44Z</time>
      </trkpt>
      <trkpt lat="47.24269" lon="6.05756">
        <ele>399.2</ele>
        <time>2021-09-05T10:14:45Z</time>
      </trkpt>
      <trkpt lat="47.24267" lon="6.05754">
        <ele>399.2</ele>
        <time>2021-09-05T10:14:46Z</time>
      </trkpt>
      <trkpt lat="47.24266" lon="6.05753">
        <ele>399.4</ele>
        <time>2021-09-05T10:14:47Z</time>
      </trkpt>
      <trkpt lat="47.24264" lon="6.05751">
        <ele>399.4</ele>
        <time>2021-09-05T10:14:48Z</time>
      </trkpt>
      <trkpt lat="47.24262" lon="6.0575">
        <ele>399.6</ele>
        <time>2021-09-05T10:14:49Z</time>
      </trkpt>
      <trkpt lat="47.2426" lon="6.05749">
        <ele>399.6</ele>
        <time>2021-09-05T10:14:50Z</time>
      </trkpt>
      <trkpt lat="47.24258" lon="6.05748">
        <ele>399.8</ele>
        <time>2021-09-05T10:14:51Z</time>
      </trkpt>
      <trkpt lat="47.24257" lon="6.05747">
        <ele>399.8</ele>
        <time>2021-09-05T10:14:52Z</time>
      </trkpt>
      <trkpt lat="47.24249" lon="6.05742">
        <ele>400</ele>
        <time>2021-09-05T10:14:56Z</time>
      </trkpt>
      <trkpt lat="47.24245" lon="6.05739">
        <ele>400.4</ele>
        <time>2021-09-05T10:14:59Z</time>
      </trkpt>
      <trkpt lat="47.24243" lon="6.05738">
        <ele>400.4</ele>
        <time>2021-09-05T10:15:00Z</time>
      </trkpt>
      <trkpt lat="47.24242" lon="6.05736">
        <ele>400.6</ele>
        <time>2021-09-05T10:15:01Z</time>
      </trkpt>
      <trkpt lat="47.24241" lon="6.05734">
        <ele>400.6</ele>
        <time>2021-09-05T10:15:02Z</time>
      </trkpt>
      <trkpt lat="47.24239" lon="6.05732">
        <ele>400.8</ele>
        <time>2021-09-05T10:15:03Z</time>
      </trkpt>
      <trkpt lat="47.24238" lon="6.05729">
        <ele>400.8</ele>
        <time>2021-09-05T10:15:04Z</time>
      </trkpt>
      <trkpt lat="47.24236" lon="6.05727">
        <ele>401.2</ele>
        <time>2021-09-05T10:15:05Z</time>
      </trkpt>
      <trkpt lat="47.24235" lon="6.05724">
        <ele>401.2</ele>
        <time>2021-09-05T10:15:06Z</time>
      </trkpt>
      <trkpt lat="47.24232" lon="6.05719">
        <ele>401.6</ele>
        <time>2021-09-05T10:15:08Z</time>
      </trkpt>
      <trkpt lat="47.2423" lon="6.05714">
        <ele>401.8</ele>
        <time>2021-09-05T10:15:10Z</time>
      </trkpt>
      <trkpt lat="47.24229" lon="6.05711">
        <ele>402</ele>
        <time>2021-09-05T10:15:11Z</time>
      </trkpt>
      <trkpt lat="47.24228" lon="6.05708">
        <ele>402</ele>
        <time>2021-09-05T10:15:12Z</time>
      </trkpt>
      <trkpt lat="47.24226" lon="6.05705">
        <ele>402.2</ele>
        <time>2021-09-05T10:15:13Z</time>
      </trkpt>
      <trkpt lat="47.24225" lon="6.05703">
        <ele>402.2</ele>
        <time>2021-09-05T10:15:14Z</time>
      </trkpt>
      <trkpt lat="47.24224" lon="6.057">
        <ele>402.2</ele>
        <time>2021-09-05T10:15:15Z</time>
      </trkpt>
      <trkpt lat="47.24223" lon="6.05697">
        <ele>402.2</ele>
        <time>2021-09-05T10:15:16Z</time>
      </trkpt>
      <trkpt lat="47.24222" lon="6.05694">
        <ele>402.2</ele>
        <time>2021-09-05T10:15:17Z</time>
      </trkpt>
      <trkpt lat="47.2422" lon="6.05691">
        <ele>402.2</ele>
        <time>2021-09-05T10:15:18Z</time>
      </trkpt>
      <trkpt lat="47.24219" lon="6.05689">
        <ele>402.2</ele>
        <time>2021-09-05T10:15:19Z</time>
      </trkpt>
      <trkpt lat="47.24219" lon="6.05688">
        <ele>402.4</ele>
        <time>2021-09-05T10:15:20Z</time>
      </trkpt>
      <trkpt lat="47.24219" lon="6.05686">
        <ele>402.4</ele>
        <time>2021-09-05T10:15:21Z</time>
      </trkpt>
      <trkpt lat="47.24213" lon="6.05674">
        <ele>402.6</ele>
        <time>2021-09-05T10:15:25Z</time>
      </trkpt>
      <trkpt lat="47.24212" lon="6.05669">
        <ele>402.6</ele>
        <time>2021-09-05T10:15:26Z</time>
      </trkpt>
      <trkpt lat="47.24209" lon="6.05662">
        <ele>402.8</ele>
        <time>2021-09-05T10:15:28Z</time>
      </trkpt>
      <trkpt lat="47.24196" lon="6.05634">
        <ele>403</ele>
        <time>2021-09-05T10:15:35Z</time>
      </trkpt>
      <trkpt lat="47.24183" lon="6.05612">
        <ele>403.2</ele>
        <time>2021-09-05T10:15:42Z</time>
      </trkpt>
      <trkpt lat="47.24182" lon="6.05609">
        <ele>403.2</ele>
        <time>2021-09-05T10:15:43Z</time>
      </trkpt>
      <trkpt lat="47.24181" lon="6.05607">
        <ele>403.2</ele>
        <time>2021-09-05T10:15:44Z</time>
      </trkpt>
      <trkpt lat="47.2418" lon="6.05604">
        <ele>403.2</ele>
        <time>2021-09-05T10:15:45Z</time>
      </trkpt>
      <trkpt lat="47.2418" lon="6.05601">
        <ele>403.2</ele>
        <time>2021-09-05T10:15:46Z</time>
      </trkpt>
      <trkpt lat="47.24179" lon="6.056">
        <ele>403.2</ele>
        <time>2021-09-05T10:15:47Z</time>
      </trkpt>
      <trkpt lat="47.24178" lon="6.05598">
        <ele>403.2</ele>
        <time>2021-09-05T10:15:48Z</time>
      </trkpt>
      <trkpt lat="47.24177" lon="6.05596">
        <ele>403.2</ele>
        <time>2021-09-05T10:15:49Z</time>
      </trkpt>
      <trkpt lat="47.24176" lon="6.05594">
        <ele>403.2</ele>
        <time>2021-09-05T10:15:50Z</time>
      </trkpt>
      <trkpt lat="47.24176" lon="6.05592">
        <ele>403.2</ele>
        <time>2021-09-05T10:15:51Z</time>
      </trkpt>
      <trkpt lat="47.24174" lon="6.0559">
        <ele>403.2</ele>
        <time>2021-09-05T10:15:52Z</time>
      </trkpt>
      <trkpt lat="47.24173" lon="6.05588">
        <ele>403.2</ele>
        <time>2021-09-05T10:15:53Z</time>
      </trkpt>
      <trkpt lat="47.24172" lon="6.05587">
        <ele>403.2</ele>
        <time>2021-09-05T10:15:54Z</time>
      </trkpt>
      <trkpt lat="47.24171" lon="6.05584">
        <ele>403.4</ele>
        <time>2021-09-05T10:15:55Z</time>
      </trkpt>
      <trkpt lat="47.2417" lon="6.05582">
        <ele>403.4</ele>
        <time>2021-09-05T10:15:56Z</time>
      </trkpt>
      <trkpt lat="47.24168" lon="6.0558">
        <ele>403.4</ele>
        <time>2021-09-05T10:15:57Z</time>
      </trkpt>
      <trkpt lat="47.24168" lon="6.05578">
        <ele>403.4</ele>
        <time>2021-09-05T10:15:58Z</time>
      </trkpt>
      <trkpt lat="47.24167" lon="6.05577">
        <ele>403.4</ele>
        <time>2021-09-05T10:15:59Z</time>
      </trkpt>
      <trkpt lat="47.24167" lon="6.05575">
        <ele>403.2</ele>
        <time>2021-09-05T10:16:00Z</time>
      </trkpt>
      <trkpt lat="47.24167" lon="6.05574">
        <ele>403.2</ele>
        <time>2021-09-05T10:16:01Z</time>
      </trkpt>
      <trkpt lat="47.24166" lon="6.05573">
        <ele>403.2</ele>
        <time>2021-09-05T10:16:02Z</time>
      </trkpt>
      <trkpt lat="47.24165" lon="6.05571">
        <ele>403.2</ele>
        <time>2021-09-05T10:16:03Z</time>
      </trkpt>
      <trkpt lat="47.24161" lon="6.05562">
        <ele>403.2</ele>
        <time>2021-09-05T10:16:05Z</time>
      </trkpt>
      <trkpt lat="47.24161" lon="6.05559">
        <ele>403.2</ele>
        <time>2021-09-05T10:16:06Z</time>
      </trkpt>
      <trkpt lat="47.24157" lon="6.05549">
        <ele>403.4</ele>
        <time>2021-09-05T10:16:09Z</time>
      </trkpt>
      <trkpt lat="47.24156" lon="6.05548">
        <ele>403.6</ele>
        <time>2021-09-05T10:16:10Z</time>
      </trkpt>
      <trkpt lat="47.24154" lon="6.05545">
        <ele>403.6</ele>
        <time>2021-09-05T10:16:11Z</time>
      </trkpt>
      <trkpt lat="47.24152" lon="6.05543">
        <ele>403.6</ele>
        <time>2021-09-05T10:16:12Z</time>
      </trkpt>
      <trkpt lat="47.24149" lon="6.05538">
        <ele>403.6</ele>
        <time>2021-09-05T10:16:13Z</time>
      </trkpt>
      <trkpt lat="47.24147" lon="6.05535">
        <ele>403.6</ele>
        <time>2021-09-05T10:16:14Z</time>
      </trkpt>
      <trkpt lat="47.24147" lon="6.05529">
        <ele>403.6</ele>
        <time>2021-09-05T10:16:16Z</time>
      </trkpt>
      <trkpt lat="47.24145" lon="6.05526">
        <ele>403.6</ele>
        <time>2021-09-05T10:16:17Z</time>
      </trkpt>
      <trkpt lat="47.24138" lon="6.05506">
        <ele>403.6</ele>
        <time>2021-09-05T10:16:23Z</time>
      </trkpt>
      <trkpt lat="47.24135" lon="6.05501">
        <ele>403.8</ele>
        <time>2021-09-05T10:16:25Z</time>
      </trkpt>
      <trkpt lat="47.24134" lon="6.05499">
        <ele>403.8</ele>
        <time>2021-09-05T10:16:26Z</time>
      </trkpt>
      <trkpt lat="47.24131" lon="6.05493">
        <ele>403.8</ele>
        <time>2021-09-05T10:16:28Z</time>
      </trkpt>
      <trkpt lat="47.24128" lon="6.05486">
        <ele>404</ele>
        <time>2021-09-05T10:16:30Z</time>
      </trkpt>
      <trkpt lat="47.24126" lon="6.05481">
        <ele>404</ele>
        <time>2021-09-05T10:16:31Z</time>
      </trkpt>
      <trkpt lat="47.24124" lon="6.05476">
        <ele>404</ele>
        <time>2021-09-05T10:16:32Z</time>
      </trkpt>
      <trkpt lat="47.24113" lon="6.0545">
        <ele>404.2</ele>
        <time>2021-09-05T10:16:38Z</time>
      </trkpt>
      <trkpt lat="47.24108" lon="6.05439">
        <ele>404.2</ele>
        <time>2021-09-05T10:16:40Z</time>
      </trkpt>
      <trkpt lat="47.24105" lon="6.05434">
        <ele>404.2</ele>
        <time>2021-09-05T10:16:41Z</time>
      </trkpt>
      <trkpt lat="47.24099" lon="6.05419">
        <ele>404.2</ele>
        <time>2021-09-05T10:16:44Z</time>
      </trkpt>
      <trkpt lat="47.24096" lon="6.05413">
        <ele>404.2</ele>
        <time>2021-09-05T10:16:45Z</time>
      </trkpt>
      <trkpt lat="47.24086" lon="6.05395">
        <ele>404.2</ele>
        <time>2021-09-05T10:16:48Z</time>
      </trkpt>
      <trkpt lat="47.24082" lon="6.05384">
        <ele>404.2</ele>
        <time>2021-09-05T10:16:50Z</time>
      </trkpt>
      <trkpt lat="47.2408" lon="6.05379">
        <ele>404.2</ele>
        <time>2021-09-05T10:16:51Z</time>
      </trkpt>
      <trkpt lat="47.2408" lon="6.05377">
        <ele>404.2</ele>
        <time>2021-09-05T10:16:52Z</time>
      </trkpt>
      <trkpt lat="47.24077" lon="6.05374">
        <ele>404.2</ele>
        <time>2021-09-05T10:16:53Z</time>
      </trkpt>
      <trkpt lat="47.24075" lon="6.05368">
        <ele>404.2</ele>
        <time>2021-09-05T10:16:54Z</time>
      </trkpt>
      <trkpt lat="47.24071" lon="6.05362">
        <ele>404.2</ele>
        <time>2021-09-05T10:16:55Z</time>
      </trkpt>
      <trkpt lat="47.24069" lon="6.05357">
        <ele>404.4</ele>
        <time>2021-09-05T10:16:56Z</time>
      </trkpt>
      <trkpt lat="47.24068" lon="6.05355">
        <ele>404.4</ele>
        <time>2021-09-05T10:16:57Z</time>
      </trkpt>
      <trkpt lat="47.24063" lon="6.05341">
        <ele>404.4</ele>
        <time>2021-09-05T10:17:00Z</time>
      </trkpt>
      <trkpt lat="47.24038" lon="6.05292">
        <ele>404</ele>
        <time>2021-09-05T10:17:10Z</time>
      </trkpt>
      <trkpt lat="47.24037" lon="6.05288">
        <ele>404</ele>
        <time>2021-09-05T10:17:11Z</time>
      </trkpt>
      <trkpt lat="47.24031" lon="6.05278">
        <ele>403.8</ele>
        <time>2021-09-05T10:17:14Z</time>
      </trkpt>
      <trkpt lat="47.24029" lon="6.05274">
        <ele>403.8</ele>
        <time>2021-09-05T10:17:15Z</time>
      </trkpt>
      <trkpt lat="47.24026" lon="6.05269">
        <ele>403.8</ele>
        <time>2021-09-05T10:17:16Z</time>
      </trkpt>
      <trkpt lat="47.24023" lon="6.05263">
        <ele>403.8</ele>
        <time>2021-09-05T10:17:17Z</time>
      </trkpt>
      <trkpt lat="47.24022" lon="6.0526">
        <ele>403.8</ele>
        <time>2021-09-05T10:17:18Z</time>
      </trkpt>
      <trkpt lat="47.2402" lon="6.05255">
        <ele>403.8</ele>
        <time>2021-09-05T10:17:19Z</time>
      </trkpt>
      <trkpt lat="47.24017" lon="6.0525">
        <ele>403.8</ele>
        <time>2021-09-05T10:17:20Z</time>
      </trkpt>
      <trkpt lat="47.24002" lon="6.05217">
        <ele>403.6</ele>
        <time>2021-09-05T10:17:25Z</time>
      </trkpt>
      <trkpt lat="47.23999" lon="6.0521">
        <ele>403.4</ele>
        <time>2021-09-05T10:17:26Z</time>
      </trkpt>
      <trkpt lat="47.23996" lon="6.05204">
        <ele>403.4</ele>
        <time>2021-09-05T10:17:27Z</time>
      </trkpt>
      <trkpt lat="47.23992" lon="6.05199">
        <ele>403.4</ele>
        <time>2021-09-05T10:17:28Z</time>
      </trkpt>
      <trkpt lat="47.23989" lon="6.05193">
        <ele>403.4</ele>
        <time>2021-09-05T10:17:29Z</time>
      </trkpt>
      <trkpt lat="47.23986" lon="6.05185">
        <ele>403.2</ele>
        <time>2021-09-05T10:17:30Z</time>
      </trkpt>
      <trkpt lat="47.23981" lon="6.05172">
        <ele>403.2</ele>
        <time>2021-09-05T10:17:32Z</time>
      </trkpt>
      <trkpt lat="47.23978" lon="6.05165">
        <ele>403.2</ele>
        <time>2021-09-05T10:17:33Z</time>
      </trkpt>
      <trkpt lat="47.23976" lon="6.05158">
        <ele>403.2</ele>
        <time>2021-09-05T10:17:34Z</time>
      </trkpt>
      <trkpt lat="47.23971" lon="6.05145">
        <ele>403.2</ele>
        <time>2021-09-05T10:17:36Z</time>
      </trkpt>
      <trkpt lat="47.23966" lon="6.05134">
        <ele>403.2</ele>
        <time>2021-09-05T10:17:38Z</time>
      </trkpt>
      <trkpt lat="47.2396" lon="6.05117">
        <ele>403</ele>
        <time>2021-09-05T10:17:40Z</time>
      </trkpt>
      <trkpt lat="47.23959" lon="6.05111">
        <ele>403</ele>
        <time>2021-09-05T10:17:41Z</time>
      </trkpt>
      <trkpt lat="47.23956" lon="6.05103">
        <ele>403</ele>
        <time>2021-09-05T10:17:42Z</time>
      </trkpt>
      <trkpt lat="47.23954" lon="6.05097">
        <ele>403</ele>
        <time>2021-09-05T10:17:43Z</time>
      </trkpt>
      <trkpt lat="47.23952" lon="6.05092">
        <ele>403</ele>
        <time>2021-09-05T10:17:44Z</time>
      </trkpt>
      <trkpt lat="47.2395" lon="6.05086">
        <ele>403</ele>
        <time>2021-09-05T10:17:45Z</time>
      </trkpt>
      <trkpt lat="47.23947" lon="6.05082">
        <ele>403</ele>
        <time>2021-09-05T10:17:46Z</time>
      </trkpt>
      <trkpt lat="47.23944" lon="6.05077">
        <ele>403</ele>
        <time>2021-09-05T10:17:47Z</time>
      </trkpt>
      <trkpt lat="47.23939" lon="6.0507">
        <ele>403</ele>
        <time>2021-09-05T10:17:48Z</time>
      </trkpt>
      <trkpt lat="47.23937" lon="6.05065">
        <ele>403</ele>
        <time>2021-09-05T10:17:49Z</time>
      </trkpt>
      <trkpt lat="47.23928" lon="6.0505">
        <ele>403.2</ele>
        <time>2021-09-05T10:17:52Z</time>
      </trkpt>
      <trkpt lat="47.23922" lon="6.05039">
        <ele>403.2</ele>
        <time>2021-09-05T10:17:54Z</time>
      </trkpt>
      <trkpt lat="47.23921" lon="6.05034">
        <ele>403.4</ele>
        <time>2021-09-05T10:17:55Z</time>
      </trkpt>
      <trkpt lat="47.23918" lon="6.05028">
        <ele>403.4</ele>
        <time>2021-09-05T10:17:56Z</time>
      </trkpt>
      <trkpt lat="47.23916" lon="6.05022">
        <ele>403.4</ele>
        <time>2021-09-05T10:17:57Z</time>
      </trkpt>
      <trkpt lat="47.23913" lon="6.05017">
        <ele>403.4</ele>
        <time>2021-09-05T10:17:58Z</time>
      </trkpt>
      <trkpt lat="47.239" lon="6.04995">
        <ele>403.6</ele>
        <time>2021-09-05T10:18:03Z</time>
      </trkpt>
      <trkpt lat="47.23897" lon="6.04992">
        <ele>403.6</ele>
        <time>2021-09-05T10:18:04Z</time>
      </trkpt>
      <trkpt lat="47.23895" lon="6.04986">
        <ele>403.6</ele>
        <time>2021-09-05T10:18:05Z</time>
      </trkpt>
      <trkpt lat="47.23892" lon="6.04979">
        <ele>403.8</ele>
        <time>2021-09-05T10:18:07Z</time>
      </trkpt>
      <trkpt lat="47.23891" lon="6.04975">
        <ele>403.8</ele>
        <time>2021-09-05T10:18:08Z</time>
      </trkpt>
      <trkpt lat="47.2389" lon="6.04973">
        <ele>404</ele>
        <time>2021-09-05T10:18:09Z</time>
      </trkpt>
      <trkpt lat="47.23888" lon="6.04968">
        <ele>404</ele>
        <time>2021-09-05T10:18:10Z</time>
      </trkpt>
      <trkpt lat="47.23887" lon="6.04966">
        <ele>404</ele>
        <time>2021-09-05T10:18:11Z</time>
      </trkpt>
      <trkpt lat="47.23885" lon="6.04961">
        <ele>404.2</ele>
        <time>2021-09-05T10:18:12Z</time>
      </trkpt>
      <trkpt lat="47.23882" lon="6.04957">
        <ele>404.2</ele>
        <time>2021-09-05T10:18:13Z</time>
      </trkpt>
      <trkpt lat="47.2388" lon="6.04953">
        <ele>404.2</ele>
        <time>2021-09-05T10:18:14Z</time>
      </trkpt>
      <trkpt lat="47.23877" lon="6.04948">
        <ele>404.4</ele>
        <time>2021-09-05T10:18:15Z</time>
      </trkpt>
      <trkpt lat="47.23875" lon="6.04944">
        <ele>404.4</ele>
        <time>2021-09-05T10:18:16Z</time>
      </trkpt>
      <trkpt lat="47.23873" lon="6.04938">
        <ele>404.4</ele>
        <time>2021-09-05T10:18:18Z</time>
      </trkpt>
      <trkpt lat="47.23871" lon="6.04935">
        <ele>404.6</ele>
        <time>2021-09-05T10:18:19Z</time>
      </trkpt>
      <trkpt lat="47.23869" lon="6.04933">
        <ele>404.8</ele>
        <time>2021-09-05T10:18:20Z</time>
      </trkpt>
      <trkpt lat="47.23868" lon="6.04931">
        <ele>404.8</ele>
        <time>2021-09-05T10:18:21Z</time>
      </trkpt>
      <trkpt lat="47.23867" lon="6.04929">
        <ele>404.8</ele>
        <time>2021-09-05T10:18:22Z</time>
      </trkpt>
      <trkpt lat="47.23864" lon="6.04923">
        <ele>405.2</ele>
        <time>2021-09-05T10:18:24Z</time>
      </trkpt>
      <trkpt lat="47.23863" lon="6.04919">
        <ele>405.2</ele>
        <time>2021-09-05T10:18:25Z</time>
      </trkpt>
      <trkpt lat="47.23861" lon="6.04915">
        <ele>405.2</ele>
        <time>2021-09-05T10:18:26Z</time>
      </trkpt>
      <trkpt lat="47.23854" lon="6.04901">
        <ele>405.6</ele>
        <time>2021-09-05T10:18:30Z</time>
      </trkpt>
      <trkpt lat="47.23847" lon="6.04884">
        <ele>406.2</ele>
        <time>2021-09-05T10:18:35Z</time>
      </trkpt>
      <trkpt lat="47.23846" lon="6.0488">
        <ele>406.2</ele>
        <time>2021-09-05T10:18:36Z</time>
      </trkpt>
      <trkpt lat="47.23846" lon="6.04875">
        <ele>406.4</ele>
        <time>2021-09-05T10:18:37Z</time>
      </trkpt>
      <trkpt lat="47.23845" lon="6.04872">
        <ele>406.6</ele>
        <time>2021-09-05T10:18:38Z</time>
      </trkpt>
      <trkpt lat="47.23843" lon="6.04866">
        <ele>406.6</ele>
        <time>2021-09-05T10:18:39Z</time>
      </trkpt>
      <trkpt lat="47.23839" lon="6.04856">
        <ele>406.8</ele>
        <time>2021-09-05T10:18:41Z</time>
      </trkpt>
      <trkpt lat="47.23836" lon="6.04848">
        <ele>406.8</ele>
        <time>2021-09-05T10:18:42Z</time>
      </trkpt>
      <trkpt lat="47.23833" lon="6.04841">
        <ele>406.8</ele>
        <time>2021-09-05T10:18:43Z</time>
      </trkpt>
      <trkpt lat="47.23826" lon="6.04812">
        <ele>407</ele>
        <time>2021-09-05T10:18:47Z</time>
      </trkpt>
      <trkpt lat="47.23815" lon="6.04784">
        <ele>407</ele>
        <time>2021-09-05T10:18:52Z</time>
      </trkpt>
      <trkpt lat="47.23813" lon="6.04782">
        <ele>407.2</ele>
        <time>2021-09-05T10:18:53Z</time>
      </trkpt>
      <trkpt lat="47.23811" lon="6.04779">
        <ele>407.2</ele>
        <time>2021-09-05T10:18:54Z</time>
      </trkpt>
      <trkpt lat="47.23808" lon="6.04776">
        <ele>407.2</ele>
        <time>2021-09-05T10:18:55Z</time>
      </trkpt>
      <trkpt lat="47.23806" lon="6.04773">
        <ele>407.4</ele>
        <time>2021-09-05T10:18:56Z</time>
      </trkpt>
      <trkpt lat="47.23804" lon="6.0477">
        <ele>407.4</ele>
        <time>2021-09-05T10:18:57Z</time>
      </trkpt>
      <trkpt lat="47.23802" lon="6.04768">
        <ele>407.4</ele>
        <time>2021-09-05T10:18:58Z</time>
      </trkpt>
      <trkpt lat="47.23791" lon="6.04755">
        <ele>408.2</ele>
        <time>2021-09-05T10:19:04Z</time>
      </trkpt>
      <trkpt lat="47.23789" lon="6.04752">
        <ele>408.4</ele>
        <time>2021-09-05T10:19:05Z</time>
      </trkpt>
      <trkpt lat="47.23786" lon="6.0475">
        <ele>408.4</ele>
        <time>2021-09-05T10:19:06Z</time>
      </trkpt>
      <trkpt lat="47.23784" lon="6.04748">
        <ele>408.6</ele>
        <time>2021-09-05T10:19:07Z</time>
      </trkpt>
      <trkpt lat="47.23776" lon="6.04742">
        <ele>409.2</ele>
        <time>2021-09-05T10:19:10Z</time>
      </trkpt>
      <trkpt lat="47.23774" lon="6.0474">
        <ele>409.4</ele>
        <time>2021-09-05T10:19:11Z</time>
      </trkpt>
      <trkpt lat="47.23767" lon="6.04732">
        <ele>410.2</ele>
        <time>2021-09-05T10:19:14Z</time>
      </trkpt>
      <trkpt lat="47.23764" lon="6.0473">
        <ele>410.6</ele>
        <time>2021-09-05T10:19:15Z</time>
      </trkpt>
      <trkpt lat="47.23762" lon="6.04728">
        <ele>410.8</ele>
        <time>2021-09-05T10:19:16Z</time>
      </trkpt>
      <trkpt lat="47.23759" lon="6.04727">
        <ele>411</ele>
        <time>2021-09-05T10:19:17Z</time>
      </trkpt>
      <trkpt lat="47.23756" lon="6.04725">
        <ele>411.2</ele>
        <time>2021-09-05T10:19:18Z</time>
      </trkpt>
      <trkpt lat="47.23754" lon="6.04724">
        <ele>411.4</ele>
        <time>2021-09-05T10:19:19Z</time>
      </trkpt>
      <trkpt lat="47.23752" lon="6.04722">
        <ele>411.4</ele>
        <time>2021-09-05T10:19:20Z</time>
      </trkpt>
      <trkpt lat="47.2375" lon="6.04721">
        <ele>411.6</ele>
        <time>2021-09-05T10:19:21Z</time>
      </trkpt>
      <trkpt lat="47.23749" lon="6.04719">
        <ele>411.6</ele>
        <time>2021-09-05T10:19:22Z</time>
      </trkpt>
      <trkpt lat="47.23746" lon="6.04717">
        <ele>411.8</ele>
        <time>2021-09-05T10:19:23Z</time>
      </trkpt>
      <trkpt lat="47.23745" lon="6.04716">
        <ele>412.2</ele>
        <time>2021-09-05T10:19:24Z</time>
      </trkpt>
      <trkpt lat="47.23743" lon="6.04714">
        <ele>412.2</ele>
        <time>2021-09-05T10:19:25Z</time>
      </trkpt>
      <trkpt lat="47.2374" lon="6.04712">
        <ele>412.6</ele>
        <time>2021-09-05T10:19:26Z</time>
      </trkpt>
      <trkpt lat="47.23738" lon="6.04711">
        <ele>412.6</ele>
        <time>2021-09-05T10:19:27Z</time>
      </trkpt>
      <trkpt lat="47.23737" lon="6.0471">
        <ele>413</ele>
        <time>2021-09-05T10:19:28Z</time>
      </trkpt>
      <trkpt lat="47.23735" lon="6.04709">
        <ele>413</ele>
        <time>2021-09-05T10:19:29Z</time>
      </trkpt>
      <trkpt lat="47.23734" lon="6.04708">
        <ele>413.4</ele>
        <time>2021-09-05T10:19:30Z</time>
      </trkpt>
      <trkpt lat="47.23731" lon="6.04707">
        <ele>413.8</ele>
        <time>2021-09-05T10:19:31Z</time>
      </trkpt>
      <trkpt lat="47.2373" lon="6.04706">
        <ele>414</ele>
        <time>2021-09-05T10:19:32Z</time>
      </trkpt>
      <trkpt lat="47.23728" lon="6.04705">
        <ele>414.2</ele>
        <time>2021-09-05T10:19:33Z</time>
      </trkpt>
      <trkpt lat="47.23727" lon="6.04703">
        <ele>414.4</ele>
        <time>2021-09-05T10:19:34Z</time>
      </trkpt>
      <trkpt lat="47.23725" lon="6.04702">
        <ele>414.6</ele>
        <time>2021-09-05T10:19:35Z</time>
      </trkpt>
      <trkpt lat="47.23723" lon="6.047">
        <ele>414.6</ele>
        <time>2021-09-05T10:19:36Z</time>
      </trkpt>
      <trkpt lat="47.23721" lon="6.04698">
        <ele>415</ele>
        <time>2021-09-05T10:19:37Z</time>
      </trkpt>
      <trkpt lat="47.23719" lon="6.04696">
        <ele>415</ele>
        <time>2021-09-05T10:19:38Z</time>
      </trkpt>
      <trkpt lat="47.23716" lon="6.04696">
        <ele>415.2</ele>
        <time>2021-09-05T10:19:39Z</time>
      </trkpt>
      <trkpt lat="47.23714" lon="6.04695">
        <ele>415.6</ele>
        <time>2021-09-05T10:19:40Z</time>
      </trkpt>
      <trkpt lat="47.23713" lon="6.04695">
        <ele>415.6</ele>
        <time>2021-09-05T10:19:41Z</time>
      </trkpt>
      <trkpt lat="47.23711" lon="6.04695">
        <ele>416</ele>
        <time>2021-09-05T10:19:42Z</time>
      </trkpt>
      <trkpt lat="47.23709" lon="6.04695">
        <ele>416</ele>
        <time>2021-09-05T10:19:43Z</time>
      </trkpt>
      <trkpt lat="47.23707" lon="6.04696">
        <ele>416.2</ele>
        <time>2021-09-05T10:19:44Z</time>
      </trkpt>
      <trkpt lat="47.23705" lon="6.04698">
        <ele>416.2</ele>
        <time>2021-09-05T10:19:45Z</time>
      </trkpt>
      <trkpt lat="47.23704" lon="6.04699">
        <ele>416.4</ele>
        <time>2021-09-05T10:19:46Z</time>
      </trkpt>
      <trkpt lat="47.23702" lon="6.047">
        <ele>416.6</ele>
        <time>2021-09-05T10:19:47Z</time>
      </trkpt>
      <trkpt lat="47.237" lon="6.04701">
        <ele>416.8</ele>
        <time>2021-09-05T10:19:48Z</time>
      </trkpt>
      <trkpt lat="47.23699" lon="6.04702">
        <ele>417</ele>
        <time>2021-09-05T10:19:49Z</time>
      </trkpt>
      <trkpt lat="47.23696" lon="6.04702">
        <ele>417</ele>
        <time>2021-09-05T10:19:50Z</time>
      </trkpt>
      <trkpt lat="47.23695" lon="6.04703">
        <ele>417.4</ele>
        <time>2021-09-05T10:19:51Z</time>
      </trkpt>
      <trkpt lat="47.23693" lon="6.04703">
        <ele>417.4</ele>
        <time>2021-09-05T10:19:52Z</time>
      </trkpt>
      <trkpt lat="47.23691" lon="6.04703">
        <ele>417.6</ele>
        <time>2021-09-05T10:19:53Z</time>
      </trkpt>
      <trkpt lat="47.23688" lon="6.04704">
        <ele>417.6</ele>
        <time>2021-09-05T10:19:54Z</time>
      </trkpt>
      <trkpt lat="47.23687" lon="6.04703">
        <ele>417.6</ele>
        <time>2021-09-05T10:19:55Z</time>
      </trkpt>
      <trkpt lat="47.23686" lon="6.04702">
        <ele>418</ele>
        <time>2021-09-05T10:19:56Z</time>
      </trkpt>
      <trkpt lat="47.23685" lon="6.047">
        <ele>418</ele>
        <time>2021-09-05T10:19:57Z</time>
      </trkpt>
      <trkpt lat="47.23684" lon="6.04697">
        <ele>418.4</ele>
        <time>2021-09-05T10:19:58Z</time>
      </trkpt>
      <trkpt lat="47.23683" lon="6.04695">
        <ele>418.4</ele>
        <time>2021-09-05T10:19:59Z</time>
      </trkpt>
      <trkpt lat="47.23682" lon="6.04692">
        <ele>418.6</ele>
        <time>2021-09-05T10:20:00Z</time>
      </trkpt>
      <trkpt lat="47.23681" lon="6.04689">
        <ele>418.8</ele>
        <time>2021-09-05T10:20:01Z</time>
      </trkpt>
      <trkpt lat="47.2368" lon="6.04687">
        <ele>418.8</ele>
        <time>2021-09-05T10:20:02Z</time>
      </trkpt>
      <trkpt lat="47.23679" lon="6.04684">
        <ele>419</ele>
        <time>2021-09-05T10:20:03Z</time>
      </trkpt>
      <trkpt lat="47.23677" lon="6.04682">
        <ele>419.2</ele>
        <time>2021-09-05T10:20:04Z</time>
      </trkpt>
      <trkpt lat="47.23676" lon="6.04679">
        <ele>419.2</ele>
        <time>2021-09-05T10:20:05Z</time>
      </trkpt>
      <trkpt lat="47.23674" lon="6.04677">
        <ele>419.2</ele>
        <time>2021-09-05T10:20:06Z</time>
      </trkpt>
      <trkpt lat="47.23673" lon="6.04675">
        <ele>419.2</ele>
        <time>2021-09-05T10:20:07Z</time>
      </trkpt>
      <trkpt lat="47.23671" lon="6.04673">
        <ele>419.2</ele>
        <time>2021-09-05T10:20:08Z</time>
      </trkpt>
      <trkpt lat="47.23669" lon="6.04671">
        <ele>419.4</ele>
        <time>2021-09-05T10:20:09Z</time>
      </trkpt>
      <trkpt lat="47.23667" lon="6.04669">
        <ele>419.4</ele>
        <time>2021-09-05T10:20:10Z</time>
      </trkpt>
      <trkpt lat="47.23666" lon="6.04668">
        <ele>419.6</ele>
        <time>2021-09-05T10:20:11Z</time>
      </trkpt>
      <trkpt lat="47.23664" lon="6.04666">
        <ele>419.8</ele>
        <time>2021-09-05T10:20:12Z</time>
      </trkpt>
      <trkpt lat="47.23662" lon="6.04663">
        <ele>419.8</ele>
        <time>2021-09-05T10:20:13Z</time>
      </trkpt>
      <trkpt lat="47.2366" lon="6.04662">
        <ele>420</ele>
        <time>2021-09-05T10:20:14Z</time>
      </trkpt>
      <trkpt lat="47.23659" lon="6.0466">
        <ele>420</ele>
        <time>2021-09-05T10:20:15Z</time>
      </trkpt>
      <trkpt lat="47.23657" lon="6.04658">
        <ele>420.2</ele>
        <time>2021-09-05T10:20:16Z</time>
      </trkpt>
      <trkpt lat="47.23656" lon="6.04655">
        <ele>420.2</ele>
        <time>2021-09-05T10:20:17Z</time>
      </trkpt>
      <trkpt lat="47.23654" lon="6.04652">
        <ele>420.2</ele>
        <time>2021-09-05T10:20:18Z</time>
      </trkpt>
      <trkpt lat="47.23653" lon="6.0465">
        <ele>420.2</ele>
        <time>2021-09-05T10:20:19Z</time>
      </trkpt>
      <trkpt lat="47.23652" lon="6.04647">
        <ele>420.4</ele>
        <time>2021-09-05T10:20:20Z</time>
      </trkpt>
      <trkpt lat="47.2365" lon="6.04644">
        <ele>420.4</ele>
        <time>2021-09-05T10:20:21Z</time>
      </trkpt>
      <trkpt lat="47.23649" lon="6.04642">
        <ele>420.6</ele>
        <time>2021-09-05T10:20:22Z</time>
      </trkpt>
      <trkpt lat="47.23647" lon="6.04639">
        <ele>420.6</ele>
        <time>2021-09-05T10:20:23Z</time>
      </trkpt>
      <trkpt lat="47.23645" lon="6.04636">
        <ele>420.8</ele>
        <time>2021-09-05T10:20:24Z</time>
      </trkpt>
      <trkpt lat="47.23644" lon="6.04634">
        <ele>420.8</ele>
        <time>2021-09-05T10:20:25Z</time>
      </trkpt>
      <trkpt lat="47.23642" lon="6.04632">
        <ele>421</ele>
        <time>2021-09-05T10:20:26Z</time>
      </trkpt>
      <trkpt lat="47.23641" lon="6.0463">
        <ele>421.2</ele>
        <time>2021-09-05T10:20:27Z</time>
      </trkpt>
      <trkpt lat="47.23639" lon="6.04627">
        <ele>421.2</ele>
        <time>2021-09-05T10:20:28Z</time>
      </trkpt>
      <trkpt lat="47.23637" lon="6.04625">
        <ele>421.2</ele>
        <time>2021-09-05T10:20:29Z</time>
      </trkpt>
      <trkpt lat="47.23635" lon="6.04624">
        <ele>421.4</ele>
        <time>2021-09-05T10:20:30Z</time>
      </trkpt>
      <trkpt lat="47.23631" lon="6.0462">
        <ele>421.6</ele>
        <time>2021-09-05T10:20:32Z</time>
      </trkpt>
      <trkpt lat="47.23621" lon="6.04606">
        <ele>422.4</ele>
        <time>2021-09-05T10:20:38Z</time>
      </trkpt>
      <trkpt lat="47.23617" lon="6.046">
        <ele>422.6</ele>
        <time>2021-09-05T10:20:40Z</time>
      </trkpt>
      <trkpt lat="47.23616" lon="6.04598">
        <ele>422.8</ele>
        <time>2021-09-05T10:20:41Z</time>
      </trkpt>
      <trkpt lat="47.23615" lon="6.04595">
        <ele>423</ele>
        <time>2021-09-05T10:20:42Z</time>
      </trkpt>
      <trkpt lat="47.23613" lon="6.04593">
        <ele>423</ele>
        <time>2021-09-05T10:20:43Z</time>
      </trkpt>
      <trkpt lat="47.23611" lon="6.0459">
        <ele>423.2</ele>
        <time>2021-09-05T10:20:44Z</time>
      </trkpt>
      <trkpt lat="47.2361" lon="6.04587">
        <ele>423.2</ele>
        <time>2021-09-05T10:20:45Z</time>
      </trkpt>
      <trkpt lat="47.23608" lon="6.04585">
        <ele>423.2</ele>
        <time>2021-09-05T10:20:46Z</time>
      </trkpt>
      <trkpt lat="47.23606" lon="6.04583">
        <ele>423.4</ele>
        <time>2021-09-05T10:20:47Z</time>
      </trkpt>
      <trkpt lat="47.23605" lon="6.0458">
        <ele>423.4</ele>
        <time>2021-09-05T10:20:48Z</time>
      </trkpt>
      <trkpt lat="47.23603" lon="6.04577">
        <ele>423.6</ele>
        <time>2021-09-05T10:20:49Z</time>
      </trkpt>
      <trkpt lat="47.23602" lon="6.04575">
        <ele>423.6</ele>
        <time>2021-09-05T10:20:50Z</time>
      </trkpt>
      <trkpt lat="47.23601" lon="6.04572">
        <ele>423.6</ele>
        <time>2021-09-05T10:20:51Z</time>
      </trkpt>
      <trkpt lat="47.23599" lon="6.04569">
        <ele>423.8</ele>
        <time>2021-09-05T10:20:52Z</time>
      </trkpt>
      <trkpt lat="47.23598" lon="6.04566">
        <ele>423.8</ele>
        <time>2021-09-05T10:20:53Z</time>
      </trkpt>
      <trkpt lat="47.23596" lon="6.04563">
        <ele>423.8</ele>
        <time>2021-09-05T10:20:54Z</time>
      </trkpt>
      <trkpt lat="47.23594" lon="6.04561">
        <ele>423.8</ele>
        <time>2021-09-05T10:20:55Z</time>
      </trkpt>
      <trkpt lat="47.23592" lon="6.04559">
        <ele>424</ele>
        <time>2021-09-05T10:20:56Z</time>
      </trkpt>
      <trkpt lat="47.2359" lon="6.04557">
        <ele>424</ele>
        <time>2021-09-05T10:20:57Z</time>
      </trkpt>
      <trkpt lat="47.23588" lon="6.04555">
        <ele>424</ele>
        <time>2021-09-05T10:20:58Z</time>
      </trkpt>
      <trkpt lat="47.23586" lon="6.04553">
        <ele>424.2</ele>
        <time>2021-09-05T10:20:59Z</time>
      </trkpt>
      <trkpt lat="47.23584" lon="6.04547">
        <ele>424.6</ele>
        <time>2021-09-05T10:21:01Z</time>
      </trkpt>
      <trkpt lat="47.23575" lon="6.04533">
        <ele>425.2</ele>
        <time>2021-09-05T10:21:06Z</time>
      </trkpt>
      <trkpt lat="47.23567" lon="6.04527">
        <ele>425.6</ele>
        <time>2021-09-05T10:21:10Z</time>
      </trkpt>
      <trkpt lat="47.23565" lon="6.04526">
        <ele>425.8</ele>
        <time>2021-09-05T10:21:11Z</time>
      </trkpt>
      <trkpt lat="47.23563" lon="6.04527">
        <ele>425.8</ele>
        <time>2021-09-05T10:21:12Z</time>
      </trkpt>
      <trkpt lat="47.23561" lon="6.04528">
        <ele>426</ele>
        <time>2021-09-05T10:21:13Z</time>
      </trkpt>
      <trkpt lat="47.23559" lon="6.04527">
        <ele>426.2</ele>
        <time>2021-09-05T10:21:14Z</time>
      </trkpt>
      <trkpt lat="47.23558" lon="6.04526">
        <ele>426.8</ele>
        <time>2021-09-05T10:21:15Z</time>
      </trkpt>
      <trkpt lat="47.23556" lon="6.04525">
        <ele>427</ele>
        <time>2021-09-05T10:21:16Z</time>
      </trkpt>
      <trkpt lat="47.23555" lon="6.04521">
        <ele>427</ele>
        <time>2021-09-05T10:21:17Z</time>
      </trkpt>
      <trkpt lat="47.23555" lon="6.04518">
        <ele>427.2</ele>
        <time>2021-09-05T10:21:18Z</time>
      </trkpt>
      <trkpt lat="47.23556" lon="6.04515">
        <ele>426.8</ele>
        <time>2021-09-05T10:21:19Z</time>
      </trkpt>
      <trkpt lat="47.23558" lon="6.04512">
        <ele>426.8</ele>
        <time>2021-09-05T10:21:20Z</time>
      </trkpt>
      <trkpt lat="47.2356" lon="6.04511">
        <ele>426.6</ele>
        <time>2021-09-05T10:21:21Z</time>
      </trkpt>
      <trkpt lat="47.23561" lon="6.0451">
        <ele>426.4</ele>
        <time>2021-09-05T10:21:22Z</time>
      </trkpt>
      <trkpt lat="47.23563" lon="6.04509">
        <ele>426.2</ele>
        <time>2021-09-05T10:21:23Z</time>
      </trkpt>
      <trkpt lat="47.23566" lon="6.04508">
        <ele>426.2</ele>
        <time>2021-09-05T10:21:24Z</time>
      </trkpt>
      <trkpt lat="47.23569" lon="6.04507">
        <ele>426.2</ele>
        <time>2021-09-05T10:21:25Z</time>
      </trkpt>
      <trkpt lat="47.23576" lon="6.04505">
        <ele>426</ele>
        <time>2021-09-05T10:21:27Z</time>
      </trkpt>
      <trkpt lat="47.23591" lon="6.04502">
        <ele>425.8</ele>
        <time>2021-09-05T10:21:31Z</time>
      </trkpt>
      <trkpt lat="47.23595" lon="6.04501">
        <ele>425.8</ele>
        <time>2021-09-05T10:21:32Z</time>
      </trkpt>
      <trkpt lat="47.23604" lon="6.04501">
        <ele>425.4</ele>
        <time>2021-09-05T10:21:35Z</time>
      </trkpt>
      <trkpt lat="47.23606" lon="6.04501">
        <ele>425.4</ele>
        <time>2021-09-05T10:21:36Z</time>
      </trkpt>
      <trkpt lat="47.23608" lon="6.04501">
        <ele>425.4</ele>
        <time>2021-09-05T10:21:37Z</time>
      </trkpt>
      <trkpt lat="47.23611" lon="6.045">
        <ele>425.4</ele>
        <time>2021-09-05T10:21:38Z</time>
      </trkpt>
      <trkpt lat="47.23614" lon="6.045">
        <ele>425.4</ele>
        <time>2021-09-05T10:21:39Z</time>
      </trkpt>
      <trkpt lat="47.23616" lon="6.04499">
        <ele>425.4</ele>
        <time>2021-09-05T10:21:40Z</time>
      </trkpt>
      <trkpt lat="47.23618" lon="6.04499">
        <ele>425.4</ele>
        <time>2021-09-05T10:21:41Z</time>
      </trkpt>
      <trkpt lat="47.23619" lon="6.04499">
        <ele>425.4</ele>
        <time>2021-09-05T10:21:42Z</time>
      </trkpt>
      <trkpt lat="47.23621" lon="6.04498">
        <ele>425.2</ele>
        <time>2021-09-05T10:21:43Z</time>
      </trkpt>
      <trkpt lat="47.23621" lon="6.04498">
        <ele>425.2</ele>
        <time>2021-09-05T10:21:44Z</time>
      </trkpt>
      <trkpt lat="47.23621" lon="6.04498">
        <ele>425</ele>
        <time>2021-09-05T10:21:56Z</time>
      </trkpt>
      <trkpt lat="47.23621" lon="6.04498">
        <ele>425</ele>
        <time>2021-09-05T10:22:12Z</time>
      </trkpt>
      <trkpt lat="47.23625" lon="6.04489">
        <ele>425</ele>
        <time>2021-09-05T10:22:15Z</time>
      </trkpt>
      <trkpt lat="47.23626" lon="6.04483">
        <ele>425</ele>
        <time>2021-09-05T10:22:17Z</time>
      </trkpt>
      <trkpt lat="47.23626" lon="6.04479">
        <ele>424.8</ele>
        <time>2021-09-05T10:22:18Z</time>
      </trkpt>
      <trkpt lat="47.23625" lon="6.04476">
        <ele>424.8</ele>
        <time>2021-09-05T10:22:19Z</time>
      </trkpt>
      <trkpt lat="47.23624" lon="6.04472">
        <ele>424.8</ele>
        <time>2021-09-05T10:22:20Z</time>
      </trkpt>
      <trkpt lat="47.23623" lon="6.04468">
        <ele>424.8</ele>
        <time>2021-09-05T10:22:21Z</time>
      </trkpt>
      <trkpt lat="47.23622" lon="6.04466">
        <ele>424.6</ele>
        <time>2021-09-05T10:22:22Z</time>
      </trkpt>
      <trkpt lat="47.23617" lon="6.0445">
        <ele>424</ele>
        <time>2021-09-05T10:22:25Z</time>
      </trkpt>
      <trkpt lat="47.23612" lon="6.04432">
        <ele>423.6</ele>
        <time>2021-09-05T10:22:28Z</time>
      </trkpt>
      <trkpt lat="47.23611" lon="6.04429">
        <ele>423.4</ele>
        <time>2021-09-05T10:22:29Z</time>
      </trkpt>
      <trkpt lat="47.23609" lon="6.04425">
        <ele>423.2</ele>
        <time>2021-09-05T10:22:30Z</time>
      </trkpt>
      <trkpt lat="47.23607" lon="6.04422">
        <ele>423</ele>
        <time>2021-09-05T10:22:31Z</time>
      </trkpt>
      <trkpt lat="47.23606" lon="6.04417">
        <ele>422.8</ele>
        <time>2021-09-05T10:22:32Z</time>
      </trkpt>
      <trkpt lat="47.23605" lon="6.04412">
        <ele>422.8</ele>
        <time>2021-09-05T10:22:33Z</time>
      </trkpt>
      <trkpt lat="47.23603" lon="6.04409">
        <ele>422.6</ele>
        <time>2021-09-05T10:22:34Z</time>
      </trkpt>
      <trkpt lat="47.23601" lon="6.04407">
        <ele>422.4</ele>
        <time>2021-09-05T10:22:35Z</time>
      </trkpt>
      <trkpt lat="47.23599" lon="6.04402">
        <ele>422.2</ele>
        <time>2021-09-05T10:22:36Z</time>
      </trkpt>
      <trkpt lat="47.23597" lon="6.04396">
        <ele>422</ele>
        <time>2021-09-05T10:22:37Z</time>
      </trkpt>
      <trkpt lat="47.23595" lon="6.04392">
        <ele>422</ele>
        <time>2021-09-05T10:22:38Z</time>
      </trkpt>
      <trkpt lat="47.23594" lon="6.04389">
        <ele>422</ele>
        <time>2021-09-05T10:22:39Z</time>
      </trkpt>
      <trkpt lat="47.23594" lon="6.04388">
        <ele>422</ele>
        <time>2021-09-05T10:22:40Z</time>
      </trkpt>
      <trkpt lat="47.23593" lon="6.04385">
        <ele>422</ele>
        <time>2021-09-05T10:22:41Z</time>
      </trkpt>
      <trkpt lat="47.23591" lon="6.04378">
        <ele>421.8</ele>
        <time>2021-09-05T10:22:42Z</time>
      </trkpt>
      <trkpt lat="47.23591" lon="6.04372">
        <ele>421.6</ele>
        <time>2021-09-05T10:22:43Z</time>
      </trkpt>
      <trkpt lat="47.23592" lon="6.04368">
        <ele>421.4</ele>
        <time>2021-09-05T10:22:44Z</time>
      </trkpt>
      <trkpt lat="47.23592" lon="6.04364">
        <ele>421.4</ele>
        <time>2021-09-05T10:22:45Z</time>
      </trkpt>
      <trkpt lat="47.23592" lon="6.04362">
        <ele>421.2</ele>
        <time>2021-09-05T10:22:46Z</time>
      </trkpt>
      <trkpt lat="47.23593" lon="6.04361">
        <ele>421.2</ele>
        <time>2021-09-05T10:22:47Z</time>
      </trkpt>
      <trkpt lat="47.23593" lon="6.0436">
        <ele>421.2</ele>
        <time>2021-09-05T10:22:48Z</time>
      </trkpt>
      <trkpt lat="47.23593" lon="6.04359">
        <ele>421.2</ele>
        <time>2021-09-05T10:22:49Z</time>
      </trkpt>
      <trkpt lat="47.23593" lon="6.04358">
        <ele>421.2</ele>
        <time>2021-09-05T10:22:50Z</time>
      </trkpt>
      <trkpt lat="47.23593" lon="6.04356">
        <ele>421.2</ele>
        <time>2021-09-05T10:22:51Z</time>
      </trkpt>
      <trkpt lat="47.23593" lon="6.04353">
        <ele>421</ele>
        <time>2021-09-05T10:22:52Z</time>
      </trkpt>
      <trkpt lat="47.23595" lon="6.04351">
        <ele>420.8</ele>
        <time>2021-09-05T10:22:53Z</time>
      </trkpt>
      <trkpt lat="47.23596" lon="6.04349">
        <ele>420.6</ele>
        <time>2021-09-05T10:22:54Z</time>
      </trkpt>
      <trkpt lat="47.23598" lon="6.04345">
        <ele>420.4</ele>
        <time>2021-09-05T10:22:55Z</time>
      </trkpt>
      <trkpt lat="47.23599" lon="6.04342">
        <ele>420.4</ele>
        <time>2021-09-05T10:22:56Z</time>
      </trkpt>
      <trkpt lat="47.236" lon="6.04338">
        <ele>420.2</ele>
        <time>2021-09-05T10:22:57Z</time>
      </trkpt>
      <trkpt lat="47.236" lon="6.04336">
        <ele>420</ele>
        <time>2021-09-05T10:22:58Z</time>
      </trkpt>
      <trkpt lat="47.23601" lon="6.04332">
        <ele>419.4</ele>
        <time>2021-09-05T10:22:59Z</time>
      </trkpt>
      <trkpt lat="47.23602" lon="6.04328">
        <ele>418.6</ele>
        <time>2021-09-05T10:23:00Z</time>
      </trkpt>
      <trkpt lat="47.23603" lon="6.04324">
        <ele>418.2</ele>
        <time>2021-09-05T10:23:01Z</time>
      </trkpt>
      <trkpt lat="47.23604" lon="6.04321">
        <ele>417.6</ele>
        <time>2021-09-05T10:23:02Z</time>
      </trkpt>
      <trkpt lat="47.23608" lon="6.04302">
        <ele>416.4</ele>
        <time>2021-09-05T10:23:06Z</time>
      </trkpt>
      <trkpt lat="47.2361" lon="6.04292">
        <ele>415.4</ele>
        <time>2021-09-05T10:23:08Z</time>
      </trkpt>
      <trkpt lat="47.23612" lon="6.04281">
        <ele>414.4</ele>
        <time>2021-09-05T10:23:10Z</time>
      </trkpt>
      <trkpt lat="47.23612" lon="6.04276">
        <ele>414</ele>
        <time>2021-09-05T10:23:11Z</time>
      </trkpt>
      <trkpt lat="47.23613" lon="6.04272">
        <ele>413.6</ele>
        <time>2021-09-05T10:23:12Z</time>
      </trkpt>
      <trkpt lat="47.23613" lon="6.04267">
        <ele>413.2</ele>
        <time>2021-09-05T10:23:13Z</time>
      </trkpt>
      <trkpt lat="47.23614" lon="6.04258">
        <ele>412.4</ele>
        <time>2021-09-05T10:23:14Z</time>
      </trkpt>
      <trkpt lat="47.23615" lon="6.04252">
        <ele>412</ele>
        <time>2021-09-05T10:23:15Z</time>
      </trkpt>
      <trkpt lat="47.23618" lon="6.04244">
        <ele>411.2</ele>
        <time>2021-09-05T10:23:16Z</time>
      </trkpt>
      <trkpt lat="47.2362" lon="6.0424">
        <ele>411</ele>
        <time>2021-09-05T10:23:17Z</time>
      </trkpt>
      <trkpt lat="47.23622" lon="6.04233">
        <ele>410.2</ele>
        <time>2021-09-05T10:23:18Z</time>
      </trkpt>
      <trkpt lat="47.23623" lon="6.0423">
        <ele>409.8</ele>
        <time>2021-09-05T10:23:19Z</time>
      </trkpt>
      <trkpt lat="47.23625" lon="6.04225">
        <ele>409.2</ele>
        <time>2021-09-05T10:23:20Z</time>
      </trkpt>
      <trkpt lat="47.23626" lon="6.04221">
        <ele>408.8</ele>
        <time>2021-09-05T10:23:21Z</time>
      </trkpt>
      <trkpt lat="47.23626" lon="6.04217">
        <ele>408.4</ele>
        <time>2021-09-05T10:23:22Z</time>
      </trkpt>
      <trkpt lat="47.23626" lon="6.04213">
        <ele>407.6</ele>
        <time>2021-09-05T10:23:23Z</time>
      </trkpt>
      <trkpt lat="47.23628" lon="6.04202">
        <ele>406.4</ele>
        <time>2021-09-05T10:23:26Z</time>
      </trkpt>
      <trkpt lat="47.23629" lon="6.04199">
        <ele>405.8</ele>
        <time>2021-09-05T10:23:27Z</time>
      </trkpt>
      <trkpt lat="47.23629" lon="6.04197">
        <ele>405.2</ele>
        <time>2021-09-05T10:23:28Z</time>
      </trkpt>
      <trkpt lat="47.23629" lon="6.04193">
        <ele>405.2</ele>
        <time>2021-09-05T10:23:29Z</time>
      </trkpt>
      <trkpt lat="47.23629" lon="6.0419">
        <ele>404.4</ele>
        <time>2021-09-05T10:23:30Z</time>
      </trkpt>
      <trkpt lat="47.23628" lon="6.04186">
        <ele>404.2</ele>
        <time>2021-09-05T10:23:31Z</time>
      </trkpt>
      <trkpt lat="47.23627" lon="6.04183">
        <ele>404</ele>
        <time>2021-09-05T10:23:32Z</time>
      </trkpt>
      <trkpt lat="47.23627" lon="6.04182">
        <ele>404</ele>
        <time>2021-09-05T10:23:33Z</time>
      </trkpt>
      <trkpt lat="47.23622" lon="6.04178">
        <ele>403.6</ele>
        <time>2021-09-05T10:23:36Z</time>
      </trkpt>
      <trkpt lat="47.2362" lon="6.04176">
        <ele>403.4</ele>
        <time>2021-09-05T10:23:37Z</time>
      </trkpt>
      <trkpt lat="47.23608" lon="6.04163">
        <ele>403.8</ele>
        <time>2021-09-05T10:23:44Z</time>
      </trkpt>
      <trkpt lat="47.23596" lon="6.04153">
        <ele>405</ele>
        <time>2021-09-05T10:23:50Z</time>
      </trkpt>
      <trkpt lat="47.23594" lon="6.04152">
        <ele>405.2</ele>
        <time>2021-09-05T10:23:51Z</time>
      </trkpt>
      <trkpt lat="47.23592" lon="6.04152">
        <ele>405.4</ele>
        <time>2021-09-05T10:23:52Z</time>
      </trkpt>
      <trkpt lat="47.23591" lon="6.04152">
        <ele>405.6</ele>
        <time>2021-09-05T10:23:53Z</time>
      </trkpt>
      <trkpt lat="47.23588" lon="6.04153">
        <ele>405.6</ele>
        <time>2021-09-05T10:23:54Z</time>
      </trkpt>
      <trkpt lat="47.23586" lon="6.04155">
        <ele>406</ele>
        <time>2021-09-05T10:23:55Z</time>
      </trkpt>
      <trkpt lat="47.23584" lon="6.04157">
        <ele>406</ele>
        <time>2021-09-05T10:23:56Z</time>
      </trkpt>
      <trkpt lat="47.23582" lon="6.04159">
        <ele>406.2</ele>
        <time>2021-09-05T10:23:57Z</time>
      </trkpt>
      <trkpt lat="47.2358" lon="6.0416">
        <ele>406.4</ele>
        <time>2021-09-05T10:23:58Z</time>
      </trkpt>
      <trkpt lat="47.23578" lon="6.04161">
        <ele>406.4</ele>
        <time>2021-09-05T10:23:59Z</time>
      </trkpt>
      <trkpt lat="47.23572" lon="6.04165">
        <ele>407.2</ele>
        <time>2021-09-05T10:24:03Z</time>
      </trkpt>
      <trkpt lat="47.23571" lon="6.04166">
        <ele>407.4</ele>
        <time>2021-09-05T10:24:04Z</time>
      </trkpt>
      <trkpt lat="47.23569" lon="6.04166">
        <ele>407.6</ele>
        <time>2021-09-05T10:24:05Z</time>
      </trkpt>
      <trkpt lat="47.23567" lon="6.04167">
        <ele>407.8</ele>
        <time>2021-09-05T10:24:06Z</time>
      </trkpt>
      <trkpt lat="47.23566" lon="6.04168">
        <ele>408</ele>
        <time>2021-09-05T10:24:07Z</time>
      </trkpt>
      <trkpt lat="47.23564" lon="6.04169">
        <ele>408</ele>
        <time>2021-09-05T10:24:08Z</time>
      </trkpt>
      <trkpt lat="47.23562" lon="6.0417">
        <ele>408.2</ele>
        <time>2021-09-05T10:24:09Z</time>
      </trkpt>
      <trkpt lat="47.23561" lon="6.04172">
        <ele>408.4</ele>
        <time>2021-09-05T10:24:10Z</time>
      </trkpt>
      <trkpt lat="47.23559" lon="6.04173">
        <ele>408.6</ele>
        <time>2021-09-05T10:24:11Z</time>
      </trkpt>
      <trkpt lat="47.23557" lon="6.04174">
        <ele>408.8</ele>
        <time>2021-09-05T10:24:12Z</time>
      </trkpt>
      <trkpt lat="47.23556" lon="6.04176">
        <ele>408.8</ele>
        <time>2021-09-05T10:24:13Z</time>
      </trkpt>
      <trkpt lat="47.23554" lon="6.04177">
        <ele>409.2</ele>
        <time>2021-09-05T10:24:14Z</time>
      </trkpt>
      <trkpt lat="47.23552" lon="6.04179">
        <ele>409.4</ele>
        <time>2021-09-05T10:24:15Z</time>
      </trkpt>
      <trkpt lat="47.23551" lon="6.0418">
        <ele>409.6</ele>
        <time>2021-09-05T10:24:16Z</time>
      </trkpt>
      <trkpt lat="47.23549" lon="6.04182">
        <ele>409.8</ele>
        <time>2021-09-05T10:24:17Z</time>
      </trkpt>
      <trkpt lat="47.23547" lon="6.04183">
        <ele>409.8</ele>
        <time>2021-09-05T10:24:18Z</time>
      </trkpt>
      <trkpt lat="47.23546" lon="6.04184">
        <ele>410</ele>
        <time>2021-09-05T10:24:19Z</time>
      </trkpt>
      <trkpt lat="47.23545" lon="6.04185">
        <ele>410.4</ele>
        <time>2021-09-05T10:24:20Z</time>
      </trkpt>
      <trkpt lat="47.23543" lon="6.04185">
        <ele>410.2</ele>
        <time>2021-09-05T10:24:21Z</time>
      </trkpt>
      <trkpt lat="47.23542" lon="6.04185">
        <ele>410.4</ele>
        <time>2021-09-05T10:24:22Z</time>
      </trkpt>
      <trkpt lat="47.23541" lon="6.04185">
        <ele>410.6</ele>
        <time>2021-09-05T10:24:23Z</time>
      </trkpt>
      <trkpt lat="47.23539" lon="6.04186">
        <ele>411.2</ele>
        <time>2021-09-05T10:24:24Z</time>
      </trkpt>
      <trkpt lat="47.23538" lon="6.04187">
        <ele>411.4</ele>
        <time>2021-09-05T10:24:25Z</time>
      </trkpt>
      <trkpt lat="47.23537" lon="6.04189">
        <ele>411.6</ele>
        <time>2021-09-05T10:24:26Z</time>
      </trkpt>
      <trkpt lat="47.23536" lon="6.0419">
        <ele>411.6</ele>
        <time>2021-09-05T10:24:27Z</time>
      </trkpt>
      <trkpt lat="47.23534" lon="6.04191">
        <ele>411.8</ele>
        <time>2021-09-05T10:24:28Z</time>
      </trkpt>
      <trkpt lat="47.23533" lon="6.04192">
        <ele>412</ele>
        <time>2021-09-05T10:24:29Z</time>
      </trkpt>
      <trkpt lat="47.23531" lon="6.04193">
        <ele>412.2</ele>
        <time>2021-09-05T10:24:30Z</time>
      </trkpt>
      <trkpt lat="47.23529" lon="6.04194">
        <ele>412.4</ele>
        <time>2021-09-05T10:24:31Z</time>
      </trkpt>
      <trkpt lat="47.23527" lon="6.04195">
        <ele>412.4</ele>
        <time>2021-09-05T10:24:32Z</time>
      </trkpt>
      <trkpt lat="47.23525" lon="6.04197">
        <ele>412.6</ele>
        <time>2021-09-05T10:24:33Z</time>
      </trkpt>
      <trkpt lat="47.23523" lon="6.04198">
        <ele>412.8</ele>
        <time>2021-09-05T10:24:34Z</time>
      </trkpt>
      <trkpt lat="47.23521" lon="6.04199">
        <ele>413</ele>
        <time>2021-09-05T10:24:35Z</time>
      </trkpt>
      <trkpt lat="47.23519" lon="6.042">
        <ele>413</ele>
        <time>2021-09-05T10:24:36Z</time>
      </trkpt>
      <trkpt lat="47.23517" lon="6.04201">
        <ele>413.4</ele>
        <time>2021-09-05T10:24:37Z</time>
      </trkpt>
      <trkpt lat="47.23516" lon="6.04203">
        <ele>413.6</ele>
        <time>2021-09-05T10:24:38Z</time>
      </trkpt>
      <trkpt lat="47.23514" lon="6.04204">
        <ele>413.8</ele>
        <time>2021-09-05T10:24:39Z</time>
      </trkpt>
      <trkpt lat="47.23512" lon="6.04205">
        <ele>414</ele>
        <time>2021-09-05T10:24:40Z</time>
      </trkpt>
      <trkpt lat="47.2351" lon="6.04207">
        <ele>414.2</ele>
        <time>2021-09-05T10:24:41Z</time>
      </trkpt>
      <trkpt lat="47.23508" lon="6.04209">
        <ele>414.4</ele>
        <time>2021-09-05T10:24:42Z</time>
      </trkpt>
      <trkpt lat="47.23506" lon="6.04209">
        <ele>414.6</ele>
        <time>2021-09-05T10:24:43Z</time>
      </trkpt>
      <trkpt lat="47.23504" lon="6.04209">
        <ele>415</ele>
        <time>2021-09-05T10:24:44Z</time>
      </trkpt>
      <trkpt lat="47.23503" lon="6.04209">
        <ele>415</ele>
        <time>2021-09-05T10:24:45Z</time>
      </trkpt>
      <trkpt lat="47.23501" lon="6.04209">
        <ele>415.2</ele>
        <time>2021-09-05T10:24:46Z</time>
      </trkpt>
      <trkpt lat="47.23499" lon="6.0421">
        <ele>415.4</ele>
        <time>2021-09-05T10:24:47Z</time>
      </trkpt>
      <trkpt lat="47.23497" lon="6.0421">
        <ele>415.4</ele>
        <time>2021-09-05T10:24:48Z</time>
      </trkpt>
      <trkpt lat="47.23495" lon="6.0421">
        <ele>415.6</ele>
        <time>2021-09-05T10:24:49Z</time>
      </trkpt>
      <trkpt lat="47.23493" lon="6.04211">
        <ele>415.6</ele>
        <time>2021-09-05T10:24:50Z</time>
      </trkpt>
      <trkpt lat="47.23491" lon="6.04211">
        <ele>415.8</ele>
        <time>2021-09-05T10:24:51Z</time>
      </trkpt>
      <trkpt lat="47.23489" lon="6.04211">
        <ele>415.8</ele>
        <time>2021-09-05T10:24:52Z</time>
      </trkpt>
      <trkpt lat="47.23487" lon="6.0421">
        <ele>416</ele>
        <time>2021-09-05T10:24:53Z</time>
      </trkpt>
      <trkpt lat="47.23485" lon="6.0421">
        <ele>416</ele>
        <time>2021-09-05T10:24:54Z</time>
      </trkpt>
      <trkpt lat="47.23483" lon="6.0421">
        <ele>416</ele>
        <time>2021-09-05T10:24:55Z</time>
      </trkpt>
      <trkpt lat="47.23481" lon="6.04211">
        <ele>416</ele>
        <time>2021-09-05T10:24:56Z</time>
      </trkpt>
      <trkpt lat="47.23479" lon="6.04211">
        <ele>416</ele>
        <time>2021-09-05T10:24:57Z</time>
      </trkpt>
      <trkpt lat="47.23478" lon="6.04211">
        <ele>416.2</ele>
        <time>2021-09-05T10:24:58Z</time>
      </trkpt>
      <trkpt lat="47.23477" lon="6.04211">
        <ele>416.2</ele>
        <time>2021-09-05T10:24:59Z</time>
      </trkpt>
      <trkpt lat="47.23477" lon="6.04211">
        <ele>416.2</ele>
        <time>2021-09-05T10:25:00Z</time>
      </trkpt>
      <trkpt lat="47.23477" lon="6.04211">
        <ele>416.4</ele>
        <time>2021-09-05T10:25:02Z</time>
      </trkpt>
      <trkpt lat="47.23477" lon="6.04211">
        <ele>416</ele>
        <time>2021-09-05T10:26:30Z</time>
      </trkpt>
      <trkpt lat="47.23477" lon="6.04211">
        <ele>415.8</ele>
        <time>2021-09-05T10:27:16Z</time>
      </trkpt>
      <trkpt lat="47.23477" lon="6.04211">
        <ele>415.8</ele>
        <time>2021-09-05T10:28:04Z</time>
      </trkpt>
      <trkpt lat="47.23477" lon="6.04211">
        <ele>415.6</ele>
        <time>2021-09-05T10:28:13Z</time>
      </trkpt>
      <trkpt lat="47.23477" lon="6.04211">
        <ele>416</ele>
        <time>2021-09-05T10:28:53Z</time>
      </trkpt>
      <trkpt lat="47.23477" lon="6.04211">
        <ele>416</ele>
        <time>2021-09-05T10:29:54Z</time>
      </trkpt>
      <trkpt lat="47.23475" lon="6.04216">
        <ele>416.4</ele>
        <time>2021-09-05T10:30:25Z</time>
      </trkpt>
      <trkpt lat="47.23473" lon="6.04219">
        <ele>416.4</ele>
        <time>2021-09-05T10:30:26Z</time>
      </trkpt>
      <trkpt lat="47.23472" lon="6.04222">
        <ele>416.4</ele>
        <time>2021-09-05T10:30:27Z</time>
      </trkpt>
      <trkpt lat="47.23471" lon="6.04224">
        <ele>416.4</ele>
        <time>2021-09-05T10:30:28Z</time>
      </trkpt>
      <trkpt lat="47.23468" lon="6.04231">
        <ele>416.4</ele>
        <time>2021-09-05T10:30:30Z</time>
      </trkpt>
      <trkpt lat="47.23467" lon="6.04234">
        <ele>416.4</ele>
        <time>2021-09-05T10:30:31Z</time>
      </trkpt>
      <trkpt lat="47.23462" lon="6.04241">
        <ele>416.4</ele>
        <time>2021-09-05T10:30:34Z</time>
      </trkpt>
      <trkpt lat="47.23453" lon="6.04249">
        <ele>416.6</ele>
        <time>2021-09-05T10:30:39Z</time>
      </trkpt>
      <trkpt lat="47.23451" lon="6.0425">
        <ele>416.8</ele>
        <time>2021-09-05T10:30:41Z</time>
      </trkpt>
      <trkpt lat="47.23451" lon="6.0425">
        <ele>416.8</ele>
        <time>2021-09-05T10:30:42Z</time>
      </trkpt>
      <trkpt lat="47.23451" lon="6.0425">
        <ele>417</ele>
        <time>2021-09-05T10:30:43Z</time>
      </trkpt>
      <trkpt lat="47.23451" lon="6.0425">
        <ele>417.2</ele>
        <time>2021-09-05T10:30:44Z</time>
      </trkpt>
      <trkpt lat="47.2345" lon="6.0425">
        <ele>417</ele>
        <time>2021-09-05T10:30:47Z</time>
      </trkpt>
      <trkpt lat="47.2345" lon="6.0425">
        <ele>417</ele>
        <time>2021-09-05T10:30:49Z</time>
      </trkpt>
      <trkpt lat="47.2345" lon="6.0425">
        <ele>416.8</ele>
        <time>2021-09-05T10:30:58Z</time>
      </trkpt>
      <trkpt lat="47.2345" lon="6.0425">
        <ele>416.2</ele>
        <time>2021-09-05T10:31:29Z</time>
      </trkpt>
      <trkpt lat="47.2345" lon="6.0425">
        <ele>416.2</ele>
        <time>2021-09-05T10:32:11Z</time>
      </trkpt>
      <trkpt lat="47.2345" lon="6.0425">
        <ele>416.2</ele>
        <time>2021-09-05T10:32:43Z</time>
      </trkpt>
      <trkpt lat="47.2345" lon="6.0425">
        <ele>416.2</ele>
        <time>2021-09-05T10:32:50Z</time>
      </trkpt>
      <trkpt lat="47.2345" lon="6.0425">
        <ele>416.4</ele>
        <time>2021-09-05T10:33:22Z</time>
      </trkpt>
      <trkpt lat="47.2345" lon="6.0425">
        <ele>416.4</ele>
        <time>2021-09-05T10:33:53Z</time>
      </trkpt>
      <trkpt lat="47.2345" lon="6.0425">
        <ele>416.2</ele>
        <time>2021-09-05T10:34:23Z</time>
      </trkpt>
      <trkpt lat="47.2345" lon="6.0425">
        <ele>416.4</ele>
        <time>2021-09-05T10:34:56Z</time>
      </trkpt>
      <trkpt lat="47.2345" lon="6.0425">
        <ele>416.4</ele>
        <time>2021-09-05T10:35:34Z</time>
      </trkpt>
      <trkpt lat="47.2345" lon="6.0425">
        <ele>416.4</ele>
        <time>2021-09-05T10:36:08Z</time>
      </trkpt>
      <trkpt lat="47.2345" lon="6.0425">
        <ele>416.6</ele>
        <time>2021-09-05T10:36:53Z</time>
      </trkpt>
      <trkpt lat="47.2345" lon="6.0425">
        <ele>416.6</ele>
        <time>2021-09-05T10:37:39Z</time>
      </trkpt>
      <trkpt lat="47.2345" lon="6.0425">
        <ele>416.6</ele>
        <time>2021-09-05T10:39:04Z</time>
      </trkpt>
      <trkpt lat="47.2345" lon="6.0425">
        <ele>416.6</ele>
        <time>2021-09-05T10:40:11Z</time>
      </trkpt>
      <trkpt lat="47.2345" lon="6.0425">
        <ele>417</ele>
        <time>2021-09-05T10:42:08Z</time>
      </trkpt>
      <trkpt lat="47.2345" lon="6.0425">
        <ele>416.6</ele>
        <time>2021-09-05T10:43:45Z</time>
      </trkpt>
      <trkpt lat="47.2345" lon="6.0425">
        <ele>417</ele>
        <time>2021-09-05T10:45:20Z</time>
      </trkpt>
      <trkpt lat="47.2345" lon="6.0425">
        <ele>416.6</ele>
        <time>2021-09-05T10:47:01Z</time>
      </trkpt>
      <trkpt lat="47.2345" lon="6.0425">
        <ele>416.4</ele>
        <time>2021-09-05T10:51:30Z</time>
      </trkpt>
      <trkpt lat="47.2345" lon="6.0425">
        <ele>417</ele>
        <time>2021-09-05T10:53:13Z</time>
      </trkpt>
      <trkpt lat="47.2345" lon="6.0425">
        <ele>416.4</ele>
        <time>2021-09-05T10:57:08Z</time>
      </trkpt>
      <trkpt lat="47.2345" lon="6.0425">
        <ele>416.6</ele>
        <time>2021-09-05T10:57:34Z</time>
      </trkpt>
      <trkpt lat="47.2345" lon="6.0425">
        <ele>416.8</ele>
        <time>2021-09-05T10:59:22Z</time>
      </trkpt>
      <trkpt lat="47.2345" lon="6.0425">
        <ele>417.2</ele>
        <time>2021-09-05T11:00:49Z</time>
      </trkpt>
      <trkpt lat="47.2345" lon="6.0425">
        <ele>417.4</ele>
        <time>2021-09-05T11:00:54Z</time>
      </trkpt>
      <trkpt lat="47.2345" lon="6.0425">
        <ele>418</ele>
        <time>2021-09-05T11:03:38Z</time>
      </trkpt>
      <trkpt lat="47.2345" lon="6.0425">
        <ele>418.4</ele>
        <time>2021-09-05T11:04:32Z</time>
      </trkpt>
      <trkpt lat="47.2345" lon="6.0425">
        <ele>418</ele>
        <time>2021-09-05T11:05:21Z</time>
      </trkpt>
      <trkpt lat="47.2345" lon="6.0425">
        <ele>417.8</ele>
        <time>2021-09-05T11:06:28Z</time>
      </trkpt>
      <trkpt lat="47.2345" lon="6.0425">
        <ele>417.4</ele>
        <time>2021-09-05T11:07:51Z</time>
      </trkpt>
      <trkpt lat="47.2345" lon="6.0425">
        <ele>417.8</ele>
        <time>2021-09-05T11:08:32Z</time>
      </trkpt>
      <trkpt lat="47.2345" lon="6.0425">
        <ele>418</ele>
        <time>2021-09-05T11:11:42Z</time>
      </trkpt>
      <trkpt lat="47.2345" lon="6.0425">
        <ele>418</ele>
        <time>2021-09-05T11:12:47Z</time>
      </trkpt>
      <trkpt lat="47.2345" lon="6.0425">
        <ele>418</ele>
        <time>2021-09-05T11:13:39Z</time>
      </trkpt>
      <trkpt lat="47.2345" lon="6.0425">
        <ele>418.2</ele>
        <time>2021-09-05T11:14:28Z</time>
      </trkpt>
      <trkpt lat="47.2345" lon="6.0425">
        <ele>417.8</ele>
        <time>2021-09-05T11:15:16Z</time>
      </trkpt>
      <trkpt lat="47.2345" lon="6.0425">
        <ele>417.6</ele>
        <time>2021-09-05T11:16:11Z</time>
      </trkpt>
      <trkpt lat="47.2345" lon="6.0425">
        <ele>417.4</ele>
        <time>2021-09-05T11:17:38Z</time>
      </trkpt>
      <trkpt lat="47.2345" lon="6.0425">
        <ele>417.2</ele>
        <time>2021-09-05T11:18:08Z</time>
      </trkpt>
      <trkpt lat="47.2345" lon="6.0425">
        <ele>417.6</ele>
        <time>2021-09-05T11:25:29Z</time>
      </trkpt>
      <trkpt lat="47.2345" lon="6.0425">
        <ele>418</ele>
        <time>2021-09-05T11:28:09Z</time>
      </trkpt>
      <trkpt lat="47.2345" lon="6.0425">
        <ele>417.8</ele>
        <time>2021-09-05T11:30:27Z</time>
      </trkpt>
      <trkpt lat="47.2345" lon="6.0425">
        <ele>417.4</ele>
        <time>2021-09-05T11:33:31Z</time>
      </trkpt>
      <trkpt lat="47.2345" lon="6.0425">
        <ele>417.4</ele>
        <time>2021-09-05T11:34:27Z</time>
      </trkpt>
      <trkpt lat="47.2345" lon="6.0425">
        <ele>417.6</ele>
        <time>2021-09-05T11:35:22Z</time>
      </trkpt>
      <trkpt lat="47.2345" lon="6.0425">
        <ele>417.4</ele>
        <time>2021-09-05T11:36:26Z</time>
      </trkpt>
      <trkpt lat="47.2345" lon="6.0425">
        <ele>417.4</ele>
        <time>2021-09-05T11:37:19Z</time>
      </trkpt>
      <trkpt lat="47.2345" lon="6.0425">
        <ele>417.2</ele>
        <time>2021-09-05T11:37:59Z</time>
      </trkpt>
      <trkpt lat="47.2345" lon="6.0425">
        <ele>417.2</ele>
        <time>2021-09-05T11:38:58Z</time>
      </trkpt>
      <trkpt lat="47.2345" lon="6.0425">
        <ele>417.2</ele>
        <time>2021-09-05T11:39:48Z</time>
      </trkpt>
      <trkpt lat="47.2345" lon="6.0425">
        <ele>417.4</ele>
        <time>2021-09-05T11:41:08Z</time>
      </trkpt>
      <trkpt lat="47.2345" lon="6.0425">
        <ele>417.8</ele>
        <time>2021-09-05T11:44:43Z</time>
      </trkpt>
      <trkpt lat="47.2345" lon="6.0425">
        <ele>417.8</ele>
        <time>2021-09-05T11:46:56Z</time>
      </trkpt>
      <trkpt lat="47.2345" lon="6.0425">
        <ele>418.2</ele>
        <time>2021-09-05T11:59:28Z</time>
      </trkpt>
      <trkpt lat="47.2345" lon="6.0425">
        <ele>418</ele>
        <time>2021-09-05T12:01:25Z</time>
      </trkpt>
      <trkpt lat="47.2345" lon="6.0425">
        <ele>418.6</ele>
        <time>2021-09-05T12:08:15Z</time>
      </trkpt>
      <trkpt lat="47.2345" lon="6.0425">
        <ele>418.2</ele>
        <time>2021-09-05T12:10:02Z</time>
      </trkpt>
      <trkpt lat="47.2345" lon="6.0425">
        <ele>417.2</ele>
        <time>2021-09-05T12:19:11Z</time>
      </trkpt>
      <trkpt lat="47.2345" lon="6.0425">
        <ele>417.4</ele>
        <time>2021-09-05T12:20:18Z</time>
      </trkpt>
      <trkpt lat="47.2345" lon="6.0425">
        <ele>417.2</ele>
        <time>2021-09-05T12:22:00Z</time>
      </trkpt>
      <trkpt lat="47.2345" lon="6.0425">
        <ele>417.4</ele>
        <time>2021-09-05T12:23:45Z</time>
      </trkpt>
      <trkpt lat="47.2345" lon="6.0425">
        <ele>417.8</ele>
        <time>2021-09-05T12:25:06Z</time>
      </trkpt>
      <trkpt lat="47.2345" lon="6.0425">
        <ele>418</ele>
        <time>2021-09-05T12:26:31Z</time>
      </trkpt>
      <trkpt lat="47.2345" lon="6.0425">
        <ele>418.2</ele>
        <time>2021-09-05T12:26:35Z</time>
      </trkpt>
      <trkpt lat="47.2345" lon="6.0425">
        <ele>418</ele>
        <time>2021-09-05T12:29:00Z</time>
      </trkpt>
      <trkpt lat="47.2345" lon="6.0425">
        <ele>417.6</ele>
        <time>2021-09-05T12:31:26Z</time>
      </trkpt>
      <trkpt lat="47.2345" lon="6.0425">
        <ele>419.6</ele>
        <time>2021-09-05T12:44:42Z</time>
      </trkpt>
      <trkpt lat="47.2345" lon="6.0425">
        <ele>419.8</ele>
        <time>2021-09-05T12:44:50Z</time>
      </trkpt>
      <trkpt lat="47.2345" lon="6.0425">
        <ele>419.6</ele>
        <time>2021-09-05T12:45:33Z</time>
      </trkpt>
      <trkpt lat="47.2345" lon="6.0425">
        <ele>419</ele>
        <time>2021-09-05T12:46:17Z</time>
      </trkpt>
      <trkpt lat="47.2345" lon="6.0425">
        <ele>419.4</ele>
        <time>2021-09-05T12:47:28Z</time>
      </trkpt>
      <trkpt lat="47.2345" lon="6.0425">
        <ele>419</ele>
        <time>2021-09-05T12:49:31Z</time>
      </trkpt>
      <trkpt lat="47.2345" lon="6.0425">
        <ele>419.4</ele>
        <time>2021-09-05T12:51:06Z</time>
      </trkpt>
      <trkpt lat="47.2345" lon="6.0425">
        <ele>420</ele>
        <time>2021-09-05T12:53:33Z</time>
      </trkpt>
      <trkpt lat="47.2345" lon="6.0425">
        <ele>419.4</ele>
        <time>2021-09-05T12:55:02Z</time>
      </trkpt>
      <trkpt lat="47.2345" lon="6.0425">
        <ele>419.6</ele>
        <time>2021-09-05T12:58:14Z</time>
      </trkpt>
      <trkpt lat="47.2345" lon="6.0425">
        <ele>419</ele>
        <time>2021-09-05T12:59:43Z</time>
      </trkpt>
      <trkpt lat="47.2345" lon="6.0425">
        <ele>419.2</ele>
        <time>2021-09-05T13:01:44Z</time>
      </trkpt>
      <trkpt lat="47.2345" lon="6.0425">
        <ele>419.4</ele>
        <time>2021-09-05T13:03:58Z</time>
      </trkpt>
      <trkpt lat="47.2345" lon="6.0425">
        <ele>420.4</ele>
        <time>2021-09-05T13:09:22Z</time>
      </trkpt>
      <trkpt lat="47.2345" lon="6.0425">
        <ele>420.4</ele>
        <time>2021-09-05T13:09:35Z</time>
      </trkpt>
      <trkpt lat="47.2345" lon="6.0425">
        <ele>420.2</ele>
        <time>2021-09-05T13:10:55Z</time>
      </trkpt>
      <trkpt lat="47.2345" lon="6.0425">
        <ele>420.6</ele>
        <time>2021-09-05T13:19:32Z</time>
      </trkpt>
      <trkpt lat="47.2345" lon="6.0425">
        <ele>420.6</ele>
        <time>2021-09-05T13:24:02Z</time>
      </trkpt>
      <trkpt lat="47.23451" lon="6.04249">
        <ele>420.6</ele>
        <time>2021-09-05T13:25:19Z</time>
      </trkpt>
      <trkpt lat="47.23453" lon="6.04247">
        <ele>420.6</ele>
        <time>2021-09-05T13:25:21Z</time>
      </trkpt>
      <trkpt lat="47.23454" lon="6.04247">
        <ele>420.6</ele>
        <time>2021-09-05T13:25:22Z</time>
      </trkpt>
      <trkpt lat="47.23456" lon="6.04245">
        <ele>420.6</ele>
        <time>2021-09-05T13:25:24Z</time>
      </trkpt>
      <trkpt lat="47.23456" lon="6.04246">
        <ele>420.8</ele>
        <time>2021-09-05T13:25:27Z</time>
      </trkpt>
      <trkpt lat="47.23458" lon="6.04244">
        <ele>420.8</ele>
        <time>2021-09-05T13:25:40Z</time>
      </trkpt>
      <trkpt lat="47.2346" lon="6.04244">
        <ele>420.8</ele>
        <time>2021-09-05T13:25:41Z</time>
      </trkpt>
      <trkpt lat="47.23468" lon="6.04238">
        <ele>420.6</ele>
        <time>2021-09-05T13:25:47Z</time>
      </trkpt>
      <trkpt lat="47.23469" lon="6.04236">
        <ele>420.6</ele>
        <time>2021-09-05T13:25:48Z</time>
      </trkpt>
      <trkpt lat="47.2347" lon="6.04235">
        <ele>420.6</ele>
        <time>2021-09-05T13:25:49Z</time>
      </trkpt>
      <trkpt lat="47.23471" lon="6.04233">
        <ele>420.6</ele>
        <time>2021-09-05T13:25:50Z</time>
      </trkpt>
      <trkpt lat="47.23471" lon="6.04232">
        <ele>420.4</ele>
        <time>2021-09-05T13:25:51Z</time>
      </trkpt>
      <trkpt lat="47.23471" lon="6.0423">
        <ele>420.4</ele>
        <time>2021-09-05T13:25:52Z</time>
      </trkpt>
      <trkpt lat="47.23471" lon="6.04228">
        <ele>420.4</ele>
        <time>2021-09-05T13:25:53Z</time>
      </trkpt>
      <trkpt lat="47.23473" lon="6.04218">
        <ele>420.4</ele>
        <time>2021-09-05T13:25:58Z</time>
      </trkpt>
      <trkpt lat="47.23473" lon="6.04217">
        <ele>420.4</ele>
        <time>2021-09-05T13:25:59Z</time>
      </trkpt>
      <trkpt lat="47.23474" lon="6.04215">
        <ele>420.4</ele>
        <time>2021-09-05T13:26:00Z</time>
      </trkpt>
      <trkpt lat="47.23475" lon="6.04214">
        <ele>420.4</ele>
        <time>2021-09-05T13:26:01Z</time>
      </trkpt>
      <trkpt lat="47.23477" lon="6.04212">
        <ele>420.2</ele>
        <time>2021-09-05T13:26:02Z</time>
      </trkpt>
      <trkpt lat="47.23478" lon="6.0421">
        <ele>420.2</ele>
        <time>2021-09-05T13:26:03Z</time>
      </trkpt>
      <trkpt lat="47.2348" lon="6.04209">
        <ele>420</ele>
        <time>2021-09-05T13:26:04Z</time>
      </trkpt>
      <trkpt lat="47.23481" lon="6.04208">
        <ele>420</ele>
        <time>2021-09-05T13:26:05Z</time>
      </trkpt>
      <trkpt lat="47.23484" lon="6.04207">
        <ele>419.6</ele>
        <time>2021-09-05T13:26:07Z</time>
      </trkpt>
      <trkpt lat="47.23485" lon="6.04206">
        <ele>419.4</ele>
        <time>2021-09-05T13:26:08Z</time>
      </trkpt>
      <trkpt lat="47.23486" lon="6.04206">
        <ele>419.4</ele>
        <time>2021-09-05T13:26:09Z</time>
      </trkpt>
      <trkpt lat="47.2349" lon="6.04203">
        <ele>419</ele>
        <time>2021-09-05T13:26:12Z</time>
      </trkpt>
      <trkpt lat="47.23492" lon="6.04201">
        <ele>419</ele>
        <time>2021-09-05T13:26:13Z</time>
      </trkpt>
      <trkpt lat="47.23494" lon="6.04197">
        <ele>418.8</ele>
        <time>2021-09-05T13:26:15Z</time>
      </trkpt>
      <trkpt lat="47.23495" lon="6.04195">
        <ele>418.8</ele>
        <time>2021-09-05T13:26:16Z</time>
      </trkpt>
      <trkpt lat="47.23496" lon="6.04184">
        <ele>418</ele>
        <time>2021-09-05T13:26:21Z</time>
      </trkpt>
      <trkpt lat="47.23498" lon="6.04178">
        <ele>417.8</ele>
        <time>2021-09-05T13:26:23Z</time>
      </trkpt>
      <trkpt lat="47.235" lon="6.04175">
        <ele>417.6</ele>
        <time>2021-09-05T13:26:24Z</time>
      </trkpt>
      <trkpt lat="47.23502" lon="6.04172">
        <ele>417.2</ele>
        <time>2021-09-05T13:26:25Z</time>
      </trkpt>
      <trkpt lat="47.23505" lon="6.04168">
        <ele>416.6</ele>
        <time>2021-09-05T13:26:26Z</time>
      </trkpt>
      <trkpt lat="47.23514" lon="6.04157">
        <ele>415.2</ele>
        <time>2021-09-05T13:26:29Z</time>
      </trkpt>
      <trkpt lat="47.2352" lon="6.0415">
        <ele>413.4</ele>
        <time>2021-09-05T13:26:31Z</time>
      </trkpt>
      <trkpt lat="47.23522" lon="6.04147">
        <ele>413.2</ele>
        <time>2021-09-05T13:26:32Z</time>
      </trkpt>
      <trkpt lat="47.23524" lon="6.04145">
        <ele>412</ele>
        <time>2021-09-05T13:26:33Z</time>
      </trkpt>
      <trkpt lat="47.23526" lon="6.04142">
        <ele>411.4</ele>
        <time>2021-09-05T13:26:34Z</time>
      </trkpt>
      <trkpt lat="47.23528" lon="6.0414">
        <ele>410.4</ele>
        <time>2021-09-05T13:26:35Z</time>
      </trkpt>
      <trkpt lat="47.23529" lon="6.04138">
        <ele>409.6</ele>
        <time>2021-09-05T13:26:36Z</time>
      </trkpt>
      <trkpt lat="47.23531" lon="6.04137">
        <ele>408.6</ele>
        <time>2021-09-05T13:26:37Z</time>
      </trkpt>
      <trkpt lat="47.23532" lon="6.04135">
        <ele>407.8</ele>
        <time>2021-09-05T13:26:38Z</time>
      </trkpt>
      <trkpt lat="47.23533" lon="6.04134">
        <ele>407.2</ele>
        <time>2021-09-05T13:26:39Z</time>
      </trkpt>
      <trkpt lat="47.23534" lon="6.04133">
        <ele>406.2</ele>
        <time>2021-09-05T13:26:40Z</time>
      </trkpt>
      <trkpt lat="47.23536" lon="6.04131">
        <ele>405.8</ele>
        <time>2021-09-05T13:26:41Z</time>
      </trkpt>
      <trkpt lat="47.2354" lon="6.04124">
        <ele>405.2</ele>
        <time>2021-09-05T13:26:43Z</time>
      </trkpt>
      <trkpt lat="47.23542" lon="6.04121">
        <ele>405</ele>
        <time>2021-09-05T13:26:44Z</time>
      </trkpt>
      <trkpt lat="47.23549" lon="6.04113">
        <ele>404.4</ele>
        <time>2021-09-05T13:26:46Z</time>
      </trkpt>
      <trkpt lat="47.23552" lon="6.04108">
        <ele>403.6</ele>
        <time>2021-09-05T13:26:47Z</time>
      </trkpt>
      <trkpt lat="47.23558" lon="6.04099">
        <ele>402.2</ele>
        <time>2021-09-05T13:26:49Z</time>
      </trkpt>
      <trkpt lat="47.23561" lon="6.04095">
        <ele>401.2</ele>
        <time>2021-09-05T13:26:50Z</time>
      </trkpt>
      <trkpt lat="47.23564" lon="6.0409">
        <ele>400.6</ele>
        <time>2021-09-05T13:26:51Z</time>
      </trkpt>
      <trkpt lat="47.23567" lon="6.04086">
        <ele>400.2</ele>
        <time>2021-09-05T13:26:52Z</time>
      </trkpt>
      <trkpt lat="47.23569" lon="6.04083">
        <ele>399.8</ele>
        <time>2021-09-05T13:26:53Z</time>
      </trkpt>
      <trkpt lat="47.23572" lon="6.04079">
        <ele>398.4</ele>
        <time>2021-09-05T13:26:54Z</time>
      </trkpt>
      <trkpt lat="47.23575" lon="6.04076">
        <ele>397.2</ele>
        <time>2021-09-05T13:26:55Z</time>
      </trkpt>
      <trkpt lat="47.23583" lon="6.04069">
        <ele>395.6</ele>
        <time>2021-09-05T13:26:57Z</time>
      </trkpt>
      <trkpt lat="47.23593" lon="6.04058">
        <ele>393.8</ele>
        <time>2021-09-05T13:27:00Z</time>
      </trkpt>
      <trkpt lat="47.236" lon="6.04051">
        <ele>392.6</ele>
        <time>2021-09-05T13:27:02Z</time>
      </trkpt>
      <trkpt lat="47.23603" lon="6.04048">
        <ele>392.2</ele>
        <time>2021-09-05T13:27:03Z</time>
      </trkpt>
      <trkpt lat="47.23605" lon="6.04046">
        <ele>391.2</ele>
        <time>2021-09-05T13:27:04Z</time>
      </trkpt>
      <trkpt lat="47.23608" lon="6.04043">
        <ele>390.6</ele>
        <time>2021-09-05T13:27:05Z</time>
      </trkpt>
      <trkpt lat="47.23611" lon="6.04038">
        <ele>390</ele>
        <time>2021-09-05T13:27:06Z</time>
      </trkpt>
      <trkpt lat="47.23613" lon="6.04034">
        <ele>389.4</ele>
        <time>2021-09-05T13:27:07Z</time>
      </trkpt>
      <trkpt lat="47.23615" lon="6.04032">
        <ele>389.2</ele>
        <time>2021-09-05T13:27:08Z</time>
      </trkpt>
      <trkpt lat="47.23617" lon="6.04029">
        <ele>388.6</ele>
        <time>2021-09-05T13:27:09Z</time>
      </trkpt>
      <trkpt lat="47.2362" lon="6.04028">
        <ele>388.6</ele>
        <time>2021-09-05T13:27:10Z</time>
      </trkpt>
      <trkpt lat="47.23623" lon="6.04027">
        <ele>387.8</ele>
        <time>2021-09-05T13:27:11Z</time>
      </trkpt>
      <trkpt lat="47.23626" lon="6.04027">
        <ele>387.2</ele>
        <time>2021-09-05T13:27:12Z</time>
      </trkpt>
      <trkpt lat="47.23628" lon="6.04027">
        <ele>386.8</ele>
        <time>2021-09-05T13:27:13Z</time>
      </trkpt>
      <trkpt lat="47.2363" lon="6.04027">
        <ele>386</ele>
        <time>2021-09-05T13:27:14Z</time>
      </trkpt>
      <trkpt lat="47.23633" lon="6.04028">
        <ele>385.6</ele>
        <time>2021-09-05T13:27:15Z</time>
      </trkpt>
      <trkpt lat="47.23635" lon="6.04028">
        <ele>384.8</ele>
        <time>2021-09-05T13:27:16Z</time>
      </trkpt>
      <trkpt lat="47.23636" lon="6.04028">
        <ele>384</ele>
        <time>2021-09-05T13:27:17Z</time>
      </trkpt>
      <trkpt lat="47.23638" lon="6.04028">
        <ele>383.6</ele>
        <time>2021-09-05T13:27:18Z</time>
      </trkpt>
      <trkpt lat="47.23638" lon="6.04028">
        <ele>383.2</ele>
        <time>2021-09-05T13:27:19Z</time>
      </trkpt>
      <trkpt lat="47.23638" lon="6.04028">
        <ele>383</ele>
        <time>2021-09-05T13:27:20Z</time>
      </trkpt>
      <trkpt lat="47.23638" lon="6.04028">
        <ele>382.4</ele>
        <time>2021-09-05T13:27:21Z</time>
      </trkpt>
      <trkpt lat="47.23638" lon="6.04028">
        <ele>382.2</ele>
        <time>2021-09-05T13:27:22Z</time>
      </trkpt>
      <trkpt lat="47.23638" lon="6.04028">
        <ele>381.2</ele>
        <time>2021-09-05T13:27:23Z</time>
      </trkpt>
      <trkpt lat="47.23638" lon="6.04028">
        <ele>380.2</ele>
        <time>2021-09-05T13:27:27Z</time>
      </trkpt>
      <trkpt lat="47.23638" lon="6.04028">
        <ele>380.4</ele>
        <time>2021-09-05T13:27:28Z</time>
      </trkpt>
      <trkpt lat="47.23639" lon="6.04027">
        <ele>379.6</ele>
        <time>2021-09-05T13:27:37Z</time>
      </trkpt>
      <trkpt lat="47.23639" lon="6.04027">
        <ele>379.6</ele>
        <time>2021-09-05T13:27:40Z</time>
      </trkpt>
      <trkpt lat="47.23639" lon="6.04027">
        <ele>379.4</ele>
        <time>2021-09-05T13:27:48Z</time>
      </trkpt>
      <trkpt lat="47.23641" lon="6.04029">
        <ele>379</ele>
        <time>2021-09-05T13:28:10Z</time>
      </trkpt>
      <trkpt lat="47.23642" lon="6.0403">
        <ele>379</ele>
        <time>2021-09-05T13:28:11Z</time>
      </trkpt>
      <trkpt lat="47.23642" lon="6.04032">
        <ele>379</ele>
        <time>2021-09-05T13:28:12Z</time>
      </trkpt>
      <trkpt lat="47.23643" lon="6.04035">
        <ele>379</ele>
        <time>2021-09-05T13:28:14Z</time>
      </trkpt>
      <trkpt lat="47.23649" lon="6.04047">
        <ele>379</ele>
        <time>2021-09-05T13:28:19Z</time>
      </trkpt>
      <trkpt lat="47.2365" lon="6.04048">
        <ele>379</ele>
        <time>2021-09-05T13:28:20Z</time>
      </trkpt>
      <trkpt lat="47.23651" lon="6.0405">
        <ele>379</ele>
        <time>2021-09-05T13:28:21Z</time>
      </trkpt>
      <trkpt lat="47.23652" lon="6.04052">
        <ele>379.2</ele>
        <time>2021-09-05T13:28:22Z</time>
      </trkpt>
      <trkpt lat="47.23652" lon="6.04054">
        <ele>379.2</ele>
        <time>2021-09-05T13:28:23Z</time>
      </trkpt>
      <trkpt lat="47.23653" lon="6.04056">
        <ele>379.2</ele>
        <time>2021-09-05T13:28:24Z</time>
      </trkpt>
      <trkpt lat="47.23654" lon="6.04057">
        <ele>379.2</ele>
        <time>2021-09-05T13:28:25Z</time>
      </trkpt>
      <trkpt lat="47.23655" lon="6.04058">
        <ele>379.4</ele>
        <time>2021-09-05T13:28:26Z</time>
      </trkpt>
      <trkpt lat="47.23655" lon="6.04059">
        <ele>379.4</ele>
        <time>2021-09-05T13:28:27Z</time>
      </trkpt>
      <trkpt lat="47.23657" lon="6.04063">
        <ele>379.4</ele>
        <time>2021-09-05T13:28:28Z</time>
      </trkpt>
      <trkpt lat="47.23661" lon="6.04066">
        <ele>379.6</ele>
        <time>2021-09-05T13:28:29Z</time>
      </trkpt>
      <trkpt lat="47.23662" lon="6.04069">
        <ele>379.6</ele>
        <time>2021-09-05T13:28:30Z</time>
      </trkpt>
      <trkpt lat="47.23662" lon="6.04071">
        <ele>379.6</ele>
        <time>2021-09-05T13:28:31Z</time>
      </trkpt>
      <trkpt lat="47.23663" lon="6.04073">
        <ele>379.6</ele>
        <time>2021-09-05T13:28:32Z</time>
      </trkpt>
      <trkpt lat="47.23664" lon="6.04076">
        <ele>379.6</ele>
        <time>2021-09-05T13:28:33Z</time>
      </trkpt>
      <trkpt lat="47.23666" lon="6.04079">
        <ele>379.6</ele>
        <time>2021-09-05T13:28:34Z</time>
      </trkpt>
      <trkpt lat="47.23668" lon="6.04081">
        <ele>379.6</ele>
        <time>2021-09-05T13:28:35Z</time>
      </trkpt>
      <trkpt lat="47.23671" lon="6.04083">
        <ele>379.8</ele>
        <time>2021-09-05T13:28:36Z</time>
      </trkpt>
      <trkpt lat="47.23673" lon="6.04085">
        <ele>379.6</ele>
        <time>2021-09-05T13:28:37Z</time>
      </trkpt>
      <trkpt lat="47.23679" lon="6.04092">
        <ele>379.6</ele>
        <time>2021-09-05T13:28:39Z</time>
      </trkpt>
      <trkpt lat="47.23684" lon="6.04095">
        <ele>379.4</ele>
        <time>2021-09-05T13:28:41Z</time>
      </trkpt>
      <trkpt lat="47.23693" lon="6.04105">
        <ele>378.8</ele>
        <time>2021-09-05T13:28:43Z</time>
      </trkpt>
      <trkpt lat="47.23704" lon="6.04122">
        <ele>378</ele>
        <time>2021-09-05T13:28:46Z</time>
      </trkpt>
      <trkpt lat="47.23707" lon="6.04128">
        <ele>377.8</ele>
        <time>2021-09-05T13:28:47Z</time>
      </trkpt>
      <trkpt lat="47.2371" lon="6.04132">
        <ele>377.6</ele>
        <time>2021-09-05T13:28:48Z</time>
      </trkpt>
      <trkpt lat="47.23721" lon="6.04148">
        <ele>377</ele>
        <time>2021-09-05T13:28:51Z</time>
      </trkpt>
      <trkpt lat="47.23723" lon="6.04153">
        <ele>376.6</ele>
        <time>2021-09-05T13:28:53Z</time>
      </trkpt>
      <trkpt lat="47.23724" lon="6.04153">
        <ele>376.4</ele>
        <time>2021-09-05T13:28:54Z</time>
      </trkpt>
      <trkpt lat="47.23724" lon="6.04153">
        <ele>376.2</ele>
        <time>2021-09-05T13:28:57Z</time>
      </trkpt>
      <trkpt lat="47.23724" lon="6.04153">
        <ele>376</ele>
        <time>2021-09-05T13:29:01Z</time>
      </trkpt>
      <trkpt lat="47.23724" lon="6.04153">
        <ele>375.4</ele>
        <time>2021-09-05T13:29:12Z</time>
      </trkpt>
      <trkpt lat="47.23725" lon="6.04155">
        <ele>375.4</ele>
        <time>2021-09-05T13:29:13Z</time>
      </trkpt>
      <trkpt lat="47.23726" lon="6.04157">
        <ele>375.4</ele>
        <time>2021-09-05T13:29:14Z</time>
      </trkpt>
      <trkpt lat="47.23727" lon="6.04159">
        <ele>375.4</ele>
        <time>2021-09-05T13:29:15Z</time>
      </trkpt>
      <trkpt lat="47.23728" lon="6.04161">
        <ele>375.4</ele>
        <time>2021-09-05T13:29:16Z</time>
      </trkpt>
      <trkpt lat="47.23729" lon="6.04163">
        <ele>375.4</ele>
        <time>2021-09-05T13:29:17Z</time>
      </trkpt>
      <trkpt lat="47.2373" lon="6.04166">
        <ele>375.4</ele>
        <time>2021-09-05T13:29:18Z</time>
      </trkpt>
      <trkpt lat="47.23732" lon="6.04169">
        <ele>375.4</ele>
        <time>2021-09-05T13:29:19Z</time>
      </trkpt>
      <trkpt lat="47.23738" lon="6.04176">
        <ele>375.2</ele>
        <time>2021-09-05T13:29:22Z</time>
      </trkpt>
      <trkpt lat="47.23741" lon="6.04178">
        <ele>375.2</ele>
        <time>2021-09-05T13:29:23Z</time>
      </trkpt>
      <trkpt lat="47.23743" lon="6.04181">
        <ele>375.2</ele>
        <time>2021-09-05T13:29:24Z</time>
      </trkpt>
      <trkpt lat="47.23745" lon="6.04184">
        <ele>375</ele>
        <time>2021-09-05T13:29:25Z</time>
      </trkpt>
      <trkpt lat="47.23755" lon="6.04194">
        <ele>374.8</ele>
        <time>2021-09-05T13:29:27Z</time>
      </trkpt>
      <trkpt lat="47.23762" lon="6.04199">
        <ele>374.8</ele>
        <time>2021-09-05T13:29:28Z</time>
      </trkpt>
      <trkpt lat="47.23789" lon="6.04221">
        <ele>372.6</ele>
        <time>2021-09-05T13:29:32Z</time>
      </trkpt>
      <trkpt lat="47.23795" lon="6.04227">
        <ele>372.2</ele>
        <time>2021-09-05T13:29:33Z</time>
      </trkpt>
      <trkpt lat="47.23802" lon="6.04233">
        <ele>371.4</ele>
        <time>2021-09-05T13:29:34Z</time>
      </trkpt>
      <trkpt lat="47.23822" lon="6.0425">
        <ele>369.6</ele>
        <time>2021-09-05T13:29:37Z</time>
      </trkpt>
      <trkpt lat="47.23836" lon="6.04261">
        <ele>368.6</ele>
        <time>2021-09-05T13:29:39Z</time>
      </trkpt>
      <trkpt lat="47.23843" lon="6.04265">
        <ele>368.2</ele>
        <time>2021-09-05T13:29:40Z</time>
      </trkpt>
      <trkpt lat="47.23849" lon="6.0427">
        <ele>367.4</ele>
        <time>2021-09-05T13:29:41Z</time>
      </trkpt>
      <trkpt lat="47.23855" lon="6.04274">
        <ele>367</ele>
        <time>2021-09-05T13:29:42Z</time>
      </trkpt>
      <trkpt lat="47.23867" lon="6.04284">
        <ele>365.2</ele>
        <time>2021-09-05T13:29:44Z</time>
      </trkpt>
      <trkpt lat="47.23874" lon="6.04289">
        <ele>364.8</ele>
        <time>2021-09-05T13:29:45Z</time>
      </trkpt>
      <trkpt lat="47.23878" lon="6.04293">
        <ele>363.4</ele>
        <time>2021-09-05T13:29:46Z</time>
      </trkpt>
      <trkpt lat="47.23881" lon="6.04295">
        <ele>362.8</ele>
        <time>2021-09-05T13:29:47Z</time>
      </trkpt>
      <trkpt lat="47.23886" lon="6.04299">
        <ele>362</ele>
        <time>2021-09-05T13:29:48Z</time>
      </trkpt>
      <trkpt lat="47.23892" lon="6.04303">
        <ele>361.4</ele>
        <time>2021-09-05T13:29:49Z</time>
      </trkpt>
      <trkpt lat="47.23895" lon="6.04304">
        <ele>360.4</ele>
        <time>2021-09-05T13:29:50Z</time>
      </trkpt>
      <trkpt lat="47.23899" lon="6.04306">
        <ele>359.4</ele>
        <time>2021-09-05T13:29:51Z</time>
      </trkpt>
      <trkpt lat="47.23901" lon="6.04308">
        <ele>359.2</ele>
        <time>2021-09-05T13:29:52Z</time>
      </trkpt>
      <trkpt lat="47.23905" lon="6.04311">
        <ele>358.2</ele>
        <time>2021-09-05T13:29:53Z</time>
      </trkpt>
      <trkpt lat="47.23907" lon="6.04313">
        <ele>357.8</ele>
        <time>2021-09-05T13:29:54Z</time>
      </trkpt>
      <trkpt lat="47.23907" lon="6.04313">
        <ele>357.2</ele>
        <time>2021-09-05T13:29:55Z</time>
      </trkpt>
      <trkpt lat="47.23909" lon="6.04313">
        <ele>357</ele>
        <time>2021-09-05T13:29:56Z</time>
      </trkpt>
      <trkpt lat="47.23912" lon="6.04316">
        <ele>356.8</ele>
        <time>2021-09-05T13:29:57Z</time>
      </trkpt>
      <trkpt lat="47.23916" lon="6.04318">
        <ele>356.6</ele>
        <time>2021-09-05T13:29:58Z</time>
      </trkpt>
      <trkpt lat="47.23923" lon="6.04322">
        <ele>356</ele>
        <time>2021-09-05T13:30:01Z</time>
      </trkpt>
      <trkpt lat="47.23923" lon="6.04322">
        <ele>356</ele>
        <time>2021-09-05T13:30:02Z</time>
      </trkpt>
      <trkpt lat="47.23923" lon="6.04322">
        <ele>355.8</ele>
        <time>2021-09-05T13:30:03Z</time>
      </trkpt>
      <trkpt lat="47.23923" lon="6.04322">
        <ele>355</ele>
        <time>2021-09-05T13:30:13Z</time>
      </trkpt>
      <trkpt lat="47.23924" lon="6.04322">
        <ele>354.8</ele>
        <time>2021-09-05T13:30:14Z</time>
      </trkpt>
      <trkpt lat="47.23932" lon="6.04322">
        <ele>354.6</ele>
        <time>2021-09-05T13:30:18Z</time>
      </trkpt>
      <trkpt lat="47.23934" lon="6.04323">
        <ele>354.6</ele>
        <time>2021-09-05T13:30:19Z</time>
      </trkpt>
      <trkpt lat="47.23936" lon="6.04327">
        <ele>354.4</ele>
        <time>2021-09-05T13:30:21Z</time>
      </trkpt>
      <trkpt lat="47.23937" lon="6.04328">
        <ele>354.4</ele>
        <time>2021-09-05T13:30:22Z</time>
      </trkpt>
      <trkpt lat="47.23938" lon="6.04328">
        <ele>354.4</ele>
        <time>2021-09-05T13:30:23Z</time>
      </trkpt>
      <trkpt lat="47.23939" lon="6.04329">
        <ele>354.2</ele>
        <time>2021-09-05T13:30:24Z</time>
      </trkpt>
      <trkpt lat="47.23941" lon="6.0433">
        <ele>354.2</ele>
        <time>2021-09-05T13:30:25Z</time>
      </trkpt>
      <trkpt lat="47.23949" lon="6.04336">
        <ele>353.8</ele>
        <time>2021-09-05T13:30:28Z</time>
      </trkpt>
      <trkpt lat="47.23952" lon="6.04339">
        <ele>353.6</ele>
        <time>2021-09-05T13:30:29Z</time>
      </trkpt>
      <trkpt lat="47.23965" lon="6.0435">
        <ele>352.8</ele>
        <time>2021-09-05T13:30:33Z</time>
      </trkpt>
      <trkpt lat="47.23968" lon="6.04353">
        <ele>352.2</ele>
        <time>2021-09-05T13:30:34Z</time>
      </trkpt>
      <trkpt lat="47.23971" lon="6.04356">
        <ele>352</ele>
        <time>2021-09-05T13:30:35Z</time>
      </trkpt>
      <trkpt lat="47.23975" lon="6.04358">
        <ele>351.6</ele>
        <time>2021-09-05T13:30:36Z</time>
      </trkpt>
      <trkpt lat="47.23979" lon="6.04358">
        <ele>351.4</ele>
        <time>2021-09-05T13:30:37Z</time>
      </trkpt>
      <trkpt lat="47.23984" lon="6.04358">
        <ele>351.4</ele>
        <time>2021-09-05T13:30:38Z</time>
      </trkpt>
      <trkpt lat="47.2399" lon="6.04356">
        <ele>350.8</ele>
        <time>2021-09-05T13:30:39Z</time>
      </trkpt>
      <trkpt lat="47.23995" lon="6.04353">
        <ele>350.6</ele>
        <time>2021-09-05T13:30:40Z</time>
      </trkpt>
      <trkpt lat="47.24001" lon="6.04349">
        <ele>350.2</ele>
        <time>2021-09-05T13:30:41Z</time>
      </trkpt>
      <trkpt lat="47.24008" lon="6.04344">
        <ele>349.8</ele>
        <time>2021-09-05T13:30:42Z</time>
      </trkpt>
      <trkpt lat="47.24015" lon="6.04339">
        <ele>349.2</ele>
        <time>2021-09-05T13:30:43Z</time>
      </trkpt>
      <trkpt lat="47.24028" lon="6.04332">
        <ele>348</ele>
        <time>2021-09-05T13:30:45Z</time>
      </trkpt>
      <trkpt lat="47.24034" lon="6.0433">
        <ele>347.4</ele>
        <time>2021-09-05T13:30:46Z</time>
      </trkpt>
      <trkpt lat="47.24041" lon="6.0433">
        <ele>347</ele>
        <time>2021-09-05T13:30:47Z</time>
      </trkpt>
      <trkpt lat="47.24048" lon="6.04331">
        <ele>346.2</ele>
        <time>2021-09-05T13:30:48Z</time>
      </trkpt>
      <trkpt lat="47.24054" lon="6.04334">
        <ele>345.6</ele>
        <time>2021-09-05T13:30:49Z</time>
      </trkpt>
      <trkpt lat="47.24061" lon="6.04337">
        <ele>345.2</ele>
        <time>2021-09-05T13:30:50Z</time>
      </trkpt>
      <trkpt lat="47.24067" lon="6.04341">
        <ele>344.6</ele>
        <time>2021-09-05T13:30:51Z</time>
      </trkpt>
      <trkpt lat="47.24079" lon="6.04347">
        <ele>343.4</ele>
        <time>2021-09-05T13:30:53Z</time>
      </trkpt>
      <trkpt lat="47.24085" lon="6.04348">
        <ele>343</ele>
        <time>2021-09-05T13:30:54Z</time>
      </trkpt>
      <trkpt lat="47.24092" lon="6.04349">
        <ele>342.6</ele>
        <time>2021-09-05T13:30:55Z</time>
      </trkpt>
      <trkpt lat="47.24099" lon="6.04349">
        <ele>342.2</ele>
        <time>2021-09-05T13:30:56Z</time>
      </trkpt>
      <trkpt lat="47.24111" lon="6.04347">
        <ele>342</ele>
        <time>2021-09-05T13:30:58Z</time>
      </trkpt>
      <trkpt lat="47.24115" lon="6.04345">
        <ele>342</ele>
        <time>2021-09-05T13:30:59Z</time>
      </trkpt>
      <trkpt lat="47.24119" lon="6.0434">
        <ele>341.6</ele>
        <time>2021-09-05T13:31:00Z</time>
      </trkpt>
      <trkpt lat="47.24122" lon="6.04334">
        <ele>341.2</ele>
        <time>2021-09-05T13:31:01Z</time>
      </trkpt>
      <trkpt lat="47.24123" lon="6.04325">
        <ele>341</ele>
        <time>2021-09-05T13:31:02Z</time>
      </trkpt>
      <trkpt lat="47.24122" lon="6.04316">
        <ele>340.6</ele>
        <time>2021-09-05T13:31:03Z</time>
      </trkpt>
      <trkpt lat="47.24119" lon="6.04307">
        <ele>340.8</ele>
        <time>2021-09-05T13:31:04Z</time>
      </trkpt>
      <trkpt lat="47.24115" lon="6.04299">
        <ele>340.2</ele>
        <time>2021-09-05T13:31:05Z</time>
      </trkpt>
      <trkpt lat="47.24112" lon="6.04289">
        <ele>339.8</ele>
        <time>2021-09-05T13:31:06Z</time>
      </trkpt>
      <trkpt lat="47.24109" lon="6.04271">
        <ele>338.4</ele>
        <time>2021-09-05T13:31:08Z</time>
      </trkpt>
      <trkpt lat="47.2411" lon="6.04262">
        <ele>338</ele>
        <time>2021-09-05T13:31:09Z</time>
      </trkpt>
      <trkpt lat="47.24111" lon="6.04254">
        <ele>337.4</ele>
        <time>2021-09-05T13:31:10Z</time>
      </trkpt>
      <trkpt lat="47.24112" lon="6.04244">
        <ele>337.2</ele>
        <time>2021-09-05T13:31:11Z</time>
      </trkpt>
      <trkpt lat="47.24114" lon="6.04235">
        <ele>336.6</ele>
        <time>2021-09-05T13:31:12Z</time>
      </trkpt>
      <trkpt lat="47.24115" lon="6.04226">
        <ele>336</ele>
        <time>2021-09-05T13:31:13Z</time>
      </trkpt>
      <trkpt lat="47.24116" lon="6.04208">
        <ele>334.8</ele>
        <time>2021-09-05T13:31:15Z</time>
      </trkpt>
      <trkpt lat="47.24116" lon="6.042">
        <ele>334.6</ele>
        <time>2021-09-05T13:31:16Z</time>
      </trkpt>
      <trkpt lat="47.24116" lon="6.04192">
        <ele>334</ele>
        <time>2021-09-05T13:31:17Z</time>
      </trkpt>
      <trkpt lat="47.24116" lon="6.04185">
        <ele>333.4</ele>
        <time>2021-09-05T13:31:18Z</time>
      </trkpt>
      <trkpt lat="47.24115" lon="6.04179">
        <ele>332.8</ele>
        <time>2021-09-05T13:31:19Z</time>
      </trkpt>
      <trkpt lat="47.24115" lon="6.04172">
        <ele>332.2</ele>
        <time>2021-09-05T13:31:20Z</time>
      </trkpt>
      <trkpt lat="47.24115" lon="6.04164">
        <ele>332</ele>
        <time>2021-09-05T13:31:21Z</time>
      </trkpt>
      <trkpt lat="47.24115" lon="6.04156">
        <ele>331.2</ele>
        <time>2021-09-05T13:31:22Z</time>
      </trkpt>
      <trkpt lat="47.24116" lon="6.0413">
        <ele>330</ele>
        <time>2021-09-05T13:31:25Z</time>
      </trkpt>
      <trkpt lat="47.24117" lon="6.04108">
        <ele>329</ele>
        <time>2021-09-05T13:31:27Z</time>
      </trkpt>
      <trkpt lat="47.24116" lon="6.04084">
        <ele>328</ele>
        <time>2021-09-05T13:31:29Z</time>
      </trkpt>
      <trkpt lat="47.24115" lon="6.04072">
        <ele>327.6</ele>
        <time>2021-09-05T13:31:30Z</time>
      </trkpt>
      <trkpt lat="47.24115" lon="6.04058">
        <ele>326.6</ele>
        <time>2021-09-05T13:31:31Z</time>
      </trkpt>
      <trkpt lat="47.24113" lon="6.0403">
        <ele>325.4</ele>
        <time>2021-09-05T13:31:33Z</time>
      </trkpt>
      <trkpt lat="47.24111" lon="6.04001">
        <ele>324.2</ele>
        <time>2021-09-05T13:31:35Z</time>
      </trkpt>
      <trkpt lat="47.2411" lon="6.03986">
        <ele>323.4</ele>
        <time>2021-09-05T13:31:36Z</time>
      </trkpt>
      <trkpt lat="47.24109" lon="6.03973">
        <ele>323</ele>
        <time>2021-09-05T13:31:37Z</time>
      </trkpt>
      <trkpt lat="47.24108" lon="6.03962">
        <ele>321.6</ele>
        <time>2021-09-05T13:31:38Z</time>
      </trkpt>
      <trkpt lat="47.24109" lon="6.03954">
        <ele>320.4</ele>
        <time>2021-09-05T13:31:39Z</time>
      </trkpt>
      <trkpt lat="47.24109" lon="6.03947">
        <ele>320.2</ele>
        <time>2021-09-05T13:31:40Z</time>
      </trkpt>
      <trkpt lat="47.2411" lon="6.03944">
        <ele>319.4</ele>
        <time>2021-09-05T13:31:41Z</time>
      </trkpt>
      <trkpt lat="47.24111" lon="6.03942">
        <ele>319.2</ele>
        <time>2021-09-05T13:31:42Z</time>
      </trkpt>
      <trkpt lat="47.24112" lon="6.0394">
        <ele>319</ele>
        <time>2021-09-05T13:31:43Z</time>
      </trkpt>
      <trkpt lat="47.24111" lon="6.03939">
        <ele>318.8</ele>
        <time>2021-09-05T13:31:44Z</time>
      </trkpt>
      <trkpt lat="47.24111" lon="6.03938">
        <ele>318.6</ele>
        <time>2021-09-05T13:31:45Z</time>
      </trkpt>
      <trkpt lat="47.24111" lon="6.03938">
        <ele>318.4</ele>
        <time>2021-09-05T13:31:46Z</time>
      </trkpt>
      <trkpt lat="47.24111" lon="6.03938">
        <ele>318.4</ele>
        <time>2021-09-05T13:31:47Z</time>
      </trkpt>
      <trkpt lat="47.24111" lon="6.03936">
        <ele>318.4</ele>
        <time>2021-09-05T13:31:48Z</time>
      </trkpt>
      <trkpt lat="47.24109" lon="6.03934">
        <ele>318.2</ele>
        <time>2021-09-05T13:31:49Z</time>
      </trkpt>
      <trkpt lat="47.24102" lon="6.03921">
        <ele>318.2</ele>
        <time>2021-09-05T13:31:52Z</time>
      </trkpt>
      <trkpt lat="47.24092" lon="6.03888">
        <ele>317.6</ele>
        <time>2021-09-05T13:31:56Z</time>
      </trkpt>
      <trkpt lat="47.24091" lon="6.03877">
        <ele>317</ele>
        <time>2021-09-05T13:31:57Z</time>
      </trkpt>
      <trkpt lat="47.24086" lon="6.03857">
        <ele>316.2</ele>
        <time>2021-09-05T13:31:59Z</time>
      </trkpt>
      <trkpt lat="47.24081" lon="6.03838">
        <ele>315.4</ele>
        <time>2021-09-05T13:32:01Z</time>
      </trkpt>
      <trkpt lat="47.24078" lon="6.03829">
        <ele>314.8</ele>
        <time>2021-09-05T13:32:02Z</time>
      </trkpt>
      <trkpt lat="47.24073" lon="6.03813">
        <ele>314.4</ele>
        <time>2021-09-05T13:32:04Z</time>
      </trkpt>
      <trkpt lat="47.24071" lon="6.03806">
        <ele>314.2</ele>
        <time>2021-09-05T13:32:05Z</time>
      </trkpt>
      <trkpt lat="47.24069" lon="6.038">
        <ele>314.2</ele>
        <time>2021-09-05T13:32:06Z</time>
      </trkpt>
      <trkpt lat="47.24068" lon="6.03795">
        <ele>314</ele>
        <time>2021-09-05T13:32:07Z</time>
      </trkpt>
      <trkpt lat="47.24066" lon="6.03789">
        <ele>314</ele>
        <time>2021-09-05T13:32:08Z</time>
      </trkpt>
      <trkpt lat="47.24064" lon="6.03783">
        <ele>313.8</ele>
        <time>2021-09-05T13:32:09Z</time>
      </trkpt>
      <trkpt lat="47.24063" lon="6.03777">
        <ele>313.8</ele>
        <time>2021-09-05T13:32:10Z</time>
      </trkpt>
      <trkpt lat="47.24062" lon="6.03771">
        <ele>313.8</ele>
        <time>2021-09-05T13:32:11Z</time>
      </trkpt>
      <trkpt lat="47.24062" lon="6.03766">
        <ele>313.8</ele>
        <time>2021-09-05T13:32:12Z</time>
      </trkpt>
      <trkpt lat="47.24062" lon="6.0376">
        <ele>314</ele>
        <time>2021-09-05T13:32:13Z</time>
      </trkpt>
      <trkpt lat="47.24063" lon="6.03755">
        <ele>314.2</ele>
        <time>2021-09-05T13:32:14Z</time>
      </trkpt>
      <trkpt lat="47.24063" lon="6.03748">
        <ele>314.2</ele>
        <time>2021-09-05T13:32:15Z</time>
      </trkpt>
      <trkpt lat="47.24063" lon="6.03729">
        <ele>314.2</ele>
        <time>2021-09-05T13:32:18Z</time>
      </trkpt>
      <trkpt lat="47.24062" lon="6.0371">
        <ele>314</ele>
        <time>2021-09-05T13:32:21Z</time>
      </trkpt>
      <trkpt lat="47.24058" lon="6.03691">
        <ele>313.8</ele>
        <time>2021-09-05T13:32:23Z</time>
      </trkpt>
      <trkpt lat="47.24056" lon="6.03682">
        <ele>313.6</ele>
        <time>2021-09-05T13:32:24Z</time>
      </trkpt>
      <trkpt lat="47.2405" lon="6.03659">
        <ele>312.6</ele>
        <time>2021-09-05T13:32:27Z</time>
      </trkpt>
      <trkpt lat="47.24049" lon="6.03652">
        <ele>312.2</ele>
        <time>2021-09-05T13:32:28Z</time>
      </trkpt>
      <trkpt lat="47.24047" lon="6.03647">
        <ele>312</ele>
        <time>2021-09-05T13:32:29Z</time>
      </trkpt>
      <trkpt lat="47.24046" lon="6.03642">
        <ele>311.8</ele>
        <time>2021-09-05T13:32:30Z</time>
      </trkpt>
      <trkpt lat="47.24045" lon="6.03639">
        <ele>311.8</ele>
        <time>2021-09-05T13:32:31Z</time>
      </trkpt>
      <trkpt lat="47.24044" lon="6.03636">
        <ele>311.8</ele>
        <time>2021-09-05T13:32:32Z</time>
      </trkpt>
      <trkpt lat="47.24044" lon="6.03635">
        <ele>311.8</ele>
        <time>2021-09-05T13:32:33Z</time>
      </trkpt>
      <trkpt lat="47.24044" lon="6.03635">
        <ele>311.6</ele>
        <time>2021-09-05T13:32:34Z</time>
      </trkpt>
      <trkpt lat="47.24044" lon="6.03635">
        <ele>311.2</ele>
        <time>2021-09-05T13:32:37Z</time>
      </trkpt>
      <trkpt lat="47.24044" lon="6.03635">
        <ele>310.8</ele>
        <time>2021-09-05T13:32:48Z</time>
      </trkpt>
      <trkpt lat="47.24044" lon="6.03635">
        <ele>310.8</ele>
        <time>2021-09-05T13:33:00Z</time>
      </trkpt>
      <trkpt lat="47.24045" lon="6.03636">
        <ele>310.2</ele>
        <time>2021-09-05T13:33:41Z</time>
      </trkpt>
      <trkpt lat="47.24047" lon="6.03641">
        <ele>310.2</ele>
        <time>2021-09-05T13:33:45Z</time>
      </trkpt>
      <trkpt lat="47.24047" lon="6.03642">
        <ele>310.2</ele>
        <time>2021-09-05T13:33:46Z</time>
      </trkpt>
      <trkpt lat="47.24047" lon="6.03642">
        <ele>310.2</ele>
        <time>2021-09-05T13:33:53Z</time>
      </trkpt>
      <trkpt lat="47.24047" lon="6.03642">
        <ele>310.4</ele>
        <time>2021-09-05T13:33:54Z</time>
      </trkpt>
      <trkpt lat="47.24048" lon="6.03642">
        <ele>310</ele>
        <time>2021-09-05T13:34:03Z</time>
      </trkpt>
      <trkpt lat="47.24047" lon="6.03643">
        <ele>310</ele>
        <time>2021-09-05T13:34:04Z</time>
      </trkpt>
      <trkpt lat="47.24048" lon="6.0365">
        <ele>310</ele>
        <time>2021-09-05T13:34:07Z</time>
      </trkpt>
      <trkpt lat="47.24048" lon="6.03654">
        <ele>310</ele>
        <time>2021-09-05T13:34:09Z</time>
      </trkpt>
      <trkpt lat="47.2405" lon="6.03671">
        <ele>310.6</ele>
        <time>2021-09-05T13:34:15Z</time>
      </trkpt>
      <trkpt lat="47.24058" lon="6.03708">
        <ele>311.6</ele>
        <time>2021-09-05T13:34:27Z</time>
      </trkpt>
      <trkpt lat="47.2406" lon="6.03717">
        <ele>311.6</ele>
        <time>2021-09-05T13:34:30Z</time>
      </trkpt>
      <trkpt lat="47.2406" lon="6.03724">
        <ele>311.8</ele>
        <time>2021-09-05T13:34:33Z</time>
      </trkpt>
      <trkpt lat="47.2406" lon="6.03727">
        <ele>311.8</ele>
        <time>2021-09-05T13:34:34Z</time>
      </trkpt>
      <trkpt lat="47.2406" lon="6.03729">
        <ele>312.2</ele>
        <time>2021-09-05T13:34:35Z</time>
      </trkpt>
      <trkpt lat="47.24059" lon="6.03732">
        <ele>312.4</ele>
        <time>2021-09-05T13:34:36Z</time>
      </trkpt>
      <trkpt lat="47.24059" lon="6.03735">
        <ele>312.6</ele>
        <time>2021-09-05T13:34:37Z</time>
      </trkpt>
      <trkpt lat="47.24059" lon="6.03738">
        <ele>313</ele>
        <time>2021-09-05T13:34:38Z</time>
      </trkpt>
      <trkpt lat="47.24059" lon="6.03742">
        <ele>313</ele>
        <time>2021-09-05T13:34:39Z</time>
      </trkpt>
      <trkpt lat="47.24059" lon="6.03745">
        <ele>313.2</ele>
        <time>2021-09-05T13:34:40Z</time>
      </trkpt>
      <trkpt lat="47.24059" lon="6.03754">
        <ele>313.8</ele>
        <time>2021-09-05T13:34:43Z</time>
      </trkpt>
      <trkpt lat="47.2406" lon="6.03761">
        <ele>314.2</ele>
        <time>2021-09-05T13:34:45Z</time>
      </trkpt>
      <trkpt lat="47.24059" lon="6.03764">
        <ele>314.2</ele>
        <time>2021-09-05T13:34:46Z</time>
      </trkpt>
      <trkpt lat="47.24059" lon="6.03768">
        <ele>314.4</ele>
        <time>2021-09-05T13:34:47Z</time>
      </trkpt>
      <trkpt lat="47.2406" lon="6.03771">
        <ele>314.6</ele>
        <time>2021-09-05T13:34:48Z</time>
      </trkpt>
      <trkpt lat="47.2406" lon="6.03774">
        <ele>314.6</ele>
        <time>2021-09-05T13:34:49Z</time>
      </trkpt>
      <trkpt lat="47.2406" lon="6.03777">
        <ele>314.8</ele>
        <time>2021-09-05T13:34:50Z</time>
      </trkpt>
      <trkpt lat="47.2406" lon="6.0378">
        <ele>314.8</ele>
        <time>2021-09-05T13:34:51Z</time>
      </trkpt>
      <trkpt lat="47.24061" lon="6.03783">
        <ele>314.8</ele>
        <time>2021-09-05T13:34:52Z</time>
      </trkpt>
      <trkpt lat="47.24061" lon="6.03786">
        <ele>314.8</ele>
        <time>2021-09-05T13:34:53Z</time>
      </trkpt>
      <trkpt lat="47.24062" lon="6.03788">
        <ele>314.8</ele>
        <time>2021-09-05T13:34:54Z</time>
      </trkpt>
      <trkpt lat="47.24063" lon="6.0379">
        <ele>314.8</ele>
        <time>2021-09-05T13:34:55Z</time>
      </trkpt>
      <trkpt lat="47.24064" lon="6.03793">
        <ele>314.8</ele>
        <time>2021-09-05T13:34:56Z</time>
      </trkpt>
      <trkpt lat="47.24064" lon="6.03795">
        <ele>314.8</ele>
        <time>2021-09-05T13:34:57Z</time>
      </trkpt>
      <trkpt lat="47.24065" lon="6.03798">
        <ele>314.8</ele>
        <time>2021-09-05T13:34:58Z</time>
      </trkpt>
      <trkpt lat="47.24066" lon="6.03801">
        <ele>314.8</ele>
        <time>2021-09-05T13:34:59Z</time>
      </trkpt>
      <trkpt lat="47.24067" lon="6.03805">
        <ele>314.8</ele>
        <time>2021-09-05T13:35:00Z</time>
      </trkpt>
      <trkpt lat="47.24068" lon="6.03809">
        <ele>314.8</ele>
        <time>2021-09-05T13:35:01Z</time>
      </trkpt>
      <trkpt lat="47.24069" lon="6.03813">
        <ele>314.8</ele>
        <time>2021-09-05T13:35:02Z</time>
      </trkpt>
      <trkpt lat="47.2407" lon="6.03836">
        <ele>314.6</ele>
        <time>2021-09-05T13:35:06Z</time>
      </trkpt>
      <trkpt lat="47.24069" lon="6.03843">
        <ele>314.6</ele>
        <time>2021-09-05T13:35:07Z</time>
      </trkpt>
      <trkpt lat="47.24069" lon="6.03851">
        <ele>314.6</ele>
        <time>2021-09-05T13:35:08Z</time>
      </trkpt>
      <trkpt lat="47.24071" lon="6.03866">
        <ele>314.2</ele>
        <time>2021-09-05T13:35:10Z</time>
      </trkpt>
      <trkpt lat="47.24072" lon="6.03875">
        <ele>313.8</ele>
        <time>2021-09-05T13:35:11Z</time>
      </trkpt>
      <trkpt lat="47.24074" lon="6.03886">
        <ele>313.4</ele>
        <time>2021-09-05T13:35:12Z</time>
      </trkpt>
      <trkpt lat="47.24076" lon="6.03896">
        <ele>313</ele>
        <time>2021-09-05T13:35:13Z</time>
      </trkpt>
      <trkpt lat="47.24076" lon="6.03904">
        <ele>312.8</ele>
        <time>2021-09-05T13:35:14Z</time>
      </trkpt>
      <trkpt lat="47.24079" lon="6.03955">
        <ele>311.4</ele>
        <time>2021-09-05T13:35:18Z</time>
      </trkpt>
      <trkpt lat="47.24079" lon="6.0397">
        <ele>310.6</ele>
        <time>2021-09-05T13:35:19Z</time>
      </trkpt>
      <trkpt lat="47.24078" lon="6.03985">
        <ele>310.2</ele>
        <time>2021-09-05T13:35:20Z</time>
      </trkpt>
      <trkpt lat="47.24077" lon="6.04">
        <ele>308.8</ele>
        <time>2021-09-05T13:35:21Z</time>
      </trkpt>
      <trkpt lat="47.24073" lon="6.04033">
        <ele>307.6</ele>
        <time>2021-09-05T13:35:23Z</time>
      </trkpt>
      <trkpt lat="47.24071" lon="6.04049">
        <ele>306.6</ele>
        <time>2021-09-05T13:35:24Z</time>
      </trkpt>
      <trkpt lat="47.24065" lon="6.0408">
        <ele>304.8</ele>
        <time>2021-09-05T13:35:26Z</time>
      </trkpt>
      <trkpt lat="47.24059" lon="6.04106">
        <ele>303</ele>
        <time>2021-09-05T13:35:28Z</time>
      </trkpt>
      <trkpt lat="47.24056" lon="6.04117">
        <ele>302.4</ele>
        <time>2021-09-05T13:35:29Z</time>
      </trkpt>
      <trkpt lat="47.24054" lon="6.04127">
        <ele>300.8</ele>
        <time>2021-09-05T13:35:30Z</time>
      </trkpt>
      <trkpt lat="47.2405" lon="6.04138">
        <ele>299.6</ele>
        <time>2021-09-05T13:35:31Z</time>
      </trkpt>
      <trkpt lat="47.24044" lon="6.04144">
        <ele>298.8</ele>
        <time>2021-09-05T13:35:32Z</time>
      </trkpt>
      <trkpt lat="47.24039" lon="6.04148">
        <ele>297.6</ele>
        <time>2021-09-05T13:35:33Z</time>
      </trkpt>
      <trkpt lat="47.24031" lon="6.04151">
        <ele>297</ele>
        <time>2021-09-05T13:35:34Z</time>
      </trkpt>
      <trkpt lat="47.24023" lon="6.04151">
        <ele>296.2</ele>
        <time>2021-09-05T13:35:35Z</time>
      </trkpt>
      <trkpt lat="47.24007" lon="6.04141">
        <ele>295</ele>
        <time>2021-09-05T13:35:37Z</time>
      </trkpt>
      <trkpt lat="47.23991" lon="6.0412">
        <ele>293.8</ele>
        <time>2021-09-05T13:35:39Z</time>
      </trkpt>
      <trkpt lat="47.23984" lon="6.0411">
        <ele>292.8</ele>
        <time>2021-09-05T13:35:40Z</time>
      </trkpt>
      <trkpt lat="47.23978" lon="6.041">
        <ele>292.4</ele>
        <time>2021-09-05T13:35:41Z</time>
      </trkpt>
      <trkpt lat="47.23972" lon="6.04092">
        <ele>291.2</ele>
        <time>2021-09-05T13:35:42Z</time>
      </trkpt>
      <trkpt lat="47.23967" lon="6.04085">
        <ele>289.8</ele>
        <time>2021-09-05T13:35:43Z</time>
      </trkpt>
      <trkpt lat="47.23963" lon="6.04077">
        <ele>289.2</ele>
        <time>2021-09-05T13:35:44Z</time>
      </trkpt>
      <trkpt lat="47.23958" lon="6.0407">
        <ele>287.8</ele>
        <time>2021-09-05T13:35:45Z</time>
      </trkpt>
      <trkpt lat="47.23953" lon="6.04062">
        <ele>287.2</ele>
        <time>2021-09-05T13:35:46Z</time>
      </trkpt>
      <trkpt lat="47.23947" lon="6.04054">
        <ele>286.4</ele>
        <time>2021-09-05T13:35:47Z</time>
      </trkpt>
      <trkpt lat="47.23941" lon="6.04045">
        <ele>285.4</ele>
        <time>2021-09-05T13:35:48Z</time>
      </trkpt>
      <trkpt lat="47.23935" lon="6.04036">
        <ele>285</ele>
        <time>2021-09-05T13:35:49Z</time>
      </trkpt>
      <trkpt lat="47.23929" lon="6.04026">
        <ele>284</ele>
        <time>2021-09-05T13:35:50Z</time>
      </trkpt>
      <trkpt lat="47.23917" lon="6.04003">
        <ele>282.4</ele>
        <time>2021-09-05T13:35:52Z</time>
      </trkpt>
      <trkpt lat="47.2391" lon="6.03991">
        <ele>282.2</ele>
        <time>2021-09-05T13:35:53Z</time>
      </trkpt>
      <trkpt lat="47.23904" lon="6.03979">
        <ele>281.2</ele>
        <time>2021-09-05T13:35:54Z</time>
      </trkpt>
      <trkpt lat="47.23898" lon="6.03966">
        <ele>280</ele>
        <time>2021-09-05T13:35:55Z</time>
      </trkpt>
      <trkpt lat="47.23885" lon="6.03939">
        <ele>278.4</ele>
        <time>2021-09-05T13:35:57Z</time>
      </trkpt>
      <trkpt lat="47.23871" lon="6.03911">
        <ele>276.4</ele>
        <time>2021-09-05T13:35:59Z</time>
      </trkpt>
      <trkpt lat="47.23865" lon="6.03896">
        <ele>275.2</ele>
        <time>2021-09-05T13:36:00Z</time>
      </trkpt>
      <trkpt lat="47.23853" lon="6.03866">
        <ele>273.2</ele>
        <time>2021-09-05T13:36:02Z</time>
      </trkpt>
      <trkpt lat="47.23847" lon="6.03851">
        <ele>272.8</ele>
        <time>2021-09-05T13:36:03Z</time>
      </trkpt>
      <trkpt lat="47.23841" lon="6.03834">
        <ele>271.6</ele>
        <time>2021-09-05T13:36:04Z</time>
      </trkpt>
      <trkpt lat="47.23834" lon="6.03818">
        <ele>271</ele>
        <time>2021-09-05T13:36:05Z</time>
      </trkpt>
      <trkpt lat="47.23828" lon="6.03802">
        <ele>270</ele>
        <time>2021-09-05T13:36:06Z</time>
      </trkpt>
      <trkpt lat="47.23822" lon="6.03785">
        <ele>268.6</ele>
        <time>2021-09-05T13:36:07Z</time>
      </trkpt>
      <trkpt lat="47.23811" lon="6.03753">
        <ele>266.6</ele>
        <time>2021-09-05T13:36:09Z</time>
      </trkpt>
      <trkpt lat="47.23807" lon="6.03739">
        <ele>266</ele>
        <time>2021-09-05T13:36:10Z</time>
      </trkpt>
      <trkpt lat="47.23803" lon="6.03725">
        <ele>264.6</ele>
        <time>2021-09-05T13:36:11Z</time>
      </trkpt>
      <trkpt lat="47.23799" lon="6.03713">
        <ele>263</ele>
        <time>2021-09-05T13:36:12Z</time>
      </trkpt>
      <trkpt lat="47.23797" lon="6.03702">
        <ele>262.2</ele>
        <time>2021-09-05T13:36:13Z</time>
      </trkpt>
      <trkpt lat="47.23795" lon="6.03693">
        <ele>260.8</ele>
        <time>2021-09-05T13:36:14Z</time>
      </trkpt>
      <trkpt lat="47.23795" lon="6.03685">
        <ele>260.2</ele>
        <time>2021-09-05T13:36:15Z</time>
      </trkpt>
      <trkpt lat="47.23796" lon="6.03677">
        <ele>258.8</ele>
        <time>2021-09-05T13:36:16Z</time>
      </trkpt>
      <trkpt lat="47.23799" lon="6.03671">
        <ele>258</ele>
        <time>2021-09-05T13:36:17Z</time>
      </trkpt>
      <trkpt lat="47.23805" lon="6.03667">
        <ele>257</ele>
        <time>2021-09-05T13:36:18Z</time>
      </trkpt>
      <trkpt lat="47.2381" lon="6.03663">
        <ele>256.2</ele>
        <time>2021-09-05T13:36:19Z</time>
      </trkpt>
      <trkpt lat="47.23815" lon="6.03661">
        <ele>256</ele>
        <time>2021-09-05T13:36:20Z</time>
      </trkpt>
      <trkpt lat="47.23819" lon="6.03658">
        <ele>255.4</ele>
        <time>2021-09-05T13:36:21Z</time>
      </trkpt>
      <trkpt lat="47.23823" lon="6.03654">
        <ele>255.2</ele>
        <time>2021-09-05T13:36:22Z</time>
      </trkpt>
      <trkpt lat="47.23828" lon="6.0365">
        <ele>254.4</ele>
        <time>2021-09-05T13:36:23Z</time>
      </trkpt>
      <trkpt lat="47.23832" lon="6.03646">
        <ele>253.8</ele>
        <time>2021-09-05T13:36:24Z</time>
      </trkpt>
      <trkpt lat="47.23841" lon="6.03636">
        <ele>252.8</ele>
        <time>2021-09-05T13:36:26Z</time>
      </trkpt>
      <trkpt lat="47.23848" lon="6.03628">
        <ele>252</ele>
        <time>2021-09-05T13:36:28Z</time>
      </trkpt>
      <trkpt lat="47.23849" lon="6.03626">
        <ele>251.8</ele>
        <time>2021-09-05T13:36:29Z</time>
      </trkpt>
      <trkpt lat="47.23849" lon="6.03624">
        <ele>251.2</ele>
        <time>2021-09-05T13:36:30Z</time>
      </trkpt>
      <trkpt lat="47.23848" lon="6.03624">
        <ele>251</ele>
        <time>2021-09-05T13:36:31Z</time>
      </trkpt>
      <trkpt lat="47.23847" lon="6.03625">
        <ele>251</ele>
        <time>2021-09-05T13:36:32Z</time>
      </trkpt>
      <trkpt lat="47.23845" lon="6.03626">
        <ele>250.8</ele>
        <time>2021-09-05T13:36:33Z</time>
      </trkpt>
      <trkpt lat="47.23842" lon="6.03627">
        <ele>250.8</ele>
        <time>2021-09-05T13:36:34Z</time>
      </trkpt>
      <trkpt lat="47.23839" lon="6.03626">
        <ele>250.8</ele>
        <time>2021-09-05T13:36:35Z</time>
      </trkpt>
      <trkpt lat="47.23839" lon="6.03621">
        <ele>250.6</ele>
        <time>2021-09-05T13:36:37Z</time>
      </trkpt>
      <trkpt lat="47.23854" lon="6.03614">
        <ele>250.6</ele>
        <time>2021-09-05T13:36:41Z</time>
      </trkpt>
      <trkpt lat="47.23873" lon="6.03601">
        <ele>249.6</ele>
        <time>2021-09-05T13:36:45Z</time>
      </trkpt>
      <trkpt lat="47.23878" lon="6.03598">
        <ele>249.6</ele>
        <time>2021-09-05T13:36:46Z</time>
      </trkpt>
      <trkpt lat="47.23882" lon="6.03595">
        <ele>249.4</ele>
        <time>2021-09-05T13:36:47Z</time>
      </trkpt>
      <trkpt lat="47.23886" lon="6.0359">
        <ele>249</ele>
        <time>2021-09-05T13:36:48Z</time>
      </trkpt>
      <trkpt lat="47.23889" lon="6.03585">
        <ele>248.8</ele>
        <time>2021-09-05T13:36:49Z</time>
      </trkpt>
      <trkpt lat="47.23892" lon="6.03581">
        <ele>248.4</ele>
        <time>2021-09-05T13:36:50Z</time>
      </trkpt>
      <trkpt lat="47.23895" lon="6.03577">
        <ele>248.2</ele>
        <time>2021-09-05T13:36:51Z</time>
      </trkpt>
      <trkpt lat="47.23897" lon="6.03572">
        <ele>247.6</ele>
        <time>2021-09-05T13:36:52Z</time>
      </trkpt>
      <trkpt lat="47.23898" lon="6.03566">
        <ele>247.4</ele>
        <time>2021-09-05T13:36:53Z</time>
      </trkpt>
      <trkpt lat="47.23896" lon="6.0356">
        <ele>247.2</ele>
        <time>2021-09-05T13:36:54Z</time>
      </trkpt>
      <trkpt lat="47.23895" lon="6.03555">
        <ele>247</ele>
        <time>2021-09-05T13:36:55Z</time>
      </trkpt>
      <trkpt lat="47.23894" lon="6.03551">
        <ele>247</ele>
        <time>2021-09-05T13:36:56Z</time>
      </trkpt>
      <trkpt lat="47.23892" lon="6.03548">
        <ele>247</ele>
        <time>2021-09-05T13:36:57Z</time>
      </trkpt>
      <trkpt lat="47.23892" lon="6.03545">
        <ele>247</ele>
        <time>2021-09-05T13:36:58Z</time>
      </trkpt>
      <trkpt lat="47.23891" lon="6.03542">
        <ele>247</ele>
        <time>2021-09-05T13:36:59Z</time>
      </trkpt>
      <trkpt lat="47.2389" lon="6.03539">
        <ele>247</ele>
        <time>2021-09-05T13:37:00Z</time>
      </trkpt>
      <trkpt lat="47.23889" lon="6.03537">
        <ele>247</ele>
        <time>2021-09-05T13:37:01Z</time>
      </trkpt>
      <trkpt lat="47.23888" lon="6.03535">
        <ele>247</ele>
        <time>2021-09-05T13:37:02Z</time>
      </trkpt>
      <trkpt lat="47.23885" lon="6.0353">
        <ele>247.2</ele>
        <time>2021-09-05T13:37:04Z</time>
      </trkpt>
      <trkpt lat="47.23884" lon="6.03528">
        <ele>247.2</ele>
        <time>2021-09-05T13:37:05Z</time>
      </trkpt>
      <trkpt lat="47.23884" lon="6.03525">
        <ele>247.4</ele>
        <time>2021-09-05T13:37:06Z</time>
      </trkpt>
      <trkpt lat="47.23882" lon="6.03523">
        <ele>247.4</ele>
        <time>2021-09-05T13:37:07Z</time>
      </trkpt>
      <trkpt lat="47.2388" lon="6.03521">
        <ele>247.6</ele>
        <time>2021-09-05T13:37:08Z</time>
      </trkpt>
      <trkpt lat="47.23879" lon="6.03519">
        <ele>247.6</ele>
        <time>2021-09-05T13:37:09Z</time>
      </trkpt>
      <trkpt lat="47.23877" lon="6.03517">
        <ele>247.6</ele>
        <time>2021-09-05T13:37:10Z</time>
      </trkpt>
      <trkpt lat="47.23876" lon="6.03514">
        <ele>247.8</ele>
        <time>2021-09-05T13:37:11Z</time>
      </trkpt>
      <trkpt lat="47.23875" lon="6.03513">
        <ele>247.8</ele>
        <time>2021-09-05T13:37:12Z</time>
      </trkpt>
      <trkpt lat="47.23875" lon="6.0351">
        <ele>247.8</ele>
        <time>2021-09-05T13:37:13Z</time>
      </trkpt>
      <trkpt lat="47.23874" lon="6.03508">
        <ele>248</ele>
        <time>2021-09-05T13:37:14Z</time>
      </trkpt>
      <trkpt lat="47.23873" lon="6.03505">
        <ele>248</ele>
        <time>2021-09-05T13:37:15Z</time>
      </trkpt>
      <trkpt lat="47.23872" lon="6.03502">
        <ele>248</ele>
        <time>2021-09-05T13:37:16Z</time>
      </trkpt>
      <trkpt lat="47.2387" lon="6.03498">
        <ele>248.2</ele>
        <time>2021-09-05T13:37:18Z</time>
      </trkpt>
      <trkpt lat="47.23867" lon="6.0349">
        <ele>248.2</ele>
        <time>2021-09-05T13:37:20Z</time>
      </trkpt>
      <trkpt lat="47.23867" lon="6.03486">
        <ele>248.4</ele>
        <time>2021-09-05T13:37:21Z</time>
      </trkpt>
      <trkpt lat="47.23868" lon="6.03481">
        <ele>248.4</ele>
        <time>2021-09-05T13:37:22Z</time>
      </trkpt>
      <trkpt lat="47.23868" lon="6.03476">
        <ele>248.4</ele>
        <time>2021-09-05T13:37:23Z</time>
      </trkpt>
      <trkpt lat="47.23871" lon="6.03463">
        <ele>248.6</ele>
        <time>2021-09-05T13:37:26Z</time>
      </trkpt>
      <trkpt lat="47.23888" lon="6.03442">
        <ele>248.4</ele>
        <time>2021-09-05T13:37:32Z</time>
      </trkpt>
      <trkpt lat="47.23893" lon="6.0344">
        <ele>248.4</ele>
        <time>2021-09-05T13:37:33Z</time>
      </trkpt>
      <trkpt lat="47.23898" lon="6.03436">
        <ele>248.2</ele>
        <time>2021-09-05T13:37:34Z</time>
      </trkpt>
      <trkpt lat="47.23902" lon="6.03434">
        <ele>248.2</ele>
        <time>2021-09-05T13:37:35Z</time>
      </trkpt>
      <trkpt lat="47.23911" lon="6.03428">
        <ele>247.8</ele>
        <time>2021-09-05T13:37:37Z</time>
      </trkpt>
      <trkpt lat="47.23916" lon="6.03425">
        <ele>247.6</ele>
        <time>2021-09-05T13:37:38Z</time>
      </trkpt>
      <trkpt lat="47.2392" lon="6.03421">
        <ele>247.6</ele>
        <time>2021-09-05T13:37:39Z</time>
      </trkpt>
      <trkpt lat="47.23924" lon="6.03415">
        <ele>247.2</ele>
        <time>2021-09-05T13:37:40Z</time>
      </trkpt>
      <trkpt lat="47.23927" lon="6.0341">
        <ele>247.2</ele>
        <time>2021-09-05T13:37:41Z</time>
      </trkpt>
      <trkpt lat="47.23939" lon="6.03388">
        <ele>246.6</ele>
        <time>2021-09-05T13:37:45Z</time>
      </trkpt>
      <trkpt lat="47.23942" lon="6.0338">
        <ele>246.2</ele>
        <time>2021-09-05T13:37:47Z</time>
      </trkpt>
      <trkpt lat="47.23943" lon="6.03377">
        <ele>246.2</ele>
        <time>2021-09-05T13:37:48Z</time>
      </trkpt>
      <trkpt lat="47.23944" lon="6.03375">
        <ele>246.2</ele>
        <time>2021-09-05T13:37:49Z</time>
      </trkpt>
      <trkpt lat="47.23945" lon="6.03372">
        <ele>246</ele>
        <time>2021-09-05T13:37:50Z</time>
      </trkpt>
      <trkpt lat="47.23947" lon="6.0337">
        <ele>246.2</ele>
        <time>2021-09-05T13:37:51Z</time>
      </trkpt>
      <trkpt lat="47.23948" lon="6.03367">
        <ele>246</ele>
        <time>2021-09-05T13:37:52Z</time>
      </trkpt>
      <trkpt lat="47.23957" lon="6.03357">
        <ele>245.8</ele>
        <time>2021-09-05T13:37:56Z</time>
      </trkpt>
      <trkpt lat="47.23963" lon="6.03353">
        <ele>245.8</ele>
        <time>2021-09-05T13:37:58Z</time>
      </trkpt>
      <trkpt lat="47.23966" lon="6.03351">
        <ele>245.8</ele>
        <time>2021-09-05T13:37:59Z</time>
      </trkpt>
      <trkpt lat="47.2397" lon="6.03349">
        <ele>245.8</ele>
        <time>2021-09-05T13:38:00Z</time>
      </trkpt>
      <trkpt lat="47.23979" lon="6.03344">
        <ele>245.6</ele>
        <time>2021-09-05T13:38:03Z</time>
      </trkpt>
      <trkpt lat="47.23981" lon="6.03342">
        <ele>245.6</ele>
        <time>2021-09-05T13:38:04Z</time>
      </trkpt>
      <trkpt lat="47.23984" lon="6.0334">
        <ele>245.6</ele>
        <time>2021-09-05T13:38:05Z</time>
      </trkpt>
      <trkpt lat="47.23989" lon="6.03337">
        <ele>245.6</ele>
        <time>2021-09-05T13:38:06Z</time>
      </trkpt>
      <trkpt lat="47.24" lon="6.03331">
        <ele>245.6</ele>
        <time>2021-09-05T13:38:09Z</time>
      </trkpt>
      <trkpt lat="47.24005" lon="6.03326">
        <ele>245.6</ele>
        <time>2021-09-05T13:38:11Z</time>
      </trkpt>
      <trkpt lat="47.24006" lon="6.03324">
        <ele>245.6</ele>
        <time>2021-09-05T13:38:12Z</time>
      </trkpt>
      <trkpt lat="47.24007" lon="6.03321">
        <ele>245.6</ele>
        <time>2021-09-05T13:38:13Z</time>
      </trkpt>
      <trkpt lat="47.24009" lon="6.03318">
        <ele>245.8</ele>
        <time>2021-09-05T13:38:14Z</time>
      </trkpt>
      <trkpt lat="47.2403" lon="6.03306">
        <ele>245.8</ele>
        <time>2021-09-05T13:38:18Z</time>
      </trkpt>
      <trkpt lat="47.24032" lon="6.03305">
        <ele>245.8</ele>
        <time>2021-09-05T13:38:19Z</time>
      </trkpt>
      <trkpt lat="47.24035" lon="6.03304">
        <ele>245.8</ele>
        <time>2021-09-05T13:38:20Z</time>
      </trkpt>
      <trkpt lat="47.24039" lon="6.033">
        <ele>246</ele>
        <time>2021-09-05T13:38:21Z</time>
      </trkpt>
      <trkpt lat="47.24044" lon="6.03296">
        <ele>246</ele>
        <time>2021-09-05T13:38:22Z</time>
      </trkpt>
      <trkpt lat="47.2405" lon="6.03293">
        <ele>246</ele>
        <time>2021-09-05T13:38:24Z</time>
      </trkpt>
      <trkpt lat="47.24052" lon="6.03291">
        <ele>246</ele>
        <time>2021-09-05T13:38:25Z</time>
      </trkpt>
      <trkpt lat="47.24058" lon="6.03288">
        <ele>246</ele>
        <time>2021-09-05T13:38:27Z</time>
      </trkpt>
      <trkpt lat="47.24059" lon="6.03284">
        <ele>245.8</ele>
        <time>2021-09-05T13:38:28Z</time>
      </trkpt>
      <trkpt lat="47.24064" lon="6.03281">
        <ele>245.8</ele>
        <time>2021-09-05T13:38:29Z</time>
      </trkpt>
      <trkpt lat="47.24067" lon="6.03278">
        <ele>245.8</ele>
        <time>2021-09-05T13:38:30Z</time>
      </trkpt>
      <trkpt lat="47.24075" lon="6.03272">
        <ele>245.8</ele>
        <time>2021-09-05T13:38:32Z</time>
      </trkpt>
      <trkpt lat="47.24079" lon="6.0327">
        <ele>245.8</ele>
        <time>2021-09-05T13:38:33Z</time>
      </trkpt>
      <trkpt lat="47.24083" lon="6.03269">
        <ele>245.8</ele>
        <time>2021-09-05T13:38:34Z</time>
      </trkpt>
      <trkpt lat="47.24088" lon="6.03265">
        <ele>245.6</ele>
        <time>2021-09-05T13:38:35Z</time>
      </trkpt>
      <trkpt lat="47.24097" lon="6.0326">
        <ele>245.6</ele>
        <time>2021-09-05T13:38:37Z</time>
      </trkpt>
      <trkpt lat="47.24107" lon="6.03247">
        <ele>245.4</ele>
        <time>2021-09-05T13:38:40Z</time>
      </trkpt>
      <trkpt lat="47.2411" lon="6.03242">
        <ele>245.4</ele>
        <time>2021-09-05T13:38:41Z</time>
      </trkpt>
      <trkpt lat="47.24115" lon="6.03232">
        <ele>245.2</ele>
        <time>2021-09-05T13:38:43Z</time>
      </trkpt>
      <trkpt lat="47.2412" lon="6.03223">
        <ele>245</ele>
        <time>2021-09-05T13:38:45Z</time>
      </trkpt>
      <trkpt lat="47.24123" lon="6.03214">
        <ele>245</ele>
        <time>2021-09-05T13:38:47Z</time>
      </trkpt>
      <trkpt lat="47.24125" lon="6.0321">
        <ele>245</ele>
        <time>2021-09-05T13:38:48Z</time>
      </trkpt>
      <trkpt lat="47.24127" lon="6.03205">
        <ele>245</ele>
        <time>2021-09-05T13:38:49Z</time>
      </trkpt>
      <trkpt lat="47.24127" lon="6.032">
        <ele>244.8</ele>
        <time>2021-09-05T13:38:50Z</time>
      </trkpt>
      <trkpt lat="47.24127" lon="6.03195">
        <ele>244.8</ele>
        <time>2021-09-05T13:38:51Z</time>
      </trkpt>
      <trkpt lat="47.24127" lon="6.03189">
        <ele>244.8</ele>
        <time>2021-09-05T13:38:52Z</time>
      </trkpt>
      <trkpt lat="47.24126" lon="6.03184">
        <ele>244.8</ele>
        <time>2021-09-05T13:38:53Z</time>
      </trkpt>
      <trkpt lat="47.24126" lon="6.03179">
        <ele>244.8</ele>
        <time>2021-09-05T13:38:54Z</time>
      </trkpt>
      <trkpt lat="47.24126" lon="6.03173">
        <ele>244.8</ele>
        <time>2021-09-05T13:38:55Z</time>
      </trkpt>
      <trkpt lat="47.24126" lon="6.03168">
        <ele>244.8</ele>
        <time>2021-09-05T13:38:56Z</time>
      </trkpt>
      <trkpt lat="47.24125" lon="6.03163">
        <ele>245</ele>
        <time>2021-09-05T13:38:57Z</time>
      </trkpt>
      <trkpt lat="47.24125" lon="6.03154">
        <ele>245</ele>
        <time>2021-09-05T13:38:59Z</time>
      </trkpt>
      <trkpt lat="47.24124" lon="6.0315">
        <ele>245</ele>
        <time>2021-09-05T13:39:00Z</time>
      </trkpt>
      <trkpt lat="47.24124" lon="6.03147">
        <ele>245</ele>
        <time>2021-09-05T13:39:01Z</time>
      </trkpt>
      <trkpt lat="47.24125" lon="6.03144">
        <ele>245</ele>
        <time>2021-09-05T13:39:02Z</time>
      </trkpt>
      <trkpt lat="47.24126" lon="6.03141">
        <ele>245.2</ele>
        <time>2021-09-05T13:39:03Z</time>
      </trkpt>
      <trkpt lat="47.24127" lon="6.03138">
        <ele>245.2</ele>
        <time>2021-09-05T13:39:04Z</time>
      </trkpt>
      <trkpt lat="47.24129" lon="6.03136">
        <ele>245.2</ele>
        <time>2021-09-05T13:39:05Z</time>
      </trkpt>
      <trkpt lat="47.2413" lon="6.03134">
        <ele>245.4</ele>
        <time>2021-09-05T13:39:06Z</time>
      </trkpt>
      <trkpt lat="47.24132" lon="6.03131">
        <ele>245.4</ele>
        <time>2021-09-05T13:39:07Z</time>
      </trkpt>
      <trkpt lat="47.24134" lon="6.03128">
        <ele>245.4</ele>
        <time>2021-09-05T13:39:08Z</time>
      </trkpt>
      <trkpt lat="47.24137" lon="6.03125">
        <ele>245.4</ele>
        <time>2021-09-05T13:39:09Z</time>
      </trkpt>
      <trkpt lat="47.24151" lon="6.0311">
        <ele>245.2</ele>
        <time>2021-09-05T13:39:13Z</time>
      </trkpt>
      <trkpt lat="47.24168" lon="6.03095">
        <ele>245.2</ele>
        <time>2021-09-05T13:39:17Z</time>
      </trkpt>
      <trkpt lat="47.24175" lon="6.03088">
        <ele>244.8</ele>
        <time>2021-09-05T13:39:19Z</time>
      </trkpt>
      <trkpt lat="47.24178" lon="6.03085">
        <ele>244.8</ele>
        <time>2021-09-05T13:39:20Z</time>
      </trkpt>
      <trkpt lat="47.24181" lon="6.03082">
        <ele>244.6</ele>
        <time>2021-09-05T13:39:21Z</time>
      </trkpt>
      <trkpt lat="47.24184" lon="6.03079">
        <ele>244.6</ele>
        <time>2021-09-05T13:39:22Z</time>
      </trkpt>
      <trkpt lat="47.24187" lon="6.03076">
        <ele>244.4</ele>
        <time>2021-09-05T13:39:23Z</time>
      </trkpt>
      <trkpt lat="47.24191" lon="6.03073">
        <ele>244.4</ele>
        <time>2021-09-05T13:39:24Z</time>
      </trkpt>
      <trkpt lat="47.24205" lon="6.03059">
        <ele>244.2</ele>
        <time>2021-09-05T13:39:28Z</time>
      </trkpt>
      <trkpt lat="47.24209" lon="6.03051">
        <ele>244.2</ele>
        <time>2021-09-05T13:39:30Z</time>
      </trkpt>
      <trkpt lat="47.2421" lon="6.03046">
        <ele>244.2</ele>
        <time>2021-09-05T13:39:31Z</time>
      </trkpt>
      <trkpt lat="47.24213" lon="6.03039">
        <ele>244.2</ele>
        <time>2021-09-05T13:39:32Z</time>
      </trkpt>
      <trkpt lat="47.24219" lon="6.03023">
        <ele>244.4</ele>
        <time>2021-09-05T13:39:36Z</time>
      </trkpt>
      <trkpt lat="47.2422" lon="6.03019">
        <ele>244.4</ele>
        <time>2021-09-05T13:39:37Z</time>
      </trkpt>
      <trkpt lat="47.24221" lon="6.03015">
        <ele>244.6</ele>
        <time>2021-09-05T13:39:38Z</time>
      </trkpt>
      <trkpt lat="47.24222" lon="6.03012">
        <ele>244.6</ele>
        <time>2021-09-05T13:39:39Z</time>
      </trkpt>
      <trkpt lat="47.24222" lon="6.03009">
        <ele>244.6</ele>
        <time>2021-09-05T13:39:40Z</time>
      </trkpt>
      <trkpt lat="47.24223" lon="6.03006">
        <ele>245</ele>
        <time>2021-09-05T13:39:41Z</time>
      </trkpt>
      <trkpt lat="47.24223" lon="6.03003">
        <ele>245.4</ele>
        <time>2021-09-05T13:39:42Z</time>
      </trkpt>
      <trkpt lat="47.24225" lon="6.03">
        <ele>245.4</ele>
        <time>2021-09-05T13:39:43Z</time>
      </trkpt>
      <trkpt lat="47.24225" lon="6.02997">
        <ele>245.8</ele>
        <time>2021-09-05T13:39:44Z</time>
      </trkpt>
      <trkpt lat="47.24226" lon="6.02994">
        <ele>246</ele>
        <time>2021-09-05T13:39:45Z</time>
      </trkpt>
      <trkpt lat="47.2423" lon="6.02985">
        <ele>246.6</ele>
        <time>2021-09-05T13:39:48Z</time>
      </trkpt>
      <trkpt lat="47.24232" lon="6.02982">
        <ele>247</ele>
        <time>2021-09-05T13:39:49Z</time>
      </trkpt>
      <trkpt lat="47.24233" lon="6.02979">
        <ele>247.2</ele>
        <time>2021-09-05T13:39:50Z</time>
      </trkpt>
      <trkpt lat="47.24234" lon="6.02977">
        <ele>247.2</ele>
        <time>2021-09-05T13:39:51Z</time>
      </trkpt>
      <trkpt lat="47.24235" lon="6.02974">
        <ele>247.4</ele>
        <time>2021-09-05T13:39:52Z</time>
      </trkpt>
      <trkpt lat="47.24237" lon="6.02971">
        <ele>247.6</ele>
        <time>2021-09-05T13:39:53Z</time>
      </trkpt>
      <trkpt lat="47.24239" lon="6.02968">
        <ele>247.6</ele>
        <time>2021-09-05T13:39:54Z</time>
      </trkpt>
      <trkpt lat="47.24243" lon="6.02965">
        <ele>247.8</ele>
        <time>2021-09-05T13:39:55Z</time>
      </trkpt>
      <trkpt lat="47.24246" lon="6.02962">
        <ele>247.8</ele>
        <time>2021-09-05T13:39:56Z</time>
      </trkpt>
      <trkpt lat="47.24249" lon="6.02958">
        <ele>247.8</ele>
        <time>2021-09-05T13:39:57Z</time>
      </trkpt>
      <trkpt lat="47.2425" lon="6.02954">
        <ele>248</ele>
        <time>2021-09-05T13:39:58Z</time>
      </trkpt>
      <trkpt lat="47.24251" lon="6.02949">
        <ele>248</ele>
        <time>2021-09-05T13:39:59Z</time>
      </trkpt>
      <trkpt lat="47.24253" lon="6.02945">
        <ele>248</ele>
        <time>2021-09-05T13:40:00Z</time>
      </trkpt>
      <trkpt lat="47.24253" lon="6.02939">
        <ele>248</ele>
        <time>2021-09-05T13:40:01Z</time>
      </trkpt>
      <trkpt lat="47.24253" lon="6.02935">
        <ele>248</ele>
        <time>2021-09-05T13:40:02Z</time>
      </trkpt>
      <trkpt lat="47.24254" lon="6.02931">
        <ele>248</ele>
        <time>2021-09-05T13:40:03Z</time>
      </trkpt>
      <trkpt lat="47.24255" lon="6.02924">
        <ele>247.8</ele>
        <time>2021-09-05T13:40:04Z</time>
      </trkpt>
      <trkpt lat="47.24256" lon="6.0292">
        <ele>247.8</ele>
        <time>2021-09-05T13:40:05Z</time>
      </trkpt>
      <trkpt lat="47.24257" lon="6.02917">
        <ele>247.8</ele>
        <time>2021-09-05T13:40:06Z</time>
      </trkpt>
      <trkpt lat="47.24257" lon="6.02913">
        <ele>247.8</ele>
        <time>2021-09-05T13:40:07Z</time>
      </trkpt>
      <trkpt lat="47.24259" lon="6.02908">
        <ele>247.8</ele>
        <time>2021-09-05T13:40:08Z</time>
      </trkpt>
      <trkpt lat="47.24266" lon="6.02898">
        <ele>247.8</ele>
        <time>2021-09-05T13:40:10Z</time>
      </trkpt>
      <trkpt lat="47.24269" lon="6.02894">
        <ele>247.8</ele>
        <time>2021-09-05T13:40:11Z</time>
      </trkpt>
      <trkpt lat="47.24272" lon="6.02889">
        <ele>247.8</ele>
        <time>2021-09-05T13:40:12Z</time>
      </trkpt>
      <trkpt lat="47.24275" lon="6.02886">
        <ele>247.8</ele>
        <time>2021-09-05T13:40:13Z</time>
      </trkpt>
      <trkpt lat="47.24276" lon="6.02881">
        <ele>247.8</ele>
        <time>2021-09-05T13:40:14Z</time>
      </trkpt>
      <trkpt lat="47.24297" lon="6.02846">
        <ele>247.6</ele>
        <time>2021-09-05T13:40:21Z</time>
      </trkpt>
      <trkpt lat="47.243" lon="6.02842">
        <ele>247.6</ele>
        <time>2021-09-05T13:40:22Z</time>
      </trkpt>
      <trkpt lat="47.2431" lon="6.0283">
        <ele>247.4</ele>
        <time>2021-09-05T13:40:25Z</time>
      </trkpt>
      <trkpt lat="47.24319" lon="6.02817">
        <ele>247.4</ele>
        <time>2021-09-05T13:40:28Z</time>
      </trkpt>
      <trkpt lat="47.24343" lon="6.02784">
        <ele>247.6</ele>
        <time>2021-09-05T13:40:36Z</time>
      </trkpt>
      <trkpt lat="47.24346" lon="6.02781">
        <ele>247.8</ele>
        <time>2021-09-05T13:40:37Z</time>
      </trkpt>
      <trkpt lat="47.24349" lon="6.02778">
        <ele>247.8</ele>
        <time>2021-09-05T13:40:38Z</time>
      </trkpt>
      <trkpt lat="47.24351" lon="6.02775">
        <ele>247.8</ele>
        <time>2021-09-05T13:40:39Z</time>
      </trkpt>
      <trkpt lat="47.24354" lon="6.02772">
        <ele>248</ele>
        <time>2021-09-05T13:40:40Z</time>
      </trkpt>
      <trkpt lat="47.24356" lon="6.02768">
        <ele>248</ele>
        <time>2021-09-05T13:40:41Z</time>
      </trkpt>
      <trkpt lat="47.24359" lon="6.02765">
        <ele>248.2</ele>
        <time>2021-09-05T13:40:42Z</time>
      </trkpt>
      <trkpt lat="47.24361" lon="6.02763">
        <ele>248.2</ele>
        <time>2021-09-05T13:40:43Z</time>
      </trkpt>
      <trkpt lat="47.24364" lon="6.02759">
        <ele>248.2</ele>
        <time>2021-09-05T13:40:44Z</time>
      </trkpt>
      <trkpt lat="47.24367" lon="6.02755">
        <ele>248.4</ele>
        <time>2021-09-05T13:40:45Z</time>
      </trkpt>
      <trkpt lat="47.24369" lon="6.02752">
        <ele>248.6</ele>
        <time>2021-09-05T13:40:46Z</time>
      </trkpt>
      <trkpt lat="47.24372" lon="6.02748">
        <ele>248.8</ele>
        <time>2021-09-05T13:40:47Z</time>
      </trkpt>
      <trkpt lat="47.24374" lon="6.02746">
        <ele>248.8</ele>
        <time>2021-09-05T13:40:48Z</time>
      </trkpt>
      <trkpt lat="47.24376" lon="6.02743">
        <ele>249</ele>
        <time>2021-09-05T13:40:49Z</time>
      </trkpt>
      <trkpt lat="47.24379" lon="6.0274">
        <ele>249</ele>
        <time>2021-09-05T13:40:50Z</time>
      </trkpt>
      <trkpt lat="47.24382" lon="6.02737">
        <ele>249.4</ele>
        <time>2021-09-05T13:40:51Z</time>
      </trkpt>
      <trkpt lat="47.24383" lon="6.02735">
        <ele>249.6</ele>
        <time>2021-09-05T13:40:52Z</time>
      </trkpt>
      <trkpt lat="47.24385" lon="6.02733">
        <ele>249.8</ele>
        <time>2021-09-05T13:40:53Z</time>
      </trkpt>
      <trkpt lat="47.24388" lon="6.0273">
        <ele>249.8</ele>
        <time>2021-09-05T13:40:54Z</time>
      </trkpt>
      <trkpt lat="47.2439" lon="6.02727">
        <ele>249.8</ele>
        <time>2021-09-05T13:40:55Z</time>
      </trkpt>
      <trkpt lat="47.24401" lon="6.02713">
        <ele>250.6</ele>
        <time>2021-09-05T13:40:59Z</time>
      </trkpt>
      <trkpt lat="47.24405" lon="6.0271">
        <ele>250.8</ele>
        <time>2021-09-05T13:41:01Z</time>
      </trkpt>
      <trkpt lat="47.24407" lon="6.0271">
        <ele>251</ele>
        <time>2021-09-05T13:41:02Z</time>
      </trkpt>
      <trkpt lat="47.2441" lon="6.02708">
        <ele>251</ele>
        <time>2021-09-05T13:41:03Z</time>
      </trkpt>
      <trkpt lat="47.24414" lon="6.02706">
        <ele>251.2</ele>
        <time>2021-09-05T13:41:04Z</time>
      </trkpt>
      <trkpt lat="47.24416" lon="6.02704">
        <ele>251.4</ele>
        <time>2021-09-05T13:41:05Z</time>
      </trkpt>
      <trkpt lat="47.24417" lon="6.02702">
        <ele>251.6</ele>
        <time>2021-09-05T13:41:06Z</time>
      </trkpt>
      <trkpt lat="47.24417" lon="6.02701">
        <ele>251.8</ele>
        <time>2021-09-05T13:41:07Z</time>
      </trkpt>
      <trkpt lat="47.24418" lon="6.02701">
        <ele>251.8</ele>
        <time>2021-09-05T13:41:08Z</time>
      </trkpt>
      <trkpt lat="47.24418" lon="6.02701">
        <ele>252</ele>
        <time>2021-09-05T13:41:09Z</time>
      </trkpt>
      <trkpt lat="47.24418" lon="6.02701">
        <ele>252.2</ele>
        <time>2021-09-05T13:41:10Z</time>
      </trkpt>
      <trkpt lat="47.24419" lon="6.02699">
        <ele>252.6</ele>
        <time>2021-09-05T13:41:24Z</time>
      </trkpt>
      <trkpt lat="47.24423" lon="6.02695">
        <ele>252.6</ele>
        <time>2021-09-05T13:41:26Z</time>
      </trkpt>
      <trkpt lat="47.24427" lon="6.0269">
        <ele>252.6</ele>
        <time>2021-09-05T13:41:29Z</time>
      </trkpt>
      <trkpt lat="47.24429" lon="6.02688">
        <ele>252.6</ele>
        <time>2021-09-05T13:41:30Z</time>
      </trkpt>
      <trkpt lat="47.24431" lon="6.02686">
        <ele>252.6</ele>
        <time>2021-09-05T13:41:31Z</time>
      </trkpt>
      <trkpt lat="47.24433" lon="6.02684">
        <ele>252.6</ele>
        <time>2021-09-05T13:41:32Z</time>
      </trkpt>
      <trkpt lat="47.2445" lon="6.02667">
        <ele>253.2</ele>
        <time>2021-09-05T13:41:39Z</time>
      </trkpt>
      <trkpt lat="47.24462" lon="6.02655">
        <ele>253.4</ele>
        <time>2021-09-05T13:41:44Z</time>
      </trkpt>
      <trkpt lat="47.24469" lon="6.02649">
        <ele>253.8</ele>
        <time>2021-09-05T13:41:47Z</time>
      </trkpt>
      <trkpt lat="47.24471" lon="6.02648">
        <ele>253.8</ele>
        <time>2021-09-05T13:41:48Z</time>
      </trkpt>
      <trkpt lat="47.24474" lon="6.02646">
        <ele>254</ele>
        <time>2021-09-05T13:41:49Z</time>
      </trkpt>
      <trkpt lat="47.24476" lon="6.02644">
        <ele>254</ele>
        <time>2021-09-05T13:41:50Z</time>
      </trkpt>
      <trkpt lat="47.24478" lon="6.02642">
        <ele>254</ele>
        <time>2021-09-05T13:41:51Z</time>
      </trkpt>
      <trkpt lat="47.2448" lon="6.02641">
        <ele>254.2</ele>
        <time>2021-09-05T13:41:52Z</time>
      </trkpt>
      <trkpt lat="47.24482" lon="6.02642">
        <ele>254.2</ele>
        <time>2021-09-05T13:41:53Z</time>
      </trkpt>
      <trkpt lat="47.24484" lon="6.02644">
        <ele>254.2</ele>
        <time>2021-09-05T13:41:54Z</time>
      </trkpt>
      <trkpt lat="47.24487" lon="6.02646">
        <ele>254.4</ele>
        <time>2021-09-05T13:41:55Z</time>
      </trkpt>
      <trkpt lat="47.24491" lon="6.02652">
        <ele>254.8</ele>
        <time>2021-09-05T13:41:57Z</time>
      </trkpt>
      <trkpt lat="47.24492" lon="6.02654">
        <ele>255</ele>
        <time>2021-09-05T13:41:58Z</time>
      </trkpt>
      <trkpt lat="47.24494" lon="6.02657">
        <ele>255.2</ele>
        <time>2021-09-05T13:41:59Z</time>
      </trkpt>
      <trkpt lat="47.24495" lon="6.02659">
        <ele>255.4</ele>
        <time>2021-09-05T13:42:00Z</time>
      </trkpt>
      <trkpt lat="47.24497" lon="6.02662">
        <ele>255.8</ele>
        <time>2021-09-05T13:42:02Z</time>
      </trkpt>
      <trkpt lat="47.24498" lon="6.02665">
        <ele>256</ele>
        <time>2021-09-05T13:42:03Z</time>
      </trkpt>
      <trkpt lat="47.24499" lon="6.02667">
        <ele>256</ele>
        <time>2021-09-05T13:42:04Z</time>
      </trkpt>
      <trkpt lat="47.245" lon="6.0267">
        <ele>256.2</ele>
        <time>2021-09-05T13:42:05Z</time>
      </trkpt>
      <trkpt lat="47.24501" lon="6.02672">
        <ele>256.2</ele>
        <time>2021-09-05T13:42:06Z</time>
      </trkpt>
      <trkpt lat="47.24503" lon="6.02674">
        <ele>256.4</ele>
        <time>2021-09-05T13:42:07Z</time>
      </trkpt>
      <trkpt lat="47.24505" lon="6.02677">
        <ele>256.4</ele>
        <time>2021-09-05T13:42:08Z</time>
      </trkpt>
      <trkpt lat="47.24507" lon="6.02679">
        <ele>256.6</ele>
        <time>2021-09-05T13:42:09Z</time>
      </trkpt>
      <trkpt lat="47.24508" lon="6.02682">
        <ele>256.6</ele>
        <time>2021-09-05T13:42:10Z</time>
      </trkpt>
      <trkpt lat="47.24509" lon="6.02684">
        <ele>256.8</ele>
        <time>2021-09-05T13:42:11Z</time>
      </trkpt>
      <trkpt lat="47.24511" lon="6.02687">
        <ele>256.8</ele>
        <time>2021-09-05T13:42:12Z</time>
      </trkpt>
      <trkpt lat="47.24514" lon="6.02689">
        <ele>257</ele>
        <time>2021-09-05T13:42:13Z</time>
      </trkpt>
      <trkpt lat="47.24515" lon="6.02692">
        <ele>257</ele>
        <time>2021-09-05T13:42:14Z</time>
      </trkpt>
      <trkpt lat="47.24517" lon="6.02696">
        <ele>257.2</ele>
        <time>2021-09-05T13:42:15Z</time>
      </trkpt>
      <trkpt lat="47.24519" lon="6.027">
        <ele>257.4</ele>
        <time>2021-09-05T13:42:16Z</time>
      </trkpt>
      <trkpt lat="47.2452" lon="6.02702">
        <ele>257.6</ele>
        <time>2021-09-05T13:42:17Z</time>
      </trkpt>
      <trkpt lat="47.24523" lon="6.02704">
        <ele>257.6</ele>
        <time>2021-09-05T13:42:18Z</time>
      </trkpt>
      <trkpt lat="47.24525" lon="6.02707">
        <ele>257.6</ele>
        <time>2021-09-05T13:42:19Z</time>
      </trkpt>
      <trkpt lat="47.24526" lon="6.02709">
        <ele>257.8</ele>
        <time>2021-09-05T13:42:20Z</time>
      </trkpt>
      <trkpt lat="47.24529" lon="6.02712">
        <ele>258</ele>
        <time>2021-09-05T13:42:21Z</time>
      </trkpt>
      <trkpt lat="47.24531" lon="6.02714">
        <ele>258</ele>
        <time>2021-09-05T13:42:22Z</time>
      </trkpt>
      <trkpt lat="47.24533" lon="6.02715">
        <ele>258.2</ele>
        <time>2021-09-05T13:42:23Z</time>
      </trkpt>
      <trkpt lat="47.24535" lon="6.02717">
        <ele>258.2</ele>
        <time>2021-09-05T13:42:24Z</time>
      </trkpt>
      <trkpt lat="47.24536" lon="6.02718">
        <ele>258.4</ele>
        <time>2021-09-05T13:42:25Z</time>
      </trkpt>
      <trkpt lat="47.24538" lon="6.02721">
        <ele>258.4</ele>
        <time>2021-09-05T13:42:26Z</time>
      </trkpt>
      <trkpt lat="47.24539" lon="6.02724">
        <ele>258.6</ele>
        <time>2021-09-05T13:42:27Z</time>
      </trkpt>
      <trkpt lat="47.2454" lon="6.02728">
        <ele>258.8</ele>
        <time>2021-09-05T13:42:28Z</time>
      </trkpt>
      <trkpt lat="47.24541" lon="6.02731">
        <ele>258.8</ele>
        <time>2021-09-05T13:42:29Z</time>
      </trkpt>
      <trkpt lat="47.24543" lon="6.02734">
        <ele>259</ele>
        <time>2021-09-05T13:42:30Z</time>
      </trkpt>
      <trkpt lat="47.24544" lon="6.02736">
        <ele>259</ele>
        <time>2021-09-05T13:42:31Z</time>
      </trkpt>
      <trkpt lat="47.24545" lon="6.02739">
        <ele>259</ele>
        <time>2021-09-05T13:42:32Z</time>
      </trkpt>
      <trkpt lat="47.24547" lon="6.02741">
        <ele>259</ele>
        <time>2021-09-05T13:42:33Z</time>
      </trkpt>
      <trkpt lat="47.24549" lon="6.02743">
        <ele>259.2</ele>
        <time>2021-09-05T13:42:34Z</time>
      </trkpt>
      <trkpt lat="47.2455" lon="6.02744">
        <ele>259.2</ele>
        <time>2021-09-05T13:42:35Z</time>
      </trkpt>
      <trkpt lat="47.2455" lon="6.02746">
        <ele>259.2</ele>
        <time>2021-09-05T13:42:36Z</time>
      </trkpt>
      <trkpt lat="47.24551" lon="6.02748">
        <ele>259.2</ele>
        <time>2021-09-05T13:42:37Z</time>
      </trkpt>
      <trkpt lat="47.24554" lon="6.0275">
        <ele>259.2</ele>
        <time>2021-09-05T13:42:38Z</time>
      </trkpt>
      <trkpt lat="47.24556" lon="6.02751">
        <ele>259.2</ele>
        <time>2021-09-05T13:42:39Z</time>
      </trkpt>
      <trkpt lat="47.24559" lon="6.02751">
        <ele>259.2</ele>
        <time>2021-09-05T13:42:41Z</time>
      </trkpt>
      <trkpt lat="47.2456" lon="6.02748">
        <ele>259.2</ele>
        <time>2021-09-05T13:42:42Z</time>
      </trkpt>
      <trkpt lat="47.24562" lon="6.02745">
        <ele>259.2</ele>
        <time>2021-09-05T13:42:43Z</time>
      </trkpt>
      <trkpt lat="47.24565" lon="6.0274">
        <ele>259.2</ele>
        <time>2021-09-05T13:42:44Z</time>
      </trkpt>
      <trkpt lat="47.24567" lon="6.02737">
        <ele>259.2</ele>
        <time>2021-09-05T13:42:45Z</time>
      </trkpt>
      <trkpt lat="47.24578" lon="6.02709">
        <ele>259.6</ele>
        <time>2021-09-05T13:42:51Z</time>
      </trkpt>
      <trkpt lat="47.2458" lon="6.02706">
        <ele>259.8</ele>
        <time>2021-09-05T13:42:52Z</time>
      </trkpt>
      <trkpt lat="47.24582" lon="6.02701">
        <ele>260</ele>
        <time>2021-09-05T13:42:53Z</time>
      </trkpt>
      <trkpt lat="47.24583" lon="6.02698">
        <ele>260</ele>
        <time>2021-09-05T13:42:54Z</time>
      </trkpt>
      <trkpt lat="47.24588" lon="6.02689">
        <ele>260.2</ele>
        <time>2021-09-05T13:42:57Z</time>
      </trkpt>
      <trkpt lat="47.2459" lon="6.02686">
        <ele>260.4</ele>
        <time>2021-09-05T13:42:58Z</time>
      </trkpt>
      <trkpt lat="47.24591" lon="6.02683">
        <ele>260.4</ele>
        <time>2021-09-05T13:42:59Z</time>
      </trkpt>
      <trkpt lat="47.24593" lon="6.0268">
        <ele>260.6</ele>
        <time>2021-09-05T13:43:00Z</time>
      </trkpt>
      <trkpt lat="47.24594" lon="6.02677">
        <ele>260.6</ele>
        <time>2021-09-05T13:43:01Z</time>
      </trkpt>
      <trkpt lat="47.24596" lon="6.02673">
        <ele>260.6</ele>
        <time>2021-09-05T13:43:02Z</time>
      </trkpt>
      <trkpt lat="47.24597" lon="6.02669">
        <ele>260.8</ele>
        <time>2021-09-05T13:43:03Z</time>
      </trkpt>
      <trkpt lat="47.24599" lon="6.02666">
        <ele>260.8</ele>
        <time>2021-09-05T13:43:04Z</time>
      </trkpt>
      <trkpt lat="47.24601" lon="6.02663">
        <ele>260.8</ele>
        <time>2021-09-05T13:43:05Z</time>
      </trkpt>
      <trkpt lat="47.24602" lon="6.0266">
        <ele>261</ele>
        <time>2021-09-05T13:43:06Z</time>
      </trkpt>
      <trkpt lat="47.24605" lon="6.02653">
        <ele>261.4</ele>
        <time>2021-09-05T13:43:08Z</time>
      </trkpt>
      <trkpt lat="47.24608" lon="6.02647">
        <ele>261.8</ele>
        <time>2021-09-05T13:43:10Z</time>
      </trkpt>
      <trkpt lat="47.24612" lon="6.02641">
        <ele>262.2</ele>
        <time>2021-09-05T13:43:12Z</time>
      </trkpt>
      <trkpt lat="47.24618" lon="6.02628">
        <ele>263</ele>
        <time>2021-09-05T13:43:16Z</time>
      </trkpt>
      <trkpt lat="47.24619" lon="6.02625">
        <ele>263.2</ele>
        <time>2021-09-05T13:43:17Z</time>
      </trkpt>
      <trkpt lat="47.24621" lon="6.02622">
        <ele>263.4</ele>
        <time>2021-09-05T13:43:18Z</time>
      </trkpt>
      <trkpt lat="47.24623" lon="6.02618">
        <ele>263.6</ele>
        <time>2021-09-05T13:43:19Z</time>
      </trkpt>
      <trkpt lat="47.24624" lon="6.02615">
        <ele>264</ele>
        <time>2021-09-05T13:43:20Z</time>
      </trkpt>
      <trkpt lat="47.24625" lon="6.02612">
        <ele>264</ele>
        <time>2021-09-05T13:43:21Z</time>
      </trkpt>
      <trkpt lat="47.24627" lon="6.02609">
        <ele>264.2</ele>
        <time>2021-09-05T13:43:22Z</time>
      </trkpt>
      <trkpt lat="47.24628" lon="6.02606">
        <ele>264.6</ele>
        <time>2021-09-05T13:43:23Z</time>
      </trkpt>
      <trkpt lat="47.24629" lon="6.02603">
        <ele>264.6</ele>
        <time>2021-09-05T13:43:24Z</time>
      </trkpt>
      <trkpt lat="47.2463" lon="6.026">
        <ele>264.6</ele>
        <time>2021-09-05T13:43:25Z</time>
      </trkpt>
      <trkpt lat="47.24631" lon="6.02596">
        <ele>264.8</ele>
        <time>2021-09-05T13:43:26Z</time>
      </trkpt>
      <trkpt lat="47.24632" lon="6.02593">
        <ele>265</ele>
        <time>2021-09-05T13:43:27Z</time>
      </trkpt>
      <trkpt lat="47.24633" lon="6.0259">
        <ele>265</ele>
        <time>2021-09-05T13:43:28Z</time>
      </trkpt>
      <trkpt lat="47.24634" lon="6.02588">
        <ele>265.2</ele>
        <time>2021-09-05T13:43:29Z</time>
      </trkpt>
      <trkpt lat="47.24635" lon="6.02585">
        <ele>265.4</ele>
        <time>2021-09-05T13:43:30Z</time>
      </trkpt>
      <trkpt lat="47.24635" lon="6.02583">
        <ele>265.4</ele>
        <time>2021-09-05T13:43:31Z</time>
      </trkpt>
      <trkpt lat="47.24636" lon="6.02581">
        <ele>265.6</ele>
        <time>2021-09-05T13:43:32Z</time>
      </trkpt>
      <trkpt lat="47.24637" lon="6.02579">
        <ele>265.6</ele>
        <time>2021-09-05T13:43:33Z</time>
      </trkpt>
      <trkpt lat="47.24638" lon="6.02579">
        <ele>265.6</ele>
        <time>2021-09-05T13:43:34Z</time>
      </trkpt>
      <trkpt lat="47.24638" lon="6.02579">
        <ele>265.6</ele>
        <time>2021-09-05T13:43:35Z</time>
      </trkpt>
      <trkpt lat="47.24639" lon="6.02579">
        <ele>265.6</ele>
        <time>2021-09-05T13:43:36Z</time>
      </trkpt>
      <trkpt lat="47.24639" lon="6.02579">
        <ele>265.6</ele>
        <time>2021-09-05T13:43:37Z</time>
      </trkpt>
      <trkpt lat="47.24639" lon="6.02578">
        <ele>265.6</ele>
        <time>2021-09-05T13:43:38Z</time>
      </trkpt>
      <trkpt lat="47.24639" lon="6.02577">
        <ele>265.8</ele>
        <time>2021-09-05T13:43:39Z</time>
      </trkpt>
      <trkpt lat="47.2464" lon="6.02575">
        <ele>265.8</ele>
        <time>2021-09-05T13:43:40Z</time>
      </trkpt>
      <trkpt lat="47.2464" lon="6.02573">
        <ele>265.6</ele>
        <time>2021-09-05T13:43:41Z</time>
      </trkpt>
      <trkpt lat="47.24639" lon="6.02571">
        <ele>265.4</ele>
        <time>2021-09-05T13:43:42Z</time>
      </trkpt>
      <trkpt lat="47.2464" lon="6.02568">
        <ele>265.6</ele>
        <time>2021-09-05T13:43:43Z</time>
      </trkpt>
      <trkpt lat="47.24641" lon="6.02565">
        <ele>265.6</ele>
        <time>2021-09-05T13:43:44Z</time>
      </trkpt>
      <trkpt lat="47.24643" lon="6.02562">
        <ele>265.6</ele>
        <time>2021-09-05T13:43:45Z</time>
      </trkpt>
      <trkpt lat="47.24644" lon="6.0256">
        <ele>265.6</ele>
        <time>2021-09-05T13:43:46Z</time>
      </trkpt>
      <trkpt lat="47.24645" lon="6.02558">
        <ele>265.8</ele>
        <time>2021-09-05T13:43:47Z</time>
      </trkpt>
      <trkpt lat="47.24649" lon="6.02555">
        <ele>265.8</ele>
        <time>2021-09-05T13:43:48Z</time>
      </trkpt>
      <trkpt lat="47.24651" lon="6.02553">
        <ele>265.8</ele>
        <time>2021-09-05T13:43:49Z</time>
      </trkpt>
      <trkpt lat="47.24653" lon="6.0255">
        <ele>266</ele>
        <time>2021-09-05T13:43:50Z</time>
      </trkpt>
      <trkpt lat="47.24655" lon="6.02547">
        <ele>266.2</ele>
        <time>2021-09-05T13:43:51Z</time>
      </trkpt>
      <trkpt lat="47.24657" lon="6.02545">
        <ele>266.4</ele>
        <time>2021-09-05T13:43:52Z</time>
      </trkpt>
      <trkpt lat="47.24659" lon="6.02543">
        <ele>266.6</ele>
        <time>2021-09-05T13:43:53Z</time>
      </trkpt>
      <trkpt lat="47.24667" lon="6.02535">
        <ele>266.8</ele>
        <time>2021-09-05T13:43:56Z</time>
      </trkpt>
      <trkpt lat="47.24668" lon="6.02531">
        <ele>267</ele>
        <time>2021-09-05T13:43:57Z</time>
      </trkpt>
      <trkpt lat="47.24673" lon="6.02524">
        <ele>267.6</ele>
        <time>2021-09-05T13:44:00Z</time>
      </trkpt>
      <trkpt lat="47.24677" lon="6.0252">
        <ele>268.2</ele>
        <time>2021-09-05T13:44:02Z</time>
      </trkpt>
      <trkpt lat="47.24679" lon="6.02518">
        <ele>268.4</ele>
        <time>2021-09-05T13:44:03Z</time>
      </trkpt>
      <trkpt lat="47.24681" lon="6.02517">
        <ele>268.4</ele>
        <time>2021-09-05T13:44:04Z</time>
      </trkpt>
      <trkpt lat="47.24683" lon="6.02515">
        <ele>268.6</ele>
        <time>2021-09-05T13:44:05Z</time>
      </trkpt>
      <trkpt lat="47.24686" lon="6.02514">
        <ele>269</ele>
        <time>2021-09-05T13:44:06Z</time>
      </trkpt>
      <trkpt lat="47.24686" lon="6.02514">
        <ele>269</ele>
        <time>2021-09-05T13:44:07Z</time>
      </trkpt>
      <trkpt lat="47.24686" lon="6.02514">
        <ele>269.4</ele>
        <time>2021-09-05T13:44:08Z</time>
      </trkpt>
      <trkpt lat="47.24686" lon="6.02514">
        <ele>269.6</ele>
        <time>2021-09-05T13:44:09Z</time>
      </trkpt>
      <trkpt lat="47.24686" lon="6.02514">
        <ele>270</ele>
        <time>2021-09-05T13:44:11Z</time>
      </trkpt>
      <trkpt lat="47.24686" lon="6.02514">
        <ele>270.4</ele>
        <time>2021-09-05T13:44:13Z</time>
      </trkpt>
      <trkpt lat="47.24686" lon="6.02514">
        <ele>270.4</ele>
        <time>2021-09-05T13:44:16Z</time>
      </trkpt>
    </trkseg>
  </trk>
</gpx>